<?xml version="1.0" encoding="UTF-8" standalone="no" ?>
<gpx xmlns="http://www.topografix.com/GPX/1/1" xmlns:xsi="http://www.w3.org/2001/XMLSchema-instance" xsi:schemaLocation="http://www.topografix.com/GPX/1/1 http://www.topografix.com/GPX/1/1/gpx.xsd" version="1.1" creator="VisuGPX - https://www.visugpx.com">
  <metadata>
    <name>la pointe d'Arcay  aller et retour</name>
  </metadata>
  <trk>
    <name><![CDATA[la pointe d'Arcay ]]></name>
    <extensions>
      <line xmlns="http://www.topografix.com/GPX/gpx_style/0/2">
        <color>0000ff</color>
        <width>4</width>
      </line>
    </extensions>
    <trkseg>
      <trkpt lat="46.30424" lon="-1.29775">
        <ele>4</ele>
        <time>2021-06-17T08:51:00Z</time>
      </trkpt>
      <trkpt lat="46.30424" lon="-1.29775">
        <ele>4</ele>
        <time>2021-06-17T08:51:01Z</time>
      </trkpt>
      <trkpt lat="46.30424" lon="-1.29775">
        <ele>4</ele>
        <time>2021-06-17T08:51:02Z</time>
      </trkpt>
      <trkpt lat="46.30425" lon="-1.29774">
        <ele>4</ele>
        <time>2021-06-17T08:51:03Z</time>
      </trkpt>
      <trkpt lat="46.30426" lon="-1.29773">
        <ele>4</ele>
        <time>2021-06-17T08:51:04Z</time>
      </trkpt>
      <trkpt lat="46.30426" lon="-1.29772">
        <ele>4</ele>
        <time>2021-06-17T08:51:05Z</time>
      </trkpt>
      <trkpt lat="46.30427" lon="-1.29771">
        <ele>4</ele>
        <time>2021-06-17T08:51:06Z</time>
      </trkpt>
      <trkpt lat="46.30427" lon="-1.2977">
        <ele>4</ele>
        <time>2021-06-17T08:51:07Z</time>
      </trkpt>
      <trkpt lat="46.30428" lon="-1.29768">
        <ele>4</ele>
        <time>2021-06-17T08:51:08Z</time>
      </trkpt>
      <trkpt lat="46.30428" lon="-1.29767">
        <ele>4</ele>
        <time>2021-06-17T08:51:09Z</time>
      </trkpt>
      <trkpt lat="46.30428" lon="-1.29766">
        <ele>4</ele>
        <time>2021-06-17T08:51:10Z</time>
      </trkpt>
      <trkpt lat="46.30429" lon="-1.29764">
        <ele>4</ele>
        <time>2021-06-17T08:51:11Z</time>
      </trkpt>
      <trkpt lat="46.30429" lon="-1.29763">
        <ele>4</ele>
        <time>2021-06-17T08:51:12Z</time>
      </trkpt>
      <trkpt lat="46.30429" lon="-1.29761">
        <ele>4</ele>
        <time>2021-06-17T08:51:13Z</time>
      </trkpt>
      <trkpt lat="46.30429" lon="-1.2976">
        <ele>4</ele>
        <time>2021-06-17T08:51:14Z</time>
      </trkpt>
      <trkpt lat="46.30429" lon="-1.29758">
        <ele>4</ele>
        <time>2021-06-17T08:51:15Z</time>
      </trkpt>
      <trkpt lat="46.3043" lon="-1.29756">
        <ele>3.9</ele>
        <time>2021-06-17T08:51:16Z</time>
      </trkpt>
      <trkpt lat="46.3043" lon="-1.29755">
        <ele>3.9</ele>
        <time>2021-06-17T08:51:17Z</time>
      </trkpt>
      <trkpt lat="46.3043" lon="-1.29753">
        <ele>3.9</ele>
        <time>2021-06-17T08:51:18Z</time>
      </trkpt>
      <trkpt lat="46.3043" lon="-1.29751">
        <ele>3.9</ele>
        <time>2021-06-17T08:51:19Z</time>
      </trkpt>
      <trkpt lat="46.3043" lon="-1.29749">
        <ele>3.9</ele>
        <time>2021-06-17T08:51:20Z</time>
      </trkpt>
      <trkpt lat="46.3043" lon="-1.29748">
        <ele>3.9</ele>
        <time>2021-06-17T08:51:21Z</time>
      </trkpt>
      <trkpt lat="46.30431" lon="-1.29746">
        <ele>3.9</ele>
        <time>2021-06-17T08:51:22Z</time>
      </trkpt>
      <trkpt lat="46.30431" lon="-1.29744">
        <ele>3.9</ele>
        <time>2021-06-17T08:51:23Z</time>
      </trkpt>
      <trkpt lat="46.30431" lon="-1.29742">
        <ele>3.9</ele>
        <time>2021-06-17T08:51:24Z</time>
      </trkpt>
      <trkpt lat="46.30432" lon="-1.2974">
        <ele>3.9</ele>
        <time>2021-06-17T08:51:25Z</time>
      </trkpt>
      <trkpt lat="46.30432" lon="-1.29739">
        <ele>3.9</ele>
        <time>2021-06-17T08:51:26Z</time>
      </trkpt>
      <trkpt lat="46.30432" lon="-1.29737">
        <ele>3.9</ele>
        <time>2021-06-17T08:51:27Z</time>
      </trkpt>
      <trkpt lat="46.30433" lon="-1.29735">
        <ele>3.9</ele>
        <time>2021-06-17T08:51:28Z</time>
      </trkpt>
      <trkpt lat="46.30433" lon="-1.29733">
        <ele>3.9</ele>
        <time>2021-06-17T08:51:29Z</time>
      </trkpt>
      <trkpt lat="46.30434" lon="-1.29731">
        <ele>3.9</ele>
        <time>2021-06-17T08:51:30Z</time>
      </trkpt>
      <trkpt lat="46.30434" lon="-1.2973">
        <ele>3.9</ele>
        <time>2021-06-17T08:51:31Z</time>
      </trkpt>
      <trkpt lat="46.30434" lon="-1.29728">
        <ele>3.9</ele>
        <time>2021-06-17T08:51:32Z</time>
      </trkpt>
      <trkpt lat="46.30435" lon="-1.29726">
        <ele>3.9</ele>
        <time>2021-06-17T08:51:33Z</time>
      </trkpt>
      <trkpt lat="46.30435" lon="-1.29724">
        <ele>3.9</ele>
        <time>2021-06-17T08:51:34Z</time>
      </trkpt>
      <trkpt lat="46.30435" lon="-1.29722">
        <ele>3.9</ele>
        <time>2021-06-17T08:51:35Z</time>
      </trkpt>
      <trkpt lat="46.30435" lon="-1.2972">
        <ele>3.9</ele>
        <time>2021-06-17T08:51:36Z</time>
      </trkpt>
      <trkpt lat="46.30436" lon="-1.29718">
        <ele>3.9</ele>
        <time>2021-06-17T08:51:37Z</time>
      </trkpt>
      <trkpt lat="46.30436" lon="-1.29716">
        <ele>3.9</ele>
        <time>2021-06-17T08:51:38Z</time>
      </trkpt>
      <trkpt lat="46.30436" lon="-1.29714">
        <ele>3.9</ele>
        <time>2021-06-17T08:51:39Z</time>
      </trkpt>
      <trkpt lat="46.30436" lon="-1.29712">
        <ele>3.9</ele>
        <time>2021-06-17T08:51:40Z</time>
      </trkpt>
      <trkpt lat="46.30436" lon="-1.2971">
        <ele>3.9</ele>
        <time>2021-06-17T08:51:41Z</time>
      </trkpt>
      <trkpt lat="46.30436" lon="-1.29709">
        <ele>4</ele>
        <time>2021-06-17T08:51:42Z</time>
      </trkpt>
      <trkpt lat="46.30436" lon="-1.29707">
        <ele>4</ele>
        <time>2021-06-17T08:51:43Z</time>
      </trkpt>
      <trkpt lat="46.30436" lon="-1.29705">
        <ele>4</ele>
        <time>2021-06-17T08:51:44Z</time>
      </trkpt>
      <trkpt lat="46.30437" lon="-1.29703">
        <ele>4</ele>
        <time>2021-06-17T08:51:45Z</time>
      </trkpt>
      <trkpt lat="46.30437" lon="-1.29701">
        <ele>4</ele>
        <time>2021-06-17T08:51:46Z</time>
      </trkpt>
      <trkpt lat="46.30437" lon="-1.29699">
        <ele>4</ele>
        <time>2021-06-17T08:51:47Z</time>
      </trkpt>
      <trkpt lat="46.30438" lon="-1.29698">
        <ele>4</ele>
        <time>2021-06-17T08:51:48Z</time>
      </trkpt>
      <trkpt lat="46.30438" lon="-1.29696">
        <ele>4</ele>
        <time>2021-06-17T08:51:49Z</time>
      </trkpt>
      <trkpt lat="46.30438" lon="-1.29694">
        <ele>4</ele>
        <time>2021-06-17T08:51:50Z</time>
      </trkpt>
      <trkpt lat="46.30438" lon="-1.29692">
        <ele>4</ele>
        <time>2021-06-17T08:51:51Z</time>
      </trkpt>
      <trkpt lat="46.30439" lon="-1.29691">
        <ele>4</ele>
        <time>2021-06-17T08:51:52Z</time>
      </trkpt>
      <trkpt lat="46.30439" lon="-1.29689">
        <ele>4</ele>
        <time>2021-06-17T08:51:53Z</time>
      </trkpt>
      <trkpt lat="46.30439" lon="-1.29687">
        <ele>4</ele>
        <time>2021-06-17T08:51:54Z</time>
      </trkpt>
      <trkpt lat="46.3044" lon="-1.29685">
        <ele>4</ele>
        <time>2021-06-17T08:51:55Z</time>
      </trkpt>
      <trkpt lat="46.3044" lon="-1.29683">
        <ele>4</ele>
        <time>2021-06-17T08:51:56Z</time>
      </trkpt>
      <trkpt lat="46.3044" lon="-1.29682">
        <ele>4</ele>
        <time>2021-06-17T08:51:57Z</time>
      </trkpt>
      <trkpt lat="46.3044" lon="-1.2968">
        <ele>4</ele>
        <time>2021-06-17T08:51:58Z</time>
      </trkpt>
      <trkpt lat="46.30441" lon="-1.29678">
        <ele>4</ele>
        <time>2021-06-17T08:51:59Z</time>
      </trkpt>
      <trkpt lat="46.30441" lon="-1.29676">
        <ele>4</ele>
        <time>2021-06-17T08:52:00Z</time>
      </trkpt>
      <trkpt lat="46.30441" lon="-1.29675">
        <ele>4</ele>
        <time>2021-06-17T08:52:01Z</time>
      </trkpt>
      <trkpt lat="46.30441" lon="-1.29673">
        <ele>4</ele>
        <time>2021-06-17T08:52:02Z</time>
      </trkpt>
      <trkpt lat="46.30442" lon="-1.29671">
        <ele>4</ele>
        <time>2021-06-17T08:52:03Z</time>
      </trkpt>
      <trkpt lat="46.30442" lon="-1.2967">
        <ele>4</ele>
        <time>2021-06-17T08:52:04Z</time>
      </trkpt>
      <trkpt lat="46.30442" lon="-1.29668">
        <ele>4</ele>
        <time>2021-06-17T08:52:05Z</time>
      </trkpt>
      <trkpt lat="46.30442" lon="-1.29666">
        <ele>4</ele>
        <time>2021-06-17T08:52:06Z</time>
      </trkpt>
      <trkpt lat="46.30443" lon="-1.29665">
        <ele>4</ele>
        <time>2021-06-17T08:52:07Z</time>
      </trkpt>
      <trkpt lat="46.30443" lon="-1.29663">
        <ele>4</ele>
        <time>2021-06-17T08:52:08Z</time>
      </trkpt>
      <trkpt lat="46.30443" lon="-1.29662">
        <ele>4</ele>
        <time>2021-06-17T08:52:09Z</time>
      </trkpt>
      <trkpt lat="46.30443" lon="-1.2966">
        <ele>4</ele>
        <time>2021-06-17T08:52:10Z</time>
      </trkpt>
      <trkpt lat="46.30444" lon="-1.29659">
        <ele>4</ele>
        <time>2021-06-17T08:52:11Z</time>
      </trkpt>
      <trkpt lat="46.30444" lon="-1.29657">
        <ele>4</ele>
        <time>2021-06-17T08:52:12Z</time>
      </trkpt>
      <trkpt lat="46.30444" lon="-1.29656">
        <ele>4</ele>
        <time>2021-06-17T08:52:13Z</time>
      </trkpt>
      <trkpt lat="46.30444" lon="-1.29654">
        <ele>4</ele>
        <time>2021-06-17T08:52:14Z</time>
      </trkpt>
      <trkpt lat="46.30445" lon="-1.29653">
        <ele>4</ele>
        <time>2021-06-17T08:52:15Z</time>
      </trkpt>
      <trkpt lat="46.30445" lon="-1.29651">
        <ele>4</ele>
        <time>2021-06-17T08:52:16Z</time>
      </trkpt>
      <trkpt lat="46.30445" lon="-1.2965">
        <ele>3.9</ele>
        <time>2021-06-17T08:52:17Z</time>
      </trkpt>
      <trkpt lat="46.30445" lon="-1.29648">
        <ele>3.9</ele>
        <time>2021-06-17T08:52:18Z</time>
      </trkpt>
      <trkpt lat="46.30445" lon="-1.29647">
        <ele>3.9</ele>
        <time>2021-06-17T08:52:19Z</time>
      </trkpt>
      <trkpt lat="46.30445" lon="-1.29645">
        <ele>3.9</ele>
        <time>2021-06-17T08:52:20Z</time>
      </trkpt>
      <trkpt lat="46.30446" lon="-1.29644">
        <ele>3.9</ele>
        <time>2021-06-17T08:52:21Z</time>
      </trkpt>
      <trkpt lat="46.30446" lon="-1.29643">
        <ele>3.9</ele>
        <time>2021-06-17T08:52:22Z</time>
      </trkpt>
      <trkpt lat="46.30446" lon="-1.29641">
        <ele>3.9</ele>
        <time>2021-06-17T08:52:23Z</time>
      </trkpt>
      <trkpt lat="46.30446" lon="-1.2964">
        <ele>3.9</ele>
        <time>2021-06-17T08:52:24Z</time>
      </trkpt>
      <trkpt lat="46.30446" lon="-1.29639">
        <ele>3.9</ele>
        <time>2021-06-17T08:52:25Z</time>
      </trkpt>
      <trkpt lat="46.30446" lon="-1.29638">
        <ele>3.9</ele>
        <time>2021-06-17T08:52:26Z</time>
      </trkpt>
      <trkpt lat="46.30446" lon="-1.29638">
        <ele>3.9</ele>
        <time>2021-06-17T08:52:27Z</time>
      </trkpt>
      <trkpt lat="46.30446" lon="-1.29638">
        <ele>3.9</ele>
        <time>2021-06-17T08:52:28Z</time>
      </trkpt>
      <trkpt lat="46.30446" lon="-1.29638">
        <ele>3.9</ele>
        <time>2021-06-17T08:52:29Z</time>
      </trkpt>
      <trkpt lat="46.30446" lon="-1.29638">
        <ele>3.9</ele>
        <time>2021-06-17T08:52:30Z</time>
      </trkpt>
      <trkpt lat="46.30446" lon="-1.29639">
        <ele>3.9</ele>
        <time>2021-06-17T08:52:31Z</time>
      </trkpt>
      <trkpt lat="46.30446" lon="-1.29638">
        <ele>3.9</ele>
        <time>2021-06-17T08:52:32Z</time>
      </trkpt>
      <trkpt lat="46.30446" lon="-1.29638">
        <ele>3.9</ele>
        <time>2021-06-17T08:52:33Z</time>
      </trkpt>
      <trkpt lat="46.30446" lon="-1.29637">
        <ele>3.9</ele>
        <time>2021-06-17T08:52:34Z</time>
      </trkpt>
      <trkpt lat="46.30446" lon="-1.29635">
        <ele>3.9</ele>
        <time>2021-06-17T08:52:35Z</time>
      </trkpt>
      <trkpt lat="46.30446" lon="-1.29634">
        <ele>3.9</ele>
        <time>2021-06-17T08:52:36Z</time>
      </trkpt>
      <trkpt lat="46.30446" lon="-1.29632">
        <ele>3.9</ele>
        <time>2021-06-17T08:52:37Z</time>
      </trkpt>
      <trkpt lat="46.30446" lon="-1.2963">
        <ele>3.9</ele>
        <time>2021-06-17T08:52:38Z</time>
      </trkpt>
      <trkpt lat="46.30446" lon="-1.29629">
        <ele>3.9</ele>
        <time>2021-06-17T08:52:39Z</time>
      </trkpt>
      <trkpt lat="46.30447" lon="-1.29627">
        <ele>3.9</ele>
        <time>2021-06-17T08:52:40Z</time>
      </trkpt>
      <trkpt lat="46.30447" lon="-1.29625">
        <ele>3.9</ele>
        <time>2021-06-17T08:52:41Z</time>
      </trkpt>
      <trkpt lat="46.30447" lon="-1.29624">
        <ele>3.9</ele>
        <time>2021-06-17T08:52:42Z</time>
      </trkpt>
      <trkpt lat="46.30448" lon="-1.29622">
        <ele>3.9</ele>
        <time>2021-06-17T08:52:43Z</time>
      </trkpt>
      <trkpt lat="46.30448" lon="-1.2962">
        <ele>3.9</ele>
        <time>2021-06-17T08:52:44Z</time>
      </trkpt>
      <trkpt lat="46.30449" lon="-1.29619">
        <ele>3.9</ele>
        <time>2021-06-17T08:52:45Z</time>
      </trkpt>
      <trkpt lat="46.30449" lon="-1.29617">
        <ele>3.9</ele>
        <time>2021-06-17T08:52:46Z</time>
      </trkpt>
      <trkpt lat="46.30449" lon="-1.29615">
        <ele>3.9</ele>
        <time>2021-06-17T08:52:47Z</time>
      </trkpt>
      <trkpt lat="46.3045" lon="-1.29613">
        <ele>3.9</ele>
        <time>2021-06-17T08:52:48Z</time>
      </trkpt>
      <trkpt lat="46.3045" lon="-1.29611">
        <ele>3.9</ele>
        <time>2021-06-17T08:52:49Z</time>
      </trkpt>
      <trkpt lat="46.30451" lon="-1.29609">
        <ele>3.9</ele>
        <time>2021-06-17T08:52:50Z</time>
      </trkpt>
      <trkpt lat="46.30451" lon="-1.29607">
        <ele>3.9</ele>
        <time>2021-06-17T08:52:51Z</time>
      </trkpt>
      <trkpt lat="46.30451" lon="-1.29605">
        <ele>3.9</ele>
        <time>2021-06-17T08:52:52Z</time>
      </trkpt>
      <trkpt lat="46.30452" lon="-1.29603">
        <ele>3.9</ele>
        <time>2021-06-17T08:52:53Z</time>
      </trkpt>
      <trkpt lat="46.30452" lon="-1.29602">
        <ele>3.9</ele>
        <time>2021-06-17T08:52:54Z</time>
      </trkpt>
      <trkpt lat="46.30452" lon="-1.296">
        <ele>3.9</ele>
        <time>2021-06-17T08:52:55Z</time>
      </trkpt>
      <trkpt lat="46.30453" lon="-1.29598">
        <ele>3.9</ele>
        <time>2021-06-17T08:52:56Z</time>
      </trkpt>
      <trkpt lat="46.30453" lon="-1.29596">
        <ele>3.9</ele>
        <time>2021-06-17T08:52:57Z</time>
      </trkpt>
      <trkpt lat="46.30453" lon="-1.29595">
        <ele>3.9</ele>
        <time>2021-06-17T08:52:58Z</time>
      </trkpt>
      <trkpt lat="46.30453" lon="-1.29594">
        <ele>3.9</ele>
        <time>2021-06-17T08:52:59Z</time>
      </trkpt>
      <trkpt lat="46.30453" lon="-1.29593">
        <ele>3.9</ele>
        <time>2021-06-17T08:53:00Z</time>
      </trkpt>
      <trkpt lat="46.30453" lon="-1.29592">
        <ele>3.9</ele>
        <time>2021-06-17T08:53:01Z</time>
      </trkpt>
      <trkpt lat="46.30453" lon="-1.29592">
        <ele>3.9</ele>
        <time>2021-06-17T08:53:02Z</time>
      </trkpt>
      <trkpt lat="46.30453" lon="-1.29592">
        <ele>3.9</ele>
        <time>2021-06-17T08:53:03Z</time>
      </trkpt>
      <trkpt lat="46.30453" lon="-1.29592">
        <ele>3.9</ele>
        <time>2021-06-17T08:53:04Z</time>
      </trkpt>
      <trkpt lat="46.30453" lon="-1.29592">
        <ele>3.9</ele>
        <time>2021-06-17T08:53:05Z</time>
      </trkpt>
      <trkpt lat="46.30452" lon="-1.29592">
        <ele>3.9</ele>
        <time>2021-06-17T08:53:06Z</time>
      </trkpt>
      <trkpt lat="46.30452" lon="-1.29592">
        <ele>3.9</ele>
        <time>2021-06-17T08:53:07Z</time>
      </trkpt>
      <trkpt lat="46.30452" lon="-1.29592">
        <ele>3.9</ele>
        <time>2021-06-17T08:53:08Z</time>
      </trkpt>
      <trkpt lat="46.30452" lon="-1.29591">
        <ele>3.9</ele>
        <time>2021-06-17T08:53:09Z</time>
      </trkpt>
      <trkpt lat="46.30453" lon="-1.29591">
        <ele>3.9</ele>
        <time>2021-06-17T08:53:10Z</time>
      </trkpt>
      <trkpt lat="46.30453" lon="-1.2959">
        <ele>3.9</ele>
        <time>2021-06-17T08:53:11Z</time>
      </trkpt>
      <trkpt lat="46.30453" lon="-1.29589">
        <ele>3.9</ele>
        <time>2021-06-17T08:53:12Z</time>
      </trkpt>
      <trkpt lat="46.30453" lon="-1.29588">
        <ele>3.9</ele>
        <time>2021-06-17T08:53:13Z</time>
      </trkpt>
      <trkpt lat="46.30453" lon="-1.29586">
        <ele>3.9</ele>
        <time>2021-06-17T08:53:14Z</time>
      </trkpt>
      <trkpt lat="46.30454" lon="-1.29585">
        <ele>3.9</ele>
        <time>2021-06-17T08:53:15Z</time>
      </trkpt>
      <trkpt lat="46.30454" lon="-1.29583">
        <ele>3.9</ele>
        <time>2021-06-17T08:53:16Z</time>
      </trkpt>
      <trkpt lat="46.30455" lon="-1.29581">
        <ele>3.9</ele>
        <time>2021-06-17T08:53:17Z</time>
      </trkpt>
      <trkpt lat="46.30455" lon="-1.2958">
        <ele>3.9</ele>
        <time>2021-06-17T08:53:18Z</time>
      </trkpt>
      <trkpt lat="46.30455" lon="-1.29578">
        <ele>3.8</ele>
        <time>2021-06-17T08:53:19Z</time>
      </trkpt>
      <trkpt lat="46.30456" lon="-1.29576">
        <ele>3.8</ele>
        <time>2021-06-17T08:53:20Z</time>
      </trkpt>
      <trkpt lat="46.30456" lon="-1.29574">
        <ele>3.8</ele>
        <time>2021-06-17T08:53:21Z</time>
      </trkpt>
      <trkpt lat="46.30457" lon="-1.29572">
        <ele>3.8</ele>
        <time>2021-06-17T08:53:22Z</time>
      </trkpt>
      <trkpt lat="46.30457" lon="-1.2957">
        <ele>3.8</ele>
        <time>2021-06-17T08:53:23Z</time>
      </trkpt>
      <trkpt lat="46.30458" lon="-1.29568">
        <ele>3.8</ele>
        <time>2021-06-17T08:53:24Z</time>
      </trkpt>
      <trkpt lat="46.30459" lon="-1.29566">
        <ele>3.8</ele>
        <time>2021-06-17T08:53:25Z</time>
      </trkpt>
      <trkpt lat="46.30459" lon="-1.29564">
        <ele>3.8</ele>
        <time>2021-06-17T08:53:26Z</time>
      </trkpt>
      <trkpt lat="46.3046" lon="-1.29562">
        <ele>3.8</ele>
        <time>2021-06-17T08:53:27Z</time>
      </trkpt>
      <trkpt lat="46.3046" lon="-1.29561">
        <ele>3.8</ele>
        <time>2021-06-17T08:53:28Z</time>
      </trkpt>
      <trkpt lat="46.30461" lon="-1.29559">
        <ele>3.8</ele>
        <time>2021-06-17T08:53:29Z</time>
      </trkpt>
      <trkpt lat="46.30461" lon="-1.29557">
        <ele>3.8</ele>
        <time>2021-06-17T08:53:30Z</time>
      </trkpt>
      <trkpt lat="46.30462" lon="-1.29555">
        <ele>3.8</ele>
        <time>2021-06-17T08:53:31Z</time>
      </trkpt>
      <trkpt lat="46.30462" lon="-1.29553">
        <ele>3.8</ele>
        <time>2021-06-17T08:53:32Z</time>
      </trkpt>
      <trkpt lat="46.30463" lon="-1.29552">
        <ele>3.8</ele>
        <time>2021-06-17T08:53:33Z</time>
      </trkpt>
      <trkpt lat="46.30463" lon="-1.2955">
        <ele>3.8</ele>
        <time>2021-06-17T08:53:34Z</time>
      </trkpt>
      <trkpt lat="46.30464" lon="-1.29548">
        <ele>3.8</ele>
        <time>2021-06-17T08:53:35Z</time>
      </trkpt>
      <trkpt lat="46.30464" lon="-1.29547">
        <ele>3.8</ele>
        <time>2021-06-17T08:53:36Z</time>
      </trkpt>
      <trkpt lat="46.30465" lon="-1.29545">
        <ele>3.8</ele>
        <time>2021-06-17T08:53:37Z</time>
      </trkpt>
      <trkpt lat="46.30465" lon="-1.29544">
        <ele>3.8</ele>
        <time>2021-06-17T08:53:38Z</time>
      </trkpt>
      <trkpt lat="46.30466" lon="-1.29542">
        <ele>3.8</ele>
        <time>2021-06-17T08:53:39Z</time>
      </trkpt>
      <trkpt lat="46.30466" lon="-1.2954">
        <ele>3.8</ele>
        <time>2021-06-17T08:53:40Z</time>
      </trkpt>
      <trkpt lat="46.30467" lon="-1.29539">
        <ele>3.8</ele>
        <time>2021-06-17T08:53:41Z</time>
      </trkpt>
      <trkpt lat="46.30467" lon="-1.29537">
        <ele>3.8</ele>
        <time>2021-06-17T08:53:42Z</time>
      </trkpt>
      <trkpt lat="46.30468" lon="-1.29535">
        <ele>3.8</ele>
        <time>2021-06-17T08:53:43Z</time>
      </trkpt>
      <trkpt lat="46.30468" lon="-1.29534">
        <ele>3.8</ele>
        <time>2021-06-17T08:53:44Z</time>
      </trkpt>
      <trkpt lat="46.30469" lon="-1.29532">
        <ele>3.8</ele>
        <time>2021-06-17T08:53:45Z</time>
      </trkpt>
      <trkpt lat="46.30469" lon="-1.2953">
        <ele>3.8</ele>
        <time>2021-06-17T08:53:46Z</time>
      </trkpt>
      <trkpt lat="46.3047" lon="-1.29528">
        <ele>3.8</ele>
        <time>2021-06-17T08:53:47Z</time>
      </trkpt>
      <trkpt lat="46.3047" lon="-1.29527">
        <ele>3.8</ele>
        <time>2021-06-17T08:53:48Z</time>
      </trkpt>
      <trkpt lat="46.30471" lon="-1.29525">
        <ele>3.8</ele>
        <time>2021-06-17T08:53:49Z</time>
      </trkpt>
      <trkpt lat="46.30471" lon="-1.29523">
        <ele>3.8</ele>
        <time>2021-06-17T08:53:50Z</time>
      </trkpt>
      <trkpt lat="46.30472" lon="-1.29521">
        <ele>3.8</ele>
        <time>2021-06-17T08:53:51Z</time>
      </trkpt>
      <trkpt lat="46.30472" lon="-1.29519">
        <ele>3.8</ele>
        <time>2021-06-17T08:53:52Z</time>
      </trkpt>
      <trkpt lat="46.30473" lon="-1.29517">
        <ele>3.8</ele>
        <time>2021-06-17T08:53:53Z</time>
      </trkpt>
      <trkpt lat="46.30473" lon="-1.29515">
        <ele>3.8</ele>
        <time>2021-06-17T08:53:54Z</time>
      </trkpt>
      <trkpt lat="46.30474" lon="-1.29513">
        <ele>3.8</ele>
        <time>2021-06-17T08:53:55Z</time>
      </trkpt>
      <trkpt lat="46.30474" lon="-1.29512">
        <ele>3.8</ele>
        <time>2021-06-17T08:53:56Z</time>
      </trkpt>
      <trkpt lat="46.30475" lon="-1.2951">
        <ele>3.8</ele>
        <time>2021-06-17T08:53:57Z</time>
      </trkpt>
      <trkpt lat="46.30475" lon="-1.29508">
        <ele>3.8</ele>
        <time>2021-06-17T08:53:58Z</time>
      </trkpt>
      <trkpt lat="46.30476" lon="-1.29506">
        <ele>3.8</ele>
        <time>2021-06-17T08:53:59Z</time>
      </trkpt>
      <trkpt lat="46.30476" lon="-1.29504">
        <ele>3.7</ele>
        <time>2021-06-17T08:54:00Z</time>
      </trkpt>
      <trkpt lat="46.30477" lon="-1.29502">
        <ele>3.7</ele>
        <time>2021-06-17T08:54:01Z</time>
      </trkpt>
      <trkpt lat="46.30478" lon="-1.295">
        <ele>3.7</ele>
        <time>2021-06-17T08:54:02Z</time>
      </trkpt>
      <trkpt lat="46.30478" lon="-1.29499">
        <ele>3.7</ele>
        <time>2021-06-17T08:54:03Z</time>
      </trkpt>
      <trkpt lat="46.30479" lon="-1.29497">
        <ele>3.7</ele>
        <time>2021-06-17T08:54:04Z</time>
      </trkpt>
      <trkpt lat="46.3048" lon="-1.29495">
        <ele>2.9</ele>
        <time>2021-06-17T08:54:05Z</time>
      </trkpt>
      <trkpt lat="46.30481" lon="-1.29494">
        <ele>2.9</ele>
        <time>2021-06-17T08:54:06Z</time>
      </trkpt>
      <trkpt lat="46.30481" lon="-1.29493">
        <ele>2.9</ele>
        <time>2021-06-17T08:54:07Z</time>
      </trkpt>
      <trkpt lat="46.30482" lon="-1.29492">
        <ele>2.8</ele>
        <time>2021-06-17T08:54:08Z</time>
      </trkpt>
      <trkpt lat="46.30483" lon="-1.29491">
        <ele>2.8</ele>
        <time>2021-06-17T08:54:09Z</time>
      </trkpt>
      <trkpt lat="46.30484" lon="-1.29491">
        <ele>2.8</ele>
        <time>2021-06-17T08:54:10Z</time>
      </trkpt>
      <trkpt lat="46.30484" lon="-1.29491">
        <ele>2.7</ele>
        <time>2021-06-17T08:54:11Z</time>
      </trkpt>
      <trkpt lat="46.30485" lon="-1.29491">
        <ele>2.7</ele>
        <time>2021-06-17T08:54:12Z</time>
      </trkpt>
      <trkpt lat="46.30486" lon="-1.29492">
        <ele>2.7</ele>
        <time>2021-06-17T08:54:13Z</time>
      </trkpt>
      <trkpt lat="46.30487" lon="-1.29492">
        <ele>2.7</ele>
        <time>2021-06-17T08:54:14Z</time>
      </trkpt>
      <trkpt lat="46.30487" lon="-1.29492">
        <ele>2.6</ele>
        <time>2021-06-17T08:54:15Z</time>
      </trkpt>
      <trkpt lat="46.30488" lon="-1.29493">
        <ele>2.6</ele>
        <time>2021-06-17T08:54:16Z</time>
      </trkpt>
      <trkpt lat="46.30488" lon="-1.29493">
        <ele>2.6</ele>
        <time>2021-06-17T08:54:17Z</time>
      </trkpt>
      <trkpt lat="46.30488" lon="-1.29493">
        <ele>2.6</ele>
        <time>2021-06-17T08:54:18Z</time>
      </trkpt>
      <trkpt lat="46.30488" lon="-1.29493">
        <ele>2.6</ele>
        <time>2021-06-17T08:54:19Z</time>
      </trkpt>
      <trkpt lat="46.30488" lon="-1.29493">
        <ele>2.6</ele>
        <time>2021-06-17T08:54:20Z</time>
      </trkpt>
      <trkpt lat="46.30488" lon="-1.29493">
        <ele>2.6</ele>
        <time>2021-06-17T08:54:21Z</time>
      </trkpt>
      <trkpt lat="46.30488" lon="-1.29493">
        <ele>2.6</ele>
        <time>2021-06-17T08:54:22Z</time>
      </trkpt>
      <trkpt lat="46.30488" lon="-1.29493">
        <ele>2.6</ele>
        <time>2021-06-17T08:54:23Z</time>
      </trkpt>
      <trkpt lat="46.30488" lon="-1.29493">
        <ele>2.6</ele>
        <time>2021-06-17T08:54:24Z</time>
      </trkpt>
      <trkpt lat="46.30488" lon="-1.29493">
        <ele>2.6</ele>
        <time>2021-06-17T08:54:25Z</time>
      </trkpt>
      <trkpt lat="46.30488" lon="-1.29493">
        <ele>2.6</ele>
        <time>2021-06-17T08:54:26Z</time>
      </trkpt>
      <trkpt lat="46.30488" lon="-1.29493">
        <ele>2.6</ele>
        <time>2021-06-17T08:54:27Z</time>
      </trkpt>
      <trkpt lat="46.30488" lon="-1.29493">
        <ele>2.6</ele>
        <time>2021-06-17T08:54:28Z</time>
      </trkpt>
      <trkpt lat="46.30488" lon="-1.29493">
        <ele>2.6</ele>
        <time>2021-06-17T08:54:29Z</time>
      </trkpt>
      <trkpt lat="46.30488" lon="-1.29493">
        <ele>2.6</ele>
        <time>2021-06-17T08:54:30Z</time>
      </trkpt>
      <trkpt lat="46.30488" lon="-1.29493">
        <ele>2.6</ele>
        <time>2021-06-17T08:54:31Z</time>
      </trkpt>
      <trkpt lat="46.30488" lon="-1.29493">
        <ele>2.6</ele>
        <time>2021-06-17T08:54:32Z</time>
      </trkpt>
      <trkpt lat="46.30488" lon="-1.29493">
        <ele>2.6</ele>
        <time>2021-06-17T08:54:33Z</time>
      </trkpt>
      <trkpt lat="46.30488" lon="-1.29493">
        <ele>2.6</ele>
        <time>2021-06-17T08:54:34Z</time>
      </trkpt>
      <trkpt lat="46.30488" lon="-1.29493">
        <ele>2.6</ele>
        <time>2021-06-17T08:54:35Z</time>
      </trkpt>
      <trkpt lat="46.30488" lon="-1.29493">
        <ele>2.6</ele>
        <time>2021-06-17T08:54:36Z</time>
      </trkpt>
      <trkpt lat="46.30488" lon="-1.29493">
        <ele>2.6</ele>
        <time>2021-06-17T08:54:37Z</time>
      </trkpt>
      <trkpt lat="46.30488" lon="-1.29493">
        <ele>2.6</ele>
        <time>2021-06-17T08:54:38Z</time>
      </trkpt>
      <trkpt lat="46.30488" lon="-1.29493">
        <ele>2.6</ele>
        <time>2021-06-17T08:54:39Z</time>
      </trkpt>
      <trkpt lat="46.30488" lon="-1.29493">
        <ele>2.6</ele>
        <time>2021-06-17T08:54:40Z</time>
      </trkpt>
      <trkpt lat="46.30488" lon="-1.29493">
        <ele>2.6</ele>
        <time>2021-06-17T08:54:41Z</time>
      </trkpt>
      <trkpt lat="46.30488" lon="-1.29493">
        <ele>2.6</ele>
        <time>2021-06-17T08:54:42Z</time>
      </trkpt>
      <trkpt lat="46.30488" lon="-1.29493">
        <ele>2.6</ele>
        <time>2021-06-17T08:54:43Z</time>
      </trkpt>
      <trkpt lat="46.30488" lon="-1.29493">
        <ele>2.6</ele>
        <time>2021-06-17T08:54:44Z</time>
      </trkpt>
      <trkpt lat="46.30488" lon="-1.29493">
        <ele>2.6</ele>
        <time>2021-06-17T08:54:45Z</time>
      </trkpt>
      <trkpt lat="46.30488" lon="-1.29493">
        <ele>2.6</ele>
        <time>2021-06-17T08:54:46Z</time>
      </trkpt>
      <trkpt lat="46.30488" lon="-1.29493">
        <ele>2.6</ele>
        <time>2021-06-17T08:54:47Z</time>
      </trkpt>
      <trkpt lat="46.30488" lon="-1.29493">
        <ele>2.6</ele>
        <time>2021-06-17T08:54:48Z</time>
      </trkpt>
      <trkpt lat="46.30488" lon="-1.29493">
        <ele>2.6</ele>
        <time>2021-06-17T08:54:49Z</time>
      </trkpt>
      <trkpt lat="46.30488" lon="-1.29493">
        <ele>2.6</ele>
        <time>2021-06-17T08:54:50Z</time>
      </trkpt>
      <trkpt lat="46.30488" lon="-1.29493">
        <ele>2.6</ele>
        <time>2021-06-17T08:54:51Z</time>
      </trkpt>
      <trkpt lat="46.30488" lon="-1.29493">
        <ele>2.6</ele>
        <time>2021-06-17T08:54:52Z</time>
      </trkpt>
      <trkpt lat="46.30488" lon="-1.29493">
        <ele>2.6</ele>
        <time>2021-06-17T08:54:53Z</time>
      </trkpt>
      <trkpt lat="46.30488" lon="-1.29493">
        <ele>2.6</ele>
        <time>2021-06-17T08:54:54Z</time>
      </trkpt>
      <trkpt lat="46.30488" lon="-1.29493">
        <ele>2.6</ele>
        <time>2021-06-17T08:54:55Z</time>
      </trkpt>
      <trkpt lat="46.30488" lon="-1.29493">
        <ele>2.6</ele>
        <time>2021-06-17T08:54:56Z</time>
      </trkpt>
      <trkpt lat="46.30488" lon="-1.29493">
        <ele>2.6</ele>
        <time>2021-06-17T08:54:57Z</time>
      </trkpt>
      <trkpt lat="46.30488" lon="-1.29493">
        <ele>2.6</ele>
        <time>2021-06-17T08:54:58Z</time>
      </trkpt>
      <trkpt lat="46.30488" lon="-1.29493">
        <ele>2.6</ele>
        <time>2021-06-17T08:54:59Z</time>
      </trkpt>
      <trkpt lat="46.30488" lon="-1.29493">
        <ele>2.6</ele>
        <time>2021-06-17T08:55:00Z</time>
      </trkpt>
      <trkpt lat="46.30488" lon="-1.29493">
        <ele>2.6</ele>
        <time>2021-06-17T08:55:01Z</time>
      </trkpt>
      <trkpt lat="46.30488" lon="-1.29493">
        <ele>2.6</ele>
        <time>2021-06-17T08:55:02Z</time>
      </trkpt>
      <trkpt lat="46.30488" lon="-1.29493">
        <ele>2.6</ele>
        <time>2021-06-17T08:55:03Z</time>
      </trkpt>
      <trkpt lat="46.30488" lon="-1.29493">
        <ele>2.6</ele>
        <time>2021-06-17T08:55:04Z</time>
      </trkpt>
      <trkpt lat="46.30488" lon="-1.29493">
        <ele>2.6</ele>
        <time>2021-06-17T08:55:05Z</time>
      </trkpt>
      <trkpt lat="46.30488" lon="-1.29493">
        <ele>2.6</ele>
        <time>2021-06-17T08:55:06Z</time>
      </trkpt>
      <trkpt lat="46.30488" lon="-1.29493">
        <ele>2.6</ele>
        <time>2021-06-17T08:55:07Z</time>
      </trkpt>
      <trkpt lat="46.30488" lon="-1.29493">
        <ele>2.6</ele>
        <time>2021-06-17T08:55:08Z</time>
      </trkpt>
      <trkpt lat="46.30488" lon="-1.29493">
        <ele>2.6</ele>
        <time>2021-06-17T08:55:09Z</time>
      </trkpt>
      <trkpt lat="46.30488" lon="-1.29493">
        <ele>2.6</ele>
        <time>2021-06-17T08:55:10Z</time>
      </trkpt>
      <trkpt lat="46.30488" lon="-1.29493">
        <ele>2.6</ele>
        <time>2021-06-17T08:55:11Z</time>
      </trkpt>
      <trkpt lat="46.30488" lon="-1.29493">
        <ele>2.6</ele>
        <time>2021-06-17T08:55:12Z</time>
      </trkpt>
      <trkpt lat="46.30488" lon="-1.29493">
        <ele>2.6</ele>
        <time>2021-06-17T08:55:13Z</time>
      </trkpt>
      <trkpt lat="46.30488" lon="-1.29493">
        <ele>2.6</ele>
        <time>2021-06-17T08:55:14Z</time>
      </trkpt>
      <trkpt lat="46.30488" lon="-1.29493">
        <ele>2.6</ele>
        <time>2021-06-17T08:55:15Z</time>
      </trkpt>
      <trkpt lat="46.30488" lon="-1.29493">
        <ele>2.6</ele>
        <time>2021-06-17T08:55:16Z</time>
      </trkpt>
      <trkpt lat="46.30488" lon="-1.29493">
        <ele>2.6</ele>
        <time>2021-06-17T08:55:17Z</time>
      </trkpt>
      <trkpt lat="46.30488" lon="-1.29493">
        <ele>2.6</ele>
        <time>2021-06-17T08:55:18Z</time>
      </trkpt>
      <trkpt lat="46.30488" lon="-1.29493">
        <ele>2.6</ele>
        <time>2021-06-17T08:55:19Z</time>
      </trkpt>
      <trkpt lat="46.30488" lon="-1.29493">
        <ele>2.6</ele>
        <time>2021-06-17T08:55:20Z</time>
      </trkpt>
      <trkpt lat="46.30488" lon="-1.29493">
        <ele>2.6</ele>
        <time>2021-06-17T08:55:21Z</time>
      </trkpt>
      <trkpt lat="46.30488" lon="-1.29493">
        <ele>2.6</ele>
        <time>2021-06-17T08:55:22Z</time>
      </trkpt>
      <trkpt lat="46.30488" lon="-1.29493">
        <ele>2.6</ele>
        <time>2021-06-17T08:55:23Z</time>
      </trkpt>
      <trkpt lat="46.30488" lon="-1.29493">
        <ele>2.6</ele>
        <time>2021-06-17T08:55:24Z</time>
      </trkpt>
      <trkpt lat="46.30488" lon="-1.29493">
        <ele>2.6</ele>
        <time>2021-06-17T08:55:25Z</time>
      </trkpt>
      <trkpt lat="46.30488" lon="-1.29493">
        <ele>2.6</ele>
        <time>2021-06-17T08:55:26Z</time>
      </trkpt>
      <trkpt lat="46.30488" lon="-1.29493">
        <ele>2.6</ele>
        <time>2021-06-17T08:55:27Z</time>
      </trkpt>
      <trkpt lat="46.30488" lon="-1.29493">
        <ele>2.6</ele>
        <time>2021-06-17T08:55:28Z</time>
      </trkpt>
      <trkpt lat="46.30488" lon="-1.29493">
        <ele>2.6</ele>
        <time>2021-06-17T08:55:29Z</time>
      </trkpt>
      <trkpt lat="46.30488" lon="-1.29493">
        <ele>2.6</ele>
        <time>2021-06-17T08:55:30Z</time>
      </trkpt>
      <trkpt lat="46.30488" lon="-1.29493">
        <ele>2.6</ele>
        <time>2021-06-17T08:55:31Z</time>
      </trkpt>
      <trkpt lat="46.30488" lon="-1.29493">
        <ele>2.6</ele>
        <time>2021-06-17T08:55:32Z</time>
      </trkpt>
      <trkpt lat="46.30488" lon="-1.29493">
        <ele>2.6</ele>
        <time>2021-06-17T08:55:33Z</time>
      </trkpt>
      <trkpt lat="46.30488" lon="-1.29493">
        <ele>2.6</ele>
        <time>2021-06-17T08:55:34Z</time>
      </trkpt>
      <trkpt lat="46.30488" lon="-1.29493">
        <ele>2.6</ele>
        <time>2021-06-17T08:55:35Z</time>
      </trkpt>
      <trkpt lat="46.30488" lon="-1.29493">
        <ele>2.6</ele>
        <time>2021-06-17T08:55:36Z</time>
      </trkpt>
      <trkpt lat="46.30488" lon="-1.29493">
        <ele>2.6</ele>
        <time>2021-06-17T08:55:37Z</time>
      </trkpt>
      <trkpt lat="46.30488" lon="-1.29493">
        <ele>2.6</ele>
        <time>2021-06-17T08:55:38Z</time>
      </trkpt>
      <trkpt lat="46.30488" lon="-1.29493">
        <ele>2.6</ele>
        <time>2021-06-17T08:55:39Z</time>
      </trkpt>
      <trkpt lat="46.30488" lon="-1.29493">
        <ele>2.6</ele>
        <time>2021-06-17T08:55:40Z</time>
      </trkpt>
      <trkpt lat="46.30488" lon="-1.29493">
        <ele>2.6</ele>
        <time>2021-06-17T08:55:41Z</time>
      </trkpt>
      <trkpt lat="46.30488" lon="-1.29493">
        <ele>2.6</ele>
        <time>2021-06-17T08:55:42Z</time>
      </trkpt>
      <trkpt lat="46.30488" lon="-1.29493">
        <ele>2.6</ele>
        <time>2021-06-17T08:55:43Z</time>
      </trkpt>
      <trkpt lat="46.30488" lon="-1.29493">
        <ele>2.6</ele>
        <time>2021-06-17T08:55:44Z</time>
      </trkpt>
      <trkpt lat="46.30488" lon="-1.29493">
        <ele>2.6</ele>
        <time>2021-06-17T08:55:45Z</time>
      </trkpt>
      <trkpt lat="46.30488" lon="-1.29493">
        <ele>2.6</ele>
        <time>2021-06-17T08:55:46Z</time>
      </trkpt>
      <trkpt lat="46.30488" lon="-1.29493">
        <ele>2.6</ele>
        <time>2021-06-17T08:55:47Z</time>
      </trkpt>
      <trkpt lat="46.30488" lon="-1.29493">
        <ele>2.6</ele>
        <time>2021-06-17T08:55:48Z</time>
      </trkpt>
      <trkpt lat="46.30488" lon="-1.29493">
        <ele>2.6</ele>
        <time>2021-06-17T08:55:49Z</time>
      </trkpt>
      <trkpt lat="46.30488" lon="-1.29493">
        <ele>2.6</ele>
        <time>2021-06-17T08:55:50Z</time>
      </trkpt>
      <trkpt lat="46.30488" lon="-1.29493">
        <ele>2.6</ele>
        <time>2021-06-17T08:55:51Z</time>
      </trkpt>
      <trkpt lat="46.30488" lon="-1.29493">
        <ele>2.6</ele>
        <time>2021-06-17T08:55:52Z</time>
      </trkpt>
      <trkpt lat="46.30488" lon="-1.29493">
        <ele>2.6</ele>
        <time>2021-06-17T08:55:53Z</time>
      </trkpt>
      <trkpt lat="46.30488" lon="-1.29493">
        <ele>2.6</ele>
        <time>2021-06-17T08:55:54Z</time>
      </trkpt>
      <trkpt lat="46.30488" lon="-1.29493">
        <ele>2.6</ele>
        <time>2021-06-17T08:55:55Z</time>
      </trkpt>
      <trkpt lat="46.30488" lon="-1.29493">
        <ele>2.6</ele>
        <time>2021-06-17T08:55:56Z</time>
      </trkpt>
      <trkpt lat="46.30488" lon="-1.29493">
        <ele>2.6</ele>
        <time>2021-06-17T08:55:57Z</time>
      </trkpt>
      <trkpt lat="46.30488" lon="-1.29493">
        <ele>2.6</ele>
        <time>2021-06-17T08:55:58Z</time>
      </trkpt>
      <trkpt lat="46.30488" lon="-1.29493">
        <ele>2.6</ele>
        <time>2021-06-17T08:55:59Z</time>
      </trkpt>
      <trkpt lat="46.30488" lon="-1.29493">
        <ele>2.6</ele>
        <time>2021-06-17T08:56:00Z</time>
      </trkpt>
      <trkpt lat="46.30488" lon="-1.29493">
        <ele>2.6</ele>
        <time>2021-06-17T08:56:01Z</time>
      </trkpt>
      <trkpt lat="46.30488" lon="-1.29493">
        <ele>2.6</ele>
        <time>2021-06-17T08:56:02Z</time>
      </trkpt>
      <trkpt lat="46.30488" lon="-1.29493">
        <ele>2.6</ele>
        <time>2021-06-17T08:56:03Z</time>
      </trkpt>
      <trkpt lat="46.30488" lon="-1.29493">
        <ele>2.6</ele>
        <time>2021-06-17T08:56:04Z</time>
      </trkpt>
      <trkpt lat="46.30488" lon="-1.29493">
        <ele>2.6</ele>
        <time>2021-06-17T08:56:05Z</time>
      </trkpt>
      <trkpt lat="46.30488" lon="-1.29493">
        <ele>2.6</ele>
        <time>2021-06-17T08:56:06Z</time>
      </trkpt>
      <trkpt lat="46.30488" lon="-1.29493">
        <ele>2.6</ele>
        <time>2021-06-17T08:56:07Z</time>
      </trkpt>
      <trkpt lat="46.30488" lon="-1.29493">
        <ele>2.6</ele>
        <time>2021-06-17T08:56:08Z</time>
      </trkpt>
      <trkpt lat="46.30488" lon="-1.29493">
        <ele>2.6</ele>
        <time>2021-06-17T08:56:09Z</time>
      </trkpt>
      <trkpt lat="46.30488" lon="-1.29493">
        <ele>2.6</ele>
        <time>2021-06-17T08:56:10Z</time>
      </trkpt>
      <trkpt lat="46.30488" lon="-1.29493">
        <ele>2.6</ele>
        <time>2021-06-17T08:56:11Z</time>
      </trkpt>
      <trkpt lat="46.30488" lon="-1.29493">
        <ele>2.6</ele>
        <time>2021-06-17T08:56:12Z</time>
      </trkpt>
      <trkpt lat="46.30488" lon="-1.29493">
        <ele>2.6</ele>
        <time>2021-06-17T08:56:13Z</time>
      </trkpt>
      <trkpt lat="46.30488" lon="-1.29493">
        <ele>2.6</ele>
        <time>2021-06-17T08:56:14Z</time>
      </trkpt>
      <trkpt lat="46.30488" lon="-1.29493">
        <ele>2.6</ele>
        <time>2021-06-17T08:56:15Z</time>
      </trkpt>
      <trkpt lat="46.30488" lon="-1.29493">
        <ele>2.6</ele>
        <time>2021-06-17T08:56:16Z</time>
      </trkpt>
      <trkpt lat="46.30488" lon="-1.29493">
        <ele>2.6</ele>
        <time>2021-06-17T08:56:17Z</time>
      </trkpt>
      <trkpt lat="46.30488" lon="-1.29493">
        <ele>2.6</ele>
        <time>2021-06-17T08:56:18Z</time>
      </trkpt>
      <trkpt lat="46.30488" lon="-1.29493">
        <ele>2.6</ele>
        <time>2021-06-17T08:56:19Z</time>
      </trkpt>
      <trkpt lat="46.30488" lon="-1.29493">
        <ele>2.6</ele>
        <time>2021-06-17T08:56:20Z</time>
      </trkpt>
      <trkpt lat="46.30488" lon="-1.29493">
        <ele>2.6</ele>
        <time>2021-06-17T08:56:21Z</time>
      </trkpt>
      <trkpt lat="46.30488" lon="-1.29493">
        <ele>2.6</ele>
        <time>2021-06-17T08:56:22Z</time>
      </trkpt>
      <trkpt lat="46.30488" lon="-1.29493">
        <ele>2.6</ele>
        <time>2021-06-17T08:56:23Z</time>
      </trkpt>
      <trkpt lat="46.30488" lon="-1.29493">
        <ele>2.6</ele>
        <time>2021-06-17T08:56:24Z</time>
      </trkpt>
      <trkpt lat="46.30488" lon="-1.29493">
        <ele>2.6</ele>
        <time>2021-06-17T08:56:25Z</time>
      </trkpt>
      <trkpt lat="46.30488" lon="-1.29492">
        <ele>2.5</ele>
        <time>2021-06-17T08:56:26Z</time>
      </trkpt>
      <trkpt lat="46.30488" lon="-1.29492">
        <ele>2.5</ele>
        <time>2021-06-17T08:56:27Z</time>
      </trkpt>
      <trkpt lat="46.30488" lon="-1.29492">
        <ele>2.5</ele>
        <time>2021-06-17T08:56:28Z</time>
      </trkpt>
      <trkpt lat="46.30488" lon="-1.29492">
        <ele>2.5</ele>
        <time>2021-06-17T08:56:29Z</time>
      </trkpt>
      <trkpt lat="46.30488" lon="-1.29491">
        <ele>2.5</ele>
        <time>2021-06-17T08:56:30Z</time>
      </trkpt>
      <trkpt lat="46.30488" lon="-1.29491">
        <ele>2.5</ele>
        <time>2021-06-17T08:56:31Z</time>
      </trkpt>
      <trkpt lat="46.30488" lon="-1.2949">
        <ele>2.5</ele>
        <time>2021-06-17T08:56:32Z</time>
      </trkpt>
      <trkpt lat="46.30487" lon="-1.29489">
        <ele>2.5</ele>
        <time>2021-06-17T08:56:33Z</time>
      </trkpt>
      <trkpt lat="46.30487" lon="-1.29489">
        <ele>2.5</ele>
        <time>2021-06-17T08:56:34Z</time>
      </trkpt>
      <trkpt lat="46.30487" lon="-1.29488">
        <ele>2.4</ele>
        <time>2021-06-17T08:56:35Z</time>
      </trkpt>
      <trkpt lat="46.30486" lon="-1.29487">
        <ele>2.4</ele>
        <time>2021-06-17T08:56:36Z</time>
      </trkpt>
      <trkpt lat="46.30485" lon="-1.29486">
        <ele>2.4</ele>
        <time>2021-06-17T08:56:37Z</time>
      </trkpt>
      <trkpt lat="46.30484" lon="-1.29486">
        <ele>2.3</ele>
        <time>2021-06-17T08:56:38Z</time>
      </trkpt>
      <trkpt lat="46.30483" lon="-1.29485">
        <ele>2.3</ele>
        <time>2021-06-17T08:56:39Z</time>
      </trkpt>
      <trkpt lat="46.30481" lon="-1.29484">
        <ele>2.2</ele>
        <time>2021-06-17T08:56:40Z</time>
      </trkpt>
      <trkpt lat="46.3048" lon="-1.29483">
        <ele>2.2</ele>
        <time>2021-06-17T08:56:41Z</time>
      </trkpt>
      <trkpt lat="46.3048" lon="-1.29482">
        <ele>2.2</ele>
        <time>2021-06-17T08:56:42Z</time>
      </trkpt>
      <trkpt lat="46.30479" lon="-1.29481">
        <ele>2.1</ele>
        <time>2021-06-17T08:56:43Z</time>
      </trkpt>
      <trkpt lat="46.30478" lon="-1.29479">
        <ele>2.1</ele>
        <time>2021-06-17T08:56:44Z</time>
      </trkpt>
      <trkpt lat="46.30478" lon="-1.29478">
        <ele>2.1</ele>
        <time>2021-06-17T08:56:45Z</time>
      </trkpt>
      <trkpt lat="46.30478" lon="-1.29476">
        <ele>2</ele>
        <time>2021-06-17T08:56:46Z</time>
      </trkpt>
      <trkpt lat="46.30478" lon="-1.29474">
        <ele>2</ele>
        <time>2021-06-17T08:56:47Z</time>
      </trkpt>
      <trkpt lat="46.30478" lon="-1.29473">
        <ele>1.9</ele>
        <time>2021-06-17T08:56:48Z</time>
      </trkpt>
      <trkpt lat="46.30479" lon="-1.29471">
        <ele>1.9</ele>
        <time>2021-06-17T08:56:49Z</time>
      </trkpt>
      <trkpt lat="46.30479" lon="-1.29469">
        <ele>1.9</ele>
        <time>2021-06-17T08:56:50Z</time>
      </trkpt>
      <trkpt lat="46.3048" lon="-1.29468">
        <ele>1.8</ele>
        <time>2021-06-17T08:56:51Z</time>
      </trkpt>
      <trkpt lat="46.30481" lon="-1.29466">
        <ele>1.8</ele>
        <time>2021-06-17T08:56:52Z</time>
      </trkpt>
      <trkpt lat="46.30481" lon="-1.29464">
        <ele>1.7</ele>
        <time>2021-06-17T08:56:53Z</time>
      </trkpt>
      <trkpt lat="46.30482" lon="-1.29463">
        <ele>1.7</ele>
        <time>2021-06-17T08:56:54Z</time>
      </trkpt>
      <trkpt lat="46.30482" lon="-1.29461">
        <ele>1.6</ele>
        <time>2021-06-17T08:56:55Z</time>
      </trkpt>
      <trkpt lat="46.30483" lon="-1.29459">
        <ele>1.6</ele>
        <time>2021-06-17T08:56:56Z</time>
      </trkpt>
      <trkpt lat="46.30483" lon="-1.29457">
        <ele>1.6</ele>
        <time>2021-06-17T08:56:57Z</time>
      </trkpt>
      <trkpt lat="46.30483" lon="-1.29455">
        <ele>1.5</ele>
        <time>2021-06-17T08:56:58Z</time>
      </trkpt>
      <trkpt lat="46.30483" lon="-1.29454">
        <ele>1.5</ele>
        <time>2021-06-17T08:56:59Z</time>
      </trkpt>
      <trkpt lat="46.30483" lon="-1.29453">
        <ele>1.5</ele>
        <time>2021-06-17T08:57:00Z</time>
      </trkpt>
      <trkpt lat="46.30483" lon="-1.29452">
        <ele>1.5</ele>
        <time>2021-06-17T08:57:01Z</time>
      </trkpt>
      <trkpt lat="46.30483" lon="-1.29452">
        <ele>1.5</ele>
        <time>2021-06-17T08:57:02Z</time>
      </trkpt>
      <trkpt lat="46.30483" lon="-1.29452">
        <ele>1.5</ele>
        <time>2021-06-17T08:57:03Z</time>
      </trkpt>
      <trkpt lat="46.30483" lon="-1.29452">
        <ele>1.5</ele>
        <time>2021-06-17T08:57:04Z</time>
      </trkpt>
      <trkpt lat="46.30483" lon="-1.29453">
        <ele>1.5</ele>
        <time>2021-06-17T08:57:05Z</time>
      </trkpt>
      <trkpt lat="46.30483" lon="-1.29453">
        <ele>1.5</ele>
        <time>2021-06-17T08:57:06Z</time>
      </trkpt>
      <trkpt lat="46.30483" lon="-1.29453">
        <ele>1.5</ele>
        <time>2021-06-17T08:57:07Z</time>
      </trkpt>
      <trkpt lat="46.30483" lon="-1.29452">
        <ele>1.5</ele>
        <time>2021-06-17T08:57:08Z</time>
      </trkpt>
      <trkpt lat="46.30483" lon="-1.29452">
        <ele>1.5</ele>
        <time>2021-06-17T08:57:09Z</time>
      </trkpt>
      <trkpt lat="46.30483" lon="-1.29452">
        <ele>1.5</ele>
        <time>2021-06-17T08:57:10Z</time>
      </trkpt>
      <trkpt lat="46.30483" lon="-1.29451">
        <ele>1.5</ele>
        <time>2021-06-17T08:57:11Z</time>
      </trkpt>
      <trkpt lat="46.30483" lon="-1.2945">
        <ele>1.5</ele>
        <time>2021-06-17T08:57:12Z</time>
      </trkpt>
      <trkpt lat="46.30483" lon="-1.2945">
        <ele>1.5</ele>
        <time>2021-06-17T08:57:13Z</time>
      </trkpt>
      <trkpt lat="46.30483" lon="-1.29449">
        <ele>1.5</ele>
        <time>2021-06-17T08:57:14Z</time>
      </trkpt>
      <trkpt lat="46.30483" lon="-1.29448">
        <ele>1.5</ele>
        <time>2021-06-17T08:57:15Z</time>
      </trkpt>
      <trkpt lat="46.30483" lon="-1.29447">
        <ele>1.5</ele>
        <time>2021-06-17T08:57:16Z</time>
      </trkpt>
      <trkpt lat="46.30483" lon="-1.29445">
        <ele>1.5</ele>
        <time>2021-06-17T08:57:17Z</time>
      </trkpt>
      <trkpt lat="46.30483" lon="-1.29444">
        <ele>1.5</ele>
        <time>2021-06-17T08:57:18Z</time>
      </trkpt>
      <trkpt lat="46.30484" lon="-1.29443">
        <ele>1.5</ele>
        <time>2021-06-17T08:57:19Z</time>
      </trkpt>
      <trkpt lat="46.30484" lon="-1.29441">
        <ele>1.6</ele>
        <time>2021-06-17T08:57:20Z</time>
      </trkpt>
      <trkpt lat="46.30484" lon="-1.2944">
        <ele>1.6</ele>
        <time>2021-06-17T08:57:21Z</time>
      </trkpt>
      <trkpt lat="46.30484" lon="-1.29438">
        <ele>1.6</ele>
        <time>2021-06-17T08:57:22Z</time>
      </trkpt>
      <trkpt lat="46.30484" lon="-1.29437">
        <ele>1.6</ele>
        <time>2021-06-17T08:57:23Z</time>
      </trkpt>
      <trkpt lat="46.30484" lon="-1.29435">
        <ele>1.6</ele>
        <time>2021-06-17T08:57:24Z</time>
      </trkpt>
      <trkpt lat="46.30485" lon="-1.29433">
        <ele>1.6</ele>
        <time>2021-06-17T08:57:25Z</time>
      </trkpt>
      <trkpt lat="46.30485" lon="-1.29432">
        <ele>1.6</ele>
        <time>2021-06-17T08:57:26Z</time>
      </trkpt>
      <trkpt lat="46.30485" lon="-1.2943">
        <ele>1.6</ele>
        <time>2021-06-17T08:57:27Z</time>
      </trkpt>
      <trkpt lat="46.30485" lon="-1.29428">
        <ele>1.6</ele>
        <time>2021-06-17T08:57:28Z</time>
      </trkpt>
      <trkpt lat="46.30486" lon="-1.29426">
        <ele>1.7</ele>
        <time>2021-06-17T08:57:29Z</time>
      </trkpt>
      <trkpt lat="46.30486" lon="-1.29425">
        <ele>1.7</ele>
        <time>2021-06-17T08:57:30Z</time>
      </trkpt>
      <trkpt lat="46.30486" lon="-1.29423">
        <ele>1.7</ele>
        <time>2021-06-17T08:57:31Z</time>
      </trkpt>
      <trkpt lat="46.30487" lon="-1.29421">
        <ele>1.7</ele>
        <time>2021-06-17T08:57:32Z</time>
      </trkpt>
      <trkpt lat="46.30487" lon="-1.2942">
        <ele>1.7</ele>
        <time>2021-06-17T08:57:33Z</time>
      </trkpt>
      <trkpt lat="46.30487" lon="-1.29418">
        <ele>1.7</ele>
        <time>2021-06-17T08:57:34Z</time>
      </trkpt>
      <trkpt lat="46.30487" lon="-1.29417">
        <ele>1.7</ele>
        <time>2021-06-17T08:57:35Z</time>
      </trkpt>
      <trkpt lat="46.30487" lon="-1.29415">
        <ele>1.8</ele>
        <time>2021-06-17T08:57:36Z</time>
      </trkpt>
      <trkpt lat="46.30488" lon="-1.29414">
        <ele>1.8</ele>
        <time>2021-06-17T08:57:37Z</time>
      </trkpt>
      <trkpt lat="46.30488" lon="-1.29412">
        <ele>1.8</ele>
        <time>2021-06-17T08:57:38Z</time>
      </trkpt>
      <trkpt lat="46.30488" lon="-1.2941">
        <ele>1.8</ele>
        <time>2021-06-17T08:57:39Z</time>
      </trkpt>
      <trkpt lat="46.30488" lon="-1.29409">
        <ele>1.8</ele>
        <time>2021-06-17T08:57:40Z</time>
      </trkpt>
      <trkpt lat="46.30488" lon="-1.29408">
        <ele>1.8</ele>
        <time>2021-06-17T08:57:41Z</time>
      </trkpt>
      <trkpt lat="46.30488" lon="-1.29406">
        <ele>1.8</ele>
        <time>2021-06-17T08:57:42Z</time>
      </trkpt>
      <trkpt lat="46.30487" lon="-1.29405">
        <ele>1.8</ele>
        <time>2021-06-17T08:57:43Z</time>
      </trkpt>
      <trkpt lat="46.30487" lon="-1.29403">
        <ele>1.9</ele>
        <time>2021-06-17T08:57:44Z</time>
      </trkpt>
      <trkpt lat="46.30487" lon="-1.29402">
        <ele>1.9</ele>
        <time>2021-06-17T08:57:45Z</time>
      </trkpt>
      <trkpt lat="46.30486" lon="-1.29401">
        <ele>1.9</ele>
        <time>2021-06-17T08:57:46Z</time>
      </trkpt>
      <trkpt lat="46.30486" lon="-1.294">
        <ele>1.9</ele>
        <time>2021-06-17T08:57:47Z</time>
      </trkpt>
      <trkpt lat="46.30485" lon="-1.29398">
        <ele>1.9</ele>
        <time>2021-06-17T08:57:48Z</time>
      </trkpt>
      <trkpt lat="46.30485" lon="-1.29397">
        <ele>1.9</ele>
        <time>2021-06-17T08:57:49Z</time>
      </trkpt>
      <trkpt lat="46.30484" lon="-1.29396">
        <ele>1.9</ele>
        <time>2021-06-17T08:57:50Z</time>
      </trkpt>
      <trkpt lat="46.30483" lon="-1.29395">
        <ele>1.9</ele>
        <time>2021-06-17T08:57:51Z</time>
      </trkpt>
      <trkpt lat="46.30482" lon="-1.29394">
        <ele>2</ele>
        <time>2021-06-17T08:57:52Z</time>
      </trkpt>
      <trkpt lat="46.30481" lon="-1.29392">
        <ele>2</ele>
        <time>2021-06-17T08:57:53Z</time>
      </trkpt>
      <trkpt lat="46.30481" lon="-1.29392">
        <ele>2</ele>
        <time>2021-06-17T08:57:54Z</time>
      </trkpt>
      <trkpt lat="46.3048" lon="-1.29391">
        <ele>2</ele>
        <time>2021-06-17T08:57:55Z</time>
      </trkpt>
      <trkpt lat="46.3048" lon="-1.2939">
        <ele>2</ele>
        <time>2021-06-17T08:57:56Z</time>
      </trkpt>
      <trkpt lat="46.3048" lon="-1.2939">
        <ele>2</ele>
        <time>2021-06-17T08:57:57Z</time>
      </trkpt>
      <trkpt lat="46.30479" lon="-1.29389">
        <ele>2</ele>
        <time>2021-06-17T08:57:58Z</time>
      </trkpt>
      <trkpt lat="46.30479" lon="-1.29389">
        <ele>2</ele>
        <time>2021-06-17T08:57:59Z</time>
      </trkpt>
      <trkpt lat="46.30479" lon="-1.29388">
        <ele>2</ele>
        <time>2021-06-17T08:58:00Z</time>
      </trkpt>
      <trkpt lat="46.30478" lon="-1.29387">
        <ele>2.1</ele>
        <time>2021-06-17T08:58:01Z</time>
      </trkpt>
      <trkpt lat="46.30478" lon="-1.29387">
        <ele>2.1</ele>
        <time>2021-06-17T08:58:02Z</time>
      </trkpt>
      <trkpt lat="46.30477" lon="-1.29386">
        <ele>2.1</ele>
        <time>2021-06-17T08:58:03Z</time>
      </trkpt>
      <trkpt lat="46.30477" lon="-1.29385">
        <ele>2.1</ele>
        <time>2021-06-17T08:58:04Z</time>
      </trkpt>
      <trkpt lat="46.30477" lon="-1.29385">
        <ele>2.1</ele>
        <time>2021-06-17T08:58:05Z</time>
      </trkpt>
      <trkpt lat="46.30476" lon="-1.29384">
        <ele>2.1</ele>
        <time>2021-06-17T08:58:06Z</time>
      </trkpt>
      <trkpt lat="46.30476" lon="-1.29383">
        <ele>2.1</ele>
        <time>2021-06-17T08:58:07Z</time>
      </trkpt>
      <trkpt lat="46.30476" lon="-1.29383">
        <ele>2.1</ele>
        <time>2021-06-17T08:58:08Z</time>
      </trkpt>
      <trkpt lat="46.30475" lon="-1.29382">
        <ele>2.2</ele>
        <time>2021-06-17T08:58:09Z</time>
      </trkpt>
      <trkpt lat="46.30475" lon="-1.29382">
        <ele>2.2</ele>
        <time>2021-06-17T08:58:10Z</time>
      </trkpt>
      <trkpt lat="46.30474" lon="-1.29381">
        <ele>2.2</ele>
        <time>2021-06-17T08:58:11Z</time>
      </trkpt>
      <trkpt lat="46.30474" lon="-1.2938">
        <ele>2.2</ele>
        <time>2021-06-17T08:58:12Z</time>
      </trkpt>
      <trkpt lat="46.30474" lon="-1.2938">
        <ele>2.2</ele>
        <time>2021-06-17T08:58:13Z</time>
      </trkpt>
      <trkpt lat="46.30473" lon="-1.29379">
        <ele>2.2</ele>
        <time>2021-06-17T08:58:14Z</time>
      </trkpt>
      <trkpt lat="46.30473" lon="-1.29378">
        <ele>2.2</ele>
        <time>2021-06-17T08:58:15Z</time>
      </trkpt>
      <trkpt lat="46.30472" lon="-1.29378">
        <ele>2.2</ele>
        <time>2021-06-17T08:58:16Z</time>
      </trkpt>
      <trkpt lat="46.30472" lon="-1.29377">
        <ele>2.3</ele>
        <time>2021-06-17T08:58:17Z</time>
      </trkpt>
      <trkpt lat="46.30472" lon="-1.29376">
        <ele>2.3</ele>
        <time>2021-06-17T08:58:18Z</time>
      </trkpt>
      <trkpt lat="46.30471" lon="-1.29376">
        <ele>2.3</ele>
        <time>2021-06-17T08:58:19Z</time>
      </trkpt>
      <trkpt lat="46.30471" lon="-1.29375">
        <ele>2.3</ele>
        <time>2021-06-17T08:58:20Z</time>
      </trkpt>
      <trkpt lat="46.30471" lon="-1.29374">
        <ele>2.3</ele>
        <time>2021-06-17T08:58:21Z</time>
      </trkpt>
      <trkpt lat="46.3047" lon="-1.29374">
        <ele>2.3</ele>
        <time>2021-06-17T08:58:22Z</time>
      </trkpt>
      <trkpt lat="46.3047" lon="-1.29373">
        <ele>2.4</ele>
        <time>2021-06-17T08:58:23Z</time>
      </trkpt>
      <trkpt lat="46.30469" lon="-1.29373">
        <ele>2.4</ele>
        <time>2021-06-17T08:58:24Z</time>
      </trkpt>
      <trkpt lat="46.30469" lon="-1.29372">
        <ele>2.4</ele>
        <time>2021-06-17T08:58:25Z</time>
      </trkpt>
      <trkpt lat="46.30469" lon="-1.29371">
        <ele>2.4</ele>
        <time>2021-06-17T08:58:26Z</time>
      </trkpt>
      <trkpt lat="46.30468" lon="-1.29371">
        <ele>2.4</ele>
        <time>2021-06-17T08:58:27Z</time>
      </trkpt>
      <trkpt lat="46.30468" lon="-1.2937">
        <ele>2.4</ele>
        <time>2021-06-17T08:58:28Z</time>
      </trkpt>
      <trkpt lat="46.30467" lon="-1.29369">
        <ele>2.5</ele>
        <time>2021-06-17T08:58:29Z</time>
      </trkpt>
      <trkpt lat="46.30467" lon="-1.29369">
        <ele>2.5</ele>
        <time>2021-06-17T08:58:30Z</time>
      </trkpt>
      <trkpt lat="46.30467" lon="-1.29368">
        <ele>2.5</ele>
        <time>2021-06-17T08:58:31Z</time>
      </trkpt>
      <trkpt lat="46.30466" lon="-1.29367">
        <ele>2.5</ele>
        <time>2021-06-17T08:58:32Z</time>
      </trkpt>
      <trkpt lat="46.30466" lon="-1.29367">
        <ele>2.5</ele>
        <time>2021-06-17T08:58:33Z</time>
      </trkpt>
      <trkpt lat="46.30466" lon="-1.29366">
        <ele>2.6</ele>
        <time>2021-06-17T08:58:34Z</time>
      </trkpt>
      <trkpt lat="46.30465" lon="-1.29365">
        <ele>2.6</ele>
        <time>2021-06-17T08:58:35Z</time>
      </trkpt>
      <trkpt lat="46.30465" lon="-1.29365">
        <ele>2.6</ele>
        <time>2021-06-17T08:58:36Z</time>
      </trkpt>
      <trkpt lat="46.30464" lon="-1.29364">
        <ele>2.6</ele>
        <time>2021-06-17T08:58:37Z</time>
      </trkpt>
      <trkpt lat="46.30464" lon="-1.29364">
        <ele>2.7</ele>
        <time>2021-06-17T08:58:38Z</time>
      </trkpt>
      <trkpt lat="46.30464" lon="-1.29363">
        <ele>2.7</ele>
        <time>2021-06-17T08:58:39Z</time>
      </trkpt>
      <trkpt lat="46.30463" lon="-1.29362">
        <ele>2.7</ele>
        <time>2021-06-17T08:58:40Z</time>
      </trkpt>
      <trkpt lat="46.30463" lon="-1.29362">
        <ele>2.7</ele>
        <time>2021-06-17T08:58:41Z</time>
      </trkpt>
      <trkpt lat="46.30463" lon="-1.2936">
        <ele>2.8</ele>
        <time>2021-06-17T08:58:42Z</time>
      </trkpt>
      <trkpt lat="46.30463" lon="-1.29358">
        <ele>2.8</ele>
        <time>2021-06-17T08:58:43Z</time>
      </trkpt>
      <trkpt lat="46.30463" lon="-1.29357">
        <ele>2.8</ele>
        <time>2021-06-17T08:58:44Z</time>
      </trkpt>
      <trkpt lat="46.30463" lon="-1.29356">
        <ele>2.9</ele>
        <time>2021-06-17T08:58:45Z</time>
      </trkpt>
      <trkpt lat="46.30463" lon="-1.29354">
        <ele>2.9</ele>
        <time>2021-06-17T08:58:46Z</time>
      </trkpt>
      <trkpt lat="46.30462" lon="-1.29353">
        <ele>2.9</ele>
        <time>2021-06-17T08:58:47Z</time>
      </trkpt>
      <trkpt lat="46.30462" lon="-1.29353">
        <ele>3</ele>
        <time>2021-06-17T08:58:48Z</time>
      </trkpt>
      <trkpt lat="46.30461" lon="-1.29352">
        <ele>3</ele>
        <time>2021-06-17T08:58:49Z</time>
      </trkpt>
      <trkpt lat="46.30461" lon="-1.29352">
        <ele>3</ele>
        <time>2021-06-17T08:58:50Z</time>
      </trkpt>
      <trkpt lat="46.3046" lon="-1.29351">
        <ele>3.1</ele>
        <time>2021-06-17T08:58:51Z</time>
      </trkpt>
      <trkpt lat="46.30459" lon="-1.29351">
        <ele>3.1</ele>
        <time>2021-06-17T08:58:52Z</time>
      </trkpt>
      <trkpt lat="46.30459" lon="-1.29351">
        <ele>3.1</ele>
        <time>2021-06-17T08:58:53Z</time>
      </trkpt>
      <trkpt lat="46.30458" lon="-1.29351">
        <ele>3.1</ele>
        <time>2021-06-17T08:58:54Z</time>
      </trkpt>
      <trkpt lat="46.30458" lon="-1.29351">
        <ele>3.1</ele>
        <time>2021-06-17T08:58:55Z</time>
      </trkpt>
      <trkpt lat="46.30458" lon="-1.2935">
        <ele>3.1</ele>
        <time>2021-06-17T08:58:56Z</time>
      </trkpt>
      <trkpt lat="46.30458" lon="-1.2935">
        <ele>3.2</ele>
        <time>2021-06-17T08:58:57Z</time>
      </trkpt>
      <trkpt lat="46.30458" lon="-1.2935">
        <ele>3.2</ele>
        <time>2021-06-17T08:58:58Z</time>
      </trkpt>
      <trkpt lat="46.30458" lon="-1.2935">
        <ele>3.2</ele>
        <time>2021-06-17T08:58:59Z</time>
      </trkpt>
      <trkpt lat="46.30458" lon="-1.2935">
        <ele>3.2</ele>
        <time>2021-06-17T08:59:00Z</time>
      </trkpt>
      <trkpt lat="46.30458" lon="-1.2935">
        <ele>3.2</ele>
        <time>2021-06-17T08:59:01Z</time>
      </trkpt>
      <trkpt lat="46.30458" lon="-1.29351">
        <ele>3.2</ele>
        <time>2021-06-17T08:59:02Z</time>
      </trkpt>
      <trkpt lat="46.30458" lon="-1.29351">
        <ele>3.2</ele>
        <time>2021-06-17T08:59:03Z</time>
      </trkpt>
      <trkpt lat="46.30458" lon="-1.29351">
        <ele>3.2</ele>
        <time>2021-06-17T08:59:04Z</time>
      </trkpt>
      <trkpt lat="46.30458" lon="-1.29351">
        <ele>3.2</ele>
        <time>2021-06-17T08:59:05Z</time>
      </trkpt>
      <trkpt lat="46.30458" lon="-1.29351">
        <ele>3.2</ele>
        <time>2021-06-17T08:59:06Z</time>
      </trkpt>
      <trkpt lat="46.30458" lon="-1.29351">
        <ele>3.2</ele>
        <time>2021-06-17T08:59:07Z</time>
      </trkpt>
      <trkpt lat="46.30458" lon="-1.29351">
        <ele>3.2</ele>
        <time>2021-06-17T08:59:08Z</time>
      </trkpt>
      <trkpt lat="46.30458" lon="-1.2935">
        <ele>3.2</ele>
        <time>2021-06-17T08:59:09Z</time>
      </trkpt>
      <trkpt lat="46.30458" lon="-1.2935">
        <ele>3.2</ele>
        <time>2021-06-17T08:59:10Z</time>
      </trkpt>
      <trkpt lat="46.30458" lon="-1.2935">
        <ele>3.2</ele>
        <time>2021-06-17T08:59:11Z</time>
      </trkpt>
      <trkpt lat="46.30458" lon="-1.2935">
        <ele>3.2</ele>
        <time>2021-06-17T08:59:12Z</time>
      </trkpt>
      <trkpt lat="46.30458" lon="-1.2935">
        <ele>3.2</ele>
        <time>2021-06-17T08:59:13Z</time>
      </trkpt>
      <trkpt lat="46.30458" lon="-1.2935">
        <ele>3.2</ele>
        <time>2021-06-17T08:59:14Z</time>
      </trkpt>
      <trkpt lat="46.30458" lon="-1.2935">
        <ele>3.2</ele>
        <time>2021-06-17T08:59:15Z</time>
      </trkpt>
      <trkpt lat="46.30458" lon="-1.2935">
        <ele>3.2</ele>
        <time>2021-06-17T08:59:16Z</time>
      </trkpt>
      <trkpt lat="46.30458" lon="-1.2935">
        <ele>3.2</ele>
        <time>2021-06-17T08:59:17Z</time>
      </trkpt>
      <trkpt lat="46.30458" lon="-1.2935">
        <ele>3.2</ele>
        <time>2021-06-17T08:59:18Z</time>
      </trkpt>
      <trkpt lat="46.30458" lon="-1.2935">
        <ele>3.2</ele>
        <time>2021-06-17T08:59:19Z</time>
      </trkpt>
      <trkpt lat="46.30458" lon="-1.2935">
        <ele>3.2</ele>
        <time>2021-06-17T08:59:20Z</time>
      </trkpt>
      <trkpt lat="46.30458" lon="-1.2935">
        <ele>3.2</ele>
        <time>2021-06-17T08:59:21Z</time>
      </trkpt>
      <trkpt lat="46.30458" lon="-1.2935">
        <ele>3.2</ele>
        <time>2021-06-17T08:59:22Z</time>
      </trkpt>
      <trkpt lat="46.30458" lon="-1.2935">
        <ele>3.2</ele>
        <time>2021-06-17T08:59:23Z</time>
      </trkpt>
      <trkpt lat="46.30458" lon="-1.2935">
        <ele>3.2</ele>
        <time>2021-06-17T08:59:24Z</time>
      </trkpt>
      <trkpt lat="46.30458" lon="-1.2935">
        <ele>3.2</ele>
        <time>2021-06-17T08:59:25Z</time>
      </trkpt>
      <trkpt lat="46.30458" lon="-1.2935">
        <ele>3.2</ele>
        <time>2021-06-17T08:59:26Z</time>
      </trkpt>
      <trkpt lat="46.30458" lon="-1.2935">
        <ele>3.2</ele>
        <time>2021-06-17T08:59:27Z</time>
      </trkpt>
      <trkpt lat="46.30458" lon="-1.2935">
        <ele>3.2</ele>
        <time>2021-06-17T08:59:28Z</time>
      </trkpt>
      <trkpt lat="46.30458" lon="-1.2935">
        <ele>3.2</ele>
        <time>2021-06-17T08:59:29Z</time>
      </trkpt>
      <trkpt lat="46.30458" lon="-1.2935">
        <ele>3.2</ele>
        <time>2021-06-17T08:59:30Z</time>
      </trkpt>
      <trkpt lat="46.30458" lon="-1.2935">
        <ele>3.2</ele>
        <time>2021-06-17T08:59:31Z</time>
      </trkpt>
      <trkpt lat="46.30458" lon="-1.2935">
        <ele>3.2</ele>
        <time>2021-06-17T08:59:32Z</time>
      </trkpt>
      <trkpt lat="46.30458" lon="-1.2935">
        <ele>3.2</ele>
        <time>2021-06-17T08:59:33Z</time>
      </trkpt>
      <trkpt lat="46.30458" lon="-1.2935">
        <ele>3.2</ele>
        <time>2021-06-17T08:59:34Z</time>
      </trkpt>
      <trkpt lat="46.30458" lon="-1.2935">
        <ele>3.2</ele>
        <time>2021-06-17T08:59:35Z</time>
      </trkpt>
      <trkpt lat="46.30458" lon="-1.2935">
        <ele>3.2</ele>
        <time>2021-06-17T08:59:36Z</time>
      </trkpt>
      <trkpt lat="46.30458" lon="-1.2935">
        <ele>3.2</ele>
        <time>2021-06-17T08:59:37Z</time>
      </trkpt>
      <trkpt lat="46.30458" lon="-1.2935">
        <ele>3.2</ele>
        <time>2021-06-17T08:59:38Z</time>
      </trkpt>
      <trkpt lat="46.30458" lon="-1.2935">
        <ele>3.2</ele>
        <time>2021-06-17T08:59:39Z</time>
      </trkpt>
      <trkpt lat="46.30458" lon="-1.2935">
        <ele>3.2</ele>
        <time>2021-06-17T08:59:40Z</time>
      </trkpt>
      <trkpt lat="46.30458" lon="-1.2935">
        <ele>3.2</ele>
        <time>2021-06-17T08:59:41Z</time>
      </trkpt>
      <trkpt lat="46.30458" lon="-1.2935">
        <ele>3.2</ele>
        <time>2021-06-17T08:59:42Z</time>
      </trkpt>
      <trkpt lat="46.30458" lon="-1.2935">
        <ele>3.2</ele>
        <time>2021-06-17T08:59:43Z</time>
      </trkpt>
      <trkpt lat="46.30458" lon="-1.2935">
        <ele>3.2</ele>
        <time>2021-06-17T08:59:44Z</time>
      </trkpt>
      <trkpt lat="46.30458" lon="-1.2935">
        <ele>3.2</ele>
        <time>2021-06-17T08:59:45Z</time>
      </trkpt>
      <trkpt lat="46.30458" lon="-1.2935">
        <ele>3.2</ele>
        <time>2021-06-17T08:59:46Z</time>
      </trkpt>
      <trkpt lat="46.30458" lon="-1.2935">
        <ele>3.2</ele>
        <time>2021-06-17T08:59:47Z</time>
      </trkpt>
      <trkpt lat="46.30458" lon="-1.2935">
        <ele>3.2</ele>
        <time>2021-06-17T08:59:48Z</time>
      </trkpt>
      <trkpt lat="46.30458" lon="-1.2935">
        <ele>3.2</ele>
        <time>2021-06-17T08:59:49Z</time>
      </trkpt>
      <trkpt lat="46.30458" lon="-1.2935">
        <ele>3.2</ele>
        <time>2021-06-17T08:59:50Z</time>
      </trkpt>
      <trkpt lat="46.30458" lon="-1.2935">
        <ele>3.2</ele>
        <time>2021-06-17T08:59:51Z</time>
      </trkpt>
      <trkpt lat="46.30458" lon="-1.2935">
        <ele>3.2</ele>
        <time>2021-06-17T08:59:52Z</time>
      </trkpt>
      <trkpt lat="46.30458" lon="-1.2935">
        <ele>3.2</ele>
        <time>2021-06-17T08:59:53Z</time>
      </trkpt>
      <trkpt lat="46.30458" lon="-1.2935">
        <ele>3.2</ele>
        <time>2021-06-17T08:59:54Z</time>
      </trkpt>
      <trkpt lat="46.30458" lon="-1.2935">
        <ele>3.2</ele>
        <time>2021-06-17T08:59:55Z</time>
      </trkpt>
      <trkpt lat="46.30458" lon="-1.2935">
        <ele>3.2</ele>
        <time>2021-06-17T08:59:56Z</time>
      </trkpt>
      <trkpt lat="46.30458" lon="-1.2935">
        <ele>3.2</ele>
        <time>2021-06-17T08:59:57Z</time>
      </trkpt>
      <trkpt lat="46.30458" lon="-1.2935">
        <ele>3.2</ele>
        <time>2021-06-17T08:59:58Z</time>
      </trkpt>
      <trkpt lat="46.30458" lon="-1.2935">
        <ele>3.2</ele>
        <time>2021-06-17T08:59:59Z</time>
      </trkpt>
      <trkpt lat="46.30458" lon="-1.2935">
        <ele>3.2</ele>
        <time>2021-06-17T09:00:00Z</time>
      </trkpt>
      <trkpt lat="46.30458" lon="-1.2935">
        <ele>3.2</ele>
        <time>2021-06-17T09:00:01Z</time>
      </trkpt>
      <trkpt lat="46.30458" lon="-1.2935">
        <ele>3.2</ele>
        <time>2021-06-17T09:00:02Z</time>
      </trkpt>
      <trkpt lat="46.30458" lon="-1.2935">
        <ele>3.2</ele>
        <time>2021-06-17T09:00:03Z</time>
      </trkpt>
      <trkpt lat="46.30458" lon="-1.2935">
        <ele>3.2</ele>
        <time>2021-06-17T09:00:04Z</time>
      </trkpt>
      <trkpt lat="46.30458" lon="-1.2935">
        <ele>3.2</ele>
        <time>2021-06-17T09:00:05Z</time>
      </trkpt>
      <trkpt lat="46.30458" lon="-1.2935">
        <ele>3.2</ele>
        <time>2021-06-17T09:00:06Z</time>
      </trkpt>
      <trkpt lat="46.30458" lon="-1.2935">
        <ele>3.2</ele>
        <time>2021-06-17T09:00:07Z</time>
      </trkpt>
      <trkpt lat="46.30458" lon="-1.2935">
        <ele>3.2</ele>
        <time>2021-06-17T09:00:08Z</time>
      </trkpt>
      <trkpt lat="46.30458" lon="-1.2935">
        <ele>3.2</ele>
        <time>2021-06-17T09:00:09Z</time>
      </trkpt>
      <trkpt lat="46.30458" lon="-1.2935">
        <ele>3.2</ele>
        <time>2021-06-17T09:00:10Z</time>
      </trkpt>
      <trkpt lat="46.30458" lon="-1.2935">
        <ele>3.2</ele>
        <time>2021-06-17T09:00:11Z</time>
      </trkpt>
      <trkpt lat="46.30458" lon="-1.2935">
        <ele>3.2</ele>
        <time>2021-06-17T09:00:12Z</time>
      </trkpt>
      <trkpt lat="46.30458" lon="-1.2935">
        <ele>3.2</ele>
        <time>2021-06-17T09:00:13Z</time>
      </trkpt>
      <trkpt lat="46.30458" lon="-1.2935">
        <ele>3.2</ele>
        <time>2021-06-17T09:00:14Z</time>
      </trkpt>
      <trkpt lat="46.30458" lon="-1.2935">
        <ele>3.2</ele>
        <time>2021-06-17T09:00:15Z</time>
      </trkpt>
      <trkpt lat="46.30458" lon="-1.2935">
        <ele>3.2</ele>
        <time>2021-06-17T09:00:16Z</time>
      </trkpt>
      <trkpt lat="46.30458" lon="-1.2935">
        <ele>3.2</ele>
        <time>2021-06-17T09:00:17Z</time>
      </trkpt>
      <trkpt lat="46.30458" lon="-1.2935">
        <ele>3.2</ele>
        <time>2021-06-17T09:00:18Z</time>
      </trkpt>
      <trkpt lat="46.30458" lon="-1.2935">
        <ele>3.2</ele>
        <time>2021-06-17T09:00:19Z</time>
      </trkpt>
      <trkpt lat="46.30458" lon="-1.2935">
        <ele>3.2</ele>
        <time>2021-06-17T09:00:20Z</time>
      </trkpt>
      <trkpt lat="46.30458" lon="-1.2935">
        <ele>3.2</ele>
        <time>2021-06-17T09:00:21Z</time>
      </trkpt>
      <trkpt lat="46.30458" lon="-1.29349">
        <ele>3.2</ele>
        <time>2021-06-17T09:00:22Z</time>
      </trkpt>
      <trkpt lat="46.30458" lon="-1.29349">
        <ele>3.2</ele>
        <time>2021-06-17T09:00:23Z</time>
      </trkpt>
      <trkpt lat="46.30458" lon="-1.29349">
        <ele>3.3</ele>
        <time>2021-06-17T09:00:24Z</time>
      </trkpt>
      <trkpt lat="46.30458" lon="-1.29348">
        <ele>3.3</ele>
        <time>2021-06-17T09:00:25Z</time>
      </trkpt>
      <trkpt lat="46.30457" lon="-1.29347">
        <ele>3.3</ele>
        <time>2021-06-17T09:00:26Z</time>
      </trkpt>
      <trkpt lat="46.30457" lon="-1.29346">
        <ele>3.3</ele>
        <time>2021-06-17T09:00:27Z</time>
      </trkpt>
      <trkpt lat="46.30456" lon="-1.29346">
        <ele>3.4</ele>
        <time>2021-06-17T09:00:28Z</time>
      </trkpt>
      <trkpt lat="46.30456" lon="-1.29345">
        <ele>3.4</ele>
        <time>2021-06-17T09:00:29Z</time>
      </trkpt>
      <trkpt lat="46.30456" lon="-1.29345">
        <ele>3.4</ele>
        <time>2021-06-17T09:00:30Z</time>
      </trkpt>
      <trkpt lat="46.30456" lon="-1.29345">
        <ele>3.4</ele>
        <time>2021-06-17T09:00:31Z</time>
      </trkpt>
      <trkpt lat="46.30456" lon="-1.29345">
        <ele>3.4</ele>
        <time>2021-06-17T09:00:32Z</time>
      </trkpt>
      <trkpt lat="46.30456" lon="-1.29345">
        <ele>3.4</ele>
        <time>2021-06-17T09:00:33Z</time>
      </trkpt>
      <trkpt lat="46.30456" lon="-1.29345">
        <ele>3.4</ele>
        <time>2021-06-17T09:00:34Z</time>
      </trkpt>
      <trkpt lat="46.30456" lon="-1.29345">
        <ele>3.4</ele>
        <time>2021-06-17T09:00:35Z</time>
      </trkpt>
      <trkpt lat="46.30456" lon="-1.29345">
        <ele>3.4</ele>
        <time>2021-06-17T09:00:36Z</time>
      </trkpt>
      <trkpt lat="46.30456" lon="-1.29345">
        <ele>3.4</ele>
        <time>2021-06-17T09:00:37Z</time>
      </trkpt>
      <trkpt lat="46.30456" lon="-1.29345">
        <ele>3.4</ele>
        <time>2021-06-17T09:00:38Z</time>
      </trkpt>
      <trkpt lat="46.30456" lon="-1.29345">
        <ele>3.4</ele>
        <time>2021-06-17T09:00:39Z</time>
      </trkpt>
      <trkpt lat="46.30456" lon="-1.29345">
        <ele>3.4</ele>
        <time>2021-06-17T09:00:40Z</time>
      </trkpt>
      <trkpt lat="46.30456" lon="-1.29345">
        <ele>3.4</ele>
        <time>2021-06-17T09:00:41Z</time>
      </trkpt>
      <trkpt lat="46.30456" lon="-1.29345">
        <ele>3.4</ele>
        <time>2021-06-17T09:00:42Z</time>
      </trkpt>
      <trkpt lat="46.30456" lon="-1.29345">
        <ele>3.4</ele>
        <time>2021-06-17T09:00:43Z</time>
      </trkpt>
      <trkpt lat="46.30456" lon="-1.29345">
        <ele>3.4</ele>
        <time>2021-06-17T09:00:44Z</time>
      </trkpt>
      <trkpt lat="46.30456" lon="-1.29345">
        <ele>3.4</ele>
        <time>2021-06-17T09:00:45Z</time>
      </trkpt>
      <trkpt lat="46.30456" lon="-1.29345">
        <ele>3.4</ele>
        <time>2021-06-17T09:00:46Z</time>
      </trkpt>
      <trkpt lat="46.30456" lon="-1.29345">
        <ele>3.4</ele>
        <time>2021-06-17T09:00:47Z</time>
      </trkpt>
      <trkpt lat="46.30456" lon="-1.29345">
        <ele>3.4</ele>
        <time>2021-06-17T09:00:48Z</time>
      </trkpt>
      <trkpt lat="46.30456" lon="-1.29345">
        <ele>3.4</ele>
        <time>2021-06-17T09:00:49Z</time>
      </trkpt>
      <trkpt lat="46.30456" lon="-1.29345">
        <ele>3.4</ele>
        <time>2021-06-17T09:00:50Z</time>
      </trkpt>
      <trkpt lat="46.30456" lon="-1.29345">
        <ele>3.4</ele>
        <time>2021-06-17T09:00:51Z</time>
      </trkpt>
      <trkpt lat="46.30456" lon="-1.29345">
        <ele>3.4</ele>
        <time>2021-06-17T09:00:52Z</time>
      </trkpt>
      <trkpt lat="46.30456" lon="-1.29345">
        <ele>3.4</ele>
        <time>2021-06-17T09:00:53Z</time>
      </trkpt>
      <trkpt lat="46.30456" lon="-1.29345">
        <ele>3.4</ele>
        <time>2021-06-17T09:00:54Z</time>
      </trkpt>
      <trkpt lat="46.30456" lon="-1.29345">
        <ele>3.4</ele>
        <time>2021-06-17T09:00:55Z</time>
      </trkpt>
      <trkpt lat="46.30456" lon="-1.29345">
        <ele>3.4</ele>
        <time>2021-06-17T09:00:56Z</time>
      </trkpt>
      <trkpt lat="46.30456" lon="-1.29345">
        <ele>3.4</ele>
        <time>2021-06-17T09:00:57Z</time>
      </trkpt>
      <trkpt lat="46.30456" lon="-1.29345">
        <ele>3.4</ele>
        <time>2021-06-17T09:00:58Z</time>
      </trkpt>
      <trkpt lat="46.30456" lon="-1.29345">
        <ele>3.4</ele>
        <time>2021-06-17T09:00:59Z</time>
      </trkpt>
      <trkpt lat="46.30456" lon="-1.29345">
        <ele>3.4</ele>
        <time>2021-06-17T09:01:00Z</time>
      </trkpt>
      <trkpt lat="46.30456" lon="-1.29345">
        <ele>3.4</ele>
        <time>2021-06-17T09:01:01Z</time>
      </trkpt>
      <trkpt lat="46.30456" lon="-1.29345">
        <ele>3.4</ele>
        <time>2021-06-17T09:01:02Z</time>
      </trkpt>
      <trkpt lat="46.30456" lon="-1.29345">
        <ele>3.4</ele>
        <time>2021-06-17T09:01:03Z</time>
      </trkpt>
      <trkpt lat="46.30456" lon="-1.29345">
        <ele>3.4</ele>
        <time>2021-06-17T09:01:04Z</time>
      </trkpt>
      <trkpt lat="46.30456" lon="-1.29345">
        <ele>3.4</ele>
        <time>2021-06-17T09:01:05Z</time>
      </trkpt>
      <trkpt lat="46.30456" lon="-1.29345">
        <ele>3.4</ele>
        <time>2021-06-17T09:01:06Z</time>
      </trkpt>
      <trkpt lat="46.30456" lon="-1.29345">
        <ele>3.4</ele>
        <time>2021-06-17T09:01:07Z</time>
      </trkpt>
      <trkpt lat="46.30456" lon="-1.29345">
        <ele>3.4</ele>
        <time>2021-06-17T09:01:08Z</time>
      </trkpt>
      <trkpt lat="46.30456" lon="-1.29345">
        <ele>3.4</ele>
        <time>2021-06-17T09:01:09Z</time>
      </trkpt>
      <trkpt lat="46.30456" lon="-1.29345">
        <ele>3.4</ele>
        <time>2021-06-17T09:01:10Z</time>
      </trkpt>
      <trkpt lat="46.30456" lon="-1.29345">
        <ele>3.4</ele>
        <time>2021-06-17T09:01:11Z</time>
      </trkpt>
      <trkpt lat="46.30456" lon="-1.29345">
        <ele>3.4</ele>
        <time>2021-06-17T09:01:12Z</time>
      </trkpt>
      <trkpt lat="46.30456" lon="-1.29345">
        <ele>3.4</ele>
        <time>2021-06-17T09:01:13Z</time>
      </trkpt>
      <trkpt lat="46.30456" lon="-1.29345">
        <ele>3.4</ele>
        <time>2021-06-17T09:01:14Z</time>
      </trkpt>
      <trkpt lat="46.30456" lon="-1.29345">
        <ele>3.4</ele>
        <time>2021-06-17T09:01:15Z</time>
      </trkpt>
      <trkpt lat="46.30456" lon="-1.29345">
        <ele>3.4</ele>
        <time>2021-06-17T09:01:16Z</time>
      </trkpt>
      <trkpt lat="46.30456" lon="-1.29345">
        <ele>3.4</ele>
        <time>2021-06-17T09:01:17Z</time>
      </trkpt>
      <trkpt lat="46.30456" lon="-1.29345">
        <ele>3.4</ele>
        <time>2021-06-17T09:01:18Z</time>
      </trkpt>
      <trkpt lat="46.30456" lon="-1.29345">
        <ele>3.4</ele>
        <time>2021-06-17T09:01:19Z</time>
      </trkpt>
      <trkpt lat="46.30456" lon="-1.29345">
        <ele>3.4</ele>
        <time>2021-06-17T09:01:20Z</time>
      </trkpt>
      <trkpt lat="46.30456" lon="-1.29345">
        <ele>3.4</ele>
        <time>2021-06-17T09:01:21Z</time>
      </trkpt>
      <trkpt lat="46.30456" lon="-1.29345">
        <ele>3.4</ele>
        <time>2021-06-17T09:01:22Z</time>
      </trkpt>
      <trkpt lat="46.30456" lon="-1.29345">
        <ele>3.4</ele>
        <time>2021-06-17T09:01:23Z</time>
      </trkpt>
      <trkpt lat="46.30456" lon="-1.29345">
        <ele>3.4</ele>
        <time>2021-06-17T09:01:24Z</time>
      </trkpt>
      <trkpt lat="46.30456" lon="-1.29345">
        <ele>3.4</ele>
        <time>2021-06-17T09:01:25Z</time>
      </trkpt>
      <trkpt lat="46.30456" lon="-1.29345">
        <ele>3.4</ele>
        <time>2021-06-17T09:01:26Z</time>
      </trkpt>
      <trkpt lat="46.30456" lon="-1.29345">
        <ele>3.4</ele>
        <time>2021-06-17T09:01:27Z</time>
      </trkpt>
      <trkpt lat="46.30456" lon="-1.29345">
        <ele>3.4</ele>
        <time>2021-06-17T09:01:28Z</time>
      </trkpt>
      <trkpt lat="46.30456" lon="-1.29345">
        <ele>3.4</ele>
        <time>2021-06-17T09:01:29Z</time>
      </trkpt>
      <trkpt lat="46.30456" lon="-1.29345">
        <ele>3.4</ele>
        <time>2021-06-17T09:01:30Z</time>
      </trkpt>
      <trkpt lat="46.30456" lon="-1.29345">
        <ele>3.4</ele>
        <time>2021-06-17T09:01:31Z</time>
      </trkpt>
      <trkpt lat="46.30456" lon="-1.29345">
        <ele>3.4</ele>
        <time>2021-06-17T09:01:32Z</time>
      </trkpt>
      <trkpt lat="46.30456" lon="-1.29345">
        <ele>3.4</ele>
        <time>2021-06-17T09:01:33Z</time>
      </trkpt>
      <trkpt lat="46.30456" lon="-1.29345">
        <ele>3.4</ele>
        <time>2021-06-17T09:01:34Z</time>
      </trkpt>
      <trkpt lat="46.30456" lon="-1.29345">
        <ele>3.4</ele>
        <time>2021-06-17T09:01:35Z</time>
      </trkpt>
      <trkpt lat="46.30456" lon="-1.29345">
        <ele>3.4</ele>
        <time>2021-06-17T09:01:36Z</time>
      </trkpt>
      <trkpt lat="46.30456" lon="-1.29345">
        <ele>3.4</ele>
        <time>2021-06-17T09:01:37Z</time>
      </trkpt>
      <trkpt lat="46.30456" lon="-1.29345">
        <ele>3.4</ele>
        <time>2021-06-17T09:01:38Z</time>
      </trkpt>
      <trkpt lat="46.30456" lon="-1.29345">
        <ele>3.4</ele>
        <time>2021-06-17T09:01:39Z</time>
      </trkpt>
      <trkpt lat="46.30456" lon="-1.29345">
        <ele>3.4</ele>
        <time>2021-06-17T09:01:40Z</time>
      </trkpt>
      <trkpt lat="46.30456" lon="-1.29345">
        <ele>3.4</ele>
        <time>2021-06-17T09:01:41Z</time>
      </trkpt>
      <trkpt lat="46.30456" lon="-1.29345">
        <ele>3.4</ele>
        <time>2021-06-17T09:01:42Z</time>
      </trkpt>
      <trkpt lat="46.30456" lon="-1.29345">
        <ele>3.4</ele>
        <time>2021-06-17T09:01:43Z</time>
      </trkpt>
      <trkpt lat="46.30456" lon="-1.29345">
        <ele>3.4</ele>
        <time>2021-06-17T09:01:44Z</time>
      </trkpt>
      <trkpt lat="46.30456" lon="-1.29345">
        <ele>3.4</ele>
        <time>2021-06-17T09:01:45Z</time>
      </trkpt>
      <trkpt lat="46.30456" lon="-1.29345">
        <ele>3.4</ele>
        <time>2021-06-17T09:01:46Z</time>
      </trkpt>
      <trkpt lat="46.30456" lon="-1.29345">
        <ele>3.4</ele>
        <time>2021-06-17T09:01:47Z</time>
      </trkpt>
      <trkpt lat="46.30456" lon="-1.29345">
        <ele>3.4</ele>
        <time>2021-06-17T09:01:48Z</time>
      </trkpt>
      <trkpt lat="46.30456" lon="-1.29345">
        <ele>3.4</ele>
        <time>2021-06-17T09:01:49Z</time>
      </trkpt>
      <trkpt lat="46.30456" lon="-1.29345">
        <ele>3.4</ele>
        <time>2021-06-17T09:01:50Z</time>
      </trkpt>
      <trkpt lat="46.30456" lon="-1.29345">
        <ele>3.4</ele>
        <time>2021-06-17T09:01:51Z</time>
      </trkpt>
      <trkpt lat="46.30456" lon="-1.29345">
        <ele>3.4</ele>
        <time>2021-06-17T09:01:52Z</time>
      </trkpt>
      <trkpt lat="46.30457" lon="-1.29345">
        <ele>3.4</ele>
        <time>2021-06-17T09:01:53Z</time>
      </trkpt>
      <trkpt lat="46.30457" lon="-1.29345">
        <ele>3.4</ele>
        <time>2021-06-17T09:01:54Z</time>
      </trkpt>
      <trkpt lat="46.30457" lon="-1.29346">
        <ele>3.4</ele>
        <time>2021-06-17T09:01:55Z</time>
      </trkpt>
      <trkpt lat="46.30458" lon="-1.29346">
        <ele>3.4</ele>
        <time>2021-06-17T09:01:56Z</time>
      </trkpt>
      <trkpt lat="46.30458" lon="-1.29346">
        <ele>3.5</ele>
        <time>2021-06-17T09:01:57Z</time>
      </trkpt>
      <trkpt lat="46.30458" lon="-1.29346">
        <ele>3.5</ele>
        <time>2021-06-17T09:01:58Z</time>
      </trkpt>
      <trkpt lat="46.30458" lon="-1.29346">
        <ele>3.5</ele>
        <time>2021-06-17T09:01:59Z</time>
      </trkpt>
      <trkpt lat="46.30458" lon="-1.29346">
        <ele>3.5</ele>
        <time>2021-06-17T09:02:00Z</time>
      </trkpt>
      <trkpt lat="46.30458" lon="-1.29346">
        <ele>3.5</ele>
        <time>2021-06-17T09:02:01Z</time>
      </trkpt>
      <trkpt lat="46.30458" lon="-1.29346">
        <ele>3.5</ele>
        <time>2021-06-17T09:02:02Z</time>
      </trkpt>
      <trkpt lat="46.30458" lon="-1.29346">
        <ele>3.5</ele>
        <time>2021-06-17T09:02:03Z</time>
      </trkpt>
      <trkpt lat="46.30458" lon="-1.29346">
        <ele>3.5</ele>
        <time>2021-06-17T09:02:04Z</time>
      </trkpt>
      <trkpt lat="46.30458" lon="-1.29346">
        <ele>3.5</ele>
        <time>2021-06-17T09:02:05Z</time>
      </trkpt>
      <trkpt lat="46.30458" lon="-1.29346">
        <ele>3.5</ele>
        <time>2021-06-17T09:02:06Z</time>
      </trkpt>
      <trkpt lat="46.30458" lon="-1.29346">
        <ele>3.5</ele>
        <time>2021-06-17T09:02:07Z</time>
      </trkpt>
      <trkpt lat="46.30458" lon="-1.29346">
        <ele>3.5</ele>
        <time>2021-06-17T09:02:08Z</time>
      </trkpt>
      <trkpt lat="46.30458" lon="-1.29346">
        <ele>3.5</ele>
        <time>2021-06-17T09:02:09Z</time>
      </trkpt>
      <trkpt lat="46.30458" lon="-1.29346">
        <ele>3.5</ele>
        <time>2021-06-17T09:02:10Z</time>
      </trkpt>
      <trkpt lat="46.30458" lon="-1.29346">
        <ele>3.5</ele>
        <time>2021-06-17T09:02:11Z</time>
      </trkpt>
      <trkpt lat="46.30458" lon="-1.29346">
        <ele>3.5</ele>
        <time>2021-06-17T09:02:12Z</time>
      </trkpt>
      <trkpt lat="46.30458" lon="-1.29346">
        <ele>3.5</ele>
        <time>2021-06-17T09:02:13Z</time>
      </trkpt>
      <trkpt lat="46.30458" lon="-1.29346">
        <ele>3.5</ele>
        <time>2021-06-17T09:02:14Z</time>
      </trkpt>
      <trkpt lat="46.30458" lon="-1.29346">
        <ele>3.5</ele>
        <time>2021-06-17T09:02:15Z</time>
      </trkpt>
      <trkpt lat="46.30458" lon="-1.29346">
        <ele>3.5</ele>
        <time>2021-06-17T09:02:16Z</time>
      </trkpt>
      <trkpt lat="46.30458" lon="-1.29346">
        <ele>3.5</ele>
        <time>2021-06-17T09:02:17Z</time>
      </trkpt>
      <trkpt lat="46.30458" lon="-1.29346">
        <ele>3.5</ele>
        <time>2021-06-17T09:02:18Z</time>
      </trkpt>
      <trkpt lat="46.30458" lon="-1.29346">
        <ele>3.5</ele>
        <time>2021-06-17T09:02:19Z</time>
      </trkpt>
      <trkpt lat="46.30458" lon="-1.29346">
        <ele>3.5</ele>
        <time>2021-06-17T09:02:20Z</time>
      </trkpt>
      <trkpt lat="46.30458" lon="-1.29346">
        <ele>3.5</ele>
        <time>2021-06-17T09:02:21Z</time>
      </trkpt>
      <trkpt lat="46.30458" lon="-1.29346">
        <ele>3.5</ele>
        <time>2021-06-17T09:02:22Z</time>
      </trkpt>
      <trkpt lat="46.30458" lon="-1.29346">
        <ele>3.5</ele>
        <time>2021-06-17T09:02:23Z</time>
      </trkpt>
      <trkpt lat="46.30458" lon="-1.29346">
        <ele>3.5</ele>
        <time>2021-06-17T09:02:24Z</time>
      </trkpt>
      <trkpt lat="46.30458" lon="-1.29346">
        <ele>3.5</ele>
        <time>2021-06-17T09:02:25Z</time>
      </trkpt>
      <trkpt lat="46.30458" lon="-1.29346">
        <ele>3.5</ele>
        <time>2021-06-17T09:02:26Z</time>
      </trkpt>
      <trkpt lat="46.30458" lon="-1.29346">
        <ele>3.5</ele>
        <time>2021-06-17T09:02:27Z</time>
      </trkpt>
      <trkpt lat="46.30458" lon="-1.29346">
        <ele>3.5</ele>
        <time>2021-06-17T09:02:28Z</time>
      </trkpt>
      <trkpt lat="46.30458" lon="-1.29346">
        <ele>3.5</ele>
        <time>2021-06-17T09:02:29Z</time>
      </trkpt>
      <trkpt lat="46.30458" lon="-1.29346">
        <ele>3.5</ele>
        <time>2021-06-17T09:02:30Z</time>
      </trkpt>
      <trkpt lat="46.30458" lon="-1.29346">
        <ele>3.5</ele>
        <time>2021-06-17T09:02:31Z</time>
      </trkpt>
      <trkpt lat="46.30458" lon="-1.29346">
        <ele>3.5</ele>
        <time>2021-06-17T09:02:32Z</time>
      </trkpt>
      <trkpt lat="46.30458" lon="-1.29346">
        <ele>3.5</ele>
        <time>2021-06-17T09:02:33Z</time>
      </trkpt>
      <trkpt lat="46.30458" lon="-1.29346">
        <ele>3.5</ele>
        <time>2021-06-17T09:02:34Z</time>
      </trkpt>
      <trkpt lat="46.30458" lon="-1.29346">
        <ele>3.5</ele>
        <time>2021-06-17T09:02:35Z</time>
      </trkpt>
      <trkpt lat="46.30458" lon="-1.29346">
        <ele>3.5</ele>
        <time>2021-06-17T09:02:36Z</time>
      </trkpt>
      <trkpt lat="46.30458" lon="-1.29347">
        <ele>3.5</ele>
        <time>2021-06-17T09:02:37Z</time>
      </trkpt>
      <trkpt lat="46.30458" lon="-1.29347">
        <ele>3.5</ele>
        <time>2021-06-17T09:02:38Z</time>
      </trkpt>
      <trkpt lat="46.30458" lon="-1.29347">
        <ele>3.5</ele>
        <time>2021-06-17T09:02:39Z</time>
      </trkpt>
      <trkpt lat="46.30458" lon="-1.29347">
        <ele>3.5</ele>
        <time>2021-06-17T09:02:40Z</time>
      </trkpt>
      <trkpt lat="46.30458" lon="-1.29347">
        <ele>3.5</ele>
        <time>2021-06-17T09:02:41Z</time>
      </trkpt>
      <trkpt lat="46.30458" lon="-1.29347">
        <ele>3.5</ele>
        <time>2021-06-17T09:02:42Z</time>
      </trkpt>
      <trkpt lat="46.30458" lon="-1.29347">
        <ele>3.5</ele>
        <time>2021-06-17T09:02:43Z</time>
      </trkpt>
      <trkpt lat="46.30458" lon="-1.29347">
        <ele>3.5</ele>
        <time>2021-06-17T09:02:44Z</time>
      </trkpt>
      <trkpt lat="46.30458" lon="-1.29347">
        <ele>3.5</ele>
        <time>2021-06-17T09:02:45Z</time>
      </trkpt>
      <trkpt lat="46.30458" lon="-1.29347">
        <ele>3.5</ele>
        <time>2021-06-17T09:02:46Z</time>
      </trkpt>
      <trkpt lat="46.30458" lon="-1.29347">
        <ele>3.5</ele>
        <time>2021-06-17T09:02:47Z</time>
      </trkpt>
      <trkpt lat="46.30458" lon="-1.29347">
        <ele>3.5</ele>
        <time>2021-06-17T09:02:48Z</time>
      </trkpt>
      <trkpt lat="46.30458" lon="-1.29347">
        <ele>3.5</ele>
        <time>2021-06-17T09:02:49Z</time>
      </trkpt>
      <trkpt lat="46.30458" lon="-1.29347">
        <ele>3.5</ele>
        <time>2021-06-17T09:02:50Z</time>
      </trkpt>
      <trkpt lat="46.30458" lon="-1.29347">
        <ele>3.5</ele>
        <time>2021-06-17T09:02:51Z</time>
      </trkpt>
      <trkpt lat="46.30458" lon="-1.29347">
        <ele>3.5</ele>
        <time>2021-06-17T09:02:52Z</time>
      </trkpt>
      <trkpt lat="46.30458" lon="-1.29347">
        <ele>3.5</ele>
        <time>2021-06-17T09:02:53Z</time>
      </trkpt>
      <trkpt lat="46.30458" lon="-1.29347">
        <ele>3.5</ele>
        <time>2021-06-17T09:02:54Z</time>
      </trkpt>
      <trkpt lat="46.30458" lon="-1.29347">
        <ele>3.5</ele>
        <time>2021-06-17T09:02:55Z</time>
      </trkpt>
      <trkpt lat="46.30458" lon="-1.29347">
        <ele>3.5</ele>
        <time>2021-06-17T09:02:56Z</time>
      </trkpt>
      <trkpt lat="46.30458" lon="-1.29347">
        <ele>3.5</ele>
        <time>2021-06-17T09:02:57Z</time>
      </trkpt>
      <trkpt lat="46.30458" lon="-1.29347">
        <ele>3.5</ele>
        <time>2021-06-17T09:02:58Z</time>
      </trkpt>
      <trkpt lat="46.30458" lon="-1.29347">
        <ele>3.5</ele>
        <time>2021-06-17T09:02:59Z</time>
      </trkpt>
      <trkpt lat="46.30459" lon="-1.29348">
        <ele>3.5</ele>
        <time>2021-06-17T09:03:00Z</time>
      </trkpt>
      <trkpt lat="46.3046" lon="-1.29348">
        <ele>3.5</ele>
        <time>2021-06-17T09:03:01Z</time>
      </trkpt>
      <trkpt lat="46.3046" lon="-1.29347">
        <ele>3.6</ele>
        <time>2021-06-17T09:03:02Z</time>
      </trkpt>
      <trkpt lat="46.30461" lon="-1.29346">
        <ele>3.6</ele>
        <time>2021-06-17T09:03:03Z</time>
      </trkpt>
      <trkpt lat="46.30461" lon="-1.29345">
        <ele>3.6</ele>
        <time>2021-06-17T09:03:04Z</time>
      </trkpt>
      <trkpt lat="46.30461" lon="-1.29344">
        <ele>3.6</ele>
        <time>2021-06-17T09:03:05Z</time>
      </trkpt>
      <trkpt lat="46.30461" lon="-1.29343">
        <ele>3.6</ele>
        <time>2021-06-17T09:03:06Z</time>
      </trkpt>
      <trkpt lat="46.30461" lon="-1.29341">
        <ele>3.6</ele>
        <time>2021-06-17T09:03:07Z</time>
      </trkpt>
      <trkpt lat="46.30461" lon="-1.2934">
        <ele>3.6</ele>
        <time>2021-06-17T09:03:08Z</time>
      </trkpt>
      <trkpt lat="46.30461" lon="-1.29339">
        <ele>3.6</ele>
        <time>2021-06-17T09:03:09Z</time>
      </trkpt>
      <trkpt lat="46.30461" lon="-1.29339">
        <ele>3.6</ele>
        <time>2021-06-17T09:03:10Z</time>
      </trkpt>
      <trkpt lat="46.30461" lon="-1.29338">
        <ele>3.6</ele>
        <time>2021-06-17T09:03:11Z</time>
      </trkpt>
      <trkpt lat="46.30461" lon="-1.29338">
        <ele>3.6</ele>
        <time>2021-06-17T09:03:12Z</time>
      </trkpt>
      <trkpt lat="46.30461" lon="-1.29338">
        <ele>3.6</ele>
        <time>2021-06-17T09:03:13Z</time>
      </trkpt>
      <trkpt lat="46.30461" lon="-1.29338">
        <ele>3.6</ele>
        <time>2021-06-17T09:03:14Z</time>
      </trkpt>
      <trkpt lat="46.30461" lon="-1.29338">
        <ele>3.6</ele>
        <time>2021-06-17T09:03:15Z</time>
      </trkpt>
      <trkpt lat="46.30461" lon="-1.29338">
        <ele>3.6</ele>
        <time>2021-06-17T09:03:16Z</time>
      </trkpt>
      <trkpt lat="46.30461" lon="-1.29338">
        <ele>3.6</ele>
        <time>2021-06-17T09:03:17Z</time>
      </trkpt>
      <trkpt lat="46.3046" lon="-1.29337">
        <ele>3.6</ele>
        <time>2021-06-17T09:03:18Z</time>
      </trkpt>
      <trkpt lat="46.3046" lon="-1.29337">
        <ele>3.6</ele>
        <time>2021-06-17T09:03:19Z</time>
      </trkpt>
      <trkpt lat="46.3046" lon="-1.29337">
        <ele>3.6</ele>
        <time>2021-06-17T09:03:20Z</time>
      </trkpt>
      <trkpt lat="46.30459" lon="-1.29337">
        <ele>3.5</ele>
        <time>2021-06-17T09:03:21Z</time>
      </trkpt>
      <trkpt lat="46.30459" lon="-1.29337">
        <ele>3.5</ele>
        <time>2021-06-17T09:03:22Z</time>
      </trkpt>
      <trkpt lat="46.30458" lon="-1.29337">
        <ele>3.5</ele>
        <time>2021-06-17T09:03:23Z</time>
      </trkpt>
      <trkpt lat="46.30458" lon="-1.29338">
        <ele>3.5</ele>
        <time>2021-06-17T09:03:24Z</time>
      </trkpt>
      <trkpt lat="46.30457" lon="-1.29338">
        <ele>3.5</ele>
        <time>2021-06-17T09:03:25Z</time>
      </trkpt>
      <trkpt lat="46.30457" lon="-1.29338">
        <ele>3.5</ele>
        <time>2021-06-17T09:03:26Z</time>
      </trkpt>
      <trkpt lat="46.30457" lon="-1.29338">
        <ele>3.5</ele>
        <time>2021-06-17T09:03:27Z</time>
      </trkpt>
      <trkpt lat="46.30457" lon="-1.29338">
        <ele>3.5</ele>
        <time>2021-06-17T09:03:28Z</time>
      </trkpt>
      <trkpt lat="46.30457" lon="-1.29338">
        <ele>3.5</ele>
        <time>2021-06-17T09:03:29Z</time>
      </trkpt>
      <trkpt lat="46.30457" lon="-1.29338">
        <ele>3.5</ele>
        <time>2021-06-17T09:03:30Z</time>
      </trkpt>
      <trkpt lat="46.30457" lon="-1.29338">
        <ele>3.5</ele>
        <time>2021-06-17T09:03:31Z</time>
      </trkpt>
      <trkpt lat="46.30457" lon="-1.29338">
        <ele>3.5</ele>
        <time>2021-06-17T09:03:32Z</time>
      </trkpt>
      <trkpt lat="46.30457" lon="-1.29338">
        <ele>3.5</ele>
        <time>2021-06-17T09:03:33Z</time>
      </trkpt>
      <trkpt lat="46.30457" lon="-1.29338">
        <ele>3.5</ele>
        <time>2021-06-17T09:03:34Z</time>
      </trkpt>
      <trkpt lat="46.30457" lon="-1.29338">
        <ele>3.5</ele>
        <time>2021-06-17T09:03:35Z</time>
      </trkpt>
      <trkpt lat="46.30457" lon="-1.29338">
        <ele>3.5</ele>
        <time>2021-06-17T09:03:36Z</time>
      </trkpt>
      <trkpt lat="46.30457" lon="-1.29338">
        <ele>3.5</ele>
        <time>2021-06-17T09:03:37Z</time>
      </trkpt>
      <trkpt lat="46.30457" lon="-1.29338">
        <ele>3.5</ele>
        <time>2021-06-17T09:03:38Z</time>
      </trkpt>
      <trkpt lat="46.30457" lon="-1.29338">
        <ele>3.5</ele>
        <time>2021-06-17T09:03:39Z</time>
      </trkpt>
      <trkpt lat="46.30457" lon="-1.29338">
        <ele>3.5</ele>
        <time>2021-06-17T09:03:40Z</time>
      </trkpt>
      <trkpt lat="46.30457" lon="-1.29338">
        <ele>3.5</ele>
        <time>2021-06-17T09:03:41Z</time>
      </trkpt>
      <trkpt lat="46.30456" lon="-1.29338">
        <ele>3.5</ele>
        <time>2021-06-17T09:03:42Z</time>
      </trkpt>
      <trkpt lat="46.30456" lon="-1.29338">
        <ele>3.5</ele>
        <time>2021-06-17T09:03:43Z</time>
      </trkpt>
      <trkpt lat="46.30456" lon="-1.29338">
        <ele>3.5</ele>
        <time>2021-06-17T09:03:44Z</time>
      </trkpt>
      <trkpt lat="46.30456" lon="-1.29338">
        <ele>3.5</ele>
        <time>2021-06-17T09:03:45Z</time>
      </trkpt>
      <trkpt lat="46.30456" lon="-1.29338">
        <ele>3.5</ele>
        <time>2021-06-17T09:03:46Z</time>
      </trkpt>
      <trkpt lat="46.30456" lon="-1.29338">
        <ele>3.5</ele>
        <time>2021-06-17T09:03:47Z</time>
      </trkpt>
      <trkpt lat="46.30456" lon="-1.29338">
        <ele>3.5</ele>
        <time>2021-06-17T09:03:48Z</time>
      </trkpt>
      <trkpt lat="46.30456" lon="-1.29338">
        <ele>3.5</ele>
        <time>2021-06-17T09:03:49Z</time>
      </trkpt>
      <trkpt lat="46.30456" lon="-1.29338">
        <ele>3.4</ele>
        <time>2021-06-17T09:03:50Z</time>
      </trkpt>
      <trkpt lat="46.30456" lon="-1.29338">
        <ele>3.4</ele>
        <time>2021-06-17T09:03:51Z</time>
      </trkpt>
      <trkpt lat="46.30457" lon="-1.29338">
        <ele>3.4</ele>
        <time>2021-06-17T09:03:52Z</time>
      </trkpt>
      <trkpt lat="46.30457" lon="-1.29338">
        <ele>3.4</ele>
        <time>2021-06-17T09:03:53Z</time>
      </trkpt>
      <trkpt lat="46.30457" lon="-1.29338">
        <ele>3.4</ele>
        <time>2021-06-17T09:03:54Z</time>
      </trkpt>
      <trkpt lat="46.30457" lon="-1.29338">
        <ele>3.4</ele>
        <time>2021-06-17T09:03:55Z</time>
      </trkpt>
      <trkpt lat="46.30457" lon="-1.29338">
        <ele>3.4</ele>
        <time>2021-06-17T09:03:56Z</time>
      </trkpt>
      <trkpt lat="46.30457" lon="-1.29338">
        <ele>3.4</ele>
        <time>2021-06-17T09:03:57Z</time>
      </trkpt>
      <trkpt lat="46.30457" lon="-1.29338">
        <ele>3.4</ele>
        <time>2021-06-17T09:03:58Z</time>
      </trkpt>
      <trkpt lat="46.30457" lon="-1.29338">
        <ele>3.4</ele>
        <time>2021-06-17T09:03:59Z</time>
      </trkpt>
      <trkpt lat="46.30457" lon="-1.29338">
        <ele>3.4</ele>
        <time>2021-06-17T09:04:00Z</time>
      </trkpt>
      <trkpt lat="46.30457" lon="-1.29338">
        <ele>3.4</ele>
        <time>2021-06-17T09:04:01Z</time>
      </trkpt>
      <trkpt lat="46.30457" lon="-1.29338">
        <ele>3.4</ele>
        <time>2021-06-17T09:04:02Z</time>
      </trkpt>
      <trkpt lat="46.30457" lon="-1.29338">
        <ele>3.4</ele>
        <time>2021-06-17T09:04:03Z</time>
      </trkpt>
      <trkpt lat="46.30457" lon="-1.29338">
        <ele>3.4</ele>
        <time>2021-06-17T09:04:04Z</time>
      </trkpt>
      <trkpt lat="46.30457" lon="-1.29338">
        <ele>3.4</ele>
        <time>2021-06-17T09:04:05Z</time>
      </trkpt>
      <trkpt lat="46.30457" lon="-1.29338">
        <ele>3.4</ele>
        <time>2021-06-17T09:04:06Z</time>
      </trkpt>
      <trkpt lat="46.30457" lon="-1.29338">
        <ele>3.4</ele>
        <time>2021-06-17T09:04:07Z</time>
      </trkpt>
      <trkpt lat="46.30457" lon="-1.29338">
        <ele>3.4</ele>
        <time>2021-06-17T09:04:08Z</time>
      </trkpt>
      <trkpt lat="46.30457" lon="-1.29338">
        <ele>3.4</ele>
        <time>2021-06-17T09:04:09Z</time>
      </trkpt>
      <trkpt lat="46.30457" lon="-1.29338">
        <ele>3.4</ele>
        <time>2021-06-17T09:04:10Z</time>
      </trkpt>
      <trkpt lat="46.30458" lon="-1.29338">
        <ele>3.4</ele>
        <time>2021-06-17T09:04:11Z</time>
      </trkpt>
      <trkpt lat="46.30458" lon="-1.29338">
        <ele>3.4</ele>
        <time>2021-06-17T09:04:12Z</time>
      </trkpt>
      <trkpt lat="46.30458" lon="-1.29338">
        <ele>3.4</ele>
        <time>2021-06-17T09:04:13Z</time>
      </trkpt>
      <trkpt lat="46.30458" lon="-1.29338">
        <ele>3.4</ele>
        <time>2021-06-17T09:04:14Z</time>
      </trkpt>
      <trkpt lat="46.30458" lon="-1.29338">
        <ele>3.4</ele>
        <time>2021-06-17T09:04:15Z</time>
      </trkpt>
      <trkpt lat="46.30458" lon="-1.29338">
        <ele>3.4</ele>
        <time>2021-06-17T09:04:16Z</time>
      </trkpt>
      <trkpt lat="46.30458" lon="-1.29338">
        <ele>3.4</ele>
        <time>2021-06-17T09:04:17Z</time>
      </trkpt>
      <trkpt lat="46.30458" lon="-1.29338">
        <ele>3.4</ele>
        <time>2021-06-17T09:04:18Z</time>
      </trkpt>
      <trkpt lat="46.30458" lon="-1.29338">
        <ele>3.4</ele>
        <time>2021-06-17T09:04:19Z</time>
      </trkpt>
      <trkpt lat="46.30458" lon="-1.29338">
        <ele>3.4</ele>
        <time>2021-06-17T09:04:20Z</time>
      </trkpt>
      <trkpt lat="46.30458" lon="-1.29338">
        <ele>3.4</ele>
        <time>2021-06-17T09:04:21Z</time>
      </trkpt>
      <trkpt lat="46.30458" lon="-1.29338">
        <ele>3.4</ele>
        <time>2021-06-17T09:04:22Z</time>
      </trkpt>
      <trkpt lat="46.30458" lon="-1.29338">
        <ele>3.3</ele>
        <time>2021-06-17T09:04:23Z</time>
      </trkpt>
      <trkpt lat="46.30459" lon="-1.29338">
        <ele>3.3</ele>
        <time>2021-06-17T09:04:24Z</time>
      </trkpt>
      <trkpt lat="46.30459" lon="-1.29339">
        <ele>3.3</ele>
        <time>2021-06-17T09:04:25Z</time>
      </trkpt>
      <trkpt lat="46.3046" lon="-1.29339">
        <ele>3.3</ele>
        <time>2021-06-17T09:04:26Z</time>
      </trkpt>
      <trkpt lat="46.3046" lon="-1.29339">
        <ele>3.3</ele>
        <time>2021-06-17T09:04:27Z</time>
      </trkpt>
      <trkpt lat="46.30461" lon="-1.2934">
        <ele>3.2</ele>
        <time>2021-06-17T09:04:28Z</time>
      </trkpt>
      <trkpt lat="46.30461" lon="-1.2934">
        <ele>3.2</ele>
        <time>2021-06-17T09:04:29Z</time>
      </trkpt>
      <trkpt lat="46.30461" lon="-1.29341">
        <ele>3.2</ele>
        <time>2021-06-17T09:04:30Z</time>
      </trkpt>
      <trkpt lat="46.30461" lon="-1.29341">
        <ele>3.2</ele>
        <time>2021-06-17T09:04:31Z</time>
      </trkpt>
      <trkpt lat="46.30461" lon="-1.29342">
        <ele>3.2</ele>
        <time>2021-06-17T09:04:32Z</time>
      </trkpt>
      <trkpt lat="46.30461" lon="-1.29343">
        <ele>3.2</ele>
        <time>2021-06-17T09:04:33Z</time>
      </trkpt>
      <trkpt lat="46.3046" lon="-1.29343">
        <ele>3.1</ele>
        <time>2021-06-17T09:04:34Z</time>
      </trkpt>
      <trkpt lat="46.3046" lon="-1.29343">
        <ele>3.1</ele>
        <time>2021-06-17T09:04:35Z</time>
      </trkpt>
      <trkpt lat="46.3046" lon="-1.29344">
        <ele>3.1</ele>
        <time>2021-06-17T09:04:36Z</time>
      </trkpt>
      <trkpt lat="46.30459" lon="-1.29344">
        <ele>3.1</ele>
        <time>2021-06-17T09:04:37Z</time>
      </trkpt>
      <trkpt lat="46.30459" lon="-1.29344">
        <ele>3.1</ele>
        <time>2021-06-17T09:04:38Z</time>
      </trkpt>
      <trkpt lat="46.30459" lon="-1.29344">
        <ele>3.1</ele>
        <time>2021-06-17T09:04:39Z</time>
      </trkpt>
      <trkpt lat="46.30458" lon="-1.29344">
        <ele>3.1</ele>
        <time>2021-06-17T09:04:40Z</time>
      </trkpt>
      <trkpt lat="46.30458" lon="-1.29344">
        <ele>3.1</ele>
        <time>2021-06-17T09:04:41Z</time>
      </trkpt>
      <trkpt lat="46.30458" lon="-1.29344">
        <ele>3</ele>
        <time>2021-06-17T09:04:42Z</time>
      </trkpt>
      <trkpt lat="46.30458" lon="-1.29344">
        <ele>3</ele>
        <time>2021-06-17T09:04:43Z</time>
      </trkpt>
      <trkpt lat="46.30458" lon="-1.29344">
        <ele>3</ele>
        <time>2021-06-17T09:04:44Z</time>
      </trkpt>
      <trkpt lat="46.30458" lon="-1.29344">
        <ele>3</ele>
        <time>2021-06-17T09:04:45Z</time>
      </trkpt>
      <trkpt lat="46.30458" lon="-1.29344">
        <ele>3</ele>
        <time>2021-06-17T09:04:46Z</time>
      </trkpt>
      <trkpt lat="46.30458" lon="-1.29344">
        <ele>3</ele>
        <time>2021-06-17T09:04:47Z</time>
      </trkpt>
      <trkpt lat="46.30458" lon="-1.29344">
        <ele>3</ele>
        <time>2021-06-17T09:04:48Z</time>
      </trkpt>
      <trkpt lat="46.30458" lon="-1.29344">
        <ele>3</ele>
        <time>2021-06-17T09:04:49Z</time>
      </trkpt>
      <trkpt lat="46.30458" lon="-1.29344">
        <ele>3</ele>
        <time>2021-06-17T09:04:50Z</time>
      </trkpt>
      <trkpt lat="46.30458" lon="-1.29344">
        <ele>3</ele>
        <time>2021-06-17T09:04:51Z</time>
      </trkpt>
      <trkpt lat="46.30458" lon="-1.29344">
        <ele>3</ele>
        <time>2021-06-17T09:04:52Z</time>
      </trkpt>
      <trkpt lat="46.30458" lon="-1.29344">
        <ele>3</ele>
        <time>2021-06-17T09:04:53Z</time>
      </trkpt>
      <trkpt lat="46.30458" lon="-1.29344">
        <ele>3</ele>
        <time>2021-06-17T09:04:54Z</time>
      </trkpt>
      <trkpt lat="46.30457" lon="-1.29345">
        <ele>3</ele>
        <time>2021-06-17T09:04:55Z</time>
      </trkpt>
      <trkpt lat="46.30456" lon="-1.29345">
        <ele>3</ele>
        <time>2021-06-17T09:04:56Z</time>
      </trkpt>
      <trkpt lat="46.30456" lon="-1.29346">
        <ele>3</ele>
        <time>2021-06-17T09:04:57Z</time>
      </trkpt>
      <trkpt lat="46.30455" lon="-1.29346">
        <ele>2.9</ele>
        <time>2021-06-17T09:04:58Z</time>
      </trkpt>
      <trkpt lat="46.30455" lon="-1.29347">
        <ele>2.9</ele>
        <time>2021-06-17T09:04:59Z</time>
      </trkpt>
      <trkpt lat="46.30455" lon="-1.29347">
        <ele>2.9</ele>
        <time>2021-06-17T09:05:00Z</time>
      </trkpt>
      <trkpt lat="46.30455" lon="-1.29348">
        <ele>2.9</ele>
        <time>2021-06-17T09:05:01Z</time>
      </trkpt>
      <trkpt lat="46.30455" lon="-1.29348">
        <ele>2.9</ele>
        <time>2021-06-17T09:05:02Z</time>
      </trkpt>
      <trkpt lat="46.30455" lon="-1.29348">
        <ele>2.9</ele>
        <time>2021-06-17T09:05:03Z</time>
      </trkpt>
      <trkpt lat="46.30455" lon="-1.29349">
        <ele>2.9</ele>
        <time>2021-06-17T09:05:04Z</time>
      </trkpt>
      <trkpt lat="46.30455" lon="-1.29349">
        <ele>2.9</ele>
        <time>2021-06-17T09:05:05Z</time>
      </trkpt>
      <trkpt lat="46.30455" lon="-1.29349">
        <ele>2.9</ele>
        <time>2021-06-17T09:05:06Z</time>
      </trkpt>
      <trkpt lat="46.30455" lon="-1.29349">
        <ele>2.9</ele>
        <time>2021-06-17T09:05:07Z</time>
      </trkpt>
      <trkpt lat="46.30455" lon="-1.29349">
        <ele>2.9</ele>
        <time>2021-06-17T09:05:08Z</time>
      </trkpt>
      <trkpt lat="46.30455" lon="-1.29349">
        <ele>2.9</ele>
        <time>2021-06-17T09:05:09Z</time>
      </trkpt>
      <trkpt lat="46.30455" lon="-1.29349">
        <ele>2.9</ele>
        <time>2021-06-17T09:05:10Z</time>
      </trkpt>
      <trkpt lat="46.30454" lon="-1.29349">
        <ele>2.9</ele>
        <time>2021-06-17T09:05:11Z</time>
      </trkpt>
      <trkpt lat="46.30454" lon="-1.29349">
        <ele>2.8</ele>
        <time>2021-06-17T09:05:12Z</time>
      </trkpt>
      <trkpt lat="46.30454" lon="-1.29349">
        <ele>2.8</ele>
        <time>2021-06-17T09:05:13Z</time>
      </trkpt>
      <trkpt lat="46.30454" lon="-1.29349">
        <ele>2.8</ele>
        <time>2021-06-17T09:05:14Z</time>
      </trkpt>
      <trkpt lat="46.30454" lon="-1.29349">
        <ele>2.8</ele>
        <time>2021-06-17T09:05:15Z</time>
      </trkpt>
      <trkpt lat="46.30453" lon="-1.29349">
        <ele>2.8</ele>
        <time>2021-06-17T09:05:16Z</time>
      </trkpt>
      <trkpt lat="46.30453" lon="-1.29349">
        <ele>2.8</ele>
        <time>2021-06-17T09:05:17Z</time>
      </trkpt>
      <trkpt lat="46.30453" lon="-1.29349">
        <ele>2.8</ele>
        <time>2021-06-17T09:05:18Z</time>
      </trkpt>
      <trkpt lat="46.30452" lon="-1.29349">
        <ele>2.8</ele>
        <time>2021-06-17T09:05:19Z</time>
      </trkpt>
      <trkpt lat="46.30452" lon="-1.2935">
        <ele>2.8</ele>
        <time>2021-06-17T09:05:20Z</time>
      </trkpt>
      <trkpt lat="46.30452" lon="-1.2935">
        <ele>2.8</ele>
        <time>2021-06-17T09:05:21Z</time>
      </trkpt>
      <trkpt lat="46.30452" lon="-1.2935">
        <ele>2.8</ele>
        <time>2021-06-17T09:05:22Z</time>
      </trkpt>
      <trkpt lat="46.30452" lon="-1.2935">
        <ele>2.8</ele>
        <time>2021-06-17T09:05:23Z</time>
      </trkpt>
      <trkpt lat="46.30452" lon="-1.2935">
        <ele>2.8</ele>
        <time>2021-06-17T09:05:24Z</time>
      </trkpt>
      <trkpt lat="46.30452" lon="-1.2935">
        <ele>2.8</ele>
        <time>2021-06-17T09:05:25Z</time>
      </trkpt>
      <trkpt lat="46.30452" lon="-1.2935">
        <ele>2.8</ele>
        <time>2021-06-17T09:05:26Z</time>
      </trkpt>
      <trkpt lat="46.30452" lon="-1.2935">
        <ele>2.8</ele>
        <time>2021-06-17T09:05:27Z</time>
      </trkpt>
      <trkpt lat="46.30452" lon="-1.29349">
        <ele>2.8</ele>
        <time>2021-06-17T09:05:28Z</time>
      </trkpt>
      <trkpt lat="46.30452" lon="-1.29349">
        <ele>2.8</ele>
        <time>2021-06-17T09:05:29Z</time>
      </trkpt>
      <trkpt lat="46.30452" lon="-1.29349">
        <ele>2.8</ele>
        <time>2021-06-17T09:05:30Z</time>
      </trkpt>
      <trkpt lat="46.30451" lon="-1.29349">
        <ele>2.8</ele>
        <time>2021-06-17T09:05:31Z</time>
      </trkpt>
      <trkpt lat="46.3045" lon="-1.2935">
        <ele>2.8</ele>
        <time>2021-06-17T09:05:32Z</time>
      </trkpt>
      <trkpt lat="46.3045" lon="-1.2935">
        <ele>2.7</ele>
        <time>2021-06-17T09:05:33Z</time>
      </trkpt>
      <trkpt lat="46.30449" lon="-1.2935">
        <ele>2.7</ele>
        <time>2021-06-17T09:05:34Z</time>
      </trkpt>
      <trkpt lat="46.30448" lon="-1.2935">
        <ele>2.7</ele>
        <time>2021-06-17T09:05:35Z</time>
      </trkpt>
      <trkpt lat="46.30447" lon="-1.2935">
        <ele>2.7</ele>
        <time>2021-06-17T09:05:36Z</time>
      </trkpt>
      <trkpt lat="46.30446" lon="-1.2935">
        <ele>2.7</ele>
        <time>2021-06-17T09:05:37Z</time>
      </trkpt>
      <trkpt lat="46.30445" lon="-1.2935">
        <ele>2.7</ele>
        <time>2021-06-17T09:05:38Z</time>
      </trkpt>
      <trkpt lat="46.30444" lon="-1.2935">
        <ele>2.7</ele>
        <time>2021-06-17T09:05:39Z</time>
      </trkpt>
      <trkpt lat="46.30444" lon="-1.29351">
        <ele>2.7</ele>
        <time>2021-06-17T09:05:40Z</time>
      </trkpt>
      <trkpt lat="46.30443" lon="-1.29351">
        <ele>2.7</ele>
        <time>2021-06-17T09:05:41Z</time>
      </trkpt>
      <trkpt lat="46.30443" lon="-1.29351">
        <ele>2.7</ele>
        <time>2021-06-17T09:05:42Z</time>
      </trkpt>
      <trkpt lat="46.30443" lon="-1.29351">
        <ele>2.7</ele>
        <time>2021-06-17T09:05:43Z</time>
      </trkpt>
      <trkpt lat="46.30443" lon="-1.29351">
        <ele>2.7</ele>
        <time>2021-06-17T09:05:44Z</time>
      </trkpt>
      <trkpt lat="46.30443" lon="-1.29351">
        <ele>2.7</ele>
        <time>2021-06-17T09:05:45Z</time>
      </trkpt>
      <trkpt lat="46.30443" lon="-1.29351">
        <ele>2.7</ele>
        <time>2021-06-17T09:05:46Z</time>
      </trkpt>
      <trkpt lat="46.30443" lon="-1.29351">
        <ele>2.7</ele>
        <time>2021-06-17T09:05:47Z</time>
      </trkpt>
      <trkpt lat="46.30443" lon="-1.29351">
        <ele>2.7</ele>
        <time>2021-06-17T09:05:48Z</time>
      </trkpt>
      <trkpt lat="46.30443" lon="-1.29351">
        <ele>2.7</ele>
        <time>2021-06-17T09:05:49Z</time>
      </trkpt>
      <trkpt lat="46.30443" lon="-1.29351">
        <ele>2.7</ele>
        <time>2021-06-17T09:05:50Z</time>
      </trkpt>
      <trkpt lat="46.30443" lon="-1.29351">
        <ele>2.7</ele>
        <time>2021-06-17T09:05:51Z</time>
      </trkpt>
      <trkpt lat="46.30443" lon="-1.29351">
        <ele>2.7</ele>
        <time>2021-06-17T09:05:52Z</time>
      </trkpt>
      <trkpt lat="46.30443" lon="-1.29351">
        <ele>2.7</ele>
        <time>2021-06-17T09:05:53Z</time>
      </trkpt>
      <trkpt lat="46.30443" lon="-1.29351">
        <ele>2.7</ele>
        <time>2021-06-17T09:05:54Z</time>
      </trkpt>
      <trkpt lat="46.30443" lon="-1.29351">
        <ele>2.7</ele>
        <time>2021-06-17T09:05:55Z</time>
      </trkpt>
      <trkpt lat="46.30443" lon="-1.29351">
        <ele>2.7</ele>
        <time>2021-06-17T09:05:56Z</time>
      </trkpt>
      <trkpt lat="46.30443" lon="-1.29351">
        <ele>2.7</ele>
        <time>2021-06-17T09:05:57Z</time>
      </trkpt>
      <trkpt lat="46.30443" lon="-1.29351">
        <ele>2.7</ele>
        <time>2021-06-17T09:05:58Z</time>
      </trkpt>
      <trkpt lat="46.30443" lon="-1.29351">
        <ele>2.7</ele>
        <time>2021-06-17T09:05:59Z</time>
      </trkpt>
      <trkpt lat="46.30443" lon="-1.29351">
        <ele>2.7</ele>
        <time>2021-06-17T09:06:00Z</time>
      </trkpt>
      <trkpt lat="46.30443" lon="-1.29351">
        <ele>2.7</ele>
        <time>2021-06-17T09:06:01Z</time>
      </trkpt>
      <trkpt lat="46.30443" lon="-1.29351">
        <ele>2.7</ele>
        <time>2021-06-17T09:06:02Z</time>
      </trkpt>
      <trkpt lat="46.30443" lon="-1.29351">
        <ele>2.7</ele>
        <time>2021-06-17T09:06:03Z</time>
      </trkpt>
      <trkpt lat="46.30443" lon="-1.29351">
        <ele>2.7</ele>
        <time>2021-06-17T09:06:04Z</time>
      </trkpt>
      <trkpt lat="46.30443" lon="-1.29351">
        <ele>2.7</ele>
        <time>2021-06-17T09:06:05Z</time>
      </trkpt>
      <trkpt lat="46.30443" lon="-1.29351">
        <ele>2.7</ele>
        <time>2021-06-17T09:06:06Z</time>
      </trkpt>
      <trkpt lat="46.30443" lon="-1.29351">
        <ele>2.7</ele>
        <time>2021-06-17T09:06:07Z</time>
      </trkpt>
      <trkpt lat="46.30443" lon="-1.29351">
        <ele>2.7</ele>
        <time>2021-06-17T09:06:08Z</time>
      </trkpt>
      <trkpt lat="46.30443" lon="-1.29351">
        <ele>2.7</ele>
        <time>2021-06-17T09:06:09Z</time>
      </trkpt>
      <trkpt lat="46.30443" lon="-1.29351">
        <ele>2.7</ele>
        <time>2021-06-17T09:06:10Z</time>
      </trkpt>
      <trkpt lat="46.30443" lon="-1.29351">
        <ele>2.7</ele>
        <time>2021-06-17T09:06:11Z</time>
      </trkpt>
      <trkpt lat="46.30443" lon="-1.29351">
        <ele>2.7</ele>
        <time>2021-06-17T09:06:12Z</time>
      </trkpt>
      <trkpt lat="46.30443" lon="-1.29352">
        <ele>2.7</ele>
        <time>2021-06-17T09:06:13Z</time>
      </trkpt>
      <trkpt lat="46.30442" lon="-1.29352">
        <ele>2.7</ele>
        <time>2021-06-17T09:06:14Z</time>
      </trkpt>
      <trkpt lat="46.30441" lon="-1.29353">
        <ele>2.7</ele>
        <time>2021-06-17T09:06:15Z</time>
      </trkpt>
      <trkpt lat="46.3044" lon="-1.29354">
        <ele>2.7</ele>
        <time>2021-06-17T09:06:16Z</time>
      </trkpt>
      <trkpt lat="46.30439" lon="-1.29355">
        <ele>2.7</ele>
        <time>2021-06-17T09:06:17Z</time>
      </trkpt>
      <trkpt lat="46.30438" lon="-1.29356">
        <ele>2.7</ele>
        <time>2021-06-17T09:06:18Z</time>
      </trkpt>
      <trkpt lat="46.30437" lon="-1.29357">
        <ele>2.7</ele>
        <time>2021-06-17T09:06:19Z</time>
      </trkpt>
      <trkpt lat="46.30436" lon="-1.29357">
        <ele>2.7</ele>
        <time>2021-06-17T09:06:20Z</time>
      </trkpt>
      <trkpt lat="46.30435" lon="-1.29357">
        <ele>2.7</ele>
        <time>2021-06-17T09:06:21Z</time>
      </trkpt>
      <trkpt lat="46.30434" lon="-1.29357">
        <ele>2.7</ele>
        <time>2021-06-17T09:06:22Z</time>
      </trkpt>
      <trkpt lat="46.30433" lon="-1.29357">
        <ele>2.7</ele>
        <time>2021-06-17T09:06:23Z</time>
      </trkpt>
      <trkpt lat="46.30432" lon="-1.29357">
        <ele>2.7</ele>
        <time>2021-06-17T09:06:24Z</time>
      </trkpt>
      <trkpt lat="46.30431" lon="-1.29358">
        <ele>2.7</ele>
        <time>2021-06-17T09:06:25Z</time>
      </trkpt>
      <trkpt lat="46.3043" lon="-1.29358">
        <ele>2.7</ele>
        <time>2021-06-17T09:06:26Z</time>
      </trkpt>
      <trkpt lat="46.30429" lon="-1.29358">
        <ele>2.7</ele>
        <time>2021-06-17T09:06:27Z</time>
      </trkpt>
      <trkpt lat="46.30428" lon="-1.29359">
        <ele>2.7</ele>
        <time>2021-06-17T09:06:28Z</time>
      </trkpt>
      <trkpt lat="46.30427" lon="-1.29359">
        <ele>2.7</ele>
        <time>2021-06-17T09:06:29Z</time>
      </trkpt>
      <trkpt lat="46.30426" lon="-1.29359">
        <ele>2.7</ele>
        <time>2021-06-17T09:06:30Z</time>
      </trkpt>
      <trkpt lat="46.30425" lon="-1.2936">
        <ele>2.7</ele>
        <time>2021-06-17T09:06:31Z</time>
      </trkpt>
      <trkpt lat="46.30424" lon="-1.2936">
        <ele>2.7</ele>
        <time>2021-06-17T09:06:32Z</time>
      </trkpt>
      <trkpt lat="46.30423" lon="-1.2936">
        <ele>2.7</ele>
        <time>2021-06-17T09:06:33Z</time>
      </trkpt>
      <trkpt lat="46.30422" lon="-1.2936">
        <ele>2.7</ele>
        <time>2021-06-17T09:06:34Z</time>
      </trkpt>
      <trkpt lat="46.30421" lon="-1.29361">
        <ele>2.7</ele>
        <time>2021-06-17T09:06:35Z</time>
      </trkpt>
      <trkpt lat="46.3042" lon="-1.29361">
        <ele>2.7</ele>
        <time>2021-06-17T09:06:36Z</time>
      </trkpt>
      <trkpt lat="46.30419" lon="-1.29361">
        <ele>2.7</ele>
        <time>2021-06-17T09:06:37Z</time>
      </trkpt>
      <trkpt lat="46.30418" lon="-1.29361">
        <ele>2.7</ele>
        <time>2021-06-17T09:06:38Z</time>
      </trkpt>
      <trkpt lat="46.30417" lon="-1.29362">
        <ele>2.7</ele>
        <time>2021-06-17T09:06:39Z</time>
      </trkpt>
      <trkpt lat="46.30416" lon="-1.29362">
        <ele>2.7</ele>
        <time>2021-06-17T09:06:40Z</time>
      </trkpt>
      <trkpt lat="46.30415" lon="-1.29362">
        <ele>2.7</ele>
        <time>2021-06-17T09:06:41Z</time>
      </trkpt>
      <trkpt lat="46.30414" lon="-1.29363">
        <ele>2.7</ele>
        <time>2021-06-17T09:06:42Z</time>
      </trkpt>
      <trkpt lat="46.30413" lon="-1.29364">
        <ele>2.7</ele>
        <time>2021-06-17T09:06:43Z</time>
      </trkpt>
      <trkpt lat="46.30412" lon="-1.29365">
        <ele>2.7</ele>
        <time>2021-06-17T09:06:44Z</time>
      </trkpt>
      <trkpt lat="46.30411" lon="-1.29366">
        <ele>2.7</ele>
        <time>2021-06-17T09:06:45Z</time>
      </trkpt>
      <trkpt lat="46.3041" lon="-1.29367">
        <ele>2.8</ele>
        <time>2021-06-17T09:06:46Z</time>
      </trkpt>
      <trkpt lat="46.3041" lon="-1.29368">
        <ele>2.8</ele>
        <time>2021-06-17T09:06:47Z</time>
      </trkpt>
      <trkpt lat="46.30409" lon="-1.2937">
        <ele>2.8</ele>
        <time>2021-06-17T09:06:48Z</time>
      </trkpt>
      <trkpt lat="46.30409" lon="-1.29371">
        <ele>2.8</ele>
        <time>2021-06-17T09:06:49Z</time>
      </trkpt>
      <trkpt lat="46.30408" lon="-1.29372">
        <ele>2.8</ele>
        <time>2021-06-17T09:06:50Z</time>
      </trkpt>
      <trkpt lat="46.30408" lon="-1.29372">
        <ele>2.8</ele>
        <time>2021-06-17T09:06:51Z</time>
      </trkpt>
      <trkpt lat="46.30408" lon="-1.29373">
        <ele>2.8</ele>
        <time>2021-06-17T09:06:52Z</time>
      </trkpt>
      <trkpt lat="46.30408" lon="-1.29373">
        <ele>2.8</ele>
        <time>2021-06-17T09:06:53Z</time>
      </trkpt>
      <trkpt lat="46.30408" lon="-1.29373">
        <ele>2.8</ele>
        <time>2021-06-17T09:06:54Z</time>
      </trkpt>
      <trkpt lat="46.30408" lon="-1.29373">
        <ele>2.8</ele>
        <time>2021-06-17T09:06:55Z</time>
      </trkpt>
      <trkpt lat="46.30408" lon="-1.29373">
        <ele>2.8</ele>
        <time>2021-06-17T09:06:56Z</time>
      </trkpt>
      <trkpt lat="46.30408" lon="-1.29373">
        <ele>2.8</ele>
        <time>2021-06-17T09:06:57Z</time>
      </trkpt>
      <trkpt lat="46.30408" lon="-1.29374">
        <ele>2.8</ele>
        <time>2021-06-17T09:06:58Z</time>
      </trkpt>
      <trkpt lat="46.30408" lon="-1.29375">
        <ele>2.8</ele>
        <time>2021-06-17T09:06:59Z</time>
      </trkpt>
      <trkpt lat="46.30408" lon="-1.29376">
        <ele>2.8</ele>
        <time>2021-06-17T09:07:00Z</time>
      </trkpt>
      <trkpt lat="46.30408" lon="-1.29378">
        <ele>2.9</ele>
        <time>2021-06-17T09:07:01Z</time>
      </trkpt>
      <trkpt lat="46.30408" lon="-1.2938">
        <ele>2.9</ele>
        <time>2021-06-17T09:07:02Z</time>
      </trkpt>
      <trkpt lat="46.30408" lon="-1.29382">
        <ele>2.9</ele>
        <time>2021-06-17T09:07:03Z</time>
      </trkpt>
      <trkpt lat="46.30407" lon="-1.29383">
        <ele>2.9</ele>
        <time>2021-06-17T09:07:04Z</time>
      </trkpt>
      <trkpt lat="46.30407" lon="-1.29385">
        <ele>2.9</ele>
        <time>2021-06-17T09:07:05Z</time>
      </trkpt>
      <trkpt lat="46.30407" lon="-1.29387">
        <ele>3</ele>
        <time>2021-06-17T09:07:06Z</time>
      </trkpt>
      <trkpt lat="46.30407" lon="-1.29388">
        <ele>3</ele>
        <time>2021-06-17T09:07:07Z</time>
      </trkpt>
      <trkpt lat="46.30407" lon="-1.2939">
        <ele>3</ele>
        <time>2021-06-17T09:07:08Z</time>
      </trkpt>
      <trkpt lat="46.30407" lon="-1.29392">
        <ele>3</ele>
        <time>2021-06-17T09:07:09Z</time>
      </trkpt>
      <trkpt lat="46.30407" lon="-1.29393">
        <ele>3</ele>
        <time>2021-06-17T09:07:10Z</time>
      </trkpt>
      <trkpt lat="46.30407" lon="-1.29395">
        <ele>3.1</ele>
        <time>2021-06-17T09:07:11Z</time>
      </trkpt>
      <trkpt lat="46.30407" lon="-1.29396">
        <ele>3.1</ele>
        <time>2021-06-17T09:07:12Z</time>
      </trkpt>
      <trkpt lat="46.30407" lon="-1.29398">
        <ele>3.1</ele>
        <time>2021-06-17T09:07:13Z</time>
      </trkpt>
      <trkpt lat="46.30407" lon="-1.29399">
        <ele>3.1</ele>
        <time>2021-06-17T09:07:14Z</time>
      </trkpt>
      <trkpt lat="46.30408" lon="-1.294">
        <ele>3.1</ele>
        <time>2021-06-17T09:07:15Z</time>
      </trkpt>
      <trkpt lat="46.30408" lon="-1.29401">
        <ele>3.1</ele>
        <time>2021-06-17T09:07:16Z</time>
      </trkpt>
      <trkpt lat="46.30408" lon="-1.29403">
        <ele>3.1</ele>
        <time>2021-06-17T09:07:17Z</time>
      </trkpt>
      <trkpt lat="46.30407" lon="-1.29404">
        <ele>3.2</ele>
        <time>2021-06-17T09:07:18Z</time>
      </trkpt>
      <trkpt lat="46.30407" lon="-1.29405">
        <ele>3.2</ele>
        <time>2021-06-17T09:07:19Z</time>
      </trkpt>
      <trkpt lat="46.30407" lon="-1.29405">
        <ele>3.2</ele>
        <time>2021-06-17T09:07:20Z</time>
      </trkpt>
      <trkpt lat="46.30406" lon="-1.29406">
        <ele>3.2</ele>
        <time>2021-06-17T09:07:21Z</time>
      </trkpt>
      <trkpt lat="46.30405" lon="-1.29407">
        <ele>3.2</ele>
        <time>2021-06-17T09:07:22Z</time>
      </trkpt>
      <trkpt lat="46.30404" lon="-1.29407">
        <ele>3.2</ele>
        <time>2021-06-17T09:07:23Z</time>
      </trkpt>
      <trkpt lat="46.30403" lon="-1.29408">
        <ele>3.2</ele>
        <time>2021-06-17T09:07:24Z</time>
      </trkpt>
      <trkpt lat="46.30402" lon="-1.29408">
        <ele>3.2</ele>
        <time>2021-06-17T09:07:25Z</time>
      </trkpt>
      <trkpt lat="46.30401" lon="-1.29409">
        <ele>3.2</ele>
        <time>2021-06-17T09:07:26Z</time>
      </trkpt>
      <trkpt lat="46.304" lon="-1.29409">
        <ele>3.2</ele>
        <time>2021-06-17T09:07:27Z</time>
      </trkpt>
      <trkpt lat="46.30399" lon="-1.29409">
        <ele>3.2</ele>
        <time>2021-06-17T09:07:28Z</time>
      </trkpt>
      <trkpt lat="46.30398" lon="-1.2941">
        <ele>3.2</ele>
        <time>2021-06-17T09:07:29Z</time>
      </trkpt>
      <trkpt lat="46.30397" lon="-1.2941">
        <ele>3.2</ele>
        <time>2021-06-17T09:07:30Z</time>
      </trkpt>
      <trkpt lat="46.30396" lon="-1.29411">
        <ele>3.3</ele>
        <time>2021-06-17T09:07:31Z</time>
      </trkpt>
      <trkpt lat="46.30395" lon="-1.29411">
        <ele>3.3</ele>
        <time>2021-06-17T09:07:32Z</time>
      </trkpt>
      <trkpt lat="46.30394" lon="-1.29411">
        <ele>3.3</ele>
        <time>2021-06-17T09:07:33Z</time>
      </trkpt>
      <trkpt lat="46.30393" lon="-1.29412">
        <ele>3.3</ele>
        <time>2021-06-17T09:07:34Z</time>
      </trkpt>
      <trkpt lat="46.30392" lon="-1.29412">
        <ele>3.3</ele>
        <time>2021-06-17T09:07:35Z</time>
      </trkpt>
      <trkpt lat="46.3039" lon="-1.29413">
        <ele>3.3</ele>
        <time>2021-06-17T09:07:36Z</time>
      </trkpt>
      <trkpt lat="46.30389" lon="-1.29413">
        <ele>3.3</ele>
        <time>2021-06-17T09:07:37Z</time>
      </trkpt>
      <trkpt lat="46.30388" lon="-1.29413">
        <ele>3.3</ele>
        <time>2021-06-17T09:07:38Z</time>
      </trkpt>
      <trkpt lat="46.30387" lon="-1.29414">
        <ele>3.3</ele>
        <time>2021-06-17T09:07:39Z</time>
      </trkpt>
      <trkpt lat="46.30386" lon="-1.29414">
        <ele>3.3</ele>
        <time>2021-06-17T09:07:40Z</time>
      </trkpt>
      <trkpt lat="46.30385" lon="-1.29415">
        <ele>3.4</ele>
        <time>2021-06-17T09:07:41Z</time>
      </trkpt>
      <trkpt lat="46.30384" lon="-1.29415">
        <ele>3.4</ele>
        <time>2021-06-17T09:07:42Z</time>
      </trkpt>
      <trkpt lat="46.30383" lon="-1.29415">
        <ele>3.4</ele>
        <time>2021-06-17T09:07:43Z</time>
      </trkpt>
      <trkpt lat="46.30382" lon="-1.29416">
        <ele>3.4</ele>
        <time>2021-06-17T09:07:44Z</time>
      </trkpt>
      <trkpt lat="46.30381" lon="-1.29416">
        <ele>3.4</ele>
        <time>2021-06-17T09:07:45Z</time>
      </trkpt>
      <trkpt lat="46.3038" lon="-1.29416">
        <ele>3.4</ele>
        <time>2021-06-17T09:07:46Z</time>
      </trkpt>
      <trkpt lat="46.30379" lon="-1.29417">
        <ele>3.4</ele>
        <time>2021-06-17T09:07:47Z</time>
      </trkpt>
      <trkpt lat="46.30378" lon="-1.29417">
        <ele>3.5</ele>
        <time>2021-06-17T09:07:48Z</time>
      </trkpt>
      <trkpt lat="46.30377" lon="-1.29418">
        <ele>3.5</ele>
        <time>2021-06-17T09:07:49Z</time>
      </trkpt>
      <trkpt lat="46.30377" lon="-1.29418">
        <ele>3.5</ele>
        <time>2021-06-17T09:07:50Z</time>
      </trkpt>
      <trkpt lat="46.30376" lon="-1.29419">
        <ele>3.5</ele>
        <time>2021-06-17T09:07:51Z</time>
      </trkpt>
      <trkpt lat="46.30375" lon="-1.29419">
        <ele>3.5</ele>
        <time>2021-06-17T09:07:52Z</time>
      </trkpt>
      <trkpt lat="46.30374" lon="-1.2942">
        <ele>3.5</ele>
        <time>2021-06-17T09:07:53Z</time>
      </trkpt>
      <trkpt lat="46.30373" lon="-1.29421">
        <ele>3.6</ele>
        <time>2021-06-17T09:07:54Z</time>
      </trkpt>
      <trkpt lat="46.30372" lon="-1.29421">
        <ele>3.6</ele>
        <time>2021-06-17T09:07:55Z</time>
      </trkpt>
      <trkpt lat="46.30371" lon="-1.29422">
        <ele>3.6</ele>
        <time>2021-06-17T09:07:56Z</time>
      </trkpt>
      <trkpt lat="46.3037" lon="-1.29423">
        <ele>3.6</ele>
        <time>2021-06-17T09:07:57Z</time>
      </trkpt>
      <trkpt lat="46.30369" lon="-1.29424">
        <ele>3.6</ele>
        <time>2021-06-17T09:07:58Z</time>
      </trkpt>
      <trkpt lat="46.30368" lon="-1.29425">
        <ele>3.7</ele>
        <time>2021-06-17T09:07:59Z</time>
      </trkpt>
      <trkpt lat="46.30368" lon="-1.29426">
        <ele>3.7</ele>
        <time>2021-06-17T09:08:00Z</time>
      </trkpt>
      <trkpt lat="46.30367" lon="-1.29427">
        <ele>3.8</ele>
        <time>2021-06-17T09:08:01Z</time>
      </trkpt>
      <trkpt lat="46.30366" lon="-1.29429">
        <ele>3.8</ele>
        <time>2021-06-17T09:08:02Z</time>
      </trkpt>
      <trkpt lat="46.30366" lon="-1.2943">
        <ele>3.8</ele>
        <time>2021-06-17T09:08:03Z</time>
      </trkpt>
      <trkpt lat="46.30366" lon="-1.29431">
        <ele>3.8</ele>
        <time>2021-06-17T09:08:04Z</time>
      </trkpt>
      <trkpt lat="46.30365" lon="-1.29433">
        <ele>3.8</ele>
        <time>2021-06-17T09:08:05Z</time>
      </trkpt>
      <trkpt lat="46.30365" lon="-1.29434">
        <ele>3.8</ele>
        <time>2021-06-17T09:08:06Z</time>
      </trkpt>
      <trkpt lat="46.30365" lon="-1.29436">
        <ele>3.8</ele>
        <time>2021-06-17T09:08:07Z</time>
      </trkpt>
      <trkpt lat="46.30365" lon="-1.29438">
        <ele>3.9</ele>
        <time>2021-06-17T09:08:08Z</time>
      </trkpt>
      <trkpt lat="46.30366" lon="-1.29439">
        <ele>3.9</ele>
        <time>2021-06-17T09:08:09Z</time>
      </trkpt>
      <trkpt lat="46.30366" lon="-1.29441">
        <ele>3.9</ele>
        <time>2021-06-17T09:08:10Z</time>
      </trkpt>
      <trkpt lat="46.30366" lon="-1.29442">
        <ele>3.9</ele>
        <time>2021-06-17T09:08:11Z</time>
      </trkpt>
      <trkpt lat="46.30367" lon="-1.29444">
        <ele>3.9</ele>
        <time>2021-06-17T09:08:12Z</time>
      </trkpt>
      <trkpt lat="46.30367" lon="-1.29445">
        <ele>3.9</ele>
        <time>2021-06-17T09:08:13Z</time>
      </trkpt>
      <trkpt lat="46.30368" lon="-1.29447">
        <ele>3.9</ele>
        <time>2021-06-17T09:08:14Z</time>
      </trkpt>
      <trkpt lat="46.30369" lon="-1.29448">
        <ele>3.9</ele>
        <time>2021-06-17T09:08:15Z</time>
      </trkpt>
      <trkpt lat="46.30369" lon="-1.29449">
        <ele>3.9</ele>
        <time>2021-06-17T09:08:16Z</time>
      </trkpt>
      <trkpt lat="46.3037" lon="-1.2945">
        <ele>3.9</ele>
        <time>2021-06-17T09:08:17Z</time>
      </trkpt>
      <trkpt lat="46.30371" lon="-1.29451">
        <ele>3.9</ele>
        <time>2021-06-17T09:08:18Z</time>
      </trkpt>
      <trkpt lat="46.30372" lon="-1.29452">
        <ele>3.9</ele>
        <time>2021-06-17T09:08:19Z</time>
      </trkpt>
      <trkpt lat="46.30373" lon="-1.29452">
        <ele>3.9</ele>
        <time>2021-06-17T09:08:20Z</time>
      </trkpt>
      <trkpt lat="46.30374" lon="-1.29453">
        <ele>3.9</ele>
        <time>2021-06-17T09:08:21Z</time>
      </trkpt>
      <trkpt lat="46.30375" lon="-1.29454">
        <ele>3.9</ele>
        <time>2021-06-17T09:08:22Z</time>
      </trkpt>
      <trkpt lat="46.30375" lon="-1.29455">
        <ele>3.9</ele>
        <time>2021-06-17T09:08:23Z</time>
      </trkpt>
      <trkpt lat="46.30376" lon="-1.29455">
        <ele>3.9</ele>
        <time>2021-06-17T09:08:24Z</time>
      </trkpt>
      <trkpt lat="46.30377" lon="-1.29456">
        <ele>3.9</ele>
        <time>2021-06-17T09:08:25Z</time>
      </trkpt>
      <trkpt lat="46.30378" lon="-1.29457">
        <ele>3.8</ele>
        <time>2021-06-17T09:08:26Z</time>
      </trkpt>
      <trkpt lat="46.30379" lon="-1.29458">
        <ele>3.8</ele>
        <time>2021-06-17T09:08:27Z</time>
      </trkpt>
      <trkpt lat="46.30379" lon="-1.29459">
        <ele>3.8</ele>
        <time>2021-06-17T09:08:28Z</time>
      </trkpt>
      <trkpt lat="46.3038" lon="-1.2946">
        <ele>3.8</ele>
        <time>2021-06-17T09:08:29Z</time>
      </trkpt>
      <trkpt lat="46.30381" lon="-1.29461">
        <ele>3.7</ele>
        <time>2021-06-17T09:08:30Z</time>
      </trkpt>
      <trkpt lat="46.30381" lon="-1.29463">
        <ele>3.7</ele>
        <time>2021-06-17T09:08:31Z</time>
      </trkpt>
      <trkpt lat="46.30382" lon="-1.29464">
        <ele>3.7</ele>
        <time>2021-06-17T09:08:32Z</time>
      </trkpt>
      <trkpt lat="46.30383" lon="-1.29465">
        <ele>3.6</ele>
        <time>2021-06-17T09:08:33Z</time>
      </trkpt>
      <trkpt lat="46.30383" lon="-1.29466">
        <ele>3.6</ele>
        <time>2021-06-17T09:08:34Z</time>
      </trkpt>
      <trkpt lat="46.30384" lon="-1.29467">
        <ele>3.6</ele>
        <time>2021-06-17T09:08:35Z</time>
      </trkpt>
      <trkpt lat="46.30385" lon="-1.29468">
        <ele>3.5</ele>
        <time>2021-06-17T09:08:36Z</time>
      </trkpt>
      <trkpt lat="46.30386" lon="-1.29469">
        <ele>3.5</ele>
        <time>2021-06-17T09:08:37Z</time>
      </trkpt>
      <trkpt lat="46.30386" lon="-1.2947">
        <ele>3.5</ele>
        <time>2021-06-17T09:08:38Z</time>
      </trkpt>
      <trkpt lat="46.30387" lon="-1.29471">
        <ele>3.5</ele>
        <time>2021-06-17T09:08:39Z</time>
      </trkpt>
      <trkpt lat="46.30388" lon="-1.29471">
        <ele>3.4</ele>
        <time>2021-06-17T09:08:40Z</time>
      </trkpt>
      <trkpt lat="46.30389" lon="-1.29472">
        <ele>3.4</ele>
        <time>2021-06-17T09:08:41Z</time>
      </trkpt>
      <trkpt lat="46.3039" lon="-1.29472">
        <ele>3.4</ele>
        <time>2021-06-17T09:08:42Z</time>
      </trkpt>
      <trkpt lat="46.30391" lon="-1.29473">
        <ele>3.3</ele>
        <time>2021-06-17T09:08:43Z</time>
      </trkpt>
      <trkpt lat="46.30392" lon="-1.29473">
        <ele>3.3</ele>
        <time>2021-06-17T09:08:44Z</time>
      </trkpt>
      <trkpt lat="46.30393" lon="-1.29473">
        <ele>3.3</ele>
        <time>2021-06-17T09:08:45Z</time>
      </trkpt>
      <trkpt lat="46.30394" lon="-1.29474">
        <ele>3.2</ele>
        <time>2021-06-17T09:08:46Z</time>
      </trkpt>
      <trkpt lat="46.30395" lon="-1.29474">
        <ele>3.2</ele>
        <time>2021-06-17T09:08:47Z</time>
      </trkpt>
      <trkpt lat="46.30397" lon="-1.29474">
        <ele>3.2</ele>
        <time>2021-06-17T09:08:48Z</time>
      </trkpt>
      <trkpt lat="46.30398" lon="-1.29475">
        <ele>3.2</ele>
        <time>2021-06-17T09:08:49Z</time>
      </trkpt>
      <trkpt lat="46.30399" lon="-1.29475">
        <ele>3.1</ele>
        <time>2021-06-17T09:08:50Z</time>
      </trkpt>
      <trkpt lat="46.304" lon="-1.29476">
        <ele>3.1</ele>
        <time>2021-06-17T09:08:51Z</time>
      </trkpt>
      <trkpt lat="46.30401" lon="-1.29476">
        <ele>3.1</ele>
        <time>2021-06-17T09:08:52Z</time>
      </trkpt>
      <trkpt lat="46.30402" lon="-1.29477">
        <ele>3.1</ele>
        <time>2021-06-17T09:08:53Z</time>
      </trkpt>
      <trkpt lat="46.30403" lon="-1.29477">
        <ele>3</ele>
        <time>2021-06-17T09:08:54Z</time>
      </trkpt>
      <trkpt lat="46.30404" lon="-1.29478">
        <ele>3</ele>
        <time>2021-06-17T09:08:55Z</time>
      </trkpt>
      <trkpt lat="46.30405" lon="-1.29478">
        <ele>3</ele>
        <time>2021-06-17T09:08:56Z</time>
      </trkpt>
      <trkpt lat="46.30406" lon="-1.29479">
        <ele>3</ele>
        <time>2021-06-17T09:08:57Z</time>
      </trkpt>
      <trkpt lat="46.30407" lon="-1.29479">
        <ele>3</ele>
        <time>2021-06-17T09:08:58Z</time>
      </trkpt>
      <trkpt lat="46.30408" lon="-1.2948">
        <ele>3</ele>
        <time>2021-06-17T09:08:59Z</time>
      </trkpt>
      <trkpt lat="46.30409" lon="-1.2948">
        <ele>3</ele>
        <time>2021-06-17T09:09:00Z</time>
      </trkpt>
      <trkpt lat="46.3041" lon="-1.29481">
        <ele>3</ele>
        <time>2021-06-17T09:09:01Z</time>
      </trkpt>
      <trkpt lat="46.30411" lon="-1.29481">
        <ele>2.9</ele>
        <time>2021-06-17T09:09:02Z</time>
      </trkpt>
      <trkpt lat="46.30412" lon="-1.29482">
        <ele>2.9</ele>
        <time>2021-06-17T09:09:03Z</time>
      </trkpt>
      <trkpt lat="46.30413" lon="-1.29482">
        <ele>2.9</ele>
        <time>2021-06-17T09:09:04Z</time>
      </trkpt>
      <trkpt lat="46.30414" lon="-1.29483">
        <ele>2.9</ele>
        <time>2021-06-17T09:09:05Z</time>
      </trkpt>
      <trkpt lat="46.30415" lon="-1.29483">
        <ele>2.9</ele>
        <time>2021-06-17T09:09:06Z</time>
      </trkpt>
      <trkpt lat="46.30416" lon="-1.29484">
        <ele>2.9</ele>
        <time>2021-06-17T09:09:07Z</time>
      </trkpt>
      <trkpt lat="46.30417" lon="-1.29484">
        <ele>2.9</ele>
        <time>2021-06-17T09:09:08Z</time>
      </trkpt>
      <trkpt lat="46.30418" lon="-1.29485">
        <ele>3</ele>
        <time>2021-06-17T09:09:09Z</time>
      </trkpt>
      <trkpt lat="46.30419" lon="-1.29485">
        <ele>3</ele>
        <time>2021-06-17T09:09:10Z</time>
      </trkpt>
      <trkpt lat="46.3042" lon="-1.29486">
        <ele>3</ele>
        <time>2021-06-17T09:09:11Z</time>
      </trkpt>
      <trkpt lat="46.30421" lon="-1.29486">
        <ele>3</ele>
        <time>2021-06-17T09:09:12Z</time>
      </trkpt>
      <trkpt lat="46.30422" lon="-1.29487">
        <ele>3</ele>
        <time>2021-06-17T09:09:13Z</time>
      </trkpt>
      <trkpt lat="46.30423" lon="-1.29487">
        <ele>3</ele>
        <time>2021-06-17T09:09:14Z</time>
      </trkpt>
      <trkpt lat="46.30424" lon="-1.29488">
        <ele>3</ele>
        <time>2021-06-17T09:09:15Z</time>
      </trkpt>
      <trkpt lat="46.30425" lon="-1.29488">
        <ele>3.1</ele>
        <time>2021-06-17T09:09:16Z</time>
      </trkpt>
      <trkpt lat="46.30426" lon="-1.29488">
        <ele>3.1</ele>
        <time>2021-06-17T09:09:17Z</time>
      </trkpt>
      <trkpt lat="46.30427" lon="-1.29489">
        <ele>3.1</ele>
        <time>2021-06-17T09:09:18Z</time>
      </trkpt>
      <trkpt lat="46.30428" lon="-1.29489">
        <ele>3.2</ele>
        <time>2021-06-17T09:09:19Z</time>
      </trkpt>
      <trkpt lat="46.30429" lon="-1.29489">
        <ele>3.2</ele>
        <time>2021-06-17T09:09:20Z</time>
      </trkpt>
      <trkpt lat="46.3043" lon="-1.29489">
        <ele>3.2</ele>
        <time>2021-06-17T09:09:21Z</time>
      </trkpt>
      <trkpt lat="46.30431" lon="-1.2949">
        <ele>3.2</ele>
        <time>2021-06-17T09:09:22Z</time>
      </trkpt>
      <trkpt lat="46.30432" lon="-1.2949">
        <ele>3.3</ele>
        <time>2021-06-17T09:09:23Z</time>
      </trkpt>
      <trkpt lat="46.30433" lon="-1.29491">
        <ele>3.3</ele>
        <time>2021-06-17T09:09:24Z</time>
      </trkpt>
      <trkpt lat="46.30433" lon="-1.29491">
        <ele>3.3</ele>
        <time>2021-06-17T09:09:25Z</time>
      </trkpt>
      <trkpt lat="46.30434" lon="-1.29492">
        <ele>3.3</ele>
        <time>2021-06-17T09:09:26Z</time>
      </trkpt>
      <trkpt lat="46.30435" lon="-1.29492">
        <ele>3.3</ele>
        <time>2021-06-17T09:09:27Z</time>
      </trkpt>
      <trkpt lat="46.30435" lon="-1.29493">
        <ele>3.3</ele>
        <time>2021-06-17T09:09:28Z</time>
      </trkpt>
      <trkpt lat="46.30436" lon="-1.29493">
        <ele>3.4</ele>
        <time>2021-06-17T09:09:29Z</time>
      </trkpt>
      <trkpt lat="46.30436" lon="-1.29494">
        <ele>3.4</ele>
        <time>2021-06-17T09:09:30Z</time>
      </trkpt>
      <trkpt lat="46.30436" lon="-1.29494">
        <ele>3.4</ele>
        <time>2021-06-17T09:09:31Z</time>
      </trkpt>
      <trkpt lat="46.30437" lon="-1.29494">
        <ele>3.4</ele>
        <time>2021-06-17T09:09:32Z</time>
      </trkpt>
      <trkpt lat="46.30437" lon="-1.29495">
        <ele>3.4</ele>
        <time>2021-06-17T09:09:33Z</time>
      </trkpt>
      <trkpt lat="46.30437" lon="-1.29495">
        <ele>3.4</ele>
        <time>2021-06-17T09:09:34Z</time>
      </trkpt>
      <trkpt lat="46.30437" lon="-1.29495">
        <ele>3.4</ele>
        <time>2021-06-17T09:09:35Z</time>
      </trkpt>
      <trkpt lat="46.30438" lon="-1.29495">
        <ele>3.4</ele>
        <time>2021-06-17T09:09:36Z</time>
      </trkpt>
      <trkpt lat="46.30438" lon="-1.29495">
        <ele>3.4</ele>
        <time>2021-06-17T09:09:37Z</time>
      </trkpt>
      <trkpt lat="46.30438" lon="-1.29495">
        <ele>3.4</ele>
        <time>2021-06-17T09:09:38Z</time>
      </trkpt>
      <trkpt lat="46.30438" lon="-1.29495">
        <ele>3.4</ele>
        <time>2021-06-17T09:09:39Z</time>
      </trkpt>
      <trkpt lat="46.30438" lon="-1.29495">
        <ele>3.4</ele>
        <time>2021-06-17T09:09:40Z</time>
      </trkpt>
      <trkpt lat="46.30438" lon="-1.29495">
        <ele>3.4</ele>
        <time>2021-06-17T09:09:41Z</time>
      </trkpt>
      <trkpt lat="46.30438" lon="-1.29495">
        <ele>3.4</ele>
        <time>2021-06-17T09:09:42Z</time>
      </trkpt>
      <trkpt lat="46.30439" lon="-1.29495">
        <ele>3.4</ele>
        <time>2021-06-17T09:09:43Z</time>
      </trkpt>
      <trkpt lat="46.30439" lon="-1.29496">
        <ele>3.4</ele>
        <time>2021-06-17T09:09:44Z</time>
      </trkpt>
      <trkpt lat="46.30439" lon="-1.29496">
        <ele>3.5</ele>
        <time>2021-06-17T09:09:45Z</time>
      </trkpt>
      <trkpt lat="46.30439" lon="-1.29496">
        <ele>3.5</ele>
        <time>2021-06-17T09:09:46Z</time>
      </trkpt>
      <trkpt lat="46.30439" lon="-1.29496">
        <ele>3.5</ele>
        <time>2021-06-17T09:09:47Z</time>
      </trkpt>
      <trkpt lat="46.30439" lon="-1.29496">
        <ele>3.5</ele>
        <time>2021-06-17T09:09:48Z</time>
      </trkpt>
      <trkpt lat="46.30439" lon="-1.29496">
        <ele>3.5</ele>
        <time>2021-06-17T09:09:49Z</time>
      </trkpt>
      <trkpt lat="46.30439" lon="-1.29496">
        <ele>3.5</ele>
        <time>2021-06-17T09:09:50Z</time>
      </trkpt>
      <trkpt lat="46.30439" lon="-1.29496">
        <ele>3.5</ele>
        <time>2021-06-17T09:09:51Z</time>
      </trkpt>
      <trkpt lat="46.30439" lon="-1.29496">
        <ele>3.5</ele>
        <time>2021-06-17T09:09:52Z</time>
      </trkpt>
      <trkpt lat="46.30439" lon="-1.29496">
        <ele>3.5</ele>
        <time>2021-06-17T09:09:53Z</time>
      </trkpt>
      <trkpt lat="46.30439" lon="-1.29496">
        <ele>3.5</ele>
        <time>2021-06-17T09:09:54Z</time>
      </trkpt>
      <trkpt lat="46.3044" lon="-1.29496">
        <ele>3.5</ele>
        <time>2021-06-17T09:09:55Z</time>
      </trkpt>
      <trkpt lat="46.3044" lon="-1.29496">
        <ele>3.5</ele>
        <time>2021-06-17T09:09:56Z</time>
      </trkpt>
      <trkpt lat="46.3044" lon="-1.29496">
        <ele>3.5</ele>
        <time>2021-06-17T09:09:57Z</time>
      </trkpt>
      <trkpt lat="46.3044" lon="-1.29497">
        <ele>3.5</ele>
        <time>2021-06-17T09:09:58Z</time>
      </trkpt>
      <trkpt lat="46.30441" lon="-1.29497">
        <ele>3.5</ele>
        <time>2021-06-17T09:09:59Z</time>
      </trkpt>
      <trkpt lat="46.30441" lon="-1.29497">
        <ele>3.5</ele>
        <time>2021-06-17T09:10:00Z</time>
      </trkpt>
      <trkpt lat="46.30441" lon="-1.29498">
        <ele>3.5</ele>
        <time>2021-06-17T09:10:01Z</time>
      </trkpt>
      <trkpt lat="46.30441" lon="-1.29498">
        <ele>3.5</ele>
        <time>2021-06-17T09:10:02Z</time>
      </trkpt>
      <trkpt lat="46.30442" lon="-1.29498">
        <ele>3.5</ele>
        <time>2021-06-17T09:10:03Z</time>
      </trkpt>
      <trkpt lat="46.30443" lon="-1.29499">
        <ele>3.5</ele>
        <time>2021-06-17T09:10:04Z</time>
      </trkpt>
      <trkpt lat="46.30443" lon="-1.295">
        <ele>3.5</ele>
        <time>2021-06-17T09:10:05Z</time>
      </trkpt>
      <trkpt lat="46.30444" lon="-1.295">
        <ele>3.5</ele>
        <time>2021-06-17T09:10:06Z</time>
      </trkpt>
      <trkpt lat="46.30445" lon="-1.29501">
        <ele>3.6</ele>
        <time>2021-06-17T09:10:07Z</time>
      </trkpt>
      <trkpt lat="46.30446" lon="-1.29501">
        <ele>3.6</ele>
        <time>2021-06-17T09:10:08Z</time>
      </trkpt>
      <trkpt lat="46.30447" lon="-1.29501">
        <ele>3.6</ele>
        <time>2021-06-17T09:10:09Z</time>
      </trkpt>
      <trkpt lat="46.30448" lon="-1.29501">
        <ele>3.6</ele>
        <time>2021-06-17T09:10:10Z</time>
      </trkpt>
      <trkpt lat="46.30449" lon="-1.29501">
        <ele>3.6</ele>
        <time>2021-06-17T09:10:11Z</time>
      </trkpt>
      <trkpt lat="46.3045" lon="-1.29501">
        <ele>3.6</ele>
        <time>2021-06-17T09:10:12Z</time>
      </trkpt>
      <trkpt lat="46.30451" lon="-1.29501">
        <ele>3.6</ele>
        <time>2021-06-17T09:10:13Z</time>
      </trkpt>
      <trkpt lat="46.30452" lon="-1.29501">
        <ele>3.6</ele>
        <time>2021-06-17T09:10:14Z</time>
      </trkpt>
      <trkpt lat="46.30452" lon="-1.295">
        <ele>3.6</ele>
        <time>2021-06-17T09:10:15Z</time>
      </trkpt>
      <trkpt lat="46.30453" lon="-1.295">
        <ele>3.6</ele>
        <time>2021-06-17T09:10:16Z</time>
      </trkpt>
      <trkpt lat="46.30454" lon="-1.295">
        <ele>3.6</ele>
        <time>2021-06-17T09:10:17Z</time>
      </trkpt>
      <trkpt lat="46.30454" lon="-1.29499">
        <ele>3.6</ele>
        <time>2021-06-17T09:10:18Z</time>
      </trkpt>
      <trkpt lat="46.30455" lon="-1.29499">
        <ele>3.6</ele>
        <time>2021-06-17T09:10:19Z</time>
      </trkpt>
      <trkpt lat="46.30456" lon="-1.29498">
        <ele>3.6</ele>
        <time>2021-06-17T09:10:20Z</time>
      </trkpt>
      <trkpt lat="46.30457" lon="-1.29498">
        <ele>3.6</ele>
        <time>2021-06-17T09:10:21Z</time>
      </trkpt>
      <trkpt lat="46.30457" lon="-1.29497">
        <ele>3.7</ele>
        <time>2021-06-17T09:10:22Z</time>
      </trkpt>
      <trkpt lat="46.30458" lon="-1.29497">
        <ele>3.7</ele>
        <time>2021-06-17T09:10:23Z</time>
      </trkpt>
      <trkpt lat="46.30459" lon="-1.29497">
        <ele>3.7</ele>
        <time>2021-06-17T09:10:24Z</time>
      </trkpt>
      <trkpt lat="46.30459" lon="-1.29497">
        <ele>3.7</ele>
        <time>2021-06-17T09:10:25Z</time>
      </trkpt>
      <trkpt lat="46.30459" lon="-1.29497">
        <ele>3.7</ele>
        <time>2021-06-17T09:10:26Z</time>
      </trkpt>
      <trkpt lat="46.3046" lon="-1.29496">
        <ele>3.7</ele>
        <time>2021-06-17T09:10:27Z</time>
      </trkpt>
      <trkpt lat="46.3046" lon="-1.29496">
        <ele>3.7</ele>
        <time>2021-06-17T09:10:28Z</time>
      </trkpt>
      <trkpt lat="46.3046" lon="-1.29496">
        <ele>3.7</ele>
        <time>2021-06-17T09:10:29Z</time>
      </trkpt>
      <trkpt lat="46.3046" lon="-1.29496">
        <ele>3.7</ele>
        <time>2021-06-17T09:10:30Z</time>
      </trkpt>
      <trkpt lat="46.3046" lon="-1.29496">
        <ele>3.7</ele>
        <time>2021-06-17T09:10:31Z</time>
      </trkpt>
      <trkpt lat="46.3046" lon="-1.29496">
        <ele>3.7</ele>
        <time>2021-06-17T09:10:32Z</time>
      </trkpt>
      <trkpt lat="46.3046" lon="-1.29495">
        <ele>3.7</ele>
        <time>2021-06-17T09:10:33Z</time>
      </trkpt>
      <trkpt lat="46.3046" lon="-1.29494">
        <ele>3.7</ele>
        <time>2021-06-17T09:10:34Z</time>
      </trkpt>
      <trkpt lat="46.30461" lon="-1.29493">
        <ele>3.7</ele>
        <time>2021-06-17T09:10:35Z</time>
      </trkpt>
      <trkpt lat="46.30461" lon="-1.29493">
        <ele>3.7</ele>
        <time>2021-06-17T09:10:36Z</time>
      </trkpt>
      <trkpt lat="46.30461" lon="-1.29492">
        <ele>3.7</ele>
        <time>2021-06-17T09:10:37Z</time>
      </trkpt>
      <trkpt lat="46.30462" lon="-1.29492">
        <ele>3.7</ele>
        <time>2021-06-17T09:10:38Z</time>
      </trkpt>
      <trkpt lat="46.30462" lon="-1.29492">
        <ele>3.7</ele>
        <time>2021-06-17T09:10:39Z</time>
      </trkpt>
      <trkpt lat="46.30462" lon="-1.29492">
        <ele>3.7</ele>
        <time>2021-06-17T09:10:40Z</time>
      </trkpt>
      <trkpt lat="46.30462" lon="-1.29493">
        <ele>3.7</ele>
        <time>2021-06-17T09:10:41Z</time>
      </trkpt>
      <trkpt lat="46.30462" lon="-1.29493">
        <ele>3.7</ele>
        <time>2021-06-17T09:10:42Z</time>
      </trkpt>
      <trkpt lat="46.30462" lon="-1.29493">
        <ele>3.7</ele>
        <time>2021-06-17T09:10:43Z</time>
      </trkpt>
      <trkpt lat="46.30462" lon="-1.29493">
        <ele>3.7</ele>
        <time>2021-06-17T09:10:44Z</time>
      </trkpt>
      <trkpt lat="46.30462" lon="-1.29494">
        <ele>3.7</ele>
        <time>2021-06-17T09:10:45Z</time>
      </trkpt>
      <trkpt lat="46.30462" lon="-1.29494">
        <ele>3.7</ele>
        <time>2021-06-17T09:10:46Z</time>
      </trkpt>
      <trkpt lat="46.30462" lon="-1.29494">
        <ele>3.7</ele>
        <time>2021-06-17T09:10:47Z</time>
      </trkpt>
      <trkpt lat="46.30462" lon="-1.29494">
        <ele>3.7</ele>
        <time>2021-06-17T09:10:48Z</time>
      </trkpt>
      <trkpt lat="46.30462" lon="-1.29494">
        <ele>3.7</ele>
        <time>2021-06-17T09:10:49Z</time>
      </trkpt>
      <trkpt lat="46.30462" lon="-1.29494">
        <ele>3.7</ele>
        <time>2021-06-17T09:10:50Z</time>
      </trkpt>
      <trkpt lat="46.30462" lon="-1.29494">
        <ele>3.7</ele>
        <time>2021-06-17T09:10:51Z</time>
      </trkpt>
      <trkpt lat="46.30462" lon="-1.29494">
        <ele>3.7</ele>
        <time>2021-06-17T09:10:52Z</time>
      </trkpt>
      <trkpt lat="46.30462" lon="-1.29494">
        <ele>3.7</ele>
        <time>2021-06-17T09:10:53Z</time>
      </trkpt>
      <trkpt lat="46.30462" lon="-1.29494">
        <ele>3.7</ele>
        <time>2021-06-17T09:10:54Z</time>
      </trkpt>
      <trkpt lat="46.30462" lon="-1.29494">
        <ele>3.7</ele>
        <time>2021-06-17T09:10:55Z</time>
      </trkpt>
      <trkpt lat="46.30462" lon="-1.29494">
        <ele>3.7</ele>
        <time>2021-06-17T09:10:56Z</time>
      </trkpt>
      <trkpt lat="46.30462" lon="-1.29494">
        <ele>3.7</ele>
        <time>2021-06-17T09:10:57Z</time>
      </trkpt>
      <trkpt lat="46.30462" lon="-1.29494">
        <ele>3.7</ele>
        <time>2021-06-17T09:10:58Z</time>
      </trkpt>
      <trkpt lat="46.30462" lon="-1.29494">
        <ele>3.7</ele>
        <time>2021-06-17T09:10:59Z</time>
      </trkpt>
      <trkpt lat="46.30462" lon="-1.29494">
        <ele>3.7</ele>
        <time>2021-06-17T09:11:00Z</time>
      </trkpt>
      <trkpt lat="46.30462" lon="-1.29494">
        <ele>3.7</ele>
        <time>2021-06-17T09:11:01Z</time>
      </trkpt>
      <trkpt lat="46.30462" lon="-1.29494">
        <ele>3.7</ele>
        <time>2021-06-17T09:11:02Z</time>
      </trkpt>
      <trkpt lat="46.30462" lon="-1.29494">
        <ele>3.7</ele>
        <time>2021-06-17T09:11:03Z</time>
      </trkpt>
      <trkpt lat="46.30462" lon="-1.29494">
        <ele>3.7</ele>
        <time>2021-06-17T09:11:04Z</time>
      </trkpt>
      <trkpt lat="46.30462" lon="-1.29494">
        <ele>3.7</ele>
        <time>2021-06-17T09:11:05Z</time>
      </trkpt>
      <trkpt lat="46.30462" lon="-1.29494">
        <ele>3.7</ele>
        <time>2021-06-17T09:11:06Z</time>
      </trkpt>
      <trkpt lat="46.30462" lon="-1.29494">
        <ele>3.7</ele>
        <time>2021-06-17T09:11:07Z</time>
      </trkpt>
      <trkpt lat="46.30462" lon="-1.29494">
        <ele>3.7</ele>
        <time>2021-06-17T09:11:08Z</time>
      </trkpt>
      <trkpt lat="46.30462" lon="-1.29494">
        <ele>3.7</ele>
        <time>2021-06-17T09:11:09Z</time>
      </trkpt>
      <trkpt lat="46.30462" lon="-1.29494">
        <ele>3.7</ele>
        <time>2021-06-17T09:11:10Z</time>
      </trkpt>
      <trkpt lat="46.30462" lon="-1.29494">
        <ele>3.7</ele>
        <time>2021-06-17T09:11:11Z</time>
      </trkpt>
      <trkpt lat="46.30462" lon="-1.29494">
        <ele>3.7</ele>
        <time>2021-06-17T09:11:12Z</time>
      </trkpt>
      <trkpt lat="46.30462" lon="-1.29494">
        <ele>3.7</ele>
        <time>2021-06-17T09:11:13Z</time>
      </trkpt>
      <trkpt lat="46.30462" lon="-1.29494">
        <ele>3.7</ele>
        <time>2021-06-17T09:11:14Z</time>
      </trkpt>
      <trkpt lat="46.30462" lon="-1.29494">
        <ele>3.7</ele>
        <time>2021-06-17T09:11:15Z</time>
      </trkpt>
      <trkpt lat="46.30462" lon="-1.29494">
        <ele>3.7</ele>
        <time>2021-06-17T09:11:16Z</time>
      </trkpt>
      <trkpt lat="46.30462" lon="-1.29494">
        <ele>3.7</ele>
        <time>2021-06-17T09:11:17Z</time>
      </trkpt>
      <trkpt lat="46.30462" lon="-1.29494">
        <ele>3.7</ele>
        <time>2021-06-17T09:11:18Z</time>
      </trkpt>
      <trkpt lat="46.30462" lon="-1.29494">
        <ele>3.7</ele>
        <time>2021-06-17T09:11:19Z</time>
      </trkpt>
      <trkpt lat="46.30462" lon="-1.29494">
        <ele>3.7</ele>
        <time>2021-06-17T09:11:20Z</time>
      </trkpt>
      <trkpt lat="46.30462" lon="-1.29494">
        <ele>3.7</ele>
        <time>2021-06-17T09:11:21Z</time>
      </trkpt>
      <trkpt lat="46.30462" lon="-1.29494">
        <ele>3.7</ele>
        <time>2021-06-17T09:11:22Z</time>
      </trkpt>
      <trkpt lat="46.30462" lon="-1.29494">
        <ele>3.7</ele>
        <time>2021-06-17T09:11:23Z</time>
      </trkpt>
      <trkpt lat="46.30462" lon="-1.29494">
        <ele>3.7</ele>
        <time>2021-06-17T09:11:24Z</time>
      </trkpt>
      <trkpt lat="46.30462" lon="-1.29494">
        <ele>3.7</ele>
        <time>2021-06-17T09:11:25Z</time>
      </trkpt>
      <trkpt lat="46.30462" lon="-1.29494">
        <ele>3.7</ele>
        <time>2021-06-17T09:11:26Z</time>
      </trkpt>
      <trkpt lat="46.30462" lon="-1.29494">
        <ele>3.7</ele>
        <time>2021-06-17T09:11:27Z</time>
      </trkpt>
      <trkpt lat="46.30462" lon="-1.29495">
        <ele>3.7</ele>
        <time>2021-06-17T09:11:28Z</time>
      </trkpt>
      <trkpt lat="46.30462" lon="-1.29495">
        <ele>3.7</ele>
        <time>2021-06-17T09:11:29Z</time>
      </trkpt>
      <trkpt lat="46.30463" lon="-1.29495">
        <ele>3.7</ele>
        <time>2021-06-17T09:11:30Z</time>
      </trkpt>
      <trkpt lat="46.30463" lon="-1.29495">
        <ele>3.7</ele>
        <time>2021-06-17T09:11:31Z</time>
      </trkpt>
      <trkpt lat="46.30464" lon="-1.29495">
        <ele>3.7</ele>
        <time>2021-06-17T09:11:32Z</time>
      </trkpt>
      <trkpt lat="46.30465" lon="-1.29496">
        <ele>3.7</ele>
        <time>2021-06-17T09:11:33Z</time>
      </trkpt>
      <trkpt lat="46.30466" lon="-1.29497">
        <ele>3.8</ele>
        <time>2021-06-17T09:11:34Z</time>
      </trkpt>
      <trkpt lat="46.30467" lon="-1.29498">
        <ele>3.8</ele>
        <time>2021-06-17T09:11:35Z</time>
      </trkpt>
      <trkpt lat="46.30467" lon="-1.29499">
        <ele>3.8</ele>
        <time>2021-06-17T09:11:36Z</time>
      </trkpt>
      <trkpt lat="46.30467" lon="-1.295">
        <ele>3.8</ele>
        <time>2021-06-17T09:11:37Z</time>
      </trkpt>
      <trkpt lat="46.30468" lon="-1.29502">
        <ele>3.8</ele>
        <time>2021-06-17T09:11:38Z</time>
      </trkpt>
      <trkpt lat="46.30468" lon="-1.29503">
        <ele>3.8</ele>
        <time>2021-06-17T09:11:39Z</time>
      </trkpt>
      <trkpt lat="46.30468" lon="-1.29505">
        <ele>3.8</ele>
        <time>2021-06-17T09:11:40Z</time>
      </trkpt>
      <trkpt lat="46.30468" lon="-1.29507">
        <ele>3.8</ele>
        <time>2021-06-17T09:11:41Z</time>
      </trkpt>
      <trkpt lat="46.30469" lon="-1.29508">
        <ele>3.8</ele>
        <time>2021-06-17T09:11:42Z</time>
      </trkpt>
      <trkpt lat="46.30469" lon="-1.2951">
        <ele>3.8</ele>
        <time>2021-06-17T09:11:43Z</time>
      </trkpt>
      <trkpt lat="46.30469" lon="-1.29512">
        <ele>3.8</ele>
        <time>2021-06-17T09:11:44Z</time>
      </trkpt>
      <trkpt lat="46.30469" lon="-1.29513">
        <ele>3.8</ele>
        <time>2021-06-17T09:11:45Z</time>
      </trkpt>
      <trkpt lat="46.30469" lon="-1.29515">
        <ele>3.8</ele>
        <time>2021-06-17T09:11:46Z</time>
      </trkpt>
      <trkpt lat="46.30469" lon="-1.29516">
        <ele>3.8</ele>
        <time>2021-06-17T09:11:47Z</time>
      </trkpt>
      <trkpt lat="46.30469" lon="-1.29518">
        <ele>3.8</ele>
        <time>2021-06-17T09:11:48Z</time>
      </trkpt>
      <trkpt lat="46.30469" lon="-1.2952">
        <ele>3.8</ele>
        <time>2021-06-17T09:11:49Z</time>
      </trkpt>
      <trkpt lat="46.30469" lon="-1.29521">
        <ele>3.8</ele>
        <time>2021-06-17T09:11:50Z</time>
      </trkpt>
      <trkpt lat="46.30469" lon="-1.29523">
        <ele>3.8</ele>
        <time>2021-06-17T09:11:51Z</time>
      </trkpt>
      <trkpt lat="46.30468" lon="-1.29524">
        <ele>3.8</ele>
        <time>2021-06-17T09:11:52Z</time>
      </trkpt>
      <trkpt lat="46.30468" lon="-1.29525">
        <ele>3.8</ele>
        <time>2021-06-17T09:11:53Z</time>
      </trkpt>
      <trkpt lat="46.30468" lon="-1.29527">
        <ele>3.8</ele>
        <time>2021-06-17T09:11:54Z</time>
      </trkpt>
      <trkpt lat="46.30467" lon="-1.29528">
        <ele>3.8</ele>
        <time>2021-06-17T09:11:55Z</time>
      </trkpt>
      <trkpt lat="46.30467" lon="-1.29529">
        <ele>3.8</ele>
        <time>2021-06-17T09:11:56Z</time>
      </trkpt>
      <trkpt lat="46.30466" lon="-1.29531">
        <ele>3.8</ele>
        <time>2021-06-17T09:11:57Z</time>
      </trkpt>
      <trkpt lat="46.30466" lon="-1.29532">
        <ele>3.8</ele>
        <time>2021-06-17T09:11:58Z</time>
      </trkpt>
      <trkpt lat="46.30465" lon="-1.29533">
        <ele>3.8</ele>
        <time>2021-06-17T09:11:59Z</time>
      </trkpt>
      <trkpt lat="46.30465" lon="-1.29534">
        <ele>3.8</ele>
        <time>2021-06-17T09:12:00Z</time>
      </trkpt>
      <trkpt lat="46.30464" lon="-1.29535">
        <ele>3.8</ele>
        <time>2021-06-17T09:12:01Z</time>
      </trkpt>
      <trkpt lat="46.30464" lon="-1.29536">
        <ele>3.8</ele>
        <time>2021-06-17T09:12:02Z</time>
      </trkpt>
      <trkpt lat="46.30463" lon="-1.29538">
        <ele>3.8</ele>
        <time>2021-06-17T09:12:03Z</time>
      </trkpt>
      <trkpt lat="46.30463" lon="-1.29539">
        <ele>3.8</ele>
        <time>2021-06-17T09:12:04Z</time>
      </trkpt>
      <trkpt lat="46.30462" lon="-1.2954">
        <ele>3.8</ele>
        <time>2021-06-17T09:12:05Z</time>
      </trkpt>
      <trkpt lat="46.30462" lon="-1.29541">
        <ele>3.8</ele>
        <time>2021-06-17T09:12:06Z</time>
      </trkpt>
      <trkpt lat="46.30461" lon="-1.29542">
        <ele>3.8</ele>
        <time>2021-06-17T09:12:07Z</time>
      </trkpt>
      <trkpt lat="46.30461" lon="-1.29543">
        <ele>3.8</ele>
        <time>2021-06-17T09:12:08Z</time>
      </trkpt>
      <trkpt lat="46.3046" lon="-1.29545">
        <ele>3.8</ele>
        <time>2021-06-17T09:12:09Z</time>
      </trkpt>
      <trkpt lat="46.3046" lon="-1.29546">
        <ele>3.8</ele>
        <time>2021-06-17T09:12:10Z</time>
      </trkpt>
      <trkpt lat="46.30459" lon="-1.29547">
        <ele>3.8</ele>
        <time>2021-06-17T09:12:11Z</time>
      </trkpt>
      <trkpt lat="46.30459" lon="-1.29548">
        <ele>3.8</ele>
        <time>2021-06-17T09:12:12Z</time>
      </trkpt>
      <trkpt lat="46.30459" lon="-1.2955">
        <ele>3.8</ele>
        <time>2021-06-17T09:12:13Z</time>
      </trkpt>
      <trkpt lat="46.30458" lon="-1.29551">
        <ele>3.8</ele>
        <time>2021-06-17T09:12:14Z</time>
      </trkpt>
      <trkpt lat="46.30458" lon="-1.29553">
        <ele>3.8</ele>
        <time>2021-06-17T09:12:15Z</time>
      </trkpt>
      <trkpt lat="46.30458" lon="-1.29554">
        <ele>3.8</ele>
        <time>2021-06-17T09:12:16Z</time>
      </trkpt>
      <trkpt lat="46.30457" lon="-1.29556">
        <ele>3.8</ele>
        <time>2021-06-17T09:12:17Z</time>
      </trkpt>
      <trkpt lat="46.30457" lon="-1.29557">
        <ele>3.8</ele>
        <time>2021-06-17T09:12:18Z</time>
      </trkpt>
      <trkpt lat="46.30457" lon="-1.29559">
        <ele>3.8</ele>
        <time>2021-06-17T09:12:19Z</time>
      </trkpt>
      <trkpt lat="46.30456" lon="-1.2956">
        <ele>3.8</ele>
        <time>2021-06-17T09:12:20Z</time>
      </trkpt>
      <trkpt lat="46.30456" lon="-1.29562">
        <ele>3.8</ele>
        <time>2021-06-17T09:12:21Z</time>
      </trkpt>
      <trkpt lat="46.30456" lon="-1.29564">
        <ele>3.8</ele>
        <time>2021-06-17T09:12:22Z</time>
      </trkpt>
      <trkpt lat="46.30455" lon="-1.29565">
        <ele>3.8</ele>
        <time>2021-06-17T09:12:23Z</time>
      </trkpt>
      <trkpt lat="46.30455" lon="-1.29567">
        <ele>3.8</ele>
        <time>2021-06-17T09:12:24Z</time>
      </trkpt>
      <trkpt lat="46.30455" lon="-1.29568">
        <ele>3.8</ele>
        <time>2021-06-17T09:12:25Z</time>
      </trkpt>
      <trkpt lat="46.30454" lon="-1.2957">
        <ele>3.8</ele>
        <time>2021-06-17T09:12:26Z</time>
      </trkpt>
      <trkpt lat="46.30454" lon="-1.29571">
        <ele>3.9</ele>
        <time>2021-06-17T09:12:27Z</time>
      </trkpt>
      <trkpt lat="46.30453" lon="-1.29572">
        <ele>3.9</ele>
        <time>2021-06-17T09:12:28Z</time>
      </trkpt>
      <trkpt lat="46.30453" lon="-1.29574">
        <ele>3.9</ele>
        <time>2021-06-17T09:12:29Z</time>
      </trkpt>
      <trkpt lat="46.30453" lon="-1.29575">
        <ele>3.9</ele>
        <time>2021-06-17T09:12:30Z</time>
      </trkpt>
      <trkpt lat="46.30452" lon="-1.29577">
        <ele>3.9</ele>
        <time>2021-06-17T09:12:31Z</time>
      </trkpt>
      <trkpt lat="46.30452" lon="-1.29578">
        <ele>3.9</ele>
        <time>2021-06-17T09:12:32Z</time>
      </trkpt>
      <trkpt lat="46.30451" lon="-1.29579">
        <ele>3.9</ele>
        <time>2021-06-17T09:12:33Z</time>
      </trkpt>
      <trkpt lat="46.30451" lon="-1.29581">
        <ele>3.9</ele>
        <time>2021-06-17T09:12:34Z</time>
      </trkpt>
      <trkpt lat="46.30451" lon="-1.29582">
        <ele>3.9</ele>
        <time>2021-06-17T09:12:35Z</time>
      </trkpt>
      <trkpt lat="46.30451" lon="-1.29584">
        <ele>3.9</ele>
        <time>2021-06-17T09:12:36Z</time>
      </trkpt>
      <trkpt lat="46.3045" lon="-1.29585">
        <ele>3.9</ele>
        <time>2021-06-17T09:12:37Z</time>
      </trkpt>
      <trkpt lat="46.3045" lon="-1.29587">
        <ele>3.9</ele>
        <time>2021-06-17T09:12:38Z</time>
      </trkpt>
      <trkpt lat="46.3045" lon="-1.29589">
        <ele>3.9</ele>
        <time>2021-06-17T09:12:39Z</time>
      </trkpt>
      <trkpt lat="46.3045" lon="-1.2959">
        <ele>3.9</ele>
        <time>2021-06-17T09:12:40Z</time>
      </trkpt>
      <trkpt lat="46.3045" lon="-1.29592">
        <ele>3.9</ele>
        <time>2021-06-17T09:12:41Z</time>
      </trkpt>
      <trkpt lat="46.3045" lon="-1.29594">
        <ele>3.9</ele>
        <time>2021-06-17T09:12:42Z</time>
      </trkpt>
      <trkpt lat="46.30449" lon="-1.29596">
        <ele>3.9</ele>
        <time>2021-06-17T09:12:43Z</time>
      </trkpt>
      <trkpt lat="46.30449" lon="-1.29598">
        <ele>3.9</ele>
        <time>2021-06-17T09:12:44Z</time>
      </trkpt>
      <trkpt lat="46.30449" lon="-1.296">
        <ele>3.9</ele>
        <time>2021-06-17T09:12:45Z</time>
      </trkpt>
      <trkpt lat="46.30448" lon="-1.29602">
        <ele>3.9</ele>
        <time>2021-06-17T09:12:46Z</time>
      </trkpt>
      <trkpt lat="46.30448" lon="-1.29604">
        <ele>3.9</ele>
        <time>2021-06-17T09:12:47Z</time>
      </trkpt>
      <trkpt lat="46.30448" lon="-1.29605">
        <ele>3.9</ele>
        <time>2021-06-17T09:12:48Z</time>
      </trkpt>
      <trkpt lat="46.30447" lon="-1.29607">
        <ele>3.9</ele>
        <time>2021-06-17T09:12:49Z</time>
      </trkpt>
      <trkpt lat="46.30447" lon="-1.29609">
        <ele>3.9</ele>
        <time>2021-06-17T09:12:50Z</time>
      </trkpt>
      <trkpt lat="46.30446" lon="-1.29611">
        <ele>3.9</ele>
        <time>2021-06-17T09:12:51Z</time>
      </trkpt>
      <trkpt lat="46.30446" lon="-1.29612">
        <ele>3.9</ele>
        <time>2021-06-17T09:12:52Z</time>
      </trkpt>
      <trkpt lat="46.30446" lon="-1.29614">
        <ele>3.9</ele>
        <time>2021-06-17T09:12:53Z</time>
      </trkpt>
      <trkpt lat="46.30445" lon="-1.29616">
        <ele>3.9</ele>
        <time>2021-06-17T09:12:54Z</time>
      </trkpt>
      <trkpt lat="46.30445" lon="-1.29617">
        <ele>3.9</ele>
        <time>2021-06-17T09:12:55Z</time>
      </trkpt>
      <trkpt lat="46.30445" lon="-1.29618">
        <ele>3.9</ele>
        <time>2021-06-17T09:12:56Z</time>
      </trkpt>
      <trkpt lat="46.30445" lon="-1.29619">
        <ele>3.9</ele>
        <time>2021-06-17T09:12:57Z</time>
      </trkpt>
      <trkpt lat="46.30444" lon="-1.29621">
        <ele>3.9</ele>
        <time>2021-06-17T09:12:58Z</time>
      </trkpt>
      <trkpt lat="46.30444" lon="-1.29622">
        <ele>3.9</ele>
        <time>2021-06-17T09:12:59Z</time>
      </trkpt>
      <trkpt lat="46.30444" lon="-1.29624">
        <ele>3.9</ele>
        <time>2021-06-17T09:13:00Z</time>
      </trkpt>
      <trkpt lat="46.30444" lon="-1.29625">
        <ele>3.9</ele>
        <time>2021-06-17T09:13:01Z</time>
      </trkpt>
      <trkpt lat="46.30444" lon="-1.29626">
        <ele>3.9</ele>
        <time>2021-06-17T09:13:02Z</time>
      </trkpt>
      <trkpt lat="46.30444" lon="-1.29628">
        <ele>3.9</ele>
        <time>2021-06-17T09:13:03Z</time>
      </trkpt>
      <trkpt lat="46.30444" lon="-1.2963">
        <ele>3.9</ele>
        <time>2021-06-17T09:13:04Z</time>
      </trkpt>
      <trkpt lat="46.30444" lon="-1.29631">
        <ele>3.9</ele>
        <time>2021-06-17T09:13:05Z</time>
      </trkpt>
      <trkpt lat="46.30444" lon="-1.29633">
        <ele>3.9</ele>
        <time>2021-06-17T09:13:06Z</time>
      </trkpt>
      <trkpt lat="46.30444" lon="-1.29635">
        <ele>3.9</ele>
        <time>2021-06-17T09:13:07Z</time>
      </trkpt>
      <trkpt lat="46.30444" lon="-1.29636">
        <ele>3.9</ele>
        <time>2021-06-17T09:13:08Z</time>
      </trkpt>
      <trkpt lat="46.30443" lon="-1.29638">
        <ele>3.9</ele>
        <time>2021-06-17T09:13:09Z</time>
      </trkpt>
      <trkpt lat="46.30443" lon="-1.2964">
        <ele>3.9</ele>
        <time>2021-06-17T09:13:10Z</time>
      </trkpt>
      <trkpt lat="46.30443" lon="-1.29642">
        <ele>3.9</ele>
        <time>2021-06-17T09:13:11Z</time>
      </trkpt>
      <trkpt lat="46.30443" lon="-1.29643">
        <ele>3.9</ele>
        <time>2021-06-17T09:13:12Z</time>
      </trkpt>
      <trkpt lat="46.30443" lon="-1.29645">
        <ele>4</ele>
        <time>2021-06-17T09:13:13Z</time>
      </trkpt>
      <trkpt lat="46.30443" lon="-1.29647">
        <ele>4</ele>
        <time>2021-06-17T09:13:14Z</time>
      </trkpt>
      <trkpt lat="46.30442" lon="-1.29649">
        <ele>4</ele>
        <time>2021-06-17T09:13:15Z</time>
      </trkpt>
      <trkpt lat="46.30442" lon="-1.29651">
        <ele>4</ele>
        <time>2021-06-17T09:13:16Z</time>
      </trkpt>
      <trkpt lat="46.30442" lon="-1.29653">
        <ele>4</ele>
        <time>2021-06-17T09:13:17Z</time>
      </trkpt>
      <trkpt lat="46.30442" lon="-1.29654">
        <ele>4</ele>
        <time>2021-06-17T09:13:18Z</time>
      </trkpt>
      <trkpt lat="46.30442" lon="-1.29656">
        <ele>4</ele>
        <time>2021-06-17T09:13:19Z</time>
      </trkpt>
      <trkpt lat="46.30441" lon="-1.29658">
        <ele>4</ele>
        <time>2021-06-17T09:13:20Z</time>
      </trkpt>
      <trkpt lat="46.30441" lon="-1.2966">
        <ele>4</ele>
        <time>2021-06-17T09:13:21Z</time>
      </trkpt>
      <trkpt lat="46.30441" lon="-1.29662">
        <ele>4</ele>
        <time>2021-06-17T09:13:22Z</time>
      </trkpt>
      <trkpt lat="46.3044" lon="-1.29663">
        <ele>4</ele>
        <time>2021-06-17T09:13:23Z</time>
      </trkpt>
      <trkpt lat="46.3044" lon="-1.29665">
        <ele>4</ele>
        <time>2021-06-17T09:13:24Z</time>
      </trkpt>
      <trkpt lat="46.3044" lon="-1.29667">
        <ele>4</ele>
        <time>2021-06-17T09:13:25Z</time>
      </trkpt>
      <trkpt lat="46.3044" lon="-1.29668">
        <ele>4</ele>
        <time>2021-06-17T09:13:26Z</time>
      </trkpt>
      <trkpt lat="46.30439" lon="-1.2967">
        <ele>4</ele>
        <time>2021-06-17T09:13:27Z</time>
      </trkpt>
      <trkpt lat="46.30439" lon="-1.29672">
        <ele>4</ele>
        <time>2021-06-17T09:13:28Z</time>
      </trkpt>
      <trkpt lat="46.30439" lon="-1.29674">
        <ele>4</ele>
        <time>2021-06-17T09:13:29Z</time>
      </trkpt>
      <trkpt lat="46.30438" lon="-1.29675">
        <ele>4</ele>
        <time>2021-06-17T09:13:30Z</time>
      </trkpt>
      <trkpt lat="46.30438" lon="-1.29677">
        <ele>4</ele>
        <time>2021-06-17T09:13:31Z</time>
      </trkpt>
      <trkpt lat="46.30438" lon="-1.29679">
        <ele>4</ele>
        <time>2021-06-17T09:13:32Z</time>
      </trkpt>
      <trkpt lat="46.30438" lon="-1.2968">
        <ele>4</ele>
        <time>2021-06-17T09:13:33Z</time>
      </trkpt>
      <trkpt lat="46.30437" lon="-1.29682">
        <ele>4</ele>
        <time>2021-06-17T09:13:34Z</time>
      </trkpt>
      <trkpt lat="46.30437" lon="-1.29684">
        <ele>4</ele>
        <time>2021-06-17T09:13:35Z</time>
      </trkpt>
      <trkpt lat="46.30437" lon="-1.29685">
        <ele>4</ele>
        <time>2021-06-17T09:13:36Z</time>
      </trkpt>
      <trkpt lat="46.30436" lon="-1.29687">
        <ele>4</ele>
        <time>2021-06-17T09:13:37Z</time>
      </trkpt>
      <trkpt lat="46.30436" lon="-1.29689">
        <ele>4</ele>
        <time>2021-06-17T09:13:38Z</time>
      </trkpt>
      <trkpt lat="46.30436" lon="-1.2969">
        <ele>4</ele>
        <time>2021-06-17T09:13:39Z</time>
      </trkpt>
      <trkpt lat="46.30436" lon="-1.29692">
        <ele>4</ele>
        <time>2021-06-17T09:13:40Z</time>
      </trkpt>
      <trkpt lat="46.30435" lon="-1.29694">
        <ele>4</ele>
        <time>2021-06-17T09:13:41Z</time>
      </trkpt>
      <trkpt lat="46.30435" lon="-1.29696">
        <ele>4</ele>
        <time>2021-06-17T09:13:42Z</time>
      </trkpt>
      <trkpt lat="46.30435" lon="-1.29697">
        <ele>4</ele>
        <time>2021-06-17T09:13:43Z</time>
      </trkpt>
      <trkpt lat="46.30435" lon="-1.29699">
        <ele>4</ele>
        <time>2021-06-17T09:13:44Z</time>
      </trkpt>
      <trkpt lat="46.30434" lon="-1.29701">
        <ele>4</ele>
        <time>2021-06-17T09:13:45Z</time>
      </trkpt>
      <trkpt lat="46.30434" lon="-1.29702">
        <ele>4</ele>
        <time>2021-06-17T09:13:46Z</time>
      </trkpt>
      <trkpt lat="46.30434" lon="-1.29704">
        <ele>3.9</ele>
        <time>2021-06-17T09:13:47Z</time>
      </trkpt>
      <trkpt lat="46.30434" lon="-1.29706">
        <ele>3.9</ele>
        <time>2021-06-17T09:13:48Z</time>
      </trkpt>
      <trkpt lat="46.30434" lon="-1.29708">
        <ele>3.9</ele>
        <time>2021-06-17T09:13:49Z</time>
      </trkpt>
      <trkpt lat="46.30434" lon="-1.2971">
        <ele>3.9</ele>
        <time>2021-06-17T09:13:50Z</time>
      </trkpt>
      <trkpt lat="46.30433" lon="-1.29711">
        <ele>3.9</ele>
        <time>2021-06-17T09:13:51Z</time>
      </trkpt>
      <trkpt lat="46.30433" lon="-1.29713">
        <ele>3.9</ele>
        <time>2021-06-17T09:13:52Z</time>
      </trkpt>
      <trkpt lat="46.30433" lon="-1.29715">
        <ele>3.9</ele>
        <time>2021-06-17T09:13:53Z</time>
      </trkpt>
      <trkpt lat="46.30433" lon="-1.29716">
        <ele>3.9</ele>
        <time>2021-06-17T09:13:54Z</time>
      </trkpt>
      <trkpt lat="46.30433" lon="-1.29718">
        <ele>3.9</ele>
        <time>2021-06-17T09:13:55Z</time>
      </trkpt>
      <trkpt lat="46.30433" lon="-1.2972">
        <ele>3.9</ele>
        <time>2021-06-17T09:13:56Z</time>
      </trkpt>
      <trkpt lat="46.30433" lon="-1.29721">
        <ele>3.9</ele>
        <time>2021-06-17T09:13:57Z</time>
      </trkpt>
      <trkpt lat="46.30433" lon="-1.29723">
        <ele>3.9</ele>
        <time>2021-06-17T09:13:58Z</time>
      </trkpt>
      <trkpt lat="46.30433" lon="-1.29724">
        <ele>3.9</ele>
        <time>2021-06-17T09:13:59Z</time>
      </trkpt>
      <trkpt lat="46.30433" lon="-1.29726">
        <ele>3.9</ele>
        <time>2021-06-17T09:14:00Z</time>
      </trkpt>
      <trkpt lat="46.30433" lon="-1.29727">
        <ele>3.9</ele>
        <time>2021-06-17T09:14:01Z</time>
      </trkpt>
      <trkpt lat="46.30433" lon="-1.29729">
        <ele>3.9</ele>
        <time>2021-06-17T09:14:02Z</time>
      </trkpt>
      <trkpt lat="46.30433" lon="-1.29731">
        <ele>3.9</ele>
        <time>2021-06-17T09:14:03Z</time>
      </trkpt>
      <trkpt lat="46.30432" lon="-1.29732">
        <ele>3.9</ele>
        <time>2021-06-17T09:14:04Z</time>
      </trkpt>
      <trkpt lat="46.30432" lon="-1.29734">
        <ele>3.9</ele>
        <time>2021-06-17T09:14:05Z</time>
      </trkpt>
      <trkpt lat="46.30432" lon="-1.29735">
        <ele>3.9</ele>
        <time>2021-06-17T09:14:06Z</time>
      </trkpt>
      <trkpt lat="46.30432" lon="-1.29737">
        <ele>3.9</ele>
        <time>2021-06-17T09:14:07Z</time>
      </trkpt>
      <trkpt lat="46.30432" lon="-1.29738">
        <ele>3.9</ele>
        <time>2021-06-17T09:14:08Z</time>
      </trkpt>
      <trkpt lat="46.30432" lon="-1.2974">
        <ele>3.9</ele>
        <time>2021-06-17T09:14:09Z</time>
      </trkpt>
      <trkpt lat="46.30432" lon="-1.29742">
        <ele>3.9</ele>
        <time>2021-06-17T09:14:10Z</time>
      </trkpt>
      <trkpt lat="46.30431" lon="-1.29743">
        <ele>3.9</ele>
        <time>2021-06-17T09:14:11Z</time>
      </trkpt>
      <trkpt lat="46.30431" lon="-1.29745">
        <ele>3.9</ele>
        <time>2021-06-17T09:14:12Z</time>
      </trkpt>
      <trkpt lat="46.30431" lon="-1.29747">
        <ele>3.9</ele>
        <time>2021-06-17T09:14:13Z</time>
      </trkpt>
      <trkpt lat="46.30431" lon="-1.29748">
        <ele>3.9</ele>
        <time>2021-06-17T09:14:14Z</time>
      </trkpt>
      <trkpt lat="46.3043" lon="-1.2975">
        <ele>3.9</ele>
        <time>2021-06-17T09:14:15Z</time>
      </trkpt>
      <trkpt lat="46.3043" lon="-1.29751">
        <ele>4</ele>
        <time>2021-06-17T09:14:16Z</time>
      </trkpt>
      <trkpt lat="46.3043" lon="-1.29753">
        <ele>4</ele>
        <time>2021-06-17T09:14:17Z</time>
      </trkpt>
      <trkpt lat="46.30429" lon="-1.29754">
        <ele>4</ele>
        <time>2021-06-17T09:14:18Z</time>
      </trkpt>
      <trkpt lat="46.30429" lon="-1.29756">
        <ele>4</ele>
        <time>2021-06-17T09:14:19Z</time>
      </trkpt>
      <trkpt lat="46.30429" lon="-1.29757">
        <ele>4</ele>
        <time>2021-06-17T09:14:20Z</time>
      </trkpt>
      <trkpt lat="46.30428" lon="-1.29758">
        <ele>4</ele>
        <time>2021-06-17T09:14:21Z</time>
      </trkpt>
      <trkpt lat="46.30428" lon="-1.2976">
        <ele>4</ele>
        <time>2021-06-17T09:14:22Z</time>
      </trkpt>
      <trkpt lat="46.30427" lon="-1.29761">
        <ele>4</ele>
        <time>2021-06-17T09:14:23Z</time>
      </trkpt>
      <trkpt lat="46.30427" lon="-1.29762">
        <ele>4</ele>
        <time>2021-06-17T09:14:24Z</time>
      </trkpt>
      <trkpt lat="46.30427" lon="-1.29763">
        <ele>4</ele>
        <time>2021-06-17T09:14:25Z</time>
      </trkpt>
      <trkpt lat="46.30426" lon="-1.29765">
        <ele>4</ele>
        <time>2021-06-17T09:14:26Z</time>
      </trkpt>
      <trkpt lat="46.30426" lon="-1.29766">
        <ele>4</ele>
        <time>2021-06-17T09:14:27Z</time>
      </trkpt>
      <trkpt lat="46.30426" lon="-1.29767">
        <ele>4</ele>
        <time>2021-06-17T09:14:28Z</time>
      </trkpt>
      <trkpt lat="46.30425" lon="-1.29769">
        <ele>4</ele>
        <time>2021-06-17T09:14:29Z</time>
      </trkpt>
      <trkpt lat="46.30425" lon="-1.2977">
        <ele>4</ele>
        <time>2021-06-17T09:14:30Z</time>
      </trkpt>
      <trkpt lat="46.30425" lon="-1.29771">
        <ele>4</ele>
        <time>2021-06-17T09:14:31Z</time>
      </trkpt>
      <trkpt lat="46.30425" lon="-1.29773">
        <ele>4</ele>
        <time>2021-06-17T09:14:32Z</time>
      </trkpt>
      <trkpt lat="46.30425" lon="-1.29774">
        <ele>4</ele>
        <time>2021-06-17T09:14:33Z</time>
      </trkpt>
      <trkpt lat="46.30425" lon="-1.29774">
        <ele>4.1</ele>
        <time>2021-06-17T09:14:34Z</time>
      </trkpt>
      <trkpt lat="46.30424" lon="-1.29775">
        <ele>4.1</ele>
        <time>2021-06-17T09:14:35Z</time>
      </trkpt>
      <trkpt lat="46.30424" lon="-1.29775">
        <ele>4.1</ele>
        <time>2021-06-17T09:14:36Z</time>
      </trkpt>
      <trkpt lat="46.30424" lon="-1.29775">
        <ele>4.1</ele>
        <time>2021-06-17T09:14:37Z</time>
      </trkpt>
      <trkpt lat="46.30424" lon="-1.29775">
        <ele>4.1</ele>
        <time>2021-06-17T09:14:38Z</time>
      </trkpt>
      <trkpt lat="46.30424" lon="-1.29775">
        <ele>4.1</ele>
        <time>2021-06-17T09:14:39Z</time>
      </trkpt>
      <trkpt lat="46.30424" lon="-1.29777">
        <ele>4.1</ele>
        <time>2021-06-17T09:14:40Z</time>
      </trkpt>
      <trkpt lat="46.30424" lon="-1.29778">
        <ele>4.1</ele>
        <time>2021-06-17T09:14:41Z</time>
      </trkpt>
      <trkpt lat="46.30423" lon="-1.2978">
        <ele>4.1</ele>
        <time>2021-06-17T09:14:42Z</time>
      </trkpt>
      <trkpt lat="46.30423" lon="-1.29781">
        <ele>4.1</ele>
        <time>2021-06-17T09:14:43Z</time>
      </trkpt>
      <trkpt lat="46.30423" lon="-1.29783">
        <ele>4.1</ele>
        <time>2021-06-17T09:14:44Z</time>
      </trkpt>
      <trkpt lat="46.30422" lon="-1.29785">
        <ele>4.2</ele>
        <time>2021-06-17T09:14:45Z</time>
      </trkpt>
      <trkpt lat="46.30422" lon="-1.29787">
        <ele>4.2</ele>
        <time>2021-06-17T09:14:46Z</time>
      </trkpt>
      <trkpt lat="46.30422" lon="-1.29789">
        <ele>4.2</ele>
        <time>2021-06-17T09:14:47Z</time>
      </trkpt>
      <trkpt lat="46.30421" lon="-1.2979">
        <ele>4.2</ele>
        <time>2021-06-17T09:14:48Z</time>
      </trkpt>
      <trkpt lat="46.30421" lon="-1.29792">
        <ele>4.2</ele>
        <time>2021-06-17T09:14:49Z</time>
      </trkpt>
      <trkpt lat="46.30422" lon="-1.29794">
        <ele>4.2</ele>
        <time>2021-06-17T09:14:50Z</time>
      </trkpt>
      <trkpt lat="46.30422" lon="-1.29795">
        <ele>4.2</ele>
        <time>2021-06-17T09:14:51Z</time>
      </trkpt>
      <trkpt lat="46.30422" lon="-1.29797">
        <ele>4.3</ele>
        <time>2021-06-17T09:14:52Z</time>
      </trkpt>
      <trkpt lat="46.30422" lon="-1.29798">
        <ele>4.3</ele>
        <time>2021-06-17T09:14:53Z</time>
      </trkpt>
      <trkpt lat="46.30423" lon="-1.29799">
        <ele>4.3</ele>
        <time>2021-06-17T09:14:54Z</time>
      </trkpt>
      <trkpt lat="46.30423" lon="-1.29801">
        <ele>4.3</ele>
        <time>2021-06-17T09:14:55Z</time>
      </trkpt>
      <trkpt lat="46.30423" lon="-1.29802">
        <ele>4.3</ele>
        <time>2021-06-17T09:14:56Z</time>
      </trkpt>
      <trkpt lat="46.30424" lon="-1.29803">
        <ele>4.3</ele>
        <time>2021-06-17T09:14:57Z</time>
      </trkpt>
      <trkpt lat="46.30424" lon="-1.29805">
        <ele>4.3</ele>
        <time>2021-06-17T09:14:58Z</time>
      </trkpt>
      <trkpt lat="46.30425" lon="-1.29806">
        <ele>4.3</ele>
        <time>2021-06-17T09:14:59Z</time>
      </trkpt>
      <trkpt lat="46.30425" lon="-1.29807">
        <ele>4.3</ele>
        <time>2021-06-17T09:15:00Z</time>
      </trkpt>
      <trkpt lat="46.30425" lon="-1.29808">
        <ele>4.3</ele>
        <time>2021-06-17T09:15:01Z</time>
      </trkpt>
      <trkpt lat="46.30426" lon="-1.29809">
        <ele>4.3</ele>
        <time>2021-06-17T09:15:02Z</time>
      </trkpt>
      <trkpt lat="46.30426" lon="-1.29809">
        <ele>4.3</ele>
        <time>2021-06-17T09:15:03Z</time>
      </trkpt>
      <trkpt lat="46.30426" lon="-1.2981">
        <ele>4.3</ele>
        <time>2021-06-17T09:15:04Z</time>
      </trkpt>
      <trkpt lat="46.30426" lon="-1.2981">
        <ele>4.3</ele>
        <time>2021-06-17T09:15:05Z</time>
      </trkpt>
      <trkpt lat="46.30426" lon="-1.29811">
        <ele>4.3</ele>
        <time>2021-06-17T09:15:06Z</time>
      </trkpt>
      <trkpt lat="46.30427" lon="-1.29811">
        <ele>4.3</ele>
        <time>2021-06-17T09:15:07Z</time>
      </trkpt>
      <trkpt lat="46.30427" lon="-1.29811">
        <ele>4.3</ele>
        <time>2021-06-17T09:15:08Z</time>
      </trkpt>
      <trkpt lat="46.30427" lon="-1.29812">
        <ele>4.3</ele>
        <time>2021-06-17T09:15:09Z</time>
      </trkpt>
      <trkpt lat="46.30427" lon="-1.29812">
        <ele>4.3</ele>
        <time>2021-06-17T09:15:10Z</time>
      </trkpt>
      <trkpt lat="46.30427" lon="-1.29812">
        <ele>4.3</ele>
        <time>2021-06-17T09:15:11Z</time>
      </trkpt>
      <trkpt lat="46.30427" lon="-1.29812">
        <ele>4.3</ele>
        <time>2021-06-17T09:15:12Z</time>
      </trkpt>
      <trkpt lat="46.30427" lon="-1.29812">
        <ele>4.3</ele>
        <time>2021-06-17T09:15:13Z</time>
      </trkpt>
      <trkpt lat="46.30427" lon="-1.29812">
        <ele>4.3</ele>
        <time>2021-06-17T09:15:14Z</time>
      </trkpt>
      <trkpt lat="46.30426" lon="-1.29812">
        <ele>4.3</ele>
        <time>2021-06-17T09:15:15Z</time>
      </trkpt>
      <trkpt lat="46.30426" lon="-1.29812">
        <ele>4.3</ele>
        <time>2021-06-17T09:15:16Z</time>
      </trkpt>
      <trkpt lat="46.30426" lon="-1.29812">
        <ele>4.3</ele>
        <time>2021-06-17T09:15:17Z</time>
      </trkpt>
      <trkpt lat="46.30426" lon="-1.29812">
        <ele>4.3</ele>
        <time>2021-06-17T09:15:18Z</time>
      </trkpt>
      <trkpt lat="46.30426" lon="-1.29812">
        <ele>4.3</ele>
        <time>2021-06-17T09:15:19Z</time>
      </trkpt>
      <trkpt lat="46.30426" lon="-1.29812">
        <ele>4.3</ele>
        <time>2021-06-17T09:15:20Z</time>
      </trkpt>
      <trkpt lat="46.30426" lon="-1.29812">
        <ele>4.3</ele>
        <time>2021-06-17T09:15:21Z</time>
      </trkpt>
      <trkpt lat="46.30426" lon="-1.29812">
        <ele>4.3</ele>
        <time>2021-06-17T09:15:22Z</time>
      </trkpt>
      <trkpt lat="46.30426" lon="-1.29812">
        <ele>4.3</ele>
        <time>2021-06-17T09:15:23Z</time>
      </trkpt>
      <trkpt lat="46.30426" lon="-1.29812">
        <ele>4.3</ele>
        <time>2021-06-17T09:15:24Z</time>
      </trkpt>
      <trkpt lat="46.30426" lon="-1.29812">
        <ele>4.3</ele>
        <time>2021-06-17T09:15:25Z</time>
      </trkpt>
      <trkpt lat="46.30426" lon="-1.29812">
        <ele>4.3</ele>
        <time>2021-06-17T09:15:26Z</time>
      </trkpt>
      <trkpt lat="46.30426" lon="-1.29812">
        <ele>4.3</ele>
        <time>2021-06-17T09:15:27Z</time>
      </trkpt>
      <trkpt lat="46.30426" lon="-1.29812">
        <ele>4.3</ele>
        <time>2021-06-17T09:15:28Z</time>
      </trkpt>
      <trkpt lat="46.30426" lon="-1.29812">
        <ele>4.3</ele>
        <time>2021-06-17T09:15:29Z</time>
      </trkpt>
      <trkpt lat="46.30426" lon="-1.29812">
        <ele>4.3</ele>
        <time>2021-06-17T09:15:30Z</time>
      </trkpt>
      <trkpt lat="46.30426" lon="-1.29812">
        <ele>4.3</ele>
        <time>2021-06-17T09:15:31Z</time>
      </trkpt>
      <trkpt lat="46.30426" lon="-1.29812">
        <ele>4.3</ele>
        <time>2021-06-17T09:15:32Z</time>
      </trkpt>
      <trkpt lat="46.30426" lon="-1.29812">
        <ele>4.3</ele>
        <time>2021-06-17T09:15:33Z</time>
      </trkpt>
      <trkpt lat="46.30426" lon="-1.29812">
        <ele>4.3</ele>
        <time>2021-06-17T09:15:34Z</time>
      </trkpt>
      <trkpt lat="46.30426" lon="-1.29812">
        <ele>4.3</ele>
        <time>2021-06-17T09:15:35Z</time>
      </trkpt>
      <trkpt lat="46.30426" lon="-1.29812">
        <ele>4.3</ele>
        <time>2021-06-17T09:15:36Z</time>
      </trkpt>
      <trkpt lat="46.30426" lon="-1.29812">
        <ele>4.3</ele>
        <time>2021-06-17T09:15:37Z</time>
      </trkpt>
      <trkpt lat="46.30426" lon="-1.29812">
        <ele>4.3</ele>
        <time>2021-06-17T09:15:38Z</time>
      </trkpt>
      <trkpt lat="46.30426" lon="-1.29812">
        <ele>4.3</ele>
        <time>2021-06-17T09:15:39Z</time>
      </trkpt>
      <trkpt lat="46.30426" lon="-1.29812">
        <ele>4.3</ele>
        <time>2021-06-17T09:15:40Z</time>
      </trkpt>
      <trkpt lat="46.30426" lon="-1.29812">
        <ele>4.3</ele>
        <time>2021-06-17T09:15:41Z</time>
      </trkpt>
      <trkpt lat="46.30427" lon="-1.29812">
        <ele>4.3</ele>
        <time>2021-06-17T09:15:42Z</time>
      </trkpt>
      <trkpt lat="46.30427" lon="-1.29813">
        <ele>4.3</ele>
        <time>2021-06-17T09:15:43Z</time>
      </trkpt>
      <trkpt lat="46.30427" lon="-1.29814">
        <ele>4.3</ele>
        <time>2021-06-17T09:15:44Z</time>
      </trkpt>
      <trkpt lat="46.30427" lon="-1.29815">
        <ele>4.3</ele>
        <time>2021-06-17T09:15:45Z</time>
      </trkpt>
      <trkpt lat="46.30428" lon="-1.29816">
        <ele>4.3</ele>
        <time>2021-06-17T09:15:46Z</time>
      </trkpt>
      <trkpt lat="46.30428" lon="-1.29817">
        <ele>4.3</ele>
        <time>2021-06-17T09:15:47Z</time>
      </trkpt>
      <trkpt lat="46.30428" lon="-1.29818">
        <ele>4.3</ele>
        <time>2021-06-17T09:15:48Z</time>
      </trkpt>
      <trkpt lat="46.30428" lon="-1.29818">
        <ele>4.3</ele>
        <time>2021-06-17T09:15:49Z</time>
      </trkpt>
      <trkpt lat="46.30429" lon="-1.29819">
        <ele>4.3</ele>
        <time>2021-06-17T09:15:50Z</time>
      </trkpt>
      <trkpt lat="46.30429" lon="-1.29819">
        <ele>4.3</ele>
        <time>2021-06-17T09:15:51Z</time>
      </trkpt>
      <trkpt lat="46.30429" lon="-1.29819">
        <ele>4.3</ele>
        <time>2021-06-17T09:15:52Z</time>
      </trkpt>
      <trkpt lat="46.30429" lon="-1.29819">
        <ele>4.3</ele>
        <time>2021-06-17T09:15:53Z</time>
      </trkpt>
      <trkpt lat="46.30429" lon="-1.29819">
        <ele>4.3</ele>
        <time>2021-06-17T09:15:54Z</time>
      </trkpt>
      <trkpt lat="46.30429" lon="-1.29819">
        <ele>4.3</ele>
        <time>2021-06-17T09:15:55Z</time>
      </trkpt>
      <trkpt lat="46.30429" lon="-1.29819">
        <ele>4.3</ele>
        <time>2021-06-17T09:15:56Z</time>
      </trkpt>
      <trkpt lat="46.30429" lon="-1.29819">
        <ele>4.3</ele>
        <time>2021-06-17T09:15:57Z</time>
      </trkpt>
      <trkpt lat="46.30429" lon="-1.29818">
        <ele>4.3</ele>
        <time>2021-06-17T09:15:58Z</time>
      </trkpt>
      <trkpt lat="46.30429" lon="-1.29819">
        <ele>4.3</ele>
        <time>2021-06-17T09:15:59Z</time>
      </trkpt>
      <trkpt lat="46.30429" lon="-1.29819">
        <ele>4.3</ele>
        <time>2021-06-17T09:16:00Z</time>
      </trkpt>
      <trkpt lat="46.30429" lon="-1.29819">
        <ele>4.3</ele>
        <time>2021-06-17T09:16:01Z</time>
      </trkpt>
      <trkpt lat="46.3043" lon="-1.29819">
        <ele>4.3</ele>
        <time>2021-06-17T09:16:02Z</time>
      </trkpt>
      <trkpt lat="46.3043" lon="-1.2982">
        <ele>4.3</ele>
        <time>2021-06-17T09:16:03Z</time>
      </trkpt>
      <trkpt lat="46.30431" lon="-1.2982">
        <ele>4.2</ele>
        <time>2021-06-17T09:16:04Z</time>
      </trkpt>
      <trkpt lat="46.30431" lon="-1.29821">
        <ele>4.2</ele>
        <time>2021-06-17T09:16:05Z</time>
      </trkpt>
      <trkpt lat="46.30431" lon="-1.29821">
        <ele>4.2</ele>
        <time>2021-06-17T09:16:06Z</time>
      </trkpt>
      <trkpt lat="46.30432" lon="-1.29822">
        <ele>4.2</ele>
        <time>2021-06-17T09:16:07Z</time>
      </trkpt>
      <trkpt lat="46.30432" lon="-1.29823">
        <ele>4.2</ele>
        <time>2021-06-17T09:16:08Z</time>
      </trkpt>
      <trkpt lat="46.30432" lon="-1.29824">
        <ele>4.2</ele>
        <time>2021-06-17T09:16:09Z</time>
      </trkpt>
      <trkpt lat="46.30433" lon="-1.29826">
        <ele>4.1</ele>
        <time>2021-06-17T09:16:10Z</time>
      </trkpt>
      <trkpt lat="46.30434" lon="-1.29828">
        <ele>4.1</ele>
        <time>2021-06-17T09:16:11Z</time>
      </trkpt>
      <trkpt lat="46.30434" lon="-1.29829">
        <ele>4.1</ele>
        <time>2021-06-17T09:16:12Z</time>
      </trkpt>
      <trkpt lat="46.30435" lon="-1.29831">
        <ele>4</ele>
        <time>2021-06-17T09:16:13Z</time>
      </trkpt>
      <trkpt lat="46.30436" lon="-1.29832">
        <ele>4</ele>
        <time>2021-06-17T09:16:14Z</time>
      </trkpt>
      <trkpt lat="46.30437" lon="-1.29833">
        <ele>4</ele>
        <time>2021-06-17T09:16:15Z</time>
      </trkpt>
      <trkpt lat="46.30438" lon="-1.29833">
        <ele>4</ele>
        <time>2021-06-17T09:16:16Z</time>
      </trkpt>
      <trkpt lat="46.30439" lon="-1.29833">
        <ele>4</ele>
        <time>2021-06-17T09:16:17Z</time>
      </trkpt>
      <trkpt lat="46.3044" lon="-1.29833">
        <ele>4</ele>
        <time>2021-06-17T09:16:18Z</time>
      </trkpt>
      <trkpt lat="46.30441" lon="-1.29833">
        <ele>4</ele>
        <time>2021-06-17T09:16:19Z</time>
      </trkpt>
      <trkpt lat="46.30442" lon="-1.29833">
        <ele>4</ele>
        <time>2021-06-17T09:16:20Z</time>
      </trkpt>
      <trkpt lat="46.30443" lon="-1.29833">
        <ele>4</ele>
        <time>2021-06-17T09:16:21Z</time>
      </trkpt>
      <trkpt lat="46.30444" lon="-1.29833">
        <ele>4</ele>
        <time>2021-06-17T09:16:22Z</time>
      </trkpt>
      <trkpt lat="46.30445" lon="-1.29833">
        <ele>4.1</ele>
        <time>2021-06-17T09:16:23Z</time>
      </trkpt>
      <trkpt lat="46.30446" lon="-1.29833">
        <ele>4.1</ele>
        <time>2021-06-17T09:16:24Z</time>
      </trkpt>
      <trkpt lat="46.30448" lon="-1.29833">
        <ele>4.1</ele>
        <time>2021-06-17T09:16:25Z</time>
      </trkpt>
      <trkpt lat="46.30449" lon="-1.29833">
        <ele>4.1</ele>
        <time>2021-06-17T09:16:26Z</time>
      </trkpt>
      <trkpt lat="46.3045" lon="-1.29833">
        <ele>4.1</ele>
        <time>2021-06-17T09:16:27Z</time>
      </trkpt>
      <trkpt lat="46.30451" lon="-1.29833">
        <ele>4.2</ele>
        <time>2021-06-17T09:16:28Z</time>
      </trkpt>
      <trkpt lat="46.30452" lon="-1.29832">
        <ele>4.2</ele>
        <time>2021-06-17T09:16:29Z</time>
      </trkpt>
      <trkpt lat="46.30453" lon="-1.29831">
        <ele>4.2</ele>
        <time>2021-06-17T09:16:30Z</time>
      </trkpt>
      <trkpt lat="46.30453" lon="-1.2983">
        <ele>4.2</ele>
        <time>2021-06-17T09:16:31Z</time>
      </trkpt>
      <trkpt lat="46.30454" lon="-1.29828">
        <ele>4.3</ele>
        <time>2021-06-17T09:16:32Z</time>
      </trkpt>
      <trkpt lat="46.30455" lon="-1.29827">
        <ele>4.3</ele>
        <time>2021-06-17T09:16:33Z</time>
      </trkpt>
      <trkpt lat="46.30456" lon="-1.29825">
        <ele>4.3</ele>
        <time>2021-06-17T09:16:34Z</time>
      </trkpt>
      <trkpt lat="46.30457" lon="-1.29824">
        <ele>4.4</ele>
        <time>2021-06-17T09:16:35Z</time>
      </trkpt>
      <trkpt lat="46.30458" lon="-1.29822">
        <ele>4.4</ele>
        <time>2021-06-17T09:16:36Z</time>
      </trkpt>
      <trkpt lat="46.30458" lon="-1.29821">
        <ele>4.4</ele>
        <time>2021-06-17T09:16:37Z</time>
      </trkpt>
      <trkpt lat="46.30459" lon="-1.2982">
        <ele>4.4</ele>
        <time>2021-06-17T09:16:38Z</time>
      </trkpt>
      <trkpt lat="46.3046" lon="-1.29819">
        <ele>4.5</ele>
        <time>2021-06-17T09:16:39Z</time>
      </trkpt>
      <trkpt lat="46.30461" lon="-1.29818">
        <ele>4.5</ele>
        <time>2021-06-17T09:16:40Z</time>
      </trkpt>
      <trkpt lat="46.30462" lon="-1.29818">
        <ele>4.5</ele>
        <time>2021-06-17T09:16:41Z</time>
      </trkpt>
      <trkpt lat="46.30462" lon="-1.29817">
        <ele>4.5</ele>
        <time>2021-06-17T09:16:42Z</time>
      </trkpt>
      <trkpt lat="46.30463" lon="-1.29817">
        <ele>4.5</ele>
        <time>2021-06-17T09:16:43Z</time>
      </trkpt>
      <trkpt lat="46.30464" lon="-1.29817">
        <ele>4.6</ele>
        <time>2021-06-17T09:16:44Z</time>
      </trkpt>
      <trkpt lat="46.30465" lon="-1.29817">
        <ele>4.6</ele>
        <time>2021-06-17T09:16:45Z</time>
      </trkpt>
      <trkpt lat="46.30465" lon="-1.29817">
        <ele>4.6</ele>
        <time>2021-06-17T09:16:46Z</time>
      </trkpt>
      <trkpt lat="46.30466" lon="-1.29818">
        <ele>4.6</ele>
        <time>2021-06-17T09:16:47Z</time>
      </trkpt>
      <trkpt lat="46.30467" lon="-1.29818">
        <ele>4.6</ele>
        <time>2021-06-17T09:16:48Z</time>
      </trkpt>
      <trkpt lat="46.30468" lon="-1.29819">
        <ele>4.6</ele>
        <time>2021-06-17T09:16:49Z</time>
      </trkpt>
      <trkpt lat="46.30468" lon="-1.29819">
        <ele>4.6</ele>
        <time>2021-06-17T09:16:50Z</time>
      </trkpt>
      <trkpt lat="46.30469" lon="-1.2982">
        <ele>4.6</ele>
        <time>2021-06-17T09:16:51Z</time>
      </trkpt>
      <trkpt lat="46.30469" lon="-1.2982">
        <ele>4.7</ele>
        <time>2021-06-17T09:16:52Z</time>
      </trkpt>
      <trkpt lat="46.3047" lon="-1.2982">
        <ele>4.7</ele>
        <time>2021-06-17T09:16:53Z</time>
      </trkpt>
      <trkpt lat="46.3047" lon="-1.2982">
        <ele>4.7</ele>
        <time>2021-06-17T09:16:54Z</time>
      </trkpt>
      <trkpt lat="46.30471" lon="-1.29819">
        <ele>4.7</ele>
        <time>2021-06-17T09:16:55Z</time>
      </trkpt>
      <trkpt lat="46.30471" lon="-1.29819">
        <ele>4.7</ele>
        <time>2021-06-17T09:16:56Z</time>
      </trkpt>
      <trkpt lat="46.30472" lon="-1.29819">
        <ele>4.7</ele>
        <time>2021-06-17T09:16:57Z</time>
      </trkpt>
      <trkpt lat="46.30472" lon="-1.29819">
        <ele>4.7</ele>
        <time>2021-06-17T09:16:58Z</time>
      </trkpt>
      <trkpt lat="46.30473" lon="-1.29819">
        <ele>4.7</ele>
        <time>2021-06-17T09:16:59Z</time>
      </trkpt>
      <trkpt lat="46.30474" lon="-1.29819">
        <ele>4.7</ele>
        <time>2021-06-17T09:17:00Z</time>
      </trkpt>
      <trkpt lat="46.30475" lon="-1.29818">
        <ele>4.8</ele>
        <time>2021-06-17T09:17:01Z</time>
      </trkpt>
      <trkpt lat="46.30476" lon="-1.29818">
        <ele>4.8</ele>
        <time>2021-06-17T09:17:02Z</time>
      </trkpt>
      <trkpt lat="46.30478" lon="-1.29818">
        <ele>4.8</ele>
        <time>2021-06-17T09:17:03Z</time>
      </trkpt>
      <trkpt lat="46.30479" lon="-1.29818">
        <ele>4.8</ele>
        <time>2021-06-17T09:17:04Z</time>
      </trkpt>
      <trkpt lat="46.3048" lon="-1.29818">
        <ele>4.8</ele>
        <time>2021-06-17T09:17:05Z</time>
      </trkpt>
      <trkpt lat="46.30481" lon="-1.29818">
        <ele>4.9</ele>
        <time>2021-06-17T09:17:06Z</time>
      </trkpt>
      <trkpt lat="46.30482" lon="-1.29818">
        <ele>4.9</ele>
        <time>2021-06-17T09:17:07Z</time>
      </trkpt>
      <trkpt lat="46.30484" lon="-1.29818">
        <ele>4.9</ele>
        <time>2021-06-17T09:17:08Z</time>
      </trkpt>
      <trkpt lat="46.30485" lon="-1.29818">
        <ele>4.9</ele>
        <time>2021-06-17T09:17:09Z</time>
      </trkpt>
      <trkpt lat="46.30486" lon="-1.29818">
        <ele>4.9</ele>
        <time>2021-06-17T09:17:10Z</time>
      </trkpt>
      <trkpt lat="46.30487" lon="-1.29818">
        <ele>5</ele>
        <time>2021-06-17T09:17:11Z</time>
      </trkpt>
      <trkpt lat="46.30488" lon="-1.29818">
        <ele>5</ele>
        <time>2021-06-17T09:17:12Z</time>
      </trkpt>
      <trkpt lat="46.3049" lon="-1.29818">
        <ele>5</ele>
        <time>2021-06-17T09:17:13Z</time>
      </trkpt>
      <trkpt lat="46.30491" lon="-1.29818">
        <ele>5</ele>
        <time>2021-06-17T09:17:14Z</time>
      </trkpt>
      <trkpt lat="46.30492" lon="-1.29817">
        <ele>5</ele>
        <time>2021-06-17T09:17:15Z</time>
      </trkpt>
      <trkpt lat="46.30493" lon="-1.29817">
        <ele>5</ele>
        <time>2021-06-17T09:17:16Z</time>
      </trkpt>
      <trkpt lat="46.30494" lon="-1.29817">
        <ele>5</ele>
        <time>2021-06-17T09:17:17Z</time>
      </trkpt>
      <trkpt lat="46.30495" lon="-1.29817">
        <ele>5</ele>
        <time>2021-06-17T09:17:18Z</time>
      </trkpt>
      <trkpt lat="46.30496" lon="-1.29817">
        <ele>5.1</ele>
        <time>2021-06-17T09:17:19Z</time>
      </trkpt>
      <trkpt lat="46.30497" lon="-1.29816">
        <ele>5.1</ele>
        <time>2021-06-17T09:17:20Z</time>
      </trkpt>
      <trkpt lat="46.30498" lon="-1.29816">
        <ele>5.1</ele>
        <time>2021-06-17T09:17:21Z</time>
      </trkpt>
      <trkpt lat="46.30499" lon="-1.29816">
        <ele>5.1</ele>
        <time>2021-06-17T09:17:22Z</time>
      </trkpt>
      <trkpt lat="46.305" lon="-1.29816">
        <ele>5.1</ele>
        <time>2021-06-17T09:17:23Z</time>
      </trkpt>
      <trkpt lat="46.30502" lon="-1.29815">
        <ele>5.1</ele>
        <time>2021-06-17T09:17:24Z</time>
      </trkpt>
      <trkpt lat="46.30503" lon="-1.29815">
        <ele>5.1</ele>
        <time>2021-06-17T09:17:25Z</time>
      </trkpt>
      <trkpt lat="46.30504" lon="-1.29815">
        <ele>5.1</ele>
        <time>2021-06-17T09:17:26Z</time>
      </trkpt>
      <trkpt lat="46.30505" lon="-1.29815">
        <ele>5.1</ele>
        <time>2021-06-17T09:17:27Z</time>
      </trkpt>
      <trkpt lat="46.30506" lon="-1.29814">
        <ele>5.1</ele>
        <time>2021-06-17T09:17:28Z</time>
      </trkpt>
      <trkpt lat="46.30507" lon="-1.29814">
        <ele>5.1</ele>
        <time>2021-06-17T09:17:29Z</time>
      </trkpt>
      <trkpt lat="46.30508" lon="-1.29814">
        <ele>5.1</ele>
        <time>2021-06-17T09:17:30Z</time>
      </trkpt>
      <trkpt lat="46.30509" lon="-1.29814">
        <ele>5.1</ele>
        <time>2021-06-17T09:17:31Z</time>
      </trkpt>
      <trkpt lat="46.3051" lon="-1.29813">
        <ele>5.1</ele>
        <time>2021-06-17T09:17:32Z</time>
      </trkpt>
      <trkpt lat="46.30511" lon="-1.29813">
        <ele>5.1</ele>
        <time>2021-06-17T09:17:33Z</time>
      </trkpt>
      <trkpt lat="46.30512" lon="-1.29813">
        <ele>5.1</ele>
        <time>2021-06-17T09:17:34Z</time>
      </trkpt>
      <trkpt lat="46.30514" lon="-1.29813">
        <ele>5.1</ele>
        <time>2021-06-17T09:17:35Z</time>
      </trkpt>
      <trkpt lat="46.30515" lon="-1.29812">
        <ele>5.1</ele>
        <time>2021-06-17T09:17:36Z</time>
      </trkpt>
      <trkpt lat="46.30516" lon="-1.29812">
        <ele>5.1</ele>
        <time>2021-06-17T09:17:37Z</time>
      </trkpt>
      <trkpt lat="46.30517" lon="-1.29812">
        <ele>5.1</ele>
        <time>2021-06-17T09:17:38Z</time>
      </trkpt>
      <trkpt lat="46.30518" lon="-1.29812">
        <ele>5.1</ele>
        <time>2021-06-17T09:17:39Z</time>
      </trkpt>
      <trkpt lat="46.30519" lon="-1.29812">
        <ele>5.1</ele>
        <time>2021-06-17T09:17:40Z</time>
      </trkpt>
      <trkpt lat="46.30521" lon="-1.29812">
        <ele>5.1</ele>
        <time>2021-06-17T09:17:41Z</time>
      </trkpt>
      <trkpt lat="46.30522" lon="-1.29811">
        <ele>5.1</ele>
        <time>2021-06-17T09:17:42Z</time>
      </trkpt>
      <trkpt lat="46.30523" lon="-1.29811">
        <ele>5.1</ele>
        <time>2021-06-17T09:17:43Z</time>
      </trkpt>
      <trkpt lat="46.30524" lon="-1.29811">
        <ele>5.1</ele>
        <time>2021-06-17T09:17:44Z</time>
      </trkpt>
      <trkpt lat="46.30525" lon="-1.29811">
        <ele>5.1</ele>
        <time>2021-06-17T09:17:45Z</time>
      </trkpt>
      <trkpt lat="46.30526" lon="-1.29811">
        <ele>5</ele>
        <time>2021-06-17T09:17:46Z</time>
      </trkpt>
      <trkpt lat="46.30528" lon="-1.29811">
        <ele>5</ele>
        <time>2021-06-17T09:17:47Z</time>
      </trkpt>
      <trkpt lat="46.30529" lon="-1.29811">
        <ele>5</ele>
        <time>2021-06-17T09:17:48Z</time>
      </trkpt>
      <trkpt lat="46.3053" lon="-1.29811">
        <ele>5</ele>
        <time>2021-06-17T09:17:49Z</time>
      </trkpt>
      <trkpt lat="46.30531" lon="-1.29811">
        <ele>5</ele>
        <time>2021-06-17T09:17:50Z</time>
      </trkpt>
      <trkpt lat="46.30532" lon="-1.29811">
        <ele>5</ele>
        <time>2021-06-17T09:17:51Z</time>
      </trkpt>
      <trkpt lat="46.30533" lon="-1.29811">
        <ele>5</ele>
        <time>2021-06-17T09:17:52Z</time>
      </trkpt>
      <trkpt lat="46.30534" lon="-1.29811">
        <ele>5</ele>
        <time>2021-06-17T09:17:53Z</time>
      </trkpt>
      <trkpt lat="46.30535" lon="-1.29811">
        <ele>5</ele>
        <time>2021-06-17T09:17:54Z</time>
      </trkpt>
      <trkpt lat="46.30537" lon="-1.29811">
        <ele>5</ele>
        <time>2021-06-17T09:17:55Z</time>
      </trkpt>
      <trkpt lat="46.30538" lon="-1.29811">
        <ele>5</ele>
        <time>2021-06-17T09:17:56Z</time>
      </trkpt>
      <trkpt lat="46.30539" lon="-1.29811">
        <ele>5</ele>
        <time>2021-06-17T09:17:57Z</time>
      </trkpt>
      <trkpt lat="46.3054" lon="-1.29811">
        <ele>5</ele>
        <time>2021-06-17T09:17:58Z</time>
      </trkpt>
      <trkpt lat="46.30541" lon="-1.29811">
        <ele>5</ele>
        <time>2021-06-17T09:17:59Z</time>
      </trkpt>
      <trkpt lat="46.30542" lon="-1.29811">
        <ele>5</ele>
        <time>2021-06-17T09:18:00Z</time>
      </trkpt>
      <trkpt lat="46.30543" lon="-1.29811">
        <ele>5</ele>
        <time>2021-06-17T09:18:01Z</time>
      </trkpt>
      <trkpt lat="46.30543" lon="-1.2981">
        <ele>5</ele>
        <time>2021-06-17T09:18:02Z</time>
      </trkpt>
      <trkpt lat="46.30544" lon="-1.2981">
        <ele>5</ele>
        <time>2021-06-17T09:18:03Z</time>
      </trkpt>
      <trkpt lat="46.30546" lon="-1.2981">
        <ele>5</ele>
        <time>2021-06-17T09:18:04Z</time>
      </trkpt>
      <trkpt lat="46.30547" lon="-1.2981">
        <ele>5</ele>
        <time>2021-06-17T09:18:05Z</time>
      </trkpt>
      <trkpt lat="46.30548" lon="-1.29809">
        <ele>5</ele>
        <time>2021-06-17T09:18:06Z</time>
      </trkpt>
      <trkpt lat="46.30549" lon="-1.29809">
        <ele>5</ele>
        <time>2021-06-17T09:18:07Z</time>
      </trkpt>
      <trkpt lat="46.3055" lon="-1.29809">
        <ele>5</ele>
        <time>2021-06-17T09:18:08Z</time>
      </trkpt>
      <trkpt lat="46.30551" lon="-1.29808">
        <ele>5</ele>
        <time>2021-06-17T09:18:09Z</time>
      </trkpt>
      <trkpt lat="46.30552" lon="-1.29808">
        <ele>5</ele>
        <time>2021-06-17T09:18:10Z</time>
      </trkpt>
      <trkpt lat="46.30553" lon="-1.29807">
        <ele>5.1</ele>
        <time>2021-06-17T09:18:11Z</time>
      </trkpt>
      <trkpt lat="46.30554" lon="-1.29807">
        <ele>5.1</ele>
        <time>2021-06-17T09:18:12Z</time>
      </trkpt>
      <trkpt lat="46.30556" lon="-1.29806">
        <ele>5.1</ele>
        <time>2021-06-17T09:18:13Z</time>
      </trkpt>
      <trkpt lat="46.30557" lon="-1.29806">
        <ele>5.1</ele>
        <time>2021-06-17T09:18:14Z</time>
      </trkpt>
      <trkpt lat="46.30558" lon="-1.29805">
        <ele>5.1</ele>
        <time>2021-06-17T09:18:15Z</time>
      </trkpt>
      <trkpt lat="46.30559" lon="-1.29805">
        <ele>5.1</ele>
        <time>2021-06-17T09:18:16Z</time>
      </trkpt>
      <trkpt lat="46.3056" lon="-1.29805">
        <ele>5.1</ele>
        <time>2021-06-17T09:18:17Z</time>
      </trkpt>
      <trkpt lat="46.30561" lon="-1.29804">
        <ele>5.1</ele>
        <time>2021-06-17T09:18:18Z</time>
      </trkpt>
      <trkpt lat="46.30562" lon="-1.29804">
        <ele>5.1</ele>
        <time>2021-06-17T09:18:19Z</time>
      </trkpt>
      <trkpt lat="46.30563" lon="-1.29804">
        <ele>5.1</ele>
        <time>2021-06-17T09:18:20Z</time>
      </trkpt>
      <trkpt lat="46.30564" lon="-1.29803">
        <ele>5.1</ele>
        <time>2021-06-17T09:18:21Z</time>
      </trkpt>
      <trkpt lat="46.30565" lon="-1.29803">
        <ele>5.1</ele>
        <time>2021-06-17T09:18:22Z</time>
      </trkpt>
      <trkpt lat="46.30566" lon="-1.29803">
        <ele>5.1</ele>
        <time>2021-06-17T09:18:23Z</time>
      </trkpt>
      <trkpt lat="46.30568" lon="-1.29802">
        <ele>5.1</ele>
        <time>2021-06-17T09:18:24Z</time>
      </trkpt>
      <trkpt lat="46.30569" lon="-1.29802">
        <ele>5.1</ele>
        <time>2021-06-17T09:18:25Z</time>
      </trkpt>
      <trkpt lat="46.3057" lon="-1.29802">
        <ele>5.1</ele>
        <time>2021-06-17T09:18:26Z</time>
      </trkpt>
      <trkpt lat="46.30571" lon="-1.29801">
        <ele>5.1</ele>
        <time>2021-06-17T09:18:27Z</time>
      </trkpt>
      <trkpt lat="46.30572" lon="-1.29801">
        <ele>5.1</ele>
        <time>2021-06-17T09:18:28Z</time>
      </trkpt>
      <trkpt lat="46.30573" lon="-1.298">
        <ele>5.1</ele>
        <time>2021-06-17T09:18:29Z</time>
      </trkpt>
      <trkpt lat="46.30574" lon="-1.298">
        <ele>5.1</ele>
        <time>2021-06-17T09:18:30Z</time>
      </trkpt>
      <trkpt lat="46.30575" lon="-1.298">
        <ele>5.1</ele>
        <time>2021-06-17T09:18:31Z</time>
      </trkpt>
      <trkpt lat="46.30576" lon="-1.29799">
        <ele>5.1</ele>
        <time>2021-06-17T09:18:32Z</time>
      </trkpt>
      <trkpt lat="46.30577" lon="-1.29799">
        <ele>5.1</ele>
        <time>2021-06-17T09:18:33Z</time>
      </trkpt>
      <trkpt lat="46.30578" lon="-1.29799">
        <ele>5.1</ele>
        <time>2021-06-17T09:18:34Z</time>
      </trkpt>
      <trkpt lat="46.30579" lon="-1.29798">
        <ele>5.1</ele>
        <time>2021-06-17T09:18:35Z</time>
      </trkpt>
      <trkpt lat="46.3058" lon="-1.29798">
        <ele>5.1</ele>
        <time>2021-06-17T09:18:36Z</time>
      </trkpt>
      <trkpt lat="46.30581" lon="-1.29798">
        <ele>5.1</ele>
        <time>2021-06-17T09:18:37Z</time>
      </trkpt>
      <trkpt lat="46.30582" lon="-1.29797">
        <ele>5.1</ele>
        <time>2021-06-17T09:18:38Z</time>
      </trkpt>
      <trkpt lat="46.30583" lon="-1.29797">
        <ele>5.1</ele>
        <time>2021-06-17T09:18:39Z</time>
      </trkpt>
      <trkpt lat="46.30584" lon="-1.29797">
        <ele>5.1</ele>
        <time>2021-06-17T09:18:40Z</time>
      </trkpt>
      <trkpt lat="46.30585" lon="-1.29796">
        <ele>5</ele>
        <time>2021-06-17T09:18:41Z</time>
      </trkpt>
      <trkpt lat="46.30586" lon="-1.29796">
        <ele>5</ele>
        <time>2021-06-17T09:18:42Z</time>
      </trkpt>
      <trkpt lat="46.30587" lon="-1.29796">
        <ele>5</ele>
        <time>2021-06-17T09:18:43Z</time>
      </trkpt>
      <trkpt lat="46.30588" lon="-1.29795">
        <ele>5</ele>
        <time>2021-06-17T09:18:44Z</time>
      </trkpt>
      <trkpt lat="46.30589" lon="-1.29795">
        <ele>5</ele>
        <time>2021-06-17T09:18:45Z</time>
      </trkpt>
      <trkpt lat="46.3059" lon="-1.29795">
        <ele>5</ele>
        <time>2021-06-17T09:18:46Z</time>
      </trkpt>
      <trkpt lat="46.30591" lon="-1.29794">
        <ele>5</ele>
        <time>2021-06-17T09:18:47Z</time>
      </trkpt>
      <trkpt lat="46.30592" lon="-1.29794">
        <ele>5</ele>
        <time>2021-06-17T09:18:48Z</time>
      </trkpt>
      <trkpt lat="46.30594" lon="-1.29794">
        <ele>5</ele>
        <time>2021-06-17T09:18:49Z</time>
      </trkpt>
      <trkpt lat="46.30595" lon="-1.29794">
        <ele>5</ele>
        <time>2021-06-17T09:18:50Z</time>
      </trkpt>
      <trkpt lat="46.30597" lon="-1.29793">
        <ele>4.9</ele>
        <time>2021-06-17T09:18:51Z</time>
      </trkpt>
      <trkpt lat="46.30598" lon="-1.29793">
        <ele>4.9</ele>
        <time>2021-06-17T09:18:52Z</time>
      </trkpt>
      <trkpt lat="46.30599" lon="-1.29793">
        <ele>4.9</ele>
        <time>2021-06-17T09:18:53Z</time>
      </trkpt>
      <trkpt lat="46.30601" lon="-1.29793">
        <ele>4.9</ele>
        <time>2021-06-17T09:18:54Z</time>
      </trkpt>
      <trkpt lat="46.30602" lon="-1.29792">
        <ele>4.9</ele>
        <time>2021-06-17T09:18:55Z</time>
      </trkpt>
      <trkpt lat="46.30603" lon="-1.29792">
        <ele>4.9</ele>
        <time>2021-06-17T09:18:56Z</time>
      </trkpt>
      <trkpt lat="46.30604" lon="-1.29792">
        <ele>4.9</ele>
        <time>2021-06-17T09:18:57Z</time>
      </trkpt>
      <trkpt lat="46.30605" lon="-1.29791">
        <ele>4.9</ele>
        <time>2021-06-17T09:18:58Z</time>
      </trkpt>
      <trkpt lat="46.30606" lon="-1.29791">
        <ele>4.9</ele>
        <time>2021-06-17T09:18:59Z</time>
      </trkpt>
      <trkpt lat="46.30608" lon="-1.29791">
        <ele>4.8</ele>
        <time>2021-06-17T09:19:00Z</time>
      </trkpt>
      <trkpt lat="46.30609" lon="-1.29791">
        <ele>4.8</ele>
        <time>2021-06-17T09:19:01Z</time>
      </trkpt>
      <trkpt lat="46.3061" lon="-1.2979">
        <ele>4.8</ele>
        <time>2021-06-17T09:19:02Z</time>
      </trkpt>
      <trkpt lat="46.30611" lon="-1.2979">
        <ele>4.8</ele>
        <time>2021-06-17T09:19:03Z</time>
      </trkpt>
      <trkpt lat="46.30612" lon="-1.2979">
        <ele>4.8</ele>
        <time>2021-06-17T09:19:04Z</time>
      </trkpt>
      <trkpt lat="46.30613" lon="-1.2979">
        <ele>4.8</ele>
        <time>2021-06-17T09:19:05Z</time>
      </trkpt>
      <trkpt lat="46.30614" lon="-1.2979">
        <ele>4.8</ele>
        <time>2021-06-17T09:19:06Z</time>
      </trkpt>
      <trkpt lat="46.30615" lon="-1.2979">
        <ele>4.8</ele>
        <time>2021-06-17T09:19:07Z</time>
      </trkpt>
      <trkpt lat="46.30616" lon="-1.2979">
        <ele>4.8</ele>
        <time>2021-06-17T09:19:08Z</time>
      </trkpt>
      <trkpt lat="46.30617" lon="-1.2979">
        <ele>4.8</ele>
        <time>2021-06-17T09:19:09Z</time>
      </trkpt>
      <trkpt lat="46.30618" lon="-1.2979">
        <ele>4.7</ele>
        <time>2021-06-17T09:19:10Z</time>
      </trkpt>
      <trkpt lat="46.30619" lon="-1.29791">
        <ele>4.7</ele>
        <time>2021-06-17T09:19:11Z</time>
      </trkpt>
      <trkpt lat="46.3062" lon="-1.29791">
        <ele>4.7</ele>
        <time>2021-06-17T09:19:12Z</time>
      </trkpt>
      <trkpt lat="46.30621" lon="-1.29791">
        <ele>4.7</ele>
        <time>2021-06-17T09:19:13Z</time>
      </trkpt>
      <trkpt lat="46.30622" lon="-1.29791">
        <ele>4.7</ele>
        <time>2021-06-17T09:19:14Z</time>
      </trkpt>
      <trkpt lat="46.30623" lon="-1.29791">
        <ele>4.7</ele>
        <time>2021-06-17T09:19:15Z</time>
      </trkpt>
      <trkpt lat="46.30624" lon="-1.29791">
        <ele>4.7</ele>
        <time>2021-06-17T09:19:16Z</time>
      </trkpt>
      <trkpt lat="46.30626" lon="-1.29791">
        <ele>4.7</ele>
        <time>2021-06-17T09:19:17Z</time>
      </trkpt>
      <trkpt lat="46.30627" lon="-1.29791">
        <ele>4.6</ele>
        <time>2021-06-17T09:19:18Z</time>
      </trkpt>
      <trkpt lat="46.30628" lon="-1.29791">
        <ele>4.6</ele>
        <time>2021-06-17T09:19:19Z</time>
      </trkpt>
      <trkpt lat="46.30629" lon="-1.29791">
        <ele>4.6</ele>
        <time>2021-06-17T09:19:20Z</time>
      </trkpt>
      <trkpt lat="46.3063" lon="-1.29791">
        <ele>4.6</ele>
        <time>2021-06-17T09:19:21Z</time>
      </trkpt>
      <trkpt lat="46.30631" lon="-1.29791">
        <ele>4.6</ele>
        <time>2021-06-17T09:19:22Z</time>
      </trkpt>
      <trkpt lat="46.30632" lon="-1.29791">
        <ele>4.6</ele>
        <time>2021-06-17T09:19:23Z</time>
      </trkpt>
      <trkpt lat="46.30633" lon="-1.29791">
        <ele>4.6</ele>
        <time>2021-06-17T09:19:24Z</time>
      </trkpt>
      <trkpt lat="46.30634" lon="-1.29791">
        <ele>4.6</ele>
        <time>2021-06-17T09:19:25Z</time>
      </trkpt>
      <trkpt lat="46.30635" lon="-1.29791">
        <ele>4.6</ele>
        <time>2021-06-17T09:19:26Z</time>
      </trkpt>
      <trkpt lat="46.30635" lon="-1.29791">
        <ele>4.6</ele>
        <time>2021-06-17T09:19:27Z</time>
      </trkpt>
      <trkpt lat="46.30636" lon="-1.29791">
        <ele>4.5</ele>
        <time>2021-06-17T09:19:28Z</time>
      </trkpt>
      <trkpt lat="46.30637" lon="-1.29791">
        <ele>4.5</ele>
        <time>2021-06-17T09:19:29Z</time>
      </trkpt>
      <trkpt lat="46.30638" lon="-1.29791">
        <ele>4.5</ele>
        <time>2021-06-17T09:19:30Z</time>
      </trkpt>
      <trkpt lat="46.30639" lon="-1.29792">
        <ele>4.5</ele>
        <time>2021-06-17T09:19:31Z</time>
      </trkpt>
      <trkpt lat="46.3064" lon="-1.29792">
        <ele>4.5</ele>
        <time>2021-06-17T09:19:32Z</time>
      </trkpt>
      <trkpt lat="46.30641" lon="-1.29792">
        <ele>4.5</ele>
        <time>2021-06-17T09:19:33Z</time>
      </trkpt>
      <trkpt lat="46.30643" lon="-1.29792">
        <ele>4.5</ele>
        <time>2021-06-17T09:19:34Z</time>
      </trkpt>
      <trkpt lat="46.30644" lon="-1.29792">
        <ele>4.4</ele>
        <time>2021-06-17T09:19:35Z</time>
      </trkpt>
      <trkpt lat="46.30645" lon="-1.29792">
        <ele>4.4</ele>
        <time>2021-06-17T09:19:36Z</time>
      </trkpt>
      <trkpt lat="46.30647" lon="-1.29792">
        <ele>4.4</ele>
        <time>2021-06-17T09:19:37Z</time>
      </trkpt>
      <trkpt lat="46.30648" lon="-1.29793">
        <ele>4.4</ele>
        <time>2021-06-17T09:19:38Z</time>
      </trkpt>
      <trkpt lat="46.3065" lon="-1.29793">
        <ele>4.4</ele>
        <time>2021-06-17T09:19:39Z</time>
      </trkpt>
      <trkpt lat="46.30651" lon="-1.29793">
        <ele>4.3</ele>
        <time>2021-06-17T09:19:40Z</time>
      </trkpt>
      <trkpt lat="46.30652" lon="-1.29793">
        <ele>4.3</ele>
        <time>2021-06-17T09:19:41Z</time>
      </trkpt>
      <trkpt lat="46.30653" lon="-1.29793">
        <ele>4.3</ele>
        <time>2021-06-17T09:19:42Z</time>
      </trkpt>
      <trkpt lat="46.30654" lon="-1.29794">
        <ele>4.3</ele>
        <time>2021-06-17T09:19:43Z</time>
      </trkpt>
      <trkpt lat="46.30655" lon="-1.29794">
        <ele>4.3</ele>
        <time>2021-06-17T09:19:44Z</time>
      </trkpt>
      <trkpt lat="46.30655" lon="-1.29794">
        <ele>4.3</ele>
        <time>2021-06-17T09:19:45Z</time>
      </trkpt>
      <trkpt lat="46.30656" lon="-1.29794">
        <ele>4.2</ele>
        <time>2021-06-17T09:19:46Z</time>
      </trkpt>
      <trkpt lat="46.30657" lon="-1.29794">
        <ele>4.2</ele>
        <time>2021-06-17T09:19:47Z</time>
      </trkpt>
      <trkpt lat="46.30658" lon="-1.29795">
        <ele>4.2</ele>
        <time>2021-06-17T09:19:48Z</time>
      </trkpt>
      <trkpt lat="46.30659" lon="-1.29795">
        <ele>4.2</ele>
        <time>2021-06-17T09:19:49Z</time>
      </trkpt>
      <trkpt lat="46.3066" lon="-1.29795">
        <ele>4.2</ele>
        <time>2021-06-17T09:19:50Z</time>
      </trkpt>
      <trkpt lat="46.30661" lon="-1.29795">
        <ele>4.2</ele>
        <time>2021-06-17T09:19:51Z</time>
      </trkpt>
      <trkpt lat="46.30662" lon="-1.29795">
        <ele>4.1</ele>
        <time>2021-06-17T09:19:52Z</time>
      </trkpt>
      <trkpt lat="46.30663" lon="-1.29795">
        <ele>4.1</ele>
        <time>2021-06-17T09:19:53Z</time>
      </trkpt>
      <trkpt lat="46.30664" lon="-1.29795">
        <ele>4.1</ele>
        <time>2021-06-17T09:19:54Z</time>
      </trkpt>
      <trkpt lat="46.30665" lon="-1.29795">
        <ele>4.1</ele>
        <time>2021-06-17T09:19:55Z</time>
      </trkpt>
      <trkpt lat="46.30667" lon="-1.29794">
        <ele>4.1</ele>
        <time>2021-06-17T09:19:56Z</time>
      </trkpt>
      <trkpt lat="46.30668" lon="-1.29794">
        <ele>4.1</ele>
        <time>2021-06-17T09:19:57Z</time>
      </trkpt>
      <trkpt lat="46.30669" lon="-1.29794">
        <ele>4.1</ele>
        <time>2021-06-17T09:19:58Z</time>
      </trkpt>
      <trkpt lat="46.3067" lon="-1.29794">
        <ele>4.1</ele>
        <time>2021-06-17T09:19:59Z</time>
      </trkpt>
      <trkpt lat="46.30671" lon="-1.29794">
        <ele>4.1</ele>
        <time>2021-06-17T09:20:00Z</time>
      </trkpt>
      <trkpt lat="46.30672" lon="-1.29794">
        <ele>4.1</ele>
        <time>2021-06-17T09:20:01Z</time>
      </trkpt>
      <trkpt lat="46.30674" lon="-1.29794">
        <ele>4.1</ele>
        <time>2021-06-17T09:20:02Z</time>
      </trkpt>
      <trkpt lat="46.30675" lon="-1.29794">
        <ele>4.1</ele>
        <time>2021-06-17T09:20:03Z</time>
      </trkpt>
      <trkpt lat="46.30676" lon="-1.29794">
        <ele>4.1</ele>
        <time>2021-06-17T09:20:04Z</time>
      </trkpt>
      <trkpt lat="46.30677" lon="-1.29794">
        <ele>4.1</ele>
        <time>2021-06-17T09:20:05Z</time>
      </trkpt>
      <trkpt lat="46.30678" lon="-1.29793">
        <ele>4.1</ele>
        <time>2021-06-17T09:20:06Z</time>
      </trkpt>
      <trkpt lat="46.30679" lon="-1.29793">
        <ele>4.1</ele>
        <time>2021-06-17T09:20:07Z</time>
      </trkpt>
      <trkpt lat="46.3068" lon="-1.29793">
        <ele>4.1</ele>
        <time>2021-06-17T09:20:08Z</time>
      </trkpt>
      <trkpt lat="46.30681" lon="-1.29793">
        <ele>4.1</ele>
        <time>2021-06-17T09:20:09Z</time>
      </trkpt>
      <trkpt lat="46.30682" lon="-1.29793">
        <ele>4.1</ele>
        <time>2021-06-17T09:20:10Z</time>
      </trkpt>
      <trkpt lat="46.30683" lon="-1.29793">
        <ele>4.1</ele>
        <time>2021-06-17T09:20:11Z</time>
      </trkpt>
      <trkpt lat="46.30684" lon="-1.29793">
        <ele>4.1</ele>
        <time>2021-06-17T09:20:12Z</time>
      </trkpt>
      <trkpt lat="46.30685" lon="-1.29792">
        <ele>4.1</ele>
        <time>2021-06-17T09:20:13Z</time>
      </trkpt>
      <trkpt lat="46.30686" lon="-1.29792">
        <ele>4.1</ele>
        <time>2021-06-17T09:20:14Z</time>
      </trkpt>
      <trkpt lat="46.30687" lon="-1.29792">
        <ele>4.1</ele>
        <time>2021-06-17T09:20:15Z</time>
      </trkpt>
      <trkpt lat="46.30688" lon="-1.29792">
        <ele>4.1</ele>
        <time>2021-06-17T09:20:16Z</time>
      </trkpt>
      <trkpt lat="46.30689" lon="-1.29792">
        <ele>4.1</ele>
        <time>2021-06-17T09:20:17Z</time>
      </trkpt>
      <trkpt lat="46.3069" lon="-1.29792">
        <ele>4.1</ele>
        <time>2021-06-17T09:20:18Z</time>
      </trkpt>
      <trkpt lat="46.30691" lon="-1.29791">
        <ele>4.1</ele>
        <time>2021-06-17T09:20:19Z</time>
      </trkpt>
      <trkpt lat="46.30692" lon="-1.29791">
        <ele>4.1</ele>
        <time>2021-06-17T09:20:20Z</time>
      </trkpt>
      <trkpt lat="46.30693" lon="-1.29791">
        <ele>4.2</ele>
        <time>2021-06-17T09:20:21Z</time>
      </trkpt>
      <trkpt lat="46.30695" lon="-1.29791">
        <ele>4.2</ele>
        <time>2021-06-17T09:20:22Z</time>
      </trkpt>
      <trkpt lat="46.30696" lon="-1.29791">
        <ele>4.2</ele>
        <time>2021-06-17T09:20:23Z</time>
      </trkpt>
      <trkpt lat="46.30697" lon="-1.2979">
        <ele>4.2</ele>
        <time>2021-06-17T09:20:24Z</time>
      </trkpt>
      <trkpt lat="46.30698" lon="-1.2979">
        <ele>4.2</ele>
        <time>2021-06-17T09:20:25Z</time>
      </trkpt>
      <trkpt lat="46.30699" lon="-1.2979">
        <ele>4.2</ele>
        <time>2021-06-17T09:20:26Z</time>
      </trkpt>
      <trkpt lat="46.30701" lon="-1.29789">
        <ele>4.2</ele>
        <time>2021-06-17T09:20:27Z</time>
      </trkpt>
      <trkpt lat="46.30702" lon="-1.29789">
        <ele>4.2</ele>
        <time>2021-06-17T09:20:28Z</time>
      </trkpt>
      <trkpt lat="46.30703" lon="-1.29789">
        <ele>4.3</ele>
        <time>2021-06-17T09:20:29Z</time>
      </trkpt>
      <trkpt lat="46.30704" lon="-1.29789">
        <ele>4.3</ele>
        <time>2021-06-17T09:20:30Z</time>
      </trkpt>
      <trkpt lat="46.30705" lon="-1.29789">
        <ele>4.3</ele>
        <time>2021-06-17T09:20:31Z</time>
      </trkpt>
      <trkpt lat="46.30706" lon="-1.29788">
        <ele>4.3</ele>
        <time>2021-06-17T09:20:32Z</time>
      </trkpt>
      <trkpt lat="46.30707" lon="-1.29788">
        <ele>4.3</ele>
        <time>2021-06-17T09:20:33Z</time>
      </trkpt>
      <trkpt lat="46.30708" lon="-1.29788">
        <ele>4.3</ele>
        <time>2021-06-17T09:20:34Z</time>
      </trkpt>
      <trkpt lat="46.30708" lon="-1.29788">
        <ele>4.3</ele>
        <time>2021-06-17T09:20:35Z</time>
      </trkpt>
      <trkpt lat="46.30709" lon="-1.29788">
        <ele>4.3</ele>
        <time>2021-06-17T09:20:36Z</time>
      </trkpt>
      <trkpt lat="46.3071" lon="-1.29788">
        <ele>4.3</ele>
        <time>2021-06-17T09:20:37Z</time>
      </trkpt>
      <trkpt lat="46.30711" lon="-1.29788">
        <ele>4.3</ele>
        <time>2021-06-17T09:20:38Z</time>
      </trkpt>
      <trkpt lat="46.30711" lon="-1.29788">
        <ele>4.3</ele>
        <time>2021-06-17T09:20:39Z</time>
      </trkpt>
      <trkpt lat="46.30712" lon="-1.29788">
        <ele>4.4</ele>
        <time>2021-06-17T09:20:40Z</time>
      </trkpt>
      <trkpt lat="46.30714" lon="-1.29788">
        <ele>4.4</ele>
        <time>2021-06-17T09:20:41Z</time>
      </trkpt>
      <trkpt lat="46.30715" lon="-1.29788">
        <ele>4.4</ele>
        <time>2021-06-17T09:20:42Z</time>
      </trkpt>
      <trkpt lat="46.30716" lon="-1.29788">
        <ele>4.4</ele>
        <time>2021-06-17T09:20:43Z</time>
      </trkpt>
      <trkpt lat="46.30717" lon="-1.29788">
        <ele>4.4</ele>
        <time>2021-06-17T09:20:44Z</time>
      </trkpt>
      <trkpt lat="46.30718" lon="-1.29788">
        <ele>4.4</ele>
        <time>2021-06-17T09:20:45Z</time>
      </trkpt>
      <trkpt lat="46.30719" lon="-1.29788">
        <ele>4.4</ele>
        <time>2021-06-17T09:20:46Z</time>
      </trkpt>
      <trkpt lat="46.3072" lon="-1.29788">
        <ele>4.4</ele>
        <time>2021-06-17T09:20:47Z</time>
      </trkpt>
      <trkpt lat="46.30721" lon="-1.29788">
        <ele>4.4</ele>
        <time>2021-06-17T09:20:48Z</time>
      </trkpt>
      <trkpt lat="46.30722" lon="-1.29787">
        <ele>4.4</ele>
        <time>2021-06-17T09:20:49Z</time>
      </trkpt>
      <trkpt lat="46.30722" lon="-1.29787">
        <ele>4.4</ele>
        <time>2021-06-17T09:20:50Z</time>
      </trkpt>
      <trkpt lat="46.30723" lon="-1.29787">
        <ele>4.4</ele>
        <time>2021-06-17T09:20:51Z</time>
      </trkpt>
      <trkpt lat="46.30724" lon="-1.29787">
        <ele>4.4</ele>
        <time>2021-06-17T09:20:52Z</time>
      </trkpt>
      <trkpt lat="46.30724" lon="-1.29787">
        <ele>4.4</ele>
        <time>2021-06-17T09:20:53Z</time>
      </trkpt>
      <trkpt lat="46.30725" lon="-1.29788">
        <ele>4.5</ele>
        <time>2021-06-17T09:20:54Z</time>
      </trkpt>
      <trkpt lat="46.30726" lon="-1.29788">
        <ele>4.5</ele>
        <time>2021-06-17T09:20:55Z</time>
      </trkpt>
      <trkpt lat="46.30726" lon="-1.29788">
        <ele>4.5</ele>
        <time>2021-06-17T09:20:56Z</time>
      </trkpt>
      <trkpt lat="46.30727" lon="-1.29788">
        <ele>4.5</ele>
        <time>2021-06-17T09:20:57Z</time>
      </trkpt>
      <trkpt lat="46.30728" lon="-1.29788">
        <ele>4.5</ele>
        <time>2021-06-17T09:20:58Z</time>
      </trkpt>
      <trkpt lat="46.30729" lon="-1.29788">
        <ele>4.5</ele>
        <time>2021-06-17T09:20:59Z</time>
      </trkpt>
      <trkpt lat="46.30731" lon="-1.29787">
        <ele>4.5</ele>
        <time>2021-06-17T09:21:00Z</time>
      </trkpt>
      <trkpt lat="46.30732" lon="-1.29787">
        <ele>4.5</ele>
        <time>2021-06-17T09:21:01Z</time>
      </trkpt>
      <trkpt lat="46.30733" lon="-1.29787">
        <ele>4.5</ele>
        <time>2021-06-17T09:21:02Z</time>
      </trkpt>
      <trkpt lat="46.30734" lon="-1.29787">
        <ele>4.5</ele>
        <time>2021-06-17T09:21:03Z</time>
      </trkpt>
      <trkpt lat="46.30735" lon="-1.29787">
        <ele>4.5</ele>
        <time>2021-06-17T09:21:04Z</time>
      </trkpt>
      <trkpt lat="46.30737" lon="-1.29786">
        <ele>4.5</ele>
        <time>2021-06-17T09:21:05Z</time>
      </trkpt>
      <trkpt lat="46.30738" lon="-1.29787">
        <ele>4.5</ele>
        <time>2021-06-17T09:21:06Z</time>
      </trkpt>
      <trkpt lat="46.30739" lon="-1.29787">
        <ele>4.5</ele>
        <time>2021-06-17T09:21:07Z</time>
      </trkpt>
      <trkpt lat="46.3074" lon="-1.29787">
        <ele>4.5</ele>
        <time>2021-06-17T09:21:08Z</time>
      </trkpt>
      <trkpt lat="46.30741" lon="-1.29788">
        <ele>4.5</ele>
        <time>2021-06-17T09:21:09Z</time>
      </trkpt>
      <trkpt lat="46.30742" lon="-1.29789">
        <ele>4.5</ele>
        <time>2021-06-17T09:21:10Z</time>
      </trkpt>
      <trkpt lat="46.30742" lon="-1.2979">
        <ele>4.5</ele>
        <time>2021-06-17T09:21:11Z</time>
      </trkpt>
      <trkpt lat="46.30743" lon="-1.29791">
        <ele>4.5</ele>
        <time>2021-06-17T09:21:12Z</time>
      </trkpt>
      <trkpt lat="46.30744" lon="-1.29792">
        <ele>4.5</ele>
        <time>2021-06-17T09:21:13Z</time>
      </trkpt>
      <trkpt lat="46.30745" lon="-1.29793">
        <ele>4.5</ele>
        <time>2021-06-17T09:21:14Z</time>
      </trkpt>
      <trkpt lat="46.30746" lon="-1.29795">
        <ele>4.5</ele>
        <time>2021-06-17T09:21:15Z</time>
      </trkpt>
      <trkpt lat="46.30746" lon="-1.29796">
        <ele>4.5</ele>
        <time>2021-06-17T09:21:16Z</time>
      </trkpt>
      <trkpt lat="46.30747" lon="-1.29797">
        <ele>4.5</ele>
        <time>2021-06-17T09:21:17Z</time>
      </trkpt>
      <trkpt lat="46.30748" lon="-1.29798">
        <ele>4.5</ele>
        <time>2021-06-17T09:21:18Z</time>
      </trkpt>
      <trkpt lat="46.30749" lon="-1.29799">
        <ele>4.5</ele>
        <time>2021-06-17T09:21:19Z</time>
      </trkpt>
      <trkpt lat="46.3075" lon="-1.298">
        <ele>4.5</ele>
        <time>2021-06-17T09:21:20Z</time>
      </trkpt>
      <trkpt lat="46.30751" lon="-1.29801">
        <ele>4.5</ele>
        <time>2021-06-17T09:21:21Z</time>
      </trkpt>
      <trkpt lat="46.30752" lon="-1.29802">
        <ele>4.5</ele>
        <time>2021-06-17T09:21:22Z</time>
      </trkpt>
      <trkpt lat="46.30753" lon="-1.29802">
        <ele>4.5</ele>
        <time>2021-06-17T09:21:23Z</time>
      </trkpt>
      <trkpt lat="46.30754" lon="-1.29803">
        <ele>4.4</ele>
        <time>2021-06-17T09:21:24Z</time>
      </trkpt>
      <trkpt lat="46.30756" lon="-1.29804">
        <ele>4.4</ele>
        <time>2021-06-17T09:21:25Z</time>
      </trkpt>
      <trkpt lat="46.30757" lon="-1.29805">
        <ele>4.4</ele>
        <time>2021-06-17T09:21:26Z</time>
      </trkpt>
      <trkpt lat="46.30758" lon="-1.29805">
        <ele>4.4</ele>
        <time>2021-06-17T09:21:27Z</time>
      </trkpt>
      <trkpt lat="46.30759" lon="-1.29806">
        <ele>4.4</ele>
        <time>2021-06-17T09:21:28Z</time>
      </trkpt>
      <trkpt lat="46.3076" lon="-1.29806">
        <ele>4.4</ele>
        <time>2021-06-17T09:21:29Z</time>
      </trkpt>
      <trkpt lat="46.30761" lon="-1.29807">
        <ele>4.4</ele>
        <time>2021-06-17T09:21:30Z</time>
      </trkpt>
      <trkpt lat="46.30762" lon="-1.29808">
        <ele>4.4</ele>
        <time>2021-06-17T09:21:31Z</time>
      </trkpt>
      <trkpt lat="46.30763" lon="-1.29808">
        <ele>4.4</ele>
        <time>2021-06-17T09:21:32Z</time>
      </trkpt>
      <trkpt lat="46.30764" lon="-1.29809">
        <ele>4.4</ele>
        <time>2021-06-17T09:21:33Z</time>
      </trkpt>
      <trkpt lat="46.30764" lon="-1.2981">
        <ele>4.4</ele>
        <time>2021-06-17T09:21:34Z</time>
      </trkpt>
      <trkpt lat="46.30765" lon="-1.2981">
        <ele>4.4</ele>
        <time>2021-06-17T09:21:35Z</time>
      </trkpt>
      <trkpt lat="46.30766" lon="-1.29811">
        <ele>4.4</ele>
        <time>2021-06-17T09:21:36Z</time>
      </trkpt>
      <trkpt lat="46.30766" lon="-1.29812">
        <ele>4.4</ele>
        <time>2021-06-17T09:21:37Z</time>
      </trkpt>
      <trkpt lat="46.30767" lon="-1.29812">
        <ele>4.4</ele>
        <time>2021-06-17T09:21:38Z</time>
      </trkpt>
      <trkpt lat="46.30768" lon="-1.29813">
        <ele>4.4</ele>
        <time>2021-06-17T09:21:39Z</time>
      </trkpt>
      <trkpt lat="46.30768" lon="-1.29813">
        <ele>4.4</ele>
        <time>2021-06-17T09:21:40Z</time>
      </trkpt>
      <trkpt lat="46.30768" lon="-1.29813">
        <ele>4.4</ele>
        <time>2021-06-17T09:21:41Z</time>
      </trkpt>
      <trkpt lat="46.30769" lon="-1.29814">
        <ele>4.4</ele>
        <time>2021-06-17T09:21:42Z</time>
      </trkpt>
      <trkpt lat="46.30769" lon="-1.29814">
        <ele>4.4</ele>
        <time>2021-06-17T09:21:43Z</time>
      </trkpt>
      <trkpt lat="46.30769" lon="-1.29814">
        <ele>4.4</ele>
        <time>2021-06-17T09:21:44Z</time>
      </trkpt>
      <trkpt lat="46.30769" lon="-1.29815">
        <ele>4.4</ele>
        <time>2021-06-17T09:21:45Z</time>
      </trkpt>
      <trkpt lat="46.30769" lon="-1.29815">
        <ele>4.4</ele>
        <time>2021-06-17T09:21:46Z</time>
      </trkpt>
      <trkpt lat="46.3077" lon="-1.29815">
        <ele>4.4</ele>
        <time>2021-06-17T09:21:47Z</time>
      </trkpt>
      <trkpt lat="46.3077" lon="-1.29815">
        <ele>4.4</ele>
        <time>2021-06-17T09:21:48Z</time>
      </trkpt>
      <trkpt lat="46.3077" lon="-1.29815">
        <ele>4.4</ele>
        <time>2021-06-17T09:21:49Z</time>
      </trkpt>
      <trkpt lat="46.3077" lon="-1.29815">
        <ele>4.4</ele>
        <time>2021-06-17T09:21:50Z</time>
      </trkpt>
      <trkpt lat="46.3077" lon="-1.29815">
        <ele>4.4</ele>
        <time>2021-06-17T09:21:51Z</time>
      </trkpt>
      <trkpt lat="46.3077" lon="-1.29815">
        <ele>4.4</ele>
        <time>2021-06-17T09:21:52Z</time>
      </trkpt>
      <trkpt lat="46.3077" lon="-1.29815">
        <ele>4.4</ele>
        <time>2021-06-17T09:21:53Z</time>
      </trkpt>
      <trkpt lat="46.3077" lon="-1.29815">
        <ele>4.4</ele>
        <time>2021-06-17T09:21:54Z</time>
      </trkpt>
      <trkpt lat="46.3077" lon="-1.29815">
        <ele>4.4</ele>
        <time>2021-06-17T09:21:55Z</time>
      </trkpt>
      <trkpt lat="46.3077" lon="-1.29815">
        <ele>4.4</ele>
        <time>2021-06-17T09:21:56Z</time>
      </trkpt>
      <trkpt lat="46.3077" lon="-1.29815">
        <ele>4.4</ele>
        <time>2021-06-17T09:21:57Z</time>
      </trkpt>
      <trkpt lat="46.3077" lon="-1.29815">
        <ele>4.4</ele>
        <time>2021-06-17T09:21:58Z</time>
      </trkpt>
      <trkpt lat="46.3077" lon="-1.29815">
        <ele>4.4</ele>
        <time>2021-06-17T09:21:59Z</time>
      </trkpt>
      <trkpt lat="46.3077" lon="-1.29815">
        <ele>4.4</ele>
        <time>2021-06-17T09:22:00Z</time>
      </trkpt>
      <trkpt lat="46.3077" lon="-1.29815">
        <ele>4.4</ele>
        <time>2021-06-17T09:22:01Z</time>
      </trkpt>
      <trkpt lat="46.3077" lon="-1.29815">
        <ele>4.4</ele>
        <time>2021-06-17T09:22:02Z</time>
      </trkpt>
      <trkpt lat="46.3077" lon="-1.29815">
        <ele>4.4</ele>
        <time>2021-06-17T09:22:03Z</time>
      </trkpt>
      <trkpt lat="46.3077" lon="-1.29815">
        <ele>4.4</ele>
        <time>2021-06-17T09:22:04Z</time>
      </trkpt>
      <trkpt lat="46.3077" lon="-1.29815">
        <ele>4.4</ele>
        <time>2021-06-17T09:22:05Z</time>
      </trkpt>
      <trkpt lat="46.3077" lon="-1.29815">
        <ele>4.4</ele>
        <time>2021-06-17T09:22:06Z</time>
      </trkpt>
      <trkpt lat="46.3077" lon="-1.29815">
        <ele>4.4</ele>
        <time>2021-06-17T09:22:07Z</time>
      </trkpt>
      <trkpt lat="46.30771" lon="-1.29816">
        <ele>4.4</ele>
        <time>2021-06-17T09:22:08Z</time>
      </trkpt>
      <trkpt lat="46.30773" lon="-1.29817">
        <ele>4.4</ele>
        <time>2021-06-17T09:22:09Z</time>
      </trkpt>
      <trkpt lat="46.30774" lon="-1.29817">
        <ele>4.4</ele>
        <time>2021-06-17T09:22:10Z</time>
      </trkpt>
      <trkpt lat="46.30775" lon="-1.29818">
        <ele>4.4</ele>
        <time>2021-06-17T09:22:11Z</time>
      </trkpt>
      <trkpt lat="46.30776" lon="-1.29819">
        <ele>4.4</ele>
        <time>2021-06-17T09:22:12Z</time>
      </trkpt>
      <trkpt lat="46.30777" lon="-1.29819">
        <ele>4.4</ele>
        <time>2021-06-17T09:22:13Z</time>
      </trkpt>
      <trkpt lat="46.30778" lon="-1.2982">
        <ele>4.4</ele>
        <time>2021-06-17T09:22:14Z</time>
      </trkpt>
      <trkpt lat="46.30779" lon="-1.2982">
        <ele>4.4</ele>
        <time>2021-06-17T09:22:15Z</time>
      </trkpt>
      <trkpt lat="46.3078" lon="-1.29821">
        <ele>4.4</ele>
        <time>2021-06-17T09:22:16Z</time>
      </trkpt>
      <trkpt lat="46.30781" lon="-1.29821">
        <ele>4.4</ele>
        <time>2021-06-17T09:22:17Z</time>
      </trkpt>
      <trkpt lat="46.30782" lon="-1.29822">
        <ele>4.4</ele>
        <time>2021-06-17T09:22:18Z</time>
      </trkpt>
      <trkpt lat="46.30783" lon="-1.29822">
        <ele>4.4</ele>
        <time>2021-06-17T09:22:19Z</time>
      </trkpt>
      <trkpt lat="46.30785" lon="-1.29822">
        <ele>4.4</ele>
        <time>2021-06-17T09:22:20Z</time>
      </trkpt>
      <trkpt lat="46.30786" lon="-1.29823">
        <ele>4.5</ele>
        <time>2021-06-17T09:22:21Z</time>
      </trkpt>
      <trkpt lat="46.30787" lon="-1.29823">
        <ele>4.5</ele>
        <time>2021-06-17T09:22:22Z</time>
      </trkpt>
      <trkpt lat="46.30788" lon="-1.29824">
        <ele>4.5</ele>
        <time>2021-06-17T09:22:23Z</time>
      </trkpt>
      <trkpt lat="46.3079" lon="-1.29824">
        <ele>4.6</ele>
        <time>2021-06-17T09:22:24Z</time>
      </trkpt>
      <trkpt lat="46.30791" lon="-1.29824">
        <ele>4.6</ele>
        <time>2021-06-17T09:22:25Z</time>
      </trkpt>
      <trkpt lat="46.30792" lon="-1.29825">
        <ele>4.6</ele>
        <time>2021-06-17T09:22:26Z</time>
      </trkpt>
      <trkpt lat="46.30793" lon="-1.29826">
        <ele>4.6</ele>
        <time>2021-06-17T09:22:27Z</time>
      </trkpt>
      <trkpt lat="46.30794" lon="-1.29826">
        <ele>4.7</ele>
        <time>2021-06-17T09:22:28Z</time>
      </trkpt>
      <trkpt lat="46.30795" lon="-1.29827">
        <ele>4.7</ele>
        <time>2021-06-17T09:22:29Z</time>
      </trkpt>
      <trkpt lat="46.30796" lon="-1.29828">
        <ele>4.7</ele>
        <time>2021-06-17T09:22:30Z</time>
      </trkpt>
      <trkpt lat="46.30797" lon="-1.29829">
        <ele>4.7</ele>
        <time>2021-06-17T09:22:31Z</time>
      </trkpt>
      <trkpt lat="46.30797" lon="-1.2983">
        <ele>4.8</ele>
        <time>2021-06-17T09:22:32Z</time>
      </trkpt>
      <trkpt lat="46.30798" lon="-1.29831">
        <ele>4.8</ele>
        <time>2021-06-17T09:22:33Z</time>
      </trkpt>
      <trkpt lat="46.30799" lon="-1.29832">
        <ele>4.8</ele>
        <time>2021-06-17T09:22:34Z</time>
      </trkpt>
      <trkpt lat="46.30799" lon="-1.29833">
        <ele>4.8</ele>
        <time>2021-06-17T09:22:35Z</time>
      </trkpt>
      <trkpt lat="46.308" lon="-1.29834">
        <ele>4.8</ele>
        <time>2021-06-17T09:22:36Z</time>
      </trkpt>
      <trkpt lat="46.30801" lon="-1.29834">
        <ele>4.8</ele>
        <time>2021-06-17T09:22:37Z</time>
      </trkpt>
      <trkpt lat="46.30802" lon="-1.29835">
        <ele>4.8</ele>
        <time>2021-06-17T09:22:38Z</time>
      </trkpt>
      <trkpt lat="46.30802" lon="-1.29836">
        <ele>4.8</ele>
        <time>2021-06-17T09:22:39Z</time>
      </trkpt>
      <trkpt lat="46.30803" lon="-1.29836">
        <ele>4.8</ele>
        <time>2021-06-17T09:22:40Z</time>
      </trkpt>
      <trkpt lat="46.30804" lon="-1.29836">
        <ele>4.8</ele>
        <time>2021-06-17T09:22:41Z</time>
      </trkpt>
      <trkpt lat="46.30805" lon="-1.29837">
        <ele>4.9</ele>
        <time>2021-06-17T09:22:42Z</time>
      </trkpt>
      <trkpt lat="46.30806" lon="-1.29837">
        <ele>4.9</ele>
        <time>2021-06-17T09:22:43Z</time>
      </trkpt>
      <trkpt lat="46.30807" lon="-1.29838">
        <ele>4.9</ele>
        <time>2021-06-17T09:22:44Z</time>
      </trkpt>
      <trkpt lat="46.30809" lon="-1.29838">
        <ele>4.9</ele>
        <time>2021-06-17T09:22:45Z</time>
      </trkpt>
      <trkpt lat="46.3081" lon="-1.29839">
        <ele>4.8</ele>
        <time>2021-06-17T09:22:46Z</time>
      </trkpt>
      <trkpt lat="46.30811" lon="-1.2984">
        <ele>4.8</ele>
        <time>2021-06-17T09:22:47Z</time>
      </trkpt>
      <trkpt lat="46.30813" lon="-1.2984">
        <ele>4.8</ele>
        <time>2021-06-17T09:22:48Z</time>
      </trkpt>
      <trkpt lat="46.30814" lon="-1.29841">
        <ele>4.8</ele>
        <time>2021-06-17T09:22:49Z</time>
      </trkpt>
      <trkpt lat="46.30816" lon="-1.29842">
        <ele>4.8</ele>
        <time>2021-06-17T09:22:50Z</time>
      </trkpt>
      <trkpt lat="46.30817" lon="-1.29842">
        <ele>4.8</ele>
        <time>2021-06-17T09:22:51Z</time>
      </trkpt>
      <trkpt lat="46.30818" lon="-1.29843">
        <ele>4.8</ele>
        <time>2021-06-17T09:22:52Z</time>
      </trkpt>
      <trkpt lat="46.3082" lon="-1.29844">
        <ele>4.8</ele>
        <time>2021-06-17T09:22:53Z</time>
      </trkpt>
      <trkpt lat="46.30821" lon="-1.29845">
        <ele>4.8</ele>
        <time>2021-06-17T09:22:54Z</time>
      </trkpt>
      <trkpt lat="46.30822" lon="-1.29845">
        <ele>4.8</ele>
        <time>2021-06-17T09:22:55Z</time>
      </trkpt>
      <trkpt lat="46.30823" lon="-1.29846">
        <ele>4.8</ele>
        <time>2021-06-17T09:22:56Z</time>
      </trkpt>
      <trkpt lat="46.30825" lon="-1.29847">
        <ele>4.8</ele>
        <time>2021-06-17T09:22:57Z</time>
      </trkpt>
      <trkpt lat="46.30826" lon="-1.29848">
        <ele>4.7</ele>
        <time>2021-06-17T09:22:58Z</time>
      </trkpt>
      <trkpt lat="46.30827" lon="-1.29848">
        <ele>4.7</ele>
        <time>2021-06-17T09:22:59Z</time>
      </trkpt>
      <trkpt lat="46.30828" lon="-1.29849">
        <ele>4.7</ele>
        <time>2021-06-17T09:23:00Z</time>
      </trkpt>
      <trkpt lat="46.30829" lon="-1.2985">
        <ele>4.7</ele>
        <time>2021-06-17T09:23:01Z</time>
      </trkpt>
      <trkpt lat="46.3083" lon="-1.2985">
        <ele>4.7</ele>
        <time>2021-06-17T09:23:02Z</time>
      </trkpt>
      <trkpt lat="46.30831" lon="-1.29851">
        <ele>4.7</ele>
        <time>2021-06-17T09:23:03Z</time>
      </trkpt>
      <trkpt lat="46.30832" lon="-1.29851">
        <ele>4.7</ele>
        <time>2021-06-17T09:23:04Z</time>
      </trkpt>
      <trkpt lat="46.30834" lon="-1.29852">
        <ele>4.7</ele>
        <time>2021-06-17T09:23:05Z</time>
      </trkpt>
      <trkpt lat="46.30835" lon="-1.29852">
        <ele>4.7</ele>
        <time>2021-06-17T09:23:06Z</time>
      </trkpt>
      <trkpt lat="46.30836" lon="-1.29853">
        <ele>4.7</ele>
        <time>2021-06-17T09:23:07Z</time>
      </trkpt>
      <trkpt lat="46.30837" lon="-1.29853">
        <ele>4.7</ele>
        <time>2021-06-17T09:23:08Z</time>
      </trkpt>
      <trkpt lat="46.30838" lon="-1.29854">
        <ele>4.7</ele>
        <time>2021-06-17T09:23:09Z</time>
      </trkpt>
      <trkpt lat="46.30839" lon="-1.29854">
        <ele>4.7</ele>
        <time>2021-06-17T09:23:10Z</time>
      </trkpt>
      <trkpt lat="46.3084" lon="-1.29854">
        <ele>4.7</ele>
        <time>2021-06-17T09:23:11Z</time>
      </trkpt>
      <trkpt lat="46.30841" lon="-1.29855">
        <ele>4.7</ele>
        <time>2021-06-17T09:23:12Z</time>
      </trkpt>
      <trkpt lat="46.30841" lon="-1.29855">
        <ele>4.7</ele>
        <time>2021-06-17T09:23:13Z</time>
      </trkpt>
      <trkpt lat="46.30842" lon="-1.29855">
        <ele>4.7</ele>
        <time>2021-06-17T09:23:14Z</time>
      </trkpt>
      <trkpt lat="46.30844" lon="-1.29856">
        <ele>4.7</ele>
        <time>2021-06-17T09:23:15Z</time>
      </trkpt>
      <trkpt lat="46.30845" lon="-1.29856">
        <ele>4.7</ele>
        <time>2021-06-17T09:23:16Z</time>
      </trkpt>
      <trkpt lat="46.30846" lon="-1.29856">
        <ele>4.6</ele>
        <time>2021-06-17T09:23:17Z</time>
      </trkpt>
      <trkpt lat="46.30848" lon="-1.29856">
        <ele>4.6</ele>
        <time>2021-06-17T09:23:18Z</time>
      </trkpt>
      <trkpt lat="46.30849" lon="-1.29856">
        <ele>4.6</ele>
        <time>2021-06-17T09:23:19Z</time>
      </trkpt>
      <trkpt lat="46.3085" lon="-1.29856">
        <ele>4.6</ele>
        <time>2021-06-17T09:23:20Z</time>
      </trkpt>
      <trkpt lat="46.30851" lon="-1.29856">
        <ele>4.6</ele>
        <time>2021-06-17T09:23:21Z</time>
      </trkpt>
      <trkpt lat="46.30851" lon="-1.29856">
        <ele>4.6</ele>
        <time>2021-06-17T09:23:22Z</time>
      </trkpt>
      <trkpt lat="46.30851" lon="-1.29856">
        <ele>4.6</ele>
        <time>2021-06-17T09:23:23Z</time>
      </trkpt>
      <trkpt lat="46.30851" lon="-1.29856">
        <ele>4.6</ele>
        <time>2021-06-17T09:23:24Z</time>
      </trkpt>
      <trkpt lat="46.30851" lon="-1.29856">
        <ele>4.6</ele>
        <time>2021-06-17T09:23:25Z</time>
      </trkpt>
      <trkpt lat="46.30851" lon="-1.29856">
        <ele>4.6</ele>
        <time>2021-06-17T09:23:26Z</time>
      </trkpt>
      <trkpt lat="46.30851" lon="-1.29856">
        <ele>4.6</ele>
        <time>2021-06-17T09:23:27Z</time>
      </trkpt>
      <trkpt lat="46.30851" lon="-1.29856">
        <ele>4.6</ele>
        <time>2021-06-17T09:23:28Z</time>
      </trkpt>
      <trkpt lat="46.30851" lon="-1.29856">
        <ele>4.6</ele>
        <time>2021-06-17T09:23:29Z</time>
      </trkpt>
      <trkpt lat="46.30851" lon="-1.29856">
        <ele>4.6</ele>
        <time>2021-06-17T09:23:30Z</time>
      </trkpt>
      <trkpt lat="46.30852" lon="-1.29856">
        <ele>4.6</ele>
        <time>2021-06-17T09:23:31Z</time>
      </trkpt>
      <trkpt lat="46.30852" lon="-1.29856">
        <ele>4.6</ele>
        <time>2021-06-17T09:23:32Z</time>
      </trkpt>
      <trkpt lat="46.30853" lon="-1.29856">
        <ele>4.6</ele>
        <time>2021-06-17T09:23:33Z</time>
      </trkpt>
      <trkpt lat="46.30854" lon="-1.29857">
        <ele>4.6</ele>
        <time>2021-06-17T09:23:34Z</time>
      </trkpt>
      <trkpt lat="46.30854" lon="-1.29857">
        <ele>4.6</ele>
        <time>2021-06-17T09:23:35Z</time>
      </trkpt>
      <trkpt lat="46.30855" lon="-1.29857">
        <ele>4.6</ele>
        <time>2021-06-17T09:23:36Z</time>
      </trkpt>
      <trkpt lat="46.30856" lon="-1.29857">
        <ele>4.6</ele>
        <time>2021-06-17T09:23:37Z</time>
      </trkpt>
      <trkpt lat="46.30857" lon="-1.29857">
        <ele>4.6</ele>
        <time>2021-06-17T09:23:38Z</time>
      </trkpt>
      <trkpt lat="46.30858" lon="-1.29857">
        <ele>4.6</ele>
        <time>2021-06-17T09:23:39Z</time>
      </trkpt>
      <trkpt lat="46.30858" lon="-1.29857">
        <ele>4.6</ele>
        <time>2021-06-17T09:23:40Z</time>
      </trkpt>
      <trkpt lat="46.30859" lon="-1.29857">
        <ele>4.6</ele>
        <time>2021-06-17T09:23:41Z</time>
      </trkpt>
      <trkpt lat="46.30859" lon="-1.29857">
        <ele>4.6</ele>
        <time>2021-06-17T09:23:42Z</time>
      </trkpt>
      <trkpt lat="46.30859" lon="-1.29857">
        <ele>4.6</ele>
        <time>2021-06-17T09:23:43Z</time>
      </trkpt>
      <trkpt lat="46.30859" lon="-1.29857">
        <ele>4.6</ele>
        <time>2021-06-17T09:23:44Z</time>
      </trkpt>
      <trkpt lat="46.30859" lon="-1.29857">
        <ele>4.6</ele>
        <time>2021-06-17T09:23:45Z</time>
      </trkpt>
      <trkpt lat="46.30859" lon="-1.29857">
        <ele>4.6</ele>
        <time>2021-06-17T09:23:46Z</time>
      </trkpt>
      <trkpt lat="46.30859" lon="-1.29857">
        <ele>4.6</ele>
        <time>2021-06-17T09:23:47Z</time>
      </trkpt>
      <trkpt lat="46.30859" lon="-1.29857">
        <ele>4.6</ele>
        <time>2021-06-17T09:23:48Z</time>
      </trkpt>
      <trkpt lat="46.30859" lon="-1.29857">
        <ele>4.6</ele>
        <time>2021-06-17T09:23:49Z</time>
      </trkpt>
      <trkpt lat="46.30859" lon="-1.29857">
        <ele>4.6</ele>
        <time>2021-06-17T09:23:50Z</time>
      </trkpt>
      <trkpt lat="46.30859" lon="-1.29857">
        <ele>4.6</ele>
        <time>2021-06-17T09:23:51Z</time>
      </trkpt>
      <trkpt lat="46.30859" lon="-1.29857">
        <ele>4.6</ele>
        <time>2021-06-17T09:23:52Z</time>
      </trkpt>
      <trkpt lat="46.30859" lon="-1.29857">
        <ele>4.6</ele>
        <time>2021-06-17T09:23:53Z</time>
      </trkpt>
      <trkpt lat="46.3086" lon="-1.29857">
        <ele>4.6</ele>
        <time>2021-06-17T09:23:54Z</time>
      </trkpt>
      <trkpt lat="46.3086" lon="-1.29858">
        <ele>4.6</ele>
        <time>2021-06-17T09:23:55Z</time>
      </trkpt>
      <trkpt lat="46.30861" lon="-1.29858">
        <ele>4.6</ele>
        <time>2021-06-17T09:23:56Z</time>
      </trkpt>
      <trkpt lat="46.30861" lon="-1.29858">
        <ele>4.6</ele>
        <time>2021-06-17T09:23:57Z</time>
      </trkpt>
      <trkpt lat="46.30862" lon="-1.29858">
        <ele>4.6</ele>
        <time>2021-06-17T09:23:58Z</time>
      </trkpt>
      <trkpt lat="46.30863" lon="-1.29858">
        <ele>4.5</ele>
        <time>2021-06-17T09:23:59Z</time>
      </trkpt>
      <trkpt lat="46.30864" lon="-1.29859">
        <ele>4.5</ele>
        <time>2021-06-17T09:24:00Z</time>
      </trkpt>
      <trkpt lat="46.30865" lon="-1.29859">
        <ele>4.5</ele>
        <time>2021-06-17T09:24:01Z</time>
      </trkpt>
      <trkpt lat="46.30867" lon="-1.29859">
        <ele>4.5</ele>
        <time>2021-06-17T09:24:02Z</time>
      </trkpt>
      <trkpt lat="46.30868" lon="-1.29859">
        <ele>4.5</ele>
        <time>2021-06-17T09:24:03Z</time>
      </trkpt>
      <trkpt lat="46.30869" lon="-1.2986">
        <ele>4.5</ele>
        <time>2021-06-17T09:24:04Z</time>
      </trkpt>
      <trkpt lat="46.3087" lon="-1.2986">
        <ele>4.5</ele>
        <time>2021-06-17T09:24:05Z</time>
      </trkpt>
      <trkpt lat="46.30872" lon="-1.2986">
        <ele>4.5</ele>
        <time>2021-06-17T09:24:06Z</time>
      </trkpt>
      <trkpt lat="46.30873" lon="-1.29861">
        <ele>4.5</ele>
        <time>2021-06-17T09:24:07Z</time>
      </trkpt>
      <trkpt lat="46.30874" lon="-1.29861">
        <ele>4.5</ele>
        <time>2021-06-17T09:24:08Z</time>
      </trkpt>
      <trkpt lat="46.30876" lon="-1.29861">
        <ele>4.5</ele>
        <time>2021-06-17T09:24:09Z</time>
      </trkpt>
      <trkpt lat="46.30877" lon="-1.29861">
        <ele>4.5</ele>
        <time>2021-06-17T09:24:10Z</time>
      </trkpt>
      <trkpt lat="46.30878" lon="-1.29861">
        <ele>4.5</ele>
        <time>2021-06-17T09:24:11Z</time>
      </trkpt>
      <trkpt lat="46.30879" lon="-1.29862">
        <ele>4.5</ele>
        <time>2021-06-17T09:24:12Z</time>
      </trkpt>
      <trkpt lat="46.3088" lon="-1.29862">
        <ele>4.4</ele>
        <time>2021-06-17T09:24:13Z</time>
      </trkpt>
      <trkpt lat="46.30882" lon="-1.29862">
        <ele>4.4</ele>
        <time>2021-06-17T09:24:14Z</time>
      </trkpt>
      <trkpt lat="46.30883" lon="-1.29862">
        <ele>4.4</ele>
        <time>2021-06-17T09:24:15Z</time>
      </trkpt>
      <trkpt lat="46.30884" lon="-1.29862">
        <ele>4.4</ele>
        <time>2021-06-17T09:24:16Z</time>
      </trkpt>
      <trkpt lat="46.30886" lon="-1.29862">
        <ele>4.4</ele>
        <time>2021-06-17T09:24:17Z</time>
      </trkpt>
      <trkpt lat="46.30887" lon="-1.29862">
        <ele>4.4</ele>
        <time>2021-06-17T09:24:18Z</time>
      </trkpt>
      <trkpt lat="46.30888" lon="-1.29863">
        <ele>4.4</ele>
        <time>2021-06-17T09:24:19Z</time>
      </trkpt>
      <trkpt lat="46.30889" lon="-1.29863">
        <ele>4.4</ele>
        <time>2021-06-17T09:24:20Z</time>
      </trkpt>
      <trkpt lat="46.3089" lon="-1.29863">
        <ele>4.4</ele>
        <time>2021-06-17T09:24:21Z</time>
      </trkpt>
      <trkpt lat="46.30891" lon="-1.29864">
        <ele>4.4</ele>
        <time>2021-06-17T09:24:22Z</time>
      </trkpt>
      <trkpt lat="46.30892" lon="-1.29864">
        <ele>4.4</ele>
        <time>2021-06-17T09:24:23Z</time>
      </trkpt>
      <trkpt lat="46.30892" lon="-1.29864">
        <ele>4.4</ele>
        <time>2021-06-17T09:24:24Z</time>
      </trkpt>
      <trkpt lat="46.30893" lon="-1.29865">
        <ele>4.4</ele>
        <time>2021-06-17T09:24:25Z</time>
      </trkpt>
      <trkpt lat="46.30894" lon="-1.29865">
        <ele>4.4</ele>
        <time>2021-06-17T09:24:26Z</time>
      </trkpt>
      <trkpt lat="46.30894" lon="-1.29865">
        <ele>4.3</ele>
        <time>2021-06-17T09:24:27Z</time>
      </trkpt>
      <trkpt lat="46.30895" lon="-1.29866">
        <ele>4.3</ele>
        <time>2021-06-17T09:24:28Z</time>
      </trkpt>
      <trkpt lat="46.30896" lon="-1.29866">
        <ele>4.3</ele>
        <time>2021-06-17T09:24:29Z</time>
      </trkpt>
      <trkpt lat="46.30897" lon="-1.29866">
        <ele>4.3</ele>
        <time>2021-06-17T09:24:30Z</time>
      </trkpt>
      <trkpt lat="46.30898" lon="-1.29866">
        <ele>4.3</ele>
        <time>2021-06-17T09:24:31Z</time>
      </trkpt>
      <trkpt lat="46.30899" lon="-1.29866">
        <ele>4.3</ele>
        <time>2021-06-17T09:24:32Z</time>
      </trkpt>
      <trkpt lat="46.309" lon="-1.29867">
        <ele>4.3</ele>
        <time>2021-06-17T09:24:33Z</time>
      </trkpt>
      <trkpt lat="46.30901" lon="-1.29867">
        <ele>4.3</ele>
        <time>2021-06-17T09:24:34Z</time>
      </trkpt>
      <trkpt lat="46.30902" lon="-1.29867">
        <ele>4.3</ele>
        <time>2021-06-17T09:24:35Z</time>
      </trkpt>
      <trkpt lat="46.30902" lon="-1.29867">
        <ele>4.3</ele>
        <time>2021-06-17T09:24:36Z</time>
      </trkpt>
      <trkpt lat="46.30903" lon="-1.29867">
        <ele>4.3</ele>
        <time>2021-06-17T09:24:37Z</time>
      </trkpt>
      <trkpt lat="46.30904" lon="-1.29867">
        <ele>4.3</ele>
        <time>2021-06-17T09:24:38Z</time>
      </trkpt>
      <trkpt lat="46.30905" lon="-1.29868">
        <ele>4.3</ele>
        <time>2021-06-17T09:24:39Z</time>
      </trkpt>
      <trkpt lat="46.30906" lon="-1.29868">
        <ele>4.3</ele>
        <time>2021-06-17T09:24:40Z</time>
      </trkpt>
      <trkpt lat="46.30907" lon="-1.29868">
        <ele>4.3</ele>
        <time>2021-06-17T09:24:41Z</time>
      </trkpt>
      <trkpt lat="46.30908" lon="-1.29868">
        <ele>4.3</ele>
        <time>2021-06-17T09:24:42Z</time>
      </trkpt>
      <trkpt lat="46.3091" lon="-1.29869">
        <ele>4.3</ele>
        <time>2021-06-17T09:24:43Z</time>
      </trkpt>
      <trkpt lat="46.30911" lon="-1.29869">
        <ele>4.3</ele>
        <time>2021-06-17T09:24:44Z</time>
      </trkpt>
      <trkpt lat="46.30912" lon="-1.29869">
        <ele>4.3</ele>
        <time>2021-06-17T09:24:45Z</time>
      </trkpt>
      <trkpt lat="46.30913" lon="-1.2987">
        <ele>4.3</ele>
        <time>2021-06-17T09:24:46Z</time>
      </trkpt>
      <trkpt lat="46.30915" lon="-1.2987">
        <ele>4.3</ele>
        <time>2021-06-17T09:24:47Z</time>
      </trkpt>
      <trkpt lat="46.30916" lon="-1.29871">
        <ele>4.3</ele>
        <time>2021-06-17T09:24:48Z</time>
      </trkpt>
      <trkpt lat="46.30918" lon="-1.29871">
        <ele>4.3</ele>
        <time>2021-06-17T09:24:49Z</time>
      </trkpt>
      <trkpt lat="46.30919" lon="-1.29871">
        <ele>4.3</ele>
        <time>2021-06-17T09:24:50Z</time>
      </trkpt>
      <trkpt lat="46.3092" lon="-1.29872">
        <ele>4.3</ele>
        <time>2021-06-17T09:24:51Z</time>
      </trkpt>
      <trkpt lat="46.30922" lon="-1.29872">
        <ele>4.3</ele>
        <time>2021-06-17T09:24:52Z</time>
      </trkpt>
      <trkpt lat="46.30923" lon="-1.29873">
        <ele>4.3</ele>
        <time>2021-06-17T09:24:53Z</time>
      </trkpt>
      <trkpt lat="46.30925" lon="-1.29873">
        <ele>4.3</ele>
        <time>2021-06-17T09:24:54Z</time>
      </trkpt>
      <trkpt lat="46.30926" lon="-1.29874">
        <ele>4.3</ele>
        <time>2021-06-17T09:24:55Z</time>
      </trkpt>
      <trkpt lat="46.30927" lon="-1.29874">
        <ele>4.3</ele>
        <time>2021-06-17T09:24:56Z</time>
      </trkpt>
      <trkpt lat="46.30929" lon="-1.29875">
        <ele>4.3</ele>
        <time>2021-06-17T09:24:57Z</time>
      </trkpt>
      <trkpt lat="46.3093" lon="-1.29875">
        <ele>4.3</ele>
        <time>2021-06-17T09:24:58Z</time>
      </trkpt>
      <trkpt lat="46.30931" lon="-1.29876">
        <ele>4.3</ele>
        <time>2021-06-17T09:24:59Z</time>
      </trkpt>
      <trkpt lat="46.30932" lon="-1.29876">
        <ele>4.3</ele>
        <time>2021-06-17T09:25:00Z</time>
      </trkpt>
      <trkpt lat="46.30934" lon="-1.29876">
        <ele>4.3</ele>
        <time>2021-06-17T09:25:01Z</time>
      </trkpt>
      <trkpt lat="46.30935" lon="-1.29877">
        <ele>4.3</ele>
        <time>2021-06-17T09:25:02Z</time>
      </trkpt>
      <trkpt lat="46.30936" lon="-1.29877">
        <ele>4.3</ele>
        <time>2021-06-17T09:25:03Z</time>
      </trkpt>
      <trkpt lat="46.30937" lon="-1.29878">
        <ele>4.3</ele>
        <time>2021-06-17T09:25:04Z</time>
      </trkpt>
      <trkpt lat="46.30938" lon="-1.29878">
        <ele>4.3</ele>
        <time>2021-06-17T09:25:05Z</time>
      </trkpt>
      <trkpt lat="46.30939" lon="-1.29879">
        <ele>4.3</ele>
        <time>2021-06-17T09:25:06Z</time>
      </trkpt>
      <trkpt lat="46.30941" lon="-1.29879">
        <ele>4.3</ele>
        <time>2021-06-17T09:25:07Z</time>
      </trkpt>
      <trkpt lat="46.30942" lon="-1.29879">
        <ele>4.3</ele>
        <time>2021-06-17T09:25:08Z</time>
      </trkpt>
      <trkpt lat="46.30943" lon="-1.2988">
        <ele>4.3</ele>
        <time>2021-06-17T09:25:09Z</time>
      </trkpt>
      <trkpt lat="46.30944" lon="-1.2988">
        <ele>4.3</ele>
        <time>2021-06-17T09:25:10Z</time>
      </trkpt>
      <trkpt lat="46.30945" lon="-1.2988">
        <ele>4.3</ele>
        <time>2021-06-17T09:25:11Z</time>
      </trkpt>
      <trkpt lat="46.30946" lon="-1.29881">
        <ele>4.3</ele>
        <time>2021-06-17T09:25:12Z</time>
      </trkpt>
      <trkpt lat="46.30948" lon="-1.29881">
        <ele>4.3</ele>
        <time>2021-06-17T09:25:13Z</time>
      </trkpt>
      <trkpt lat="46.30949" lon="-1.29881">
        <ele>4.3</ele>
        <time>2021-06-17T09:25:14Z</time>
      </trkpt>
      <trkpt lat="46.3095" lon="-1.29882">
        <ele>4.2</ele>
        <time>2021-06-17T09:25:15Z</time>
      </trkpt>
      <trkpt lat="46.30951" lon="-1.29882">
        <ele>4.2</ele>
        <time>2021-06-17T09:25:16Z</time>
      </trkpt>
      <trkpt lat="46.30953" lon="-1.29882">
        <ele>4.2</ele>
        <time>2021-06-17T09:25:17Z</time>
      </trkpt>
      <trkpt lat="46.30954" lon="-1.29883">
        <ele>4.2</ele>
        <time>2021-06-17T09:25:18Z</time>
      </trkpt>
      <trkpt lat="46.30955" lon="-1.29883">
        <ele>4.2</ele>
        <time>2021-06-17T09:25:19Z</time>
      </trkpt>
      <trkpt lat="46.30956" lon="-1.29883">
        <ele>4.2</ele>
        <time>2021-06-17T09:25:20Z</time>
      </trkpt>
      <trkpt lat="46.30957" lon="-1.29884">
        <ele>4.2</ele>
        <time>2021-06-17T09:25:21Z</time>
      </trkpt>
      <trkpt lat="46.30959" lon="-1.29884">
        <ele>4.2</ele>
        <time>2021-06-17T09:25:22Z</time>
      </trkpt>
      <trkpt lat="46.3096" lon="-1.29884">
        <ele>4.2</ele>
        <time>2021-06-17T09:25:23Z</time>
      </trkpt>
      <trkpt lat="46.30961" lon="-1.29884">
        <ele>4.1</ele>
        <time>2021-06-17T09:25:24Z</time>
      </trkpt>
      <trkpt lat="46.30962" lon="-1.29885">
        <ele>4.1</ele>
        <time>2021-06-17T09:25:25Z</time>
      </trkpt>
      <trkpt lat="46.30964" lon="-1.29885">
        <ele>4.1</ele>
        <time>2021-06-17T09:25:26Z</time>
      </trkpt>
      <trkpt lat="46.30965" lon="-1.29885">
        <ele>4.1</ele>
        <time>2021-06-17T09:25:27Z</time>
      </trkpt>
      <trkpt lat="46.30966" lon="-1.29885">
        <ele>4.1</ele>
        <time>2021-06-17T09:25:28Z</time>
      </trkpt>
      <trkpt lat="46.30967" lon="-1.29886">
        <ele>4.1</ele>
        <time>2021-06-17T09:25:29Z</time>
      </trkpt>
      <trkpt lat="46.30969" lon="-1.29886">
        <ele>4.1</ele>
        <time>2021-06-17T09:25:30Z</time>
      </trkpt>
      <trkpt lat="46.3097" lon="-1.29886">
        <ele>4.1</ele>
        <time>2021-06-17T09:25:31Z</time>
      </trkpt>
      <trkpt lat="46.30971" lon="-1.29886">
        <ele>4.1</ele>
        <time>2021-06-17T09:25:32Z</time>
      </trkpt>
      <trkpt lat="46.30972" lon="-1.29887">
        <ele>4.1</ele>
        <time>2021-06-17T09:25:33Z</time>
      </trkpt>
      <trkpt lat="46.30974" lon="-1.29887">
        <ele>4.1</ele>
        <time>2021-06-17T09:25:34Z</time>
      </trkpt>
      <trkpt lat="46.30975" lon="-1.29887">
        <ele>4.1</ele>
        <time>2021-06-17T09:25:35Z</time>
      </trkpt>
      <trkpt lat="46.30976" lon="-1.29887">
        <ele>4.1</ele>
        <time>2021-06-17T09:25:36Z</time>
      </trkpt>
      <trkpt lat="46.30978" lon="-1.29888">
        <ele>4.1</ele>
        <time>2021-06-17T09:25:37Z</time>
      </trkpt>
      <trkpt lat="46.30979" lon="-1.29888">
        <ele>4.1</ele>
        <time>2021-06-17T09:25:38Z</time>
      </trkpt>
      <trkpt lat="46.3098" lon="-1.29888">
        <ele>4.1</ele>
        <time>2021-06-17T09:25:39Z</time>
      </trkpt>
      <trkpt lat="46.30981" lon="-1.29888">
        <ele>4.1</ele>
        <time>2021-06-17T09:25:40Z</time>
      </trkpt>
      <trkpt lat="46.30983" lon="-1.29889">
        <ele>4.1</ele>
        <time>2021-06-17T09:25:41Z</time>
      </trkpt>
      <trkpt lat="46.30984" lon="-1.29889">
        <ele>4.1</ele>
        <time>2021-06-17T09:25:42Z</time>
      </trkpt>
      <trkpt lat="46.30985" lon="-1.29889">
        <ele>4.1</ele>
        <time>2021-06-17T09:25:43Z</time>
      </trkpt>
      <trkpt lat="46.30986" lon="-1.2989">
        <ele>4.1</ele>
        <time>2021-06-17T09:25:44Z</time>
      </trkpt>
      <trkpt lat="46.30988" lon="-1.2989">
        <ele>4.1</ele>
        <time>2021-06-17T09:25:45Z</time>
      </trkpt>
      <trkpt lat="46.30989" lon="-1.2989">
        <ele>4.1</ele>
        <time>2021-06-17T09:25:46Z</time>
      </trkpt>
      <trkpt lat="46.3099" lon="-1.29891">
        <ele>4.1</ele>
        <time>2021-06-17T09:25:47Z</time>
      </trkpt>
      <trkpt lat="46.30991" lon="-1.29891">
        <ele>4.1</ele>
        <time>2021-06-17T09:25:48Z</time>
      </trkpt>
      <trkpt lat="46.30992" lon="-1.29891">
        <ele>4.1</ele>
        <time>2021-06-17T09:25:49Z</time>
      </trkpt>
      <trkpt lat="46.30994" lon="-1.29891">
        <ele>4.1</ele>
        <time>2021-06-17T09:25:50Z</time>
      </trkpt>
      <trkpt lat="46.30995" lon="-1.29892">
        <ele>4.1</ele>
        <time>2021-06-17T09:25:51Z</time>
      </trkpt>
      <trkpt lat="46.30996" lon="-1.29892">
        <ele>4.2</ele>
        <time>2021-06-17T09:25:52Z</time>
      </trkpt>
      <trkpt lat="46.30997" lon="-1.29892">
        <ele>4.2</ele>
        <time>2021-06-17T09:25:53Z</time>
      </trkpt>
      <trkpt lat="46.30999" lon="-1.29893">
        <ele>4.2</ele>
        <time>2021-06-17T09:25:54Z</time>
      </trkpt>
      <trkpt lat="46.31" lon="-1.29893">
        <ele>4.2</ele>
        <time>2021-06-17T09:25:55Z</time>
      </trkpt>
      <trkpt lat="46.31001" lon="-1.29893">
        <ele>4.2</ele>
        <time>2021-06-17T09:25:56Z</time>
      </trkpt>
      <trkpt lat="46.31002" lon="-1.29893">
        <ele>4.2</ele>
        <time>2021-06-17T09:25:57Z</time>
      </trkpt>
      <trkpt lat="46.31003" lon="-1.29894">
        <ele>4.2</ele>
        <time>2021-06-17T09:25:58Z</time>
      </trkpt>
      <trkpt lat="46.31005" lon="-1.29894">
        <ele>4.2</ele>
        <time>2021-06-17T09:25:59Z</time>
      </trkpt>
      <trkpt lat="46.31006" lon="-1.29894">
        <ele>4.2</ele>
        <time>2021-06-17T09:26:00Z</time>
      </trkpt>
      <trkpt lat="46.31007" lon="-1.29894">
        <ele>4.2</ele>
        <time>2021-06-17T09:26:01Z</time>
      </trkpt>
      <trkpt lat="46.31008" lon="-1.29894">
        <ele>4.2</ele>
        <time>2021-06-17T09:26:02Z</time>
      </trkpt>
      <trkpt lat="46.3101" lon="-1.29895">
        <ele>4.3</ele>
        <time>2021-06-17T09:26:03Z</time>
      </trkpt>
      <trkpt lat="46.31011" lon="-1.29895">
        <ele>4.3</ele>
        <time>2021-06-17T09:26:04Z</time>
      </trkpt>
      <trkpt lat="46.31012" lon="-1.29895">
        <ele>4.3</ele>
        <time>2021-06-17T09:26:05Z</time>
      </trkpt>
      <trkpt lat="46.31013" lon="-1.29895">
        <ele>4.3</ele>
        <time>2021-06-17T09:26:06Z</time>
      </trkpt>
      <trkpt lat="46.31014" lon="-1.29896">
        <ele>4.3</ele>
        <time>2021-06-17T09:26:07Z</time>
      </trkpt>
      <trkpt lat="46.31016" lon="-1.29896">
        <ele>4.3</ele>
        <time>2021-06-17T09:26:08Z</time>
      </trkpt>
      <trkpt lat="46.31017" lon="-1.29896">
        <ele>4.3</ele>
        <time>2021-06-17T09:26:09Z</time>
      </trkpt>
      <trkpt lat="46.31018" lon="-1.29896">
        <ele>4.3</ele>
        <time>2021-06-17T09:26:10Z</time>
      </trkpt>
      <trkpt lat="46.31019" lon="-1.29897">
        <ele>4.3</ele>
        <time>2021-06-17T09:26:11Z</time>
      </trkpt>
      <trkpt lat="46.3102" lon="-1.29897">
        <ele>4.3</ele>
        <time>2021-06-17T09:26:12Z</time>
      </trkpt>
      <trkpt lat="46.31022" lon="-1.29897">
        <ele>4.3</ele>
        <time>2021-06-17T09:26:13Z</time>
      </trkpt>
      <trkpt lat="46.31023" lon="-1.29897">
        <ele>4.3</ele>
        <time>2021-06-17T09:26:14Z</time>
      </trkpt>
      <trkpt lat="46.31024" lon="-1.29898">
        <ele>4.3</ele>
        <time>2021-06-17T09:26:15Z</time>
      </trkpt>
      <trkpt lat="46.31025" lon="-1.29898">
        <ele>4.3</ele>
        <time>2021-06-17T09:26:16Z</time>
      </trkpt>
      <trkpt lat="46.31026" lon="-1.29898">
        <ele>4.3</ele>
        <time>2021-06-17T09:26:17Z</time>
      </trkpt>
      <trkpt lat="46.31028" lon="-1.29898">
        <ele>4.3</ele>
        <time>2021-06-17T09:26:18Z</time>
      </trkpt>
      <trkpt lat="46.31029" lon="-1.29899">
        <ele>4.3</ele>
        <time>2021-06-17T09:26:19Z</time>
      </trkpt>
      <trkpt lat="46.3103" lon="-1.29899">
        <ele>4.3</ele>
        <time>2021-06-17T09:26:20Z</time>
      </trkpt>
      <trkpt lat="46.31031" lon="-1.29899">
        <ele>4.3</ele>
        <time>2021-06-17T09:26:21Z</time>
      </trkpt>
      <trkpt lat="46.31032" lon="-1.299">
        <ele>4.3</ele>
        <time>2021-06-17T09:26:22Z</time>
      </trkpt>
      <trkpt lat="46.31034" lon="-1.299">
        <ele>4.3</ele>
        <time>2021-06-17T09:26:23Z</time>
      </trkpt>
      <trkpt lat="46.31035" lon="-1.299">
        <ele>4.3</ele>
        <time>2021-06-17T09:26:24Z</time>
      </trkpt>
      <trkpt lat="46.31036" lon="-1.29901">
        <ele>4.3</ele>
        <time>2021-06-17T09:26:25Z</time>
      </trkpt>
      <trkpt lat="46.31037" lon="-1.29901">
        <ele>4.3</ele>
        <time>2021-06-17T09:26:26Z</time>
      </trkpt>
      <trkpt lat="46.31038" lon="-1.29901">
        <ele>4.3</ele>
        <time>2021-06-17T09:26:27Z</time>
      </trkpt>
      <trkpt lat="46.3104" lon="-1.29902">
        <ele>4.3</ele>
        <time>2021-06-17T09:26:28Z</time>
      </trkpt>
      <trkpt lat="46.31041" lon="-1.29902">
        <ele>4.3</ele>
        <time>2021-06-17T09:26:29Z</time>
      </trkpt>
      <trkpt lat="46.31042" lon="-1.29902">
        <ele>4.3</ele>
        <time>2021-06-17T09:26:30Z</time>
      </trkpt>
      <trkpt lat="46.31043" lon="-1.29903">
        <ele>4.3</ele>
        <time>2021-06-17T09:26:31Z</time>
      </trkpt>
      <trkpt lat="46.31045" lon="-1.29903">
        <ele>4.3</ele>
        <time>2021-06-17T09:26:32Z</time>
      </trkpt>
      <trkpt lat="46.31046" lon="-1.29904">
        <ele>4.3</ele>
        <time>2021-06-17T09:26:33Z</time>
      </trkpt>
      <trkpt lat="46.31047" lon="-1.29904">
        <ele>4.3</ele>
        <time>2021-06-17T09:26:34Z</time>
      </trkpt>
      <trkpt lat="46.31048" lon="-1.29904">
        <ele>4.2</ele>
        <time>2021-06-17T09:26:35Z</time>
      </trkpt>
      <trkpt lat="46.3105" lon="-1.29905">
        <ele>4.2</ele>
        <time>2021-06-17T09:26:36Z</time>
      </trkpt>
      <trkpt lat="46.31051" lon="-1.29905">
        <ele>4.2</ele>
        <time>2021-06-17T09:26:37Z</time>
      </trkpt>
      <trkpt lat="46.31052" lon="-1.29906">
        <ele>4.2</ele>
        <time>2021-06-17T09:26:38Z</time>
      </trkpt>
      <trkpt lat="46.31054" lon="-1.29906">
        <ele>4.2</ele>
        <time>2021-06-17T09:26:39Z</time>
      </trkpt>
      <trkpt lat="46.31055" lon="-1.29907">
        <ele>4.2</ele>
        <time>2021-06-17T09:26:40Z</time>
      </trkpt>
      <trkpt lat="46.31056" lon="-1.29907">
        <ele>4.2</ele>
        <time>2021-06-17T09:26:41Z</time>
      </trkpt>
      <trkpt lat="46.31058" lon="-1.29907">
        <ele>4.2</ele>
        <time>2021-06-17T09:26:42Z</time>
      </trkpt>
      <trkpt lat="46.31059" lon="-1.29908">
        <ele>4.2</ele>
        <time>2021-06-17T09:26:43Z</time>
      </trkpt>
      <trkpt lat="46.3106" lon="-1.29908">
        <ele>4.2</ele>
        <time>2021-06-17T09:26:44Z</time>
      </trkpt>
      <trkpt lat="46.31062" lon="-1.29909">
        <ele>4.1</ele>
        <time>2021-06-17T09:26:45Z</time>
      </trkpt>
      <trkpt lat="46.31063" lon="-1.2991">
        <ele>4.1</ele>
        <time>2021-06-17T09:26:46Z</time>
      </trkpt>
      <trkpt lat="46.31064" lon="-1.2991">
        <ele>4.1</ele>
        <time>2021-06-17T09:26:47Z</time>
      </trkpt>
      <trkpt lat="46.31066" lon="-1.29911">
        <ele>4.1</ele>
        <time>2021-06-17T09:26:48Z</time>
      </trkpt>
      <trkpt lat="46.31067" lon="-1.29911">
        <ele>4.1</ele>
        <time>2021-06-17T09:26:49Z</time>
      </trkpt>
      <trkpt lat="46.31068" lon="-1.29912">
        <ele>4.1</ele>
        <time>2021-06-17T09:26:50Z</time>
      </trkpt>
      <trkpt lat="46.3107" lon="-1.29913">
        <ele>4.1</ele>
        <time>2021-06-17T09:26:51Z</time>
      </trkpt>
      <trkpt lat="46.31071" lon="-1.29913">
        <ele>4.1</ele>
        <time>2021-06-17T09:26:52Z</time>
      </trkpt>
      <trkpt lat="46.31072" lon="-1.29914">
        <ele>4.1</ele>
        <time>2021-06-17T09:26:53Z</time>
      </trkpt>
      <trkpt lat="46.31073" lon="-1.29915">
        <ele>4.1</ele>
        <time>2021-06-17T09:26:54Z</time>
      </trkpt>
      <trkpt lat="46.31074" lon="-1.29916">
        <ele>4.1</ele>
        <time>2021-06-17T09:26:55Z</time>
      </trkpt>
      <trkpt lat="46.31076" lon="-1.29917">
        <ele>4.1</ele>
        <time>2021-06-17T09:26:56Z</time>
      </trkpt>
      <trkpt lat="46.31077" lon="-1.29918">
        <ele>4.1</ele>
        <time>2021-06-17T09:26:57Z</time>
      </trkpt>
      <trkpt lat="46.31078" lon="-1.29919">
        <ele>4.1</ele>
        <time>2021-06-17T09:26:58Z</time>
      </trkpt>
      <trkpt lat="46.31079" lon="-1.2992">
        <ele>4.1</ele>
        <time>2021-06-17T09:26:59Z</time>
      </trkpt>
      <trkpt lat="46.3108" lon="-1.29921">
        <ele>4.1</ele>
        <time>2021-06-17T09:27:00Z</time>
      </trkpt>
      <trkpt lat="46.31081" lon="-1.29922">
        <ele>4.1</ele>
        <time>2021-06-17T09:27:01Z</time>
      </trkpt>
      <trkpt lat="46.31082" lon="-1.29923">
        <ele>4.2</ele>
        <time>2021-06-17T09:27:02Z</time>
      </trkpt>
      <trkpt lat="46.31083" lon="-1.29924">
        <ele>4.2</ele>
        <time>2021-06-17T09:27:03Z</time>
      </trkpt>
      <trkpt lat="46.31083" lon="-1.29925">
        <ele>4.2</ele>
        <time>2021-06-17T09:27:04Z</time>
      </trkpt>
      <trkpt lat="46.31084" lon="-1.29927">
        <ele>4.2</ele>
        <time>2021-06-17T09:27:05Z</time>
      </trkpt>
      <trkpt lat="46.31085" lon="-1.29928">
        <ele>4.2</ele>
        <time>2021-06-17T09:27:06Z</time>
      </trkpt>
      <trkpt lat="46.31086" lon="-1.29929">
        <ele>4.2</ele>
        <time>2021-06-17T09:27:07Z</time>
      </trkpt>
      <trkpt lat="46.31087" lon="-1.2993">
        <ele>4.3</ele>
        <time>2021-06-17T09:27:08Z</time>
      </trkpt>
      <trkpt lat="46.31087" lon="-1.29931">
        <ele>4.3</ele>
        <time>2021-06-17T09:27:09Z</time>
      </trkpt>
      <trkpt lat="46.31088" lon="-1.29932">
        <ele>4.3</ele>
        <time>2021-06-17T09:27:10Z</time>
      </trkpt>
      <trkpt lat="46.31089" lon="-1.29933">
        <ele>4.3</ele>
        <time>2021-06-17T09:27:11Z</time>
      </trkpt>
      <trkpt lat="46.3109" lon="-1.29934">
        <ele>4.4</ele>
        <time>2021-06-17T09:27:12Z</time>
      </trkpt>
      <trkpt lat="46.3109" lon="-1.29935">
        <ele>4.4</ele>
        <time>2021-06-17T09:27:13Z</time>
      </trkpt>
      <trkpt lat="46.31091" lon="-1.29936">
        <ele>4.4</ele>
        <time>2021-06-17T09:27:14Z</time>
      </trkpt>
      <trkpt lat="46.31092" lon="-1.29937">
        <ele>4.5</ele>
        <time>2021-06-17T09:27:15Z</time>
      </trkpt>
      <trkpt lat="46.31092" lon="-1.29939">
        <ele>4.5</ele>
        <time>2021-06-17T09:27:16Z</time>
      </trkpt>
      <trkpt lat="46.31093" lon="-1.2994">
        <ele>4.5</ele>
        <time>2021-06-17T09:27:17Z</time>
      </trkpt>
      <trkpt lat="46.31093" lon="-1.29941">
        <ele>4.5</ele>
        <time>2021-06-17T09:27:18Z</time>
      </trkpt>
      <trkpt lat="46.31094" lon="-1.29943">
        <ele>4.6</ele>
        <time>2021-06-17T09:27:19Z</time>
      </trkpt>
      <trkpt lat="46.31094" lon="-1.29944">
        <ele>4.6</ele>
        <time>2021-06-17T09:27:20Z</time>
      </trkpt>
      <trkpt lat="46.31094" lon="-1.29945">
        <ele>4.6</ele>
        <time>2021-06-17T09:27:21Z</time>
      </trkpt>
      <trkpt lat="46.31095" lon="-1.29946">
        <ele>4.7</ele>
        <time>2021-06-17T09:27:22Z</time>
      </trkpt>
      <trkpt lat="46.31095" lon="-1.29947">
        <ele>4.7</ele>
        <time>2021-06-17T09:27:23Z</time>
      </trkpt>
      <trkpt lat="46.31095" lon="-1.29948">
        <ele>4.7</ele>
        <time>2021-06-17T09:27:24Z</time>
      </trkpt>
      <trkpt lat="46.31096" lon="-1.29948">
        <ele>4.7</ele>
        <time>2021-06-17T09:27:25Z</time>
      </trkpt>
      <trkpt lat="46.31096" lon="-1.29948">
        <ele>4.7</ele>
        <time>2021-06-17T09:27:26Z</time>
      </trkpt>
      <trkpt lat="46.31096" lon="-1.29949">
        <ele>4.7</ele>
        <time>2021-06-17T09:27:27Z</time>
      </trkpt>
      <trkpt lat="46.31096" lon="-1.29949">
        <ele>4.7</ele>
        <time>2021-06-17T09:27:28Z</time>
      </trkpt>
      <trkpt lat="46.31096" lon="-1.29949">
        <ele>4.7</ele>
        <time>2021-06-17T09:27:29Z</time>
      </trkpt>
      <trkpt lat="46.31096" lon="-1.29949">
        <ele>4.7</ele>
        <time>2021-06-17T09:27:30Z</time>
      </trkpt>
      <trkpt lat="46.31096" lon="-1.29949">
        <ele>4.7</ele>
        <time>2021-06-17T09:27:31Z</time>
      </trkpt>
      <trkpt lat="46.31096" lon="-1.29949">
        <ele>4.7</ele>
        <time>2021-06-17T09:27:32Z</time>
      </trkpt>
      <trkpt lat="46.31096" lon="-1.29949">
        <ele>4.7</ele>
        <time>2021-06-17T09:27:33Z</time>
      </trkpt>
      <trkpt lat="46.31096" lon="-1.29949">
        <ele>4.7</ele>
        <time>2021-06-17T09:27:34Z</time>
      </trkpt>
      <trkpt lat="46.31097" lon="-1.2995">
        <ele>4.7</ele>
        <time>2021-06-17T09:27:35Z</time>
      </trkpt>
      <trkpt lat="46.31097" lon="-1.29951">
        <ele>4.8</ele>
        <time>2021-06-17T09:27:36Z</time>
      </trkpt>
      <trkpt lat="46.31098" lon="-1.29952">
        <ele>4.8</ele>
        <time>2021-06-17T09:27:37Z</time>
      </trkpt>
      <trkpt lat="46.31098" lon="-1.29953">
        <ele>4.8</ele>
        <time>2021-06-17T09:27:38Z</time>
      </trkpt>
      <trkpt lat="46.31098" lon="-1.29954">
        <ele>4.8</ele>
        <time>2021-06-17T09:27:39Z</time>
      </trkpt>
      <trkpt lat="46.31099" lon="-1.29956">
        <ele>4.9</ele>
        <time>2021-06-17T09:27:40Z</time>
      </trkpt>
      <trkpt lat="46.31099" lon="-1.29958">
        <ele>4.9</ele>
        <time>2021-06-17T09:27:41Z</time>
      </trkpt>
      <trkpt lat="46.311" lon="-1.2996">
        <ele>4.9</ele>
        <time>2021-06-17T09:27:42Z</time>
      </trkpt>
      <trkpt lat="46.311" lon="-1.29961">
        <ele>4.9</ele>
        <time>2021-06-17T09:27:43Z</time>
      </trkpt>
      <trkpt lat="46.31101" lon="-1.29963">
        <ele>4.9</ele>
        <time>2021-06-17T09:27:44Z</time>
      </trkpt>
      <trkpt lat="46.31101" lon="-1.29964">
        <ele>5</ele>
        <time>2021-06-17T09:27:45Z</time>
      </trkpt>
      <trkpt lat="46.31102" lon="-1.29965">
        <ele>5</ele>
        <time>2021-06-17T09:27:46Z</time>
      </trkpt>
      <trkpt lat="46.31102" lon="-1.29966">
        <ele>5</ele>
        <time>2021-06-17T09:27:47Z</time>
      </trkpt>
      <trkpt lat="46.31103" lon="-1.29966">
        <ele>5</ele>
        <time>2021-06-17T09:27:48Z</time>
      </trkpt>
      <trkpt lat="46.31103" lon="-1.29966">
        <ele>5</ele>
        <time>2021-06-17T09:27:49Z</time>
      </trkpt>
      <trkpt lat="46.31103" lon="-1.29966">
        <ele>5</ele>
        <time>2021-06-17T09:27:50Z</time>
      </trkpt>
      <trkpt lat="46.31103" lon="-1.29966">
        <ele>5</ele>
        <time>2021-06-17T09:27:51Z</time>
      </trkpt>
      <trkpt lat="46.31103" lon="-1.29967">
        <ele>5</ele>
        <time>2021-06-17T09:27:52Z</time>
      </trkpt>
      <trkpt lat="46.31104" lon="-1.29968">
        <ele>5</ele>
        <time>2021-06-17T09:27:53Z</time>
      </trkpt>
      <trkpt lat="46.31105" lon="-1.29969">
        <ele>5</ele>
        <time>2021-06-17T09:27:54Z</time>
      </trkpt>
      <trkpt lat="46.31105" lon="-1.2997">
        <ele>5</ele>
        <time>2021-06-17T09:27:55Z</time>
      </trkpt>
      <trkpt lat="46.31106" lon="-1.29971">
        <ele>5</ele>
        <time>2021-06-17T09:27:56Z</time>
      </trkpt>
      <trkpt lat="46.31107" lon="-1.29972">
        <ele>5</ele>
        <time>2021-06-17T09:27:57Z</time>
      </trkpt>
      <trkpt lat="46.31108" lon="-1.29972">
        <ele>5.1</ele>
        <time>2021-06-17T09:27:58Z</time>
      </trkpt>
      <trkpt lat="46.31108" lon="-1.29973">
        <ele>5.1</ele>
        <time>2021-06-17T09:27:59Z</time>
      </trkpt>
      <trkpt lat="46.31109" lon="-1.29974">
        <ele>5.1</ele>
        <time>2021-06-17T09:28:00Z</time>
      </trkpt>
      <trkpt lat="46.3111" lon="-1.29975">
        <ele>5.1</ele>
        <time>2021-06-17T09:28:01Z</time>
      </trkpt>
      <trkpt lat="46.3111" lon="-1.29976">
        <ele>5.1</ele>
        <time>2021-06-17T09:28:02Z</time>
      </trkpt>
      <trkpt lat="46.31111" lon="-1.29977">
        <ele>5.1</ele>
        <time>2021-06-17T09:28:03Z</time>
      </trkpt>
      <trkpt lat="46.31111" lon="-1.29978">
        <ele>5.1</ele>
        <time>2021-06-17T09:28:04Z</time>
      </trkpt>
      <trkpt lat="46.31112" lon="-1.29979">
        <ele>5.1</ele>
        <time>2021-06-17T09:28:05Z</time>
      </trkpt>
      <trkpt lat="46.31113" lon="-1.2998">
        <ele>5.1</ele>
        <time>2021-06-17T09:28:06Z</time>
      </trkpt>
      <trkpt lat="46.31113" lon="-1.29981">
        <ele>5.1</ele>
        <time>2021-06-17T09:28:07Z</time>
      </trkpt>
      <trkpt lat="46.31114" lon="-1.29982">
        <ele>5.1</ele>
        <time>2021-06-17T09:28:08Z</time>
      </trkpt>
      <trkpt lat="46.31115" lon="-1.29983">
        <ele>5.1</ele>
        <time>2021-06-17T09:28:09Z</time>
      </trkpt>
      <trkpt lat="46.31116" lon="-1.29984">
        <ele>5.1</ele>
        <time>2021-06-17T09:28:10Z</time>
      </trkpt>
      <trkpt lat="46.31116" lon="-1.29986">
        <ele>5.1</ele>
        <time>2021-06-17T09:28:11Z</time>
      </trkpt>
      <trkpt lat="46.31117" lon="-1.29987">
        <ele>5.1</ele>
        <time>2021-06-17T09:28:12Z</time>
      </trkpt>
      <trkpt lat="46.31118" lon="-1.29988">
        <ele>5.1</ele>
        <time>2021-06-17T09:28:13Z</time>
      </trkpt>
      <trkpt lat="46.31119" lon="-1.29989">
        <ele>5.1</ele>
        <time>2021-06-17T09:28:14Z</time>
      </trkpt>
      <trkpt lat="46.3112" lon="-1.2999">
        <ele>5.1</ele>
        <time>2021-06-17T09:28:15Z</time>
      </trkpt>
      <trkpt lat="46.31121" lon="-1.29991">
        <ele>5.1</ele>
        <time>2021-06-17T09:28:16Z</time>
      </trkpt>
      <trkpt lat="46.31121" lon="-1.29992">
        <ele>5.1</ele>
        <time>2021-06-17T09:28:17Z</time>
      </trkpt>
      <trkpt lat="46.31122" lon="-1.29993">
        <ele>5.1</ele>
        <time>2021-06-17T09:28:18Z</time>
      </trkpt>
      <trkpt lat="46.31123" lon="-1.29994">
        <ele>5.1</ele>
        <time>2021-06-17T09:28:19Z</time>
      </trkpt>
      <trkpt lat="46.31124" lon="-1.29995">
        <ele>5.1</ele>
        <time>2021-06-17T09:28:20Z</time>
      </trkpt>
      <trkpt lat="46.31125" lon="-1.29996">
        <ele>5.1</ele>
        <time>2021-06-17T09:28:21Z</time>
      </trkpt>
      <trkpt lat="46.31126" lon="-1.29997">
        <ele>5.1</ele>
        <time>2021-06-17T09:28:22Z</time>
      </trkpt>
      <trkpt lat="46.31127" lon="-1.29998">
        <ele>5.1</ele>
        <time>2021-06-17T09:28:23Z</time>
      </trkpt>
      <trkpt lat="46.31128" lon="-1.29998">
        <ele>5.1</ele>
        <time>2021-06-17T09:28:24Z</time>
      </trkpt>
      <trkpt lat="46.31129" lon="-1.29999">
        <ele>5.1</ele>
        <time>2021-06-17T09:28:25Z</time>
      </trkpt>
      <trkpt lat="46.31129" lon="-1.3">
        <ele>5.1</ele>
        <time>2021-06-17T09:28:26Z</time>
      </trkpt>
      <trkpt lat="46.3113" lon="-1.30001">
        <ele>5.1</ele>
        <time>2021-06-17T09:28:27Z</time>
      </trkpt>
      <trkpt lat="46.31131" lon="-1.30001">
        <ele>5.1</ele>
        <time>2021-06-17T09:28:28Z</time>
      </trkpt>
      <trkpt lat="46.31132" lon="-1.30002">
        <ele>5.1</ele>
        <time>2021-06-17T09:28:29Z</time>
      </trkpt>
      <trkpt lat="46.31133" lon="-1.30003">
        <ele>5.1</ele>
        <time>2021-06-17T09:28:30Z</time>
      </trkpt>
      <trkpt lat="46.31134" lon="-1.30004">
        <ele>5.1</ele>
        <time>2021-06-17T09:28:31Z</time>
      </trkpt>
      <trkpt lat="46.31134" lon="-1.30005">
        <ele>5.1</ele>
        <time>2021-06-17T09:28:32Z</time>
      </trkpt>
      <trkpt lat="46.31135" lon="-1.30006">
        <ele>5.1</ele>
        <time>2021-06-17T09:28:33Z</time>
      </trkpt>
      <trkpt lat="46.31136" lon="-1.30007">
        <ele>5.1</ele>
        <time>2021-06-17T09:28:34Z</time>
      </trkpt>
      <trkpt lat="46.31136" lon="-1.30008">
        <ele>5.1</ele>
        <time>2021-06-17T09:28:35Z</time>
      </trkpt>
      <trkpt lat="46.31137" lon="-1.30009">
        <ele>5.1</ele>
        <time>2021-06-17T09:28:36Z</time>
      </trkpt>
      <trkpt lat="46.31138" lon="-1.3001">
        <ele>5</ele>
        <time>2021-06-17T09:28:37Z</time>
      </trkpt>
      <trkpt lat="46.31139" lon="-1.30011">
        <ele>5</ele>
        <time>2021-06-17T09:28:38Z</time>
      </trkpt>
      <trkpt lat="46.31139" lon="-1.30012">
        <ele>5</ele>
        <time>2021-06-17T09:28:39Z</time>
      </trkpt>
      <trkpt lat="46.3114" lon="-1.30013">
        <ele>5</ele>
        <time>2021-06-17T09:28:40Z</time>
      </trkpt>
      <trkpt lat="46.31141" lon="-1.30014">
        <ele>5</ele>
        <time>2021-06-17T09:28:41Z</time>
      </trkpt>
      <trkpt lat="46.31142" lon="-1.30015">
        <ele>5</ele>
        <time>2021-06-17T09:28:42Z</time>
      </trkpt>
      <trkpt lat="46.31143" lon="-1.30017">
        <ele>5</ele>
        <time>2021-06-17T09:28:43Z</time>
      </trkpt>
      <trkpt lat="46.31144" lon="-1.30018">
        <ele>5</ele>
        <time>2021-06-17T09:28:44Z</time>
      </trkpt>
      <trkpt lat="46.31145" lon="-1.30019">
        <ele>5</ele>
        <time>2021-06-17T09:28:45Z</time>
      </trkpt>
      <trkpt lat="46.31146" lon="-1.3002">
        <ele>5</ele>
        <time>2021-06-17T09:28:46Z</time>
      </trkpt>
      <trkpt lat="46.31147" lon="-1.30021">
        <ele>5</ele>
        <time>2021-06-17T09:28:47Z</time>
      </trkpt>
      <trkpt lat="46.31148" lon="-1.30022">
        <ele>5</ele>
        <time>2021-06-17T09:28:48Z</time>
      </trkpt>
      <trkpt lat="46.31149" lon="-1.30023">
        <ele>5</ele>
        <time>2021-06-17T09:28:49Z</time>
      </trkpt>
      <trkpt lat="46.3115" lon="-1.30025">
        <ele>5</ele>
        <time>2021-06-17T09:28:50Z</time>
      </trkpt>
      <trkpt lat="46.31151" lon="-1.30026">
        <ele>5</ele>
        <time>2021-06-17T09:28:51Z</time>
      </trkpt>
      <trkpt lat="46.31152" lon="-1.30027">
        <ele>5</ele>
        <time>2021-06-17T09:28:52Z</time>
      </trkpt>
      <trkpt lat="46.31153" lon="-1.30028">
        <ele>5</ele>
        <time>2021-06-17T09:28:53Z</time>
      </trkpt>
      <trkpt lat="46.31154" lon="-1.3003">
        <ele>5</ele>
        <time>2021-06-17T09:28:54Z</time>
      </trkpt>
      <trkpt lat="46.31155" lon="-1.30031">
        <ele>5</ele>
        <time>2021-06-17T09:28:55Z</time>
      </trkpt>
      <trkpt lat="46.31156" lon="-1.30032">
        <ele>5</ele>
        <time>2021-06-17T09:28:56Z</time>
      </trkpt>
      <trkpt lat="46.31157" lon="-1.30034">
        <ele>5</ele>
        <time>2021-06-17T09:28:57Z</time>
      </trkpt>
      <trkpt lat="46.31158" lon="-1.30035">
        <ele>5</ele>
        <time>2021-06-17T09:28:58Z</time>
      </trkpt>
      <trkpt lat="46.31159" lon="-1.30036">
        <ele>5</ele>
        <time>2021-06-17T09:28:59Z</time>
      </trkpt>
      <trkpt lat="46.3116" lon="-1.30038">
        <ele>5</ele>
        <time>2021-06-17T09:29:00Z</time>
      </trkpt>
      <trkpt lat="46.31161" lon="-1.30039">
        <ele>5</ele>
        <time>2021-06-17T09:29:01Z</time>
      </trkpt>
      <trkpt lat="46.31162" lon="-1.3004">
        <ele>5</ele>
        <time>2021-06-17T09:29:02Z</time>
      </trkpt>
      <trkpt lat="46.31163" lon="-1.30041">
        <ele>5</ele>
        <time>2021-06-17T09:29:03Z</time>
      </trkpt>
      <trkpt lat="46.31164" lon="-1.30042">
        <ele>5</ele>
        <time>2021-06-17T09:29:04Z</time>
      </trkpt>
      <trkpt lat="46.31165" lon="-1.30044">
        <ele>5</ele>
        <time>2021-06-17T09:29:05Z</time>
      </trkpt>
      <trkpt lat="46.31166" lon="-1.30045">
        <ele>5</ele>
        <time>2021-06-17T09:29:06Z</time>
      </trkpt>
      <trkpt lat="46.31167" lon="-1.30046">
        <ele>5</ele>
        <time>2021-06-17T09:29:07Z</time>
      </trkpt>
      <trkpt lat="46.31168" lon="-1.30046">
        <ele>5</ele>
        <time>2021-06-17T09:29:08Z</time>
      </trkpt>
      <trkpt lat="46.31169" lon="-1.30047">
        <ele>5</ele>
        <time>2021-06-17T09:29:09Z</time>
      </trkpt>
      <trkpt lat="46.3117" lon="-1.30048">
        <ele>5</ele>
        <time>2021-06-17T09:29:10Z</time>
      </trkpt>
      <trkpt lat="46.31171" lon="-1.30049">
        <ele>5</ele>
        <time>2021-06-17T09:29:11Z</time>
      </trkpt>
      <trkpt lat="46.31172" lon="-1.3005">
        <ele>5</ele>
        <time>2021-06-17T09:29:12Z</time>
      </trkpt>
      <trkpt lat="46.31172" lon="-1.30051">
        <ele>5</ele>
        <time>2021-06-17T09:29:13Z</time>
      </trkpt>
      <trkpt lat="46.31173" lon="-1.30052">
        <ele>5</ele>
        <time>2021-06-17T09:29:14Z</time>
      </trkpt>
      <trkpt lat="46.31174" lon="-1.30053">
        <ele>5</ele>
        <time>2021-06-17T09:29:15Z</time>
      </trkpt>
      <trkpt lat="46.31175" lon="-1.30054">
        <ele>5.1</ele>
        <time>2021-06-17T09:29:16Z</time>
      </trkpt>
      <trkpt lat="46.31176" lon="-1.30055">
        <ele>5.1</ele>
        <time>2021-06-17T09:29:17Z</time>
      </trkpt>
      <trkpt lat="46.31176" lon="-1.30056">
        <ele>5.1</ele>
        <time>2021-06-17T09:29:18Z</time>
      </trkpt>
      <trkpt lat="46.31177" lon="-1.30056">
        <ele>5.1</ele>
        <time>2021-06-17T09:29:19Z</time>
      </trkpt>
      <trkpt lat="46.31178" lon="-1.30057">
        <ele>5.1</ele>
        <time>2021-06-17T09:29:20Z</time>
      </trkpt>
      <trkpt lat="46.31179" lon="-1.30058">
        <ele>5.1</ele>
        <time>2021-06-17T09:29:21Z</time>
      </trkpt>
      <trkpt lat="46.3118" lon="-1.30059">
        <ele>5.1</ele>
        <time>2021-06-17T09:29:22Z</time>
      </trkpt>
      <trkpt lat="46.31181" lon="-1.3006">
        <ele>5.1</ele>
        <time>2021-06-17T09:29:23Z</time>
      </trkpt>
      <trkpt lat="46.31182" lon="-1.30061">
        <ele>5.1</ele>
        <time>2021-06-17T09:29:24Z</time>
      </trkpt>
      <trkpt lat="46.31183" lon="-1.30062">
        <ele>5.1</ele>
        <time>2021-06-17T09:29:25Z</time>
      </trkpt>
      <trkpt lat="46.31184" lon="-1.30063">
        <ele>5.1</ele>
        <time>2021-06-17T09:29:26Z</time>
      </trkpt>
      <trkpt lat="46.31185" lon="-1.30064">
        <ele>5.1</ele>
        <time>2021-06-17T09:29:27Z</time>
      </trkpt>
      <trkpt lat="46.31186" lon="-1.30065">
        <ele>5.1</ele>
        <time>2021-06-17T09:29:28Z</time>
      </trkpt>
      <trkpt lat="46.31187" lon="-1.30066">
        <ele>5.1</ele>
        <time>2021-06-17T09:29:29Z</time>
      </trkpt>
      <trkpt lat="46.31188" lon="-1.30067">
        <ele>5.1</ele>
        <time>2021-06-17T09:29:30Z</time>
      </trkpt>
      <trkpt lat="46.31189" lon="-1.30068">
        <ele>5.1</ele>
        <time>2021-06-17T09:29:31Z</time>
      </trkpt>
      <trkpt lat="46.3119" lon="-1.30069">
        <ele>5.1</ele>
        <time>2021-06-17T09:29:32Z</time>
      </trkpt>
      <trkpt lat="46.31191" lon="-1.30071">
        <ele>5.1</ele>
        <time>2021-06-17T09:29:33Z</time>
      </trkpt>
      <trkpt lat="46.31192" lon="-1.30072">
        <ele>5.1</ele>
        <time>2021-06-17T09:29:34Z</time>
      </trkpt>
      <trkpt lat="46.31193" lon="-1.30073">
        <ele>5.1</ele>
        <time>2021-06-17T09:29:35Z</time>
      </trkpt>
      <trkpt lat="46.31194" lon="-1.30074">
        <ele>5.1</ele>
        <time>2021-06-17T09:29:36Z</time>
      </trkpt>
      <trkpt lat="46.31195" lon="-1.30076">
        <ele>5.1</ele>
        <time>2021-06-17T09:29:37Z</time>
      </trkpt>
      <trkpt lat="46.31196" lon="-1.30077">
        <ele>5.1</ele>
        <time>2021-06-17T09:29:38Z</time>
      </trkpt>
      <trkpt lat="46.31197" lon="-1.30078">
        <ele>5.1</ele>
        <time>2021-06-17T09:29:39Z</time>
      </trkpt>
      <trkpt lat="46.31198" lon="-1.30079">
        <ele>5.1</ele>
        <time>2021-06-17T09:29:40Z</time>
      </trkpt>
      <trkpt lat="46.31199" lon="-1.30081">
        <ele>5.1</ele>
        <time>2021-06-17T09:29:41Z</time>
      </trkpt>
      <trkpt lat="46.312" lon="-1.30082">
        <ele>5.1</ele>
        <time>2021-06-17T09:29:42Z</time>
      </trkpt>
      <trkpt lat="46.31201" lon="-1.30083">
        <ele>5.1</ele>
        <time>2021-06-17T09:29:43Z</time>
      </trkpt>
      <trkpt lat="46.31202" lon="-1.30084">
        <ele>5.1</ele>
        <time>2021-06-17T09:29:44Z</time>
      </trkpt>
      <trkpt lat="46.31203" lon="-1.30085">
        <ele>5.1</ele>
        <time>2021-06-17T09:29:45Z</time>
      </trkpt>
      <trkpt lat="46.31204" lon="-1.30086">
        <ele>5.1</ele>
        <time>2021-06-17T09:29:46Z</time>
      </trkpt>
      <trkpt lat="46.31205" lon="-1.30087">
        <ele>5.1</ele>
        <time>2021-06-17T09:29:47Z</time>
      </trkpt>
      <trkpt lat="46.31206" lon="-1.30088">
        <ele>5.1</ele>
        <time>2021-06-17T09:29:48Z</time>
      </trkpt>
      <trkpt lat="46.31207" lon="-1.30089">
        <ele>5.2</ele>
        <time>2021-06-17T09:29:49Z</time>
      </trkpt>
      <trkpt lat="46.31208" lon="-1.3009">
        <ele>5.2</ele>
        <time>2021-06-17T09:29:50Z</time>
      </trkpt>
      <trkpt lat="46.31209" lon="-1.30091">
        <ele>5.2</ele>
        <time>2021-06-17T09:29:51Z</time>
      </trkpt>
      <trkpt lat="46.3121" lon="-1.30092">
        <ele>5.2</ele>
        <time>2021-06-17T09:29:52Z</time>
      </trkpt>
      <trkpt lat="46.31211" lon="-1.30093">
        <ele>5.2</ele>
        <time>2021-06-17T09:29:53Z</time>
      </trkpt>
      <trkpt lat="46.31212" lon="-1.30094">
        <ele>5.2</ele>
        <time>2021-06-17T09:29:54Z</time>
      </trkpt>
      <trkpt lat="46.31213" lon="-1.30095">
        <ele>5.2</ele>
        <time>2021-06-17T09:29:55Z</time>
      </trkpt>
      <trkpt lat="46.31214" lon="-1.30096">
        <ele>5.2</ele>
        <time>2021-06-17T09:29:56Z</time>
      </trkpt>
      <trkpt lat="46.31215" lon="-1.30097">
        <ele>5.2</ele>
        <time>2021-06-17T09:29:57Z</time>
      </trkpt>
      <trkpt lat="46.31216" lon="-1.30097">
        <ele>5.2</ele>
        <time>2021-06-17T09:29:58Z</time>
      </trkpt>
      <trkpt lat="46.31217" lon="-1.30098">
        <ele>5.2</ele>
        <time>2021-06-17T09:29:59Z</time>
      </trkpt>
      <trkpt lat="46.31218" lon="-1.30099">
        <ele>5.2</ele>
        <time>2021-06-17T09:30:00Z</time>
      </trkpt>
      <trkpt lat="46.31219" lon="-1.301">
        <ele>5.2</ele>
        <time>2021-06-17T09:30:01Z</time>
      </trkpt>
      <trkpt lat="46.3122" lon="-1.30101">
        <ele>5.2</ele>
        <time>2021-06-17T09:30:02Z</time>
      </trkpt>
      <trkpt lat="46.31221" lon="-1.30101">
        <ele>5.2</ele>
        <time>2021-06-17T09:30:03Z</time>
      </trkpt>
      <trkpt lat="46.31222" lon="-1.30102">
        <ele>5.2</ele>
        <time>2021-06-17T09:30:04Z</time>
      </trkpt>
      <trkpt lat="46.31223" lon="-1.30103">
        <ele>5.2</ele>
        <time>2021-06-17T09:30:05Z</time>
      </trkpt>
      <trkpt lat="46.31224" lon="-1.30104">
        <ele>5.2</ele>
        <time>2021-06-17T09:30:06Z</time>
      </trkpt>
      <trkpt lat="46.31226" lon="-1.30104">
        <ele>5.2</ele>
        <time>2021-06-17T09:30:07Z</time>
      </trkpt>
      <trkpt lat="46.31227" lon="-1.30105">
        <ele>5.2</ele>
        <time>2021-06-17T09:30:08Z</time>
      </trkpt>
      <trkpt lat="46.31228" lon="-1.30106">
        <ele>5.2</ele>
        <time>2021-06-17T09:30:09Z</time>
      </trkpt>
      <trkpt lat="46.31229" lon="-1.30106">
        <ele>5.2</ele>
        <time>2021-06-17T09:30:10Z</time>
      </trkpt>
      <trkpt lat="46.3123" lon="-1.30107">
        <ele>5.2</ele>
        <time>2021-06-17T09:30:11Z</time>
      </trkpt>
      <trkpt lat="46.31231" lon="-1.30108">
        <ele>5.2</ele>
        <time>2021-06-17T09:30:12Z</time>
      </trkpt>
      <trkpt lat="46.31232" lon="-1.30108">
        <ele>5.2</ele>
        <time>2021-06-17T09:30:13Z</time>
      </trkpt>
      <trkpt lat="46.31233" lon="-1.30109">
        <ele>5.2</ele>
        <time>2021-06-17T09:30:14Z</time>
      </trkpt>
      <trkpt lat="46.31234" lon="-1.3011">
        <ele>5.2</ele>
        <time>2021-06-17T09:30:15Z</time>
      </trkpt>
      <trkpt lat="46.31235" lon="-1.30111">
        <ele>5.2</ele>
        <time>2021-06-17T09:30:16Z</time>
      </trkpt>
      <trkpt lat="46.31237" lon="-1.30111">
        <ele>5.2</ele>
        <time>2021-06-17T09:30:17Z</time>
      </trkpt>
      <trkpt lat="46.31238" lon="-1.30112">
        <ele>5.2</ele>
        <time>2021-06-17T09:30:18Z</time>
      </trkpt>
      <trkpt lat="46.31239" lon="-1.30113">
        <ele>5.2</ele>
        <time>2021-06-17T09:30:19Z</time>
      </trkpt>
      <trkpt lat="46.3124" lon="-1.30113">
        <ele>5.2</ele>
        <time>2021-06-17T09:30:20Z</time>
      </trkpt>
      <trkpt lat="46.31241" lon="-1.30114">
        <ele>5.2</ele>
        <time>2021-06-17T09:30:21Z</time>
      </trkpt>
      <trkpt lat="46.31242" lon="-1.30115">
        <ele>5.2</ele>
        <time>2021-06-17T09:30:22Z</time>
      </trkpt>
      <trkpt lat="46.31243" lon="-1.30115">
        <ele>5.2</ele>
        <time>2021-06-17T09:30:23Z</time>
      </trkpt>
      <trkpt lat="46.31245" lon="-1.30116">
        <ele>5.2</ele>
        <time>2021-06-17T09:30:24Z</time>
      </trkpt>
      <trkpt lat="46.31246" lon="-1.30116">
        <ele>5.2</ele>
        <time>2021-06-17T09:30:25Z</time>
      </trkpt>
      <trkpt lat="46.31247" lon="-1.30117">
        <ele>5.2</ele>
        <time>2021-06-17T09:30:26Z</time>
      </trkpt>
      <trkpt lat="46.31248" lon="-1.30117">
        <ele>5.3</ele>
        <time>2021-06-17T09:30:27Z</time>
      </trkpt>
      <trkpt lat="46.31249" lon="-1.30118">
        <ele>5.3</ele>
        <time>2021-06-17T09:30:28Z</time>
      </trkpt>
      <trkpt lat="46.3125" lon="-1.30119">
        <ele>5.3</ele>
        <time>2021-06-17T09:30:29Z</time>
      </trkpt>
      <trkpt lat="46.31251" lon="-1.30119">
        <ele>5.3</ele>
        <time>2021-06-17T09:30:30Z</time>
      </trkpt>
      <trkpt lat="46.31252" lon="-1.3012">
        <ele>5.3</ele>
        <time>2021-06-17T09:30:31Z</time>
      </trkpt>
      <trkpt lat="46.31253" lon="-1.3012">
        <ele>5.3</ele>
        <time>2021-06-17T09:30:32Z</time>
      </trkpt>
      <trkpt lat="46.31254" lon="-1.30121">
        <ele>5.3</ele>
        <time>2021-06-17T09:30:33Z</time>
      </trkpt>
      <trkpt lat="46.31255" lon="-1.30121">
        <ele>5.3</ele>
        <time>2021-06-17T09:30:34Z</time>
      </trkpt>
      <trkpt lat="46.31256" lon="-1.30122">
        <ele>5.3</ele>
        <time>2021-06-17T09:30:35Z</time>
      </trkpt>
      <trkpt lat="46.31258" lon="-1.30122">
        <ele>5.3</ele>
        <time>2021-06-17T09:30:36Z</time>
      </trkpt>
      <trkpt lat="46.31259" lon="-1.30123">
        <ele>5.3</ele>
        <time>2021-06-17T09:30:37Z</time>
      </trkpt>
      <trkpt lat="46.3126" lon="-1.30123">
        <ele>5.3</ele>
        <time>2021-06-17T09:30:38Z</time>
      </trkpt>
      <trkpt lat="46.3126" lon="-1.30123">
        <ele>5.3</ele>
        <time>2021-06-17T09:30:39Z</time>
      </trkpt>
      <trkpt lat="46.31261" lon="-1.30124">
        <ele>5.3</ele>
        <time>2021-06-17T09:30:40Z</time>
      </trkpt>
      <trkpt lat="46.31262" lon="-1.30124">
        <ele>5.3</ele>
        <time>2021-06-17T09:30:41Z</time>
      </trkpt>
      <trkpt lat="46.31262" lon="-1.30124">
        <ele>5.3</ele>
        <time>2021-06-17T09:30:42Z</time>
      </trkpt>
      <trkpt lat="46.31262" lon="-1.30124">
        <ele>5.3</ele>
        <time>2021-06-17T09:30:43Z</time>
      </trkpt>
      <trkpt lat="46.31262" lon="-1.30124">
        <ele>5.3</ele>
        <time>2021-06-17T09:30:44Z</time>
      </trkpt>
      <trkpt lat="46.31262" lon="-1.30124">
        <ele>5.3</ele>
        <time>2021-06-17T09:30:45Z</time>
      </trkpt>
      <trkpt lat="46.31262" lon="-1.30124">
        <ele>5.3</ele>
        <time>2021-06-17T09:30:46Z</time>
      </trkpt>
      <trkpt lat="46.31262" lon="-1.30123">
        <ele>5.3</ele>
        <time>2021-06-17T09:30:47Z</time>
      </trkpt>
      <trkpt lat="46.31262" lon="-1.30123">
        <ele>5.3</ele>
        <time>2021-06-17T09:30:48Z</time>
      </trkpt>
      <trkpt lat="46.31262" lon="-1.30123">
        <ele>5.3</ele>
        <time>2021-06-17T09:30:49Z</time>
      </trkpt>
      <trkpt lat="46.31262" lon="-1.30123">
        <ele>5.3</ele>
        <time>2021-06-17T09:30:50Z</time>
      </trkpt>
      <trkpt lat="46.31262" lon="-1.30123">
        <ele>5.3</ele>
        <time>2021-06-17T09:30:51Z</time>
      </trkpt>
      <trkpt lat="46.31262" lon="-1.30123">
        <ele>5.3</ele>
        <time>2021-06-17T09:30:52Z</time>
      </trkpt>
      <trkpt lat="46.31263" lon="-1.30124">
        <ele>5.3</ele>
        <time>2021-06-17T09:30:53Z</time>
      </trkpt>
      <trkpt lat="46.31263" lon="-1.30124">
        <ele>5.3</ele>
        <time>2021-06-17T09:30:54Z</time>
      </trkpt>
      <trkpt lat="46.31264" lon="-1.30124">
        <ele>5.3</ele>
        <time>2021-06-17T09:30:55Z</time>
      </trkpt>
      <trkpt lat="46.31265" lon="-1.30125">
        <ele>5.3</ele>
        <time>2021-06-17T09:30:56Z</time>
      </trkpt>
      <trkpt lat="46.31266" lon="-1.30125">
        <ele>5.3</ele>
        <time>2021-06-17T09:30:57Z</time>
      </trkpt>
      <trkpt lat="46.31267" lon="-1.30125">
        <ele>5.3</ele>
        <time>2021-06-17T09:30:58Z</time>
      </trkpt>
      <trkpt lat="46.31268" lon="-1.30126">
        <ele>5.3</ele>
        <time>2021-06-17T09:30:59Z</time>
      </trkpt>
      <trkpt lat="46.31269" lon="-1.30126">
        <ele>5.3</ele>
        <time>2021-06-17T09:31:00Z</time>
      </trkpt>
      <trkpt lat="46.3127" lon="-1.30127">
        <ele>5.3</ele>
        <time>2021-06-17T09:31:01Z</time>
      </trkpt>
      <trkpt lat="46.31272" lon="-1.30128">
        <ele>5.3</ele>
        <time>2021-06-17T09:31:02Z</time>
      </trkpt>
      <trkpt lat="46.31273" lon="-1.30128">
        <ele>5.3</ele>
        <time>2021-06-17T09:31:03Z</time>
      </trkpt>
      <trkpt lat="46.31274" lon="-1.30129">
        <ele>5.3</ele>
        <time>2021-06-17T09:31:04Z</time>
      </trkpt>
      <trkpt lat="46.31276" lon="-1.30129">
        <ele>5.3</ele>
        <time>2021-06-17T09:31:05Z</time>
      </trkpt>
      <trkpt lat="46.31277" lon="-1.3013">
        <ele>5.3</ele>
        <time>2021-06-17T09:31:06Z</time>
      </trkpt>
      <trkpt lat="46.31278" lon="-1.30131">
        <ele>5.3</ele>
        <time>2021-06-17T09:31:07Z</time>
      </trkpt>
      <trkpt lat="46.31279" lon="-1.30131">
        <ele>5.3</ele>
        <time>2021-06-17T09:31:08Z</time>
      </trkpt>
      <trkpt lat="46.3128" lon="-1.30132">
        <ele>5.3</ele>
        <time>2021-06-17T09:31:09Z</time>
      </trkpt>
      <trkpt lat="46.31281" lon="-1.30133">
        <ele>5.3</ele>
        <time>2021-06-17T09:31:10Z</time>
      </trkpt>
      <trkpt lat="46.31282" lon="-1.30133">
        <ele>5.3</ele>
        <time>2021-06-17T09:31:11Z</time>
      </trkpt>
      <trkpt lat="46.31283" lon="-1.30134">
        <ele>5.3</ele>
        <time>2021-06-17T09:31:12Z</time>
      </trkpt>
      <trkpt lat="46.31284" lon="-1.30134">
        <ele>5.3</ele>
        <time>2021-06-17T09:31:13Z</time>
      </trkpt>
      <trkpt lat="46.31286" lon="-1.30135">
        <ele>5.3</ele>
        <time>2021-06-17T09:31:14Z</time>
      </trkpt>
      <trkpt lat="46.31287" lon="-1.30136">
        <ele>5.3</ele>
        <time>2021-06-17T09:31:15Z</time>
      </trkpt>
      <trkpt lat="46.31288" lon="-1.30136">
        <ele>5.3</ele>
        <time>2021-06-17T09:31:16Z</time>
      </trkpt>
      <trkpt lat="46.31289" lon="-1.30137">
        <ele>5.3</ele>
        <time>2021-06-17T09:31:17Z</time>
      </trkpt>
      <trkpt lat="46.31291" lon="-1.30138">
        <ele>5.3</ele>
        <time>2021-06-17T09:31:18Z</time>
      </trkpt>
      <trkpt lat="46.31292" lon="-1.30139">
        <ele>5.3</ele>
        <time>2021-06-17T09:31:19Z</time>
      </trkpt>
      <trkpt lat="46.31293" lon="-1.3014">
        <ele>5.2</ele>
        <time>2021-06-17T09:31:20Z</time>
      </trkpt>
      <trkpt lat="46.31295" lon="-1.30141">
        <ele>5.2</ele>
        <time>2021-06-17T09:31:21Z</time>
      </trkpt>
      <trkpt lat="46.31296" lon="-1.30141">
        <ele>5.2</ele>
        <time>2021-06-17T09:31:22Z</time>
      </trkpt>
      <trkpt lat="46.31297" lon="-1.30142">
        <ele>5.2</ele>
        <time>2021-06-17T09:31:23Z</time>
      </trkpt>
      <trkpt lat="46.31298" lon="-1.30142">
        <ele>5.2</ele>
        <time>2021-06-17T09:31:24Z</time>
      </trkpt>
      <trkpt lat="46.31299" lon="-1.30142">
        <ele>5.2</ele>
        <time>2021-06-17T09:31:25Z</time>
      </trkpt>
      <trkpt lat="46.313" lon="-1.30142">
        <ele>5.2</ele>
        <time>2021-06-17T09:31:26Z</time>
      </trkpt>
      <trkpt lat="46.31302" lon="-1.30143">
        <ele>5.2</ele>
        <time>2021-06-17T09:31:27Z</time>
      </trkpt>
      <trkpt lat="46.31303" lon="-1.30143">
        <ele>5.2</ele>
        <time>2021-06-17T09:31:28Z</time>
      </trkpt>
      <trkpt lat="46.31304" lon="-1.30143">
        <ele>5.2</ele>
        <time>2021-06-17T09:31:29Z</time>
      </trkpt>
      <trkpt lat="46.31305" lon="-1.30144">
        <ele>5.2</ele>
        <time>2021-06-17T09:31:30Z</time>
      </trkpt>
      <trkpt lat="46.31307" lon="-1.30145">
        <ele>5.2</ele>
        <time>2021-06-17T09:31:31Z</time>
      </trkpt>
      <trkpt lat="46.31308" lon="-1.30145">
        <ele>5.2</ele>
        <time>2021-06-17T09:31:32Z</time>
      </trkpt>
      <trkpt lat="46.31309" lon="-1.30146">
        <ele>5.2</ele>
        <time>2021-06-17T09:31:33Z</time>
      </trkpt>
      <trkpt lat="46.31311" lon="-1.30147">
        <ele>5.2</ele>
        <time>2021-06-17T09:31:34Z</time>
      </trkpt>
      <trkpt lat="46.31312" lon="-1.30148">
        <ele>5.2</ele>
        <time>2021-06-17T09:31:35Z</time>
      </trkpt>
      <trkpt lat="46.31313" lon="-1.30149">
        <ele>5.2</ele>
        <time>2021-06-17T09:31:36Z</time>
      </trkpt>
      <trkpt lat="46.31315" lon="-1.3015">
        <ele>5.2</ele>
        <time>2021-06-17T09:31:37Z</time>
      </trkpt>
      <trkpt lat="46.31316" lon="-1.3015">
        <ele>5.2</ele>
        <time>2021-06-17T09:31:38Z</time>
      </trkpt>
      <trkpt lat="46.31317" lon="-1.30151">
        <ele>5.2</ele>
        <time>2021-06-17T09:31:39Z</time>
      </trkpt>
      <trkpt lat="46.31318" lon="-1.30152">
        <ele>5.2</ele>
        <time>2021-06-17T09:31:40Z</time>
      </trkpt>
      <trkpt lat="46.31319" lon="-1.30152">
        <ele>5.2</ele>
        <time>2021-06-17T09:31:41Z</time>
      </trkpt>
      <trkpt lat="46.31321" lon="-1.30153">
        <ele>5.2</ele>
        <time>2021-06-17T09:31:42Z</time>
      </trkpt>
      <trkpt lat="46.31322" lon="-1.30153">
        <ele>5.2</ele>
        <time>2021-06-17T09:31:43Z</time>
      </trkpt>
      <trkpt lat="46.31323" lon="-1.30154">
        <ele>5.2</ele>
        <time>2021-06-17T09:31:44Z</time>
      </trkpt>
      <trkpt lat="46.31324" lon="-1.30154">
        <ele>5.2</ele>
        <time>2021-06-17T09:31:45Z</time>
      </trkpt>
      <trkpt lat="46.31325" lon="-1.30154">
        <ele>5.2</ele>
        <time>2021-06-17T09:31:46Z</time>
      </trkpt>
      <trkpt lat="46.31326" lon="-1.30154">
        <ele>5.2</ele>
        <time>2021-06-17T09:31:47Z</time>
      </trkpt>
      <trkpt lat="46.31327" lon="-1.30154">
        <ele>5.2</ele>
        <time>2021-06-17T09:31:48Z</time>
      </trkpt>
      <trkpt lat="46.31328" lon="-1.30154">
        <ele>5.2</ele>
        <time>2021-06-17T09:31:49Z</time>
      </trkpt>
      <trkpt lat="46.3133" lon="-1.30155">
        <ele>5.2</ele>
        <time>2021-06-17T09:31:50Z</time>
      </trkpt>
      <trkpt lat="46.31331" lon="-1.30155">
        <ele>5.2</ele>
        <time>2021-06-17T09:31:51Z</time>
      </trkpt>
      <trkpt lat="46.31333" lon="-1.30156">
        <ele>5.2</ele>
        <time>2021-06-17T09:31:52Z</time>
      </trkpt>
      <trkpt lat="46.31334" lon="-1.30157">
        <ele>5.2</ele>
        <time>2021-06-17T09:31:53Z</time>
      </trkpt>
      <trkpt lat="46.31335" lon="-1.30157">
        <ele>5.2</ele>
        <time>2021-06-17T09:31:54Z</time>
      </trkpt>
      <trkpt lat="46.31337" lon="-1.30158">
        <ele>5.2</ele>
        <time>2021-06-17T09:31:55Z</time>
      </trkpt>
      <trkpt lat="46.31338" lon="-1.30158">
        <ele>5.2</ele>
        <time>2021-06-17T09:31:56Z</time>
      </trkpt>
      <trkpt lat="46.31339" lon="-1.30158">
        <ele>5.2</ele>
        <time>2021-06-17T09:31:57Z</time>
      </trkpt>
      <trkpt lat="46.3134" lon="-1.30159">
        <ele>5.2</ele>
        <time>2021-06-17T09:31:58Z</time>
      </trkpt>
      <trkpt lat="46.31341" lon="-1.30159">
        <ele>5.2</ele>
        <time>2021-06-17T09:31:59Z</time>
      </trkpt>
      <trkpt lat="46.31342" lon="-1.30159">
        <ele>5.2</ele>
        <time>2021-06-17T09:32:00Z</time>
      </trkpt>
      <trkpt lat="46.31343" lon="-1.30159">
        <ele>5.2</ele>
        <time>2021-06-17T09:32:01Z</time>
      </trkpt>
      <trkpt lat="46.31344" lon="-1.3016">
        <ele>5.2</ele>
        <time>2021-06-17T09:32:02Z</time>
      </trkpt>
      <trkpt lat="46.31345" lon="-1.3016">
        <ele>5.2</ele>
        <time>2021-06-17T09:32:03Z</time>
      </trkpt>
      <trkpt lat="46.31346" lon="-1.3016">
        <ele>5.2</ele>
        <time>2021-06-17T09:32:04Z</time>
      </trkpt>
      <trkpt lat="46.31347" lon="-1.3016">
        <ele>5.2</ele>
        <time>2021-06-17T09:32:05Z</time>
      </trkpt>
      <trkpt lat="46.31348" lon="-1.3016">
        <ele>5.2</ele>
        <time>2021-06-17T09:32:06Z</time>
      </trkpt>
      <trkpt lat="46.31349" lon="-1.30161">
        <ele>5.2</ele>
        <time>2021-06-17T09:32:07Z</time>
      </trkpt>
      <trkpt lat="46.3135" lon="-1.30161">
        <ele>5.2</ele>
        <time>2021-06-17T09:32:08Z</time>
      </trkpt>
      <trkpt lat="46.31351" lon="-1.30162">
        <ele>5.2</ele>
        <time>2021-06-17T09:32:09Z</time>
      </trkpt>
      <trkpt lat="46.31352" lon="-1.30162">
        <ele>5.2</ele>
        <time>2021-06-17T09:32:10Z</time>
      </trkpt>
      <trkpt lat="46.31353" lon="-1.30162">
        <ele>5.2</ele>
        <time>2021-06-17T09:32:11Z</time>
      </trkpt>
      <trkpt lat="46.31355" lon="-1.30163">
        <ele>5.2</ele>
        <time>2021-06-17T09:32:12Z</time>
      </trkpt>
      <trkpt lat="46.31356" lon="-1.30163">
        <ele>5.2</ele>
        <time>2021-06-17T09:32:13Z</time>
      </trkpt>
      <trkpt lat="46.31357" lon="-1.30163">
        <ele>5.2</ele>
        <time>2021-06-17T09:32:14Z</time>
      </trkpt>
      <trkpt lat="46.31358" lon="-1.30164">
        <ele>5.2</ele>
        <time>2021-06-17T09:32:15Z</time>
      </trkpt>
      <trkpt lat="46.3136" lon="-1.30164">
        <ele>5.2</ele>
        <time>2021-06-17T09:32:16Z</time>
      </trkpt>
      <trkpt lat="46.31361" lon="-1.30164">
        <ele>5.2</ele>
        <time>2021-06-17T09:32:17Z</time>
      </trkpt>
      <trkpt lat="46.31362" lon="-1.30164">
        <ele>5.2</ele>
        <time>2021-06-17T09:32:18Z</time>
      </trkpt>
      <trkpt lat="46.31364" lon="-1.30164">
        <ele>5.2</ele>
        <time>2021-06-17T09:32:19Z</time>
      </trkpt>
      <trkpt lat="46.31365" lon="-1.30164">
        <ele>5.2</ele>
        <time>2021-06-17T09:32:20Z</time>
      </trkpt>
      <trkpt lat="46.31366" lon="-1.30164">
        <ele>5.2</ele>
        <time>2021-06-17T09:32:21Z</time>
      </trkpt>
      <trkpt lat="46.31368" lon="-1.30164">
        <ele>5.2</ele>
        <time>2021-06-17T09:32:22Z</time>
      </trkpt>
      <trkpt lat="46.31369" lon="-1.30164">
        <ele>5.2</ele>
        <time>2021-06-17T09:32:23Z</time>
      </trkpt>
      <trkpt lat="46.3137" lon="-1.30164">
        <ele>5.2</ele>
        <time>2021-06-17T09:32:24Z</time>
      </trkpt>
      <trkpt lat="46.31371" lon="-1.30164">
        <ele>5.2</ele>
        <time>2021-06-17T09:32:25Z</time>
      </trkpt>
      <trkpt lat="46.31373" lon="-1.30164">
        <ele>5.2</ele>
        <time>2021-06-17T09:32:26Z</time>
      </trkpt>
      <trkpt lat="46.31374" lon="-1.30164">
        <ele>5.2</ele>
        <time>2021-06-17T09:32:27Z</time>
      </trkpt>
      <trkpt lat="46.31375" lon="-1.30164">
        <ele>5.2</ele>
        <time>2021-06-17T09:32:28Z</time>
      </trkpt>
      <trkpt lat="46.31376" lon="-1.30164">
        <ele>5.2</ele>
        <time>2021-06-17T09:32:29Z</time>
      </trkpt>
      <trkpt lat="46.31377" lon="-1.30164">
        <ele>5.2</ele>
        <time>2021-06-17T09:32:30Z</time>
      </trkpt>
      <trkpt lat="46.31378" lon="-1.30164">
        <ele>5.2</ele>
        <time>2021-06-17T09:32:31Z</time>
      </trkpt>
      <trkpt lat="46.31379" lon="-1.30164">
        <ele>5.2</ele>
        <time>2021-06-17T09:32:32Z</time>
      </trkpt>
      <trkpt lat="46.3138" lon="-1.30164">
        <ele>5.2</ele>
        <time>2021-06-17T09:32:33Z</time>
      </trkpt>
      <trkpt lat="46.31381" lon="-1.30163">
        <ele>5.2</ele>
        <time>2021-06-17T09:32:34Z</time>
      </trkpt>
      <trkpt lat="46.31383" lon="-1.30163">
        <ele>5.2</ele>
        <time>2021-06-17T09:32:35Z</time>
      </trkpt>
      <trkpt lat="46.31384" lon="-1.30163">
        <ele>5.2</ele>
        <time>2021-06-17T09:32:36Z</time>
      </trkpt>
      <trkpt lat="46.31385" lon="-1.30163">
        <ele>5.2</ele>
        <time>2021-06-17T09:32:37Z</time>
      </trkpt>
      <trkpt lat="46.31386" lon="-1.30162">
        <ele>5.2</ele>
        <time>2021-06-17T09:32:38Z</time>
      </trkpt>
      <trkpt lat="46.31387" lon="-1.30162">
        <ele>5.2</ele>
        <time>2021-06-17T09:32:39Z</time>
      </trkpt>
      <trkpt lat="46.31389" lon="-1.30162">
        <ele>5.2</ele>
        <time>2021-06-17T09:32:40Z</time>
      </trkpt>
      <trkpt lat="46.3139" lon="-1.30162">
        <ele>5.2</ele>
        <time>2021-06-17T09:32:41Z</time>
      </trkpt>
      <trkpt lat="46.31391" lon="-1.30162">
        <ele>5.2</ele>
        <time>2021-06-17T09:32:42Z</time>
      </trkpt>
      <trkpt lat="46.31392" lon="-1.30162">
        <ele>5.2</ele>
        <time>2021-06-17T09:32:43Z</time>
      </trkpt>
      <trkpt lat="46.31393" lon="-1.30161">
        <ele>5.1</ele>
        <time>2021-06-17T09:32:44Z</time>
      </trkpt>
      <trkpt lat="46.31394" lon="-1.30161">
        <ele>5.1</ele>
        <time>2021-06-17T09:32:45Z</time>
      </trkpt>
      <trkpt lat="46.31396" lon="-1.30161">
        <ele>5.1</ele>
        <time>2021-06-17T09:32:46Z</time>
      </trkpt>
      <trkpt lat="46.31397" lon="-1.30161">
        <ele>5.1</ele>
        <time>2021-06-17T09:32:47Z</time>
      </trkpt>
      <trkpt lat="46.31398" lon="-1.30161">
        <ele>5.1</ele>
        <time>2021-06-17T09:32:48Z</time>
      </trkpt>
      <trkpt lat="46.31399" lon="-1.30162">
        <ele>5.1</ele>
        <time>2021-06-17T09:32:49Z</time>
      </trkpt>
      <trkpt lat="46.314" lon="-1.30162">
        <ele>5.1</ele>
        <time>2021-06-17T09:32:50Z</time>
      </trkpt>
      <trkpt lat="46.31402" lon="-1.30162">
        <ele>5.1</ele>
        <time>2021-06-17T09:32:51Z</time>
      </trkpt>
      <trkpt lat="46.31403" lon="-1.30162">
        <ele>5.1</ele>
        <time>2021-06-17T09:32:52Z</time>
      </trkpt>
      <trkpt lat="46.31404" lon="-1.30162">
        <ele>5.1</ele>
        <time>2021-06-17T09:32:53Z</time>
      </trkpt>
      <trkpt lat="46.31405" lon="-1.30162">
        <ele>5.1</ele>
        <time>2021-06-17T09:32:54Z</time>
      </trkpt>
      <trkpt lat="46.31407" lon="-1.30162">
        <ele>5.1</ele>
        <time>2021-06-17T09:32:55Z</time>
      </trkpt>
      <trkpt lat="46.31408" lon="-1.30162">
        <ele>5.1</ele>
        <time>2021-06-17T09:32:56Z</time>
      </trkpt>
      <trkpt lat="46.31409" lon="-1.30162">
        <ele>5.1</ele>
        <time>2021-06-17T09:32:57Z</time>
      </trkpt>
      <trkpt lat="46.31411" lon="-1.30162">
        <ele>5.1</ele>
        <time>2021-06-17T09:32:58Z</time>
      </trkpt>
      <trkpt lat="46.31412" lon="-1.30162">
        <ele>5.1</ele>
        <time>2021-06-17T09:32:59Z</time>
      </trkpt>
      <trkpt lat="46.31413" lon="-1.30162">
        <ele>5.1</ele>
        <time>2021-06-17T09:33:00Z</time>
      </trkpt>
      <trkpt lat="46.31414" lon="-1.30162">
        <ele>5.1</ele>
        <time>2021-06-17T09:33:01Z</time>
      </trkpt>
      <trkpt lat="46.31415" lon="-1.30162">
        <ele>5.1</ele>
        <time>2021-06-17T09:33:02Z</time>
      </trkpt>
      <trkpt lat="46.31417" lon="-1.30162">
        <ele>5.1</ele>
        <time>2021-06-17T09:33:03Z</time>
      </trkpt>
      <trkpt lat="46.31418" lon="-1.30162">
        <ele>5.1</ele>
        <time>2021-06-17T09:33:04Z</time>
      </trkpt>
      <trkpt lat="46.31419" lon="-1.30162">
        <ele>5.1</ele>
        <time>2021-06-17T09:33:05Z</time>
      </trkpt>
      <trkpt lat="46.3142" lon="-1.30162">
        <ele>5.1</ele>
        <time>2021-06-17T09:33:06Z</time>
      </trkpt>
      <trkpt lat="46.31421" lon="-1.30162">
        <ele>5.1</ele>
        <time>2021-06-17T09:33:07Z</time>
      </trkpt>
      <trkpt lat="46.31422" lon="-1.30161">
        <ele>5.1</ele>
        <time>2021-06-17T09:33:08Z</time>
      </trkpt>
      <trkpt lat="46.31424" lon="-1.30161">
        <ele>5.1</ele>
        <time>2021-06-17T09:33:09Z</time>
      </trkpt>
      <trkpt lat="46.31425" lon="-1.30161">
        <ele>5.1</ele>
        <time>2021-06-17T09:33:10Z</time>
      </trkpt>
      <trkpt lat="46.31426" lon="-1.30161">
        <ele>5.1</ele>
        <time>2021-06-17T09:33:11Z</time>
      </trkpt>
      <trkpt lat="46.31427" lon="-1.30161">
        <ele>5.1</ele>
        <time>2021-06-17T09:33:12Z</time>
      </trkpt>
      <trkpt lat="46.31428" lon="-1.30161">
        <ele>5.1</ele>
        <time>2021-06-17T09:33:13Z</time>
      </trkpt>
      <trkpt lat="46.31429" lon="-1.30161">
        <ele>5.1</ele>
        <time>2021-06-17T09:33:14Z</time>
      </trkpt>
      <trkpt lat="46.3143" lon="-1.30161">
        <ele>5.1</ele>
        <time>2021-06-17T09:33:15Z</time>
      </trkpt>
      <trkpt lat="46.31431" lon="-1.30161">
        <ele>5.1</ele>
        <time>2021-06-17T09:33:16Z</time>
      </trkpt>
      <trkpt lat="46.31433" lon="-1.30161">
        <ele>5.1</ele>
        <time>2021-06-17T09:33:17Z</time>
      </trkpt>
      <trkpt lat="46.31434" lon="-1.30161">
        <ele>5.1</ele>
        <time>2021-06-17T09:33:18Z</time>
      </trkpt>
      <trkpt lat="46.31435" lon="-1.30161">
        <ele>5.1</ele>
        <time>2021-06-17T09:33:19Z</time>
      </trkpt>
      <trkpt lat="46.31436" lon="-1.30162">
        <ele>5.1</ele>
        <time>2021-06-17T09:33:20Z</time>
      </trkpt>
      <trkpt lat="46.31437" lon="-1.30162">
        <ele>5.1</ele>
        <time>2021-06-17T09:33:21Z</time>
      </trkpt>
      <trkpt lat="46.31439" lon="-1.30162">
        <ele>5.1</ele>
        <time>2021-06-17T09:33:22Z</time>
      </trkpt>
      <trkpt lat="46.3144" lon="-1.30163">
        <ele>5.1</ele>
        <time>2021-06-17T09:33:23Z</time>
      </trkpt>
      <trkpt lat="46.31441" lon="-1.30163">
        <ele>5.1</ele>
        <time>2021-06-17T09:33:24Z</time>
      </trkpt>
      <trkpt lat="46.31443" lon="-1.30164">
        <ele>5.1</ele>
        <time>2021-06-17T09:33:25Z</time>
      </trkpt>
      <trkpt lat="46.31444" lon="-1.30164">
        <ele>5.1</ele>
        <time>2021-06-17T09:33:26Z</time>
      </trkpt>
      <trkpt lat="46.31446" lon="-1.30165">
        <ele>5.1</ele>
        <time>2021-06-17T09:33:27Z</time>
      </trkpt>
      <trkpt lat="46.31447" lon="-1.30166">
        <ele>5.1</ele>
        <time>2021-06-17T09:33:28Z</time>
      </trkpt>
      <trkpt lat="46.31448" lon="-1.30167">
        <ele>5.1</ele>
        <time>2021-06-17T09:33:29Z</time>
      </trkpt>
      <trkpt lat="46.3145" lon="-1.30167">
        <ele>5.1</ele>
        <time>2021-06-17T09:33:30Z</time>
      </trkpt>
      <trkpt lat="46.31451" lon="-1.30168">
        <ele>5.1</ele>
        <time>2021-06-17T09:33:31Z</time>
      </trkpt>
      <trkpt lat="46.31452" lon="-1.30169">
        <ele>5.1</ele>
        <time>2021-06-17T09:33:32Z</time>
      </trkpt>
      <trkpt lat="46.31453" lon="-1.30169">
        <ele>5.1</ele>
        <time>2021-06-17T09:33:33Z</time>
      </trkpt>
      <trkpt lat="46.31454" lon="-1.3017">
        <ele>5.1</ele>
        <time>2021-06-17T09:33:34Z</time>
      </trkpt>
      <trkpt lat="46.31455" lon="-1.3017">
        <ele>5.1</ele>
        <time>2021-06-17T09:33:35Z</time>
      </trkpt>
      <trkpt lat="46.31456" lon="-1.30171">
        <ele>5.1</ele>
        <time>2021-06-17T09:33:36Z</time>
      </trkpt>
      <trkpt lat="46.31456" lon="-1.30171">
        <ele>5.1</ele>
        <time>2021-06-17T09:33:37Z</time>
      </trkpt>
      <trkpt lat="46.31457" lon="-1.30171">
        <ele>5.1</ele>
        <time>2021-06-17T09:33:38Z</time>
      </trkpt>
      <trkpt lat="46.31457" lon="-1.30171">
        <ele>5.1</ele>
        <time>2021-06-17T09:33:39Z</time>
      </trkpt>
      <trkpt lat="46.31457" lon="-1.30171">
        <ele>5.1</ele>
        <time>2021-06-17T09:33:40Z</time>
      </trkpt>
      <trkpt lat="46.31457" lon="-1.30171">
        <ele>5.1</ele>
        <time>2021-06-17T09:33:41Z</time>
      </trkpt>
      <trkpt lat="46.31457" lon="-1.30171">
        <ele>5.1</ele>
        <time>2021-06-17T09:33:42Z</time>
      </trkpt>
      <trkpt lat="46.31457" lon="-1.30171">
        <ele>5.1</ele>
        <time>2021-06-17T09:33:43Z</time>
      </trkpt>
      <trkpt lat="46.31457" lon="-1.30171">
        <ele>5.1</ele>
        <time>2021-06-17T09:33:44Z</time>
      </trkpt>
      <trkpt lat="46.31457" lon="-1.30171">
        <ele>5.1</ele>
        <time>2021-06-17T09:33:45Z</time>
      </trkpt>
      <trkpt lat="46.31457" lon="-1.30171">
        <ele>5.1</ele>
        <time>2021-06-17T09:33:46Z</time>
      </trkpt>
      <trkpt lat="46.31457" lon="-1.30171">
        <ele>5.1</ele>
        <time>2021-06-17T09:33:47Z</time>
      </trkpt>
      <trkpt lat="46.31457" lon="-1.3017">
        <ele>5.1</ele>
        <time>2021-06-17T09:33:48Z</time>
      </trkpt>
      <trkpt lat="46.31457" lon="-1.3017">
        <ele>5.1</ele>
        <time>2021-06-17T09:33:49Z</time>
      </trkpt>
      <trkpt lat="46.31457" lon="-1.3017">
        <ele>5.1</ele>
        <time>2021-06-17T09:33:50Z</time>
      </trkpt>
      <trkpt lat="46.31458" lon="-1.30171">
        <ele>5.1</ele>
        <time>2021-06-17T09:33:51Z</time>
      </trkpt>
      <trkpt lat="46.31458" lon="-1.30171">
        <ele>5.1</ele>
        <time>2021-06-17T09:33:52Z</time>
      </trkpt>
      <trkpt lat="46.31458" lon="-1.30171">
        <ele>5.1</ele>
        <time>2021-06-17T09:33:53Z</time>
      </trkpt>
      <trkpt lat="46.31459" lon="-1.30172">
        <ele>5.1</ele>
        <time>2021-06-17T09:33:54Z</time>
      </trkpt>
      <trkpt lat="46.31459" lon="-1.30172">
        <ele>5.1</ele>
        <time>2021-06-17T09:33:55Z</time>
      </trkpt>
      <trkpt lat="46.3146" lon="-1.30173">
        <ele>5.1</ele>
        <time>2021-06-17T09:33:56Z</time>
      </trkpt>
      <trkpt lat="46.3146" lon="-1.30174">
        <ele>5.1</ele>
        <time>2021-06-17T09:33:57Z</time>
      </trkpt>
      <trkpt lat="46.31461" lon="-1.30175">
        <ele>5.1</ele>
        <time>2021-06-17T09:33:58Z</time>
      </trkpt>
      <trkpt lat="46.31462" lon="-1.30176">
        <ele>5.1</ele>
        <time>2021-06-17T09:33:59Z</time>
      </trkpt>
      <trkpt lat="46.31462" lon="-1.30178">
        <ele>5.1</ele>
        <time>2021-06-17T09:34:00Z</time>
      </trkpt>
      <trkpt lat="46.31463" lon="-1.30179">
        <ele>5.1</ele>
        <time>2021-06-17T09:34:01Z</time>
      </trkpt>
      <trkpt lat="46.31463" lon="-1.30179">
        <ele>5.1</ele>
        <time>2021-06-17T09:34:02Z</time>
      </trkpt>
      <trkpt lat="46.31464" lon="-1.30179">
        <ele>5.1</ele>
        <time>2021-06-17T09:34:03Z</time>
      </trkpt>
      <trkpt lat="46.31464" lon="-1.30179">
        <ele>5.1</ele>
        <time>2021-06-17T09:34:04Z</time>
      </trkpt>
      <trkpt lat="46.31464" lon="-1.30179">
        <ele>5.1</ele>
        <time>2021-06-17T09:34:05Z</time>
      </trkpt>
      <trkpt lat="46.31465" lon="-1.30179">
        <ele>5.1</ele>
        <time>2021-06-17T09:34:06Z</time>
      </trkpt>
      <trkpt lat="46.31465" lon="-1.30179">
        <ele>5.1</ele>
        <time>2021-06-17T09:34:07Z</time>
      </trkpt>
      <trkpt lat="46.31465" lon="-1.30179">
        <ele>5.1</ele>
        <time>2021-06-17T09:34:08Z</time>
      </trkpt>
      <trkpt lat="46.31465" lon="-1.30179">
        <ele>5.1</ele>
        <time>2021-06-17T09:34:09Z</time>
      </trkpt>
      <trkpt lat="46.31465" lon="-1.30179">
        <ele>5.1</ele>
        <time>2021-06-17T09:34:10Z</time>
      </trkpt>
      <trkpt lat="46.31465" lon="-1.30179">
        <ele>5.1</ele>
        <time>2021-06-17T09:34:11Z</time>
      </trkpt>
      <trkpt lat="46.31465" lon="-1.30179">
        <ele>5.1</ele>
        <time>2021-06-17T09:34:12Z</time>
      </trkpt>
      <trkpt lat="46.31465" lon="-1.30179">
        <ele>5.1</ele>
        <time>2021-06-17T09:34:13Z</time>
      </trkpt>
      <trkpt lat="46.31465" lon="-1.30179">
        <ele>5.1</ele>
        <time>2021-06-17T09:34:14Z</time>
      </trkpt>
      <trkpt lat="46.31465" lon="-1.30179">
        <ele>5.1</ele>
        <time>2021-06-17T09:34:15Z</time>
      </trkpt>
      <trkpt lat="46.31465" lon="-1.30179">
        <ele>5.1</ele>
        <time>2021-06-17T09:34:16Z</time>
      </trkpt>
      <trkpt lat="46.31465" lon="-1.30179">
        <ele>5.1</ele>
        <time>2021-06-17T09:34:17Z</time>
      </trkpt>
      <trkpt lat="46.31465" lon="-1.3018">
        <ele>5.1</ele>
        <time>2021-06-17T09:34:18Z</time>
      </trkpt>
      <trkpt lat="46.31465" lon="-1.30181">
        <ele>5.1</ele>
        <time>2021-06-17T09:34:19Z</time>
      </trkpt>
      <trkpt lat="46.31466" lon="-1.30181">
        <ele>5.1</ele>
        <time>2021-06-17T09:34:20Z</time>
      </trkpt>
      <trkpt lat="46.31466" lon="-1.30182">
        <ele>5.1</ele>
        <time>2021-06-17T09:34:21Z</time>
      </trkpt>
      <trkpt lat="46.31466" lon="-1.30182">
        <ele>5.1</ele>
        <time>2021-06-17T09:34:22Z</time>
      </trkpt>
      <trkpt lat="46.31466" lon="-1.30183">
        <ele>5.1</ele>
        <time>2021-06-17T09:34:23Z</time>
      </trkpt>
      <trkpt lat="46.31466" lon="-1.30183">
        <ele>5.1</ele>
        <time>2021-06-17T09:34:24Z</time>
      </trkpt>
      <trkpt lat="46.31466" lon="-1.30183">
        <ele>5.1</ele>
        <time>2021-06-17T09:34:25Z</time>
      </trkpt>
      <trkpt lat="46.31466" lon="-1.30183">
        <ele>5.1</ele>
        <time>2021-06-17T09:34:26Z</time>
      </trkpt>
      <trkpt lat="46.31466" lon="-1.30183">
        <ele>5.1</ele>
        <time>2021-06-17T09:34:27Z</time>
      </trkpt>
      <trkpt lat="46.31466" lon="-1.30183">
        <ele>5.1</ele>
        <time>2021-06-17T09:34:28Z</time>
      </trkpt>
      <trkpt lat="46.31466" lon="-1.30183">
        <ele>5.1</ele>
        <time>2021-06-17T09:34:29Z</time>
      </trkpt>
      <trkpt lat="46.31466" lon="-1.30183">
        <ele>5.1</ele>
        <time>2021-06-17T09:34:30Z</time>
      </trkpt>
      <trkpt lat="46.31466" lon="-1.30183">
        <ele>5.1</ele>
        <time>2021-06-17T09:34:31Z</time>
      </trkpt>
      <trkpt lat="46.31466" lon="-1.30183">
        <ele>5.1</ele>
        <time>2021-06-17T09:34:32Z</time>
      </trkpt>
      <trkpt lat="46.31466" lon="-1.30183">
        <ele>5.1</ele>
        <time>2021-06-17T09:34:33Z</time>
      </trkpt>
      <trkpt lat="46.31466" lon="-1.30183">
        <ele>5.1</ele>
        <time>2021-06-17T09:34:34Z</time>
      </trkpt>
      <trkpt lat="46.31466" lon="-1.30183">
        <ele>5.1</ele>
        <time>2021-06-17T09:34:35Z</time>
      </trkpt>
      <trkpt lat="46.31466" lon="-1.30183">
        <ele>5.1</ele>
        <time>2021-06-17T09:34:36Z</time>
      </trkpt>
      <trkpt lat="46.31466" lon="-1.30183">
        <ele>5.1</ele>
        <time>2021-06-17T09:34:37Z</time>
      </trkpt>
      <trkpt lat="46.31466" lon="-1.30183">
        <ele>5.1</ele>
        <time>2021-06-17T09:34:38Z</time>
      </trkpt>
      <trkpt lat="46.31466" lon="-1.30183">
        <ele>5.1</ele>
        <time>2021-06-17T09:34:39Z</time>
      </trkpt>
      <trkpt lat="46.31466" lon="-1.30183">
        <ele>5.1</ele>
        <time>2021-06-17T09:34:40Z</time>
      </trkpt>
      <trkpt lat="46.31466" lon="-1.30183">
        <ele>5.1</ele>
        <time>2021-06-17T09:34:41Z</time>
      </trkpt>
      <trkpt lat="46.31466" lon="-1.30183">
        <ele>5.1</ele>
        <time>2021-06-17T09:34:42Z</time>
      </trkpt>
      <trkpt lat="46.31466" lon="-1.30184">
        <ele>5.1</ele>
        <time>2021-06-17T09:34:43Z</time>
      </trkpt>
      <trkpt lat="46.31467" lon="-1.30184">
        <ele>5.1</ele>
        <time>2021-06-17T09:34:44Z</time>
      </trkpt>
      <trkpt lat="46.31467" lon="-1.30185">
        <ele>5.1</ele>
        <time>2021-06-17T09:34:45Z</time>
      </trkpt>
      <trkpt lat="46.31468" lon="-1.30186">
        <ele>5.1</ele>
        <time>2021-06-17T09:34:46Z</time>
      </trkpt>
      <trkpt lat="46.31469" lon="-1.30188">
        <ele>5.1</ele>
        <time>2021-06-17T09:34:47Z</time>
      </trkpt>
      <trkpt lat="46.31469" lon="-1.30189">
        <ele>5.1</ele>
        <time>2021-06-17T09:34:48Z</time>
      </trkpt>
      <trkpt lat="46.3147" lon="-1.3019">
        <ele>5.1</ele>
        <time>2021-06-17T09:34:49Z</time>
      </trkpt>
      <trkpt lat="46.3147" lon="-1.30191">
        <ele>5.1</ele>
        <time>2021-06-17T09:34:50Z</time>
      </trkpt>
      <trkpt lat="46.31471" lon="-1.30191">
        <ele>5.1</ele>
        <time>2021-06-17T09:34:51Z</time>
      </trkpt>
      <trkpt lat="46.31471" lon="-1.30191">
        <ele>5.1</ele>
        <time>2021-06-17T09:34:52Z</time>
      </trkpt>
      <trkpt lat="46.3147" lon="-1.30191">
        <ele>5.1</ele>
        <time>2021-06-17T09:34:53Z</time>
      </trkpt>
      <trkpt lat="46.3147" lon="-1.30191">
        <ele>5.1</ele>
        <time>2021-06-17T09:34:54Z</time>
      </trkpt>
      <trkpt lat="46.3147" lon="-1.30191">
        <ele>5.1</ele>
        <time>2021-06-17T09:34:55Z</time>
      </trkpt>
      <trkpt lat="46.3147" lon="-1.30191">
        <ele>5.1</ele>
        <time>2021-06-17T09:34:56Z</time>
      </trkpt>
      <trkpt lat="46.31471" lon="-1.30191">
        <ele>5.1</ele>
        <time>2021-06-17T09:34:57Z</time>
      </trkpt>
      <trkpt lat="46.31471" lon="-1.30192">
        <ele>5.1</ele>
        <time>2021-06-17T09:34:58Z</time>
      </trkpt>
      <trkpt lat="46.31471" lon="-1.30192">
        <ele>5.1</ele>
        <time>2021-06-17T09:34:59Z</time>
      </trkpt>
      <trkpt lat="46.31472" lon="-1.30192">
        <ele>5.2</ele>
        <time>2021-06-17T09:35:00Z</time>
      </trkpt>
      <trkpt lat="46.31472" lon="-1.30193">
        <ele>5.2</ele>
        <time>2021-06-17T09:35:01Z</time>
      </trkpt>
      <trkpt lat="46.31473" lon="-1.30194">
        <ele>5.2</ele>
        <time>2021-06-17T09:35:02Z</time>
      </trkpt>
      <trkpt lat="46.31474" lon="-1.30195">
        <ele>5.2</ele>
        <time>2021-06-17T09:35:03Z</time>
      </trkpt>
      <trkpt lat="46.31475" lon="-1.30196">
        <ele>5.2</ele>
        <time>2021-06-17T09:35:04Z</time>
      </trkpt>
      <trkpt lat="46.31476" lon="-1.30197">
        <ele>5.2</ele>
        <time>2021-06-17T09:35:05Z</time>
      </trkpt>
      <trkpt lat="46.31477" lon="-1.30199">
        <ele>5.2</ele>
        <time>2021-06-17T09:35:06Z</time>
      </trkpt>
      <trkpt lat="46.31479" lon="-1.302">
        <ele>5.2</ele>
        <time>2021-06-17T09:35:07Z</time>
      </trkpt>
      <trkpt lat="46.3148" lon="-1.30201">
        <ele>5.2</ele>
        <time>2021-06-17T09:35:08Z</time>
      </trkpt>
      <trkpt lat="46.31481" lon="-1.30202">
        <ele>5.2</ele>
        <time>2021-06-17T09:35:09Z</time>
      </trkpt>
      <trkpt lat="46.31482" lon="-1.30204">
        <ele>5.2</ele>
        <time>2021-06-17T09:35:10Z</time>
      </trkpt>
      <trkpt lat="46.31484" lon="-1.30205">
        <ele>5.2</ele>
        <time>2021-06-17T09:35:11Z</time>
      </trkpt>
      <trkpt lat="46.31485" lon="-1.30206">
        <ele>5.2</ele>
        <time>2021-06-17T09:35:12Z</time>
      </trkpt>
      <trkpt lat="46.31486" lon="-1.30207">
        <ele>5.2</ele>
        <time>2021-06-17T09:35:13Z</time>
      </trkpt>
      <trkpt lat="46.31487" lon="-1.30209">
        <ele>5.2</ele>
        <time>2021-06-17T09:35:14Z</time>
      </trkpt>
      <trkpt lat="46.31488" lon="-1.3021">
        <ele>5.2</ele>
        <time>2021-06-17T09:35:15Z</time>
      </trkpt>
      <trkpt lat="46.31489" lon="-1.30211">
        <ele>5.2</ele>
        <time>2021-06-17T09:35:16Z</time>
      </trkpt>
      <trkpt lat="46.3149" lon="-1.30212">
        <ele>5.2</ele>
        <time>2021-06-17T09:35:17Z</time>
      </trkpt>
      <trkpt lat="46.31491" lon="-1.30214">
        <ele>5.2</ele>
        <time>2021-06-17T09:35:18Z</time>
      </trkpt>
      <trkpt lat="46.31492" lon="-1.30215">
        <ele>5.2</ele>
        <time>2021-06-17T09:35:19Z</time>
      </trkpt>
      <trkpt lat="46.31493" lon="-1.30216">
        <ele>5.2</ele>
        <time>2021-06-17T09:35:20Z</time>
      </trkpt>
      <trkpt lat="46.31494" lon="-1.30217">
        <ele>5.2</ele>
        <time>2021-06-17T09:35:21Z</time>
      </trkpt>
      <trkpt lat="46.31495" lon="-1.30219">
        <ele>5.2</ele>
        <time>2021-06-17T09:35:22Z</time>
      </trkpt>
      <trkpt lat="46.31495" lon="-1.3022">
        <ele>5.2</ele>
        <time>2021-06-17T09:35:23Z</time>
      </trkpt>
      <trkpt lat="46.31496" lon="-1.30221">
        <ele>5.2</ele>
        <time>2021-06-17T09:35:24Z</time>
      </trkpt>
      <trkpt lat="46.31497" lon="-1.30223">
        <ele>5.2</ele>
        <time>2021-06-17T09:35:25Z</time>
      </trkpt>
      <trkpt lat="46.31498" lon="-1.30224">
        <ele>5.2</ele>
        <time>2021-06-17T09:35:26Z</time>
      </trkpt>
      <trkpt lat="46.31499" lon="-1.30225">
        <ele>5.2</ele>
        <time>2021-06-17T09:35:27Z</time>
      </trkpt>
      <trkpt lat="46.31499" lon="-1.30227">
        <ele>5.2</ele>
        <time>2021-06-17T09:35:28Z</time>
      </trkpt>
      <trkpt lat="46.315" lon="-1.30228">
        <ele>5.2</ele>
        <time>2021-06-17T09:35:29Z</time>
      </trkpt>
      <trkpt lat="46.31501" lon="-1.30229">
        <ele>5.2</ele>
        <time>2021-06-17T09:35:30Z</time>
      </trkpt>
      <trkpt lat="46.31502" lon="-1.30231">
        <ele>5.2</ele>
        <time>2021-06-17T09:35:31Z</time>
      </trkpt>
      <trkpt lat="46.31503" lon="-1.30232">
        <ele>5.2</ele>
        <time>2021-06-17T09:35:32Z</time>
      </trkpt>
      <trkpt lat="46.31504" lon="-1.30233">
        <ele>5.2</ele>
        <time>2021-06-17T09:35:33Z</time>
      </trkpt>
      <trkpt lat="46.31505" lon="-1.30234">
        <ele>5.2</ele>
        <time>2021-06-17T09:35:34Z</time>
      </trkpt>
      <trkpt lat="46.31506" lon="-1.30235">
        <ele>5.2</ele>
        <time>2021-06-17T09:35:35Z</time>
      </trkpt>
      <trkpt lat="46.31507" lon="-1.30237">
        <ele>5.2</ele>
        <time>2021-06-17T09:35:36Z</time>
      </trkpt>
      <trkpt lat="46.31507" lon="-1.30238">
        <ele>5.2</ele>
        <time>2021-06-17T09:35:37Z</time>
      </trkpt>
      <trkpt lat="46.31508" lon="-1.30239">
        <ele>5.2</ele>
        <time>2021-06-17T09:35:38Z</time>
      </trkpt>
      <trkpt lat="46.31509" lon="-1.3024">
        <ele>5.2</ele>
        <time>2021-06-17T09:35:39Z</time>
      </trkpt>
      <trkpt lat="46.3151" lon="-1.30242">
        <ele>5.2</ele>
        <time>2021-06-17T09:35:40Z</time>
      </trkpt>
      <trkpt lat="46.31511" lon="-1.30243">
        <ele>5.2</ele>
        <time>2021-06-17T09:35:41Z</time>
      </trkpt>
      <trkpt lat="46.31512" lon="-1.30244">
        <ele>5.2</ele>
        <time>2021-06-17T09:35:42Z</time>
      </trkpt>
      <trkpt lat="46.31513" lon="-1.30246">
        <ele>5.2</ele>
        <time>2021-06-17T09:35:43Z</time>
      </trkpt>
      <trkpt lat="46.31513" lon="-1.30247">
        <ele>5.2</ele>
        <time>2021-06-17T09:35:44Z</time>
      </trkpt>
      <trkpt lat="46.31514" lon="-1.30248">
        <ele>5.2</ele>
        <time>2021-06-17T09:35:45Z</time>
      </trkpt>
      <trkpt lat="46.31515" lon="-1.3025">
        <ele>5.2</ele>
        <time>2021-06-17T09:35:46Z</time>
      </trkpt>
      <trkpt lat="46.31516" lon="-1.30251">
        <ele>5.2</ele>
        <time>2021-06-17T09:35:47Z</time>
      </trkpt>
      <trkpt lat="46.31517" lon="-1.30253">
        <ele>5.2</ele>
        <time>2021-06-17T09:35:48Z</time>
      </trkpt>
      <trkpt lat="46.31517" lon="-1.30254">
        <ele>5.2</ele>
        <time>2021-06-17T09:35:49Z</time>
      </trkpt>
      <trkpt lat="46.31518" lon="-1.30255">
        <ele>5.2</ele>
        <time>2021-06-17T09:35:50Z</time>
      </trkpt>
      <trkpt lat="46.31519" lon="-1.30257">
        <ele>5.2</ele>
        <time>2021-06-17T09:35:51Z</time>
      </trkpt>
      <trkpt lat="46.3152" lon="-1.30258">
        <ele>5.2</ele>
        <time>2021-06-17T09:35:52Z</time>
      </trkpt>
      <trkpt lat="46.31521" lon="-1.3026">
        <ele>5.2</ele>
        <time>2021-06-17T09:35:53Z</time>
      </trkpt>
      <trkpt lat="46.31521" lon="-1.30261">
        <ele>5.2</ele>
        <time>2021-06-17T09:35:54Z</time>
      </trkpt>
      <trkpt lat="46.31522" lon="-1.30263">
        <ele>5.2</ele>
        <time>2021-06-17T09:35:55Z</time>
      </trkpt>
      <trkpt lat="46.31523" lon="-1.30264">
        <ele>5.2</ele>
        <time>2021-06-17T09:35:56Z</time>
      </trkpt>
      <trkpt lat="46.31524" lon="-1.30265">
        <ele>5.2</ele>
        <time>2021-06-17T09:35:57Z</time>
      </trkpt>
      <trkpt lat="46.31525" lon="-1.30267">
        <ele>5.2</ele>
        <time>2021-06-17T09:35:58Z</time>
      </trkpt>
      <trkpt lat="46.31526" lon="-1.30268">
        <ele>5.2</ele>
        <time>2021-06-17T09:35:59Z</time>
      </trkpt>
      <trkpt lat="46.31527" lon="-1.3027">
        <ele>5.2</ele>
        <time>2021-06-17T09:36:00Z</time>
      </trkpt>
      <trkpt lat="46.31527" lon="-1.30271">
        <ele>5.2</ele>
        <time>2021-06-17T09:36:01Z</time>
      </trkpt>
      <trkpt lat="46.31528" lon="-1.30272">
        <ele>5.2</ele>
        <time>2021-06-17T09:36:02Z</time>
      </trkpt>
      <trkpt lat="46.31529" lon="-1.30274">
        <ele>5.2</ele>
        <time>2021-06-17T09:36:03Z</time>
      </trkpt>
      <trkpt lat="46.3153" lon="-1.30275">
        <ele>5.2</ele>
        <time>2021-06-17T09:36:04Z</time>
      </trkpt>
      <trkpt lat="46.31531" lon="-1.30276">
        <ele>5.2</ele>
        <time>2021-06-17T09:36:05Z</time>
      </trkpt>
      <trkpt lat="46.31531" lon="-1.30278">
        <ele>5.2</ele>
        <time>2021-06-17T09:36:06Z</time>
      </trkpt>
      <trkpt lat="46.31532" lon="-1.30279">
        <ele>5.2</ele>
        <time>2021-06-17T09:36:07Z</time>
      </trkpt>
      <trkpt lat="46.31533" lon="-1.30281">
        <ele>5.2</ele>
        <time>2021-06-17T09:36:08Z</time>
      </trkpt>
      <trkpt lat="46.31534" lon="-1.30282">
        <ele>5.2</ele>
        <time>2021-06-17T09:36:09Z</time>
      </trkpt>
      <trkpt lat="46.31534" lon="-1.30283">
        <ele>5.2</ele>
        <time>2021-06-17T09:36:10Z</time>
      </trkpt>
      <trkpt lat="46.31535" lon="-1.30285">
        <ele>5.2</ele>
        <time>2021-06-17T09:36:11Z</time>
      </trkpt>
      <trkpt lat="46.31536" lon="-1.30286">
        <ele>5.2</ele>
        <time>2021-06-17T09:36:12Z</time>
      </trkpt>
      <trkpt lat="46.31537" lon="-1.30288">
        <ele>5.2</ele>
        <time>2021-06-17T09:36:13Z</time>
      </trkpt>
      <trkpt lat="46.31537" lon="-1.30289">
        <ele>5.2</ele>
        <time>2021-06-17T09:36:14Z</time>
      </trkpt>
      <trkpt lat="46.31538" lon="-1.30291">
        <ele>5.2</ele>
        <time>2021-06-17T09:36:15Z</time>
      </trkpt>
      <trkpt lat="46.31539" lon="-1.30292">
        <ele>5.2</ele>
        <time>2021-06-17T09:36:16Z</time>
      </trkpt>
      <trkpt lat="46.3154" lon="-1.30294">
        <ele>5.2</ele>
        <time>2021-06-17T09:36:17Z</time>
      </trkpt>
      <trkpt lat="46.31541" lon="-1.30295">
        <ele>5.2</ele>
        <time>2021-06-17T09:36:18Z</time>
      </trkpt>
      <trkpt lat="46.31542" lon="-1.30296">
        <ele>5.2</ele>
        <time>2021-06-17T09:36:19Z</time>
      </trkpt>
      <trkpt lat="46.31543" lon="-1.30298">
        <ele>5.2</ele>
        <time>2021-06-17T09:36:20Z</time>
      </trkpt>
      <trkpt lat="46.31544" lon="-1.30299">
        <ele>5.2</ele>
        <time>2021-06-17T09:36:21Z</time>
      </trkpt>
      <trkpt lat="46.31545" lon="-1.30301">
        <ele>5.2</ele>
        <time>2021-06-17T09:36:22Z</time>
      </trkpt>
      <trkpt lat="46.31546" lon="-1.30302">
        <ele>5.2</ele>
        <time>2021-06-17T09:36:23Z</time>
      </trkpt>
      <trkpt lat="46.31547" lon="-1.30304">
        <ele>5.2</ele>
        <time>2021-06-17T09:36:24Z</time>
      </trkpt>
      <trkpt lat="46.31548" lon="-1.30305">
        <ele>5.2</ele>
        <time>2021-06-17T09:36:25Z</time>
      </trkpt>
      <trkpt lat="46.31549" lon="-1.30307">
        <ele>5.2</ele>
        <time>2021-06-17T09:36:26Z</time>
      </trkpt>
      <trkpt lat="46.3155" lon="-1.30308">
        <ele>5.2</ele>
        <time>2021-06-17T09:36:27Z</time>
      </trkpt>
      <trkpt lat="46.3155" lon="-1.30309">
        <ele>5.2</ele>
        <time>2021-06-17T09:36:28Z</time>
      </trkpt>
      <trkpt lat="46.31551" lon="-1.30311">
        <ele>5.2</ele>
        <time>2021-06-17T09:36:29Z</time>
      </trkpt>
      <trkpt lat="46.31552" lon="-1.30312">
        <ele>5.2</ele>
        <time>2021-06-17T09:36:30Z</time>
      </trkpt>
      <trkpt lat="46.31553" lon="-1.30313">
        <ele>5.2</ele>
        <time>2021-06-17T09:36:31Z</time>
      </trkpt>
      <trkpt lat="46.31554" lon="-1.30315">
        <ele>5.2</ele>
        <time>2021-06-17T09:36:32Z</time>
      </trkpt>
      <trkpt lat="46.31555" lon="-1.30316">
        <ele>5.2</ele>
        <time>2021-06-17T09:36:33Z</time>
      </trkpt>
      <trkpt lat="46.31556" lon="-1.30317">
        <ele>5.2</ele>
        <time>2021-06-17T09:36:34Z</time>
      </trkpt>
      <trkpt lat="46.31557" lon="-1.30319">
        <ele>5.2</ele>
        <time>2021-06-17T09:36:35Z</time>
      </trkpt>
      <trkpt lat="46.31558" lon="-1.3032">
        <ele>5.2</ele>
        <time>2021-06-17T09:36:36Z</time>
      </trkpt>
      <trkpt lat="46.31559" lon="-1.30321">
        <ele>5.2</ele>
        <time>2021-06-17T09:36:37Z</time>
      </trkpt>
      <trkpt lat="46.31559" lon="-1.30323">
        <ele>5.2</ele>
        <time>2021-06-17T09:36:38Z</time>
      </trkpt>
      <trkpt lat="46.3156" lon="-1.30324">
        <ele>5.2</ele>
        <time>2021-06-17T09:36:39Z</time>
      </trkpt>
      <trkpt lat="46.31561" lon="-1.30326">
        <ele>5.2</ele>
        <time>2021-06-17T09:36:40Z</time>
      </trkpt>
      <trkpt lat="46.31562" lon="-1.30327">
        <ele>5.2</ele>
        <time>2021-06-17T09:36:41Z</time>
      </trkpt>
      <trkpt lat="46.31563" lon="-1.30328">
        <ele>5.2</ele>
        <time>2021-06-17T09:36:42Z</time>
      </trkpt>
      <trkpt lat="46.31564" lon="-1.3033">
        <ele>5.2</ele>
        <time>2021-06-17T09:36:43Z</time>
      </trkpt>
      <trkpt lat="46.31564" lon="-1.30331">
        <ele>5.2</ele>
        <time>2021-06-17T09:36:44Z</time>
      </trkpt>
      <trkpt lat="46.31565" lon="-1.30333">
        <ele>5.2</ele>
        <time>2021-06-17T09:36:45Z</time>
      </trkpt>
      <trkpt lat="46.31566" lon="-1.30334">
        <ele>5.2</ele>
        <time>2021-06-17T09:36:46Z</time>
      </trkpt>
      <trkpt lat="46.31566" lon="-1.30335">
        <ele>5.2</ele>
        <time>2021-06-17T09:36:47Z</time>
      </trkpt>
      <trkpt lat="46.31567" lon="-1.30336">
        <ele>5.2</ele>
        <time>2021-06-17T09:36:48Z</time>
      </trkpt>
      <trkpt lat="46.31568" lon="-1.30338">
        <ele>5.2</ele>
        <time>2021-06-17T09:36:49Z</time>
      </trkpt>
      <trkpt lat="46.31569" lon="-1.30339">
        <ele>5.2</ele>
        <time>2021-06-17T09:36:50Z</time>
      </trkpt>
      <trkpt lat="46.31569" lon="-1.3034">
        <ele>5.2</ele>
        <time>2021-06-17T09:36:51Z</time>
      </trkpt>
      <trkpt lat="46.3157" lon="-1.30342">
        <ele>5.2</ele>
        <time>2021-06-17T09:36:52Z</time>
      </trkpt>
      <trkpt lat="46.31571" lon="-1.30343">
        <ele>5.2</ele>
        <time>2021-06-17T09:36:53Z</time>
      </trkpt>
      <trkpt lat="46.31572" lon="-1.30344">
        <ele>5.2</ele>
        <time>2021-06-17T09:36:54Z</time>
      </trkpt>
      <trkpt lat="46.31573" lon="-1.30345">
        <ele>5.2</ele>
        <time>2021-06-17T09:36:55Z</time>
      </trkpt>
      <trkpt lat="46.31573" lon="-1.30346">
        <ele>5.2</ele>
        <time>2021-06-17T09:36:56Z</time>
      </trkpt>
      <trkpt lat="46.31574" lon="-1.30348">
        <ele>5.2</ele>
        <time>2021-06-17T09:36:57Z</time>
      </trkpt>
      <trkpt lat="46.31575" lon="-1.30349">
        <ele>5.2</ele>
        <time>2021-06-17T09:36:58Z</time>
      </trkpt>
      <trkpt lat="46.31576" lon="-1.3035">
        <ele>5.2</ele>
        <time>2021-06-17T09:36:59Z</time>
      </trkpt>
      <trkpt lat="46.31577" lon="-1.30351">
        <ele>5.2</ele>
        <time>2021-06-17T09:37:00Z</time>
      </trkpt>
      <trkpt lat="46.31578" lon="-1.30353">
        <ele>5.2</ele>
        <time>2021-06-17T09:37:01Z</time>
      </trkpt>
      <trkpt lat="46.31579" lon="-1.30354">
        <ele>5.2</ele>
        <time>2021-06-17T09:37:02Z</time>
      </trkpt>
      <trkpt lat="46.31579" lon="-1.30355">
        <ele>5.2</ele>
        <time>2021-06-17T09:37:03Z</time>
      </trkpt>
      <trkpt lat="46.3158" lon="-1.30357">
        <ele>5.2</ele>
        <time>2021-06-17T09:37:04Z</time>
      </trkpt>
      <trkpt lat="46.31581" lon="-1.30358">
        <ele>5.2</ele>
        <time>2021-06-17T09:37:05Z</time>
      </trkpt>
      <trkpt lat="46.31582" lon="-1.3036">
        <ele>5.2</ele>
        <time>2021-06-17T09:37:06Z</time>
      </trkpt>
      <trkpt lat="46.31583" lon="-1.30361">
        <ele>5.2</ele>
        <time>2021-06-17T09:37:07Z</time>
      </trkpt>
      <trkpt lat="46.31584" lon="-1.30363">
        <ele>5.2</ele>
        <time>2021-06-17T09:37:08Z</time>
      </trkpt>
      <trkpt lat="46.31585" lon="-1.30364">
        <ele>5.2</ele>
        <time>2021-06-17T09:37:09Z</time>
      </trkpt>
      <trkpt lat="46.31585" lon="-1.30365">
        <ele>5.2</ele>
        <time>2021-06-17T09:37:10Z</time>
      </trkpt>
      <trkpt lat="46.31586" lon="-1.30367">
        <ele>5.2</ele>
        <time>2021-06-17T09:37:11Z</time>
      </trkpt>
      <trkpt lat="46.31587" lon="-1.30368">
        <ele>5.2</ele>
        <time>2021-06-17T09:37:12Z</time>
      </trkpt>
      <trkpt lat="46.31588" lon="-1.3037">
        <ele>5.2</ele>
        <time>2021-06-17T09:37:13Z</time>
      </trkpt>
      <trkpt lat="46.31589" lon="-1.30371">
        <ele>5.2</ele>
        <time>2021-06-17T09:37:14Z</time>
      </trkpt>
      <trkpt lat="46.31589" lon="-1.30372">
        <ele>5.2</ele>
        <time>2021-06-17T09:37:15Z</time>
      </trkpt>
      <trkpt lat="46.3159" lon="-1.30373">
        <ele>5.2</ele>
        <time>2021-06-17T09:37:16Z</time>
      </trkpt>
      <trkpt lat="46.31591" lon="-1.30375">
        <ele>5.2</ele>
        <time>2021-06-17T09:37:17Z</time>
      </trkpt>
      <trkpt lat="46.31592" lon="-1.30376">
        <ele>5.2</ele>
        <time>2021-06-17T09:37:18Z</time>
      </trkpt>
      <trkpt lat="46.31592" lon="-1.30377">
        <ele>5.2</ele>
        <time>2021-06-17T09:37:19Z</time>
      </trkpt>
      <trkpt lat="46.31593" lon="-1.30378">
        <ele>5.2</ele>
        <time>2021-06-17T09:37:20Z</time>
      </trkpt>
      <trkpt lat="46.31594" lon="-1.30379">
        <ele>5.2</ele>
        <time>2021-06-17T09:37:21Z</time>
      </trkpt>
      <trkpt lat="46.31595" lon="-1.3038">
        <ele>5.2</ele>
        <time>2021-06-17T09:37:22Z</time>
      </trkpt>
      <trkpt lat="46.31595" lon="-1.30381">
        <ele>5.2</ele>
        <time>2021-06-17T09:37:23Z</time>
      </trkpt>
      <trkpt lat="46.31596" lon="-1.30382">
        <ele>5.2</ele>
        <time>2021-06-17T09:37:24Z</time>
      </trkpt>
      <trkpt lat="46.31597" lon="-1.30383">
        <ele>5.2</ele>
        <time>2021-06-17T09:37:25Z</time>
      </trkpt>
      <trkpt lat="46.31598" lon="-1.30385">
        <ele>5.2</ele>
        <time>2021-06-17T09:37:26Z</time>
      </trkpt>
      <trkpt lat="46.31599" lon="-1.30386">
        <ele>5.2</ele>
        <time>2021-06-17T09:37:27Z</time>
      </trkpt>
      <trkpt lat="46.316" lon="-1.30387">
        <ele>5.2</ele>
        <time>2021-06-17T09:37:28Z</time>
      </trkpt>
      <trkpt lat="46.31601" lon="-1.30389">
        <ele>5.2</ele>
        <time>2021-06-17T09:37:29Z</time>
      </trkpt>
      <trkpt lat="46.31602" lon="-1.3039">
        <ele>5.2</ele>
        <time>2021-06-17T09:37:30Z</time>
      </trkpt>
      <trkpt lat="46.31603" lon="-1.30392">
        <ele>5.2</ele>
        <time>2021-06-17T09:37:31Z</time>
      </trkpt>
      <trkpt lat="46.31604" lon="-1.30393">
        <ele>5.2</ele>
        <time>2021-06-17T09:37:32Z</time>
      </trkpt>
      <trkpt lat="46.31606" lon="-1.30395">
        <ele>5.2</ele>
        <time>2021-06-17T09:37:33Z</time>
      </trkpt>
      <trkpt lat="46.31607" lon="-1.30396">
        <ele>5.2</ele>
        <time>2021-06-17T09:37:34Z</time>
      </trkpt>
      <trkpt lat="46.31608" lon="-1.30398">
        <ele>5.2</ele>
        <time>2021-06-17T09:37:35Z</time>
      </trkpt>
      <trkpt lat="46.31609" lon="-1.30399">
        <ele>5.2</ele>
        <time>2021-06-17T09:37:36Z</time>
      </trkpt>
      <trkpt lat="46.31609" lon="-1.30401">
        <ele>5.2</ele>
        <time>2021-06-17T09:37:37Z</time>
      </trkpt>
      <trkpt lat="46.3161" lon="-1.30402">
        <ele>5.2</ele>
        <time>2021-06-17T09:37:38Z</time>
      </trkpt>
      <trkpt lat="46.31611" lon="-1.30404">
        <ele>5.2</ele>
        <time>2021-06-17T09:37:39Z</time>
      </trkpt>
      <trkpt lat="46.31612" lon="-1.30405">
        <ele>5.2</ele>
        <time>2021-06-17T09:37:40Z</time>
      </trkpt>
      <trkpt lat="46.31613" lon="-1.30406">
        <ele>5.2</ele>
        <time>2021-06-17T09:37:41Z</time>
      </trkpt>
      <trkpt lat="46.31614" lon="-1.30408">
        <ele>5.2</ele>
        <time>2021-06-17T09:37:42Z</time>
      </trkpt>
      <trkpt lat="46.31615" lon="-1.30409">
        <ele>5.2</ele>
        <time>2021-06-17T09:37:43Z</time>
      </trkpt>
      <trkpt lat="46.31615" lon="-1.30411">
        <ele>5.2</ele>
        <time>2021-06-17T09:37:44Z</time>
      </trkpt>
      <trkpt lat="46.31616" lon="-1.30412">
        <ele>5.2</ele>
        <time>2021-06-17T09:37:45Z</time>
      </trkpt>
      <trkpt lat="46.31617" lon="-1.30413">
        <ele>5.2</ele>
        <time>2021-06-17T09:37:46Z</time>
      </trkpt>
      <trkpt lat="46.31618" lon="-1.30415">
        <ele>5.2</ele>
        <time>2021-06-17T09:37:47Z</time>
      </trkpt>
      <trkpt lat="46.31618" lon="-1.30416">
        <ele>5.2</ele>
        <time>2021-06-17T09:37:48Z</time>
      </trkpt>
      <trkpt lat="46.31619" lon="-1.30417">
        <ele>5.3</ele>
        <time>2021-06-17T09:37:49Z</time>
      </trkpt>
      <trkpt lat="46.3162" lon="-1.30418">
        <ele>5.3</ele>
        <time>2021-06-17T09:37:50Z</time>
      </trkpt>
      <trkpt lat="46.31621" lon="-1.3042">
        <ele>5.3</ele>
        <time>2021-06-17T09:37:51Z</time>
      </trkpt>
      <trkpt lat="46.31622" lon="-1.30421">
        <ele>5.3</ele>
        <time>2021-06-17T09:37:52Z</time>
      </trkpt>
      <trkpt lat="46.31622" lon="-1.30422">
        <ele>5.3</ele>
        <time>2021-06-17T09:37:53Z</time>
      </trkpt>
      <trkpt lat="46.31623" lon="-1.30423">
        <ele>5.3</ele>
        <time>2021-06-17T09:37:54Z</time>
      </trkpt>
      <trkpt lat="46.31624" lon="-1.30425">
        <ele>5.3</ele>
        <time>2021-06-17T09:37:55Z</time>
      </trkpt>
      <trkpt lat="46.31625" lon="-1.30426">
        <ele>5.3</ele>
        <time>2021-06-17T09:37:56Z</time>
      </trkpt>
      <trkpt lat="46.31626" lon="-1.30427">
        <ele>5.3</ele>
        <time>2021-06-17T09:37:57Z</time>
      </trkpt>
      <trkpt lat="46.31626" lon="-1.30429">
        <ele>5.3</ele>
        <time>2021-06-17T09:37:58Z</time>
      </trkpt>
      <trkpt lat="46.31627" lon="-1.3043">
        <ele>5.3</ele>
        <time>2021-06-17T09:37:59Z</time>
      </trkpt>
      <trkpt lat="46.31628" lon="-1.30432">
        <ele>5.3</ele>
        <time>2021-06-17T09:38:00Z</time>
      </trkpt>
      <trkpt lat="46.31629" lon="-1.30433">
        <ele>5.3</ele>
        <time>2021-06-17T09:38:01Z</time>
      </trkpt>
      <trkpt lat="46.3163" lon="-1.30434">
        <ele>5.3</ele>
        <time>2021-06-17T09:38:02Z</time>
      </trkpt>
      <trkpt lat="46.3163" lon="-1.30436">
        <ele>5.3</ele>
        <time>2021-06-17T09:38:03Z</time>
      </trkpt>
      <trkpt lat="46.31631" lon="-1.30437">
        <ele>5.3</ele>
        <time>2021-06-17T09:38:04Z</time>
      </trkpt>
      <trkpt lat="46.31632" lon="-1.30439">
        <ele>5.3</ele>
        <time>2021-06-17T09:38:05Z</time>
      </trkpt>
      <trkpt lat="46.31633" lon="-1.3044">
        <ele>5.3</ele>
        <time>2021-06-17T09:38:06Z</time>
      </trkpt>
      <trkpt lat="46.31634" lon="-1.30442">
        <ele>5.3</ele>
        <time>2021-06-17T09:38:07Z</time>
      </trkpt>
      <trkpt lat="46.31634" lon="-1.30443">
        <ele>5.3</ele>
        <time>2021-06-17T09:38:08Z</time>
      </trkpt>
      <trkpt lat="46.31635" lon="-1.30445">
        <ele>5.3</ele>
        <time>2021-06-17T09:38:09Z</time>
      </trkpt>
      <trkpt lat="46.31636" lon="-1.30446">
        <ele>5.3</ele>
        <time>2021-06-17T09:38:10Z</time>
      </trkpt>
      <trkpt lat="46.31637" lon="-1.30448">
        <ele>5.3</ele>
        <time>2021-06-17T09:38:11Z</time>
      </trkpt>
      <trkpt lat="46.31638" lon="-1.30449">
        <ele>5.3</ele>
        <time>2021-06-17T09:38:12Z</time>
      </trkpt>
      <trkpt lat="46.31639" lon="-1.30451">
        <ele>5.3</ele>
        <time>2021-06-17T09:38:13Z</time>
      </trkpt>
      <trkpt lat="46.3164" lon="-1.30452">
        <ele>5.3</ele>
        <time>2021-06-17T09:38:14Z</time>
      </trkpt>
      <trkpt lat="46.3164" lon="-1.30454">
        <ele>5.3</ele>
        <time>2021-06-17T09:38:15Z</time>
      </trkpt>
      <trkpt lat="46.31641" lon="-1.30455">
        <ele>5.3</ele>
        <time>2021-06-17T09:38:16Z</time>
      </trkpt>
      <trkpt lat="46.31642" lon="-1.30456">
        <ele>5.3</ele>
        <time>2021-06-17T09:38:17Z</time>
      </trkpt>
      <trkpt lat="46.31643" lon="-1.30458">
        <ele>5.2</ele>
        <time>2021-06-17T09:38:18Z</time>
      </trkpt>
      <trkpt lat="46.31644" lon="-1.30459">
        <ele>5.2</ele>
        <time>2021-06-17T09:38:19Z</time>
      </trkpt>
      <trkpt lat="46.31645" lon="-1.3046">
        <ele>5.2</ele>
        <time>2021-06-17T09:38:20Z</time>
      </trkpt>
      <trkpt lat="46.31646" lon="-1.30462">
        <ele>5.2</ele>
        <time>2021-06-17T09:38:21Z</time>
      </trkpt>
      <trkpt lat="46.31647" lon="-1.30463">
        <ele>5.2</ele>
        <time>2021-06-17T09:38:22Z</time>
      </trkpt>
      <trkpt lat="46.31649" lon="-1.30464">
        <ele>5.2</ele>
        <time>2021-06-17T09:38:23Z</time>
      </trkpt>
      <trkpt lat="46.3165" lon="-1.30465">
        <ele>5.2</ele>
        <time>2021-06-17T09:38:24Z</time>
      </trkpt>
      <trkpt lat="46.31651" lon="-1.30466">
        <ele>5.2</ele>
        <time>2021-06-17T09:38:25Z</time>
      </trkpt>
      <trkpt lat="46.31652" lon="-1.30467">
        <ele>5.2</ele>
        <time>2021-06-17T09:38:26Z</time>
      </trkpt>
      <trkpt lat="46.31653" lon="-1.30468">
        <ele>5.2</ele>
        <time>2021-06-17T09:38:27Z</time>
      </trkpt>
      <trkpt lat="46.31654" lon="-1.30469">
        <ele>5.2</ele>
        <time>2021-06-17T09:38:28Z</time>
      </trkpt>
      <trkpt lat="46.31655" lon="-1.3047">
        <ele>5.2</ele>
        <time>2021-06-17T09:38:29Z</time>
      </trkpt>
      <trkpt lat="46.31656" lon="-1.30471">
        <ele>5.2</ele>
        <time>2021-06-17T09:38:30Z</time>
      </trkpt>
      <trkpt lat="46.31657" lon="-1.30472">
        <ele>5.2</ele>
        <time>2021-06-17T09:38:31Z</time>
      </trkpt>
      <trkpt lat="46.31658" lon="-1.30473">
        <ele>5.2</ele>
        <time>2021-06-17T09:38:32Z</time>
      </trkpt>
      <trkpt lat="46.31659" lon="-1.30474">
        <ele>5.2</ele>
        <time>2021-06-17T09:38:33Z</time>
      </trkpt>
      <trkpt lat="46.3166" lon="-1.30475">
        <ele>5.2</ele>
        <time>2021-06-17T09:38:34Z</time>
      </trkpt>
      <trkpt lat="46.31661" lon="-1.30476">
        <ele>5.2</ele>
        <time>2021-06-17T09:38:35Z</time>
      </trkpt>
      <trkpt lat="46.31662" lon="-1.30476">
        <ele>5.2</ele>
        <time>2021-06-17T09:38:36Z</time>
      </trkpt>
      <trkpt lat="46.31663" lon="-1.30477">
        <ele>5.2</ele>
        <time>2021-06-17T09:38:37Z</time>
      </trkpt>
      <trkpt lat="46.31664" lon="-1.30478">
        <ele>5.2</ele>
        <time>2021-06-17T09:38:38Z</time>
      </trkpt>
      <trkpt lat="46.31665" lon="-1.30479">
        <ele>5.2</ele>
        <time>2021-06-17T09:38:39Z</time>
      </trkpt>
      <trkpt lat="46.31666" lon="-1.3048">
        <ele>5.2</ele>
        <time>2021-06-17T09:38:40Z</time>
      </trkpt>
      <trkpt lat="46.31667" lon="-1.3048">
        <ele>5.2</ele>
        <time>2021-06-17T09:38:41Z</time>
      </trkpt>
      <trkpt lat="46.31668" lon="-1.30481">
        <ele>5.2</ele>
        <time>2021-06-17T09:38:42Z</time>
      </trkpt>
      <trkpt lat="46.31669" lon="-1.30482">
        <ele>5.2</ele>
        <time>2021-06-17T09:38:43Z</time>
      </trkpt>
      <trkpt lat="46.3167" lon="-1.30482">
        <ele>5.2</ele>
        <time>2021-06-17T09:38:44Z</time>
      </trkpt>
      <trkpt lat="46.31671" lon="-1.30483">
        <ele>5.2</ele>
        <time>2021-06-17T09:38:45Z</time>
      </trkpt>
      <trkpt lat="46.31673" lon="-1.30484">
        <ele>5.2</ele>
        <time>2021-06-17T09:38:46Z</time>
      </trkpt>
      <trkpt lat="46.31674" lon="-1.30484">
        <ele>5.2</ele>
        <time>2021-06-17T09:38:47Z</time>
      </trkpt>
      <trkpt lat="46.31675" lon="-1.30484">
        <ele>5.2</ele>
        <time>2021-06-17T09:38:48Z</time>
      </trkpt>
      <trkpt lat="46.31676" lon="-1.30485">
        <ele>5.2</ele>
        <time>2021-06-17T09:38:49Z</time>
      </trkpt>
      <trkpt lat="46.31677" lon="-1.30485">
        <ele>5.2</ele>
        <time>2021-06-17T09:38:50Z</time>
      </trkpt>
      <trkpt lat="46.31679" lon="-1.30485">
        <ele>5.2</ele>
        <time>2021-06-17T09:38:51Z</time>
      </trkpt>
      <trkpt lat="46.3168" lon="-1.30486">
        <ele>5.2</ele>
        <time>2021-06-17T09:38:52Z</time>
      </trkpt>
      <trkpt lat="46.31681" lon="-1.30486">
        <ele>5.2</ele>
        <time>2021-06-17T09:38:53Z</time>
      </trkpt>
      <trkpt lat="46.31683" lon="-1.30486">
        <ele>5.2</ele>
        <time>2021-06-17T09:38:54Z</time>
      </trkpt>
      <trkpt lat="46.31684" lon="-1.30486">
        <ele>5.2</ele>
        <time>2021-06-17T09:38:55Z</time>
      </trkpt>
      <trkpt lat="46.31685" lon="-1.30487">
        <ele>5.2</ele>
        <time>2021-06-17T09:38:56Z</time>
      </trkpt>
      <trkpt lat="46.31687" lon="-1.30487">
        <ele>5.2</ele>
        <time>2021-06-17T09:38:57Z</time>
      </trkpt>
      <trkpt lat="46.31688" lon="-1.30487">
        <ele>5.2</ele>
        <time>2021-06-17T09:38:58Z</time>
      </trkpt>
      <trkpt lat="46.31689" lon="-1.30488">
        <ele>5.2</ele>
        <time>2021-06-17T09:38:59Z</time>
      </trkpt>
      <trkpt lat="46.3169" lon="-1.30488">
        <ele>5.2</ele>
        <time>2021-06-17T09:39:00Z</time>
      </trkpt>
      <trkpt lat="46.31691" lon="-1.30489">
        <ele>5.2</ele>
        <time>2021-06-17T09:39:01Z</time>
      </trkpt>
      <trkpt lat="46.31693" lon="-1.30489">
        <ele>5.2</ele>
        <time>2021-06-17T09:39:02Z</time>
      </trkpt>
      <trkpt lat="46.31694" lon="-1.3049">
        <ele>5.2</ele>
        <time>2021-06-17T09:39:03Z</time>
      </trkpt>
      <trkpt lat="46.31695" lon="-1.3049">
        <ele>5.2</ele>
        <time>2021-06-17T09:39:04Z</time>
      </trkpt>
      <trkpt lat="46.31696" lon="-1.30491">
        <ele>5.2</ele>
        <time>2021-06-17T09:39:05Z</time>
      </trkpt>
      <trkpt lat="46.31698" lon="-1.30492">
        <ele>5.2</ele>
        <time>2021-06-17T09:39:06Z</time>
      </trkpt>
      <trkpt lat="46.31699" lon="-1.30492">
        <ele>5.2</ele>
        <time>2021-06-17T09:39:07Z</time>
      </trkpt>
      <trkpt lat="46.317" lon="-1.30493">
        <ele>5.3</ele>
        <time>2021-06-17T09:39:08Z</time>
      </trkpt>
      <trkpt lat="46.31701" lon="-1.30493">
        <ele>5.3</ele>
        <time>2021-06-17T09:39:09Z</time>
      </trkpt>
      <trkpt lat="46.31702" lon="-1.30494">
        <ele>5.3</ele>
        <time>2021-06-17T09:39:10Z</time>
      </trkpt>
      <trkpt lat="46.31704" lon="-1.30494">
        <ele>5.3</ele>
        <time>2021-06-17T09:39:11Z</time>
      </trkpt>
      <trkpt lat="46.31705" lon="-1.30495">
        <ele>5.3</ele>
        <time>2021-06-17T09:39:12Z</time>
      </trkpt>
      <trkpt lat="46.31706" lon="-1.30495">
        <ele>5.3</ele>
        <time>2021-06-17T09:39:13Z</time>
      </trkpt>
      <trkpt lat="46.31707" lon="-1.30496">
        <ele>5.3</ele>
        <time>2021-06-17T09:39:14Z</time>
      </trkpt>
      <trkpt lat="46.31708" lon="-1.30496">
        <ele>5.3</ele>
        <time>2021-06-17T09:39:15Z</time>
      </trkpt>
      <trkpt lat="46.31709" lon="-1.30497">
        <ele>5.3</ele>
        <time>2021-06-17T09:39:16Z</time>
      </trkpt>
      <trkpt lat="46.3171" lon="-1.30497">
        <ele>5.3</ele>
        <time>2021-06-17T09:39:17Z</time>
      </trkpt>
      <trkpt lat="46.31712" lon="-1.30497">
        <ele>5.3</ele>
        <time>2021-06-17T09:39:18Z</time>
      </trkpt>
      <trkpt lat="46.31713" lon="-1.30498">
        <ele>5.3</ele>
        <time>2021-06-17T09:39:19Z</time>
      </trkpt>
      <trkpt lat="46.31714" lon="-1.30498">
        <ele>5.3</ele>
        <time>2021-06-17T09:39:20Z</time>
      </trkpt>
      <trkpt lat="46.31715" lon="-1.30498">
        <ele>5.3</ele>
        <time>2021-06-17T09:39:21Z</time>
      </trkpt>
      <trkpt lat="46.31716" lon="-1.30499">
        <ele>5.3</ele>
        <time>2021-06-17T09:39:22Z</time>
      </trkpt>
      <trkpt lat="46.31717" lon="-1.30499">
        <ele>5.3</ele>
        <time>2021-06-17T09:39:23Z</time>
      </trkpt>
      <trkpt lat="46.31719" lon="-1.30499">
        <ele>5.3</ele>
        <time>2021-06-17T09:39:24Z</time>
      </trkpt>
      <trkpt lat="46.3172" lon="-1.305">
        <ele>5.3</ele>
        <time>2021-06-17T09:39:25Z</time>
      </trkpt>
      <trkpt lat="46.31721" lon="-1.305">
        <ele>5.3</ele>
        <time>2021-06-17T09:39:26Z</time>
      </trkpt>
      <trkpt lat="46.31722" lon="-1.305">
        <ele>5.3</ele>
        <time>2021-06-17T09:39:27Z</time>
      </trkpt>
      <trkpt lat="46.31723" lon="-1.30501">
        <ele>5.3</ele>
        <time>2021-06-17T09:39:28Z</time>
      </trkpt>
      <trkpt lat="46.31725" lon="-1.30501">
        <ele>5.3</ele>
        <time>2021-06-17T09:39:29Z</time>
      </trkpt>
      <trkpt lat="46.31726" lon="-1.30502">
        <ele>5.3</ele>
        <time>2021-06-17T09:39:30Z</time>
      </trkpt>
      <trkpt lat="46.31727" lon="-1.30502">
        <ele>5.3</ele>
        <time>2021-06-17T09:39:31Z</time>
      </trkpt>
      <trkpt lat="46.31728" lon="-1.30503">
        <ele>5.3</ele>
        <time>2021-06-17T09:39:32Z</time>
      </trkpt>
      <trkpt lat="46.31729" lon="-1.30504">
        <ele>5.2</ele>
        <time>2021-06-17T09:39:33Z</time>
      </trkpt>
      <trkpt lat="46.3173" lon="-1.30505">
        <ele>5.2</ele>
        <time>2021-06-17T09:39:34Z</time>
      </trkpt>
      <trkpt lat="46.31732" lon="-1.30506">
        <ele>5.2</ele>
        <time>2021-06-17T09:39:35Z</time>
      </trkpt>
      <trkpt lat="46.31733" lon="-1.30506">
        <ele>5.2</ele>
        <time>2021-06-17T09:39:36Z</time>
      </trkpt>
      <trkpt lat="46.31734" lon="-1.30507">
        <ele>5.2</ele>
        <time>2021-06-17T09:39:37Z</time>
      </trkpt>
      <trkpt lat="46.31735" lon="-1.30508">
        <ele>5.2</ele>
        <time>2021-06-17T09:39:38Z</time>
      </trkpt>
      <trkpt lat="46.31737" lon="-1.30508">
        <ele>5.2</ele>
        <time>2021-06-17T09:39:39Z</time>
      </trkpt>
      <trkpt lat="46.31738" lon="-1.30509">
        <ele>5.2</ele>
        <time>2021-06-17T09:39:40Z</time>
      </trkpt>
      <trkpt lat="46.31739" lon="-1.30509">
        <ele>5.2</ele>
        <time>2021-06-17T09:39:41Z</time>
      </trkpt>
      <trkpt lat="46.31741" lon="-1.30509">
        <ele>5.2</ele>
        <time>2021-06-17T09:39:42Z</time>
      </trkpt>
      <trkpt lat="46.31742" lon="-1.30509">
        <ele>5.2</ele>
        <time>2021-06-17T09:39:43Z</time>
      </trkpt>
      <trkpt lat="46.31744" lon="-1.3051">
        <ele>5.2</ele>
        <time>2021-06-17T09:39:44Z</time>
      </trkpt>
      <trkpt lat="46.31745" lon="-1.3051">
        <ele>5.2</ele>
        <time>2021-06-17T09:39:45Z</time>
      </trkpt>
      <trkpt lat="46.31746" lon="-1.3051">
        <ele>5.2</ele>
        <time>2021-06-17T09:39:46Z</time>
      </trkpt>
      <trkpt lat="46.31747" lon="-1.30511">
        <ele>5.2</ele>
        <time>2021-06-17T09:39:47Z</time>
      </trkpt>
      <trkpt lat="46.31748" lon="-1.30511">
        <ele>5.2</ele>
        <time>2021-06-17T09:39:48Z</time>
      </trkpt>
      <trkpt lat="46.31749" lon="-1.30512">
        <ele>5.2</ele>
        <time>2021-06-17T09:39:49Z</time>
      </trkpt>
      <trkpt lat="46.3175" lon="-1.30513">
        <ele>5.2</ele>
        <time>2021-06-17T09:39:50Z</time>
      </trkpt>
      <trkpt lat="46.31751" lon="-1.30513">
        <ele>5.2</ele>
        <time>2021-06-17T09:39:51Z</time>
      </trkpt>
      <trkpt lat="46.31752" lon="-1.30514">
        <ele>5.2</ele>
        <time>2021-06-17T09:39:52Z</time>
      </trkpt>
      <trkpt lat="46.31754" lon="-1.30514">
        <ele>5.2</ele>
        <time>2021-06-17T09:39:53Z</time>
      </trkpt>
      <trkpt lat="46.31755" lon="-1.30514">
        <ele>5.2</ele>
        <time>2021-06-17T09:39:54Z</time>
      </trkpt>
      <trkpt lat="46.31756" lon="-1.30515">
        <ele>5.2</ele>
        <time>2021-06-17T09:39:55Z</time>
      </trkpt>
      <trkpt lat="46.31758" lon="-1.30515">
        <ele>5.2</ele>
        <time>2021-06-17T09:39:56Z</time>
      </trkpt>
      <trkpt lat="46.31759" lon="-1.30515">
        <ele>5.2</ele>
        <time>2021-06-17T09:39:57Z</time>
      </trkpt>
      <trkpt lat="46.3176" lon="-1.30515">
        <ele>5.2</ele>
        <time>2021-06-17T09:39:58Z</time>
      </trkpt>
      <trkpt lat="46.31762" lon="-1.30516">
        <ele>5.2</ele>
        <time>2021-06-17T09:39:59Z</time>
      </trkpt>
      <trkpt lat="46.31763" lon="-1.30516">
        <ele>5.2</ele>
        <time>2021-06-17T09:40:00Z</time>
      </trkpt>
      <trkpt lat="46.31764" lon="-1.30516">
        <ele>5.2</ele>
        <time>2021-06-17T09:40:01Z</time>
      </trkpt>
      <trkpt lat="46.31765" lon="-1.30517">
        <ele>5.2</ele>
        <time>2021-06-17T09:40:02Z</time>
      </trkpt>
      <trkpt lat="46.31766" lon="-1.30517">
        <ele>5.2</ele>
        <time>2021-06-17T09:40:03Z</time>
      </trkpt>
      <trkpt lat="46.31767" lon="-1.30518">
        <ele>5.2</ele>
        <time>2021-06-17T09:40:04Z</time>
      </trkpt>
      <trkpt lat="46.31768" lon="-1.30518">
        <ele>5.2</ele>
        <time>2021-06-17T09:40:05Z</time>
      </trkpt>
      <trkpt lat="46.31769" lon="-1.30519">
        <ele>5.2</ele>
        <time>2021-06-17T09:40:06Z</time>
      </trkpt>
      <trkpt lat="46.3177" lon="-1.30519">
        <ele>5.2</ele>
        <time>2021-06-17T09:40:07Z</time>
      </trkpt>
      <trkpt lat="46.31771" lon="-1.3052">
        <ele>5.2</ele>
        <time>2021-06-17T09:40:08Z</time>
      </trkpt>
      <trkpt lat="46.31772" lon="-1.3052">
        <ele>5.2</ele>
        <time>2021-06-17T09:40:09Z</time>
      </trkpt>
      <trkpt lat="46.31772" lon="-1.30521">
        <ele>5.2</ele>
        <time>2021-06-17T09:40:10Z</time>
      </trkpt>
      <trkpt lat="46.31773" lon="-1.30521">
        <ele>5.2</ele>
        <time>2021-06-17T09:40:11Z</time>
      </trkpt>
      <trkpt lat="46.31774" lon="-1.30521">
        <ele>5.2</ele>
        <time>2021-06-17T09:40:12Z</time>
      </trkpt>
      <trkpt lat="46.31775" lon="-1.30521">
        <ele>5.2</ele>
        <time>2021-06-17T09:40:13Z</time>
      </trkpt>
      <trkpt lat="46.31776" lon="-1.30521">
        <ele>5.2</ele>
        <time>2021-06-17T09:40:14Z</time>
      </trkpt>
      <trkpt lat="46.31777" lon="-1.30521">
        <ele>5.2</ele>
        <time>2021-06-17T09:40:15Z</time>
      </trkpt>
      <trkpt lat="46.31777" lon="-1.30521">
        <ele>5.2</ele>
        <time>2021-06-17T09:40:16Z</time>
      </trkpt>
      <trkpt lat="46.31778" lon="-1.30521">
        <ele>5.2</ele>
        <time>2021-06-17T09:40:17Z</time>
      </trkpt>
      <trkpt lat="46.31778" lon="-1.30521">
        <ele>5.2</ele>
        <time>2021-06-17T09:40:18Z</time>
      </trkpt>
      <trkpt lat="46.31778" lon="-1.30521">
        <ele>5.2</ele>
        <time>2021-06-17T09:40:19Z</time>
      </trkpt>
      <trkpt lat="46.31778" lon="-1.30521">
        <ele>5.2</ele>
        <time>2021-06-17T09:40:20Z</time>
      </trkpt>
      <trkpt lat="46.31778" lon="-1.30521">
        <ele>5.2</ele>
        <time>2021-06-17T09:40:21Z</time>
      </trkpt>
      <trkpt lat="46.31778" lon="-1.30522">
        <ele>5.2</ele>
        <time>2021-06-17T09:40:22Z</time>
      </trkpt>
      <trkpt lat="46.31779" lon="-1.30522">
        <ele>5.2</ele>
        <time>2021-06-17T09:40:23Z</time>
      </trkpt>
      <trkpt lat="46.3178" lon="-1.30523">
        <ele>5.2</ele>
        <time>2021-06-17T09:40:24Z</time>
      </trkpt>
      <trkpt lat="46.3178" lon="-1.30523">
        <ele>5.2</ele>
        <time>2021-06-17T09:40:25Z</time>
      </trkpt>
      <trkpt lat="46.31781" lon="-1.30524">
        <ele>5.2</ele>
        <time>2021-06-17T09:40:26Z</time>
      </trkpt>
      <trkpt lat="46.31782" lon="-1.30524">
        <ele>5.2</ele>
        <time>2021-06-17T09:40:27Z</time>
      </trkpt>
      <trkpt lat="46.31783" lon="-1.30525">
        <ele>5.2</ele>
        <time>2021-06-17T09:40:28Z</time>
      </trkpt>
      <trkpt lat="46.31784" lon="-1.30526">
        <ele>5.2</ele>
        <time>2021-06-17T09:40:29Z</time>
      </trkpt>
      <trkpt lat="46.31785" lon="-1.30526">
        <ele>5.2</ele>
        <time>2021-06-17T09:40:30Z</time>
      </trkpt>
      <trkpt lat="46.31787" lon="-1.30527">
        <ele>5.2</ele>
        <time>2021-06-17T09:40:31Z</time>
      </trkpt>
      <trkpt lat="46.31788" lon="-1.30528">
        <ele>5.2</ele>
        <time>2021-06-17T09:40:32Z</time>
      </trkpt>
      <trkpt lat="46.31789" lon="-1.30529">
        <ele>5.2</ele>
        <time>2021-06-17T09:40:33Z</time>
      </trkpt>
      <trkpt lat="46.3179" lon="-1.30529">
        <ele>5.2</ele>
        <time>2021-06-17T09:40:34Z</time>
      </trkpt>
      <trkpt lat="46.31791" lon="-1.3053">
        <ele>5.2</ele>
        <time>2021-06-17T09:40:35Z</time>
      </trkpt>
      <trkpt lat="46.31793" lon="-1.30531">
        <ele>5.2</ele>
        <time>2021-06-17T09:40:36Z</time>
      </trkpt>
      <trkpt lat="46.31794" lon="-1.30531">
        <ele>5.2</ele>
        <time>2021-06-17T09:40:37Z</time>
      </trkpt>
      <trkpt lat="46.31795" lon="-1.30532">
        <ele>5.2</ele>
        <time>2021-06-17T09:40:38Z</time>
      </trkpt>
      <trkpt lat="46.31796" lon="-1.30533">
        <ele>5.2</ele>
        <time>2021-06-17T09:40:39Z</time>
      </trkpt>
      <trkpt lat="46.31797" lon="-1.30533">
        <ele>5.2</ele>
        <time>2021-06-17T09:40:40Z</time>
      </trkpt>
      <trkpt lat="46.31798" lon="-1.30534">
        <ele>5.2</ele>
        <time>2021-06-17T09:40:41Z</time>
      </trkpt>
      <trkpt lat="46.31799" lon="-1.30534">
        <ele>5.2</ele>
        <time>2021-06-17T09:40:42Z</time>
      </trkpt>
      <trkpt lat="46.31801" lon="-1.30535">
        <ele>5.2</ele>
        <time>2021-06-17T09:40:43Z</time>
      </trkpt>
      <trkpt lat="46.31802" lon="-1.30536">
        <ele>5.2</ele>
        <time>2021-06-17T09:40:44Z</time>
      </trkpt>
      <trkpt lat="46.31803" lon="-1.30536">
        <ele>5.2</ele>
        <time>2021-06-17T09:40:45Z</time>
      </trkpt>
      <trkpt lat="46.31804" lon="-1.30537">
        <ele>5.2</ele>
        <time>2021-06-17T09:40:46Z</time>
      </trkpt>
      <trkpt lat="46.31805" lon="-1.30537">
        <ele>5.2</ele>
        <time>2021-06-17T09:40:47Z</time>
      </trkpt>
      <trkpt lat="46.31806" lon="-1.30538">
        <ele>5.2</ele>
        <time>2021-06-17T09:40:48Z</time>
      </trkpt>
      <trkpt lat="46.31807" lon="-1.30539">
        <ele>5.2</ele>
        <time>2021-06-17T09:40:49Z</time>
      </trkpt>
      <trkpt lat="46.31809" lon="-1.30539">
        <ele>5.2</ele>
        <time>2021-06-17T09:40:50Z</time>
      </trkpt>
      <trkpt lat="46.3181" lon="-1.3054">
        <ele>5.2</ele>
        <time>2021-06-17T09:40:51Z</time>
      </trkpt>
      <trkpt lat="46.31811" lon="-1.30541">
        <ele>5.2</ele>
        <time>2021-06-17T09:40:52Z</time>
      </trkpt>
      <trkpt lat="46.31812" lon="-1.30541">
        <ele>5.2</ele>
        <time>2021-06-17T09:40:53Z</time>
      </trkpt>
      <trkpt lat="46.31813" lon="-1.30542">
        <ele>5.2</ele>
        <time>2021-06-17T09:40:54Z</time>
      </trkpt>
      <trkpt lat="46.31814" lon="-1.30543">
        <ele>5.2</ele>
        <time>2021-06-17T09:40:55Z</time>
      </trkpt>
      <trkpt lat="46.31816" lon="-1.30543">
        <ele>5.2</ele>
        <time>2021-06-17T09:40:56Z</time>
      </trkpt>
      <trkpt lat="46.31817" lon="-1.30544">
        <ele>5.2</ele>
        <time>2021-06-17T09:40:57Z</time>
      </trkpt>
      <trkpt lat="46.31818" lon="-1.30544">
        <ele>5.2</ele>
        <time>2021-06-17T09:40:58Z</time>
      </trkpt>
      <trkpt lat="46.31819" lon="-1.30545">
        <ele>5.2</ele>
        <time>2021-06-17T09:40:59Z</time>
      </trkpt>
      <trkpt lat="46.3182" lon="-1.30546">
        <ele>5.2</ele>
        <time>2021-06-17T09:41:00Z</time>
      </trkpt>
      <trkpt lat="46.31821" lon="-1.30546">
        <ele>5.2</ele>
        <time>2021-06-17T09:41:01Z</time>
      </trkpt>
      <trkpt lat="46.31822" lon="-1.30547">
        <ele>5.2</ele>
        <time>2021-06-17T09:41:02Z</time>
      </trkpt>
      <trkpt lat="46.31823" lon="-1.30547">
        <ele>5.2</ele>
        <time>2021-06-17T09:41:03Z</time>
      </trkpt>
      <trkpt lat="46.31824" lon="-1.30548">
        <ele>5.2</ele>
        <time>2021-06-17T09:41:04Z</time>
      </trkpt>
      <trkpt lat="46.31825" lon="-1.30548">
        <ele>5.2</ele>
        <time>2021-06-17T09:41:05Z</time>
      </trkpt>
      <trkpt lat="46.31826" lon="-1.30549">
        <ele>5.2</ele>
        <time>2021-06-17T09:41:06Z</time>
      </trkpt>
      <trkpt lat="46.31827" lon="-1.3055">
        <ele>5.2</ele>
        <time>2021-06-17T09:41:07Z</time>
      </trkpt>
      <trkpt lat="46.31828" lon="-1.3055">
        <ele>5.2</ele>
        <time>2021-06-17T09:41:08Z</time>
      </trkpt>
      <trkpt lat="46.31829" lon="-1.30551">
        <ele>5.2</ele>
        <time>2021-06-17T09:41:09Z</time>
      </trkpt>
      <trkpt lat="46.31831" lon="-1.30551">
        <ele>5.2</ele>
        <time>2021-06-17T09:41:10Z</time>
      </trkpt>
      <trkpt lat="46.31832" lon="-1.30552">
        <ele>5.2</ele>
        <time>2021-06-17T09:41:11Z</time>
      </trkpt>
      <trkpt lat="46.31833" lon="-1.30553">
        <ele>5.2</ele>
        <time>2021-06-17T09:41:12Z</time>
      </trkpt>
      <trkpt lat="46.31835" lon="-1.30553">
        <ele>5.2</ele>
        <time>2021-06-17T09:41:13Z</time>
      </trkpt>
      <trkpt lat="46.31836" lon="-1.30554">
        <ele>5.2</ele>
        <time>2021-06-17T09:41:14Z</time>
      </trkpt>
      <trkpt lat="46.31837" lon="-1.30554">
        <ele>5.2</ele>
        <time>2021-06-17T09:41:15Z</time>
      </trkpt>
      <trkpt lat="46.31839" lon="-1.30555">
        <ele>5.2</ele>
        <time>2021-06-17T09:41:16Z</time>
      </trkpt>
      <trkpt lat="46.3184" lon="-1.30556">
        <ele>5.2</ele>
        <time>2021-06-17T09:41:17Z</time>
      </trkpt>
      <trkpt lat="46.31841" lon="-1.30556">
        <ele>5.2</ele>
        <time>2021-06-17T09:41:18Z</time>
      </trkpt>
      <trkpt lat="46.31843" lon="-1.30556">
        <ele>5.2</ele>
        <time>2021-06-17T09:41:19Z</time>
      </trkpt>
      <trkpt lat="46.31844" lon="-1.30557">
        <ele>5.2</ele>
        <time>2021-06-17T09:41:20Z</time>
      </trkpt>
      <trkpt lat="46.31845" lon="-1.30557">
        <ele>5.2</ele>
        <time>2021-06-17T09:41:21Z</time>
      </trkpt>
      <trkpt lat="46.31846" lon="-1.30558">
        <ele>5.2</ele>
        <time>2021-06-17T09:41:22Z</time>
      </trkpt>
      <trkpt lat="46.31847" lon="-1.30558">
        <ele>5.2</ele>
        <time>2021-06-17T09:41:23Z</time>
      </trkpt>
      <trkpt lat="46.31848" lon="-1.30559">
        <ele>5.2</ele>
        <time>2021-06-17T09:41:24Z</time>
      </trkpt>
      <trkpt lat="46.31849" lon="-1.30559">
        <ele>5.2</ele>
        <time>2021-06-17T09:41:25Z</time>
      </trkpt>
      <trkpt lat="46.3185" lon="-1.3056">
        <ele>5.2</ele>
        <time>2021-06-17T09:41:26Z</time>
      </trkpt>
      <trkpt lat="46.31852" lon="-1.30561">
        <ele>5.2</ele>
        <time>2021-06-17T09:41:27Z</time>
      </trkpt>
      <trkpt lat="46.31853" lon="-1.30561">
        <ele>5.2</ele>
        <time>2021-06-17T09:41:28Z</time>
      </trkpt>
      <trkpt lat="46.31854" lon="-1.30562">
        <ele>5.2</ele>
        <time>2021-06-17T09:41:29Z</time>
      </trkpt>
      <trkpt lat="46.31855" lon="-1.30562">
        <ele>5.2</ele>
        <time>2021-06-17T09:41:30Z</time>
      </trkpt>
      <trkpt lat="46.31856" lon="-1.30563">
        <ele>5.2</ele>
        <time>2021-06-17T09:41:31Z</time>
      </trkpt>
      <trkpt lat="46.31857" lon="-1.30563">
        <ele>5.2</ele>
        <time>2021-06-17T09:41:32Z</time>
      </trkpt>
      <trkpt lat="46.31859" lon="-1.30564">
        <ele>5.2</ele>
        <time>2021-06-17T09:41:33Z</time>
      </trkpt>
      <trkpt lat="46.3186" lon="-1.30564">
        <ele>5.2</ele>
        <time>2021-06-17T09:41:34Z</time>
      </trkpt>
      <trkpt lat="46.31861" lon="-1.30565">
        <ele>5.2</ele>
        <time>2021-06-17T09:41:35Z</time>
      </trkpt>
      <trkpt lat="46.31862" lon="-1.30565">
        <ele>5.2</ele>
        <time>2021-06-17T09:41:36Z</time>
      </trkpt>
      <trkpt lat="46.31864" lon="-1.30566">
        <ele>5.2</ele>
        <time>2021-06-17T09:41:37Z</time>
      </trkpt>
      <trkpt lat="46.31865" lon="-1.30567">
        <ele>5.2</ele>
        <time>2021-06-17T09:41:38Z</time>
      </trkpt>
      <trkpt lat="46.31866" lon="-1.30567">
        <ele>5.2</ele>
        <time>2021-06-17T09:41:39Z</time>
      </trkpt>
      <trkpt lat="46.31867" lon="-1.30567">
        <ele>5.2</ele>
        <time>2021-06-17T09:41:40Z</time>
      </trkpt>
      <trkpt lat="46.31869" lon="-1.30568">
        <ele>5.2</ele>
        <time>2021-06-17T09:41:41Z</time>
      </trkpt>
      <trkpt lat="46.3187" lon="-1.30568">
        <ele>5.2</ele>
        <time>2021-06-17T09:41:42Z</time>
      </trkpt>
      <trkpt lat="46.31871" lon="-1.30569">
        <ele>5.2</ele>
        <time>2021-06-17T09:41:43Z</time>
      </trkpt>
      <trkpt lat="46.31872" lon="-1.30569">
        <ele>5.2</ele>
        <time>2021-06-17T09:41:44Z</time>
      </trkpt>
      <trkpt lat="46.31873" lon="-1.30569">
        <ele>5.2</ele>
        <time>2021-06-17T09:41:45Z</time>
      </trkpt>
      <trkpt lat="46.31875" lon="-1.3057">
        <ele>5.2</ele>
        <time>2021-06-17T09:41:46Z</time>
      </trkpt>
      <trkpt lat="46.31876" lon="-1.3057">
        <ele>5.2</ele>
        <time>2021-06-17T09:41:47Z</time>
      </trkpt>
      <trkpt lat="46.31877" lon="-1.3057">
        <ele>5.2</ele>
        <time>2021-06-17T09:41:48Z</time>
      </trkpt>
      <trkpt lat="46.31878" lon="-1.30571">
        <ele>5.2</ele>
        <time>2021-06-17T09:41:49Z</time>
      </trkpt>
      <trkpt lat="46.31879" lon="-1.30571">
        <ele>5.2</ele>
        <time>2021-06-17T09:41:50Z</time>
      </trkpt>
      <trkpt lat="46.3188" lon="-1.30572">
        <ele>5.2</ele>
        <time>2021-06-17T09:41:51Z</time>
      </trkpt>
      <trkpt lat="46.31881" lon="-1.30573">
        <ele>5.2</ele>
        <time>2021-06-17T09:41:52Z</time>
      </trkpt>
      <trkpt lat="46.31882" lon="-1.30574">
        <ele>5.2</ele>
        <time>2021-06-17T09:41:53Z</time>
      </trkpt>
      <trkpt lat="46.31883" lon="-1.30575">
        <ele>5.2</ele>
        <time>2021-06-17T09:41:54Z</time>
      </trkpt>
      <trkpt lat="46.31884" lon="-1.30576">
        <ele>5.2</ele>
        <time>2021-06-17T09:41:55Z</time>
      </trkpt>
      <trkpt lat="46.31885" lon="-1.30577">
        <ele>5.2</ele>
        <time>2021-06-17T09:41:56Z</time>
      </trkpt>
      <trkpt lat="46.31886" lon="-1.30578">
        <ele>5.2</ele>
        <time>2021-06-17T09:41:57Z</time>
      </trkpt>
      <trkpt lat="46.31887" lon="-1.30579">
        <ele>5.2</ele>
        <time>2021-06-17T09:41:58Z</time>
      </trkpt>
      <trkpt lat="46.31888" lon="-1.3058">
        <ele>5.2</ele>
        <time>2021-06-17T09:41:59Z</time>
      </trkpt>
      <trkpt lat="46.31889" lon="-1.3058">
        <ele>5.2</ele>
        <time>2021-06-17T09:42:00Z</time>
      </trkpt>
      <trkpt lat="46.3189" lon="-1.30581">
        <ele>5.2</ele>
        <time>2021-06-17T09:42:01Z</time>
      </trkpt>
      <trkpt lat="46.31891" lon="-1.30582">
        <ele>5.2</ele>
        <time>2021-06-17T09:42:02Z</time>
      </trkpt>
      <trkpt lat="46.31892" lon="-1.30582">
        <ele>5.2</ele>
        <time>2021-06-17T09:42:03Z</time>
      </trkpt>
      <trkpt lat="46.31893" lon="-1.30583">
        <ele>5.2</ele>
        <time>2021-06-17T09:42:04Z</time>
      </trkpt>
      <trkpt lat="46.31894" lon="-1.30584">
        <ele>5.2</ele>
        <time>2021-06-17T09:42:05Z</time>
      </trkpt>
      <trkpt lat="46.31895" lon="-1.30584">
        <ele>5.2</ele>
        <time>2021-06-17T09:42:06Z</time>
      </trkpt>
      <trkpt lat="46.31896" lon="-1.30585">
        <ele>5.2</ele>
        <time>2021-06-17T09:42:07Z</time>
      </trkpt>
      <trkpt lat="46.31898" lon="-1.30586">
        <ele>5.2</ele>
        <time>2021-06-17T09:42:08Z</time>
      </trkpt>
      <trkpt lat="46.31899" lon="-1.30587">
        <ele>5.2</ele>
        <time>2021-06-17T09:42:09Z</time>
      </trkpt>
      <trkpt lat="46.319" lon="-1.30588">
        <ele>5.2</ele>
        <time>2021-06-17T09:42:10Z</time>
      </trkpt>
      <trkpt lat="46.31901" lon="-1.30588">
        <ele>5.2</ele>
        <time>2021-06-17T09:42:11Z</time>
      </trkpt>
      <trkpt lat="46.31902" lon="-1.30589">
        <ele>5.2</ele>
        <time>2021-06-17T09:42:12Z</time>
      </trkpt>
      <trkpt lat="46.31903" lon="-1.3059">
        <ele>5.2</ele>
        <time>2021-06-17T09:42:13Z</time>
      </trkpt>
      <trkpt lat="46.31905" lon="-1.30591">
        <ele>5.2</ele>
        <time>2021-06-17T09:42:14Z</time>
      </trkpt>
      <trkpt lat="46.31906" lon="-1.30591">
        <ele>5.2</ele>
        <time>2021-06-17T09:42:15Z</time>
      </trkpt>
      <trkpt lat="46.31907" lon="-1.30592">
        <ele>5.2</ele>
        <time>2021-06-17T09:42:16Z</time>
      </trkpt>
      <trkpt lat="46.31908" lon="-1.30592">
        <ele>5.2</ele>
        <time>2021-06-17T09:42:17Z</time>
      </trkpt>
      <trkpt lat="46.31909" lon="-1.30593">
        <ele>5.2</ele>
        <time>2021-06-17T09:42:18Z</time>
      </trkpt>
      <trkpt lat="46.3191" lon="-1.30593">
        <ele>5.2</ele>
        <time>2021-06-17T09:42:19Z</time>
      </trkpt>
      <trkpt lat="46.31911" lon="-1.30594">
        <ele>5.2</ele>
        <time>2021-06-17T09:42:20Z</time>
      </trkpt>
      <trkpt lat="46.31912" lon="-1.30594">
        <ele>5.2</ele>
        <time>2021-06-17T09:42:21Z</time>
      </trkpt>
      <trkpt lat="46.31913" lon="-1.30595">
        <ele>5.2</ele>
        <time>2021-06-17T09:42:22Z</time>
      </trkpt>
      <trkpt lat="46.31914" lon="-1.30595">
        <ele>5.2</ele>
        <time>2021-06-17T09:42:23Z</time>
      </trkpt>
      <trkpt lat="46.31915" lon="-1.30596">
        <ele>5.2</ele>
        <time>2021-06-17T09:42:24Z</time>
      </trkpt>
      <trkpt lat="46.31916" lon="-1.30597">
        <ele>5.2</ele>
        <time>2021-06-17T09:42:25Z</time>
      </trkpt>
      <trkpt lat="46.31918" lon="-1.30597">
        <ele>5.2</ele>
        <time>2021-06-17T09:42:26Z</time>
      </trkpt>
      <trkpt lat="46.31919" lon="-1.30598">
        <ele>5.2</ele>
        <time>2021-06-17T09:42:27Z</time>
      </trkpt>
      <trkpt lat="46.3192" lon="-1.30598">
        <ele>5.2</ele>
        <time>2021-06-17T09:42:28Z</time>
      </trkpt>
      <trkpt lat="46.31921" lon="-1.30599">
        <ele>5.2</ele>
        <time>2021-06-17T09:42:29Z</time>
      </trkpt>
      <trkpt lat="46.31923" lon="-1.306">
        <ele>5.2</ele>
        <time>2021-06-17T09:42:30Z</time>
      </trkpt>
      <trkpt lat="46.31924" lon="-1.306">
        <ele>5.2</ele>
        <time>2021-06-17T09:42:31Z</time>
      </trkpt>
      <trkpt lat="46.31925" lon="-1.30601">
        <ele>5.2</ele>
        <time>2021-06-17T09:42:32Z</time>
      </trkpt>
      <trkpt lat="46.31927" lon="-1.30601">
        <ele>5.2</ele>
        <time>2021-06-17T09:42:33Z</time>
      </trkpt>
      <trkpt lat="46.31928" lon="-1.30602">
        <ele>5.2</ele>
        <time>2021-06-17T09:42:34Z</time>
      </trkpt>
      <trkpt lat="46.31929" lon="-1.30602">
        <ele>5.2</ele>
        <time>2021-06-17T09:42:35Z</time>
      </trkpt>
      <trkpt lat="46.31931" lon="-1.30603">
        <ele>5.2</ele>
        <time>2021-06-17T09:42:36Z</time>
      </trkpt>
      <trkpt lat="46.31932" lon="-1.30603">
        <ele>5.2</ele>
        <time>2021-06-17T09:42:37Z</time>
      </trkpt>
      <trkpt lat="46.31933" lon="-1.30604">
        <ele>5.2</ele>
        <time>2021-06-17T09:42:38Z</time>
      </trkpt>
      <trkpt lat="46.31934" lon="-1.30604">
        <ele>5.2</ele>
        <time>2021-06-17T09:42:39Z</time>
      </trkpt>
      <trkpt lat="46.31936" lon="-1.30605">
        <ele>5.2</ele>
        <time>2021-06-17T09:42:40Z</time>
      </trkpt>
      <trkpt lat="46.31937" lon="-1.30605">
        <ele>5.2</ele>
        <time>2021-06-17T09:42:41Z</time>
      </trkpt>
      <trkpt lat="46.31938" lon="-1.30606">
        <ele>5.2</ele>
        <time>2021-06-17T09:42:42Z</time>
      </trkpt>
      <trkpt lat="46.31939" lon="-1.30606">
        <ele>5.2</ele>
        <time>2021-06-17T09:42:43Z</time>
      </trkpt>
      <trkpt lat="46.31941" lon="-1.30606">
        <ele>5.2</ele>
        <time>2021-06-17T09:42:44Z</time>
      </trkpt>
      <trkpt lat="46.31942" lon="-1.30607">
        <ele>5.2</ele>
        <time>2021-06-17T09:42:45Z</time>
      </trkpt>
      <trkpt lat="46.31943" lon="-1.30607">
        <ele>5.2</ele>
        <time>2021-06-17T09:42:46Z</time>
      </trkpt>
      <trkpt lat="46.31944" lon="-1.30607">
        <ele>5.2</ele>
        <time>2021-06-17T09:42:47Z</time>
      </trkpt>
      <trkpt lat="46.31946" lon="-1.30608">
        <ele>5.2</ele>
        <time>2021-06-17T09:42:48Z</time>
      </trkpt>
      <trkpt lat="46.31947" lon="-1.30608">
        <ele>5.2</ele>
        <time>2021-06-17T09:42:49Z</time>
      </trkpt>
      <trkpt lat="46.31948" lon="-1.30608">
        <ele>5.2</ele>
        <time>2021-06-17T09:42:50Z</time>
      </trkpt>
      <trkpt lat="46.31949" lon="-1.30608">
        <ele>5.2</ele>
        <time>2021-06-17T09:42:51Z</time>
      </trkpt>
      <trkpt lat="46.31951" lon="-1.30609">
        <ele>5.1</ele>
        <time>2021-06-17T09:42:52Z</time>
      </trkpt>
      <trkpt lat="46.31952" lon="-1.30609">
        <ele>5.1</ele>
        <time>2021-06-17T09:42:53Z</time>
      </trkpt>
      <trkpt lat="46.31953" lon="-1.30609">
        <ele>5.1</ele>
        <time>2021-06-17T09:42:54Z</time>
      </trkpt>
      <trkpt lat="46.31954" lon="-1.30609">
        <ele>5.1</ele>
        <time>2021-06-17T09:42:55Z</time>
      </trkpt>
      <trkpt lat="46.31956" lon="-1.30609">
        <ele>5.1</ele>
        <time>2021-06-17T09:42:56Z</time>
      </trkpt>
      <trkpt lat="46.31957" lon="-1.30609">
        <ele>5.1</ele>
        <time>2021-06-17T09:42:57Z</time>
      </trkpt>
      <trkpt lat="46.31958" lon="-1.30609">
        <ele>5.1</ele>
        <time>2021-06-17T09:42:58Z</time>
      </trkpt>
      <trkpt lat="46.31959" lon="-1.30609">
        <ele>5.1</ele>
        <time>2021-06-17T09:42:59Z</time>
      </trkpt>
      <trkpt lat="46.31961" lon="-1.30609">
        <ele>5.1</ele>
        <time>2021-06-17T09:43:00Z</time>
      </trkpt>
      <trkpt lat="46.31962" lon="-1.30609">
        <ele>5.1</ele>
        <time>2021-06-17T09:43:01Z</time>
      </trkpt>
      <trkpt lat="46.31963" lon="-1.30609">
        <ele>5.1</ele>
        <time>2021-06-17T09:43:02Z</time>
      </trkpt>
      <trkpt lat="46.31964" lon="-1.3061">
        <ele>5.1</ele>
        <time>2021-06-17T09:43:03Z</time>
      </trkpt>
      <trkpt lat="46.31965" lon="-1.3061">
        <ele>5.1</ele>
        <time>2021-06-17T09:43:04Z</time>
      </trkpt>
      <trkpt lat="46.31966" lon="-1.3061">
        <ele>5.1</ele>
        <time>2021-06-17T09:43:05Z</time>
      </trkpt>
      <trkpt lat="46.31968" lon="-1.3061">
        <ele>5.2</ele>
        <time>2021-06-17T09:43:06Z</time>
      </trkpt>
      <trkpt lat="46.31969" lon="-1.3061">
        <ele>5.2</ele>
        <time>2021-06-17T09:43:07Z</time>
      </trkpt>
      <trkpt lat="46.3197" lon="-1.3061">
        <ele>5.2</ele>
        <time>2021-06-17T09:43:08Z</time>
      </trkpt>
      <trkpt lat="46.31971" lon="-1.3061">
        <ele>5.2</ele>
        <time>2021-06-17T09:43:09Z</time>
      </trkpt>
      <trkpt lat="46.31972" lon="-1.3061">
        <ele>5.2</ele>
        <time>2021-06-17T09:43:10Z</time>
      </trkpt>
      <trkpt lat="46.31973" lon="-1.3061">
        <ele>5.2</ele>
        <time>2021-06-17T09:43:11Z</time>
      </trkpt>
      <trkpt lat="46.31974" lon="-1.3061">
        <ele>5.2</ele>
        <time>2021-06-17T09:43:12Z</time>
      </trkpt>
      <trkpt lat="46.31975" lon="-1.30611">
        <ele>5.2</ele>
        <time>2021-06-17T09:43:13Z</time>
      </trkpt>
      <trkpt lat="46.31976" lon="-1.30611">
        <ele>5.2</ele>
        <time>2021-06-17T09:43:14Z</time>
      </trkpt>
      <trkpt lat="46.31977" lon="-1.30611">
        <ele>5.2</ele>
        <time>2021-06-17T09:43:15Z</time>
      </trkpt>
      <trkpt lat="46.31978" lon="-1.30611">
        <ele>5.2</ele>
        <time>2021-06-17T09:43:16Z</time>
      </trkpt>
      <trkpt lat="46.31979" lon="-1.30611">
        <ele>5.2</ele>
        <time>2021-06-17T09:43:17Z</time>
      </trkpt>
      <trkpt lat="46.3198" lon="-1.30611">
        <ele>5.2</ele>
        <time>2021-06-17T09:43:18Z</time>
      </trkpt>
      <trkpt lat="46.31981" lon="-1.30612">
        <ele>5.2</ele>
        <time>2021-06-17T09:43:19Z</time>
      </trkpt>
      <trkpt lat="46.31982" lon="-1.30612">
        <ele>5.2</ele>
        <time>2021-06-17T09:43:20Z</time>
      </trkpt>
      <trkpt lat="46.31984" lon="-1.30612">
        <ele>5.2</ele>
        <time>2021-06-17T09:43:21Z</time>
      </trkpt>
      <trkpt lat="46.31985" lon="-1.30612">
        <ele>5.2</ele>
        <time>2021-06-17T09:43:22Z</time>
      </trkpt>
      <trkpt lat="46.31986" lon="-1.30613">
        <ele>5.2</ele>
        <time>2021-06-17T09:43:23Z</time>
      </trkpt>
      <trkpt lat="46.31987" lon="-1.30613">
        <ele>5.2</ele>
        <time>2021-06-17T09:43:24Z</time>
      </trkpt>
      <trkpt lat="46.31989" lon="-1.30613">
        <ele>5.2</ele>
        <time>2021-06-17T09:43:25Z</time>
      </trkpt>
      <trkpt lat="46.3199" lon="-1.30614">
        <ele>5.2</ele>
        <time>2021-06-17T09:43:26Z</time>
      </trkpt>
      <trkpt lat="46.31991" lon="-1.30614">
        <ele>5.2</ele>
        <time>2021-06-17T09:43:27Z</time>
      </trkpt>
      <trkpt lat="46.31993" lon="-1.30614">
        <ele>5.2</ele>
        <time>2021-06-17T09:43:28Z</time>
      </trkpt>
      <trkpt lat="46.31994" lon="-1.30615">
        <ele>5.2</ele>
        <time>2021-06-17T09:43:29Z</time>
      </trkpt>
      <trkpt lat="46.31996" lon="-1.30615">
        <ele>5.2</ele>
        <time>2021-06-17T09:43:30Z</time>
      </trkpt>
      <trkpt lat="46.31997" lon="-1.30615">
        <ele>5.2</ele>
        <time>2021-06-17T09:43:31Z</time>
      </trkpt>
      <trkpt lat="46.31999" lon="-1.30616">
        <ele>5.2</ele>
        <time>2021-06-17T09:43:32Z</time>
      </trkpt>
      <trkpt lat="46.32" lon="-1.30616">
        <ele>5.2</ele>
        <time>2021-06-17T09:43:33Z</time>
      </trkpt>
      <trkpt lat="46.32002" lon="-1.30616">
        <ele>5.2</ele>
        <time>2021-06-17T09:43:34Z</time>
      </trkpt>
      <trkpt lat="46.32003" lon="-1.30617">
        <ele>5.2</ele>
        <time>2021-06-17T09:43:35Z</time>
      </trkpt>
      <trkpt lat="46.32005" lon="-1.30617">
        <ele>5.2</ele>
        <time>2021-06-17T09:43:36Z</time>
      </trkpt>
      <trkpt lat="46.32006" lon="-1.30617">
        <ele>5.2</ele>
        <time>2021-06-17T09:43:37Z</time>
      </trkpt>
      <trkpt lat="46.32007" lon="-1.30618">
        <ele>5.2</ele>
        <time>2021-06-17T09:43:38Z</time>
      </trkpt>
      <trkpt lat="46.32009" lon="-1.30618">
        <ele>5.2</ele>
        <time>2021-06-17T09:43:39Z</time>
      </trkpt>
      <trkpt lat="46.3201" lon="-1.30618">
        <ele>5.2</ele>
        <time>2021-06-17T09:43:40Z</time>
      </trkpt>
      <trkpt lat="46.32011" lon="-1.30619">
        <ele>5.2</ele>
        <time>2021-06-17T09:43:41Z</time>
      </trkpt>
      <trkpt lat="46.32013" lon="-1.30619">
        <ele>5.2</ele>
        <time>2021-06-17T09:43:42Z</time>
      </trkpt>
      <trkpt lat="46.32014" lon="-1.3062">
        <ele>5.2</ele>
        <time>2021-06-17T09:43:43Z</time>
      </trkpt>
      <trkpt lat="46.32015" lon="-1.3062">
        <ele>5.2</ele>
        <time>2021-06-17T09:43:44Z</time>
      </trkpt>
      <trkpt lat="46.32016" lon="-1.3062">
        <ele>5.1</ele>
        <time>2021-06-17T09:43:45Z</time>
      </trkpt>
      <trkpt lat="46.32017" lon="-1.30621">
        <ele>5.1</ele>
        <time>2021-06-17T09:43:46Z</time>
      </trkpt>
      <trkpt lat="46.32018" lon="-1.30621">
        <ele>5.1</ele>
        <time>2021-06-17T09:43:47Z</time>
      </trkpt>
      <trkpt lat="46.32019" lon="-1.30622">
        <ele>5.1</ele>
        <time>2021-06-17T09:43:48Z</time>
      </trkpt>
      <trkpt lat="46.3202" lon="-1.30622">
        <ele>5.1</ele>
        <time>2021-06-17T09:43:49Z</time>
      </trkpt>
      <trkpt lat="46.32021" lon="-1.30623">
        <ele>5.1</ele>
        <time>2021-06-17T09:43:50Z</time>
      </trkpt>
      <trkpt lat="46.32022" lon="-1.30623">
        <ele>5.1</ele>
        <time>2021-06-17T09:43:51Z</time>
      </trkpt>
      <trkpt lat="46.32023" lon="-1.30623">
        <ele>5.1</ele>
        <time>2021-06-17T09:43:52Z</time>
      </trkpt>
      <trkpt lat="46.32024" lon="-1.30624">
        <ele>5.1</ele>
        <time>2021-06-17T09:43:53Z</time>
      </trkpt>
      <trkpt lat="46.32025" lon="-1.30624">
        <ele>5.1</ele>
        <time>2021-06-17T09:43:54Z</time>
      </trkpt>
      <trkpt lat="46.32027" lon="-1.30625">
        <ele>5.1</ele>
        <time>2021-06-17T09:43:55Z</time>
      </trkpt>
      <trkpt lat="46.32028" lon="-1.30625">
        <ele>5.1</ele>
        <time>2021-06-17T09:43:56Z</time>
      </trkpt>
      <trkpt lat="46.32029" lon="-1.30625">
        <ele>5.1</ele>
        <time>2021-06-17T09:43:57Z</time>
      </trkpt>
      <trkpt lat="46.3203" lon="-1.30626">
        <ele>5.1</ele>
        <time>2021-06-17T09:43:58Z</time>
      </trkpt>
      <trkpt lat="46.32031" lon="-1.30626">
        <ele>5.1</ele>
        <time>2021-06-17T09:43:59Z</time>
      </trkpt>
      <trkpt lat="46.32032" lon="-1.30626">
        <ele>5.1</ele>
        <time>2021-06-17T09:44:00Z</time>
      </trkpt>
      <trkpt lat="46.32033" lon="-1.30627">
        <ele>5.1</ele>
        <time>2021-06-17T09:44:01Z</time>
      </trkpt>
      <trkpt lat="46.32034" lon="-1.30627">
        <ele>5.1</ele>
        <time>2021-06-17T09:44:02Z</time>
      </trkpt>
      <trkpt lat="46.32036" lon="-1.30628">
        <ele>5</ele>
        <time>2021-06-17T09:44:03Z</time>
      </trkpt>
      <trkpt lat="46.32037" lon="-1.30628">
        <ele>5</ele>
        <time>2021-06-17T09:44:04Z</time>
      </trkpt>
      <trkpt lat="46.32038" lon="-1.30628">
        <ele>5</ele>
        <time>2021-06-17T09:44:05Z</time>
      </trkpt>
      <trkpt lat="46.32039" lon="-1.30629">
        <ele>5</ele>
        <time>2021-06-17T09:44:06Z</time>
      </trkpt>
      <trkpt lat="46.32041" lon="-1.30629">
        <ele>5</ele>
        <time>2021-06-17T09:44:07Z</time>
      </trkpt>
      <trkpt lat="46.32042" lon="-1.30629">
        <ele>5</ele>
        <time>2021-06-17T09:44:08Z</time>
      </trkpt>
      <trkpt lat="46.32043" lon="-1.3063">
        <ele>5</ele>
        <time>2021-06-17T09:44:09Z</time>
      </trkpt>
      <trkpt lat="46.32044" lon="-1.3063">
        <ele>5</ele>
        <time>2021-06-17T09:44:10Z</time>
      </trkpt>
      <trkpt lat="46.32046" lon="-1.30631">
        <ele>5</ele>
        <time>2021-06-17T09:44:11Z</time>
      </trkpt>
      <trkpt lat="46.32047" lon="-1.30631">
        <ele>5</ele>
        <time>2021-06-17T09:44:12Z</time>
      </trkpt>
      <trkpt lat="46.32048" lon="-1.30632">
        <ele>5</ele>
        <time>2021-06-17T09:44:13Z</time>
      </trkpt>
      <trkpt lat="46.32049" lon="-1.30632">
        <ele>5</ele>
        <time>2021-06-17T09:44:14Z</time>
      </trkpt>
      <trkpt lat="46.32051" lon="-1.30633">
        <ele>5</ele>
        <time>2021-06-17T09:44:15Z</time>
      </trkpt>
      <trkpt lat="46.32052" lon="-1.30633">
        <ele>5</ele>
        <time>2021-06-17T09:44:16Z</time>
      </trkpt>
      <trkpt lat="46.32053" lon="-1.30634">
        <ele>5</ele>
        <time>2021-06-17T09:44:17Z</time>
      </trkpt>
      <trkpt lat="46.32054" lon="-1.30635">
        <ele>5</ele>
        <time>2021-06-17T09:44:18Z</time>
      </trkpt>
      <trkpt lat="46.32055" lon="-1.30635">
        <ele>5</ele>
        <time>2021-06-17T09:44:19Z</time>
      </trkpt>
      <trkpt lat="46.32056" lon="-1.30636">
        <ele>5</ele>
        <time>2021-06-17T09:44:20Z</time>
      </trkpt>
      <trkpt lat="46.32057" lon="-1.30636">
        <ele>5</ele>
        <time>2021-06-17T09:44:21Z</time>
      </trkpt>
      <trkpt lat="46.32059" lon="-1.30637">
        <ele>5</ele>
        <time>2021-06-17T09:44:22Z</time>
      </trkpt>
      <trkpt lat="46.3206" lon="-1.30637">
        <ele>5</ele>
        <time>2021-06-17T09:44:23Z</time>
      </trkpt>
      <trkpt lat="46.32061" lon="-1.30638">
        <ele>5</ele>
        <time>2021-06-17T09:44:24Z</time>
      </trkpt>
      <trkpt lat="46.32062" lon="-1.30638">
        <ele>5</ele>
        <time>2021-06-17T09:44:25Z</time>
      </trkpt>
      <trkpt lat="46.32063" lon="-1.30639">
        <ele>5</ele>
        <time>2021-06-17T09:44:26Z</time>
      </trkpt>
      <trkpt lat="46.32064" lon="-1.30639">
        <ele>5</ele>
        <time>2021-06-17T09:44:27Z</time>
      </trkpt>
      <trkpt lat="46.32065" lon="-1.3064">
        <ele>5</ele>
        <time>2021-06-17T09:44:28Z</time>
      </trkpt>
      <trkpt lat="46.32066" lon="-1.3064">
        <ele>5</ele>
        <time>2021-06-17T09:44:29Z</time>
      </trkpt>
      <trkpt lat="46.32068" lon="-1.3064">
        <ele>5</ele>
        <time>2021-06-17T09:44:30Z</time>
      </trkpt>
      <trkpt lat="46.32069" lon="-1.30641">
        <ele>5</ele>
        <time>2021-06-17T09:44:31Z</time>
      </trkpt>
      <trkpt lat="46.3207" lon="-1.30641">
        <ele>5.1</ele>
        <time>2021-06-17T09:44:32Z</time>
      </trkpt>
      <trkpt lat="46.32071" lon="-1.30641">
        <ele>5.1</ele>
        <time>2021-06-17T09:44:33Z</time>
      </trkpt>
      <trkpt lat="46.32073" lon="-1.30642">
        <ele>5.1</ele>
        <time>2021-06-17T09:44:34Z</time>
      </trkpt>
      <trkpt lat="46.32074" lon="-1.30642">
        <ele>5.1</ele>
        <time>2021-06-17T09:44:35Z</time>
      </trkpt>
      <trkpt lat="46.32075" lon="-1.30643">
        <ele>5.1</ele>
        <time>2021-06-17T09:44:36Z</time>
      </trkpt>
      <trkpt lat="46.32076" lon="-1.30643">
        <ele>5.1</ele>
        <time>2021-06-17T09:44:37Z</time>
      </trkpt>
      <trkpt lat="46.32078" lon="-1.30644">
        <ele>5.1</ele>
        <time>2021-06-17T09:44:38Z</time>
      </trkpt>
      <trkpt lat="46.32079" lon="-1.30644">
        <ele>5.1</ele>
        <time>2021-06-17T09:44:39Z</time>
      </trkpt>
      <trkpt lat="46.3208" lon="-1.30645">
        <ele>5.1</ele>
        <time>2021-06-17T09:44:40Z</time>
      </trkpt>
      <trkpt lat="46.32081" lon="-1.30645">
        <ele>5.1</ele>
        <time>2021-06-17T09:44:41Z</time>
      </trkpt>
      <trkpt lat="46.32082" lon="-1.30646">
        <ele>5.1</ele>
        <time>2021-06-17T09:44:42Z</time>
      </trkpt>
      <trkpt lat="46.32083" lon="-1.30646">
        <ele>5.1</ele>
        <time>2021-06-17T09:44:43Z</time>
      </trkpt>
      <trkpt lat="46.32084" lon="-1.30647">
        <ele>5.1</ele>
        <time>2021-06-17T09:44:44Z</time>
      </trkpt>
      <trkpt lat="46.32085" lon="-1.30647">
        <ele>5.1</ele>
        <time>2021-06-17T09:44:45Z</time>
      </trkpt>
      <trkpt lat="46.32087" lon="-1.30648">
        <ele>5.1</ele>
        <time>2021-06-17T09:44:46Z</time>
      </trkpt>
      <trkpt lat="46.32088" lon="-1.30649">
        <ele>5.1</ele>
        <time>2021-06-17T09:44:47Z</time>
      </trkpt>
      <trkpt lat="46.32089" lon="-1.30649">
        <ele>5.1</ele>
        <time>2021-06-17T09:44:48Z</time>
      </trkpt>
      <trkpt lat="46.3209" lon="-1.3065">
        <ele>5.1</ele>
        <time>2021-06-17T09:44:49Z</time>
      </trkpt>
      <trkpt lat="46.32091" lon="-1.3065">
        <ele>5.1</ele>
        <time>2021-06-17T09:44:50Z</time>
      </trkpt>
      <trkpt lat="46.32092" lon="-1.30651">
        <ele>5.1</ele>
        <time>2021-06-17T09:44:51Z</time>
      </trkpt>
      <trkpt lat="46.32093" lon="-1.30652">
        <ele>5.1</ele>
        <time>2021-06-17T09:44:52Z</time>
      </trkpt>
      <trkpt lat="46.32094" lon="-1.30652">
        <ele>5.1</ele>
        <time>2021-06-17T09:44:53Z</time>
      </trkpt>
      <trkpt lat="46.32096" lon="-1.30653">
        <ele>5.1</ele>
        <time>2021-06-17T09:44:54Z</time>
      </trkpt>
      <trkpt lat="46.32097" lon="-1.30654">
        <ele>5.1</ele>
        <time>2021-06-17T09:44:55Z</time>
      </trkpt>
      <trkpt lat="46.32098" lon="-1.30654">
        <ele>5.1</ele>
        <time>2021-06-17T09:44:56Z</time>
      </trkpt>
      <trkpt lat="46.32099" lon="-1.30655">
        <ele>5.1</ele>
        <time>2021-06-17T09:44:57Z</time>
      </trkpt>
      <trkpt lat="46.321" lon="-1.30656">
        <ele>5.1</ele>
        <time>2021-06-17T09:44:58Z</time>
      </trkpt>
      <trkpt lat="46.32101" lon="-1.30656">
        <ele>5.1</ele>
        <time>2021-06-17T09:44:59Z</time>
      </trkpt>
      <trkpt lat="46.32102" lon="-1.30657">
        <ele>5.1</ele>
        <time>2021-06-17T09:45:00Z</time>
      </trkpt>
      <trkpt lat="46.32104" lon="-1.30657">
        <ele>5.1</ele>
        <time>2021-06-17T09:45:01Z</time>
      </trkpt>
      <trkpt lat="46.32105" lon="-1.30658">
        <ele>5.1</ele>
        <time>2021-06-17T09:45:02Z</time>
      </trkpt>
      <trkpt lat="46.32106" lon="-1.30659">
        <ele>5.1</ele>
        <time>2021-06-17T09:45:03Z</time>
      </trkpt>
      <trkpt lat="46.32107" lon="-1.30659">
        <ele>5.1</ele>
        <time>2021-06-17T09:45:04Z</time>
      </trkpt>
      <trkpt lat="46.32108" lon="-1.3066">
        <ele>5.1</ele>
        <time>2021-06-17T09:45:05Z</time>
      </trkpt>
      <trkpt lat="46.32109" lon="-1.3066">
        <ele>5.1</ele>
        <time>2021-06-17T09:45:06Z</time>
      </trkpt>
      <trkpt lat="46.3211" lon="-1.30661">
        <ele>5.1</ele>
        <time>2021-06-17T09:45:07Z</time>
      </trkpt>
      <trkpt lat="46.32111" lon="-1.30661">
        <ele>5.1</ele>
        <time>2021-06-17T09:45:08Z</time>
      </trkpt>
      <trkpt lat="46.32113" lon="-1.30662">
        <ele>5.1</ele>
        <time>2021-06-17T09:45:09Z</time>
      </trkpt>
      <trkpt lat="46.32114" lon="-1.30662">
        <ele>5.1</ele>
        <time>2021-06-17T09:45:10Z</time>
      </trkpt>
      <trkpt lat="46.32115" lon="-1.30663">
        <ele>5.1</ele>
        <time>2021-06-17T09:45:11Z</time>
      </trkpt>
      <trkpt lat="46.32116" lon="-1.30663">
        <ele>5.1</ele>
        <time>2021-06-17T09:45:12Z</time>
      </trkpt>
      <trkpt lat="46.32117" lon="-1.30663">
        <ele>5.1</ele>
        <time>2021-06-17T09:45:13Z</time>
      </trkpt>
      <trkpt lat="46.32118" lon="-1.30664">
        <ele>5.1</ele>
        <time>2021-06-17T09:45:14Z</time>
      </trkpt>
      <trkpt lat="46.32119" lon="-1.30664">
        <ele>5.1</ele>
        <time>2021-06-17T09:45:15Z</time>
      </trkpt>
      <trkpt lat="46.3212" lon="-1.30664">
        <ele>5.1</ele>
        <time>2021-06-17T09:45:16Z</time>
      </trkpt>
      <trkpt lat="46.32121" lon="-1.30665">
        <ele>5.1</ele>
        <time>2021-06-17T09:45:17Z</time>
      </trkpt>
      <trkpt lat="46.32122" lon="-1.30665">
        <ele>5.1</ele>
        <time>2021-06-17T09:45:18Z</time>
      </trkpt>
      <trkpt lat="46.32123" lon="-1.30666">
        <ele>5.1</ele>
        <time>2021-06-17T09:45:19Z</time>
      </trkpt>
      <trkpt lat="46.32124" lon="-1.30666">
        <ele>5.1</ele>
        <time>2021-06-17T09:45:20Z</time>
      </trkpt>
      <trkpt lat="46.32126" lon="-1.30666">
        <ele>5.1</ele>
        <time>2021-06-17T09:45:21Z</time>
      </trkpt>
      <trkpt lat="46.32127" lon="-1.30667">
        <ele>5.1</ele>
        <time>2021-06-17T09:45:22Z</time>
      </trkpt>
      <trkpt lat="46.32128" lon="-1.30667">
        <ele>5.1</ele>
        <time>2021-06-17T09:45:23Z</time>
      </trkpt>
      <trkpt lat="46.32129" lon="-1.30667">
        <ele>5.1</ele>
        <time>2021-06-17T09:45:24Z</time>
      </trkpt>
      <trkpt lat="46.3213" lon="-1.30668">
        <ele>5.1</ele>
        <time>2021-06-17T09:45:25Z</time>
      </trkpt>
      <trkpt lat="46.32131" lon="-1.30668">
        <ele>5.1</ele>
        <time>2021-06-17T09:45:26Z</time>
      </trkpt>
      <trkpt lat="46.32132" lon="-1.30668">
        <ele>5.1</ele>
        <time>2021-06-17T09:45:27Z</time>
      </trkpt>
      <trkpt lat="46.32133" lon="-1.30669">
        <ele>5.1</ele>
        <time>2021-06-17T09:45:28Z</time>
      </trkpt>
      <trkpt lat="46.32134" lon="-1.30669">
        <ele>5.1</ele>
        <time>2021-06-17T09:45:29Z</time>
      </trkpt>
      <trkpt lat="46.32136" lon="-1.3067">
        <ele>5.1</ele>
        <time>2021-06-17T09:45:30Z</time>
      </trkpt>
      <trkpt lat="46.32137" lon="-1.3067">
        <ele>5.1</ele>
        <time>2021-06-17T09:45:31Z</time>
      </trkpt>
      <trkpt lat="46.32138" lon="-1.30671">
        <ele>5.1</ele>
        <time>2021-06-17T09:45:32Z</time>
      </trkpt>
      <trkpt lat="46.32139" lon="-1.30671">
        <ele>5</ele>
        <time>2021-06-17T09:45:33Z</time>
      </trkpt>
      <trkpt lat="46.3214" lon="-1.30672">
        <ele>5</ele>
        <time>2021-06-17T09:45:34Z</time>
      </trkpt>
      <trkpt lat="46.32142" lon="-1.30673">
        <ele>5</ele>
        <time>2021-06-17T09:45:35Z</time>
      </trkpt>
      <trkpt lat="46.32143" lon="-1.30673">
        <ele>5</ele>
        <time>2021-06-17T09:45:36Z</time>
      </trkpt>
      <trkpt lat="46.32144" lon="-1.30674">
        <ele>5</ele>
        <time>2021-06-17T09:45:37Z</time>
      </trkpt>
      <trkpt lat="46.32145" lon="-1.30675">
        <ele>5</ele>
        <time>2021-06-17T09:45:38Z</time>
      </trkpt>
      <trkpt lat="46.32146" lon="-1.30676">
        <ele>5</ele>
        <time>2021-06-17T09:45:39Z</time>
      </trkpt>
      <trkpt lat="46.32148" lon="-1.30676">
        <ele>4.9</ele>
        <time>2021-06-17T09:45:40Z</time>
      </trkpt>
      <trkpt lat="46.32149" lon="-1.30677">
        <ele>4.9</ele>
        <time>2021-06-17T09:45:41Z</time>
      </trkpt>
      <trkpt lat="46.3215" lon="-1.30678">
        <ele>4.9</ele>
        <time>2021-06-17T09:45:42Z</time>
      </trkpt>
      <trkpt lat="46.32151" lon="-1.30679">
        <ele>4.9</ele>
        <time>2021-06-17T09:45:43Z</time>
      </trkpt>
      <trkpt lat="46.32152" lon="-1.3068">
        <ele>4.9</ele>
        <time>2021-06-17T09:45:44Z</time>
      </trkpt>
      <trkpt lat="46.32153" lon="-1.30681">
        <ele>4.9</ele>
        <time>2021-06-17T09:45:45Z</time>
      </trkpt>
      <trkpt lat="46.32154" lon="-1.30682">
        <ele>4.8</ele>
        <time>2021-06-17T09:45:46Z</time>
      </trkpt>
      <trkpt lat="46.32155" lon="-1.30683">
        <ele>4.8</ele>
        <time>2021-06-17T09:45:47Z</time>
      </trkpt>
      <trkpt lat="46.32156" lon="-1.30684">
        <ele>4.8</ele>
        <time>2021-06-17T09:45:48Z</time>
      </trkpt>
      <trkpt lat="46.32157" lon="-1.30686">
        <ele>4.8</ele>
        <time>2021-06-17T09:45:49Z</time>
      </trkpt>
      <trkpt lat="46.32158" lon="-1.30687">
        <ele>4.8</ele>
        <time>2021-06-17T09:45:50Z</time>
      </trkpt>
      <trkpt lat="46.32159" lon="-1.30688">
        <ele>4.8</ele>
        <time>2021-06-17T09:45:51Z</time>
      </trkpt>
      <trkpt lat="46.3216" lon="-1.30689">
        <ele>4.8</ele>
        <time>2021-06-17T09:45:52Z</time>
      </trkpt>
      <trkpt lat="46.32161" lon="-1.3069">
        <ele>4.7</ele>
        <time>2021-06-17T09:45:53Z</time>
      </trkpt>
      <trkpt lat="46.32162" lon="-1.30691">
        <ele>4.7</ele>
        <time>2021-06-17T09:45:54Z</time>
      </trkpt>
      <trkpt lat="46.32163" lon="-1.30692">
        <ele>4.7</ele>
        <time>2021-06-17T09:45:55Z</time>
      </trkpt>
      <trkpt lat="46.32164" lon="-1.30693">
        <ele>4.7</ele>
        <time>2021-06-17T09:45:56Z</time>
      </trkpt>
      <trkpt lat="46.32165" lon="-1.30694">
        <ele>4.7</ele>
        <time>2021-06-17T09:45:57Z</time>
      </trkpt>
      <trkpt lat="46.32166" lon="-1.30695">
        <ele>4.7</ele>
        <time>2021-06-17T09:45:58Z</time>
      </trkpt>
      <trkpt lat="46.32167" lon="-1.30696">
        <ele>4.7</ele>
        <time>2021-06-17T09:45:59Z</time>
      </trkpt>
      <trkpt lat="46.32168" lon="-1.30697">
        <ele>4.6</ele>
        <time>2021-06-17T09:46:00Z</time>
      </trkpt>
      <trkpt lat="46.32169" lon="-1.30698">
        <ele>4.6</ele>
        <time>2021-06-17T09:46:01Z</time>
      </trkpt>
      <trkpt lat="46.32169" lon="-1.30699">
        <ele>4.6</ele>
        <time>2021-06-17T09:46:02Z</time>
      </trkpt>
      <trkpt lat="46.3217" lon="-1.307">
        <ele>4.6</ele>
        <time>2021-06-17T09:46:03Z</time>
      </trkpt>
      <trkpt lat="46.32171" lon="-1.30701">
        <ele>4.6</ele>
        <time>2021-06-17T09:46:04Z</time>
      </trkpt>
      <trkpt lat="46.32172" lon="-1.30702">
        <ele>4.6</ele>
        <time>2021-06-17T09:46:05Z</time>
      </trkpt>
      <trkpt lat="46.32173" lon="-1.30703">
        <ele>4.6</ele>
        <time>2021-06-17T09:46:06Z</time>
      </trkpt>
      <trkpt lat="46.32174" lon="-1.30704">
        <ele>4.5</ele>
        <time>2021-06-17T09:46:07Z</time>
      </trkpt>
      <trkpt lat="46.32175" lon="-1.30705">
        <ele>4.5</ele>
        <time>2021-06-17T09:46:08Z</time>
      </trkpt>
      <trkpt lat="46.32176" lon="-1.30706">
        <ele>4.5</ele>
        <time>2021-06-17T09:46:09Z</time>
      </trkpt>
      <trkpt lat="46.32177" lon="-1.30707">
        <ele>4.5</ele>
        <time>2021-06-17T09:46:10Z</time>
      </trkpt>
      <trkpt lat="46.32178" lon="-1.30708">
        <ele>4.5</ele>
        <time>2021-06-17T09:46:11Z</time>
      </trkpt>
      <trkpt lat="46.32179" lon="-1.30709">
        <ele>4.5</ele>
        <time>2021-06-17T09:46:12Z</time>
      </trkpt>
      <trkpt lat="46.3218" lon="-1.3071">
        <ele>4.5</ele>
        <time>2021-06-17T09:46:13Z</time>
      </trkpt>
      <trkpt lat="46.3218" lon="-1.30711">
        <ele>4.4</ele>
        <time>2021-06-17T09:46:14Z</time>
      </trkpt>
      <trkpt lat="46.32181" lon="-1.30712">
        <ele>4.4</ele>
        <time>2021-06-17T09:46:15Z</time>
      </trkpt>
      <trkpt lat="46.32182" lon="-1.30713">
        <ele>4.4</ele>
        <time>2021-06-17T09:46:16Z</time>
      </trkpt>
      <trkpt lat="46.32183" lon="-1.30714">
        <ele>4.4</ele>
        <time>2021-06-17T09:46:17Z</time>
      </trkpt>
      <trkpt lat="46.32183" lon="-1.30715">
        <ele>4.4</ele>
        <time>2021-06-17T09:46:18Z</time>
      </trkpt>
      <trkpt lat="46.32184" lon="-1.30717">
        <ele>4.4</ele>
        <time>2021-06-17T09:46:19Z</time>
      </trkpt>
      <trkpt lat="46.32184" lon="-1.30718">
        <ele>4.4</ele>
        <time>2021-06-17T09:46:20Z</time>
      </trkpt>
      <trkpt lat="46.32184" lon="-1.30719">
        <ele>4.4</ele>
        <time>2021-06-17T09:46:21Z</time>
      </trkpt>
      <trkpt lat="46.32184" lon="-1.3072">
        <ele>4.4</ele>
        <time>2021-06-17T09:46:22Z</time>
      </trkpt>
      <trkpt lat="46.32185" lon="-1.30721">
        <ele>4.4</ele>
        <time>2021-06-17T09:46:23Z</time>
      </trkpt>
      <trkpt lat="46.32185" lon="-1.30721">
        <ele>4.3</ele>
        <time>2021-06-17T09:46:24Z</time>
      </trkpt>
      <trkpt lat="46.32185" lon="-1.30721">
        <ele>4.3</ele>
        <time>2021-06-17T09:46:25Z</time>
      </trkpt>
      <trkpt lat="46.32185" lon="-1.30721">
        <ele>4.3</ele>
        <time>2021-06-17T09:46:26Z</time>
      </trkpt>
      <trkpt lat="46.32185" lon="-1.30721">
        <ele>4.3</ele>
        <time>2021-06-17T09:46:27Z</time>
      </trkpt>
      <trkpt lat="46.32185" lon="-1.30721">
        <ele>4.3</ele>
        <time>2021-06-17T09:46:28Z</time>
      </trkpt>
      <trkpt lat="46.32185" lon="-1.30721">
        <ele>4.3</ele>
        <time>2021-06-17T09:46:29Z</time>
      </trkpt>
      <trkpt lat="46.32185" lon="-1.3072">
        <ele>4.3</ele>
        <time>2021-06-17T09:46:30Z</time>
      </trkpt>
      <trkpt lat="46.32186" lon="-1.3072">
        <ele>4.3</ele>
        <time>2021-06-17T09:46:31Z</time>
      </trkpt>
      <trkpt lat="46.32186" lon="-1.3072">
        <ele>4.3</ele>
        <time>2021-06-17T09:46:32Z</time>
      </trkpt>
      <trkpt lat="46.32187" lon="-1.3072">
        <ele>4.3</ele>
        <time>2021-06-17T09:46:33Z</time>
      </trkpt>
      <trkpt lat="46.32188" lon="-1.3072">
        <ele>4.3</ele>
        <time>2021-06-17T09:46:34Z</time>
      </trkpt>
      <trkpt lat="46.32189" lon="-1.3072">
        <ele>4.3</ele>
        <time>2021-06-17T09:46:35Z</time>
      </trkpt>
      <trkpt lat="46.32191" lon="-1.3072">
        <ele>4.3</ele>
        <time>2021-06-17T09:46:36Z</time>
      </trkpt>
      <trkpt lat="46.32192" lon="-1.3072">
        <ele>4.3</ele>
        <time>2021-06-17T09:46:37Z</time>
      </trkpt>
      <trkpt lat="46.32193" lon="-1.30721">
        <ele>4.2</ele>
        <time>2021-06-17T09:46:38Z</time>
      </trkpt>
      <trkpt lat="46.32194" lon="-1.30721">
        <ele>4.2</ele>
        <time>2021-06-17T09:46:39Z</time>
      </trkpt>
      <trkpt lat="46.32195" lon="-1.30722">
        <ele>4.2</ele>
        <time>2021-06-17T09:46:40Z</time>
      </trkpt>
      <trkpt lat="46.32196" lon="-1.30722">
        <ele>4.2</ele>
        <time>2021-06-17T09:46:41Z</time>
      </trkpt>
      <trkpt lat="46.32197" lon="-1.30722">
        <ele>4.2</ele>
        <time>2021-06-17T09:46:42Z</time>
      </trkpt>
      <trkpt lat="46.32199" lon="-1.30723">
        <ele>4.2</ele>
        <time>2021-06-17T09:46:43Z</time>
      </trkpt>
      <trkpt lat="46.322" lon="-1.30723">
        <ele>4.2</ele>
        <time>2021-06-17T09:46:44Z</time>
      </trkpt>
      <trkpt lat="46.32201" lon="-1.30723">
        <ele>4.1</ele>
        <time>2021-06-17T09:46:45Z</time>
      </trkpt>
      <trkpt lat="46.32202" lon="-1.30724">
        <ele>4.1</ele>
        <time>2021-06-17T09:46:46Z</time>
      </trkpt>
      <trkpt lat="46.32203" lon="-1.30724">
        <ele>4.1</ele>
        <time>2021-06-17T09:46:47Z</time>
      </trkpt>
      <trkpt lat="46.32204" lon="-1.30725">
        <ele>4.1</ele>
        <time>2021-06-17T09:46:48Z</time>
      </trkpt>
      <trkpt lat="46.32205" lon="-1.30725">
        <ele>4.1</ele>
        <time>2021-06-17T09:46:49Z</time>
      </trkpt>
      <trkpt lat="46.32207" lon="-1.30725">
        <ele>4.1</ele>
        <time>2021-06-17T09:46:50Z</time>
      </trkpt>
      <trkpt lat="46.32208" lon="-1.30726">
        <ele>4.1</ele>
        <time>2021-06-17T09:46:51Z</time>
      </trkpt>
      <trkpt lat="46.32209" lon="-1.30726">
        <ele>4</ele>
        <time>2021-06-17T09:46:52Z</time>
      </trkpt>
      <trkpt lat="46.3221" lon="-1.30726">
        <ele>4</ele>
        <time>2021-06-17T09:46:53Z</time>
      </trkpt>
      <trkpt lat="46.32211" lon="-1.30727">
        <ele>4</ele>
        <time>2021-06-17T09:46:54Z</time>
      </trkpt>
      <trkpt lat="46.32212" lon="-1.30727">
        <ele>4</ele>
        <time>2021-06-17T09:46:55Z</time>
      </trkpt>
      <trkpt lat="46.32214" lon="-1.30728">
        <ele>4</ele>
        <time>2021-06-17T09:46:56Z</time>
      </trkpt>
      <trkpt lat="46.32215" lon="-1.30728">
        <ele>4</ele>
        <time>2021-06-17T09:46:57Z</time>
      </trkpt>
      <trkpt lat="46.32216" lon="-1.30728">
        <ele>4</ele>
        <time>2021-06-17T09:46:58Z</time>
      </trkpt>
      <trkpt lat="46.32218" lon="-1.30728">
        <ele>3.9</ele>
        <time>2021-06-17T09:46:59Z</time>
      </trkpt>
      <trkpt lat="46.32219" lon="-1.30728">
        <ele>3.9</ele>
        <time>2021-06-17T09:47:00Z</time>
      </trkpt>
      <trkpt lat="46.3222" lon="-1.30728">
        <ele>3.9</ele>
        <time>2021-06-17T09:47:01Z</time>
      </trkpt>
      <trkpt lat="46.32221" lon="-1.30727">
        <ele>3.9</ele>
        <time>2021-06-17T09:47:02Z</time>
      </trkpt>
      <trkpt lat="46.32223" lon="-1.30726">
        <ele>3.9</ele>
        <time>2021-06-17T09:47:03Z</time>
      </trkpt>
      <trkpt lat="46.32224" lon="-1.30725">
        <ele>3.9</ele>
        <time>2021-06-17T09:47:04Z</time>
      </trkpt>
      <trkpt lat="46.32225" lon="-1.30724">
        <ele>3.8</ele>
        <time>2021-06-17T09:47:05Z</time>
      </trkpt>
      <trkpt lat="46.32226" lon="-1.30723">
        <ele>3.8</ele>
        <time>2021-06-17T09:47:06Z</time>
      </trkpt>
      <trkpt lat="46.32227" lon="-1.30722">
        <ele>3.8</ele>
        <time>2021-06-17T09:47:07Z</time>
      </trkpt>
      <trkpt lat="46.32228" lon="-1.3072">
        <ele>3.8</ele>
        <time>2021-06-17T09:47:08Z</time>
      </trkpt>
      <trkpt lat="46.32229" lon="-1.30719">
        <ele>3.8</ele>
        <time>2021-06-17T09:47:09Z</time>
      </trkpt>
      <trkpt lat="46.3223" lon="-1.30718">
        <ele>3.8</ele>
        <time>2021-06-17T09:47:10Z</time>
      </trkpt>
      <trkpt lat="46.32231" lon="-1.30716">
        <ele>3.7</ele>
        <time>2021-06-17T09:47:11Z</time>
      </trkpt>
      <trkpt lat="46.32232" lon="-1.30715">
        <ele>3.7</ele>
        <time>2021-06-17T09:47:12Z</time>
      </trkpt>
      <trkpt lat="46.32233" lon="-1.30714">
        <ele>3.7</ele>
        <time>2021-06-17T09:47:13Z</time>
      </trkpt>
      <trkpt lat="46.32234" lon="-1.30713">
        <ele>3.7</ele>
        <time>2021-06-17T09:47:14Z</time>
      </trkpt>
      <trkpt lat="46.32235" lon="-1.30712">
        <ele>3.7</ele>
        <time>2021-06-17T09:47:15Z</time>
      </trkpt>
      <trkpt lat="46.32236" lon="-1.30712">
        <ele>3.7</ele>
        <time>2021-06-17T09:47:16Z</time>
      </trkpt>
      <trkpt lat="46.32237" lon="-1.30711">
        <ele>3.7</ele>
        <time>2021-06-17T09:47:17Z</time>
      </trkpt>
      <trkpt lat="46.32237" lon="-1.30711">
        <ele>3.7</ele>
        <time>2021-06-17T09:47:18Z</time>
      </trkpt>
      <trkpt lat="46.32237" lon="-1.30711">
        <ele>3.7</ele>
        <time>2021-06-17T09:47:19Z</time>
      </trkpt>
      <trkpt lat="46.32238" lon="-1.30711">
        <ele>3.7</ele>
        <time>2021-06-17T09:47:20Z</time>
      </trkpt>
      <trkpt lat="46.32238" lon="-1.3071">
        <ele>3.6</ele>
        <time>2021-06-17T09:47:21Z</time>
      </trkpt>
      <trkpt lat="46.32239" lon="-1.30709">
        <ele>3.6</ele>
        <time>2021-06-17T09:47:22Z</time>
      </trkpt>
      <trkpt lat="46.3224" lon="-1.30707">
        <ele>3.6</ele>
        <time>2021-06-17T09:47:23Z</time>
      </trkpt>
      <trkpt lat="46.32241" lon="-1.30706">
        <ele>3.6</ele>
        <time>2021-06-17T09:47:24Z</time>
      </trkpt>
      <trkpt lat="46.32242" lon="-1.30704">
        <ele>3.6</ele>
        <time>2021-06-17T09:47:25Z</time>
      </trkpt>
      <trkpt lat="46.32243" lon="-1.30702">
        <ele>3.6</ele>
        <time>2021-06-17T09:47:26Z</time>
      </trkpt>
      <trkpt lat="46.32244" lon="-1.307">
        <ele>3.5</ele>
        <time>2021-06-17T09:47:27Z</time>
      </trkpt>
      <trkpt lat="46.32245" lon="-1.30699">
        <ele>3.5</ele>
        <time>2021-06-17T09:47:28Z</time>
      </trkpt>
      <trkpt lat="46.32245" lon="-1.30697">
        <ele>3.5</ele>
        <time>2021-06-17T09:47:29Z</time>
      </trkpt>
      <trkpt lat="46.32246" lon="-1.30696">
        <ele>3.5</ele>
        <time>2021-06-17T09:47:30Z</time>
      </trkpt>
      <trkpt lat="46.32247" lon="-1.30694">
        <ele>3.5</ele>
        <time>2021-06-17T09:47:31Z</time>
      </trkpt>
      <trkpt lat="46.32247" lon="-1.30693">
        <ele>3.5</ele>
        <time>2021-06-17T09:47:32Z</time>
      </trkpt>
      <trkpt lat="46.32248" lon="-1.30691">
        <ele>3.5</ele>
        <time>2021-06-17T09:47:33Z</time>
      </trkpt>
      <trkpt lat="46.32248" lon="-1.3069">
        <ele>3.4</ele>
        <time>2021-06-17T09:47:34Z</time>
      </trkpt>
      <trkpt lat="46.32249" lon="-1.30688">
        <ele>3.4</ele>
        <time>2021-06-17T09:47:35Z</time>
      </trkpt>
      <trkpt lat="46.32249" lon="-1.30686">
        <ele>3.4</ele>
        <time>2021-06-17T09:47:36Z</time>
      </trkpt>
      <trkpt lat="46.32249" lon="-1.30684">
        <ele>3.4</ele>
        <time>2021-06-17T09:47:37Z</time>
      </trkpt>
      <trkpt lat="46.3225" lon="-1.30683">
        <ele>3.4</ele>
        <time>2021-06-17T09:47:38Z</time>
      </trkpt>
      <trkpt lat="46.3225" lon="-1.30681">
        <ele>3.4</ele>
        <time>2021-06-17T09:47:39Z</time>
      </trkpt>
      <trkpt lat="46.3225" lon="-1.30679">
        <ele>3.3</ele>
        <time>2021-06-17T09:47:40Z</time>
      </trkpt>
      <trkpt lat="46.32251" lon="-1.30677">
        <ele>3.3</ele>
        <time>2021-06-17T09:47:41Z</time>
      </trkpt>
      <trkpt lat="46.32252" lon="-1.30675">
        <ele>3.3</ele>
        <time>2021-06-17T09:47:42Z</time>
      </trkpt>
      <trkpt lat="46.32253" lon="-1.30673">
        <ele>3.3</ele>
        <time>2021-06-17T09:47:43Z</time>
      </trkpt>
      <trkpt lat="46.32254" lon="-1.30672">
        <ele>3.3</ele>
        <time>2021-06-17T09:47:44Z</time>
      </trkpt>
      <trkpt lat="46.32255" lon="-1.3067">
        <ele>3.3</ele>
        <time>2021-06-17T09:47:45Z</time>
      </trkpt>
      <trkpt lat="46.32256" lon="-1.30669">
        <ele>3.2</ele>
        <time>2021-06-17T09:47:46Z</time>
      </trkpt>
      <trkpt lat="46.32258" lon="-1.30668">
        <ele>3.2</ele>
        <time>2021-06-17T09:47:47Z</time>
      </trkpt>
      <trkpt lat="46.32259" lon="-1.30667">
        <ele>3.2</ele>
        <time>2021-06-17T09:47:48Z</time>
      </trkpt>
      <trkpt lat="46.3226" lon="-1.30667">
        <ele>3.2</ele>
        <time>2021-06-17T09:47:49Z</time>
      </trkpt>
      <trkpt lat="46.32261" lon="-1.30666">
        <ele>3.2</ele>
        <time>2021-06-17T09:47:50Z</time>
      </trkpt>
      <trkpt lat="46.32262" lon="-1.30665">
        <ele>3.2</ele>
        <time>2021-06-17T09:47:51Z</time>
      </trkpt>
      <trkpt lat="46.32263" lon="-1.30665">
        <ele>3.1</ele>
        <time>2021-06-17T09:47:52Z</time>
      </trkpt>
      <trkpt lat="46.32264" lon="-1.30664">
        <ele>3.1</ele>
        <time>2021-06-17T09:47:53Z</time>
      </trkpt>
      <trkpt lat="46.32264" lon="-1.30664">
        <ele>3.1</ele>
        <time>2021-06-17T09:47:54Z</time>
      </trkpt>
      <trkpt lat="46.32265" lon="-1.30663">
        <ele>3.1</ele>
        <time>2021-06-17T09:47:55Z</time>
      </trkpt>
      <trkpt lat="46.32265" lon="-1.30663">
        <ele>3.1</ele>
        <time>2021-06-17T09:47:56Z</time>
      </trkpt>
      <trkpt lat="46.32266" lon="-1.30663">
        <ele>3.1</ele>
        <time>2021-06-17T09:47:57Z</time>
      </trkpt>
      <trkpt lat="46.32266" lon="-1.30662">
        <ele>3.1</ele>
        <time>2021-06-17T09:47:58Z</time>
      </trkpt>
      <trkpt lat="46.32266" lon="-1.30662">
        <ele>3.1</ele>
        <time>2021-06-17T09:47:59Z</time>
      </trkpt>
      <trkpt lat="46.32266" lon="-1.30662">
        <ele>3.1</ele>
        <time>2021-06-17T09:48:00Z</time>
      </trkpt>
      <trkpt lat="46.32266" lon="-1.30662">
        <ele>3.1</ele>
        <time>2021-06-17T09:48:01Z</time>
      </trkpt>
      <trkpt lat="46.32266" lon="-1.30662">
        <ele>3.1</ele>
        <time>2021-06-17T09:48:02Z</time>
      </trkpt>
      <trkpt lat="46.32266" lon="-1.30662">
        <ele>3.1</ele>
        <time>2021-06-17T09:48:03Z</time>
      </trkpt>
      <trkpt lat="46.32266" lon="-1.30662">
        <ele>3.1</ele>
        <time>2021-06-17T09:48:04Z</time>
      </trkpt>
      <trkpt lat="46.32266" lon="-1.30662">
        <ele>3.1</ele>
        <time>2021-06-17T09:48:05Z</time>
      </trkpt>
      <trkpt lat="46.32266" lon="-1.30662">
        <ele>3.1</ele>
        <time>2021-06-17T09:48:06Z</time>
      </trkpt>
      <trkpt lat="46.32266" lon="-1.30662">
        <ele>3.1</ele>
        <time>2021-06-17T09:48:07Z</time>
      </trkpt>
      <trkpt lat="46.32266" lon="-1.30662">
        <ele>3.1</ele>
        <time>2021-06-17T09:48:08Z</time>
      </trkpt>
      <trkpt lat="46.32266" lon="-1.30662">
        <ele>3.1</ele>
        <time>2021-06-17T09:48:09Z</time>
      </trkpt>
      <trkpt lat="46.32266" lon="-1.30662">
        <ele>3.1</ele>
        <time>2021-06-17T09:48:10Z</time>
      </trkpt>
      <trkpt lat="46.32266" lon="-1.30662">
        <ele>3.1</ele>
        <time>2021-06-17T09:48:11Z</time>
      </trkpt>
      <trkpt lat="46.32266" lon="-1.30662">
        <ele>3.1</ele>
        <time>2021-06-17T09:48:12Z</time>
      </trkpt>
      <trkpt lat="46.32266" lon="-1.30662">
        <ele>3.1</ele>
        <time>2021-06-17T09:48:13Z</time>
      </trkpt>
      <trkpt lat="46.32266" lon="-1.30662">
        <ele>3.1</ele>
        <time>2021-06-17T09:48:14Z</time>
      </trkpt>
      <trkpt lat="46.32266" lon="-1.30662">
        <ele>3.1</ele>
        <time>2021-06-17T09:48:15Z</time>
      </trkpt>
      <trkpt lat="46.32266" lon="-1.30662">
        <ele>3.1</ele>
        <time>2021-06-17T09:48:16Z</time>
      </trkpt>
      <trkpt lat="46.32265" lon="-1.30662">
        <ele>3.1</ele>
        <time>2021-06-17T09:48:17Z</time>
      </trkpt>
      <trkpt lat="46.32265" lon="-1.30662">
        <ele>3.1</ele>
        <time>2021-06-17T09:48:18Z</time>
      </trkpt>
      <trkpt lat="46.32265" lon="-1.30662">
        <ele>3.1</ele>
        <time>2021-06-17T09:48:19Z</time>
      </trkpt>
      <trkpt lat="46.32265" lon="-1.30662">
        <ele>3.1</ele>
        <time>2021-06-17T09:48:20Z</time>
      </trkpt>
      <trkpt lat="46.32265" lon="-1.30662">
        <ele>3.1</ele>
        <time>2021-06-17T09:48:21Z</time>
      </trkpt>
      <trkpt lat="46.32265" lon="-1.30662">
        <ele>3.1</ele>
        <time>2021-06-17T09:48:22Z</time>
      </trkpt>
      <trkpt lat="46.32264" lon="-1.30663">
        <ele>3.1</ele>
        <time>2021-06-17T09:48:23Z</time>
      </trkpt>
      <trkpt lat="46.32264" lon="-1.30663">
        <ele>3.1</ele>
        <time>2021-06-17T09:48:24Z</time>
      </trkpt>
      <trkpt lat="46.32263" lon="-1.30664">
        <ele>3.1</ele>
        <time>2021-06-17T09:48:25Z</time>
      </trkpt>
      <trkpt lat="46.32262" lon="-1.30665">
        <ele>3</ele>
        <time>2021-06-17T09:48:26Z</time>
      </trkpt>
      <trkpt lat="46.32261" lon="-1.30666">
        <ele>3</ele>
        <time>2021-06-17T09:48:27Z</time>
      </trkpt>
      <trkpt lat="46.3226" lon="-1.30667">
        <ele>3</ele>
        <time>2021-06-17T09:48:28Z</time>
      </trkpt>
      <trkpt lat="46.32259" lon="-1.30669">
        <ele>3</ele>
        <time>2021-06-17T09:48:29Z</time>
      </trkpt>
      <trkpt lat="46.32258" lon="-1.30671">
        <ele>3</ele>
        <time>2021-06-17T09:48:30Z</time>
      </trkpt>
      <trkpt lat="46.32257" lon="-1.30673">
        <ele>3</ele>
        <time>2021-06-17T09:48:31Z</time>
      </trkpt>
      <trkpt lat="46.32257" lon="-1.30675">
        <ele>2.9</ele>
        <time>2021-06-17T09:48:32Z</time>
      </trkpt>
      <trkpt lat="46.32256" lon="-1.30677">
        <ele>2.9</ele>
        <time>2021-06-17T09:48:33Z</time>
      </trkpt>
      <trkpt lat="46.32255" lon="-1.30679">
        <ele>2.9</ele>
        <time>2021-06-17T09:48:34Z</time>
      </trkpt>
      <trkpt lat="46.32255" lon="-1.30681">
        <ele>2.9</ele>
        <time>2021-06-17T09:48:35Z</time>
      </trkpt>
      <trkpt lat="46.32254" lon="-1.30683">
        <ele>3</ele>
        <time>2021-06-17T09:48:36Z</time>
      </trkpt>
      <trkpt lat="46.32254" lon="-1.30684">
        <ele>3</ele>
        <time>2021-06-17T09:48:37Z</time>
      </trkpt>
      <trkpt lat="46.32253" lon="-1.30686">
        <ele>3</ele>
        <time>2021-06-17T09:48:38Z</time>
      </trkpt>
      <trkpt lat="46.32253" lon="-1.30687">
        <ele>3</ele>
        <time>2021-06-17T09:48:39Z</time>
      </trkpt>
      <trkpt lat="46.32252" lon="-1.30688">
        <ele>3</ele>
        <time>2021-06-17T09:48:40Z</time>
      </trkpt>
      <trkpt lat="46.32252" lon="-1.30689">
        <ele>3</ele>
        <time>2021-06-17T09:48:41Z</time>
      </trkpt>
      <trkpt lat="46.32251" lon="-1.30691">
        <ele>3.1</ele>
        <time>2021-06-17T09:48:42Z</time>
      </trkpt>
      <trkpt lat="46.32251" lon="-1.30692">
        <ele>3.1</ele>
        <time>2021-06-17T09:48:43Z</time>
      </trkpt>
      <trkpt lat="46.3225" lon="-1.30693">
        <ele>3.1</ele>
        <time>2021-06-17T09:48:44Z</time>
      </trkpt>
      <trkpt lat="46.32249" lon="-1.30695">
        <ele>3.1</ele>
        <time>2021-06-17T09:48:45Z</time>
      </trkpt>
      <trkpt lat="46.32249" lon="-1.30696">
        <ele>3.1</ele>
        <time>2021-06-17T09:48:46Z</time>
      </trkpt>
      <trkpt lat="46.32248" lon="-1.30698">
        <ele>3.1</ele>
        <time>2021-06-17T09:48:47Z</time>
      </trkpt>
      <trkpt lat="46.32247" lon="-1.307">
        <ele>3.2</ele>
        <time>2021-06-17T09:48:48Z</time>
      </trkpt>
      <trkpt lat="46.32246" lon="-1.30701">
        <ele>3.2</ele>
        <time>2021-06-17T09:48:49Z</time>
      </trkpt>
      <trkpt lat="46.32246" lon="-1.30703">
        <ele>3.2</ele>
        <time>2021-06-17T09:48:50Z</time>
      </trkpt>
      <trkpt lat="46.32245" lon="-1.30705">
        <ele>3.2</ele>
        <time>2021-06-17T09:48:51Z</time>
      </trkpt>
      <trkpt lat="46.32245" lon="-1.30706">
        <ele>3.2</ele>
        <time>2021-06-17T09:48:52Z</time>
      </trkpt>
      <trkpt lat="46.32244" lon="-1.30708">
        <ele>3.2</ele>
        <time>2021-06-17T09:48:53Z</time>
      </trkpt>
      <trkpt lat="46.32244" lon="-1.30709">
        <ele>3.3</ele>
        <time>2021-06-17T09:48:54Z</time>
      </trkpt>
      <trkpt lat="46.32243" lon="-1.30711">
        <ele>3.3</ele>
        <time>2021-06-17T09:48:55Z</time>
      </trkpt>
      <trkpt lat="46.32243" lon="-1.30712">
        <ele>3.3</ele>
        <time>2021-06-17T09:48:56Z</time>
      </trkpt>
      <trkpt lat="46.32242" lon="-1.30714">
        <ele>3.3</ele>
        <time>2021-06-17T09:48:57Z</time>
      </trkpt>
      <trkpt lat="46.32242" lon="-1.30715">
        <ele>3.3</ele>
        <time>2021-06-17T09:48:58Z</time>
      </trkpt>
      <trkpt lat="46.32241" lon="-1.30717">
        <ele>3.3</ele>
        <time>2021-06-17T09:48:59Z</time>
      </trkpt>
      <trkpt lat="46.3224" lon="-1.30718">
        <ele>3.4</ele>
        <time>2021-06-17T09:49:00Z</time>
      </trkpt>
      <trkpt lat="46.3224" lon="-1.3072">
        <ele>3.4</ele>
        <time>2021-06-17T09:49:01Z</time>
      </trkpt>
      <trkpt lat="46.32239" lon="-1.30721">
        <ele>3.4</ele>
        <time>2021-06-17T09:49:02Z</time>
      </trkpt>
      <trkpt lat="46.32238" lon="-1.30723">
        <ele>3.4</ele>
        <time>2021-06-17T09:49:03Z</time>
      </trkpt>
      <trkpt lat="46.32237" lon="-1.30724">
        <ele>3.4</ele>
        <time>2021-06-17T09:49:04Z</time>
      </trkpt>
      <trkpt lat="46.32236" lon="-1.30726">
        <ele>3.5</ele>
        <time>2021-06-17T09:49:05Z</time>
      </trkpt>
      <trkpt lat="46.32236" lon="-1.30728">
        <ele>3.5</ele>
        <time>2021-06-17T09:49:06Z</time>
      </trkpt>
      <trkpt lat="46.32235" lon="-1.30729">
        <ele>3.6</ele>
        <time>2021-06-17T09:49:07Z</time>
      </trkpt>
      <trkpt lat="46.32234" lon="-1.30731">
        <ele>3.7</ele>
        <time>2021-06-17T09:49:08Z</time>
      </trkpt>
      <trkpt lat="46.32233" lon="-1.30732">
        <ele>3.8</ele>
        <time>2021-06-17T09:49:09Z</time>
      </trkpt>
      <trkpt lat="46.32233" lon="-1.30734">
        <ele>3.9</ele>
        <time>2021-06-17T09:49:10Z</time>
      </trkpt>
      <trkpt lat="46.32232" lon="-1.30735">
        <ele>4</ele>
        <time>2021-06-17T09:49:11Z</time>
      </trkpt>
      <trkpt lat="46.32232" lon="-1.30737">
        <ele>4.1</ele>
        <time>2021-06-17T09:49:12Z</time>
      </trkpt>
      <trkpt lat="46.32232" lon="-1.30738">
        <ele>4.2</ele>
        <time>2021-06-17T09:49:13Z</time>
      </trkpt>
      <trkpt lat="46.32232" lon="-1.3074">
        <ele>4.3</ele>
        <time>2021-06-17T09:49:14Z</time>
      </trkpt>
      <trkpt lat="46.32232" lon="-1.30741">
        <ele>4.4</ele>
        <time>2021-06-17T09:49:15Z</time>
      </trkpt>
      <trkpt lat="46.32232" lon="-1.30743">
        <ele>4.5</ele>
        <time>2021-06-17T09:49:16Z</time>
      </trkpt>
      <trkpt lat="46.32233" lon="-1.30744">
        <ele>4.6</ele>
        <time>2021-06-17T09:49:17Z</time>
      </trkpt>
      <trkpt lat="46.32234" lon="-1.30746">
        <ele>4.7</ele>
        <time>2021-06-17T09:49:18Z</time>
      </trkpt>
      <trkpt lat="46.32235" lon="-1.30747">
        <ele>4.8</ele>
        <time>2021-06-17T09:49:19Z</time>
      </trkpt>
      <trkpt lat="46.32235" lon="-1.30749">
        <ele>4.9</ele>
        <time>2021-06-17T09:49:20Z</time>
      </trkpt>
      <trkpt lat="46.32236" lon="-1.30751">
        <ele>5</ele>
        <time>2021-06-17T09:49:21Z</time>
      </trkpt>
      <trkpt lat="46.32237" lon="-1.30753">
        <ele>5</ele>
        <time>2021-06-17T09:49:22Z</time>
      </trkpt>
      <trkpt lat="46.32238" lon="-1.30754">
        <ele>5</ele>
        <time>2021-06-17T09:49:23Z</time>
      </trkpt>
      <trkpt lat="46.32239" lon="-1.30756">
        <ele>5</ele>
        <time>2021-06-17T09:49:24Z</time>
      </trkpt>
      <trkpt lat="46.32239" lon="-1.30757">
        <ele>5</ele>
        <time>2021-06-17T09:49:25Z</time>
      </trkpt>
      <trkpt lat="46.3224" lon="-1.30758">
        <ele>5</ele>
        <time>2021-06-17T09:49:26Z</time>
      </trkpt>
      <trkpt lat="46.32241" lon="-1.3076">
        <ele>5</ele>
        <time>2021-06-17T09:49:27Z</time>
      </trkpt>
      <trkpt lat="46.32242" lon="-1.30761">
        <ele>5</ele>
        <time>2021-06-17T09:49:28Z</time>
      </trkpt>
      <trkpt lat="46.32242" lon="-1.30762">
        <ele>5</ele>
        <time>2021-06-17T09:49:29Z</time>
      </trkpt>
      <trkpt lat="46.32243" lon="-1.30763">
        <ele>5</ele>
        <time>2021-06-17T09:49:30Z</time>
      </trkpt>
      <trkpt lat="46.32243" lon="-1.30764">
        <ele>5</ele>
        <time>2021-06-17T09:49:31Z</time>
      </trkpt>
      <trkpt lat="46.32244" lon="-1.30765">
        <ele>5</ele>
        <time>2021-06-17T09:49:32Z</time>
      </trkpt>
      <trkpt lat="46.32245" lon="-1.30767">
        <ele>5</ele>
        <time>2021-06-17T09:49:33Z</time>
      </trkpt>
      <trkpt lat="46.32245" lon="-1.30768">
        <ele>5</ele>
        <time>2021-06-17T09:49:34Z</time>
      </trkpt>
      <trkpt lat="46.32246" lon="-1.30769">
        <ele>5</ele>
        <time>2021-06-17T09:49:35Z</time>
      </trkpt>
      <trkpt lat="46.32246" lon="-1.3077">
        <ele>5</ele>
        <time>2021-06-17T09:49:36Z</time>
      </trkpt>
      <trkpt lat="46.32247" lon="-1.3077">
        <ele>5</ele>
        <time>2021-06-17T09:49:37Z</time>
      </trkpt>
      <trkpt lat="46.32247" lon="-1.30771">
        <ele>5</ele>
        <time>2021-06-17T09:49:38Z</time>
      </trkpt>
      <trkpt lat="46.32247" lon="-1.30771">
        <ele>5</ele>
        <time>2021-06-17T09:49:39Z</time>
      </trkpt>
      <trkpt lat="46.32248" lon="-1.30771">
        <ele>5</ele>
        <time>2021-06-17T09:49:40Z</time>
      </trkpt>
      <trkpt lat="46.32248" lon="-1.30771">
        <ele>5</ele>
        <time>2021-06-17T09:49:41Z</time>
      </trkpt>
      <trkpt lat="46.32249" lon="-1.30772">
        <ele>5</ele>
        <time>2021-06-17T09:49:42Z</time>
      </trkpt>
      <trkpt lat="46.32249" lon="-1.30773">
        <ele>5</ele>
        <time>2021-06-17T09:49:43Z</time>
      </trkpt>
      <trkpt lat="46.32249" lon="-1.30774">
        <ele>5</ele>
        <time>2021-06-17T09:49:44Z</time>
      </trkpt>
      <trkpt lat="46.3225" lon="-1.30776">
        <ele>5</ele>
        <time>2021-06-17T09:49:45Z</time>
      </trkpt>
      <trkpt lat="46.3225" lon="-1.30777">
        <ele>5</ele>
        <time>2021-06-17T09:49:46Z</time>
      </trkpt>
      <trkpt lat="46.32251" lon="-1.30779">
        <ele>5</ele>
        <time>2021-06-17T09:49:47Z</time>
      </trkpt>
      <trkpt lat="46.32251" lon="-1.3078">
        <ele>5</ele>
        <time>2021-06-17T09:49:48Z</time>
      </trkpt>
      <trkpt lat="46.32252" lon="-1.30782">
        <ele>5</ele>
        <time>2021-06-17T09:49:49Z</time>
      </trkpt>
      <trkpt lat="46.32253" lon="-1.30783">
        <ele>5</ele>
        <time>2021-06-17T09:49:50Z</time>
      </trkpt>
      <trkpt lat="46.32254" lon="-1.30784">
        <ele>5</ele>
        <time>2021-06-17T09:49:51Z</time>
      </trkpt>
      <trkpt lat="46.32254" lon="-1.30785">
        <ele>5</ele>
        <time>2021-06-17T09:49:52Z</time>
      </trkpt>
      <trkpt lat="46.32255" lon="-1.30786">
        <ele>5</ele>
        <time>2021-06-17T09:49:53Z</time>
      </trkpt>
      <trkpt lat="46.32256" lon="-1.30787">
        <ele>5</ele>
        <time>2021-06-17T09:49:54Z</time>
      </trkpt>
      <trkpt lat="46.32257" lon="-1.30788">
        <ele>5.1</ele>
        <time>2021-06-17T09:49:55Z</time>
      </trkpt>
      <trkpt lat="46.32258" lon="-1.30789">
        <ele>5.1</ele>
        <time>2021-06-17T09:49:56Z</time>
      </trkpt>
      <trkpt lat="46.32259" lon="-1.3079">
        <ele>5.1</ele>
        <time>2021-06-17T09:49:57Z</time>
      </trkpt>
      <trkpt lat="46.3226" lon="-1.30791">
        <ele>5.1</ele>
        <time>2021-06-17T09:49:58Z</time>
      </trkpt>
      <trkpt lat="46.32261" lon="-1.30792">
        <ele>5.1</ele>
        <time>2021-06-17T09:49:59Z</time>
      </trkpt>
      <trkpt lat="46.32262" lon="-1.30792">
        <ele>5.1</ele>
        <time>2021-06-17T09:50:00Z</time>
      </trkpt>
      <trkpt lat="46.32263" lon="-1.30793">
        <ele>5.1</ele>
        <time>2021-06-17T09:50:01Z</time>
      </trkpt>
      <trkpt lat="46.32264" lon="-1.30794">
        <ele>5.1</ele>
        <time>2021-06-17T09:50:02Z</time>
      </trkpt>
      <trkpt lat="46.32265" lon="-1.30795">
        <ele>5.1</ele>
        <time>2021-06-17T09:50:03Z</time>
      </trkpt>
      <trkpt lat="46.32266" lon="-1.30795">
        <ele>5.1</ele>
        <time>2021-06-17T09:50:04Z</time>
      </trkpt>
      <trkpt lat="46.32266" lon="-1.30795">
        <ele>5.1</ele>
        <time>2021-06-17T09:50:05Z</time>
      </trkpt>
      <trkpt lat="46.32267" lon="-1.30796">
        <ele>5.1</ele>
        <time>2021-06-17T09:50:06Z</time>
      </trkpt>
      <trkpt lat="46.32267" lon="-1.30796">
        <ele>5.1</ele>
        <time>2021-06-17T09:50:07Z</time>
      </trkpt>
      <trkpt lat="46.32267" lon="-1.30796">
        <ele>5.1</ele>
        <time>2021-06-17T09:50:08Z</time>
      </trkpt>
      <trkpt lat="46.32267" lon="-1.30795">
        <ele>5.1</ele>
        <time>2021-06-17T09:50:09Z</time>
      </trkpt>
      <trkpt lat="46.32267" lon="-1.30795">
        <ele>5.1</ele>
        <time>2021-06-17T09:50:10Z</time>
      </trkpt>
      <trkpt lat="46.32267" lon="-1.30795">
        <ele>5.1</ele>
        <time>2021-06-17T09:50:11Z</time>
      </trkpt>
      <trkpt lat="46.32268" lon="-1.30796">
        <ele>5.1</ele>
        <time>2021-06-17T09:50:12Z</time>
      </trkpt>
      <trkpt lat="46.32268" lon="-1.30796">
        <ele>5.1</ele>
        <time>2021-06-17T09:50:13Z</time>
      </trkpt>
      <trkpt lat="46.32269" lon="-1.30796">
        <ele>5.1</ele>
        <time>2021-06-17T09:50:14Z</time>
      </trkpt>
      <trkpt lat="46.3227" lon="-1.30797">
        <ele>5.1</ele>
        <time>2021-06-17T09:50:15Z</time>
      </trkpt>
      <trkpt lat="46.32271" lon="-1.30798">
        <ele>5.1</ele>
        <time>2021-06-17T09:50:16Z</time>
      </trkpt>
      <trkpt lat="46.32272" lon="-1.30799">
        <ele>5.1</ele>
        <time>2021-06-17T09:50:17Z</time>
      </trkpt>
      <trkpt lat="46.32273" lon="-1.308">
        <ele>5.1</ele>
        <time>2021-06-17T09:50:18Z</time>
      </trkpt>
      <trkpt lat="46.32274" lon="-1.30801">
        <ele>5.1</ele>
        <time>2021-06-17T09:50:19Z</time>
      </trkpt>
      <trkpt lat="46.32276" lon="-1.30802">
        <ele>5.1</ele>
        <time>2021-06-17T09:50:20Z</time>
      </trkpt>
      <trkpt lat="46.32277" lon="-1.30803">
        <ele>5.1</ele>
        <time>2021-06-17T09:50:21Z</time>
      </trkpt>
      <trkpt lat="46.32278" lon="-1.30804">
        <ele>5.1</ele>
        <time>2021-06-17T09:50:22Z</time>
      </trkpt>
      <trkpt lat="46.32279" lon="-1.30805">
        <ele>5.1</ele>
        <time>2021-06-17T09:50:23Z</time>
      </trkpt>
      <trkpt lat="46.3228" lon="-1.30806">
        <ele>5.1</ele>
        <time>2021-06-17T09:50:24Z</time>
      </trkpt>
      <trkpt lat="46.32281" lon="-1.30807">
        <ele>5.1</ele>
        <time>2021-06-17T09:50:25Z</time>
      </trkpt>
      <trkpt lat="46.32282" lon="-1.30807">
        <ele>5.1</ele>
        <time>2021-06-17T09:50:26Z</time>
      </trkpt>
      <trkpt lat="46.32283" lon="-1.30807">
        <ele>4.8</ele>
        <time>2021-06-17T09:50:27Z</time>
      </trkpt>
      <trkpt lat="46.32284" lon="-1.30807">
        <ele>4.7</ele>
        <time>2021-06-17T09:50:28Z</time>
      </trkpt>
      <trkpt lat="46.32285" lon="-1.30807">
        <ele>4.7</ele>
        <time>2021-06-17T09:50:29Z</time>
      </trkpt>
      <trkpt lat="46.32286" lon="-1.30806">
        <ele>4.6</ele>
        <time>2021-06-17T09:50:30Z</time>
      </trkpt>
      <trkpt lat="46.32286" lon="-1.30805">
        <ele>4.5</ele>
        <time>2021-06-17T09:50:31Z</time>
      </trkpt>
      <trkpt lat="46.32287" lon="-1.30804">
        <ele>4.4</ele>
        <time>2021-06-17T09:50:32Z</time>
      </trkpt>
      <trkpt lat="46.32288" lon="-1.30803">
        <ele>4.4</ele>
        <time>2021-06-17T09:50:33Z</time>
      </trkpt>
      <trkpt lat="46.32288" lon="-1.30802">
        <ele>4.3</ele>
        <time>2021-06-17T09:50:34Z</time>
      </trkpt>
      <trkpt lat="46.32289" lon="-1.308">
        <ele>4.2</ele>
        <time>2021-06-17T09:50:35Z</time>
      </trkpt>
      <trkpt lat="46.3229" lon="-1.30799">
        <ele>4.1</ele>
        <time>2021-06-17T09:50:36Z</time>
      </trkpt>
      <trkpt lat="46.3229" lon="-1.30798">
        <ele>4</ele>
        <time>2021-06-17T09:50:37Z</time>
      </trkpt>
      <trkpt lat="46.32291" lon="-1.30796">
        <ele>4</ele>
        <time>2021-06-17T09:50:38Z</time>
      </trkpt>
      <trkpt lat="46.32292" lon="-1.30795">
        <ele>3.9</ele>
        <time>2021-06-17T09:50:39Z</time>
      </trkpt>
      <trkpt lat="46.32292" lon="-1.30794">
        <ele>3.8</ele>
        <time>2021-06-17T09:50:40Z</time>
      </trkpt>
      <trkpt lat="46.32293" lon="-1.30793">
        <ele>3.7</ele>
        <time>2021-06-17T09:50:41Z</time>
      </trkpt>
      <trkpt lat="46.32294" lon="-1.30792">
        <ele>3.7</ele>
        <time>2021-06-17T09:50:42Z</time>
      </trkpt>
      <trkpt lat="46.32294" lon="-1.30791">
        <ele>3.6</ele>
        <time>2021-06-17T09:50:43Z</time>
      </trkpt>
      <trkpt lat="46.32295" lon="-1.3079">
        <ele>3.5</ele>
        <time>2021-06-17T09:50:44Z</time>
      </trkpt>
      <trkpt lat="46.32296" lon="-1.30789">
        <ele>3.5</ele>
        <time>2021-06-17T09:50:45Z</time>
      </trkpt>
      <trkpt lat="46.32296" lon="-1.30788">
        <ele>3.4</ele>
        <time>2021-06-17T09:50:46Z</time>
      </trkpt>
      <trkpt lat="46.32297" lon="-1.30786">
        <ele>3.4</ele>
        <time>2021-06-17T09:50:47Z</time>
      </trkpt>
      <trkpt lat="46.32297" lon="-1.30785">
        <ele>3.3</ele>
        <time>2021-06-17T09:50:48Z</time>
      </trkpt>
      <trkpt lat="46.32298" lon="-1.30784">
        <ele>3.3</ele>
        <time>2021-06-17T09:50:49Z</time>
      </trkpt>
      <trkpt lat="46.32298" lon="-1.30783">
        <ele>3.2</ele>
        <time>2021-06-17T09:50:50Z</time>
      </trkpt>
      <trkpt lat="46.32299" lon="-1.30781">
        <ele>3.1</ele>
        <time>2021-06-17T09:50:51Z</time>
      </trkpt>
      <trkpt lat="46.32299" lon="-1.30779">
        <ele>3.1</ele>
        <time>2021-06-17T09:50:52Z</time>
      </trkpt>
      <trkpt lat="46.32299" lon="-1.30778">
        <ele>3</ele>
        <time>2021-06-17T09:50:53Z</time>
      </trkpt>
      <trkpt lat="46.323" lon="-1.30776">
        <ele>3</ele>
        <time>2021-06-17T09:50:54Z</time>
      </trkpt>
      <trkpt lat="46.323" lon="-1.30774">
        <ele>2.9</ele>
        <time>2021-06-17T09:50:55Z</time>
      </trkpt>
      <trkpt lat="46.32301" lon="-1.30773">
        <ele>2.8</ele>
        <time>2021-06-17T09:50:56Z</time>
      </trkpt>
      <trkpt lat="46.32301" lon="-1.30771">
        <ele>2.8</ele>
        <time>2021-06-17T09:50:57Z</time>
      </trkpt>
      <trkpt lat="46.32301" lon="-1.30769">
        <ele>2.7</ele>
        <time>2021-06-17T09:50:58Z</time>
      </trkpt>
      <trkpt lat="46.32302" lon="-1.30767">
        <ele>2.6</ele>
        <time>2021-06-17T09:50:59Z</time>
      </trkpt>
      <trkpt lat="46.32302" lon="-1.30765">
        <ele>2.6</ele>
        <time>2021-06-17T09:51:00Z</time>
      </trkpt>
      <trkpt lat="46.32303" lon="-1.30763">
        <ele>2.5</ele>
        <time>2021-06-17T09:51:01Z</time>
      </trkpt>
      <trkpt lat="46.32303" lon="-1.30762">
        <ele>2.4</ele>
        <time>2021-06-17T09:51:02Z</time>
      </trkpt>
      <trkpt lat="46.32304" lon="-1.3076">
        <ele>2.4</ele>
        <time>2021-06-17T09:51:03Z</time>
      </trkpt>
      <trkpt lat="46.32305" lon="-1.30758">
        <ele>2.3</ele>
        <time>2021-06-17T09:51:04Z</time>
      </trkpt>
      <trkpt lat="46.32305" lon="-1.30756">
        <ele>2.2</ele>
        <time>2021-06-17T09:51:05Z</time>
      </trkpt>
      <trkpt lat="46.32306" lon="-1.30755">
        <ele>2.2</ele>
        <time>2021-06-17T09:51:06Z</time>
      </trkpt>
      <trkpt lat="46.32307" lon="-1.30753">
        <ele>2.1</ele>
        <time>2021-06-17T09:51:07Z</time>
      </trkpt>
      <trkpt lat="46.32307" lon="-1.30751">
        <ele>2</ele>
        <time>2021-06-17T09:51:08Z</time>
      </trkpt>
      <trkpt lat="46.32308" lon="-1.3075">
        <ele>2</ele>
        <time>2021-06-17T09:51:09Z</time>
      </trkpt>
      <trkpt lat="46.32309" lon="-1.30748">
        <ele>1.9</ele>
        <time>2021-06-17T09:51:10Z</time>
      </trkpt>
      <trkpt lat="46.32309" lon="-1.30746">
        <ele>1.9</ele>
        <time>2021-06-17T09:51:11Z</time>
      </trkpt>
      <trkpt lat="46.3231" lon="-1.30745">
        <ele>1.8</ele>
        <time>2021-06-17T09:51:12Z</time>
      </trkpt>
      <trkpt lat="46.3231" lon="-1.30743">
        <ele>1.8</ele>
        <time>2021-06-17T09:51:13Z</time>
      </trkpt>
      <trkpt lat="46.32311" lon="-1.30742">
        <ele>1.7</ele>
        <time>2021-06-17T09:51:14Z</time>
      </trkpt>
      <trkpt lat="46.32311" lon="-1.3074">
        <ele>1.7</ele>
        <time>2021-06-17T09:51:15Z</time>
      </trkpt>
      <trkpt lat="46.32312" lon="-1.30739">
        <ele>1.6</ele>
        <time>2021-06-17T09:51:16Z</time>
      </trkpt>
      <trkpt lat="46.32312" lon="-1.30738">
        <ele>1.6</ele>
        <time>2021-06-17T09:51:17Z</time>
      </trkpt>
      <trkpt lat="46.32312" lon="-1.30736">
        <ele>1.5</ele>
        <time>2021-06-17T09:51:18Z</time>
      </trkpt>
      <trkpt lat="46.32313" lon="-1.30735">
        <ele>1.5</ele>
        <time>2021-06-17T09:51:19Z</time>
      </trkpt>
      <trkpt lat="46.32313" lon="-1.30734">
        <ele>1.5</ele>
        <time>2021-06-17T09:51:20Z</time>
      </trkpt>
      <trkpt lat="46.32314" lon="-1.30733">
        <ele>1.4</ele>
        <time>2021-06-17T09:51:21Z</time>
      </trkpt>
      <trkpt lat="46.32314" lon="-1.30732">
        <ele>1.4</ele>
        <time>2021-06-17T09:51:22Z</time>
      </trkpt>
      <trkpt lat="46.32315" lon="-1.30731">
        <ele>1.4</ele>
        <time>2021-06-17T09:51:23Z</time>
      </trkpt>
      <trkpt lat="46.32316" lon="-1.3073">
        <ele>1.3</ele>
        <time>2021-06-17T09:51:24Z</time>
      </trkpt>
      <trkpt lat="46.32317" lon="-1.30729">
        <ele>1.3</ele>
        <time>2021-06-17T09:51:25Z</time>
      </trkpt>
      <trkpt lat="46.32317" lon="-1.30728">
        <ele>1.2</ele>
        <time>2021-06-17T09:51:26Z</time>
      </trkpt>
      <trkpt lat="46.32318" lon="-1.30727">
        <ele>1.2</ele>
        <time>2021-06-17T09:51:27Z</time>
      </trkpt>
      <trkpt lat="46.32319" lon="-1.30726">
        <ele>1.2</ele>
        <time>2021-06-17T09:51:28Z</time>
      </trkpt>
      <trkpt lat="46.3232" lon="-1.30726">
        <ele>1.1</ele>
        <time>2021-06-17T09:51:29Z</time>
      </trkpt>
      <trkpt lat="46.32321" lon="-1.30725">
        <ele>1.1</ele>
        <time>2021-06-17T09:51:30Z</time>
      </trkpt>
      <trkpt lat="46.32323" lon="-1.30724">
        <ele>1</ele>
        <time>2021-06-17T09:51:31Z</time>
      </trkpt>
      <trkpt lat="46.32324" lon="-1.30723">
        <ele>1</ele>
        <time>2021-06-17T09:51:32Z</time>
      </trkpt>
      <trkpt lat="46.32325" lon="-1.30723">
        <ele>0.9</ele>
        <time>2021-06-17T09:51:33Z</time>
      </trkpt>
      <trkpt lat="46.32326" lon="-1.30722">
        <ele>0.9</ele>
        <time>2021-06-17T09:51:34Z</time>
      </trkpt>
      <trkpt lat="46.32327" lon="-1.30721">
        <ele>0.9</ele>
        <time>2021-06-17T09:51:35Z</time>
      </trkpt>
      <trkpt lat="46.32328" lon="-1.3072">
        <ele>0.8</ele>
        <time>2021-06-17T09:51:36Z</time>
      </trkpt>
      <trkpt lat="46.32329" lon="-1.30719">
        <ele>0.8</ele>
        <time>2021-06-17T09:51:37Z</time>
      </trkpt>
      <trkpt lat="46.3233" lon="-1.30718">
        <ele>0.7</ele>
        <time>2021-06-17T09:51:38Z</time>
      </trkpt>
      <trkpt lat="46.32331" lon="-1.30718">
        <ele>0.7</ele>
        <time>2021-06-17T09:51:39Z</time>
      </trkpt>
      <trkpt lat="46.32332" lon="-1.30717">
        <ele>0.6</ele>
        <time>2021-06-17T09:51:40Z</time>
      </trkpt>
      <trkpt lat="46.32333" lon="-1.30716">
        <ele>0.6</ele>
        <time>2021-06-17T09:51:41Z</time>
      </trkpt>
      <trkpt lat="46.32334" lon="-1.30715">
        <ele>0.5</ele>
        <time>2021-06-17T09:51:42Z</time>
      </trkpt>
      <trkpt lat="46.32335" lon="-1.30714">
        <ele>0.5</ele>
        <time>2021-06-17T09:51:43Z</time>
      </trkpt>
      <trkpt lat="46.32336" lon="-1.30713">
        <ele>0.4</ele>
        <time>2021-06-17T09:51:44Z</time>
      </trkpt>
      <trkpt lat="46.32337" lon="-1.30713">
        <ele>0.4</ele>
        <time>2021-06-17T09:51:45Z</time>
      </trkpt>
      <trkpt lat="46.32338" lon="-1.30712">
        <ele>0.4</ele>
        <time>2021-06-17T09:51:46Z</time>
      </trkpt>
      <trkpt lat="46.32339" lon="-1.30711">
        <ele>0.3</ele>
        <time>2021-06-17T09:51:47Z</time>
      </trkpt>
      <trkpt lat="46.3234" lon="-1.30711">
        <ele>0.3</ele>
        <time>2021-06-17T09:51:48Z</time>
      </trkpt>
      <trkpt lat="46.32341" lon="-1.3071">
        <ele>0.1</ele>
        <time>2021-06-17T09:51:49Z</time>
      </trkpt>
      <trkpt lat="46.32342" lon="-1.3071">
        <ele>0.1</ele>
        <time>2021-06-17T09:51:50Z</time>
      </trkpt>
      <trkpt lat="46.32344" lon="-1.3071">
        <ele>0.1</ele>
        <time>2021-06-17T09:51:51Z</time>
      </trkpt>
      <trkpt lat="46.32345" lon="-1.30709">
        <ele>0.1</ele>
        <time>2021-06-17T09:51:52Z</time>
      </trkpt>
      <trkpt lat="46.32346" lon="-1.30709">
        <ele>0.1</ele>
        <time>2021-06-17T09:51:53Z</time>
      </trkpt>
      <trkpt lat="46.32347" lon="-1.30709">
        <ele>0.1</ele>
        <time>2021-06-17T09:51:54Z</time>
      </trkpt>
      <trkpt lat="46.32348" lon="-1.30709">
        <ele>0.1</ele>
        <time>2021-06-17T09:51:55Z</time>
      </trkpt>
      <trkpt lat="46.32349" lon="-1.30709">
        <ele>0.1</ele>
        <time>2021-06-17T09:51:56Z</time>
      </trkpt>
      <trkpt lat="46.3235" lon="-1.30709">
        <ele>0.1</ele>
        <time>2021-06-17T09:51:57Z</time>
      </trkpt>
      <trkpt lat="46.32351" lon="-1.3071">
        <ele>0.1</ele>
        <time>2021-06-17T09:51:58Z</time>
      </trkpt>
      <trkpt lat="46.32352" lon="-1.3071">
        <ele>0.2</ele>
        <time>2021-06-17T09:51:59Z</time>
      </trkpt>
      <trkpt lat="46.32354" lon="-1.30711">
        <ele>0.2</ele>
        <time>2021-06-17T09:52:00Z</time>
      </trkpt>
      <trkpt lat="46.32355" lon="-1.30711">
        <ele>0.2</ele>
        <time>2021-06-17T09:52:01Z</time>
      </trkpt>
      <trkpt lat="46.32356" lon="-1.30712">
        <ele>0.2</ele>
        <time>2021-06-17T09:52:02Z</time>
      </trkpt>
      <trkpt lat="46.32357" lon="-1.30712">
        <ele>0.2</ele>
        <time>2021-06-17T09:52:03Z</time>
      </trkpt>
      <trkpt lat="46.32358" lon="-1.30713">
        <ele>0.2</ele>
        <time>2021-06-17T09:52:04Z</time>
      </trkpt>
      <trkpt lat="46.32359" lon="-1.30713">
        <ele>0.2</ele>
        <time>2021-06-17T09:52:05Z</time>
      </trkpt>
      <trkpt lat="46.3236" lon="-1.30713">
        <ele>0.2</ele>
        <time>2021-06-17T09:52:06Z</time>
      </trkpt>
      <trkpt lat="46.32361" lon="-1.30713">
        <ele>0.2</ele>
        <time>2021-06-17T09:52:07Z</time>
      </trkpt>
      <trkpt lat="46.32361" lon="-1.30713">
        <ele>0.2</ele>
        <time>2021-06-17T09:52:08Z</time>
      </trkpt>
      <trkpt lat="46.32362" lon="-1.30713">
        <ele>0.2</ele>
        <time>2021-06-17T09:52:09Z</time>
      </trkpt>
      <trkpt lat="46.32363" lon="-1.30713">
        <ele>0.2</ele>
        <time>2021-06-17T09:52:10Z</time>
      </trkpt>
      <trkpt lat="46.32363" lon="-1.30714">
        <ele>0.2</ele>
        <time>2021-06-17T09:52:11Z</time>
      </trkpt>
      <trkpt lat="46.32364" lon="-1.30714">
        <ele>0.2</ele>
        <time>2021-06-17T09:52:12Z</time>
      </trkpt>
      <trkpt lat="46.32364" lon="-1.30714">
        <ele>0.2</ele>
        <time>2021-06-17T09:52:13Z</time>
      </trkpt>
      <trkpt lat="46.32365" lon="-1.30715">
        <ele>0.2</ele>
        <time>2021-06-17T09:52:14Z</time>
      </trkpt>
      <trkpt lat="46.32366" lon="-1.30715">
        <ele>0.2</ele>
        <time>2021-06-17T09:52:15Z</time>
      </trkpt>
      <trkpt lat="46.32367" lon="-1.30716">
        <ele>0.3</ele>
        <time>2021-06-17T09:52:16Z</time>
      </trkpt>
      <trkpt lat="46.32368" lon="-1.30717">
        <ele>0.3</ele>
        <time>2021-06-17T09:52:17Z</time>
      </trkpt>
      <trkpt lat="46.32369" lon="-1.30718">
        <ele>0.3</ele>
        <time>2021-06-17T09:52:18Z</time>
      </trkpt>
      <trkpt lat="46.3237" lon="-1.30718">
        <ele>0.3</ele>
        <time>2021-06-17T09:52:19Z</time>
      </trkpt>
      <trkpt lat="46.32371" lon="-1.30719">
        <ele>0.3</ele>
        <time>2021-06-17T09:52:20Z</time>
      </trkpt>
      <trkpt lat="46.32372" lon="-1.3072">
        <ele>0.3</ele>
        <time>2021-06-17T09:52:21Z</time>
      </trkpt>
      <trkpt lat="46.32373" lon="-1.30721">
        <ele>0.3</ele>
        <time>2021-06-17T09:52:22Z</time>
      </trkpt>
      <trkpt lat="46.32375" lon="-1.30722">
        <ele>0.3</ele>
        <time>2021-06-17T09:52:23Z</time>
      </trkpt>
      <trkpt lat="46.32376" lon="-1.30723">
        <ele>0.3</ele>
        <time>2021-06-17T09:52:24Z</time>
      </trkpt>
      <trkpt lat="46.32377" lon="-1.30724">
        <ele>0.4</ele>
        <time>2021-06-17T09:52:25Z</time>
      </trkpt>
      <trkpt lat="46.32378" lon="-1.30725">
        <ele>0.4</ele>
        <time>2021-06-17T09:52:26Z</time>
      </trkpt>
      <trkpt lat="46.32379" lon="-1.30726">
        <ele>0.4</ele>
        <time>2021-06-17T09:52:27Z</time>
      </trkpt>
      <trkpt lat="46.3238" lon="-1.30727">
        <ele>0.4</ele>
        <time>2021-06-17T09:52:28Z</time>
      </trkpt>
      <trkpt lat="46.32381" lon="-1.30728">
        <ele>0.4</ele>
        <time>2021-06-17T09:52:29Z</time>
      </trkpt>
      <trkpt lat="46.32382" lon="-1.30729">
        <ele>0.4</ele>
        <time>2021-06-17T09:52:30Z</time>
      </trkpt>
      <trkpt lat="46.32383" lon="-1.30729">
        <ele>0.4</ele>
        <time>2021-06-17T09:52:31Z</time>
      </trkpt>
      <trkpt lat="46.32384" lon="-1.3073">
        <ele>0.4</ele>
        <time>2021-06-17T09:52:32Z</time>
      </trkpt>
      <trkpt lat="46.32385" lon="-1.30731">
        <ele>0.4</ele>
        <time>2021-06-17T09:52:33Z</time>
      </trkpt>
      <trkpt lat="46.32385" lon="-1.30731">
        <ele>0.5</ele>
        <time>2021-06-17T09:52:34Z</time>
      </trkpt>
      <trkpt lat="46.32386" lon="-1.30731">
        <ele>0.5</ele>
        <time>2021-06-17T09:52:35Z</time>
      </trkpt>
      <trkpt lat="46.32387" lon="-1.30732">
        <ele>0.5</ele>
        <time>2021-06-17T09:52:36Z</time>
      </trkpt>
      <trkpt lat="46.32388" lon="-1.30732">
        <ele>0.5</ele>
        <time>2021-06-17T09:52:37Z</time>
      </trkpt>
      <trkpt lat="46.32389" lon="-1.30733">
        <ele>0.5</ele>
        <time>2021-06-17T09:52:38Z</time>
      </trkpt>
      <trkpt lat="46.3239" lon="-1.30734">
        <ele>0.5</ele>
        <time>2021-06-17T09:52:39Z</time>
      </trkpt>
      <trkpt lat="46.32391" lon="-1.30735">
        <ele>0.5</ele>
        <time>2021-06-17T09:52:40Z</time>
      </trkpt>
      <trkpt lat="46.32393" lon="-1.30736">
        <ele>0.5</ele>
        <time>2021-06-17T09:52:41Z</time>
      </trkpt>
      <trkpt lat="46.32394" lon="-1.30737">
        <ele>0.5</ele>
        <time>2021-06-17T09:52:42Z</time>
      </trkpt>
      <trkpt lat="46.32395" lon="-1.30738">
        <ele>0.5</ele>
        <time>2021-06-17T09:52:43Z</time>
      </trkpt>
      <trkpt lat="46.32396" lon="-1.3074">
        <ele>0.5</ele>
        <time>2021-06-17T09:52:44Z</time>
      </trkpt>
      <trkpt lat="46.32397" lon="-1.30741">
        <ele>0.6</ele>
        <time>2021-06-17T09:52:45Z</time>
      </trkpt>
      <trkpt lat="46.32398" lon="-1.30741">
        <ele>0.6</ele>
        <time>2021-06-17T09:52:46Z</time>
      </trkpt>
      <trkpt lat="46.32399" lon="-1.30742">
        <ele>0.6</ele>
        <time>2021-06-17T09:52:47Z</time>
      </trkpt>
      <trkpt lat="46.324" lon="-1.30743">
        <ele>0.6</ele>
        <time>2021-06-17T09:52:48Z</time>
      </trkpt>
      <trkpt lat="46.324" lon="-1.30743">
        <ele>0.6</ele>
        <time>2021-06-17T09:52:49Z</time>
      </trkpt>
      <trkpt lat="46.32401" lon="-1.30744">
        <ele>0.6</ele>
        <time>2021-06-17T09:52:50Z</time>
      </trkpt>
      <trkpt lat="46.32401" lon="-1.30744">
        <ele>0.6</ele>
        <time>2021-06-17T09:52:51Z</time>
      </trkpt>
      <trkpt lat="46.32402" lon="-1.30745">
        <ele>0.6</ele>
        <time>2021-06-17T09:52:52Z</time>
      </trkpt>
      <trkpt lat="46.32402" lon="-1.30745">
        <ele>0.6</ele>
        <time>2021-06-17T09:52:53Z</time>
      </trkpt>
      <trkpt lat="46.32402" lon="-1.30745">
        <ele>0.6</ele>
        <time>2021-06-17T09:52:54Z</time>
      </trkpt>
      <trkpt lat="46.32403" lon="-1.30746">
        <ele>0.6</ele>
        <time>2021-06-17T09:52:55Z</time>
      </trkpt>
      <trkpt lat="46.32404" lon="-1.30746">
        <ele>0.6</ele>
        <time>2021-06-17T09:52:56Z</time>
      </trkpt>
      <trkpt lat="46.32405" lon="-1.30746">
        <ele>0.6</ele>
        <time>2021-06-17T09:52:57Z</time>
      </trkpt>
      <trkpt lat="46.32406" lon="-1.30747">
        <ele>0.6</ele>
        <time>2021-06-17T09:52:58Z</time>
      </trkpt>
      <trkpt lat="46.32407" lon="-1.30748">
        <ele>0.6</ele>
        <time>2021-06-17T09:52:59Z</time>
      </trkpt>
      <trkpt lat="46.32408" lon="-1.30748">
        <ele>0.7</ele>
        <time>2021-06-17T09:53:00Z</time>
      </trkpt>
      <trkpt lat="46.32409" lon="-1.30749">
        <ele>0.7</ele>
        <time>2021-06-17T09:53:01Z</time>
      </trkpt>
      <trkpt lat="46.32411" lon="-1.3075">
        <ele>0.7</ele>
        <time>2021-06-17T09:53:02Z</time>
      </trkpt>
      <trkpt lat="46.32412" lon="-1.3075">
        <ele>0.7</ele>
        <time>2021-06-17T09:53:03Z</time>
      </trkpt>
      <trkpt lat="46.32413" lon="-1.30751">
        <ele>0.7</ele>
        <time>2021-06-17T09:53:04Z</time>
      </trkpt>
      <trkpt lat="46.32415" lon="-1.30752">
        <ele>0.7</ele>
        <time>2021-06-17T09:53:05Z</time>
      </trkpt>
      <trkpt lat="46.32416" lon="-1.30753">
        <ele>0.7</ele>
        <time>2021-06-17T09:53:06Z</time>
      </trkpt>
      <trkpt lat="46.32417" lon="-1.30753">
        <ele>0.7</ele>
        <time>2021-06-17T09:53:07Z</time>
      </trkpt>
      <trkpt lat="46.32419" lon="-1.30754">
        <ele>0.8</ele>
        <time>2021-06-17T09:53:08Z</time>
      </trkpt>
      <trkpt lat="46.3242" lon="-1.30755">
        <ele>0.8</ele>
        <time>2021-06-17T09:53:09Z</time>
      </trkpt>
      <trkpt lat="46.32421" lon="-1.30756">
        <ele>0.8</ele>
        <time>2021-06-17T09:53:10Z</time>
      </trkpt>
      <trkpt lat="46.32423" lon="-1.30757">
        <ele>0.8</ele>
        <time>2021-06-17T09:53:11Z</time>
      </trkpt>
      <trkpt lat="46.32424" lon="-1.30758">
        <ele>0.8</ele>
        <time>2021-06-17T09:53:12Z</time>
      </trkpt>
      <trkpt lat="46.32425" lon="-1.30759">
        <ele>0.8</ele>
        <time>2021-06-17T09:53:13Z</time>
      </trkpt>
      <trkpt lat="46.32426" lon="-1.3076">
        <ele>0.8</ele>
        <time>2021-06-17T09:53:14Z</time>
      </trkpt>
      <trkpt lat="46.32428" lon="-1.30761">
        <ele>0.8</ele>
        <time>2021-06-17T09:53:15Z</time>
      </trkpt>
      <trkpt lat="46.32429" lon="-1.30762">
        <ele>0.8</ele>
        <time>2021-06-17T09:53:16Z</time>
      </trkpt>
      <trkpt lat="46.3243" lon="-1.30763">
        <ele>0.8</ele>
        <time>2021-06-17T09:53:17Z</time>
      </trkpt>
      <trkpt lat="46.32431" lon="-1.30764">
        <ele>0.8</ele>
        <time>2021-06-17T09:53:18Z</time>
      </trkpt>
      <trkpt lat="46.32432" lon="-1.30764">
        <ele>0.8</ele>
        <time>2021-06-17T09:53:19Z</time>
      </trkpt>
      <trkpt lat="46.32434" lon="-1.30765">
        <ele>0.8</ele>
        <time>2021-06-17T09:53:20Z</time>
      </trkpt>
      <trkpt lat="46.32435" lon="-1.30766">
        <ele>0.8</ele>
        <time>2021-06-17T09:53:21Z</time>
      </trkpt>
      <trkpt lat="46.32436" lon="-1.30767">
        <ele>0.8</ele>
        <time>2021-06-17T09:53:22Z</time>
      </trkpt>
      <trkpt lat="46.32437" lon="-1.30768">
        <ele>0.9</ele>
        <time>2021-06-17T09:53:23Z</time>
      </trkpt>
      <trkpt lat="46.32438" lon="-1.30769">
        <ele>0.9</ele>
        <time>2021-06-17T09:53:24Z</time>
      </trkpt>
      <trkpt lat="46.32439" lon="-1.3077">
        <ele>0.9</ele>
        <time>2021-06-17T09:53:25Z</time>
      </trkpt>
      <trkpt lat="46.32441" lon="-1.30771">
        <ele>0.9</ele>
        <time>2021-06-17T09:53:26Z</time>
      </trkpt>
      <trkpt lat="46.32442" lon="-1.30772">
        <ele>0.9</ele>
        <time>2021-06-17T09:53:27Z</time>
      </trkpt>
      <trkpt lat="46.32443" lon="-1.30773">
        <ele>0.9</ele>
        <time>2021-06-17T09:53:28Z</time>
      </trkpt>
      <trkpt lat="46.32444" lon="-1.30773">
        <ele>0.9</ele>
        <time>2021-06-17T09:53:29Z</time>
      </trkpt>
      <trkpt lat="46.32445" lon="-1.30774">
        <ele>0.9</ele>
        <time>2021-06-17T09:53:30Z</time>
      </trkpt>
      <trkpt lat="46.32446" lon="-1.30775">
        <ele>0.9</ele>
        <time>2021-06-17T09:53:31Z</time>
      </trkpt>
      <trkpt lat="46.32447" lon="-1.30776">
        <ele>0.9</ele>
        <time>2021-06-17T09:53:32Z</time>
      </trkpt>
      <trkpt lat="46.32448" lon="-1.30777">
        <ele>0.9</ele>
        <time>2021-06-17T09:53:33Z</time>
      </trkpt>
      <trkpt lat="46.32449" lon="-1.30777">
        <ele>0.9</ele>
        <time>2021-06-17T09:53:34Z</time>
      </trkpt>
      <trkpt lat="46.3245" lon="-1.30778">
        <ele>0.9</ele>
        <time>2021-06-17T09:53:35Z</time>
      </trkpt>
      <trkpt lat="46.32451" lon="-1.30779">
        <ele>0.9</ele>
        <time>2021-06-17T09:53:36Z</time>
      </trkpt>
      <trkpt lat="46.32452" lon="-1.30779">
        <ele>1</ele>
        <time>2021-06-17T09:53:37Z</time>
      </trkpt>
      <trkpt lat="46.32453" lon="-1.3078">
        <ele>1</ele>
        <time>2021-06-17T09:53:38Z</time>
      </trkpt>
      <trkpt lat="46.32454" lon="-1.3078">
        <ele>1</ele>
        <time>2021-06-17T09:53:39Z</time>
      </trkpt>
      <trkpt lat="46.32454" lon="-1.30781">
        <ele>1</ele>
        <time>2021-06-17T09:53:40Z</time>
      </trkpt>
      <trkpt lat="46.32455" lon="-1.30781">
        <ele>1</ele>
        <time>2021-06-17T09:53:41Z</time>
      </trkpt>
      <trkpt lat="46.32456" lon="-1.30782">
        <ele>1</ele>
        <time>2021-06-17T09:53:42Z</time>
      </trkpt>
      <trkpt lat="46.32456" lon="-1.30782">
        <ele>1</ele>
        <time>2021-06-17T09:53:43Z</time>
      </trkpt>
      <trkpt lat="46.32457" lon="-1.30783">
        <ele>1</ele>
        <time>2021-06-17T09:53:44Z</time>
      </trkpt>
      <trkpt lat="46.32458" lon="-1.30783">
        <ele>1</ele>
        <time>2021-06-17T09:53:45Z</time>
      </trkpt>
      <trkpt lat="46.32459" lon="-1.30784">
        <ele>1.1</ele>
        <time>2021-06-17T09:53:46Z</time>
      </trkpt>
      <trkpt lat="46.3246" lon="-1.30784">
        <ele>1.1</ele>
        <time>2021-06-17T09:53:47Z</time>
      </trkpt>
      <trkpt lat="46.32461" lon="-1.30785">
        <ele>1.1</ele>
        <time>2021-06-17T09:53:48Z</time>
      </trkpt>
      <trkpt lat="46.32462" lon="-1.30786">
        <ele>1.1</ele>
        <time>2021-06-17T09:53:49Z</time>
      </trkpt>
      <trkpt lat="46.32464" lon="-1.30787">
        <ele>1.2</ele>
        <time>2021-06-17T09:53:50Z</time>
      </trkpt>
      <trkpt lat="46.32465" lon="-1.30788">
        <ele>1.2</ele>
        <time>2021-06-17T09:53:51Z</time>
      </trkpt>
      <trkpt lat="46.32466" lon="-1.30789">
        <ele>1.2</ele>
        <time>2021-06-17T09:53:52Z</time>
      </trkpt>
      <trkpt lat="46.32468" lon="-1.30789">
        <ele>1.2</ele>
        <time>2021-06-17T09:53:53Z</time>
      </trkpt>
      <trkpt lat="46.32469" lon="-1.3079">
        <ele>1.2</ele>
        <time>2021-06-17T09:53:54Z</time>
      </trkpt>
      <trkpt lat="46.3247" lon="-1.30791">
        <ele>1.3</ele>
        <time>2021-06-17T09:53:55Z</time>
      </trkpt>
      <trkpt lat="46.32471" lon="-1.30792">
        <ele>1.3</ele>
        <time>2021-06-17T09:53:56Z</time>
      </trkpt>
      <trkpt lat="46.32472" lon="-1.30793">
        <ele>1.3</ele>
        <time>2021-06-17T09:53:57Z</time>
      </trkpt>
      <trkpt lat="46.32472" lon="-1.30793">
        <ele>1.3</ele>
        <time>2021-06-17T09:53:58Z</time>
      </trkpt>
      <trkpt lat="46.32473" lon="-1.30794">
        <ele>1.4</ele>
        <time>2021-06-17T09:53:59Z</time>
      </trkpt>
      <trkpt lat="46.32474" lon="-1.30795">
        <ele>1.4</ele>
        <time>2021-06-17T09:54:00Z</time>
      </trkpt>
      <trkpt lat="46.32475" lon="-1.30796">
        <ele>1.4</ele>
        <time>2021-06-17T09:54:01Z</time>
      </trkpt>
      <trkpt lat="46.32476" lon="-1.30797">
        <ele>1.4</ele>
        <time>2021-06-17T09:54:02Z</time>
      </trkpt>
      <trkpt lat="46.32477" lon="-1.30797">
        <ele>1.4</ele>
        <time>2021-06-17T09:54:03Z</time>
      </trkpt>
      <trkpt lat="46.32478" lon="-1.30798">
        <ele>1.4</ele>
        <time>2021-06-17T09:54:04Z</time>
      </trkpt>
      <trkpt lat="46.32479" lon="-1.30799">
        <ele>1.5</ele>
        <time>2021-06-17T09:54:05Z</time>
      </trkpt>
      <trkpt lat="46.3248" lon="-1.308">
        <ele>1.5</ele>
        <time>2021-06-17T09:54:06Z</time>
      </trkpt>
      <trkpt lat="46.32481" lon="-1.30801">
        <ele>1.5</ele>
        <time>2021-06-17T09:54:07Z</time>
      </trkpt>
      <trkpt lat="46.32482" lon="-1.30802">
        <ele>1.5</ele>
        <time>2021-06-17T09:54:08Z</time>
      </trkpt>
      <trkpt lat="46.32484" lon="-1.30803">
        <ele>1.5</ele>
        <time>2021-06-17T09:54:09Z</time>
      </trkpt>
      <trkpt lat="46.32485" lon="-1.30804">
        <ele>1.5</ele>
        <time>2021-06-17T09:54:10Z</time>
      </trkpt>
      <trkpt lat="46.32486" lon="-1.30805">
        <ele>1.5</ele>
        <time>2021-06-17T09:54:11Z</time>
      </trkpt>
      <trkpt lat="46.32487" lon="-1.30806">
        <ele>1.5</ele>
        <time>2021-06-17T09:54:12Z</time>
      </trkpt>
      <trkpt lat="46.32488" lon="-1.30806">
        <ele>1.5</ele>
        <time>2021-06-17T09:54:13Z</time>
      </trkpt>
      <trkpt lat="46.32489" lon="-1.30807">
        <ele>1.5</ele>
        <time>2021-06-17T09:54:14Z</time>
      </trkpt>
      <trkpt lat="46.3249" lon="-1.30808">
        <ele>1.5</ele>
        <time>2021-06-17T09:54:15Z</time>
      </trkpt>
      <trkpt lat="46.32491" lon="-1.30809">
        <ele>1.5</ele>
        <time>2021-06-17T09:54:16Z</time>
      </trkpt>
      <trkpt lat="46.32493" lon="-1.30809">
        <ele>1.5</ele>
        <time>2021-06-17T09:54:17Z</time>
      </trkpt>
      <trkpt lat="46.32494" lon="-1.3081">
        <ele>1.5</ele>
        <time>2021-06-17T09:54:18Z</time>
      </trkpt>
      <trkpt lat="46.32495" lon="-1.30811">
        <ele>1.5</ele>
        <time>2021-06-17T09:54:19Z</time>
      </trkpt>
      <trkpt lat="46.32496" lon="-1.30811">
        <ele>1.5</ele>
        <time>2021-06-17T09:54:20Z</time>
      </trkpt>
      <trkpt lat="46.32497" lon="-1.30812">
        <ele>1.5</ele>
        <time>2021-06-17T09:54:21Z</time>
      </trkpt>
      <trkpt lat="46.32498" lon="-1.30812">
        <ele>1.5</ele>
        <time>2021-06-17T09:54:22Z</time>
      </trkpt>
      <trkpt lat="46.32499" lon="-1.30813">
        <ele>1.5</ele>
        <time>2021-06-17T09:54:23Z</time>
      </trkpt>
      <trkpt lat="46.32499" lon="-1.30814">
        <ele>1.5</ele>
        <time>2021-06-17T09:54:24Z</time>
      </trkpt>
      <trkpt lat="46.325" lon="-1.30814">
        <ele>1.5</ele>
        <time>2021-06-17T09:54:25Z</time>
      </trkpt>
      <trkpt lat="46.32501" lon="-1.30815">
        <ele>1.5</ele>
        <time>2021-06-17T09:54:26Z</time>
      </trkpt>
      <trkpt lat="46.32502" lon="-1.30815">
        <ele>1.5</ele>
        <time>2021-06-17T09:54:27Z</time>
      </trkpt>
      <trkpt lat="46.32503" lon="-1.30816">
        <ele>1.5</ele>
        <time>2021-06-17T09:54:28Z</time>
      </trkpt>
      <trkpt lat="46.32504" lon="-1.30817">
        <ele>1.5</ele>
        <time>2021-06-17T09:54:29Z</time>
      </trkpt>
      <trkpt lat="46.32505" lon="-1.30817">
        <ele>1.6</ele>
        <time>2021-06-17T09:54:30Z</time>
      </trkpt>
      <trkpt lat="46.32506" lon="-1.30818">
        <ele>1.6</ele>
        <time>2021-06-17T09:54:31Z</time>
      </trkpt>
      <trkpt lat="46.32507" lon="-1.30819">
        <ele>1.6</ele>
        <time>2021-06-17T09:54:32Z</time>
      </trkpt>
      <trkpt lat="46.32508" lon="-1.3082">
        <ele>1.6</ele>
        <time>2021-06-17T09:54:33Z</time>
      </trkpt>
      <trkpt lat="46.32509" lon="-1.30821">
        <ele>1.6</ele>
        <time>2021-06-17T09:54:34Z</time>
      </trkpt>
      <trkpt lat="46.3251" lon="-1.30822">
        <ele>1.6</ele>
        <time>2021-06-17T09:54:35Z</time>
      </trkpt>
      <trkpt lat="46.32511" lon="-1.30822">
        <ele>1.6</ele>
        <time>2021-06-17T09:54:36Z</time>
      </trkpt>
      <trkpt lat="46.32512" lon="-1.30823">
        <ele>1.6</ele>
        <time>2021-06-17T09:54:37Z</time>
      </trkpt>
      <trkpt lat="46.32513" lon="-1.30824">
        <ele>1.6</ele>
        <time>2021-06-17T09:54:38Z</time>
      </trkpt>
      <trkpt lat="46.32513" lon="-1.30826">
        <ele>1.6</ele>
        <time>2021-06-17T09:54:39Z</time>
      </trkpt>
      <trkpt lat="46.32515" lon="-1.30827">
        <ele>1.6</ele>
        <time>2021-06-17T09:54:40Z</time>
      </trkpt>
      <trkpt lat="46.32516" lon="-1.30827">
        <ele>1.6</ele>
        <time>2021-06-17T09:54:41Z</time>
      </trkpt>
      <trkpt lat="46.32517" lon="-1.30828">
        <ele>1.6</ele>
        <time>2021-06-17T09:54:42Z</time>
      </trkpt>
      <trkpt lat="46.32518" lon="-1.30829">
        <ele>1.6</ele>
        <time>2021-06-17T09:54:43Z</time>
      </trkpt>
      <trkpt lat="46.32519" lon="-1.3083">
        <ele>1.6</ele>
        <time>2021-06-17T09:54:44Z</time>
      </trkpt>
      <trkpt lat="46.3252" lon="-1.3083">
        <ele>1.6</ele>
        <time>2021-06-17T09:54:45Z</time>
      </trkpt>
      <trkpt lat="46.32522" lon="-1.3083">
        <ele>1.6</ele>
        <time>2021-06-17T09:54:46Z</time>
      </trkpt>
      <trkpt lat="46.32523" lon="-1.30831">
        <ele>1.6</ele>
        <time>2021-06-17T09:54:47Z</time>
      </trkpt>
      <trkpt lat="46.32524" lon="-1.30831">
        <ele>1.6</ele>
        <time>2021-06-17T09:54:48Z</time>
      </trkpt>
      <trkpt lat="46.32526" lon="-1.30831">
        <ele>1.6</ele>
        <time>2021-06-17T09:54:49Z</time>
      </trkpt>
      <trkpt lat="46.32527" lon="-1.30831">
        <ele>1.7</ele>
        <time>2021-06-17T09:54:50Z</time>
      </trkpt>
      <trkpt lat="46.32528" lon="-1.30831">
        <ele>1.7</ele>
        <time>2021-06-17T09:54:51Z</time>
      </trkpt>
      <trkpt lat="46.32529" lon="-1.30831">
        <ele>1.7</ele>
        <time>2021-06-17T09:54:52Z</time>
      </trkpt>
      <trkpt lat="46.3253" lon="-1.30831">
        <ele>1.7</ele>
        <time>2021-06-17T09:54:53Z</time>
      </trkpt>
      <trkpt lat="46.32531" lon="-1.30831">
        <ele>1.7</ele>
        <time>2021-06-17T09:54:54Z</time>
      </trkpt>
      <trkpt lat="46.32532" lon="-1.30832">
        <ele>1.7</ele>
        <time>2021-06-17T09:54:55Z</time>
      </trkpt>
      <trkpt lat="46.32533" lon="-1.30833">
        <ele>1.7</ele>
        <time>2021-06-17T09:54:56Z</time>
      </trkpt>
      <trkpt lat="46.32534" lon="-1.30834">
        <ele>1.7</ele>
        <time>2021-06-17T09:54:57Z</time>
      </trkpt>
      <trkpt lat="46.32535" lon="-1.30835">
        <ele>1.7</ele>
        <time>2021-06-17T09:54:58Z</time>
      </trkpt>
      <trkpt lat="46.32536" lon="-1.30837">
        <ele>1.7</ele>
        <time>2021-06-17T09:54:59Z</time>
      </trkpt>
      <trkpt lat="46.32537" lon="-1.30838">
        <ele>1.7</ele>
        <time>2021-06-17T09:55:00Z</time>
      </trkpt>
      <trkpt lat="46.32538" lon="-1.30839">
        <ele>1.7</ele>
        <time>2021-06-17T09:55:01Z</time>
      </trkpt>
      <trkpt lat="46.32539" lon="-1.3084">
        <ele>1.7</ele>
        <time>2021-06-17T09:55:02Z</time>
      </trkpt>
      <trkpt lat="46.3254" lon="-1.30841">
        <ele>1.7</ele>
        <time>2021-06-17T09:55:03Z</time>
      </trkpt>
      <trkpt lat="46.32541" lon="-1.30842">
        <ele>1.7</ele>
        <time>2021-06-17T09:55:04Z</time>
      </trkpt>
      <trkpt lat="46.32542" lon="-1.30842">
        <ele>1.7</ele>
        <time>2021-06-17T09:55:05Z</time>
      </trkpt>
      <trkpt lat="46.32543" lon="-1.30843">
        <ele>1.7</ele>
        <time>2021-06-17T09:55:06Z</time>
      </trkpt>
      <trkpt lat="46.32543" lon="-1.30844">
        <ele>1.7</ele>
        <time>2021-06-17T09:55:07Z</time>
      </trkpt>
      <trkpt lat="46.32544" lon="-1.30844">
        <ele>1.7</ele>
        <time>2021-06-17T09:55:08Z</time>
      </trkpt>
      <trkpt lat="46.32545" lon="-1.30845">
        <ele>1.8</ele>
        <time>2021-06-17T09:55:09Z</time>
      </trkpt>
      <trkpt lat="46.32546" lon="-1.30846">
        <ele>1.8</ele>
        <time>2021-06-17T09:55:10Z</time>
      </trkpt>
      <trkpt lat="46.32547" lon="-1.30846">
        <ele>1.8</ele>
        <time>2021-06-17T09:55:11Z</time>
      </trkpt>
      <trkpt lat="46.32548" lon="-1.30847">
        <ele>1.8</ele>
        <time>2021-06-17T09:55:12Z</time>
      </trkpt>
      <trkpt lat="46.32549" lon="-1.30847">
        <ele>1.8</ele>
        <time>2021-06-17T09:55:13Z</time>
      </trkpt>
      <trkpt lat="46.3255" lon="-1.30848">
        <ele>1.8</ele>
        <time>2021-06-17T09:55:14Z</time>
      </trkpt>
      <trkpt lat="46.32552" lon="-1.30848">
        <ele>1.8</ele>
        <time>2021-06-17T09:55:15Z</time>
      </trkpt>
      <trkpt lat="46.32553" lon="-1.30849">
        <ele>1.8</ele>
        <time>2021-06-17T09:55:16Z</time>
      </trkpt>
      <trkpt lat="46.32554" lon="-1.3085">
        <ele>1.8</ele>
        <time>2021-06-17T09:55:17Z</time>
      </trkpt>
      <trkpt lat="46.32555" lon="-1.3085">
        <ele>1.8</ele>
        <time>2021-06-17T09:55:18Z</time>
      </trkpt>
      <trkpt lat="46.32556" lon="-1.30851">
        <ele>1.8</ele>
        <time>2021-06-17T09:55:19Z</time>
      </trkpt>
      <trkpt lat="46.32557" lon="-1.30852">
        <ele>1.8</ele>
        <time>2021-06-17T09:55:20Z</time>
      </trkpt>
      <trkpt lat="46.32559" lon="-1.30853">
        <ele>1.8</ele>
        <time>2021-06-17T09:55:21Z</time>
      </trkpt>
      <trkpt lat="46.3256" lon="-1.30853">
        <ele>1.8</ele>
        <time>2021-06-17T09:55:22Z</time>
      </trkpt>
      <trkpt lat="46.32561" lon="-1.30854">
        <ele>1.8</ele>
        <time>2021-06-17T09:55:23Z</time>
      </trkpt>
      <trkpt lat="46.32563" lon="-1.30855">
        <ele>1.9</ele>
        <time>2021-06-17T09:55:24Z</time>
      </trkpt>
      <trkpt lat="46.32564" lon="-1.30856">
        <ele>1.9</ele>
        <time>2021-06-17T09:55:25Z</time>
      </trkpt>
      <trkpt lat="46.32565" lon="-1.30856">
        <ele>1.9</ele>
        <time>2021-06-17T09:55:26Z</time>
      </trkpt>
      <trkpt lat="46.32565" lon="-1.30856">
        <ele>1.9</ele>
        <time>2021-06-17T09:55:27Z</time>
      </trkpt>
      <trkpt lat="46.32566" lon="-1.30857">
        <ele>1.9</ele>
        <time>2021-06-17T09:55:28Z</time>
      </trkpt>
      <trkpt lat="46.32566" lon="-1.30857">
        <ele>1.9</ele>
        <time>2021-06-17T09:55:29Z</time>
      </trkpt>
      <trkpt lat="46.32566" lon="-1.30856">
        <ele>1.9</ele>
        <time>2021-06-17T09:55:30Z</time>
      </trkpt>
      <trkpt lat="46.32565" lon="-1.30856">
        <ele>1.9</ele>
        <time>2021-06-17T09:55:31Z</time>
      </trkpt>
      <trkpt lat="46.32565" lon="-1.30856">
        <ele>1.9</ele>
        <time>2021-06-17T09:55:32Z</time>
      </trkpt>
      <trkpt lat="46.32566" lon="-1.30856">
        <ele>1.9</ele>
        <time>2021-06-17T09:55:33Z</time>
      </trkpt>
      <trkpt lat="46.32566" lon="-1.30856">
        <ele>1.9</ele>
        <time>2021-06-17T09:55:34Z</time>
      </trkpt>
      <trkpt lat="46.32566" lon="-1.30856">
        <ele>1.9</ele>
        <time>2021-06-17T09:55:35Z</time>
      </trkpt>
      <trkpt lat="46.32567" lon="-1.30857">
        <ele>1.9</ele>
        <time>2021-06-17T09:55:36Z</time>
      </trkpt>
      <trkpt lat="46.32567" lon="-1.30857">
        <ele>1.9</ele>
        <time>2021-06-17T09:55:37Z</time>
      </trkpt>
      <trkpt lat="46.32568" lon="-1.30857">
        <ele>1.9</ele>
        <time>2021-06-17T09:55:38Z</time>
      </trkpt>
      <trkpt lat="46.32569" lon="-1.30858">
        <ele>1.9</ele>
        <time>2021-06-17T09:55:39Z</time>
      </trkpt>
      <trkpt lat="46.32569" lon="-1.30859">
        <ele>1.9</ele>
        <time>2021-06-17T09:55:40Z</time>
      </trkpt>
      <trkpt lat="46.3257" lon="-1.3086">
        <ele>1.8</ele>
        <time>2021-06-17T09:55:41Z</time>
      </trkpt>
      <trkpt lat="46.32571" lon="-1.3086">
        <ele>1.8</ele>
        <time>2021-06-17T09:55:42Z</time>
      </trkpt>
      <trkpt lat="46.32572" lon="-1.30861">
        <ele>1.8</ele>
        <time>2021-06-17T09:55:43Z</time>
      </trkpt>
      <trkpt lat="46.32573" lon="-1.30862">
        <ele>1.8</ele>
        <time>2021-06-17T09:55:44Z</time>
      </trkpt>
      <trkpt lat="46.32574" lon="-1.30863">
        <ele>1.8</ele>
        <time>2021-06-17T09:55:45Z</time>
      </trkpt>
      <trkpt lat="46.32575" lon="-1.30864">
        <ele>1.8</ele>
        <time>2021-06-17T09:55:46Z</time>
      </trkpt>
      <trkpt lat="46.32576" lon="-1.30865">
        <ele>1.8</ele>
        <time>2021-06-17T09:55:47Z</time>
      </trkpt>
      <trkpt lat="46.32577" lon="-1.30866">
        <ele>1.8</ele>
        <time>2021-06-17T09:55:48Z</time>
      </trkpt>
      <trkpt lat="46.32578" lon="-1.30867">
        <ele>1.8</ele>
        <time>2021-06-17T09:55:49Z</time>
      </trkpt>
      <trkpt lat="46.32579" lon="-1.30868">
        <ele>1.8</ele>
        <time>2021-06-17T09:55:50Z</time>
      </trkpt>
      <trkpt lat="46.3258" lon="-1.30868">
        <ele>1.8</ele>
        <time>2021-06-17T09:55:51Z</time>
      </trkpt>
      <trkpt lat="46.32581" lon="-1.30869">
        <ele>1.8</ele>
        <time>2021-06-17T09:55:52Z</time>
      </trkpt>
      <trkpt lat="46.32582" lon="-1.3087">
        <ele>1.8</ele>
        <time>2021-06-17T09:55:53Z</time>
      </trkpt>
      <trkpt lat="46.32583" lon="-1.30871">
        <ele>1.8</ele>
        <time>2021-06-17T09:55:54Z</time>
      </trkpt>
      <trkpt lat="46.32584" lon="-1.30871">
        <ele>1.8</ele>
        <time>2021-06-17T09:55:55Z</time>
      </trkpt>
      <trkpt lat="46.32585" lon="-1.30872">
        <ele>1.8</ele>
        <time>2021-06-17T09:55:56Z</time>
      </trkpt>
      <trkpt lat="46.32586" lon="-1.30872">
        <ele>1.7</ele>
        <time>2021-06-17T09:55:57Z</time>
      </trkpt>
      <trkpt lat="46.32587" lon="-1.30873">
        <ele>1.7</ele>
        <time>2021-06-17T09:55:58Z</time>
      </trkpt>
      <trkpt lat="46.32587" lon="-1.30873">
        <ele>1.7</ele>
        <time>2021-06-17T09:55:59Z</time>
      </trkpt>
      <trkpt lat="46.32588" lon="-1.30873">
        <ele>1.7</ele>
        <time>2021-06-17T09:56:00Z</time>
      </trkpt>
      <trkpt lat="46.32589" lon="-1.30874">
        <ele>1.7</ele>
        <time>2021-06-17T09:56:01Z</time>
      </trkpt>
      <trkpt lat="46.3259" lon="-1.30874">
        <ele>1.7</ele>
        <time>2021-06-17T09:56:02Z</time>
      </trkpt>
      <trkpt lat="46.3259" lon="-1.30875">
        <ele>1.7</ele>
        <time>2021-06-17T09:56:03Z</time>
      </trkpt>
      <trkpt lat="46.32591" lon="-1.30876">
        <ele>1.7</ele>
        <time>2021-06-17T09:56:04Z</time>
      </trkpt>
      <trkpt lat="46.32591" lon="-1.30876">
        <ele>1.7</ele>
        <time>2021-06-17T09:56:05Z</time>
      </trkpt>
      <trkpt lat="46.32592" lon="-1.30877">
        <ele>1.7</ele>
        <time>2021-06-17T09:56:06Z</time>
      </trkpt>
      <trkpt lat="46.32592" lon="-1.30878">
        <ele>1.7</ele>
        <time>2021-06-17T09:56:07Z</time>
      </trkpt>
      <trkpt lat="46.32593" lon="-1.30878">
        <ele>1.7</ele>
        <time>2021-06-17T09:56:08Z</time>
      </trkpt>
      <trkpt lat="46.32593" lon="-1.30879">
        <ele>1.7</ele>
        <time>2021-06-17T09:56:09Z</time>
      </trkpt>
      <trkpt lat="46.32593" lon="-1.30879">
        <ele>1.7</ele>
        <time>2021-06-17T09:56:10Z</time>
      </trkpt>
      <trkpt lat="46.32594" lon="-1.3088">
        <ele>1.7</ele>
        <time>2021-06-17T09:56:11Z</time>
      </trkpt>
      <trkpt lat="46.32594" lon="-1.3088">
        <ele>1.7</ele>
        <time>2021-06-17T09:56:12Z</time>
      </trkpt>
      <trkpt lat="46.32594" lon="-1.3088">
        <ele>1.7</ele>
        <time>2021-06-17T09:56:13Z</time>
      </trkpt>
      <trkpt lat="46.32594" lon="-1.3088">
        <ele>1.7</ele>
        <time>2021-06-17T09:56:14Z</time>
      </trkpt>
      <trkpt lat="46.32594" lon="-1.3088">
        <ele>1.7</ele>
        <time>2021-06-17T09:56:15Z</time>
      </trkpt>
      <trkpt lat="46.32594" lon="-1.3088">
        <ele>1.7</ele>
        <time>2021-06-17T09:56:16Z</time>
      </trkpt>
      <trkpt lat="46.32594" lon="-1.3088">
        <ele>1.7</ele>
        <time>2021-06-17T09:56:17Z</time>
      </trkpt>
      <trkpt lat="46.32594" lon="-1.3088">
        <ele>1.7</ele>
        <time>2021-06-17T09:56:18Z</time>
      </trkpt>
      <trkpt lat="46.32594" lon="-1.30881">
        <ele>1.7</ele>
        <time>2021-06-17T09:56:19Z</time>
      </trkpt>
      <trkpt lat="46.32595" lon="-1.30882">
        <ele>1.7</ele>
        <time>2021-06-17T09:56:20Z</time>
      </trkpt>
      <trkpt lat="46.32595" lon="-1.30883">
        <ele>1.6</ele>
        <time>2021-06-17T09:56:21Z</time>
      </trkpt>
      <trkpt lat="46.32595" lon="-1.30885">
        <ele>1.6</ele>
        <time>2021-06-17T09:56:22Z</time>
      </trkpt>
      <trkpt lat="46.32596" lon="-1.30887">
        <ele>1.6</ele>
        <time>2021-06-17T09:56:23Z</time>
      </trkpt>
      <trkpt lat="46.32596" lon="-1.30889">
        <ele>1.6</ele>
        <time>2021-06-17T09:56:24Z</time>
      </trkpt>
      <trkpt lat="46.32597" lon="-1.3089">
        <ele>1.6</ele>
        <time>2021-06-17T09:56:25Z</time>
      </trkpt>
      <trkpt lat="46.32597" lon="-1.30892">
        <ele>1.6</ele>
        <time>2021-06-17T09:56:26Z</time>
      </trkpt>
      <trkpt lat="46.32598" lon="-1.30894">
        <ele>1.6</ele>
        <time>2021-06-17T09:56:27Z</time>
      </trkpt>
      <trkpt lat="46.32599" lon="-1.30895">
        <ele>1.6</ele>
        <time>2021-06-17T09:56:28Z</time>
      </trkpt>
      <trkpt lat="46.326" lon="-1.30896">
        <ele>1.6</ele>
        <time>2021-06-17T09:56:29Z</time>
      </trkpt>
      <trkpt lat="46.326" lon="-1.30898">
        <ele>1.6</ele>
        <time>2021-06-17T09:56:30Z</time>
      </trkpt>
      <trkpt lat="46.32601" lon="-1.30899">
        <ele>1.6</ele>
        <time>2021-06-17T09:56:31Z</time>
      </trkpt>
      <trkpt lat="46.32601" lon="-1.30901">
        <ele>1.6</ele>
        <time>2021-06-17T09:56:32Z</time>
      </trkpt>
      <trkpt lat="46.32602" lon="-1.30902">
        <ele>1.6</ele>
        <time>2021-06-17T09:56:33Z</time>
      </trkpt>
      <trkpt lat="46.32603" lon="-1.30904">
        <ele>1.6</ele>
        <time>2021-06-17T09:56:34Z</time>
      </trkpt>
      <trkpt lat="46.32603" lon="-1.30906">
        <ele>1.6</ele>
        <time>2021-06-17T09:56:35Z</time>
      </trkpt>
      <trkpt lat="46.32604" lon="-1.30908">
        <ele>1.6</ele>
        <time>2021-06-17T09:56:36Z</time>
      </trkpt>
      <trkpt lat="46.32604" lon="-1.3091">
        <ele>1.6</ele>
        <time>2021-06-17T09:56:37Z</time>
      </trkpt>
      <trkpt lat="46.32605" lon="-1.30911">
        <ele>1.6</ele>
        <time>2021-06-17T09:56:38Z</time>
      </trkpt>
      <trkpt lat="46.32605" lon="-1.30913">
        <ele>1.6</ele>
        <time>2021-06-17T09:56:39Z</time>
      </trkpt>
      <trkpt lat="46.32606" lon="-1.30915">
        <ele>1.6</ele>
        <time>2021-06-17T09:56:40Z</time>
      </trkpt>
      <trkpt lat="46.32606" lon="-1.30917">
        <ele>1.6</ele>
        <time>2021-06-17T09:56:41Z</time>
      </trkpt>
      <trkpt lat="46.32607" lon="-1.30919">
        <ele>1.6</ele>
        <time>2021-06-17T09:56:42Z</time>
      </trkpt>
      <trkpt lat="46.32607" lon="-1.3092">
        <ele>1.6</ele>
        <time>2021-06-17T09:56:43Z</time>
      </trkpt>
      <trkpt lat="46.32608" lon="-1.30922">
        <ele>1.6</ele>
        <time>2021-06-17T09:56:44Z</time>
      </trkpt>
      <trkpt lat="46.32608" lon="-1.30923">
        <ele>1.7</ele>
        <time>2021-06-17T09:56:45Z</time>
      </trkpt>
      <trkpt lat="46.32609" lon="-1.30925">
        <ele>1.7</ele>
        <time>2021-06-17T09:56:46Z</time>
      </trkpt>
      <trkpt lat="46.32609" lon="-1.30927">
        <ele>1.7</ele>
        <time>2021-06-17T09:56:47Z</time>
      </trkpt>
      <trkpt lat="46.3261" lon="-1.30928">
        <ele>1.7</ele>
        <time>2021-06-17T09:56:48Z</time>
      </trkpt>
      <trkpt lat="46.3261" lon="-1.3093">
        <ele>1.7</ele>
        <time>2021-06-17T09:56:49Z</time>
      </trkpt>
      <trkpt lat="46.32611" lon="-1.30931">
        <ele>1.7</ele>
        <time>2021-06-17T09:56:50Z</time>
      </trkpt>
      <trkpt lat="46.32611" lon="-1.30932">
        <ele>1.7</ele>
        <time>2021-06-17T09:56:51Z</time>
      </trkpt>
      <trkpt lat="46.32611" lon="-1.30934">
        <ele>1.7</ele>
        <time>2021-06-17T09:56:52Z</time>
      </trkpt>
      <trkpt lat="46.32612" lon="-1.30935">
        <ele>1.7</ele>
        <time>2021-06-17T09:56:53Z</time>
      </trkpt>
      <trkpt lat="46.32612" lon="-1.30937">
        <ele>1.7</ele>
        <time>2021-06-17T09:56:54Z</time>
      </trkpt>
      <trkpt lat="46.32612" lon="-1.30938">
        <ele>1.7</ele>
        <time>2021-06-17T09:56:55Z</time>
      </trkpt>
      <trkpt lat="46.32613" lon="-1.3094">
        <ele>1.7</ele>
        <time>2021-06-17T09:56:56Z</time>
      </trkpt>
      <trkpt lat="46.32613" lon="-1.30941">
        <ele>1.7</ele>
        <time>2021-06-17T09:56:57Z</time>
      </trkpt>
      <trkpt lat="46.32613" lon="-1.30943">
        <ele>1.7</ele>
        <time>2021-06-17T09:56:58Z</time>
      </trkpt>
      <trkpt lat="46.32614" lon="-1.30944">
        <ele>1.7</ele>
        <time>2021-06-17T09:56:59Z</time>
      </trkpt>
      <trkpt lat="46.32614" lon="-1.30946">
        <ele>1.7</ele>
        <time>2021-06-17T09:57:00Z</time>
      </trkpt>
      <trkpt lat="46.32614" lon="-1.30947">
        <ele>1.7</ele>
        <time>2021-06-17T09:57:01Z</time>
      </trkpt>
      <trkpt lat="46.32615" lon="-1.30949">
        <ele>1.7</ele>
        <time>2021-06-17T09:57:02Z</time>
      </trkpt>
      <trkpt lat="46.32615" lon="-1.3095">
        <ele>1.7</ele>
        <time>2021-06-17T09:57:03Z</time>
      </trkpt>
      <trkpt lat="46.32615" lon="-1.30952">
        <ele>1.7</ele>
        <time>2021-06-17T09:57:04Z</time>
      </trkpt>
      <trkpt lat="46.32616" lon="-1.30953">
        <ele>1.8</ele>
        <time>2021-06-17T09:57:05Z</time>
      </trkpt>
      <trkpt lat="46.32616" lon="-1.30955">
        <ele>1.8</ele>
        <time>2021-06-17T09:57:06Z</time>
      </trkpt>
      <trkpt lat="46.32617" lon="-1.30956">
        <ele>1.8</ele>
        <time>2021-06-17T09:57:07Z</time>
      </trkpt>
      <trkpt lat="46.32617" lon="-1.30958">
        <ele>1.8</ele>
        <time>2021-06-17T09:57:08Z</time>
      </trkpt>
      <trkpt lat="46.32618" lon="-1.30959">
        <ele>1.8</ele>
        <time>2021-06-17T09:57:09Z</time>
      </trkpt>
      <trkpt lat="46.32619" lon="-1.30961">
        <ele>1.8</ele>
        <time>2021-06-17T09:57:10Z</time>
      </trkpt>
      <trkpt lat="46.32619" lon="-1.30962">
        <ele>1.8</ele>
        <time>2021-06-17T09:57:11Z</time>
      </trkpt>
      <trkpt lat="46.3262" lon="-1.30964">
        <ele>1.8</ele>
        <time>2021-06-17T09:57:12Z</time>
      </trkpt>
      <trkpt lat="46.3262" lon="-1.30965">
        <ele>1.8</ele>
        <time>2021-06-17T09:57:13Z</time>
      </trkpt>
      <trkpt lat="46.32621" lon="-1.30967">
        <ele>1.8</ele>
        <time>2021-06-17T09:57:14Z</time>
      </trkpt>
      <trkpt lat="46.32621" lon="-1.30969">
        <ele>1.8</ele>
        <time>2021-06-17T09:57:15Z</time>
      </trkpt>
      <trkpt lat="46.32622" lon="-1.3097">
        <ele>1.8</ele>
        <time>2021-06-17T09:57:16Z</time>
      </trkpt>
      <trkpt lat="46.32623" lon="-1.30972">
        <ele>1.8</ele>
        <time>2021-06-17T09:57:17Z</time>
      </trkpt>
      <trkpt lat="46.32623" lon="-1.30973">
        <ele>1.8</ele>
        <time>2021-06-17T09:57:18Z</time>
      </trkpt>
      <trkpt lat="46.32623" lon="-1.30975">
        <ele>1.8</ele>
        <time>2021-06-17T09:57:19Z</time>
      </trkpt>
      <trkpt lat="46.32624" lon="-1.30977">
        <ele>1.9</ele>
        <time>2021-06-17T09:57:20Z</time>
      </trkpt>
      <trkpt lat="46.32624" lon="-1.30978">
        <ele>1.9</ele>
        <time>2021-06-17T09:57:21Z</time>
      </trkpt>
      <trkpt lat="46.32625" lon="-1.3098">
        <ele>1.9</ele>
        <time>2021-06-17T09:57:22Z</time>
      </trkpt>
      <trkpt lat="46.32625" lon="-1.30982">
        <ele>1.9</ele>
        <time>2021-06-17T09:57:23Z</time>
      </trkpt>
      <trkpt lat="46.32626" lon="-1.30983">
        <ele>1.9</ele>
        <time>2021-06-17T09:57:24Z</time>
      </trkpt>
      <trkpt lat="46.32626" lon="-1.30985">
        <ele>1.9</ele>
        <time>2021-06-17T09:57:25Z</time>
      </trkpt>
      <trkpt lat="46.32627" lon="-1.30987">
        <ele>1.9</ele>
        <time>2021-06-17T09:57:26Z</time>
      </trkpt>
      <trkpt lat="46.32627" lon="-1.30988">
        <ele>1.9</ele>
        <time>2021-06-17T09:57:27Z</time>
      </trkpt>
      <trkpt lat="46.32628" lon="-1.3099">
        <ele>1.9</ele>
        <time>2021-06-17T09:57:28Z</time>
      </trkpt>
      <trkpt lat="46.32629" lon="-1.30991">
        <ele>1.9</ele>
        <time>2021-06-17T09:57:29Z</time>
      </trkpt>
      <trkpt lat="46.32629" lon="-1.30993">
        <ele>1.9</ele>
        <time>2021-06-17T09:57:30Z</time>
      </trkpt>
      <trkpt lat="46.3263" lon="-1.30995">
        <ele>1.9</ele>
        <time>2021-06-17T09:57:31Z</time>
      </trkpt>
      <trkpt lat="46.32631" lon="-1.30996">
        <ele>2</ele>
        <time>2021-06-17T09:57:32Z</time>
      </trkpt>
      <trkpt lat="46.32631" lon="-1.30998">
        <ele>2</ele>
        <time>2021-06-17T09:57:33Z</time>
      </trkpt>
      <trkpt lat="46.32632" lon="-1.30999">
        <ele>2</ele>
        <time>2021-06-17T09:57:34Z</time>
      </trkpt>
      <trkpt lat="46.32632" lon="-1.31001">
        <ele>2</ele>
        <time>2021-06-17T09:57:35Z</time>
      </trkpt>
      <trkpt lat="46.32633" lon="-1.31002">
        <ele>2</ele>
        <time>2021-06-17T09:57:36Z</time>
      </trkpt>
      <trkpt lat="46.32634" lon="-1.31004">
        <ele>2</ele>
        <time>2021-06-17T09:57:37Z</time>
      </trkpt>
      <trkpt lat="46.32634" lon="-1.31005">
        <ele>2</ele>
        <time>2021-06-17T09:57:38Z</time>
      </trkpt>
      <trkpt lat="46.32635" lon="-1.31007">
        <ele>2</ele>
        <time>2021-06-17T09:57:39Z</time>
      </trkpt>
      <trkpt lat="46.32635" lon="-1.31008">
        <ele>2</ele>
        <time>2021-06-17T09:57:40Z</time>
      </trkpt>
      <trkpt lat="46.32636" lon="-1.3101">
        <ele>2</ele>
        <time>2021-06-17T09:57:41Z</time>
      </trkpt>
      <trkpt lat="46.32636" lon="-1.31011">
        <ele>2</ele>
        <time>2021-06-17T09:57:42Z</time>
      </trkpt>
      <trkpt lat="46.32636" lon="-1.31013">
        <ele>2</ele>
        <time>2021-06-17T09:57:43Z</time>
      </trkpt>
      <trkpt lat="46.32637" lon="-1.31014">
        <ele>2</ele>
        <time>2021-06-17T09:57:44Z</time>
      </trkpt>
      <trkpt lat="46.32637" lon="-1.31016">
        <ele>2.1</ele>
        <time>2021-06-17T09:57:45Z</time>
      </trkpt>
      <trkpt lat="46.32638" lon="-1.31017">
        <ele>2.1</ele>
        <time>2021-06-17T09:57:46Z</time>
      </trkpt>
      <trkpt lat="46.32638" lon="-1.31019">
        <ele>2.1</ele>
        <time>2021-06-17T09:57:47Z</time>
      </trkpt>
      <trkpt lat="46.32638" lon="-1.31021">
        <ele>2.1</ele>
        <time>2021-06-17T09:57:48Z</time>
      </trkpt>
      <trkpt lat="46.32639" lon="-1.31022">
        <ele>2.1</ele>
        <time>2021-06-17T09:57:49Z</time>
      </trkpt>
      <trkpt lat="46.32639" lon="-1.31024">
        <ele>2.1</ele>
        <time>2021-06-17T09:57:50Z</time>
      </trkpt>
      <trkpt lat="46.32639" lon="-1.31026">
        <ele>2.1</ele>
        <time>2021-06-17T09:57:51Z</time>
      </trkpt>
      <trkpt lat="46.3264" lon="-1.31028">
        <ele>2.1</ele>
        <time>2021-06-17T09:57:52Z</time>
      </trkpt>
      <trkpt lat="46.3264" lon="-1.3103">
        <ele>2.1</ele>
        <time>2021-06-17T09:57:53Z</time>
      </trkpt>
      <trkpt lat="46.3264" lon="-1.31032">
        <ele>2.1</ele>
        <time>2021-06-17T09:57:54Z</time>
      </trkpt>
      <trkpt lat="46.32641" lon="-1.31033">
        <ele>2.1</ele>
        <time>2021-06-17T09:57:55Z</time>
      </trkpt>
      <trkpt lat="46.32641" lon="-1.31035">
        <ele>2.1</ele>
        <time>2021-06-17T09:57:56Z</time>
      </trkpt>
      <trkpt lat="46.32642" lon="-1.31037">
        <ele>2.1</ele>
        <time>2021-06-17T09:57:57Z</time>
      </trkpt>
      <trkpt lat="46.32642" lon="-1.31038">
        <ele>2.2</ele>
        <time>2021-06-17T09:57:58Z</time>
      </trkpt>
      <trkpt lat="46.32643" lon="-1.31039">
        <ele>2.2</ele>
        <time>2021-06-17T09:57:59Z</time>
      </trkpt>
      <trkpt lat="46.32643" lon="-1.31041">
        <ele>2.2</ele>
        <time>2021-06-17T09:58:00Z</time>
      </trkpt>
      <trkpt lat="46.32644" lon="-1.31042">
        <ele>2.2</ele>
        <time>2021-06-17T09:58:01Z</time>
      </trkpt>
      <trkpt lat="46.32645" lon="-1.31044">
        <ele>2.2</ele>
        <time>2021-06-17T09:58:02Z</time>
      </trkpt>
      <trkpt lat="46.32645" lon="-1.31045">
        <ele>2.2</ele>
        <time>2021-06-17T09:58:03Z</time>
      </trkpt>
      <trkpt lat="46.32646" lon="-1.31047">
        <ele>2.2</ele>
        <time>2021-06-17T09:58:04Z</time>
      </trkpt>
      <trkpt lat="46.32646" lon="-1.31048">
        <ele>2.2</ele>
        <time>2021-06-17T09:58:05Z</time>
      </trkpt>
      <trkpt lat="46.32647" lon="-1.3105">
        <ele>2.2</ele>
        <time>2021-06-17T09:58:06Z</time>
      </trkpt>
      <trkpt lat="46.32647" lon="-1.31052">
        <ele>2.2</ele>
        <time>2021-06-17T09:58:07Z</time>
      </trkpt>
      <trkpt lat="46.32648" lon="-1.31053">
        <ele>2.2</ele>
        <time>2021-06-17T09:58:08Z</time>
      </trkpt>
      <trkpt lat="46.32648" lon="-1.31055">
        <ele>2.2</ele>
        <time>2021-06-17T09:58:09Z</time>
      </trkpt>
      <trkpt lat="46.32649" lon="-1.31057">
        <ele>2.2</ele>
        <time>2021-06-17T09:58:10Z</time>
      </trkpt>
      <trkpt lat="46.3265" lon="-1.31058">
        <ele>2.2</ele>
        <time>2021-06-17T09:58:11Z</time>
      </trkpt>
      <trkpt lat="46.3265" lon="-1.3106">
        <ele>2.2</ele>
        <time>2021-06-17T09:58:12Z</time>
      </trkpt>
      <trkpt lat="46.32651" lon="-1.31062">
        <ele>2.2</ele>
        <time>2021-06-17T09:58:13Z</time>
      </trkpt>
      <trkpt lat="46.32651" lon="-1.31064">
        <ele>2.2</ele>
        <time>2021-06-17T09:58:14Z</time>
      </trkpt>
      <trkpt lat="46.32652" lon="-1.31065">
        <ele>2.2</ele>
        <time>2021-06-17T09:58:15Z</time>
      </trkpt>
      <trkpt lat="46.32653" lon="-1.31067">
        <ele>2.2</ele>
        <time>2021-06-17T09:58:16Z</time>
      </trkpt>
      <trkpt lat="46.32653" lon="-1.31069">
        <ele>2.2</ele>
        <time>2021-06-17T09:58:17Z</time>
      </trkpt>
      <trkpt lat="46.32654" lon="-1.3107">
        <ele>2.2</ele>
        <time>2021-06-17T09:58:18Z</time>
      </trkpt>
      <trkpt lat="46.32654" lon="-1.31072">
        <ele>2.2</ele>
        <time>2021-06-17T09:58:19Z</time>
      </trkpt>
      <trkpt lat="46.32655" lon="-1.31074">
        <ele>2.3</ele>
        <time>2021-06-17T09:58:20Z</time>
      </trkpt>
      <trkpt lat="46.32656" lon="-1.31075">
        <ele>2.3</ele>
        <time>2021-06-17T09:58:21Z</time>
      </trkpt>
      <trkpt lat="46.32656" lon="-1.31077">
        <ele>2.3</ele>
        <time>2021-06-17T09:58:22Z</time>
      </trkpt>
      <trkpt lat="46.32657" lon="-1.31079">
        <ele>2.3</ele>
        <time>2021-06-17T09:58:23Z</time>
      </trkpt>
      <trkpt lat="46.32657" lon="-1.3108">
        <ele>2.3</ele>
        <time>2021-06-17T09:58:24Z</time>
      </trkpt>
      <trkpt lat="46.32658" lon="-1.31082">
        <ele>2.3</ele>
        <time>2021-06-17T09:58:25Z</time>
      </trkpt>
      <trkpt lat="46.32658" lon="-1.31083">
        <ele>2.3</ele>
        <time>2021-06-17T09:58:26Z</time>
      </trkpt>
      <trkpt lat="46.32658" lon="-1.31085">
        <ele>2.4</ele>
        <time>2021-06-17T09:58:27Z</time>
      </trkpt>
      <trkpt lat="46.32659" lon="-1.31086">
        <ele>2.4</ele>
        <time>2021-06-17T09:58:28Z</time>
      </trkpt>
      <trkpt lat="46.32659" lon="-1.31088">
        <ele>2.4</ele>
        <time>2021-06-17T09:58:29Z</time>
      </trkpt>
      <trkpt lat="46.3266" lon="-1.31089">
        <ele>2.4</ele>
        <time>2021-06-17T09:58:30Z</time>
      </trkpt>
      <trkpt lat="46.3266" lon="-1.31091">
        <ele>2.4</ele>
        <time>2021-06-17T09:58:31Z</time>
      </trkpt>
      <trkpt lat="46.32661" lon="-1.31092">
        <ele>2.4</ele>
        <time>2021-06-17T09:58:32Z</time>
      </trkpt>
      <trkpt lat="46.32661" lon="-1.31094">
        <ele>2.4</ele>
        <time>2021-06-17T09:58:33Z</time>
      </trkpt>
      <trkpt lat="46.32661" lon="-1.31095">
        <ele>2.4</ele>
        <time>2021-06-17T09:58:34Z</time>
      </trkpt>
      <trkpt lat="46.32662" lon="-1.31097">
        <ele>2.5</ele>
        <time>2021-06-17T09:58:35Z</time>
      </trkpt>
      <trkpt lat="46.32662" lon="-1.31099">
        <ele>2.5</ele>
        <time>2021-06-17T09:58:36Z</time>
      </trkpt>
      <trkpt lat="46.32663" lon="-1.311">
        <ele>2.5</ele>
        <time>2021-06-17T09:58:37Z</time>
      </trkpt>
      <trkpt lat="46.32663" lon="-1.31102">
        <ele>2.5</ele>
        <time>2021-06-17T09:58:38Z</time>
      </trkpt>
      <trkpt lat="46.32664" lon="-1.31103">
        <ele>2.5</ele>
        <time>2021-06-17T09:58:39Z</time>
      </trkpt>
      <trkpt lat="46.32664" lon="-1.31105">
        <ele>2.5</ele>
        <time>2021-06-17T09:58:40Z</time>
      </trkpt>
      <trkpt lat="46.32665" lon="-1.31107">
        <ele>2.5</ele>
        <time>2021-06-17T09:58:41Z</time>
      </trkpt>
      <trkpt lat="46.32665" lon="-1.31108">
        <ele>2.5</ele>
        <time>2021-06-17T09:58:42Z</time>
      </trkpt>
      <trkpt lat="46.32666" lon="-1.3111">
        <ele>2.5</ele>
        <time>2021-06-17T09:58:43Z</time>
      </trkpt>
      <trkpt lat="46.32666" lon="-1.31111">
        <ele>2.5</ele>
        <time>2021-06-17T09:58:44Z</time>
      </trkpt>
      <trkpt lat="46.32667" lon="-1.31113">
        <ele>2.6</ele>
        <time>2021-06-17T09:58:45Z</time>
      </trkpt>
      <trkpt lat="46.32667" lon="-1.31115">
        <ele>2.6</ele>
        <time>2021-06-17T09:58:46Z</time>
      </trkpt>
      <trkpt lat="46.32668" lon="-1.31116">
        <ele>2.6</ele>
        <time>2021-06-17T09:58:47Z</time>
      </trkpt>
      <trkpt lat="46.32668" lon="-1.31118">
        <ele>2.6</ele>
        <time>2021-06-17T09:58:48Z</time>
      </trkpt>
      <trkpt lat="46.32669" lon="-1.3112">
        <ele>2.6</ele>
        <time>2021-06-17T09:58:49Z</time>
      </trkpt>
      <trkpt lat="46.32669" lon="-1.31121">
        <ele>2.6</ele>
        <time>2021-06-17T09:58:50Z</time>
      </trkpt>
      <trkpt lat="46.3267" lon="-1.31123">
        <ele>2.6</ele>
        <time>2021-06-17T09:58:51Z</time>
      </trkpt>
      <trkpt lat="46.3267" lon="-1.31125">
        <ele>2.6</ele>
        <time>2021-06-17T09:58:52Z</time>
      </trkpt>
      <trkpt lat="46.32671" lon="-1.31126">
        <ele>2.7</ele>
        <time>2021-06-17T09:58:53Z</time>
      </trkpt>
      <trkpt lat="46.32671" lon="-1.31128">
        <ele>2.7</ele>
        <time>2021-06-17T09:58:54Z</time>
      </trkpt>
      <trkpt lat="46.32672" lon="-1.3113">
        <ele>2.7</ele>
        <time>2021-06-17T09:58:55Z</time>
      </trkpt>
      <trkpt lat="46.32672" lon="-1.31131">
        <ele>2.7</ele>
        <time>2021-06-17T09:58:56Z</time>
      </trkpt>
      <trkpt lat="46.32673" lon="-1.31133">
        <ele>2.7</ele>
        <time>2021-06-17T09:58:57Z</time>
      </trkpt>
      <trkpt lat="46.32674" lon="-1.31135">
        <ele>2.7</ele>
        <time>2021-06-17T09:58:58Z</time>
      </trkpt>
      <trkpt lat="46.32674" lon="-1.31136">
        <ele>2.8</ele>
        <time>2021-06-17T09:58:59Z</time>
      </trkpt>
      <trkpt lat="46.32675" lon="-1.31138">
        <ele>2.8</ele>
        <time>2021-06-17T09:59:00Z</time>
      </trkpt>
      <trkpt lat="46.32675" lon="-1.31139">
        <ele>2.8</ele>
        <time>2021-06-17T09:59:01Z</time>
      </trkpt>
      <trkpt lat="46.32676" lon="-1.31141">
        <ele>2.8</ele>
        <time>2021-06-17T09:59:02Z</time>
      </trkpt>
      <trkpt lat="46.32676" lon="-1.31143">
        <ele>2.8</ele>
        <time>2021-06-17T09:59:03Z</time>
      </trkpt>
      <trkpt lat="46.32677" lon="-1.31144">
        <ele>2.9</ele>
        <time>2021-06-17T09:59:04Z</time>
      </trkpt>
      <trkpt lat="46.32677" lon="-1.31146">
        <ele>2.9</ele>
        <time>2021-06-17T09:59:05Z</time>
      </trkpt>
      <trkpt lat="46.32678" lon="-1.31148">
        <ele>2.9</ele>
        <time>2021-06-17T09:59:06Z</time>
      </trkpt>
      <trkpt lat="46.32679" lon="-1.3115">
        <ele>2.9</ele>
        <time>2021-06-17T09:59:07Z</time>
      </trkpt>
      <trkpt lat="46.32679" lon="-1.31151">
        <ele>2.9</ele>
        <time>2021-06-17T09:59:08Z</time>
      </trkpt>
      <trkpt lat="46.3268" lon="-1.31153">
        <ele>3</ele>
        <time>2021-06-17T09:59:09Z</time>
      </trkpt>
      <trkpt lat="46.3268" lon="-1.31155">
        <ele>3</ele>
        <time>2021-06-17T09:59:10Z</time>
      </trkpt>
      <trkpt lat="46.32681" lon="-1.31156">
        <ele>3</ele>
        <time>2021-06-17T09:59:11Z</time>
      </trkpt>
      <trkpt lat="46.32681" lon="-1.31158">
        <ele>3</ele>
        <time>2021-06-17T09:59:12Z</time>
      </trkpt>
      <trkpt lat="46.32682" lon="-1.3116">
        <ele>3.1</ele>
        <time>2021-06-17T09:59:13Z</time>
      </trkpt>
      <trkpt lat="46.32682" lon="-1.31161">
        <ele>3.1</ele>
        <time>2021-06-17T09:59:14Z</time>
      </trkpt>
      <trkpt lat="46.32683" lon="-1.31163">
        <ele>3.1</ele>
        <time>2021-06-17T09:59:15Z</time>
      </trkpt>
      <trkpt lat="46.32683" lon="-1.31165">
        <ele>3.1</ele>
        <time>2021-06-17T09:59:16Z</time>
      </trkpt>
      <trkpt lat="46.32684" lon="-1.31166">
        <ele>3.1</ele>
        <time>2021-06-17T09:59:17Z</time>
      </trkpt>
      <trkpt lat="46.32684" lon="-1.31168">
        <ele>3.2</ele>
        <time>2021-06-17T09:59:18Z</time>
      </trkpt>
      <trkpt lat="46.32685" lon="-1.3117">
        <ele>3.2</ele>
        <time>2021-06-17T09:59:19Z</time>
      </trkpt>
      <trkpt lat="46.32685" lon="-1.31171">
        <ele>3.2</ele>
        <time>2021-06-17T09:59:20Z</time>
      </trkpt>
      <trkpt lat="46.32686" lon="-1.31173">
        <ele>3.2</ele>
        <time>2021-06-17T09:59:21Z</time>
      </trkpt>
      <trkpt lat="46.32686" lon="-1.31175">
        <ele>3.3</ele>
        <time>2021-06-17T09:59:22Z</time>
      </trkpt>
      <trkpt lat="46.32687" lon="-1.31176">
        <ele>3.3</ele>
        <time>2021-06-17T09:59:23Z</time>
      </trkpt>
      <trkpt lat="46.32687" lon="-1.31178">
        <ele>3.3</ele>
        <time>2021-06-17T09:59:24Z</time>
      </trkpt>
      <trkpt lat="46.32688" lon="-1.31179">
        <ele>3.3</ele>
        <time>2021-06-17T09:59:25Z</time>
      </trkpt>
      <trkpt lat="46.32688" lon="-1.31181">
        <ele>3.4</ele>
        <time>2021-06-17T09:59:26Z</time>
      </trkpt>
      <trkpt lat="46.32689" lon="-1.31183">
        <ele>3.4</ele>
        <time>2021-06-17T09:59:27Z</time>
      </trkpt>
      <trkpt lat="46.32689" lon="-1.31184">
        <ele>3.4</ele>
        <time>2021-06-17T09:59:28Z</time>
      </trkpt>
      <trkpt lat="46.3269" lon="-1.31186">
        <ele>3.5</ele>
        <time>2021-06-17T09:59:29Z</time>
      </trkpt>
      <trkpt lat="46.32691" lon="-1.31188">
        <ele>3.5</ele>
        <time>2021-06-17T09:59:30Z</time>
      </trkpt>
      <trkpt lat="46.32691" lon="-1.31189">
        <ele>3.5</ele>
        <time>2021-06-17T09:59:31Z</time>
      </trkpt>
      <trkpt lat="46.32692" lon="-1.31191">
        <ele>3.6</ele>
        <time>2021-06-17T09:59:32Z</time>
      </trkpt>
      <trkpt lat="46.32692" lon="-1.31193">
        <ele>3.6</ele>
        <time>2021-06-17T09:59:33Z</time>
      </trkpt>
      <trkpt lat="46.32693" lon="-1.31195">
        <ele>3.7</ele>
        <time>2021-06-17T09:59:34Z</time>
      </trkpt>
      <trkpt lat="46.32694" lon="-1.31197">
        <ele>3.7</ele>
        <time>2021-06-17T09:59:35Z</time>
      </trkpt>
      <trkpt lat="46.32694" lon="-1.31198">
        <ele>3.8</ele>
        <time>2021-06-17T09:59:36Z</time>
      </trkpt>
      <trkpt lat="46.32695" lon="-1.312">
        <ele>3.8</ele>
        <time>2021-06-17T09:59:37Z</time>
      </trkpt>
      <trkpt lat="46.32695" lon="-1.31202">
        <ele>3.9</ele>
        <time>2021-06-17T09:59:38Z</time>
      </trkpt>
      <trkpt lat="46.32696" lon="-1.31204">
        <ele>4</ele>
        <time>2021-06-17T09:59:39Z</time>
      </trkpt>
      <trkpt lat="46.32696" lon="-1.31206">
        <ele>4</ele>
        <time>2021-06-17T09:59:40Z</time>
      </trkpt>
      <trkpt lat="46.32697" lon="-1.31208">
        <ele>4.1</ele>
        <time>2021-06-17T09:59:41Z</time>
      </trkpt>
      <trkpt lat="46.32697" lon="-1.3121">
        <ele>4.1</ele>
        <time>2021-06-17T09:59:42Z</time>
      </trkpt>
      <trkpt lat="46.32698" lon="-1.31211">
        <ele>4.2</ele>
        <time>2021-06-17T09:59:43Z</time>
      </trkpt>
      <trkpt lat="46.32698" lon="-1.31213">
        <ele>4.2</ele>
        <time>2021-06-17T09:59:44Z</time>
      </trkpt>
      <trkpt lat="46.32698" lon="-1.31215">
        <ele>4.3</ele>
        <time>2021-06-17T09:59:45Z</time>
      </trkpt>
      <trkpt lat="46.32699" lon="-1.31218">
        <ele>4.4</ele>
        <time>2021-06-17T09:59:46Z</time>
      </trkpt>
      <trkpt lat="46.32699" lon="-1.31219">
        <ele>4.4</ele>
        <time>2021-06-17T09:59:47Z</time>
      </trkpt>
      <trkpt lat="46.32698" lon="-1.3122">
        <ele>4.4</ele>
        <time>2021-06-17T09:59:48Z</time>
      </trkpt>
      <trkpt lat="46.32698" lon="-1.31222">
        <ele>4.5</ele>
        <time>2021-06-17T09:59:49Z</time>
      </trkpt>
      <trkpt lat="46.32698" lon="-1.31223">
        <ele>4.5</ele>
        <time>2021-06-17T09:59:50Z</time>
      </trkpt>
      <trkpt lat="46.32698" lon="-1.31225">
        <ele>4.5</ele>
        <time>2021-06-17T09:59:51Z</time>
      </trkpt>
      <trkpt lat="46.32698" lon="-1.31226">
        <ele>4.6</ele>
        <time>2021-06-17T09:59:52Z</time>
      </trkpt>
      <trkpt lat="46.32698" lon="-1.31227">
        <ele>4.6</ele>
        <time>2021-06-17T09:59:53Z</time>
      </trkpt>
      <trkpt lat="46.32698" lon="-1.31229">
        <ele>4.6</ele>
        <time>2021-06-17T09:59:54Z</time>
      </trkpt>
      <trkpt lat="46.32698" lon="-1.3123">
        <ele>4.7</ele>
        <time>2021-06-17T09:59:55Z</time>
      </trkpt>
      <trkpt lat="46.32698" lon="-1.31231">
        <ele>4.7</ele>
        <time>2021-06-17T09:59:56Z</time>
      </trkpt>
      <trkpt lat="46.32697" lon="-1.31233">
        <ele>4.7</ele>
        <time>2021-06-17T09:59:57Z</time>
      </trkpt>
      <trkpt lat="46.32697" lon="-1.31234">
        <ele>4.7</ele>
        <time>2021-06-17T09:59:58Z</time>
      </trkpt>
      <trkpt lat="46.32697" lon="-1.31236">
        <ele>4.7</ele>
        <time>2021-06-17T09:59:59Z</time>
      </trkpt>
      <trkpt lat="46.32697" lon="-1.31237">
        <ele>4.7</ele>
        <time>2021-06-17T10:00:00Z</time>
      </trkpt>
      <trkpt lat="46.32697" lon="-1.31238">
        <ele>4.8</ele>
        <time>2021-06-17T10:00:01Z</time>
      </trkpt>
      <trkpt lat="46.32696" lon="-1.3124">
        <ele>4.8</ele>
        <time>2021-06-17T10:00:02Z</time>
      </trkpt>
      <trkpt lat="46.32696" lon="-1.31241">
        <ele>4.8</ele>
        <time>2021-06-17T10:00:03Z</time>
      </trkpt>
      <trkpt lat="46.32695" lon="-1.31243">
        <ele>4.8</ele>
        <time>2021-06-17T10:00:04Z</time>
      </trkpt>
      <trkpt lat="46.32694" lon="-1.31244">
        <ele>4.8</ele>
        <time>2021-06-17T10:00:05Z</time>
      </trkpt>
      <trkpt lat="46.32694" lon="-1.31246">
        <ele>4.7</ele>
        <time>2021-06-17T10:00:06Z</time>
      </trkpt>
      <trkpt lat="46.32693" lon="-1.31247">
        <ele>4.6</ele>
        <time>2021-06-17T10:00:07Z</time>
      </trkpt>
      <trkpt lat="46.32692" lon="-1.31249">
        <ele>4.6</ele>
        <time>2021-06-17T10:00:08Z</time>
      </trkpt>
      <trkpt lat="46.32691" lon="-1.3125">
        <ele>4.5</ele>
        <time>2021-06-17T10:00:09Z</time>
      </trkpt>
      <trkpt lat="46.32691" lon="-1.31252">
        <ele>4.5</ele>
        <time>2021-06-17T10:00:10Z</time>
      </trkpt>
      <trkpt lat="46.3269" lon="-1.31253">
        <ele>4.4</ele>
        <time>2021-06-17T10:00:11Z</time>
      </trkpt>
      <trkpt lat="46.32689" lon="-1.31255">
        <ele>4.3</ele>
        <time>2021-06-17T10:00:12Z</time>
      </trkpt>
      <trkpt lat="46.32689" lon="-1.31256">
        <ele>4.3</ele>
        <time>2021-06-17T10:00:13Z</time>
      </trkpt>
      <trkpt lat="46.32688" lon="-1.31258">
        <ele>4.2</ele>
        <time>2021-06-17T10:00:14Z</time>
      </trkpt>
      <trkpt lat="46.32687" lon="-1.31259">
        <ele>4.2</ele>
        <time>2021-06-17T10:00:15Z</time>
      </trkpt>
      <trkpt lat="46.32687" lon="-1.31261">
        <ele>4.1</ele>
        <time>2021-06-17T10:00:16Z</time>
      </trkpt>
      <trkpt lat="46.32686" lon="-1.31262">
        <ele>4.1</ele>
        <time>2021-06-17T10:00:17Z</time>
      </trkpt>
      <trkpt lat="46.32686" lon="-1.31264">
        <ele>4</ele>
        <time>2021-06-17T10:00:18Z</time>
      </trkpt>
      <trkpt lat="46.32685" lon="-1.31266">
        <ele>4</ele>
        <time>2021-06-17T10:00:19Z</time>
      </trkpt>
      <trkpt lat="46.32685" lon="-1.31267">
        <ele>4</ele>
        <time>2021-06-17T10:00:20Z</time>
      </trkpt>
      <trkpt lat="46.32684" lon="-1.31269">
        <ele>3.9</ele>
        <time>2021-06-17T10:00:21Z</time>
      </trkpt>
      <trkpt lat="46.32683" lon="-1.31271">
        <ele>3.9</ele>
        <time>2021-06-17T10:00:22Z</time>
      </trkpt>
      <trkpt lat="46.32683" lon="-1.31272">
        <ele>3.8</ele>
        <time>2021-06-17T10:00:23Z</time>
      </trkpt>
      <trkpt lat="46.32682" lon="-1.31274">
        <ele>3.8</ele>
        <time>2021-06-17T10:00:24Z</time>
      </trkpt>
      <trkpt lat="46.32681" lon="-1.31276">
        <ele>3.7</ele>
        <time>2021-06-17T10:00:25Z</time>
      </trkpt>
      <trkpt lat="46.3268" lon="-1.31277">
        <ele>3.7</ele>
        <time>2021-06-17T10:00:26Z</time>
      </trkpt>
      <trkpt lat="46.32679" lon="-1.31279">
        <ele>3.7</ele>
        <time>2021-06-17T10:00:27Z</time>
      </trkpt>
      <trkpt lat="46.32678" lon="-1.3128">
        <ele>3.6</ele>
        <time>2021-06-17T10:00:28Z</time>
      </trkpt>
      <trkpt lat="46.32677" lon="-1.31281">
        <ele>3.6</ele>
        <time>2021-06-17T10:00:29Z</time>
      </trkpt>
      <trkpt lat="46.32676" lon="-1.31283">
        <ele>3.6</ele>
        <time>2021-06-17T10:00:30Z</time>
      </trkpt>
      <trkpt lat="46.32675" lon="-1.31284">
        <ele>3.5</ele>
        <time>2021-06-17T10:00:31Z</time>
      </trkpt>
      <trkpt lat="46.32674" lon="-1.31285">
        <ele>3.4</ele>
        <time>2021-06-17T10:00:32Z</time>
      </trkpt>
      <trkpt lat="46.32673" lon="-1.31286">
        <ele>3.4</ele>
        <time>2021-06-17T10:00:33Z</time>
      </trkpt>
      <trkpt lat="46.32672" lon="-1.31288">
        <ele>3.4</ele>
        <time>2021-06-17T10:00:34Z</time>
      </trkpt>
      <trkpt lat="46.32672" lon="-1.31289">
        <ele>3.4</ele>
        <time>2021-06-17T10:00:35Z</time>
      </trkpt>
      <trkpt lat="46.32671" lon="-1.3129">
        <ele>3.4</ele>
        <time>2021-06-17T10:00:36Z</time>
      </trkpt>
      <trkpt lat="46.3267" lon="-1.31291">
        <ele>3.4</ele>
        <time>2021-06-17T10:00:37Z</time>
      </trkpt>
      <trkpt lat="46.32669" lon="-1.31292">
        <ele>3.4</ele>
        <time>2021-06-17T10:00:38Z</time>
      </trkpt>
      <trkpt lat="46.32668" lon="-1.31293">
        <ele>3.4</ele>
        <time>2021-06-17T10:00:39Z</time>
      </trkpt>
      <trkpt lat="46.32667" lon="-1.31294">
        <ele>3.4</ele>
        <time>2021-06-17T10:00:40Z</time>
      </trkpt>
      <trkpt lat="46.32666" lon="-1.31295">
        <ele>3.4</ele>
        <time>2021-06-17T10:00:41Z</time>
      </trkpt>
      <trkpt lat="46.32665" lon="-1.31296">
        <ele>3.4</ele>
        <time>2021-06-17T10:00:42Z</time>
      </trkpt>
      <trkpt lat="46.32664" lon="-1.31297">
        <ele>3.4</ele>
        <time>2021-06-17T10:00:43Z</time>
      </trkpt>
      <trkpt lat="46.32664" lon="-1.31297">
        <ele>3.4</ele>
        <time>2021-06-17T10:00:44Z</time>
      </trkpt>
      <trkpt lat="46.32663" lon="-1.31298">
        <ele>3.4</ele>
        <time>2021-06-17T10:00:45Z</time>
      </trkpt>
      <trkpt lat="46.32662" lon="-1.31299">
        <ele>3.4</ele>
        <time>2021-06-17T10:00:46Z</time>
      </trkpt>
      <trkpt lat="46.32661" lon="-1.313">
        <ele>3.4</ele>
        <time>2021-06-17T10:00:47Z</time>
      </trkpt>
      <trkpt lat="46.3266" lon="-1.31301">
        <ele>3.3</ele>
        <time>2021-06-17T10:00:48Z</time>
      </trkpt>
      <trkpt lat="46.32659" lon="-1.31302">
        <ele>3.3</ele>
        <time>2021-06-17T10:00:49Z</time>
      </trkpt>
      <trkpt lat="46.32658" lon="-1.31302">
        <ele>3.3</ele>
        <time>2021-06-17T10:00:50Z</time>
      </trkpt>
      <trkpt lat="46.32657" lon="-1.31303">
        <ele>3.3</ele>
        <time>2021-06-17T10:00:51Z</time>
      </trkpt>
      <trkpt lat="46.32656" lon="-1.31304">
        <ele>3.3</ele>
        <time>2021-06-17T10:00:52Z</time>
      </trkpt>
      <trkpt lat="46.32655" lon="-1.31305">
        <ele>3.3</ele>
        <time>2021-06-17T10:00:53Z</time>
      </trkpt>
      <trkpt lat="46.32654" lon="-1.31306">
        <ele>3.3</ele>
        <time>2021-06-17T10:00:54Z</time>
      </trkpt>
      <trkpt lat="46.32653" lon="-1.31307">
        <ele>3.3</ele>
        <time>2021-06-17T10:00:55Z</time>
      </trkpt>
      <trkpt lat="46.32652" lon="-1.31308">
        <ele>3.3</ele>
        <time>2021-06-17T10:00:56Z</time>
      </trkpt>
      <trkpt lat="46.32651" lon="-1.31309">
        <ele>3.3</ele>
        <time>2021-06-17T10:00:57Z</time>
      </trkpt>
      <trkpt lat="46.3265" lon="-1.3131">
        <ele>3.3</ele>
        <time>2021-06-17T10:00:58Z</time>
      </trkpt>
      <trkpt lat="46.32649" lon="-1.31311">
        <ele>3.3</ele>
        <time>2021-06-17T10:00:59Z</time>
      </trkpt>
      <trkpt lat="46.32648" lon="-1.31312">
        <ele>3.3</ele>
        <time>2021-06-17T10:01:00Z</time>
      </trkpt>
      <trkpt lat="46.32648" lon="-1.31313">
        <ele>3.3</ele>
        <time>2021-06-17T10:01:01Z</time>
      </trkpt>
      <trkpt lat="46.32647" lon="-1.31314">
        <ele>3.3</ele>
        <time>2021-06-17T10:01:02Z</time>
      </trkpt>
      <trkpt lat="46.32647" lon="-1.31315">
        <ele>3.3</ele>
        <time>2021-06-17T10:01:03Z</time>
      </trkpt>
      <trkpt lat="46.32647" lon="-1.31316">
        <ele>3.3</ele>
        <time>2021-06-17T10:01:04Z</time>
      </trkpt>
      <trkpt lat="46.32647" lon="-1.31317">
        <ele>3.3</ele>
        <time>2021-06-17T10:01:05Z</time>
      </trkpt>
      <trkpt lat="46.32647" lon="-1.31317">
        <ele>3.3</ele>
        <time>2021-06-17T10:01:06Z</time>
      </trkpt>
      <trkpt lat="46.32647" lon="-1.31318">
        <ele>3.3</ele>
        <time>2021-06-17T10:01:07Z</time>
      </trkpt>
      <trkpt lat="46.32647" lon="-1.31318">
        <ele>3.3</ele>
        <time>2021-06-17T10:01:08Z</time>
      </trkpt>
      <trkpt lat="46.32647" lon="-1.31318">
        <ele>3.3</ele>
        <time>2021-06-17T10:01:09Z</time>
      </trkpt>
      <trkpt lat="46.32647" lon="-1.31318">
        <ele>3.3</ele>
        <time>2021-06-17T10:01:10Z</time>
      </trkpt>
      <trkpt lat="46.32647" lon="-1.31319">
        <ele>3.3</ele>
        <time>2021-06-17T10:01:11Z</time>
      </trkpt>
      <trkpt lat="46.32647" lon="-1.31319">
        <ele>3.3</ele>
        <time>2021-06-17T10:01:12Z</time>
      </trkpt>
      <trkpt lat="46.32647" lon="-1.31319">
        <ele>3.3</ele>
        <time>2021-06-17T10:01:13Z</time>
      </trkpt>
      <trkpt lat="46.32647" lon="-1.3132">
        <ele>3.3</ele>
        <time>2021-06-17T10:01:14Z</time>
      </trkpt>
      <trkpt lat="46.32647" lon="-1.3132">
        <ele>3.3</ele>
        <time>2021-06-17T10:01:15Z</time>
      </trkpt>
      <trkpt lat="46.32647" lon="-1.31321">
        <ele>3.3</ele>
        <time>2021-06-17T10:01:16Z</time>
      </trkpt>
      <trkpt lat="46.32647" lon="-1.31321">
        <ele>3.3</ele>
        <time>2021-06-17T10:01:17Z</time>
      </trkpt>
      <trkpt lat="46.32648" lon="-1.31321">
        <ele>3.3</ele>
        <time>2021-06-17T10:01:18Z</time>
      </trkpt>
      <trkpt lat="46.32648" lon="-1.31321">
        <ele>3.3</ele>
        <time>2021-06-17T10:01:19Z</time>
      </trkpt>
      <trkpt lat="46.32648" lon="-1.31321">
        <ele>3.3</ele>
        <time>2021-06-17T10:01:20Z</time>
      </trkpt>
      <trkpt lat="46.32648" lon="-1.31321">
        <ele>3.3</ele>
        <time>2021-06-17T10:01:21Z</time>
      </trkpt>
      <trkpt lat="46.32648" lon="-1.31321">
        <ele>3.3</ele>
        <time>2021-06-17T10:01:22Z</time>
      </trkpt>
      <trkpt lat="46.32648" lon="-1.31321">
        <ele>3.3</ele>
        <time>2021-06-17T10:01:23Z</time>
      </trkpt>
      <trkpt lat="46.32647" lon="-1.31322">
        <ele>3.2</ele>
        <time>2021-06-17T10:01:24Z</time>
      </trkpt>
      <trkpt lat="46.32647" lon="-1.31322">
        <ele>3.2</ele>
        <time>2021-06-17T10:01:25Z</time>
      </trkpt>
      <trkpt lat="46.32647" lon="-1.31323">
        <ele>3.2</ele>
        <time>2021-06-17T10:01:26Z</time>
      </trkpt>
      <trkpt lat="46.32647" lon="-1.31323">
        <ele>3.2</ele>
        <time>2021-06-17T10:01:27Z</time>
      </trkpt>
      <trkpt lat="46.32646" lon="-1.31324">
        <ele>3.2</ele>
        <time>2021-06-17T10:01:28Z</time>
      </trkpt>
      <trkpt lat="46.32646" lon="-1.31325">
        <ele>3.2</ele>
        <time>2021-06-17T10:01:29Z</time>
      </trkpt>
      <trkpt lat="46.32646" lon="-1.31327">
        <ele>3.2</ele>
        <time>2021-06-17T10:01:30Z</time>
      </trkpt>
      <trkpt lat="46.32646" lon="-1.31328">
        <ele>3.2</ele>
        <time>2021-06-17T10:01:31Z</time>
      </trkpt>
      <trkpt lat="46.32645" lon="-1.31329">
        <ele>3.2</ele>
        <time>2021-06-17T10:01:32Z</time>
      </trkpt>
      <trkpt lat="46.32645" lon="-1.3133">
        <ele>3.2</ele>
        <time>2021-06-17T10:01:33Z</time>
      </trkpt>
      <trkpt lat="46.32645" lon="-1.31332">
        <ele>3.2</ele>
        <time>2021-06-17T10:01:34Z</time>
      </trkpt>
      <trkpt lat="46.32645" lon="-1.31333">
        <ele>3.2</ele>
        <time>2021-06-17T10:01:35Z</time>
      </trkpt>
      <trkpt lat="46.32645" lon="-1.31334">
        <ele>3.2</ele>
        <time>2021-06-17T10:01:36Z</time>
      </trkpt>
      <trkpt lat="46.32645" lon="-1.31335">
        <ele>3.2</ele>
        <time>2021-06-17T10:01:37Z</time>
      </trkpt>
      <trkpt lat="46.32645" lon="-1.31336">
        <ele>3.2</ele>
        <time>2021-06-17T10:01:38Z</time>
      </trkpt>
      <trkpt lat="46.32645" lon="-1.31337">
        <ele>3.2</ele>
        <time>2021-06-17T10:01:39Z</time>
      </trkpt>
      <trkpt lat="46.32645" lon="-1.31338">
        <ele>3.2</ele>
        <time>2021-06-17T10:01:40Z</time>
      </trkpt>
      <trkpt lat="46.32645" lon="-1.31339">
        <ele>3.2</ele>
        <time>2021-06-17T10:01:41Z</time>
      </trkpt>
      <trkpt lat="46.32645" lon="-1.3134">
        <ele>3.2</ele>
        <time>2021-06-17T10:01:42Z</time>
      </trkpt>
      <trkpt lat="46.32645" lon="-1.3134">
        <ele>3.2</ele>
        <time>2021-06-17T10:01:43Z</time>
      </trkpt>
      <trkpt lat="46.32645" lon="-1.3134">
        <ele>3.2</ele>
        <time>2021-06-17T10:01:44Z</time>
      </trkpt>
      <trkpt lat="46.32645" lon="-1.3134">
        <ele>3.2</ele>
        <time>2021-06-17T10:01:45Z</time>
      </trkpt>
      <trkpt lat="46.32645" lon="-1.3134">
        <ele>3.2</ele>
        <time>2021-06-17T10:01:46Z</time>
      </trkpt>
      <trkpt lat="46.32645" lon="-1.3134">
        <ele>3.2</ele>
        <time>2021-06-17T10:01:47Z</time>
      </trkpt>
      <trkpt lat="46.32645" lon="-1.3134">
        <ele>3.2</ele>
        <time>2021-06-17T10:01:48Z</time>
      </trkpt>
      <trkpt lat="46.32645" lon="-1.3134">
        <ele>3.2</ele>
        <time>2021-06-17T10:01:49Z</time>
      </trkpt>
      <trkpt lat="46.32645" lon="-1.3134">
        <ele>3.2</ele>
        <time>2021-06-17T10:01:50Z</time>
      </trkpt>
      <trkpt lat="46.32645" lon="-1.3134">
        <ele>3.2</ele>
        <time>2021-06-17T10:01:51Z</time>
      </trkpt>
      <trkpt lat="46.32645" lon="-1.3134">
        <ele>3.2</ele>
        <time>2021-06-17T10:01:52Z</time>
      </trkpt>
      <trkpt lat="46.32645" lon="-1.3134">
        <ele>3.2</ele>
        <time>2021-06-17T10:01:53Z</time>
      </trkpt>
      <trkpt lat="46.32645" lon="-1.3134">
        <ele>3.2</ele>
        <time>2021-06-17T10:01:54Z</time>
      </trkpt>
      <trkpt lat="46.32645" lon="-1.3134">
        <ele>3.2</ele>
        <time>2021-06-17T10:01:55Z</time>
      </trkpt>
      <trkpt lat="46.32645" lon="-1.3134">
        <ele>3.2</ele>
        <time>2021-06-17T10:01:56Z</time>
      </trkpt>
      <trkpt lat="46.32645" lon="-1.3134">
        <ele>3.2</ele>
        <time>2021-06-17T10:01:57Z</time>
      </trkpt>
      <trkpt lat="46.32645" lon="-1.3134">
        <ele>3.2</ele>
        <time>2021-06-17T10:01:58Z</time>
      </trkpt>
      <trkpt lat="46.32645" lon="-1.3134">
        <ele>3.2</ele>
        <time>2021-06-17T10:01:59Z</time>
      </trkpt>
      <trkpt lat="46.32645" lon="-1.3134">
        <ele>3.2</ele>
        <time>2021-06-17T10:02:00Z</time>
      </trkpt>
      <trkpt lat="46.32644" lon="-1.3134">
        <ele>3.2</ele>
        <time>2021-06-17T10:02:01Z</time>
      </trkpt>
      <trkpt lat="46.32644" lon="-1.3134">
        <ele>3.2</ele>
        <time>2021-06-17T10:02:02Z</time>
      </trkpt>
      <trkpt lat="46.32644" lon="-1.31339">
        <ele>3.2</ele>
        <time>2021-06-17T10:02:03Z</time>
      </trkpt>
      <trkpt lat="46.32643" lon="-1.31338">
        <ele>3.2</ele>
        <time>2021-06-17T10:02:04Z</time>
      </trkpt>
      <trkpt lat="46.32643" lon="-1.31337">
        <ele>3.2</ele>
        <time>2021-06-17T10:02:05Z</time>
      </trkpt>
      <trkpt lat="46.32643" lon="-1.31336">
        <ele>3.2</ele>
        <time>2021-06-17T10:02:06Z</time>
      </trkpt>
      <trkpt lat="46.32643" lon="-1.31334">
        <ele>3.2</ele>
        <time>2021-06-17T10:02:07Z</time>
      </trkpt>
      <trkpt lat="46.32643" lon="-1.31333">
        <ele>3.2</ele>
        <time>2021-06-17T10:02:08Z</time>
      </trkpt>
      <trkpt lat="46.32643" lon="-1.31331">
        <ele>3.2</ele>
        <time>2021-06-17T10:02:09Z</time>
      </trkpt>
      <trkpt lat="46.32644" lon="-1.31329">
        <ele>3.2</ele>
        <time>2021-06-17T10:02:10Z</time>
      </trkpt>
      <trkpt lat="46.32644" lon="-1.31328">
        <ele>3.1</ele>
        <time>2021-06-17T10:02:11Z</time>
      </trkpt>
      <trkpt lat="46.32645" lon="-1.31327">
        <ele>3.2</ele>
        <time>2021-06-17T10:02:12Z</time>
      </trkpt>
      <trkpt lat="46.32645" lon="-1.31326">
        <ele>3.2</ele>
        <time>2021-06-17T10:02:13Z</time>
      </trkpt>
      <trkpt lat="46.32646" lon="-1.31325">
        <ele>3.2</ele>
        <time>2021-06-17T10:02:14Z</time>
      </trkpt>
      <trkpt lat="46.32646" lon="-1.31324">
        <ele>3.2</ele>
        <time>2021-06-17T10:02:15Z</time>
      </trkpt>
      <trkpt lat="46.32647" lon="-1.31323">
        <ele>3.2</ele>
        <time>2021-06-17T10:02:16Z</time>
      </trkpt>
      <trkpt lat="46.32647" lon="-1.31323">
        <ele>3.2</ele>
        <time>2021-06-17T10:02:17Z</time>
      </trkpt>
      <trkpt lat="46.32648" lon="-1.31322">
        <ele>3.2</ele>
        <time>2021-06-17T10:02:18Z</time>
      </trkpt>
      <trkpt lat="46.32648" lon="-1.31322">
        <ele>3.2</ele>
        <time>2021-06-17T10:02:19Z</time>
      </trkpt>
      <trkpt lat="46.32648" lon="-1.31321">
        <ele>3.2</ele>
        <time>2021-06-17T10:02:20Z</time>
      </trkpt>
      <trkpt lat="46.32648" lon="-1.31321">
        <ele>3.2</ele>
        <time>2021-06-17T10:02:21Z</time>
      </trkpt>
      <trkpt lat="46.32648" lon="-1.3132">
        <ele>3.2</ele>
        <time>2021-06-17T10:02:22Z</time>
      </trkpt>
      <trkpt lat="46.32648" lon="-1.3132">
        <ele>3.2</ele>
        <time>2021-06-17T10:02:23Z</time>
      </trkpt>
      <trkpt lat="46.32648" lon="-1.3132">
        <ele>3.2</ele>
        <time>2021-06-17T10:02:24Z</time>
      </trkpt>
      <trkpt lat="46.32648" lon="-1.3132">
        <ele>3.2</ele>
        <time>2021-06-17T10:02:25Z</time>
      </trkpt>
      <trkpt lat="46.32648" lon="-1.3132">
        <ele>3.2</ele>
        <time>2021-06-17T10:02:26Z</time>
      </trkpt>
      <trkpt lat="46.32648" lon="-1.3132">
        <ele>3.2</ele>
        <time>2021-06-17T10:02:27Z</time>
      </trkpt>
      <trkpt lat="46.32648" lon="-1.3132">
        <ele>3.2</ele>
        <time>2021-06-17T10:02:28Z</time>
      </trkpt>
      <trkpt lat="46.32648" lon="-1.3132">
        <ele>3.2</ele>
        <time>2021-06-17T10:02:29Z</time>
      </trkpt>
      <trkpt lat="46.32648" lon="-1.3132">
        <ele>3.2</ele>
        <time>2021-06-17T10:02:30Z</time>
      </trkpt>
      <trkpt lat="46.32648" lon="-1.3132">
        <ele>3.2</ele>
        <time>2021-06-17T10:02:31Z</time>
      </trkpt>
      <trkpt lat="46.32648" lon="-1.3132">
        <ele>3.2</ele>
        <time>2021-06-17T10:02:32Z</time>
      </trkpt>
      <trkpt lat="46.32648" lon="-1.3132">
        <ele>3.2</ele>
        <time>2021-06-17T10:02:33Z</time>
      </trkpt>
      <trkpt lat="46.32648" lon="-1.31319">
        <ele>3.2</ele>
        <time>2021-06-17T10:02:34Z</time>
      </trkpt>
      <trkpt lat="46.32647" lon="-1.31319">
        <ele>3.2</ele>
        <time>2021-06-17T10:02:35Z</time>
      </trkpt>
      <trkpt lat="46.32647" lon="-1.31319">
        <ele>3.2</ele>
        <time>2021-06-17T10:02:36Z</time>
      </trkpt>
      <trkpt lat="46.32647" lon="-1.31318">
        <ele>3.2</ele>
        <time>2021-06-17T10:02:37Z</time>
      </trkpt>
      <trkpt lat="46.32647" lon="-1.31318">
        <ele>3.2</ele>
        <time>2021-06-17T10:02:38Z</time>
      </trkpt>
      <trkpt lat="46.32647" lon="-1.31317">
        <ele>3.2</ele>
        <time>2021-06-17T10:02:39Z</time>
      </trkpt>
      <trkpt lat="46.32647" lon="-1.31317">
        <ele>3.2</ele>
        <time>2021-06-17T10:02:40Z</time>
      </trkpt>
      <trkpt lat="46.32647" lon="-1.31316">
        <ele>3.2</ele>
        <time>2021-06-17T10:02:41Z</time>
      </trkpt>
      <trkpt lat="46.32647" lon="-1.31316">
        <ele>3.2</ele>
        <time>2021-06-17T10:02:42Z</time>
      </trkpt>
      <trkpt lat="46.32647" lon="-1.31316">
        <ele>3.2</ele>
        <time>2021-06-17T10:02:43Z</time>
      </trkpt>
      <trkpt lat="46.32647" lon="-1.31316">
        <ele>3.2</ele>
        <time>2021-06-17T10:02:44Z</time>
      </trkpt>
      <trkpt lat="46.32647" lon="-1.31316">
        <ele>3.2</ele>
        <time>2021-06-17T10:02:45Z</time>
      </trkpt>
      <trkpt lat="46.32647" lon="-1.31316">
        <ele>3.2</ele>
        <time>2021-06-17T10:02:46Z</time>
      </trkpt>
      <trkpt lat="46.32647" lon="-1.31316">
        <ele>3.2</ele>
        <time>2021-06-17T10:02:47Z</time>
      </trkpt>
      <trkpt lat="46.32647" lon="-1.31316">
        <ele>3.2</ele>
        <time>2021-06-17T10:02:48Z</time>
      </trkpt>
      <trkpt lat="46.32647" lon="-1.31316">
        <ele>3.2</ele>
        <time>2021-06-17T10:02:49Z</time>
      </trkpt>
      <trkpt lat="46.32647" lon="-1.31316">
        <ele>3.2</ele>
        <time>2021-06-17T10:02:50Z</time>
      </trkpt>
      <trkpt lat="46.32647" lon="-1.31316">
        <ele>3.2</ele>
        <time>2021-06-17T10:02:51Z</time>
      </trkpt>
      <trkpt lat="46.32647" lon="-1.31316">
        <ele>3.2</ele>
        <time>2021-06-17T10:02:52Z</time>
      </trkpt>
      <trkpt lat="46.32647" lon="-1.31316">
        <ele>3.2</ele>
        <time>2021-06-17T10:02:53Z</time>
      </trkpt>
      <trkpt lat="46.32647" lon="-1.31315">
        <ele>3.2</ele>
        <time>2021-06-17T10:02:54Z</time>
      </trkpt>
      <trkpt lat="46.32647" lon="-1.31315">
        <ele>3.2</ele>
        <time>2021-06-17T10:02:55Z</time>
      </trkpt>
      <trkpt lat="46.32647" lon="-1.31314">
        <ele>3.2</ele>
        <time>2021-06-17T10:02:56Z</time>
      </trkpt>
      <trkpt lat="46.32647" lon="-1.31313">
        <ele>3.2</ele>
        <time>2021-06-17T10:02:57Z</time>
      </trkpt>
      <trkpt lat="46.32647" lon="-1.31313">
        <ele>3.2</ele>
        <time>2021-06-17T10:02:58Z</time>
      </trkpt>
      <trkpt lat="46.32648" lon="-1.31312">
        <ele>3.2</ele>
        <time>2021-06-17T10:02:59Z</time>
      </trkpt>
      <trkpt lat="46.32648" lon="-1.3131">
        <ele>3.2</ele>
        <time>2021-06-17T10:03:00Z</time>
      </trkpt>
      <trkpt lat="46.32649" lon="-1.31309">
        <ele>3.2</ele>
        <time>2021-06-17T10:03:01Z</time>
      </trkpt>
      <trkpt lat="46.32649" lon="-1.31308">
        <ele>3.2</ele>
        <time>2021-06-17T10:03:02Z</time>
      </trkpt>
      <trkpt lat="46.3265" lon="-1.31306">
        <ele>3.2</ele>
        <time>2021-06-17T10:03:03Z</time>
      </trkpt>
      <trkpt lat="46.3265" lon="-1.31305">
        <ele>3.3</ele>
        <time>2021-06-17T10:03:04Z</time>
      </trkpt>
      <trkpt lat="46.32651" lon="-1.31304">
        <ele>3.3</ele>
        <time>2021-06-17T10:03:05Z</time>
      </trkpt>
      <trkpt lat="46.32652" lon="-1.31302">
        <ele>3.3</ele>
        <time>2021-06-17T10:03:06Z</time>
      </trkpt>
      <trkpt lat="46.32653" lon="-1.31301">
        <ele>3.3</ele>
        <time>2021-06-17T10:03:07Z</time>
      </trkpt>
      <trkpt lat="46.32654" lon="-1.31299">
        <ele>3.3</ele>
        <time>2021-06-17T10:03:08Z</time>
      </trkpt>
      <trkpt lat="46.32656" lon="-1.31298">
        <ele>3.3</ele>
        <time>2021-06-17T10:03:09Z</time>
      </trkpt>
      <trkpt lat="46.32657" lon="-1.31297">
        <ele>3.3</ele>
        <time>2021-06-17T10:03:10Z</time>
      </trkpt>
      <trkpt lat="46.32657" lon="-1.31296">
        <ele>3.3</ele>
        <time>2021-06-17T10:03:11Z</time>
      </trkpt>
      <trkpt lat="46.32658" lon="-1.31296">
        <ele>3.3</ele>
        <time>2021-06-17T10:03:12Z</time>
      </trkpt>
      <trkpt lat="46.32658" lon="-1.31295">
        <ele>3.3</ele>
        <time>2021-06-17T10:03:13Z</time>
      </trkpt>
      <trkpt lat="46.32658" lon="-1.31295">
        <ele>3.3</ele>
        <time>2021-06-17T10:03:14Z</time>
      </trkpt>
      <trkpt lat="46.32659" lon="-1.31294">
        <ele>3.3</ele>
        <time>2021-06-17T10:03:15Z</time>
      </trkpt>
      <trkpt lat="46.3266" lon="-1.31294">
        <ele>3.3</ele>
        <time>2021-06-17T10:03:16Z</time>
      </trkpt>
      <trkpt lat="46.32661" lon="-1.31293">
        <ele>3.3</ele>
        <time>2021-06-17T10:03:17Z</time>
      </trkpt>
      <trkpt lat="46.32661" lon="-1.31293">
        <ele>3.3</ele>
        <time>2021-06-17T10:03:18Z</time>
      </trkpt>
      <trkpt lat="46.32662" lon="-1.31292">
        <ele>3.3</ele>
        <time>2021-06-17T10:03:19Z</time>
      </trkpt>
      <trkpt lat="46.32662" lon="-1.31292">
        <ele>3.3</ele>
        <time>2021-06-17T10:03:20Z</time>
      </trkpt>
      <trkpt lat="46.32662" lon="-1.31292">
        <ele>3.3</ele>
        <time>2021-06-17T10:03:21Z</time>
      </trkpt>
      <trkpt lat="46.32663" lon="-1.31291">
        <ele>3.4</ele>
        <time>2021-06-17T10:03:22Z</time>
      </trkpt>
      <trkpt lat="46.32663" lon="-1.31291">
        <ele>3.4</ele>
        <time>2021-06-17T10:03:23Z</time>
      </trkpt>
      <trkpt lat="46.32663" lon="-1.31291">
        <ele>3.4</ele>
        <time>2021-06-17T10:03:24Z</time>
      </trkpt>
      <trkpt lat="46.32663" lon="-1.31291">
        <ele>3.4</ele>
        <time>2021-06-17T10:03:25Z</time>
      </trkpt>
      <trkpt lat="46.32663" lon="-1.31291">
        <ele>3.4</ele>
        <time>2021-06-17T10:03:26Z</time>
      </trkpt>
      <trkpt lat="46.32663" lon="-1.31291">
        <ele>3.4</ele>
        <time>2021-06-17T10:03:27Z</time>
      </trkpt>
      <trkpt lat="46.32663" lon="-1.31291">
        <ele>3.4</ele>
        <time>2021-06-17T10:03:28Z</time>
      </trkpt>
      <trkpt lat="46.32663" lon="-1.31291">
        <ele>3.4</ele>
        <time>2021-06-17T10:03:29Z</time>
      </trkpt>
      <trkpt lat="46.32663" lon="-1.31291">
        <ele>3.4</ele>
        <time>2021-06-17T10:03:30Z</time>
      </trkpt>
      <trkpt lat="46.32663" lon="-1.31291">
        <ele>3.4</ele>
        <time>2021-06-17T10:03:31Z</time>
      </trkpt>
      <trkpt lat="46.32663" lon="-1.31291">
        <ele>3.4</ele>
        <time>2021-06-17T10:03:32Z</time>
      </trkpt>
      <trkpt lat="46.32664" lon="-1.3129">
        <ele>3.4</ele>
        <time>2021-06-17T10:03:33Z</time>
      </trkpt>
      <trkpt lat="46.32664" lon="-1.3129">
        <ele>3.4</ele>
        <time>2021-06-17T10:03:34Z</time>
      </trkpt>
      <trkpt lat="46.32665" lon="-1.31289">
        <ele>3.4</ele>
        <time>2021-06-17T10:03:35Z</time>
      </trkpt>
      <trkpt lat="46.32666" lon="-1.31288">
        <ele>3.4</ele>
        <time>2021-06-17T10:03:36Z</time>
      </trkpt>
      <trkpt lat="46.32667" lon="-1.31287">
        <ele>3.4</ele>
        <time>2021-06-17T10:03:37Z</time>
      </trkpt>
      <trkpt lat="46.32667" lon="-1.31287">
        <ele>3.4</ele>
        <time>2021-06-17T10:03:38Z</time>
      </trkpt>
      <trkpt lat="46.32667" lon="-1.31287">
        <ele>3.4</ele>
        <time>2021-06-17T10:03:39Z</time>
      </trkpt>
      <trkpt lat="46.32667" lon="-1.31286">
        <ele>3.4</ele>
        <time>2021-06-17T10:03:40Z</time>
      </trkpt>
      <trkpt lat="46.32668" lon="-1.31286">
        <ele>3.4</ele>
        <time>2021-06-17T10:03:41Z</time>
      </trkpt>
      <trkpt lat="46.32668" lon="-1.31285">
        <ele>3.4</ele>
        <time>2021-06-17T10:03:42Z</time>
      </trkpt>
      <trkpt lat="46.32669" lon="-1.31285">
        <ele>3.4</ele>
        <time>2021-06-17T10:03:43Z</time>
      </trkpt>
      <trkpt lat="46.3267" lon="-1.31284">
        <ele>3.4</ele>
        <time>2021-06-17T10:03:44Z</time>
      </trkpt>
      <trkpt lat="46.32671" lon="-1.31283">
        <ele>3.4</ele>
        <time>2021-06-17T10:03:45Z</time>
      </trkpt>
      <trkpt lat="46.32673" lon="-1.31282">
        <ele>3.4</ele>
        <time>2021-06-17T10:03:46Z</time>
      </trkpt>
      <trkpt lat="46.32674" lon="-1.31281">
        <ele>3.4</ele>
        <time>2021-06-17T10:03:47Z</time>
      </trkpt>
      <trkpt lat="46.32675" lon="-1.3128">
        <ele>3.4</ele>
        <time>2021-06-17T10:03:48Z</time>
      </trkpt>
      <trkpt lat="46.32675" lon="-1.31279">
        <ele>3.5</ele>
        <time>2021-06-17T10:03:49Z</time>
      </trkpt>
      <trkpt lat="46.32676" lon="-1.31279">
        <ele>3.6</ele>
        <time>2021-06-17T10:03:50Z</time>
      </trkpt>
      <trkpt lat="46.32677" lon="-1.31278">
        <ele>3.6</ele>
        <time>2021-06-17T10:03:51Z</time>
      </trkpt>
      <trkpt lat="46.32678" lon="-1.31277">
        <ele>3.7</ele>
        <time>2021-06-17T10:03:52Z</time>
      </trkpt>
      <trkpt lat="46.32679" lon="-1.31276">
        <ele>3.7</ele>
        <time>2021-06-17T10:03:53Z</time>
      </trkpt>
      <trkpt lat="46.32679" lon="-1.31275">
        <ele>3.7</ele>
        <time>2021-06-17T10:03:54Z</time>
      </trkpt>
      <trkpt lat="46.3268" lon="-1.31274">
        <ele>3.8</ele>
        <time>2021-06-17T10:03:55Z</time>
      </trkpt>
      <trkpt lat="46.32681" lon="-1.31273">
        <ele>3.8</ele>
        <time>2021-06-17T10:03:56Z</time>
      </trkpt>
      <trkpt lat="46.32682" lon="-1.31271">
        <ele>3.8</ele>
        <time>2021-06-17T10:03:57Z</time>
      </trkpt>
      <trkpt lat="46.32683" lon="-1.3127">
        <ele>3.9</ele>
        <time>2021-06-17T10:03:58Z</time>
      </trkpt>
      <trkpt lat="46.32684" lon="-1.31268">
        <ele>3.9</ele>
        <time>2021-06-17T10:03:59Z</time>
      </trkpt>
      <trkpt lat="46.32685" lon="-1.31267">
        <ele>3.9</ele>
        <time>2021-06-17T10:04:00Z</time>
      </trkpt>
      <trkpt lat="46.32686" lon="-1.31266">
        <ele>4</ele>
        <time>2021-06-17T10:04:01Z</time>
      </trkpt>
      <trkpt lat="46.32687" lon="-1.31264">
        <ele>4</ele>
        <time>2021-06-17T10:04:02Z</time>
      </trkpt>
      <trkpt lat="46.32688" lon="-1.31263">
        <ele>4.1</ele>
        <time>2021-06-17T10:04:03Z</time>
      </trkpt>
      <trkpt lat="46.32689" lon="-1.31261">
        <ele>4.1</ele>
        <time>2021-06-17T10:04:04Z</time>
      </trkpt>
      <trkpt lat="46.3269" lon="-1.3126">
        <ele>4.2</ele>
        <time>2021-06-17T10:04:05Z</time>
      </trkpt>
      <trkpt lat="46.3269" lon="-1.31259">
        <ele>4.2</ele>
        <time>2021-06-17T10:04:06Z</time>
      </trkpt>
      <trkpt lat="46.32691" lon="-1.31258">
        <ele>4.3</ele>
        <time>2021-06-17T10:04:07Z</time>
      </trkpt>
      <trkpt lat="46.32691" lon="-1.31258">
        <ele>4.3</ele>
        <time>2021-06-17T10:04:08Z</time>
      </trkpt>
      <trkpt lat="46.32692" lon="-1.31257">
        <ele>4.3</ele>
        <time>2021-06-17T10:04:09Z</time>
      </trkpt>
      <trkpt lat="46.32692" lon="-1.31257">
        <ele>4.3</ele>
        <time>2021-06-17T10:04:10Z</time>
      </trkpt>
      <trkpt lat="46.32693" lon="-1.31256">
        <ele>4.4</ele>
        <time>2021-06-17T10:04:11Z</time>
      </trkpt>
      <trkpt lat="46.32694" lon="-1.31255">
        <ele>4.4</ele>
        <time>2021-06-17T10:04:12Z</time>
      </trkpt>
      <trkpt lat="46.32696" lon="-1.31254">
        <ele>4.5</ele>
        <time>2021-06-17T10:04:13Z</time>
      </trkpt>
      <trkpt lat="46.32697" lon="-1.31253">
        <ele>4.6</ele>
        <time>2021-06-17T10:04:14Z</time>
      </trkpt>
      <trkpt lat="46.32698" lon="-1.31252">
        <ele>4.6</ele>
        <time>2021-06-17T10:04:15Z</time>
      </trkpt>
      <trkpt lat="46.32699" lon="-1.31252">
        <ele>4.8</ele>
        <time>2021-06-17T10:04:16Z</time>
      </trkpt>
      <trkpt lat="46.327" lon="-1.31251">
        <ele>4.8</ele>
        <time>2021-06-17T10:04:17Z</time>
      </trkpt>
      <trkpt lat="46.327" lon="-1.31251">
        <ele>4.8</ele>
        <time>2021-06-17T10:04:18Z</time>
      </trkpt>
      <trkpt lat="46.32701" lon="-1.3125">
        <ele>4.8</ele>
        <time>2021-06-17T10:04:19Z</time>
      </trkpt>
      <trkpt lat="46.32701" lon="-1.3125">
        <ele>4.8</ele>
        <time>2021-06-17T10:04:20Z</time>
      </trkpt>
      <trkpt lat="46.32701" lon="-1.3125">
        <ele>4.8</ele>
        <time>2021-06-17T10:04:21Z</time>
      </trkpt>
      <trkpt lat="46.32701" lon="-1.3125">
        <ele>4.8</ele>
        <time>2021-06-17T10:04:22Z</time>
      </trkpt>
      <trkpt lat="46.32702" lon="-1.3125">
        <ele>4.8</ele>
        <time>2021-06-17T10:04:23Z</time>
      </trkpt>
      <trkpt lat="46.32702" lon="-1.3125">
        <ele>4.8</ele>
        <time>2021-06-17T10:04:24Z</time>
      </trkpt>
      <trkpt lat="46.32702" lon="-1.3125">
        <ele>4.8</ele>
        <time>2021-06-17T10:04:25Z</time>
      </trkpt>
      <trkpt lat="46.32702" lon="-1.3125">
        <ele>4.8</ele>
        <time>2021-06-17T10:04:26Z</time>
      </trkpt>
      <trkpt lat="46.32702" lon="-1.3125">
        <ele>4.8</ele>
        <time>2021-06-17T10:04:27Z</time>
      </trkpt>
      <trkpt lat="46.32702" lon="-1.3125">
        <ele>4.8</ele>
        <time>2021-06-17T10:04:28Z</time>
      </trkpt>
      <trkpt lat="46.32702" lon="-1.3125">
        <ele>4.8</ele>
        <time>2021-06-17T10:04:29Z</time>
      </trkpt>
      <trkpt lat="46.32702" lon="-1.3125">
        <ele>4.8</ele>
        <time>2021-06-17T10:04:30Z</time>
      </trkpt>
      <trkpt lat="46.32702" lon="-1.3125">
        <ele>4.8</ele>
        <time>2021-06-17T10:04:31Z</time>
      </trkpt>
      <trkpt lat="46.32702" lon="-1.3125">
        <ele>4.8</ele>
        <time>2021-06-17T10:04:32Z</time>
      </trkpt>
      <trkpt lat="46.32702" lon="-1.3125">
        <ele>4.8</ele>
        <time>2021-06-17T10:04:33Z</time>
      </trkpt>
      <trkpt lat="46.32702" lon="-1.3125">
        <ele>4.8</ele>
        <time>2021-06-17T10:04:34Z</time>
      </trkpt>
      <trkpt lat="46.32702" lon="-1.3125">
        <ele>4.8</ele>
        <time>2021-06-17T10:04:35Z</time>
      </trkpt>
      <trkpt lat="46.32702" lon="-1.3125">
        <ele>4.8</ele>
        <time>2021-06-17T10:04:36Z</time>
      </trkpt>
      <trkpt lat="46.32702" lon="-1.3125">
        <ele>4.8</ele>
        <time>2021-06-17T10:04:37Z</time>
      </trkpt>
      <trkpt lat="46.32702" lon="-1.3125">
        <ele>4.8</ele>
        <time>2021-06-17T10:04:38Z</time>
      </trkpt>
      <trkpt lat="46.32702" lon="-1.3125">
        <ele>4.8</ele>
        <time>2021-06-17T10:04:39Z</time>
      </trkpt>
      <trkpt lat="46.32702" lon="-1.3125">
        <ele>4.8</ele>
        <time>2021-06-17T10:04:40Z</time>
      </trkpt>
      <trkpt lat="46.32702" lon="-1.3125">
        <ele>4.8</ele>
        <time>2021-06-17T10:04:41Z</time>
      </trkpt>
      <trkpt lat="46.32702" lon="-1.3125">
        <ele>4.8</ele>
        <time>2021-06-17T10:04:42Z</time>
      </trkpt>
      <trkpt lat="46.32702" lon="-1.3125">
        <ele>4.8</ele>
        <time>2021-06-17T10:04:43Z</time>
      </trkpt>
      <trkpt lat="46.32702" lon="-1.3125">
        <ele>4.8</ele>
        <time>2021-06-17T10:04:44Z</time>
      </trkpt>
      <trkpt lat="46.32702" lon="-1.3125">
        <ele>4.8</ele>
        <time>2021-06-17T10:04:45Z</time>
      </trkpt>
      <trkpt lat="46.32702" lon="-1.3125">
        <ele>4.8</ele>
        <time>2021-06-17T10:04:46Z</time>
      </trkpt>
      <trkpt lat="46.32702" lon="-1.3125">
        <ele>4.8</ele>
        <time>2021-06-17T10:04:47Z</time>
      </trkpt>
      <trkpt lat="46.32702" lon="-1.3125">
        <ele>4.8</ele>
        <time>2021-06-17T10:04:48Z</time>
      </trkpt>
      <trkpt lat="46.32702" lon="-1.3125">
        <ele>4.8</ele>
        <time>2021-06-17T10:04:49Z</time>
      </trkpt>
      <trkpt lat="46.32702" lon="-1.3125">
        <ele>4.8</ele>
        <time>2021-06-17T10:04:50Z</time>
      </trkpt>
      <trkpt lat="46.32702" lon="-1.3125">
        <ele>4.8</ele>
        <time>2021-06-17T10:04:51Z</time>
      </trkpt>
      <trkpt lat="46.32702" lon="-1.3125">
        <ele>4.8</ele>
        <time>2021-06-17T10:04:52Z</time>
      </trkpt>
      <trkpt lat="46.32702" lon="-1.3125">
        <ele>4.8</ele>
        <time>2021-06-17T10:04:53Z</time>
      </trkpt>
      <trkpt lat="46.32702" lon="-1.3125">
        <ele>4.8</ele>
        <time>2021-06-17T10:04:54Z</time>
      </trkpt>
      <trkpt lat="46.32702" lon="-1.3125">
        <ele>4.8</ele>
        <time>2021-06-17T10:04:55Z</time>
      </trkpt>
      <trkpt lat="46.32702" lon="-1.3125">
        <ele>4.8</ele>
        <time>2021-06-17T10:04:56Z</time>
      </trkpt>
      <trkpt lat="46.32702" lon="-1.3125">
        <ele>4.8</ele>
        <time>2021-06-17T10:04:57Z</time>
      </trkpt>
      <trkpt lat="46.32702" lon="-1.3125">
        <ele>4.8</ele>
        <time>2021-06-17T10:04:58Z</time>
      </trkpt>
      <trkpt lat="46.32702" lon="-1.3125">
        <ele>4.8</ele>
        <time>2021-06-17T10:04:59Z</time>
      </trkpt>
      <trkpt lat="46.32702" lon="-1.3125">
        <ele>4.8</ele>
        <time>2021-06-17T10:05:00Z</time>
      </trkpt>
      <trkpt lat="46.32702" lon="-1.3125">
        <ele>4.8</ele>
        <time>2021-06-17T10:05:01Z</time>
      </trkpt>
      <trkpt lat="46.32702" lon="-1.3125">
        <ele>4.8</ele>
        <time>2021-06-17T10:05:02Z</time>
      </trkpt>
      <trkpt lat="46.32702" lon="-1.3125">
        <ele>4.8</ele>
        <time>2021-06-17T10:05:03Z</time>
      </trkpt>
      <trkpt lat="46.32702" lon="-1.3125">
        <ele>4.8</ele>
        <time>2021-06-17T10:05:04Z</time>
      </trkpt>
      <trkpt lat="46.32702" lon="-1.3125">
        <ele>4.8</ele>
        <time>2021-06-17T10:05:05Z</time>
      </trkpt>
      <trkpt lat="46.32702" lon="-1.3125">
        <ele>4.8</ele>
        <time>2021-06-17T10:05:06Z</time>
      </trkpt>
      <trkpt lat="46.32702" lon="-1.3125">
        <ele>4.8</ele>
        <time>2021-06-17T10:05:07Z</time>
      </trkpt>
      <trkpt lat="46.32702" lon="-1.3125">
        <ele>4.8</ele>
        <time>2021-06-17T10:05:08Z</time>
      </trkpt>
      <trkpt lat="46.32702" lon="-1.3125">
        <ele>4.8</ele>
        <time>2021-06-17T10:05:09Z</time>
      </trkpt>
      <trkpt lat="46.32702" lon="-1.3125">
        <ele>4.8</ele>
        <time>2021-06-17T10:05:10Z</time>
      </trkpt>
      <trkpt lat="46.32702" lon="-1.3125">
        <ele>4.8</ele>
        <time>2021-06-17T10:05:11Z</time>
      </trkpt>
      <trkpt lat="46.32702" lon="-1.3125">
        <ele>4.8</ele>
        <time>2021-06-17T10:05:12Z</time>
      </trkpt>
      <trkpt lat="46.32702" lon="-1.3125">
        <ele>4.8</ele>
        <time>2021-06-17T10:05:13Z</time>
      </trkpt>
      <trkpt lat="46.32702" lon="-1.3125">
        <ele>4.8</ele>
        <time>2021-06-17T10:05:14Z</time>
      </trkpt>
      <trkpt lat="46.32702" lon="-1.3125">
        <ele>4.8</ele>
        <time>2021-06-17T10:05:15Z</time>
      </trkpt>
      <trkpt lat="46.32702" lon="-1.3125">
        <ele>4.8</ele>
        <time>2021-06-17T10:05:16Z</time>
      </trkpt>
      <trkpt lat="46.32702" lon="-1.3125">
        <ele>4.8</ele>
        <time>2021-06-17T10:05:17Z</time>
      </trkpt>
      <trkpt lat="46.32702" lon="-1.3125">
        <ele>4.8</ele>
        <time>2021-06-17T10:05:18Z</time>
      </trkpt>
      <trkpt lat="46.32702" lon="-1.3125">
        <ele>4.8</ele>
        <time>2021-06-17T10:05:19Z</time>
      </trkpt>
      <trkpt lat="46.32702" lon="-1.3125">
        <ele>4.8</ele>
        <time>2021-06-17T10:05:20Z</time>
      </trkpt>
      <trkpt lat="46.32702" lon="-1.3125">
        <ele>4.8</ele>
        <time>2021-06-17T10:05:21Z</time>
      </trkpt>
      <trkpt lat="46.32702" lon="-1.3125">
        <ele>4.8</ele>
        <time>2021-06-17T10:05:22Z</time>
      </trkpt>
      <trkpt lat="46.32702" lon="-1.3125">
        <ele>4.8</ele>
        <time>2021-06-17T10:05:23Z</time>
      </trkpt>
      <trkpt lat="46.32702" lon="-1.3125">
        <ele>4.8</ele>
        <time>2021-06-17T10:05:24Z</time>
      </trkpt>
      <trkpt lat="46.32702" lon="-1.3125">
        <ele>4.8</ele>
        <time>2021-06-17T10:05:25Z</time>
      </trkpt>
      <trkpt lat="46.32702" lon="-1.3125">
        <ele>4.8</ele>
        <time>2021-06-17T10:05:26Z</time>
      </trkpt>
      <trkpt lat="46.32702" lon="-1.3125">
        <ele>4.8</ele>
        <time>2021-06-17T10:05:27Z</time>
      </trkpt>
      <trkpt lat="46.32702" lon="-1.3125">
        <ele>4.8</ele>
        <time>2021-06-17T10:05:28Z</time>
      </trkpt>
      <trkpt lat="46.32702" lon="-1.3125">
        <ele>4.8</ele>
        <time>2021-06-17T10:05:29Z</time>
      </trkpt>
      <trkpt lat="46.32702" lon="-1.3125">
        <ele>4.8</ele>
        <time>2021-06-17T10:05:30Z</time>
      </trkpt>
      <trkpt lat="46.32702" lon="-1.3125">
        <ele>4.8</ele>
        <time>2021-06-17T10:05:31Z</time>
      </trkpt>
      <trkpt lat="46.32702" lon="-1.3125">
        <ele>4.8</ele>
        <time>2021-06-17T10:05:32Z</time>
      </trkpt>
      <trkpt lat="46.32702" lon="-1.3125">
        <ele>4.8</ele>
        <time>2021-06-17T10:05:33Z</time>
      </trkpt>
      <trkpt lat="46.32702" lon="-1.3125">
        <ele>4.8</ele>
        <time>2021-06-17T10:05:34Z</time>
      </trkpt>
      <trkpt lat="46.32702" lon="-1.3125">
        <ele>4.8</ele>
        <time>2021-06-17T10:05:35Z</time>
      </trkpt>
      <trkpt lat="46.32702" lon="-1.3125">
        <ele>4.8</ele>
        <time>2021-06-17T10:05:36Z</time>
      </trkpt>
      <trkpt lat="46.32702" lon="-1.3125">
        <ele>4.8</ele>
        <time>2021-06-17T10:05:37Z</time>
      </trkpt>
      <trkpt lat="46.32702" lon="-1.3125">
        <ele>4.8</ele>
        <time>2021-06-17T10:05:38Z</time>
      </trkpt>
      <trkpt lat="46.32702" lon="-1.3125">
        <ele>4.8</ele>
        <time>2021-06-17T10:05:39Z</time>
      </trkpt>
      <trkpt lat="46.32702" lon="-1.3125">
        <ele>4.8</ele>
        <time>2021-06-17T10:05:40Z</time>
      </trkpt>
      <trkpt lat="46.32703" lon="-1.31251">
        <ele>4.8</ele>
        <time>2021-06-17T10:05:41Z</time>
      </trkpt>
      <trkpt lat="46.32703" lon="-1.31251">
        <ele>4.9</ele>
        <time>2021-06-17T10:05:42Z</time>
      </trkpt>
      <trkpt lat="46.32704" lon="-1.31251">
        <ele>4.9</ele>
        <time>2021-06-17T10:05:43Z</time>
      </trkpt>
      <trkpt lat="46.32704" lon="-1.31251">
        <ele>4.9</ele>
        <time>2021-06-17T10:05:44Z</time>
      </trkpt>
      <trkpt lat="46.32705" lon="-1.31251">
        <ele>4.9</ele>
        <time>2021-06-17T10:05:45Z</time>
      </trkpt>
      <trkpt lat="46.32705" lon="-1.31252">
        <ele>4.9</ele>
        <time>2021-06-17T10:05:46Z</time>
      </trkpt>
      <trkpt lat="46.32706" lon="-1.31253">
        <ele>4.9</ele>
        <time>2021-06-17T10:05:47Z</time>
      </trkpt>
      <trkpt lat="46.32707" lon="-1.31254">
        <ele>4.9</ele>
        <time>2021-06-17T10:05:48Z</time>
      </trkpt>
      <trkpt lat="46.32708" lon="-1.31255">
        <ele>4.9</ele>
        <time>2021-06-17T10:05:49Z</time>
      </trkpt>
      <trkpt lat="46.32709" lon="-1.31256">
        <ele>4.9</ele>
        <time>2021-06-17T10:05:50Z</time>
      </trkpt>
      <trkpt lat="46.32709" lon="-1.31257">
        <ele>4.9</ele>
        <time>2021-06-17T10:05:51Z</time>
      </trkpt>
      <trkpt lat="46.3271" lon="-1.31258">
        <ele>4.9</ele>
        <time>2021-06-17T10:05:52Z</time>
      </trkpt>
      <trkpt lat="46.3271" lon="-1.31258">
        <ele>4.9</ele>
        <time>2021-06-17T10:05:53Z</time>
      </trkpt>
      <trkpt lat="46.32711" lon="-1.31258">
        <ele>4.9</ele>
        <time>2021-06-17T10:05:54Z</time>
      </trkpt>
      <trkpt lat="46.32711" lon="-1.31258">
        <ele>4.9</ele>
        <time>2021-06-17T10:05:55Z</time>
      </trkpt>
      <trkpt lat="46.32711" lon="-1.31258">
        <ele>4.9</ele>
        <time>2021-06-17T10:05:56Z</time>
      </trkpt>
      <trkpt lat="46.32711" lon="-1.31259">
        <ele>4.9</ele>
        <time>2021-06-17T10:05:57Z</time>
      </trkpt>
      <trkpt lat="46.32711" lon="-1.31259">
        <ele>4.9</ele>
        <time>2021-06-17T10:05:58Z</time>
      </trkpt>
      <trkpt lat="46.32712" lon="-1.3126">
        <ele>4.9</ele>
        <time>2021-06-17T10:05:59Z</time>
      </trkpt>
      <trkpt lat="46.32713" lon="-1.31261">
        <ele>4.9</ele>
        <time>2021-06-17T10:06:00Z</time>
      </trkpt>
      <trkpt lat="46.32714" lon="-1.31262">
        <ele>4.9</ele>
        <time>2021-06-17T10:06:01Z</time>
      </trkpt>
      <trkpt lat="46.32715" lon="-1.31263">
        <ele>5</ele>
        <time>2021-06-17T10:06:02Z</time>
      </trkpt>
      <trkpt lat="46.32716" lon="-1.31264">
        <ele>5</ele>
        <time>2021-06-17T10:06:03Z</time>
      </trkpt>
      <trkpt lat="46.32717" lon="-1.31265">
        <ele>5</ele>
        <time>2021-06-17T10:06:04Z</time>
      </trkpt>
      <trkpt lat="46.32718" lon="-1.31266">
        <ele>5</ele>
        <time>2021-06-17T10:06:05Z</time>
      </trkpt>
      <trkpt lat="46.32718" lon="-1.31267">
        <ele>5</ele>
        <time>2021-06-17T10:06:06Z</time>
      </trkpt>
      <trkpt lat="46.32719" lon="-1.31268">
        <ele>5</ele>
        <time>2021-06-17T10:06:07Z</time>
      </trkpt>
      <trkpt lat="46.3272" lon="-1.31269">
        <ele>5</ele>
        <time>2021-06-17T10:06:08Z</time>
      </trkpt>
      <trkpt lat="46.32721" lon="-1.3127">
        <ele>5</ele>
        <time>2021-06-17T10:06:09Z</time>
      </trkpt>
      <trkpt lat="46.32722" lon="-1.31271">
        <ele>5</ele>
        <time>2021-06-17T10:06:10Z</time>
      </trkpt>
      <trkpt lat="46.32723" lon="-1.31272">
        <ele>5</ele>
        <time>2021-06-17T10:06:11Z</time>
      </trkpt>
      <trkpt lat="46.32725" lon="-1.31273">
        <ele>5</ele>
        <time>2021-06-17T10:06:12Z</time>
      </trkpt>
      <trkpt lat="46.32726" lon="-1.31275">
        <ele>5</ele>
        <time>2021-06-17T10:06:13Z</time>
      </trkpt>
      <trkpt lat="46.32727" lon="-1.31276">
        <ele>5</ele>
        <time>2021-06-17T10:06:14Z</time>
      </trkpt>
      <trkpt lat="46.32728" lon="-1.31277">
        <ele>5</ele>
        <time>2021-06-17T10:06:15Z</time>
      </trkpt>
      <trkpt lat="46.32729" lon="-1.31278">
        <ele>5</ele>
        <time>2021-06-17T10:06:16Z</time>
      </trkpt>
      <trkpt lat="46.3273" lon="-1.31279">
        <ele>5</ele>
        <time>2021-06-17T10:06:17Z</time>
      </trkpt>
      <trkpt lat="46.32731" lon="-1.31281">
        <ele>5</ele>
        <time>2021-06-17T10:06:18Z</time>
      </trkpt>
      <trkpt lat="46.32732" lon="-1.31282">
        <ele>5</ele>
        <time>2021-06-17T10:06:19Z</time>
      </trkpt>
      <trkpt lat="46.32733" lon="-1.31283">
        <ele>5</ele>
        <time>2021-06-17T10:06:20Z</time>
      </trkpt>
      <trkpt lat="46.32734" lon="-1.31284">
        <ele>5</ele>
        <time>2021-06-17T10:06:21Z</time>
      </trkpt>
      <trkpt lat="46.32735" lon="-1.31285">
        <ele>5</ele>
        <time>2021-06-17T10:06:22Z</time>
      </trkpt>
      <trkpt lat="46.32737" lon="-1.31286">
        <ele>5</ele>
        <time>2021-06-17T10:06:23Z</time>
      </trkpt>
      <trkpt lat="46.32738" lon="-1.31287">
        <ele>5</ele>
        <time>2021-06-17T10:06:24Z</time>
      </trkpt>
      <trkpt lat="46.32739" lon="-1.31288">
        <ele>5</ele>
        <time>2021-06-17T10:06:25Z</time>
      </trkpt>
      <trkpt lat="46.3274" lon="-1.31289">
        <ele>5</ele>
        <time>2021-06-17T10:06:26Z</time>
      </trkpt>
      <trkpt lat="46.32741" lon="-1.31291">
        <ele>5</ele>
        <time>2021-06-17T10:06:27Z</time>
      </trkpt>
      <trkpt lat="46.32742" lon="-1.31292">
        <ele>5</ele>
        <time>2021-06-17T10:06:28Z</time>
      </trkpt>
      <trkpt lat="46.32742" lon="-1.31293">
        <ele>4.9</ele>
        <time>2021-06-17T10:06:29Z</time>
      </trkpt>
      <trkpt lat="46.32743" lon="-1.31294">
        <ele>4.9</ele>
        <time>2021-06-17T10:06:30Z</time>
      </trkpt>
      <trkpt lat="46.32744" lon="-1.31295">
        <ele>4.9</ele>
        <time>2021-06-17T10:06:31Z</time>
      </trkpt>
      <trkpt lat="46.32745" lon="-1.31296">
        <ele>4.9</ele>
        <time>2021-06-17T10:06:32Z</time>
      </trkpt>
      <trkpt lat="46.32746" lon="-1.31297">
        <ele>4.9</ele>
        <time>2021-06-17T10:06:33Z</time>
      </trkpt>
      <trkpt lat="46.32747" lon="-1.31298">
        <ele>4.9</ele>
        <time>2021-06-17T10:06:34Z</time>
      </trkpt>
      <trkpt lat="46.32748" lon="-1.31299">
        <ele>4.9</ele>
        <time>2021-06-17T10:06:35Z</time>
      </trkpt>
      <trkpt lat="46.32749" lon="-1.313">
        <ele>4.9</ele>
        <time>2021-06-17T10:06:36Z</time>
      </trkpt>
      <trkpt lat="46.3275" lon="-1.31301">
        <ele>4.9</ele>
        <time>2021-06-17T10:06:37Z</time>
      </trkpt>
      <trkpt lat="46.32751" lon="-1.31302">
        <ele>4.9</ele>
        <time>2021-06-17T10:06:38Z</time>
      </trkpt>
      <trkpt lat="46.32752" lon="-1.31303">
        <ele>4.9</ele>
        <time>2021-06-17T10:06:39Z</time>
      </trkpt>
      <trkpt lat="46.32753" lon="-1.31304">
        <ele>5</ele>
        <time>2021-06-17T10:06:40Z</time>
      </trkpt>
      <trkpt lat="46.32754" lon="-1.31305">
        <ele>5</ele>
        <time>2021-06-17T10:06:41Z</time>
      </trkpt>
      <trkpt lat="46.32755" lon="-1.31307">
        <ele>5</ele>
        <time>2021-06-17T10:06:42Z</time>
      </trkpt>
      <trkpt lat="46.32757" lon="-1.31308">
        <ele>5</ele>
        <time>2021-06-17T10:06:43Z</time>
      </trkpt>
      <trkpt lat="46.32758" lon="-1.31309">
        <ele>5</ele>
        <time>2021-06-17T10:06:44Z</time>
      </trkpt>
      <trkpt lat="46.32759" lon="-1.31311">
        <ele>5</ele>
        <time>2021-06-17T10:06:45Z</time>
      </trkpt>
      <trkpt lat="46.3276" lon="-1.31312">
        <ele>5</ele>
        <time>2021-06-17T10:06:46Z</time>
      </trkpt>
      <trkpt lat="46.32761" lon="-1.31313">
        <ele>5</ele>
        <time>2021-06-17T10:06:47Z</time>
      </trkpt>
      <trkpt lat="46.32762" lon="-1.31314">
        <ele>5</ele>
        <time>2021-06-17T10:06:48Z</time>
      </trkpt>
      <trkpt lat="46.32763" lon="-1.31316">
        <ele>5</ele>
        <time>2021-06-17T10:06:49Z</time>
      </trkpt>
      <trkpt lat="46.32764" lon="-1.31317">
        <ele>5</ele>
        <time>2021-06-17T10:06:50Z</time>
      </trkpt>
      <trkpt lat="46.32765" lon="-1.31318">
        <ele>5</ele>
        <time>2021-06-17T10:06:51Z</time>
      </trkpt>
      <trkpt lat="46.32766" lon="-1.3132">
        <ele>5</ele>
        <time>2021-06-17T10:06:52Z</time>
      </trkpt>
      <trkpt lat="46.32767" lon="-1.31321">
        <ele>5</ele>
        <time>2021-06-17T10:06:53Z</time>
      </trkpt>
      <trkpt lat="46.32768" lon="-1.31322">
        <ele>5</ele>
        <time>2021-06-17T10:06:54Z</time>
      </trkpt>
      <trkpt lat="46.32769" lon="-1.31323">
        <ele>5</ele>
        <time>2021-06-17T10:06:55Z</time>
      </trkpt>
      <trkpt lat="46.3277" lon="-1.31324">
        <ele>5</ele>
        <time>2021-06-17T10:06:56Z</time>
      </trkpt>
      <trkpt lat="46.32771" lon="-1.31325">
        <ele>5</ele>
        <time>2021-06-17T10:06:57Z</time>
      </trkpt>
      <trkpt lat="46.32772" lon="-1.31326">
        <ele>5</ele>
        <time>2021-06-17T10:06:58Z</time>
      </trkpt>
      <trkpt lat="46.32773" lon="-1.31327">
        <ele>5</ele>
        <time>2021-06-17T10:06:59Z</time>
      </trkpt>
      <trkpt lat="46.32774" lon="-1.31328">
        <ele>5</ele>
        <time>2021-06-17T10:07:00Z</time>
      </trkpt>
      <trkpt lat="46.32775" lon="-1.31329">
        <ele>5</ele>
        <time>2021-06-17T10:07:01Z</time>
      </trkpt>
      <trkpt lat="46.32775" lon="-1.3133">
        <ele>5</ele>
        <time>2021-06-17T10:07:02Z</time>
      </trkpt>
      <trkpt lat="46.32776" lon="-1.31331">
        <ele>5</ele>
        <time>2021-06-17T10:07:03Z</time>
      </trkpt>
      <trkpt lat="46.32778" lon="-1.31332">
        <ele>5</ele>
        <time>2021-06-17T10:07:04Z</time>
      </trkpt>
      <trkpt lat="46.32779" lon="-1.31333">
        <ele>5</ele>
        <time>2021-06-17T10:07:05Z</time>
      </trkpt>
      <trkpt lat="46.3278" lon="-1.31334">
        <ele>5</ele>
        <time>2021-06-17T10:07:06Z</time>
      </trkpt>
      <trkpt lat="46.32781" lon="-1.31335">
        <ele>5</ele>
        <time>2021-06-17T10:07:07Z</time>
      </trkpt>
      <trkpt lat="46.32782" lon="-1.31336">
        <ele>5</ele>
        <time>2021-06-17T10:07:08Z</time>
      </trkpt>
      <trkpt lat="46.32783" lon="-1.31337">
        <ele>5</ele>
        <time>2021-06-17T10:07:09Z</time>
      </trkpt>
      <trkpt lat="46.32785" lon="-1.31339">
        <ele>5</ele>
        <time>2021-06-17T10:07:10Z</time>
      </trkpt>
      <trkpt lat="46.32786" lon="-1.3134">
        <ele>5</ele>
        <time>2021-06-17T10:07:11Z</time>
      </trkpt>
      <trkpt lat="46.32787" lon="-1.31341">
        <ele>5</ele>
        <time>2021-06-17T10:07:12Z</time>
      </trkpt>
      <trkpt lat="46.32789" lon="-1.31342">
        <ele>5</ele>
        <time>2021-06-17T10:07:13Z</time>
      </trkpt>
      <trkpt lat="46.3279" lon="-1.31343">
        <ele>5</ele>
        <time>2021-06-17T10:07:14Z</time>
      </trkpt>
      <trkpt lat="46.32791" lon="-1.31345">
        <ele>4.9</ele>
        <time>2021-06-17T10:07:15Z</time>
      </trkpt>
      <trkpt lat="46.32793" lon="-1.31346">
        <ele>4.9</ele>
        <time>2021-06-17T10:07:16Z</time>
      </trkpt>
      <trkpt lat="46.32794" lon="-1.31347">
        <ele>4.9</ele>
        <time>2021-06-17T10:07:17Z</time>
      </trkpt>
      <trkpt lat="46.32795" lon="-1.31348">
        <ele>4.9</ele>
        <time>2021-06-17T10:07:18Z</time>
      </trkpt>
      <trkpt lat="46.32796" lon="-1.3135">
        <ele>4.9</ele>
        <time>2021-06-17T10:07:19Z</time>
      </trkpt>
      <trkpt lat="46.32797" lon="-1.31351">
        <ele>4.9</ele>
        <time>2021-06-17T10:07:20Z</time>
      </trkpt>
      <trkpt lat="46.32798" lon="-1.31352">
        <ele>4.9</ele>
        <time>2021-06-17T10:07:21Z</time>
      </trkpt>
      <trkpt lat="46.32799" lon="-1.31353">
        <ele>4.9</ele>
        <time>2021-06-17T10:07:22Z</time>
      </trkpt>
      <trkpt lat="46.328" lon="-1.31354">
        <ele>4.9</ele>
        <time>2021-06-17T10:07:23Z</time>
      </trkpt>
      <trkpt lat="46.32801" lon="-1.31356">
        <ele>4.9</ele>
        <time>2021-06-17T10:07:24Z</time>
      </trkpt>
      <trkpt lat="46.32802" lon="-1.31357">
        <ele>4.9</ele>
        <time>2021-06-17T10:07:25Z</time>
      </trkpt>
      <trkpt lat="46.32803" lon="-1.31358">
        <ele>4.9</ele>
        <time>2021-06-17T10:07:26Z</time>
      </trkpt>
      <trkpt lat="46.32804" lon="-1.31359">
        <ele>4.9</ele>
        <time>2021-06-17T10:07:27Z</time>
      </trkpt>
      <trkpt lat="46.32805" lon="-1.3136">
        <ele>4.9</ele>
        <time>2021-06-17T10:07:28Z</time>
      </trkpt>
      <trkpt lat="46.32806" lon="-1.31361">
        <ele>4.9</ele>
        <time>2021-06-17T10:07:29Z</time>
      </trkpt>
      <trkpt lat="46.32807" lon="-1.31362">
        <ele>4.9</ele>
        <time>2021-06-17T10:07:30Z</time>
      </trkpt>
      <trkpt lat="46.32808" lon="-1.31364">
        <ele>4.9</ele>
        <time>2021-06-17T10:07:31Z</time>
      </trkpt>
      <trkpt lat="46.32809" lon="-1.31365">
        <ele>4.9</ele>
        <time>2021-06-17T10:07:32Z</time>
      </trkpt>
      <trkpt lat="46.3281" lon="-1.31366">
        <ele>4.9</ele>
        <time>2021-06-17T10:07:33Z</time>
      </trkpt>
      <trkpt lat="46.32811" lon="-1.31367">
        <ele>4.9</ele>
        <time>2021-06-17T10:07:34Z</time>
      </trkpt>
      <trkpt lat="46.32812" lon="-1.31368">
        <ele>4.9</ele>
        <time>2021-06-17T10:07:35Z</time>
      </trkpt>
      <trkpt lat="46.32813" lon="-1.31369">
        <ele>4.9</ele>
        <time>2021-06-17T10:07:36Z</time>
      </trkpt>
      <trkpt lat="46.32814" lon="-1.3137">
        <ele>4.9</ele>
        <time>2021-06-17T10:07:37Z</time>
      </trkpt>
      <trkpt lat="46.32815" lon="-1.31371">
        <ele>4.9</ele>
        <time>2021-06-17T10:07:38Z</time>
      </trkpt>
      <trkpt lat="46.32816" lon="-1.31372">
        <ele>4.9</ele>
        <time>2021-06-17T10:07:39Z</time>
      </trkpt>
      <trkpt lat="46.32817" lon="-1.31373">
        <ele>4.9</ele>
        <time>2021-06-17T10:07:40Z</time>
      </trkpt>
      <trkpt lat="46.32818" lon="-1.31374">
        <ele>4.9</ele>
        <time>2021-06-17T10:07:41Z</time>
      </trkpt>
      <trkpt lat="46.32819" lon="-1.31375">
        <ele>4.9</ele>
        <time>2021-06-17T10:07:42Z</time>
      </trkpt>
      <trkpt lat="46.3282" lon="-1.31376">
        <ele>4.9</ele>
        <time>2021-06-17T10:07:43Z</time>
      </trkpt>
      <trkpt lat="46.32821" lon="-1.31377">
        <ele>4.9</ele>
        <time>2021-06-17T10:07:44Z</time>
      </trkpt>
      <trkpt lat="46.32822" lon="-1.31378">
        <ele>4.9</ele>
        <time>2021-06-17T10:07:45Z</time>
      </trkpt>
      <trkpt lat="46.32823" lon="-1.31379">
        <ele>4.9</ele>
        <time>2021-06-17T10:07:46Z</time>
      </trkpt>
      <trkpt lat="46.32824" lon="-1.3138">
        <ele>4.9</ele>
        <time>2021-06-17T10:07:47Z</time>
      </trkpt>
      <trkpt lat="46.32825" lon="-1.31381">
        <ele>4.9</ele>
        <time>2021-06-17T10:07:48Z</time>
      </trkpt>
      <trkpt lat="46.32826" lon="-1.31382">
        <ele>4.9</ele>
        <time>2021-06-17T10:07:49Z</time>
      </trkpt>
      <trkpt lat="46.32827" lon="-1.31383">
        <ele>4.9</ele>
        <time>2021-06-17T10:07:50Z</time>
      </trkpt>
      <trkpt lat="46.32828" lon="-1.31384">
        <ele>4.9</ele>
        <time>2021-06-17T10:07:51Z</time>
      </trkpt>
      <trkpt lat="46.32829" lon="-1.31385">
        <ele>4.9</ele>
        <time>2021-06-17T10:07:52Z</time>
      </trkpt>
      <trkpt lat="46.32831" lon="-1.31386">
        <ele>4.9</ele>
        <time>2021-06-17T10:07:53Z</time>
      </trkpt>
      <trkpt lat="46.32832" lon="-1.31387">
        <ele>4.9</ele>
        <time>2021-06-17T10:07:54Z</time>
      </trkpt>
      <trkpt lat="46.32833" lon="-1.31388">
        <ele>4.9</ele>
        <time>2021-06-17T10:07:55Z</time>
      </trkpt>
      <trkpt lat="46.32834" lon="-1.31389">
        <ele>4.9</ele>
        <time>2021-06-17T10:07:56Z</time>
      </trkpt>
      <trkpt lat="46.32835" lon="-1.31391">
        <ele>4.9</ele>
        <time>2021-06-17T10:07:57Z</time>
      </trkpt>
      <trkpt lat="46.32836" lon="-1.31392">
        <ele>4.9</ele>
        <time>2021-06-17T10:07:58Z</time>
      </trkpt>
      <trkpt lat="46.32837" lon="-1.31393">
        <ele>4.9</ele>
        <time>2021-06-17T10:07:59Z</time>
      </trkpt>
      <trkpt lat="46.32838" lon="-1.31394">
        <ele>4.9</ele>
        <time>2021-06-17T10:08:00Z</time>
      </trkpt>
      <trkpt lat="46.32839" lon="-1.31395">
        <ele>4.9</ele>
        <time>2021-06-17T10:08:01Z</time>
      </trkpt>
      <trkpt lat="46.3284" lon="-1.31396">
        <ele>4.9</ele>
        <time>2021-06-17T10:08:02Z</time>
      </trkpt>
      <trkpt lat="46.32842" lon="-1.31397">
        <ele>4.9</ele>
        <time>2021-06-17T10:08:03Z</time>
      </trkpt>
      <trkpt lat="46.32843" lon="-1.31398">
        <ele>4.9</ele>
        <time>2021-06-17T10:08:04Z</time>
      </trkpt>
      <trkpt lat="46.32844" lon="-1.31399">
        <ele>4.9</ele>
        <time>2021-06-17T10:08:05Z</time>
      </trkpt>
      <trkpt lat="46.32845" lon="-1.314">
        <ele>4.9</ele>
        <time>2021-06-17T10:08:06Z</time>
      </trkpt>
      <trkpt lat="46.32846" lon="-1.31401">
        <ele>4.9</ele>
        <time>2021-06-17T10:08:07Z</time>
      </trkpt>
      <trkpt lat="46.32847" lon="-1.31403">
        <ele>5</ele>
        <time>2021-06-17T10:08:08Z</time>
      </trkpt>
      <trkpt lat="46.32848" lon="-1.31404">
        <ele>5</ele>
        <time>2021-06-17T10:08:09Z</time>
      </trkpt>
      <trkpt lat="46.3285" lon="-1.31405">
        <ele>5</ele>
        <time>2021-06-17T10:08:10Z</time>
      </trkpt>
      <trkpt lat="46.32851" lon="-1.31406">
        <ele>5</ele>
        <time>2021-06-17T10:08:11Z</time>
      </trkpt>
      <trkpt lat="46.32852" lon="-1.31407">
        <ele>5</ele>
        <time>2021-06-17T10:08:12Z</time>
      </trkpt>
      <trkpt lat="46.32853" lon="-1.31409">
        <ele>5</ele>
        <time>2021-06-17T10:08:13Z</time>
      </trkpt>
      <trkpt lat="46.32854" lon="-1.3141">
        <ele>5</ele>
        <time>2021-06-17T10:08:14Z</time>
      </trkpt>
      <trkpt lat="46.32855" lon="-1.31411">
        <ele>5</ele>
        <time>2021-06-17T10:08:15Z</time>
      </trkpt>
      <trkpt lat="46.32857" lon="-1.31413">
        <ele>5</ele>
        <time>2021-06-17T10:08:16Z</time>
      </trkpt>
      <trkpt lat="46.32858" lon="-1.31414">
        <ele>5</ele>
        <time>2021-06-17T10:08:17Z</time>
      </trkpt>
      <trkpt lat="46.32859" lon="-1.31415">
        <ele>5</ele>
        <time>2021-06-17T10:08:18Z</time>
      </trkpt>
      <trkpt lat="46.3286" lon="-1.31417">
        <ele>5</ele>
        <time>2021-06-17T10:08:19Z</time>
      </trkpt>
      <trkpt lat="46.32861" lon="-1.31418">
        <ele>5</ele>
        <time>2021-06-17T10:08:20Z</time>
      </trkpt>
      <trkpt lat="46.32861" lon="-1.31419">
        <ele>5</ele>
        <time>2021-06-17T10:08:21Z</time>
      </trkpt>
      <trkpt lat="46.32862" lon="-1.3142">
        <ele>5</ele>
        <time>2021-06-17T10:08:22Z</time>
      </trkpt>
      <trkpt lat="46.32863" lon="-1.31421">
        <ele>5</ele>
        <time>2021-06-17T10:08:23Z</time>
      </trkpt>
      <trkpt lat="46.32864" lon="-1.31422">
        <ele>5</ele>
        <time>2021-06-17T10:08:24Z</time>
      </trkpt>
      <trkpt lat="46.32865" lon="-1.31423">
        <ele>5</ele>
        <time>2021-06-17T10:08:25Z</time>
      </trkpt>
      <trkpt lat="46.32865" lon="-1.31424">
        <ele>5</ele>
        <time>2021-06-17T10:08:26Z</time>
      </trkpt>
      <trkpt lat="46.32866" lon="-1.31425">
        <ele>5</ele>
        <time>2021-06-17T10:08:27Z</time>
      </trkpt>
      <trkpt lat="46.32867" lon="-1.31427">
        <ele>5</ele>
        <time>2021-06-17T10:08:28Z</time>
      </trkpt>
      <trkpt lat="46.32868" lon="-1.31428">
        <ele>5</ele>
        <time>2021-06-17T10:08:29Z</time>
      </trkpt>
      <trkpt lat="46.32869" lon="-1.31429">
        <ele>5</ele>
        <time>2021-06-17T10:08:30Z</time>
      </trkpt>
      <trkpt lat="46.3287" lon="-1.3143">
        <ele>5</ele>
        <time>2021-06-17T10:08:31Z</time>
      </trkpt>
      <trkpt lat="46.32871" lon="-1.31432">
        <ele>5</ele>
        <time>2021-06-17T10:08:32Z</time>
      </trkpt>
      <trkpt lat="46.32872" lon="-1.31433">
        <ele>5</ele>
        <time>2021-06-17T10:08:33Z</time>
      </trkpt>
      <trkpt lat="46.32873" lon="-1.31434">
        <ele>5</ele>
        <time>2021-06-17T10:08:34Z</time>
      </trkpt>
      <trkpt lat="46.32874" lon="-1.31436">
        <ele>5</ele>
        <time>2021-06-17T10:08:35Z</time>
      </trkpt>
      <trkpt lat="46.32875" lon="-1.31437">
        <ele>5</ele>
        <time>2021-06-17T10:08:36Z</time>
      </trkpt>
      <trkpt lat="46.32877" lon="-1.31438">
        <ele>5</ele>
        <time>2021-06-17T10:08:37Z</time>
      </trkpt>
      <trkpt lat="46.32878" lon="-1.31439">
        <ele>5</ele>
        <time>2021-06-17T10:08:38Z</time>
      </trkpt>
      <trkpt lat="46.32879" lon="-1.31441">
        <ele>5</ele>
        <time>2021-06-17T10:08:39Z</time>
      </trkpt>
      <trkpt lat="46.3288" lon="-1.31442">
        <ele>5</ele>
        <time>2021-06-17T10:08:40Z</time>
      </trkpt>
      <trkpt lat="46.32881" lon="-1.31443">
        <ele>5</ele>
        <time>2021-06-17T10:08:41Z</time>
      </trkpt>
      <trkpt lat="46.32882" lon="-1.31444">
        <ele>5</ele>
        <time>2021-06-17T10:08:42Z</time>
      </trkpt>
      <trkpt lat="46.32883" lon="-1.31445">
        <ele>5</ele>
        <time>2021-06-17T10:08:43Z</time>
      </trkpt>
      <trkpt lat="46.32883" lon="-1.31446">
        <ele>5</ele>
        <time>2021-06-17T10:08:44Z</time>
      </trkpt>
      <trkpt lat="46.32884" lon="-1.31448">
        <ele>5</ele>
        <time>2021-06-17T10:08:45Z</time>
      </trkpt>
      <trkpt lat="46.32885" lon="-1.31449">
        <ele>5</ele>
        <time>2021-06-17T10:08:46Z</time>
      </trkpt>
      <trkpt lat="46.32886" lon="-1.3145">
        <ele>5</ele>
        <time>2021-06-17T10:08:47Z</time>
      </trkpt>
      <trkpt lat="46.32887" lon="-1.31451">
        <ele>5</ele>
        <time>2021-06-17T10:08:48Z</time>
      </trkpt>
      <trkpt lat="46.32888" lon="-1.31452">
        <ele>5</ele>
        <time>2021-06-17T10:08:49Z</time>
      </trkpt>
      <trkpt lat="46.32889" lon="-1.31453">
        <ele>5</ele>
        <time>2021-06-17T10:08:50Z</time>
      </trkpt>
      <trkpt lat="46.3289" lon="-1.31454">
        <ele>5</ele>
        <time>2021-06-17T10:08:51Z</time>
      </trkpt>
      <trkpt lat="46.32891" lon="-1.31455">
        <ele>5.1</ele>
        <time>2021-06-17T10:08:52Z</time>
      </trkpt>
      <trkpt lat="46.32892" lon="-1.31456">
        <ele>5.1</ele>
        <time>2021-06-17T10:08:53Z</time>
      </trkpt>
      <trkpt lat="46.32893" lon="-1.31457">
        <ele>5.1</ele>
        <time>2021-06-17T10:08:54Z</time>
      </trkpt>
      <trkpt lat="46.32894" lon="-1.31458">
        <ele>5.1</ele>
        <time>2021-06-17T10:08:55Z</time>
      </trkpt>
      <trkpt lat="46.32895" lon="-1.31459">
        <ele>5.1</ele>
        <time>2021-06-17T10:08:56Z</time>
      </trkpt>
      <trkpt lat="46.32896" lon="-1.3146">
        <ele>5.1</ele>
        <time>2021-06-17T10:08:57Z</time>
      </trkpt>
      <trkpt lat="46.32897" lon="-1.31461">
        <ele>5.1</ele>
        <time>2021-06-17T10:08:58Z</time>
      </trkpt>
      <trkpt lat="46.32898" lon="-1.31462">
        <ele>5.1</ele>
        <time>2021-06-17T10:08:59Z</time>
      </trkpt>
      <trkpt lat="46.32899" lon="-1.31463">
        <ele>5.1</ele>
        <time>2021-06-17T10:09:00Z</time>
      </trkpt>
      <trkpt lat="46.329" lon="-1.31464">
        <ele>5.1</ele>
        <time>2021-06-17T10:09:01Z</time>
      </trkpt>
      <trkpt lat="46.32901" lon="-1.31465">
        <ele>5.1</ele>
        <time>2021-06-17T10:09:02Z</time>
      </trkpt>
      <trkpt lat="46.32902" lon="-1.31466">
        <ele>5.1</ele>
        <time>2021-06-17T10:09:03Z</time>
      </trkpt>
      <trkpt lat="46.32903" lon="-1.31467">
        <ele>5.1</ele>
        <time>2021-06-17T10:09:04Z</time>
      </trkpt>
      <trkpt lat="46.32904" lon="-1.31469">
        <ele>5.1</ele>
        <time>2021-06-17T10:09:05Z</time>
      </trkpt>
      <trkpt lat="46.32905" lon="-1.3147">
        <ele>5.1</ele>
        <time>2021-06-17T10:09:06Z</time>
      </trkpt>
      <trkpt lat="46.32907" lon="-1.31471">
        <ele>5.1</ele>
        <time>2021-06-17T10:09:07Z</time>
      </trkpt>
      <trkpt lat="46.32908" lon="-1.31472">
        <ele>5.1</ele>
        <time>2021-06-17T10:09:08Z</time>
      </trkpt>
      <trkpt lat="46.32909" lon="-1.31473">
        <ele>5.1</ele>
        <time>2021-06-17T10:09:09Z</time>
      </trkpt>
      <trkpt lat="46.3291" lon="-1.31474">
        <ele>5.1</ele>
        <time>2021-06-17T10:09:10Z</time>
      </trkpt>
      <trkpt lat="46.32911" lon="-1.31475">
        <ele>5.1</ele>
        <time>2021-06-17T10:09:11Z</time>
      </trkpt>
      <trkpt lat="46.32912" lon="-1.31476">
        <ele>5.1</ele>
        <time>2021-06-17T10:09:12Z</time>
      </trkpt>
      <trkpt lat="46.32913" lon="-1.31477">
        <ele>5.1</ele>
        <time>2021-06-17T10:09:13Z</time>
      </trkpt>
      <trkpt lat="46.32914" lon="-1.31479">
        <ele>5.1</ele>
        <time>2021-06-17T10:09:14Z</time>
      </trkpt>
      <trkpt lat="46.32915" lon="-1.3148">
        <ele>5.1</ele>
        <time>2021-06-17T10:09:15Z</time>
      </trkpt>
      <trkpt lat="46.32916" lon="-1.31481">
        <ele>5.1</ele>
        <time>2021-06-17T10:09:16Z</time>
      </trkpt>
      <trkpt lat="46.32917" lon="-1.31482">
        <ele>5.1</ele>
        <time>2021-06-17T10:09:17Z</time>
      </trkpt>
      <trkpt lat="46.32918" lon="-1.31484">
        <ele>5.1</ele>
        <time>2021-06-17T10:09:18Z</time>
      </trkpt>
      <trkpt lat="46.32919" lon="-1.31485">
        <ele>5.1</ele>
        <time>2021-06-17T10:09:19Z</time>
      </trkpt>
      <trkpt lat="46.32921" lon="-1.31486">
        <ele>5.1</ele>
        <time>2021-06-17T10:09:20Z</time>
      </trkpt>
      <trkpt lat="46.32922" lon="-1.31487">
        <ele>5.1</ele>
        <time>2021-06-17T10:09:21Z</time>
      </trkpt>
      <trkpt lat="46.32923" lon="-1.31488">
        <ele>5.1</ele>
        <time>2021-06-17T10:09:22Z</time>
      </trkpt>
      <trkpt lat="46.32924" lon="-1.3149">
        <ele>5.1</ele>
        <time>2021-06-17T10:09:23Z</time>
      </trkpt>
      <trkpt lat="46.32925" lon="-1.31491">
        <ele>5.1</ele>
        <time>2021-06-17T10:09:24Z</time>
      </trkpt>
      <trkpt lat="46.32926" lon="-1.31492">
        <ele>5.1</ele>
        <time>2021-06-17T10:09:25Z</time>
      </trkpt>
      <trkpt lat="46.32927" lon="-1.31493">
        <ele>5.1</ele>
        <time>2021-06-17T10:09:26Z</time>
      </trkpt>
      <trkpt lat="46.32928" lon="-1.31494">
        <ele>5.1</ele>
        <time>2021-06-17T10:09:27Z</time>
      </trkpt>
      <trkpt lat="46.32929" lon="-1.31495">
        <ele>5.1</ele>
        <time>2021-06-17T10:09:28Z</time>
      </trkpt>
      <trkpt lat="46.3293" lon="-1.31497">
        <ele>5.1</ele>
        <time>2021-06-17T10:09:29Z</time>
      </trkpt>
      <trkpt lat="46.32931" lon="-1.31498">
        <ele>5.1</ele>
        <time>2021-06-17T10:09:30Z</time>
      </trkpt>
      <trkpt lat="46.32932" lon="-1.31499">
        <ele>5.1</ele>
        <time>2021-06-17T10:09:31Z</time>
      </trkpt>
      <trkpt lat="46.32932" lon="-1.315">
        <ele>5.1</ele>
        <time>2021-06-17T10:09:32Z</time>
      </trkpt>
      <trkpt lat="46.32933" lon="-1.31501">
        <ele>5.1</ele>
        <time>2021-06-17T10:09:33Z</time>
      </trkpt>
      <trkpt lat="46.32934" lon="-1.31502">
        <ele>5.1</ele>
        <time>2021-06-17T10:09:34Z</time>
      </trkpt>
      <trkpt lat="46.32935" lon="-1.31503">
        <ele>5.1</ele>
        <time>2021-06-17T10:09:35Z</time>
      </trkpt>
      <trkpt lat="46.32936" lon="-1.31504">
        <ele>5.1</ele>
        <time>2021-06-17T10:09:36Z</time>
      </trkpt>
      <trkpt lat="46.32937" lon="-1.31506">
        <ele>5.1</ele>
        <time>2021-06-17T10:09:37Z</time>
      </trkpt>
      <trkpt lat="46.32938" lon="-1.31507">
        <ele>5.1</ele>
        <time>2021-06-17T10:09:38Z</time>
      </trkpt>
      <trkpt lat="46.32939" lon="-1.31508">
        <ele>5.1</ele>
        <time>2021-06-17T10:09:39Z</time>
      </trkpt>
      <trkpt lat="46.3294" lon="-1.31509">
        <ele>5.1</ele>
        <time>2021-06-17T10:09:40Z</time>
      </trkpt>
      <trkpt lat="46.32941" lon="-1.3151">
        <ele>5.1</ele>
        <time>2021-06-17T10:09:41Z</time>
      </trkpt>
      <trkpt lat="46.32942" lon="-1.31511">
        <ele>5.1</ele>
        <time>2021-06-17T10:09:42Z</time>
      </trkpt>
      <trkpt lat="46.32943" lon="-1.31512">
        <ele>5.1</ele>
        <time>2021-06-17T10:09:43Z</time>
      </trkpt>
      <trkpt lat="46.32944" lon="-1.31514">
        <ele>5.1</ele>
        <time>2021-06-17T10:09:44Z</time>
      </trkpt>
      <trkpt lat="46.32945" lon="-1.31515">
        <ele>5.1</ele>
        <time>2021-06-17T10:09:45Z</time>
      </trkpt>
      <trkpt lat="46.32947" lon="-1.31516">
        <ele>5.1</ele>
        <time>2021-06-17T10:09:46Z</time>
      </trkpt>
      <trkpt lat="46.32948" lon="-1.31517">
        <ele>5.1</ele>
        <time>2021-06-17T10:09:47Z</time>
      </trkpt>
      <trkpt lat="46.32949" lon="-1.31518">
        <ele>5.1</ele>
        <time>2021-06-17T10:09:48Z</time>
      </trkpt>
      <trkpt lat="46.3295" lon="-1.3152">
        <ele>5.1</ele>
        <time>2021-06-17T10:09:49Z</time>
      </trkpt>
      <trkpt lat="46.32951" lon="-1.31521">
        <ele>5.1</ele>
        <time>2021-06-17T10:09:50Z</time>
      </trkpt>
      <trkpt lat="46.32952" lon="-1.31522">
        <ele>5.1</ele>
        <time>2021-06-17T10:09:51Z</time>
      </trkpt>
      <trkpt lat="46.32953" lon="-1.31523">
        <ele>5.1</ele>
        <time>2021-06-17T10:09:52Z</time>
      </trkpt>
      <trkpt lat="46.32954" lon="-1.31524">
        <ele>5.1</ele>
        <time>2021-06-17T10:09:53Z</time>
      </trkpt>
      <trkpt lat="46.32955" lon="-1.31526">
        <ele>5.1</ele>
        <time>2021-06-17T10:09:54Z</time>
      </trkpt>
      <trkpt lat="46.32956" lon="-1.31527">
        <ele>5.1</ele>
        <time>2021-06-17T10:09:55Z</time>
      </trkpt>
      <trkpt lat="46.32958" lon="-1.31528">
        <ele>5.1</ele>
        <time>2021-06-17T10:09:56Z</time>
      </trkpt>
      <trkpt lat="46.32959" lon="-1.31529">
        <ele>5.1</ele>
        <time>2021-06-17T10:09:57Z</time>
      </trkpt>
      <trkpt lat="46.3296" lon="-1.31531">
        <ele>5.1</ele>
        <time>2021-06-17T10:09:58Z</time>
      </trkpt>
      <trkpt lat="46.32961" lon="-1.31532">
        <ele>5.1</ele>
        <time>2021-06-17T10:09:59Z</time>
      </trkpt>
      <trkpt lat="46.32962" lon="-1.31533">
        <ele>5.1</ele>
        <time>2021-06-17T10:10:00Z</time>
      </trkpt>
      <trkpt lat="46.32963" lon="-1.31534">
        <ele>5.1</ele>
        <time>2021-06-17T10:10:01Z</time>
      </trkpt>
      <trkpt lat="46.32964" lon="-1.31536">
        <ele>5.1</ele>
        <time>2021-06-17T10:10:02Z</time>
      </trkpt>
      <trkpt lat="46.32965" lon="-1.31537">
        <ele>5.1</ele>
        <time>2021-06-17T10:10:03Z</time>
      </trkpt>
      <trkpt lat="46.32967" lon="-1.31538">
        <ele>5.1</ele>
        <time>2021-06-17T10:10:04Z</time>
      </trkpt>
      <trkpt lat="46.32968" lon="-1.31539">
        <ele>5.1</ele>
        <time>2021-06-17T10:10:05Z</time>
      </trkpt>
      <trkpt lat="46.32969" lon="-1.31541">
        <ele>5.1</ele>
        <time>2021-06-17T10:10:06Z</time>
      </trkpt>
      <trkpt lat="46.3297" lon="-1.31542">
        <ele>5.1</ele>
        <time>2021-06-17T10:10:07Z</time>
      </trkpt>
      <trkpt lat="46.32971" lon="-1.31543">
        <ele>5.1</ele>
        <time>2021-06-17T10:10:08Z</time>
      </trkpt>
      <trkpt lat="46.32972" lon="-1.31545">
        <ele>5.1</ele>
        <time>2021-06-17T10:10:09Z</time>
      </trkpt>
      <trkpt lat="46.32973" lon="-1.31546">
        <ele>5.1</ele>
        <time>2021-06-17T10:10:10Z</time>
      </trkpt>
      <trkpt lat="46.32974" lon="-1.31547">
        <ele>5.1</ele>
        <time>2021-06-17T10:10:11Z</time>
      </trkpt>
      <trkpt lat="46.32976" lon="-1.31549">
        <ele>5.1</ele>
        <time>2021-06-17T10:10:12Z</time>
      </trkpt>
      <trkpt lat="46.32977" lon="-1.3155">
        <ele>5.1</ele>
        <time>2021-06-17T10:10:13Z</time>
      </trkpt>
      <trkpt lat="46.32978" lon="-1.31551">
        <ele>5.1</ele>
        <time>2021-06-17T10:10:14Z</time>
      </trkpt>
      <trkpt lat="46.32979" lon="-1.31552">
        <ele>5.1</ele>
        <time>2021-06-17T10:10:15Z</time>
      </trkpt>
      <trkpt lat="46.3298" lon="-1.31554">
        <ele>5.1</ele>
        <time>2021-06-17T10:10:16Z</time>
      </trkpt>
      <trkpt lat="46.32981" lon="-1.31555">
        <ele>5.1</ele>
        <time>2021-06-17T10:10:17Z</time>
      </trkpt>
      <trkpt lat="46.32982" lon="-1.31556">
        <ele>5.1</ele>
        <time>2021-06-17T10:10:18Z</time>
      </trkpt>
      <trkpt lat="46.32983" lon="-1.31557">
        <ele>5.1</ele>
        <time>2021-06-17T10:10:19Z</time>
      </trkpt>
      <trkpt lat="46.32984" lon="-1.31559">
        <ele>5.1</ele>
        <time>2021-06-17T10:10:20Z</time>
      </trkpt>
      <trkpt lat="46.32985" lon="-1.3156">
        <ele>5.1</ele>
        <time>2021-06-17T10:10:21Z</time>
      </trkpt>
      <trkpt lat="46.32986" lon="-1.31561">
        <ele>5.1</ele>
        <time>2021-06-17T10:10:22Z</time>
      </trkpt>
      <trkpt lat="46.32987" lon="-1.31562">
        <ele>5.1</ele>
        <time>2021-06-17T10:10:23Z</time>
      </trkpt>
      <trkpt lat="46.32988" lon="-1.31563">
        <ele>5.1</ele>
        <time>2021-06-17T10:10:24Z</time>
      </trkpt>
      <trkpt lat="46.32989" lon="-1.31564">
        <ele>5.1</ele>
        <time>2021-06-17T10:10:25Z</time>
      </trkpt>
      <trkpt lat="46.3299" lon="-1.31565">
        <ele>5.1</ele>
        <time>2021-06-17T10:10:26Z</time>
      </trkpt>
      <trkpt lat="46.32991" lon="-1.31566">
        <ele>5.1</ele>
        <time>2021-06-17T10:10:27Z</time>
      </trkpt>
      <trkpt lat="46.32992" lon="-1.31567">
        <ele>5.1</ele>
        <time>2021-06-17T10:10:28Z</time>
      </trkpt>
      <trkpt lat="46.32993" lon="-1.31568">
        <ele>5.1</ele>
        <time>2021-06-17T10:10:29Z</time>
      </trkpt>
      <trkpt lat="46.32994" lon="-1.31569">
        <ele>5.1</ele>
        <time>2021-06-17T10:10:30Z</time>
      </trkpt>
      <trkpt lat="46.32995" lon="-1.3157">
        <ele>5.1</ele>
        <time>2021-06-17T10:10:31Z</time>
      </trkpt>
      <trkpt lat="46.32996" lon="-1.31571">
        <ele>5.1</ele>
        <time>2021-06-17T10:10:32Z</time>
      </trkpt>
      <trkpt lat="46.32997" lon="-1.31572">
        <ele>5.1</ele>
        <time>2021-06-17T10:10:33Z</time>
      </trkpt>
      <trkpt lat="46.32998" lon="-1.31573">
        <ele>5.1</ele>
        <time>2021-06-17T10:10:34Z</time>
      </trkpt>
      <trkpt lat="46.32999" lon="-1.31574">
        <ele>5.1</ele>
        <time>2021-06-17T10:10:35Z</time>
      </trkpt>
      <trkpt lat="46.33001" lon="-1.31576">
        <ele>5.1</ele>
        <time>2021-06-17T10:10:36Z</time>
      </trkpt>
      <trkpt lat="46.33002" lon="-1.31577">
        <ele>5.1</ele>
        <time>2021-06-17T10:10:37Z</time>
      </trkpt>
      <trkpt lat="46.33003" lon="-1.31578">
        <ele>5.1</ele>
        <time>2021-06-17T10:10:38Z</time>
      </trkpt>
      <trkpt lat="46.33004" lon="-1.31579">
        <ele>5.1</ele>
        <time>2021-06-17T10:10:39Z</time>
      </trkpt>
      <trkpt lat="46.33006" lon="-1.31581">
        <ele>5.1</ele>
        <time>2021-06-17T10:10:40Z</time>
      </trkpt>
      <trkpt lat="46.33007" lon="-1.31582">
        <ele>5.1</ele>
        <time>2021-06-17T10:10:41Z</time>
      </trkpt>
      <trkpt lat="46.33007" lon="-1.31583">
        <ele>5.1</ele>
        <time>2021-06-17T10:10:42Z</time>
      </trkpt>
      <trkpt lat="46.33008" lon="-1.31583">
        <ele>5.1</ele>
        <time>2021-06-17T10:10:43Z</time>
      </trkpt>
      <trkpt lat="46.33009" lon="-1.31584">
        <ele>5.1</ele>
        <time>2021-06-17T10:10:44Z</time>
      </trkpt>
      <trkpt lat="46.33009" lon="-1.31585">
        <ele>5.1</ele>
        <time>2021-06-17T10:10:45Z</time>
      </trkpt>
      <trkpt lat="46.3301" lon="-1.31586">
        <ele>5.1</ele>
        <time>2021-06-17T10:10:46Z</time>
      </trkpt>
      <trkpt lat="46.33011" lon="-1.31586">
        <ele>5.1</ele>
        <time>2021-06-17T10:10:47Z</time>
      </trkpt>
      <trkpt lat="46.33011" lon="-1.31587">
        <ele>5.1</ele>
        <time>2021-06-17T10:10:48Z</time>
      </trkpt>
      <trkpt lat="46.33012" lon="-1.31588">
        <ele>5.1</ele>
        <time>2021-06-17T10:10:49Z</time>
      </trkpt>
      <trkpt lat="46.33013" lon="-1.31589">
        <ele>5.1</ele>
        <time>2021-06-17T10:10:50Z</time>
      </trkpt>
      <trkpt lat="46.33014" lon="-1.31589">
        <ele>5.1</ele>
        <time>2021-06-17T10:10:51Z</time>
      </trkpt>
      <trkpt lat="46.33015" lon="-1.3159">
        <ele>5.1</ele>
        <time>2021-06-17T10:10:52Z</time>
      </trkpt>
      <trkpt lat="46.33016" lon="-1.31591">
        <ele>5.1</ele>
        <time>2021-06-17T10:10:53Z</time>
      </trkpt>
      <trkpt lat="46.33017" lon="-1.31592">
        <ele>5.1</ele>
        <time>2021-06-17T10:10:54Z</time>
      </trkpt>
      <trkpt lat="46.33018" lon="-1.31593">
        <ele>5.1</ele>
        <time>2021-06-17T10:10:55Z</time>
      </trkpt>
      <trkpt lat="46.33019" lon="-1.31594">
        <ele>5.1</ele>
        <time>2021-06-17T10:10:56Z</time>
      </trkpt>
      <trkpt lat="46.3302" lon="-1.31595">
        <ele>5.2</ele>
        <time>2021-06-17T10:10:57Z</time>
      </trkpt>
      <trkpt lat="46.33021" lon="-1.31596">
        <ele>5.2</ele>
        <time>2021-06-17T10:10:58Z</time>
      </trkpt>
      <trkpt lat="46.33023" lon="-1.31598">
        <ele>5.2</ele>
        <time>2021-06-17T10:10:59Z</time>
      </trkpt>
      <trkpt lat="46.33024" lon="-1.31599">
        <ele>5.2</ele>
        <time>2021-06-17T10:11:00Z</time>
      </trkpt>
      <trkpt lat="46.33025" lon="-1.316">
        <ele>5.2</ele>
        <time>2021-06-17T10:11:01Z</time>
      </trkpt>
      <trkpt lat="46.33027" lon="-1.31602">
        <ele>5.2</ele>
        <time>2021-06-17T10:11:02Z</time>
      </trkpt>
      <trkpt lat="46.33028" lon="-1.31603">
        <ele>5.2</ele>
        <time>2021-06-17T10:11:03Z</time>
      </trkpt>
      <trkpt lat="46.33029" lon="-1.31604">
        <ele>5.2</ele>
        <time>2021-06-17T10:11:04Z</time>
      </trkpt>
      <trkpt lat="46.3303" lon="-1.31605">
        <ele>5.2</ele>
        <time>2021-06-17T10:11:05Z</time>
      </trkpt>
      <trkpt lat="46.33031" lon="-1.31607">
        <ele>5.2</ele>
        <time>2021-06-17T10:11:06Z</time>
      </trkpt>
      <trkpt lat="46.33032" lon="-1.31608">
        <ele>5.2</ele>
        <time>2021-06-17T10:11:07Z</time>
      </trkpt>
      <trkpt lat="46.33033" lon="-1.31609">
        <ele>5.2</ele>
        <time>2021-06-17T10:11:08Z</time>
      </trkpt>
      <trkpt lat="46.33034" lon="-1.3161">
        <ele>5.2</ele>
        <time>2021-06-17T10:11:09Z</time>
      </trkpt>
      <trkpt lat="46.33034" lon="-1.31611">
        <ele>5.2</ele>
        <time>2021-06-17T10:11:10Z</time>
      </trkpt>
      <trkpt lat="46.33035" lon="-1.31612">
        <ele>5.2</ele>
        <time>2021-06-17T10:11:11Z</time>
      </trkpt>
      <trkpt lat="46.33036" lon="-1.31613">
        <ele>5.2</ele>
        <time>2021-06-17T10:11:12Z</time>
      </trkpt>
      <trkpt lat="46.33037" lon="-1.31614">
        <ele>5.2</ele>
        <time>2021-06-17T10:11:13Z</time>
      </trkpt>
      <trkpt lat="46.33038" lon="-1.31615">
        <ele>5.2</ele>
        <time>2021-06-17T10:11:14Z</time>
      </trkpt>
      <trkpt lat="46.33039" lon="-1.31616">
        <ele>5.2</ele>
        <time>2021-06-17T10:11:15Z</time>
      </trkpt>
      <trkpt lat="46.3304" lon="-1.31617">
        <ele>5.2</ele>
        <time>2021-06-17T10:11:16Z</time>
      </trkpt>
      <trkpt lat="46.33041" lon="-1.31618">
        <ele>5.2</ele>
        <time>2021-06-17T10:11:17Z</time>
      </trkpt>
      <trkpt lat="46.33042" lon="-1.31619">
        <ele>5.2</ele>
        <time>2021-06-17T10:11:18Z</time>
      </trkpt>
      <trkpt lat="46.33043" lon="-1.3162">
        <ele>5.2</ele>
        <time>2021-06-17T10:11:19Z</time>
      </trkpt>
      <trkpt lat="46.33044" lon="-1.31622">
        <ele>5.2</ele>
        <time>2021-06-17T10:11:20Z</time>
      </trkpt>
      <trkpt lat="46.33045" lon="-1.31623">
        <ele>5.2</ele>
        <time>2021-06-17T10:11:21Z</time>
      </trkpt>
      <trkpt lat="46.33046" lon="-1.31624">
        <ele>5.2</ele>
        <time>2021-06-17T10:11:22Z</time>
      </trkpt>
      <trkpt lat="46.33047" lon="-1.31625">
        <ele>5.2</ele>
        <time>2021-06-17T10:11:23Z</time>
      </trkpt>
      <trkpt lat="46.33049" lon="-1.31626">
        <ele>5.2</ele>
        <time>2021-06-17T10:11:24Z</time>
      </trkpt>
      <trkpt lat="46.3305" lon="-1.31628">
        <ele>5.1</ele>
        <time>2021-06-17T10:11:25Z</time>
      </trkpt>
      <trkpt lat="46.33051" lon="-1.31629">
        <ele>5.1</ele>
        <time>2021-06-17T10:11:26Z</time>
      </trkpt>
      <trkpt lat="46.33052" lon="-1.3163">
        <ele>5.1</ele>
        <time>2021-06-17T10:11:27Z</time>
      </trkpt>
      <trkpt lat="46.33053" lon="-1.31631">
        <ele>5.1</ele>
        <time>2021-06-17T10:11:28Z</time>
      </trkpt>
      <trkpt lat="46.33055" lon="-1.31631">
        <ele>5.1</ele>
        <time>2021-06-17T10:11:29Z</time>
      </trkpt>
      <trkpt lat="46.33056" lon="-1.31632">
        <ele>5.1</ele>
        <time>2021-06-17T10:11:30Z</time>
      </trkpt>
      <trkpt lat="46.33057" lon="-1.31633">
        <ele>5.1</ele>
        <time>2021-06-17T10:11:31Z</time>
      </trkpt>
      <trkpt lat="46.33058" lon="-1.31634">
        <ele>5.1</ele>
        <time>2021-06-17T10:11:32Z</time>
      </trkpt>
      <trkpt lat="46.33059" lon="-1.31634">
        <ele>5.1</ele>
        <time>2021-06-17T10:11:33Z</time>
      </trkpt>
      <trkpt lat="46.3306" lon="-1.31634">
        <ele>5</ele>
        <time>2021-06-17T10:11:34Z</time>
      </trkpt>
      <trkpt lat="46.33061" lon="-1.31634">
        <ele>5</ele>
        <time>2021-06-17T10:11:35Z</time>
      </trkpt>
      <trkpt lat="46.33062" lon="-1.31634">
        <ele>5</ele>
        <time>2021-06-17T10:11:36Z</time>
      </trkpt>
      <trkpt lat="46.33063" lon="-1.31634">
        <ele>5</ele>
        <time>2021-06-17T10:11:37Z</time>
      </trkpt>
      <trkpt lat="46.33063" lon="-1.31634">
        <ele>5</ele>
        <time>2021-06-17T10:11:38Z</time>
      </trkpt>
      <trkpt lat="46.33064" lon="-1.31633">
        <ele>5</ele>
        <time>2021-06-17T10:11:39Z</time>
      </trkpt>
      <trkpt lat="46.33064" lon="-1.31632">
        <ele>5</ele>
        <time>2021-06-17T10:11:40Z</time>
      </trkpt>
      <trkpt lat="46.33064" lon="-1.31631">
        <ele>5</ele>
        <time>2021-06-17T10:11:41Z</time>
      </trkpt>
      <trkpt lat="46.33065" lon="-1.3163">
        <ele>5</ele>
        <time>2021-06-17T10:11:42Z</time>
      </trkpt>
      <trkpt lat="46.33065" lon="-1.31629">
        <ele>5</ele>
        <time>2021-06-17T10:11:43Z</time>
      </trkpt>
      <trkpt lat="46.33065" lon="-1.31628">
        <ele>5</ele>
        <time>2021-06-17T10:11:44Z</time>
      </trkpt>
      <trkpt lat="46.33066" lon="-1.31626">
        <ele>5</ele>
        <time>2021-06-17T10:11:45Z</time>
      </trkpt>
      <trkpt lat="46.33066" lon="-1.31624">
        <ele>5</ele>
        <time>2021-06-17T10:11:46Z</time>
      </trkpt>
      <trkpt lat="46.33067" lon="-1.31623">
        <ele>5</ele>
        <time>2021-06-17T10:11:47Z</time>
      </trkpt>
      <trkpt lat="46.33067" lon="-1.31621">
        <ele>5</ele>
        <time>2021-06-17T10:11:48Z</time>
      </trkpt>
      <trkpt lat="46.33068" lon="-1.31619">
        <ele>5</ele>
        <time>2021-06-17T10:11:49Z</time>
      </trkpt>
      <trkpt lat="46.33068" lon="-1.31618">
        <ele>5</ele>
        <time>2021-06-17T10:11:50Z</time>
      </trkpt>
      <trkpt lat="46.33069" lon="-1.31616">
        <ele>5</ele>
        <time>2021-06-17T10:11:51Z</time>
      </trkpt>
      <trkpt lat="46.3307" lon="-1.31615">
        <ele>5</ele>
        <time>2021-06-17T10:11:52Z</time>
      </trkpt>
      <trkpt lat="46.3307" lon="-1.31613">
        <ele>5</ele>
        <time>2021-06-17T10:11:53Z</time>
      </trkpt>
      <trkpt lat="46.33071" lon="-1.31612">
        <ele>4.9</ele>
        <time>2021-06-17T10:11:54Z</time>
      </trkpt>
      <trkpt lat="46.33072" lon="-1.3161">
        <ele>4.9</ele>
        <time>2021-06-17T10:11:55Z</time>
      </trkpt>
      <trkpt lat="46.33073" lon="-1.31609">
        <ele>4.9</ele>
        <time>2021-06-17T10:11:56Z</time>
      </trkpt>
      <trkpt lat="46.33073" lon="-1.31607">
        <ele>4.9</ele>
        <time>2021-06-17T10:11:57Z</time>
      </trkpt>
      <trkpt lat="46.33074" lon="-1.31606">
        <ele>4.9</ele>
        <time>2021-06-17T10:11:58Z</time>
      </trkpt>
      <trkpt lat="46.33075" lon="-1.31604">
        <ele>4.9</ele>
        <time>2021-06-17T10:11:59Z</time>
      </trkpt>
      <trkpt lat="46.33076" lon="-1.31603">
        <ele>4.9</ele>
        <time>2021-06-17T10:12:00Z</time>
      </trkpt>
      <trkpt lat="46.33076" lon="-1.31601">
        <ele>4.9</ele>
        <time>2021-06-17T10:12:01Z</time>
      </trkpt>
      <trkpt lat="46.33077" lon="-1.316">
        <ele>4.9</ele>
        <time>2021-06-17T10:12:02Z</time>
      </trkpt>
      <trkpt lat="46.33078" lon="-1.31598">
        <ele>4.9</ele>
        <time>2021-06-17T10:12:03Z</time>
      </trkpt>
      <trkpt lat="46.33078" lon="-1.31597">
        <ele>4.9</ele>
        <time>2021-06-17T10:12:04Z</time>
      </trkpt>
      <trkpt lat="46.33079" lon="-1.31595">
        <ele>4.9</ele>
        <time>2021-06-17T10:12:05Z</time>
      </trkpt>
      <trkpt lat="46.3308" lon="-1.31593">
        <ele>4.9</ele>
        <time>2021-06-17T10:12:06Z</time>
      </trkpt>
      <trkpt lat="46.3308" lon="-1.31592">
        <ele>4.8</ele>
        <time>2021-06-17T10:12:07Z</time>
      </trkpt>
      <trkpt lat="46.33081" lon="-1.3159">
        <ele>4.8</ele>
        <time>2021-06-17T10:12:08Z</time>
      </trkpt>
      <trkpt lat="46.33081" lon="-1.31589">
        <ele>4.8</ele>
        <time>2021-06-17T10:12:09Z</time>
      </trkpt>
      <trkpt lat="46.33082" lon="-1.31587">
        <ele>4.8</ele>
        <time>2021-06-17T10:12:10Z</time>
      </trkpt>
      <trkpt lat="46.33083" lon="-1.31585">
        <ele>4.8</ele>
        <time>2021-06-17T10:12:11Z</time>
      </trkpt>
      <trkpt lat="46.33083" lon="-1.31584">
        <ele>4.8</ele>
        <time>2021-06-17T10:12:12Z</time>
      </trkpt>
      <trkpt lat="46.33084" lon="-1.31582">
        <ele>4.8</ele>
        <time>2021-06-17T10:12:13Z</time>
      </trkpt>
      <trkpt lat="46.33084" lon="-1.3158">
        <ele>4.8</ele>
        <time>2021-06-17T10:12:14Z</time>
      </trkpt>
      <trkpt lat="46.33085" lon="-1.31579">
        <ele>4.8</ele>
        <time>2021-06-17T10:12:15Z</time>
      </trkpt>
      <trkpt lat="46.33085" lon="-1.31577">
        <ele>4.8</ele>
        <time>2021-06-17T10:12:16Z</time>
      </trkpt>
      <trkpt lat="46.33085" lon="-1.31576">
        <ele>4.8</ele>
        <time>2021-06-17T10:12:17Z</time>
      </trkpt>
      <trkpt lat="46.33086" lon="-1.31575">
        <ele>4.8</ele>
        <time>2021-06-17T10:12:18Z</time>
      </trkpt>
      <trkpt lat="46.33086" lon="-1.31574">
        <ele>4.8</ele>
        <time>2021-06-17T10:12:19Z</time>
      </trkpt>
      <trkpt lat="46.33086" lon="-1.31574">
        <ele>4.8</ele>
        <time>2021-06-17T10:12:20Z</time>
      </trkpt>
      <trkpt lat="46.33086" lon="-1.31574">
        <ele>4.8</ele>
        <time>2021-06-17T10:12:21Z</time>
      </trkpt>
      <trkpt lat="46.33086" lon="-1.31574">
        <ele>4.8</ele>
        <time>2021-06-17T10:12:22Z</time>
      </trkpt>
      <trkpt lat="46.33086" lon="-1.31574">
        <ele>4.8</ele>
        <time>2021-06-17T10:12:23Z</time>
      </trkpt>
      <trkpt lat="46.33086" lon="-1.31574">
        <ele>4.8</ele>
        <time>2021-06-17T10:12:24Z</time>
      </trkpt>
      <trkpt lat="46.33086" lon="-1.31573">
        <ele>4.8</ele>
        <time>2021-06-17T10:12:25Z</time>
      </trkpt>
      <trkpt lat="46.33086" lon="-1.31573">
        <ele>4.8</ele>
        <time>2021-06-17T10:12:26Z</time>
      </trkpt>
      <trkpt lat="46.33086" lon="-1.31572">
        <ele>4.8</ele>
        <time>2021-06-17T10:12:27Z</time>
      </trkpt>
      <trkpt lat="46.33087" lon="-1.31571">
        <ele>4.8</ele>
        <time>2021-06-17T10:12:28Z</time>
      </trkpt>
      <trkpt lat="46.33087" lon="-1.3157">
        <ele>4.8</ele>
        <time>2021-06-17T10:12:29Z</time>
      </trkpt>
      <trkpt lat="46.33087" lon="-1.31569">
        <ele>4.8</ele>
        <time>2021-06-17T10:12:30Z</time>
      </trkpt>
      <trkpt lat="46.33088" lon="-1.31568">
        <ele>4.8</ele>
        <time>2021-06-17T10:12:31Z</time>
      </trkpt>
      <trkpt lat="46.33088" lon="-1.31567">
        <ele>4.8</ele>
        <time>2021-06-17T10:12:32Z</time>
      </trkpt>
      <trkpt lat="46.33089" lon="-1.31566">
        <ele>4.8</ele>
        <time>2021-06-17T10:12:33Z</time>
      </trkpt>
      <trkpt lat="46.3309" lon="-1.31564">
        <ele>4.8</ele>
        <time>2021-06-17T10:12:34Z</time>
      </trkpt>
      <trkpt lat="46.3309" lon="-1.31562">
        <ele>4.8</ele>
        <time>2021-06-17T10:12:35Z</time>
      </trkpt>
      <trkpt lat="46.33091" lon="-1.31561">
        <ele>4.8</ele>
        <time>2021-06-17T10:12:36Z</time>
      </trkpt>
      <trkpt lat="46.33091" lon="-1.31559">
        <ele>4.8</ele>
        <time>2021-06-17T10:12:37Z</time>
      </trkpt>
      <trkpt lat="46.33092" lon="-1.31557">
        <ele>4.8</ele>
        <time>2021-06-17T10:12:38Z</time>
      </trkpt>
      <trkpt lat="46.33093" lon="-1.31555">
        <ele>4.8</ele>
        <time>2021-06-17T10:12:39Z</time>
      </trkpt>
      <trkpt lat="46.33093" lon="-1.31553">
        <ele>4.8</ele>
        <time>2021-06-17T10:12:40Z</time>
      </trkpt>
      <trkpt lat="46.33094" lon="-1.31551">
        <ele>4.8</ele>
        <time>2021-06-17T10:12:41Z</time>
      </trkpt>
      <trkpt lat="46.33095" lon="-1.3155">
        <ele>4.8</ele>
        <time>2021-06-17T10:12:42Z</time>
      </trkpt>
      <trkpt lat="46.33095" lon="-1.31548">
        <ele>4.8</ele>
        <time>2021-06-17T10:12:43Z</time>
      </trkpt>
      <trkpt lat="46.33096" lon="-1.31546">
        <ele>4.8</ele>
        <time>2021-06-17T10:12:44Z</time>
      </trkpt>
      <trkpt lat="46.33097" lon="-1.31544">
        <ele>4.8</ele>
        <time>2021-06-17T10:12:45Z</time>
      </trkpt>
      <trkpt lat="46.33097" lon="-1.31542">
        <ele>4.8</ele>
        <time>2021-06-17T10:12:46Z</time>
      </trkpt>
      <trkpt lat="46.33098" lon="-1.3154">
        <ele>4.8</ele>
        <time>2021-06-17T10:12:47Z</time>
      </trkpt>
      <trkpt lat="46.33099" lon="-1.31538">
        <ele>4.8</ele>
        <time>2021-06-17T10:12:48Z</time>
      </trkpt>
      <trkpt lat="46.33099" lon="-1.31537">
        <ele>4.8</ele>
        <time>2021-06-17T10:12:49Z</time>
      </trkpt>
      <trkpt lat="46.331" lon="-1.31535">
        <ele>4.8</ele>
        <time>2021-06-17T10:12:50Z</time>
      </trkpt>
      <trkpt lat="46.33101" lon="-1.31533">
        <ele>4.8</ele>
        <time>2021-06-17T10:12:51Z</time>
      </trkpt>
      <trkpt lat="46.33102" lon="-1.31532">
        <ele>4.8</ele>
        <time>2021-06-17T10:12:52Z</time>
      </trkpt>
      <trkpt lat="46.33102" lon="-1.3153">
        <ele>4.8</ele>
        <time>2021-06-17T10:12:53Z</time>
      </trkpt>
      <trkpt lat="46.33103" lon="-1.31529">
        <ele>4.8</ele>
        <time>2021-06-17T10:12:54Z</time>
      </trkpt>
      <trkpt lat="46.33104" lon="-1.31527">
        <ele>4.8</ele>
        <time>2021-06-17T10:12:55Z</time>
      </trkpt>
      <trkpt lat="46.33104" lon="-1.31526">
        <ele>4.8</ele>
        <time>2021-06-17T10:12:56Z</time>
      </trkpt>
      <trkpt lat="46.33105" lon="-1.31524">
        <ele>4.8</ele>
        <time>2021-06-17T10:12:57Z</time>
      </trkpt>
      <trkpt lat="46.33106" lon="-1.31523">
        <ele>4.8</ele>
        <time>2021-06-17T10:12:58Z</time>
      </trkpt>
      <trkpt lat="46.33106" lon="-1.31521">
        <ele>4.8</ele>
        <time>2021-06-17T10:12:59Z</time>
      </trkpt>
      <trkpt lat="46.33107" lon="-1.3152">
        <ele>4.8</ele>
        <time>2021-06-17T10:13:00Z</time>
      </trkpt>
      <trkpt lat="46.33108" lon="-1.31518">
        <ele>4.8</ele>
        <time>2021-06-17T10:13:01Z</time>
      </trkpt>
      <trkpt lat="46.33108" lon="-1.31517">
        <ele>4.8</ele>
        <time>2021-06-17T10:13:02Z</time>
      </trkpt>
      <trkpt lat="46.33109" lon="-1.31515">
        <ele>4.8</ele>
        <time>2021-06-17T10:13:03Z</time>
      </trkpt>
      <trkpt lat="46.3311" lon="-1.31514">
        <ele>4.8</ele>
        <time>2021-06-17T10:13:04Z</time>
      </trkpt>
      <trkpt lat="46.3311" lon="-1.31512">
        <ele>4.8</ele>
        <time>2021-06-17T10:13:05Z</time>
      </trkpt>
      <trkpt lat="46.33111" lon="-1.3151">
        <ele>4.8</ele>
        <time>2021-06-17T10:13:06Z</time>
      </trkpt>
      <trkpt lat="46.33112" lon="-1.31509">
        <ele>4.8</ele>
        <time>2021-06-17T10:13:07Z</time>
      </trkpt>
      <trkpt lat="46.33112" lon="-1.31507">
        <ele>4.8</ele>
        <time>2021-06-17T10:13:08Z</time>
      </trkpt>
      <trkpt lat="46.33113" lon="-1.31505">
        <ele>4.8</ele>
        <time>2021-06-17T10:13:09Z</time>
      </trkpt>
      <trkpt lat="46.33114" lon="-1.31504">
        <ele>4.8</ele>
        <time>2021-06-17T10:13:10Z</time>
      </trkpt>
      <trkpt lat="46.33114" lon="-1.31502">
        <ele>4.8</ele>
        <time>2021-06-17T10:13:11Z</time>
      </trkpt>
      <trkpt lat="46.33115" lon="-1.315">
        <ele>4.8</ele>
        <time>2021-06-17T10:13:12Z</time>
      </trkpt>
      <trkpt lat="46.33116" lon="-1.31498">
        <ele>4.8</ele>
        <time>2021-06-17T10:13:13Z</time>
      </trkpt>
      <trkpt lat="46.33116" lon="-1.31496">
        <ele>4.8</ele>
        <time>2021-06-17T10:13:14Z</time>
      </trkpt>
      <trkpt lat="46.33117" lon="-1.31494">
        <ele>4.8</ele>
        <time>2021-06-17T10:13:15Z</time>
      </trkpt>
      <trkpt lat="46.33117" lon="-1.31493">
        <ele>4.8</ele>
        <time>2021-06-17T10:13:16Z</time>
      </trkpt>
      <trkpt lat="46.33118" lon="-1.31491">
        <ele>4.8</ele>
        <time>2021-06-17T10:13:17Z</time>
      </trkpt>
      <trkpt lat="46.33119" lon="-1.31489">
        <ele>4.8</ele>
        <time>2021-06-17T10:13:18Z</time>
      </trkpt>
      <trkpt lat="46.3312" lon="-1.31487">
        <ele>4.8</ele>
        <time>2021-06-17T10:13:19Z</time>
      </trkpt>
      <trkpt lat="46.3312" lon="-1.31485">
        <ele>4.8</ele>
        <time>2021-06-17T10:13:20Z</time>
      </trkpt>
      <trkpt lat="46.33121" lon="-1.31484">
        <ele>4.7</ele>
        <time>2021-06-17T10:13:21Z</time>
      </trkpt>
      <trkpt lat="46.33122" lon="-1.31482">
        <ele>4.7</ele>
        <time>2021-06-17T10:13:22Z</time>
      </trkpt>
      <trkpt lat="46.33123" lon="-1.3148">
        <ele>4.7</ele>
        <time>2021-06-17T10:13:23Z</time>
      </trkpt>
      <trkpt lat="46.33123" lon="-1.31478">
        <ele>4.7</ele>
        <time>2021-06-17T10:13:24Z</time>
      </trkpt>
      <trkpt lat="46.33124" lon="-1.31477">
        <ele>4.7</ele>
        <time>2021-06-17T10:13:25Z</time>
      </trkpt>
      <trkpt lat="46.33125" lon="-1.31475">
        <ele>4.7</ele>
        <time>2021-06-17T10:13:26Z</time>
      </trkpt>
      <trkpt lat="46.33125" lon="-1.31473">
        <ele>4.7</ele>
        <time>2021-06-17T10:13:27Z</time>
      </trkpt>
      <trkpt lat="46.33126" lon="-1.31472">
        <ele>4.7</ele>
        <time>2021-06-17T10:13:28Z</time>
      </trkpt>
      <trkpt lat="46.33127" lon="-1.3147">
        <ele>4.7</ele>
        <time>2021-06-17T10:13:29Z</time>
      </trkpt>
      <trkpt lat="46.33127" lon="-1.31468">
        <ele>4.7</ele>
        <time>2021-06-17T10:13:30Z</time>
      </trkpt>
      <trkpt lat="46.33128" lon="-1.31467">
        <ele>4.7</ele>
        <time>2021-06-17T10:13:31Z</time>
      </trkpt>
      <trkpt lat="46.33129" lon="-1.31465">
        <ele>4.7</ele>
        <time>2021-06-17T10:13:32Z</time>
      </trkpt>
      <trkpt lat="46.33129" lon="-1.31464">
        <ele>4.7</ele>
        <time>2021-06-17T10:13:33Z</time>
      </trkpt>
      <trkpt lat="46.3313" lon="-1.31462">
        <ele>4.7</ele>
        <time>2021-06-17T10:13:34Z</time>
      </trkpt>
      <trkpt lat="46.3313" lon="-1.3146">
        <ele>4.7</ele>
        <time>2021-06-17T10:13:35Z</time>
      </trkpt>
      <trkpt lat="46.33131" lon="-1.31459">
        <ele>4.7</ele>
        <time>2021-06-17T10:13:36Z</time>
      </trkpt>
      <trkpt lat="46.33131" lon="-1.31457">
        <ele>4.7</ele>
        <time>2021-06-17T10:13:37Z</time>
      </trkpt>
      <trkpt lat="46.33132" lon="-1.31456">
        <ele>4.7</ele>
        <time>2021-06-17T10:13:38Z</time>
      </trkpt>
      <trkpt lat="46.33132" lon="-1.31454">
        <ele>4.7</ele>
        <time>2021-06-17T10:13:39Z</time>
      </trkpt>
      <trkpt lat="46.33133" lon="-1.31452">
        <ele>4.7</ele>
        <time>2021-06-17T10:13:40Z</time>
      </trkpt>
      <trkpt lat="46.33134" lon="-1.3145">
        <ele>4.7</ele>
        <time>2021-06-17T10:13:41Z</time>
      </trkpt>
      <trkpt lat="46.33134" lon="-1.31449">
        <ele>4.7</ele>
        <time>2021-06-17T10:13:42Z</time>
      </trkpt>
      <trkpt lat="46.33135" lon="-1.31447">
        <ele>4.7</ele>
        <time>2021-06-17T10:13:43Z</time>
      </trkpt>
      <trkpt lat="46.33136" lon="-1.31445">
        <ele>4.7</ele>
        <time>2021-06-17T10:13:44Z</time>
      </trkpt>
      <trkpt lat="46.33137" lon="-1.31443">
        <ele>4.7</ele>
        <time>2021-06-17T10:13:45Z</time>
      </trkpt>
      <trkpt lat="46.33138" lon="-1.31441">
        <ele>4.7</ele>
        <time>2021-06-17T10:13:46Z</time>
      </trkpt>
      <trkpt lat="46.33139" lon="-1.31439">
        <ele>4.7</ele>
        <time>2021-06-17T10:13:47Z</time>
      </trkpt>
      <trkpt lat="46.3314" lon="-1.31438">
        <ele>4.7</ele>
        <time>2021-06-17T10:13:48Z</time>
      </trkpt>
      <trkpt lat="46.33141" lon="-1.31436">
        <ele>4.7</ele>
        <time>2021-06-17T10:13:49Z</time>
      </trkpt>
      <trkpt lat="46.33141" lon="-1.31434">
        <ele>4.7</ele>
        <time>2021-06-17T10:13:50Z</time>
      </trkpt>
      <trkpt lat="46.33141" lon="-1.31433">
        <ele>4.7</ele>
        <time>2021-06-17T10:13:51Z</time>
      </trkpt>
      <trkpt lat="46.33142" lon="-1.31431">
        <ele>4.7</ele>
        <time>2021-06-17T10:13:52Z</time>
      </trkpt>
      <trkpt lat="46.33142" lon="-1.3143">
        <ele>4.7</ele>
        <time>2021-06-17T10:13:53Z</time>
      </trkpt>
      <trkpt lat="46.33142" lon="-1.31428">
        <ele>4.7</ele>
        <time>2021-06-17T10:13:54Z</time>
      </trkpt>
      <trkpt lat="46.33143" lon="-1.31427">
        <ele>4.7</ele>
        <time>2021-06-17T10:13:55Z</time>
      </trkpt>
      <trkpt lat="46.33143" lon="-1.31425">
        <ele>4.7</ele>
        <time>2021-06-17T10:13:56Z</time>
      </trkpt>
      <trkpt lat="46.33144" lon="-1.31424">
        <ele>4.7</ele>
        <time>2021-06-17T10:13:57Z</time>
      </trkpt>
      <trkpt lat="46.33144" lon="-1.31422">
        <ele>4.7</ele>
        <time>2021-06-17T10:13:58Z</time>
      </trkpt>
      <trkpt lat="46.33145" lon="-1.31421">
        <ele>4.7</ele>
        <time>2021-06-17T10:13:59Z</time>
      </trkpt>
      <trkpt lat="46.33146" lon="-1.3142">
        <ele>4.7</ele>
        <time>2021-06-17T10:14:00Z</time>
      </trkpt>
      <trkpt lat="46.33146" lon="-1.31418">
        <ele>4.7</ele>
        <time>2021-06-17T10:14:01Z</time>
      </trkpt>
      <trkpt lat="46.33147" lon="-1.31417">
        <ele>4.7</ele>
        <time>2021-06-17T10:14:02Z</time>
      </trkpt>
      <trkpt lat="46.33148" lon="-1.31415">
        <ele>4.7</ele>
        <time>2021-06-17T10:14:03Z</time>
      </trkpt>
      <trkpt lat="46.33149" lon="-1.31413">
        <ele>4.7</ele>
        <time>2021-06-17T10:14:04Z</time>
      </trkpt>
      <trkpt lat="46.33149" lon="-1.31412">
        <ele>4.7</ele>
        <time>2021-06-17T10:14:05Z</time>
      </trkpt>
      <trkpt lat="46.3315" lon="-1.3141">
        <ele>4.7</ele>
        <time>2021-06-17T10:14:06Z</time>
      </trkpt>
      <trkpt lat="46.33151" lon="-1.31408">
        <ele>4.7</ele>
        <time>2021-06-17T10:14:07Z</time>
      </trkpt>
      <trkpt lat="46.33151" lon="-1.31407">
        <ele>4.7</ele>
        <time>2021-06-17T10:14:08Z</time>
      </trkpt>
      <trkpt lat="46.33152" lon="-1.31405">
        <ele>4.8</ele>
        <time>2021-06-17T10:14:09Z</time>
      </trkpt>
      <trkpt lat="46.33153" lon="-1.31403">
        <ele>4.8</ele>
        <time>2021-06-17T10:14:10Z</time>
      </trkpt>
      <trkpt lat="46.33153" lon="-1.31402">
        <ele>4.8</ele>
        <time>2021-06-17T10:14:11Z</time>
      </trkpt>
      <trkpt lat="46.33154" lon="-1.314">
        <ele>4.8</ele>
        <time>2021-06-17T10:14:12Z</time>
      </trkpt>
      <trkpt lat="46.33155" lon="-1.31399">
        <ele>4.8</ele>
        <time>2021-06-17T10:14:13Z</time>
      </trkpt>
      <trkpt lat="46.33155" lon="-1.31397">
        <ele>4.8</ele>
        <time>2021-06-17T10:14:14Z</time>
      </trkpt>
      <trkpt lat="46.33156" lon="-1.31396">
        <ele>4.8</ele>
        <time>2021-06-17T10:14:15Z</time>
      </trkpt>
      <trkpt lat="46.33156" lon="-1.31395">
        <ele>4.8</ele>
        <time>2021-06-17T10:14:16Z</time>
      </trkpt>
      <trkpt lat="46.33156" lon="-1.31394">
        <ele>4.8</ele>
        <time>2021-06-17T10:14:17Z</time>
      </trkpt>
      <trkpt lat="46.33157" lon="-1.31393">
        <ele>4.8</ele>
        <time>2021-06-17T10:14:18Z</time>
      </trkpt>
      <trkpt lat="46.33157" lon="-1.31393">
        <ele>4.8</ele>
        <time>2021-06-17T10:14:19Z</time>
      </trkpt>
      <trkpt lat="46.33157" lon="-1.31393">
        <ele>4.8</ele>
        <time>2021-06-17T10:14:20Z</time>
      </trkpt>
      <trkpt lat="46.33157" lon="-1.31392">
        <ele>4.8</ele>
        <time>2021-06-17T10:14:21Z</time>
      </trkpt>
      <trkpt lat="46.33157" lon="-1.31392">
        <ele>4.8</ele>
        <time>2021-06-17T10:14:22Z</time>
      </trkpt>
      <trkpt lat="46.33158" lon="-1.31392">
        <ele>4.8</ele>
        <time>2021-06-17T10:14:23Z</time>
      </trkpt>
      <trkpt lat="46.33158" lon="-1.31392">
        <ele>4.8</ele>
        <time>2021-06-17T10:14:24Z</time>
      </trkpt>
      <trkpt lat="46.33158" lon="-1.31392">
        <ele>4.8</ele>
        <time>2021-06-17T10:14:25Z</time>
      </trkpt>
      <trkpt lat="46.33158" lon="-1.31392">
        <ele>4.8</ele>
        <time>2021-06-17T10:14:26Z</time>
      </trkpt>
      <trkpt lat="46.33158" lon="-1.31392">
        <ele>4.8</ele>
        <time>2021-06-17T10:14:27Z</time>
      </trkpt>
      <trkpt lat="46.33158" lon="-1.31391">
        <ele>4.8</ele>
        <time>2021-06-17T10:14:28Z</time>
      </trkpt>
      <trkpt lat="46.33159" lon="-1.3139">
        <ele>4.8</ele>
        <time>2021-06-17T10:14:29Z</time>
      </trkpt>
      <trkpt lat="46.33159" lon="-1.31389">
        <ele>4.8</ele>
        <time>2021-06-17T10:14:30Z</time>
      </trkpt>
      <trkpt lat="46.3316" lon="-1.31388">
        <ele>4.8</ele>
        <time>2021-06-17T10:14:31Z</time>
      </trkpt>
      <trkpt lat="46.33161" lon="-1.31387">
        <ele>4.8</ele>
        <time>2021-06-17T10:14:32Z</time>
      </trkpt>
      <trkpt lat="46.33163" lon="-1.31385">
        <ele>4.9</ele>
        <time>2021-06-17T10:14:33Z</time>
      </trkpt>
      <trkpt lat="46.33164" lon="-1.31384">
        <ele>4.9</ele>
        <time>2021-06-17T10:14:34Z</time>
      </trkpt>
      <trkpt lat="46.33165" lon="-1.31382">
        <ele>4.9</ele>
        <time>2021-06-17T10:14:35Z</time>
      </trkpt>
      <trkpt lat="46.33166" lon="-1.31381">
        <ele>4.9</ele>
        <time>2021-06-17T10:14:36Z</time>
      </trkpt>
      <trkpt lat="46.33168" lon="-1.3138">
        <ele>4.9</ele>
        <time>2021-06-17T10:14:37Z</time>
      </trkpt>
      <trkpt lat="46.33169" lon="-1.31379">
        <ele>4.9</ele>
        <time>2021-06-17T10:14:38Z</time>
      </trkpt>
      <trkpt lat="46.3317" lon="-1.31378">
        <ele>4.9</ele>
        <time>2021-06-17T10:14:39Z</time>
      </trkpt>
      <trkpt lat="46.33171" lon="-1.31378">
        <ele>4.9</ele>
        <time>2021-06-17T10:14:40Z</time>
      </trkpt>
      <trkpt lat="46.33172" lon="-1.31378">
        <ele>4.9</ele>
        <time>2021-06-17T10:14:41Z</time>
      </trkpt>
      <trkpt lat="46.33173" lon="-1.31378">
        <ele>4.9</ele>
        <time>2021-06-17T10:14:42Z</time>
      </trkpt>
      <trkpt lat="46.33174" lon="-1.31379">
        <ele>4.9</ele>
        <time>2021-06-17T10:14:43Z</time>
      </trkpt>
      <trkpt lat="46.33175" lon="-1.31379">
        <ele>4.9</ele>
        <time>2021-06-17T10:14:44Z</time>
      </trkpt>
      <trkpt lat="46.33176" lon="-1.3138">
        <ele>4.9</ele>
        <time>2021-06-17T10:14:45Z</time>
      </trkpt>
      <trkpt lat="46.33177" lon="-1.31381">
        <ele>4.9</ele>
        <time>2021-06-17T10:14:46Z</time>
      </trkpt>
      <trkpt lat="46.33178" lon="-1.31382">
        <ele>4.9</ele>
        <time>2021-06-17T10:14:47Z</time>
      </trkpt>
      <trkpt lat="46.33179" lon="-1.31383">
        <ele>4.9</ele>
        <time>2021-06-17T10:14:48Z</time>
      </trkpt>
      <trkpt lat="46.33181" lon="-1.31384">
        <ele>4.9</ele>
        <time>2021-06-17T10:14:49Z</time>
      </trkpt>
      <trkpt lat="46.33182" lon="-1.31386">
        <ele>4.9</ele>
        <time>2021-06-17T10:14:50Z</time>
      </trkpt>
      <trkpt lat="46.33183" lon="-1.31387">
        <ele>4.9</ele>
        <time>2021-06-17T10:14:51Z</time>
      </trkpt>
      <trkpt lat="46.33185" lon="-1.31388">
        <ele>4.9</ele>
        <time>2021-06-17T10:14:52Z</time>
      </trkpt>
      <trkpt lat="46.33186" lon="-1.31389">
        <ele>4.9</ele>
        <time>2021-06-17T10:14:53Z</time>
      </trkpt>
      <trkpt lat="46.33187" lon="-1.3139">
        <ele>4.9</ele>
        <time>2021-06-17T10:14:54Z</time>
      </trkpt>
      <trkpt lat="46.33188" lon="-1.3139">
        <ele>4.9</ele>
        <time>2021-06-17T10:14:55Z</time>
      </trkpt>
      <trkpt lat="46.33189" lon="-1.31391">
        <ele>4.9</ele>
        <time>2021-06-17T10:14:56Z</time>
      </trkpt>
      <trkpt lat="46.3319" lon="-1.31392">
        <ele>4.9</ele>
        <time>2021-06-17T10:14:57Z</time>
      </trkpt>
      <trkpt lat="46.33191" lon="-1.31393">
        <ele>4.8</ele>
        <time>2021-06-17T10:14:58Z</time>
      </trkpt>
      <trkpt lat="46.33192" lon="-1.31393">
        <ele>4.8</ele>
        <time>2021-06-17T10:14:59Z</time>
      </trkpt>
      <trkpt lat="46.33194" lon="-1.31394">
        <ele>4.8</ele>
        <time>2021-06-17T10:15:00Z</time>
      </trkpt>
      <trkpt lat="46.33195" lon="-1.31395">
        <ele>4.8</ele>
        <time>2021-06-17T10:15:01Z</time>
      </trkpt>
      <trkpt lat="46.33196" lon="-1.31396">
        <ele>4.8</ele>
        <time>2021-06-17T10:15:02Z</time>
      </trkpt>
      <trkpt lat="46.33197" lon="-1.31397">
        <ele>4.8</ele>
        <time>2021-06-17T10:15:03Z</time>
      </trkpt>
      <trkpt lat="46.33198" lon="-1.31398">
        <ele>4.8</ele>
        <time>2021-06-17T10:15:04Z</time>
      </trkpt>
      <trkpt lat="46.33199" lon="-1.31399">
        <ele>4.8</ele>
        <time>2021-06-17T10:15:05Z</time>
      </trkpt>
      <trkpt lat="46.332" lon="-1.314">
        <ele>4.8</ele>
        <time>2021-06-17T10:15:06Z</time>
      </trkpt>
      <trkpt lat="46.33201" lon="-1.31401">
        <ele>4.8</ele>
        <time>2021-06-17T10:15:07Z</time>
      </trkpt>
      <trkpt lat="46.33202" lon="-1.31402">
        <ele>4.8</ele>
        <time>2021-06-17T10:15:08Z</time>
      </trkpt>
      <trkpt lat="46.33203" lon="-1.31403">
        <ele>4.8</ele>
        <time>2021-06-17T10:15:09Z</time>
      </trkpt>
      <trkpt lat="46.33204" lon="-1.31404">
        <ele>4.8</ele>
        <time>2021-06-17T10:15:10Z</time>
      </trkpt>
      <trkpt lat="46.33205" lon="-1.31405">
        <ele>4.8</ele>
        <time>2021-06-17T10:15:11Z</time>
      </trkpt>
      <trkpt lat="46.33206" lon="-1.31406">
        <ele>4.8</ele>
        <time>2021-06-17T10:15:12Z</time>
      </trkpt>
      <trkpt lat="46.33207" lon="-1.31407">
        <ele>4.8</ele>
        <time>2021-06-17T10:15:13Z</time>
      </trkpt>
      <trkpt lat="46.33208" lon="-1.31407">
        <ele>4.8</ele>
        <time>2021-06-17T10:15:14Z</time>
      </trkpt>
      <trkpt lat="46.33209" lon="-1.31408">
        <ele>4.8</ele>
        <time>2021-06-17T10:15:15Z</time>
      </trkpt>
      <trkpt lat="46.3321" lon="-1.31409">
        <ele>4.8</ele>
        <time>2021-06-17T10:15:16Z</time>
      </trkpt>
      <trkpt lat="46.33211" lon="-1.31409">
        <ele>4.8</ele>
        <time>2021-06-17T10:15:17Z</time>
      </trkpt>
      <trkpt lat="46.33212" lon="-1.3141">
        <ele>4.8</ele>
        <time>2021-06-17T10:15:18Z</time>
      </trkpt>
      <trkpt lat="46.33213" lon="-1.31411">
        <ele>4.8</ele>
        <time>2021-06-17T10:15:19Z</time>
      </trkpt>
      <trkpt lat="46.33214" lon="-1.31411">
        <ele>4.8</ele>
        <time>2021-06-17T10:15:20Z</time>
      </trkpt>
      <trkpt lat="46.33215" lon="-1.31412">
        <ele>4.8</ele>
        <time>2021-06-17T10:15:21Z</time>
      </trkpt>
      <trkpt lat="46.33216" lon="-1.31413">
        <ele>4.8</ele>
        <time>2021-06-17T10:15:22Z</time>
      </trkpt>
      <trkpt lat="46.33217" lon="-1.31414">
        <ele>4.8</ele>
        <time>2021-06-17T10:15:23Z</time>
      </trkpt>
      <trkpt lat="46.33218" lon="-1.31415">
        <ele>4.8</ele>
        <time>2021-06-17T10:15:24Z</time>
      </trkpt>
      <trkpt lat="46.3322" lon="-1.31416">
        <ele>4.8</ele>
        <time>2021-06-17T10:15:25Z</time>
      </trkpt>
      <trkpt lat="46.33221" lon="-1.31417">
        <ele>4.8</ele>
        <time>2021-06-17T10:15:26Z</time>
      </trkpt>
      <trkpt lat="46.33222" lon="-1.31418">
        <ele>4.7</ele>
        <time>2021-06-17T10:15:27Z</time>
      </trkpt>
      <trkpt lat="46.33223" lon="-1.3142">
        <ele>4.7</ele>
        <time>2021-06-17T10:15:28Z</time>
      </trkpt>
      <trkpt lat="46.33224" lon="-1.31421">
        <ele>4.7</ele>
        <time>2021-06-17T10:15:29Z</time>
      </trkpt>
      <trkpt lat="46.33226" lon="-1.31423">
        <ele>4.7</ele>
        <time>2021-06-17T10:15:30Z</time>
      </trkpt>
      <trkpt lat="46.33227" lon="-1.31424">
        <ele>4.7</ele>
        <time>2021-06-17T10:15:31Z</time>
      </trkpt>
      <trkpt lat="46.33228" lon="-1.31426">
        <ele>4.7</ele>
        <time>2021-06-17T10:15:32Z</time>
      </trkpt>
      <trkpt lat="46.33229" lon="-1.31427">
        <ele>4.7</ele>
        <time>2021-06-17T10:15:33Z</time>
      </trkpt>
      <trkpt lat="46.3323" lon="-1.31429">
        <ele>4.7</ele>
        <time>2021-06-17T10:15:34Z</time>
      </trkpt>
      <trkpt lat="46.33232" lon="-1.3143">
        <ele>4.7</ele>
        <time>2021-06-17T10:15:35Z</time>
      </trkpt>
      <trkpt lat="46.33233" lon="-1.31431">
        <ele>4.7</ele>
        <time>2021-06-17T10:15:36Z</time>
      </trkpt>
      <trkpt lat="46.33234" lon="-1.31433">
        <ele>4.7</ele>
        <time>2021-06-17T10:15:37Z</time>
      </trkpt>
      <trkpt lat="46.33235" lon="-1.31434">
        <ele>4.7</ele>
        <time>2021-06-17T10:15:38Z</time>
      </trkpt>
      <trkpt lat="46.33236" lon="-1.31435">
        <ele>4.7</ele>
        <time>2021-06-17T10:15:39Z</time>
      </trkpt>
      <trkpt lat="46.33237" lon="-1.31437">
        <ele>4.7</ele>
        <time>2021-06-17T10:15:40Z</time>
      </trkpt>
      <trkpt lat="46.33239" lon="-1.31438">
        <ele>4.7</ele>
        <time>2021-06-17T10:15:41Z</time>
      </trkpt>
      <trkpt lat="46.3324" lon="-1.31439">
        <ele>4.7</ele>
        <time>2021-06-17T10:15:42Z</time>
      </trkpt>
      <trkpt lat="46.33241" lon="-1.3144">
        <ele>4.7</ele>
        <time>2021-06-17T10:15:43Z</time>
      </trkpt>
      <trkpt lat="46.33242" lon="-1.31441">
        <ele>4.7</ele>
        <time>2021-06-17T10:15:44Z</time>
      </trkpt>
      <trkpt lat="46.33243" lon="-1.31442">
        <ele>4.7</ele>
        <time>2021-06-17T10:15:45Z</time>
      </trkpt>
      <trkpt lat="46.33244" lon="-1.31443">
        <ele>4.7</ele>
        <time>2021-06-17T10:15:46Z</time>
      </trkpt>
      <trkpt lat="46.33245" lon="-1.31444">
        <ele>4.7</ele>
        <time>2021-06-17T10:15:47Z</time>
      </trkpt>
      <trkpt lat="46.33246" lon="-1.31446">
        <ele>4.7</ele>
        <time>2021-06-17T10:15:48Z</time>
      </trkpt>
      <trkpt lat="46.33246" lon="-1.31447">
        <ele>4.7</ele>
        <time>2021-06-17T10:15:49Z</time>
      </trkpt>
      <trkpt lat="46.33247" lon="-1.31448">
        <ele>4.7</ele>
        <time>2021-06-17T10:15:50Z</time>
      </trkpt>
      <trkpt lat="46.33248" lon="-1.31449">
        <ele>4.7</ele>
        <time>2021-06-17T10:15:51Z</time>
      </trkpt>
      <trkpt lat="46.33249" lon="-1.3145">
        <ele>4.7</ele>
        <time>2021-06-17T10:15:52Z</time>
      </trkpt>
      <trkpt lat="46.3325" lon="-1.31451">
        <ele>4.7</ele>
        <time>2021-06-17T10:15:53Z</time>
      </trkpt>
      <trkpt lat="46.3325" lon="-1.31452">
        <ele>4.8</ele>
        <time>2021-06-17T10:15:54Z</time>
      </trkpt>
      <trkpt lat="46.33251" lon="-1.31453">
        <ele>4.8</ele>
        <time>2021-06-17T10:15:55Z</time>
      </trkpt>
      <trkpt lat="46.33252" lon="-1.31454">
        <ele>4.8</ele>
        <time>2021-06-17T10:15:56Z</time>
      </trkpt>
      <trkpt lat="46.33253" lon="-1.31456">
        <ele>4.8</ele>
        <time>2021-06-17T10:15:57Z</time>
      </trkpt>
      <trkpt lat="46.33253" lon="-1.31457">
        <ele>4.8</ele>
        <time>2021-06-17T10:15:58Z</time>
      </trkpt>
      <trkpt lat="46.33254" lon="-1.31458">
        <ele>4.8</ele>
        <time>2021-06-17T10:15:59Z</time>
      </trkpt>
      <trkpt lat="46.33255" lon="-1.31459">
        <ele>4.8</ele>
        <time>2021-06-17T10:16:00Z</time>
      </trkpt>
      <trkpt lat="46.33255" lon="-1.3146">
        <ele>4.8</ele>
        <time>2021-06-17T10:16:01Z</time>
      </trkpt>
      <trkpt lat="46.33256" lon="-1.31461">
        <ele>4.8</ele>
        <time>2021-06-17T10:16:02Z</time>
      </trkpt>
      <trkpt lat="46.33257" lon="-1.31462">
        <ele>4.8</ele>
        <time>2021-06-17T10:16:03Z</time>
      </trkpt>
      <trkpt lat="46.33258" lon="-1.31463">
        <ele>4.8</ele>
        <time>2021-06-17T10:16:04Z</time>
      </trkpt>
      <trkpt lat="46.33258" lon="-1.31464">
        <ele>4.8</ele>
        <time>2021-06-17T10:16:05Z</time>
      </trkpt>
      <trkpt lat="46.33259" lon="-1.31465">
        <ele>4.8</ele>
        <time>2021-06-17T10:16:06Z</time>
      </trkpt>
      <trkpt lat="46.3326" lon="-1.31467">
        <ele>4.8</ele>
        <time>2021-06-17T10:16:07Z</time>
      </trkpt>
      <trkpt lat="46.33261" lon="-1.31468">
        <ele>4.8</ele>
        <time>2021-06-17T10:16:08Z</time>
      </trkpt>
      <trkpt lat="46.33261" lon="-1.31469">
        <ele>4.8</ele>
        <time>2021-06-17T10:16:09Z</time>
      </trkpt>
      <trkpt lat="46.33262" lon="-1.3147">
        <ele>4.8</ele>
        <time>2021-06-17T10:16:10Z</time>
      </trkpt>
      <trkpt lat="46.33263" lon="-1.31471">
        <ele>4.8</ele>
        <time>2021-06-17T10:16:11Z</time>
      </trkpt>
      <trkpt lat="46.33264" lon="-1.31472">
        <ele>4.8</ele>
        <time>2021-06-17T10:16:12Z</time>
      </trkpt>
      <trkpt lat="46.33265" lon="-1.31473">
        <ele>4.8</ele>
        <time>2021-06-17T10:16:13Z</time>
      </trkpt>
      <trkpt lat="46.33266" lon="-1.31474">
        <ele>4.8</ele>
        <time>2021-06-17T10:16:14Z</time>
      </trkpt>
      <trkpt lat="46.33266" lon="-1.31476">
        <ele>4.8</ele>
        <time>2021-06-17T10:16:15Z</time>
      </trkpt>
      <trkpt lat="46.33267" lon="-1.31477">
        <ele>4.8</ele>
        <time>2021-06-17T10:16:16Z</time>
      </trkpt>
      <trkpt lat="46.33268" lon="-1.31479">
        <ele>4.8</ele>
        <time>2021-06-17T10:16:17Z</time>
      </trkpt>
      <trkpt lat="46.33269" lon="-1.3148">
        <ele>4.8</ele>
        <time>2021-06-17T10:16:18Z</time>
      </trkpt>
      <trkpt lat="46.3327" lon="-1.31481">
        <ele>4.8</ele>
        <time>2021-06-17T10:16:19Z</time>
      </trkpt>
      <trkpt lat="46.33271" lon="-1.31483">
        <ele>4.8</ele>
        <time>2021-06-17T10:16:20Z</time>
      </trkpt>
      <trkpt lat="46.33272" lon="-1.31484">
        <ele>4.8</ele>
        <time>2021-06-17T10:16:21Z</time>
      </trkpt>
      <trkpt lat="46.33273" lon="-1.31486">
        <ele>4.8</ele>
        <time>2021-06-17T10:16:22Z</time>
      </trkpt>
      <trkpt lat="46.33274" lon="-1.31487">
        <ele>4.8</ele>
        <time>2021-06-17T10:16:23Z</time>
      </trkpt>
      <trkpt lat="46.33275" lon="-1.31488">
        <ele>4.8</ele>
        <time>2021-06-17T10:16:24Z</time>
      </trkpt>
      <trkpt lat="46.33276" lon="-1.31489">
        <ele>4.8</ele>
        <time>2021-06-17T10:16:25Z</time>
      </trkpt>
      <trkpt lat="46.33277" lon="-1.31491">
        <ele>4.8</ele>
        <time>2021-06-17T10:16:26Z</time>
      </trkpt>
      <trkpt lat="46.33277" lon="-1.31492">
        <ele>4.8</ele>
        <time>2021-06-17T10:16:27Z</time>
      </trkpt>
      <trkpt lat="46.33278" lon="-1.31493">
        <ele>4.8</ele>
        <time>2021-06-17T10:16:28Z</time>
      </trkpt>
      <trkpt lat="46.33279" lon="-1.31494">
        <ele>4.8</ele>
        <time>2021-06-17T10:16:29Z</time>
      </trkpt>
      <trkpt lat="46.3328" lon="-1.31495">
        <ele>4.8</ele>
        <time>2021-06-17T10:16:30Z</time>
      </trkpt>
      <trkpt lat="46.3328" lon="-1.31496">
        <ele>4.8</ele>
        <time>2021-06-17T10:16:31Z</time>
      </trkpt>
      <trkpt lat="46.33281" lon="-1.31497">
        <ele>4.8</ele>
        <time>2021-06-17T10:16:32Z</time>
      </trkpt>
      <trkpt lat="46.33282" lon="-1.31498">
        <ele>4.8</ele>
        <time>2021-06-17T10:16:33Z</time>
      </trkpt>
      <trkpt lat="46.33283" lon="-1.31499">
        <ele>4.8</ele>
        <time>2021-06-17T10:16:34Z</time>
      </trkpt>
      <trkpt lat="46.33284" lon="-1.315">
        <ele>4.8</ele>
        <time>2021-06-17T10:16:35Z</time>
      </trkpt>
      <trkpt lat="46.33284" lon="-1.31501">
        <ele>4.8</ele>
        <time>2021-06-17T10:16:36Z</time>
      </trkpt>
      <trkpt lat="46.33285" lon="-1.31502">
        <ele>4.8</ele>
        <time>2021-06-17T10:16:37Z</time>
      </trkpt>
      <trkpt lat="46.33286" lon="-1.31504">
        <ele>4.8</ele>
        <time>2021-06-17T10:16:38Z</time>
      </trkpt>
      <trkpt lat="46.33287" lon="-1.31505">
        <ele>4.8</ele>
        <time>2021-06-17T10:16:39Z</time>
      </trkpt>
      <trkpt lat="46.33288" lon="-1.31506">
        <ele>4.8</ele>
        <time>2021-06-17T10:16:40Z</time>
      </trkpt>
      <trkpt lat="46.33289" lon="-1.31507">
        <ele>4.8</ele>
        <time>2021-06-17T10:16:41Z</time>
      </trkpt>
      <trkpt lat="46.3329" lon="-1.31508">
        <ele>4.8</ele>
        <time>2021-06-17T10:16:42Z</time>
      </trkpt>
      <trkpt lat="46.33291" lon="-1.31509">
        <ele>4.8</ele>
        <time>2021-06-17T10:16:43Z</time>
      </trkpt>
      <trkpt lat="46.33292" lon="-1.31511">
        <ele>4.8</ele>
        <time>2021-06-17T10:16:44Z</time>
      </trkpt>
      <trkpt lat="46.33292" lon="-1.31512">
        <ele>4.8</ele>
        <time>2021-06-17T10:16:45Z</time>
      </trkpt>
      <trkpt lat="46.33293" lon="-1.31513">
        <ele>4.8</ele>
        <time>2021-06-17T10:16:46Z</time>
      </trkpt>
      <trkpt lat="46.33294" lon="-1.31515">
        <ele>4.8</ele>
        <time>2021-06-17T10:16:47Z</time>
      </trkpt>
      <trkpt lat="46.33295" lon="-1.31516">
        <ele>4.8</ele>
        <time>2021-06-17T10:16:48Z</time>
      </trkpt>
      <trkpt lat="46.33296" lon="-1.31517">
        <ele>4.8</ele>
        <time>2021-06-17T10:16:49Z</time>
      </trkpt>
      <trkpt lat="46.33297" lon="-1.31519">
        <ele>4.8</ele>
        <time>2021-06-17T10:16:50Z</time>
      </trkpt>
      <trkpt lat="46.33298" lon="-1.3152">
        <ele>4.8</ele>
        <time>2021-06-17T10:16:51Z</time>
      </trkpt>
      <trkpt lat="46.33299" lon="-1.31521">
        <ele>4.8</ele>
        <time>2021-06-17T10:16:52Z</time>
      </trkpt>
      <trkpt lat="46.33299" lon="-1.31523">
        <ele>4.8</ele>
        <time>2021-06-17T10:16:53Z</time>
      </trkpt>
      <trkpt lat="46.333" lon="-1.31524">
        <ele>4.8</ele>
        <time>2021-06-17T10:16:54Z</time>
      </trkpt>
      <trkpt lat="46.33301" lon="-1.31526">
        <ele>4.8</ele>
        <time>2021-06-17T10:16:55Z</time>
      </trkpt>
      <trkpt lat="46.33302" lon="-1.31527">
        <ele>4.8</ele>
        <time>2021-06-17T10:16:56Z</time>
      </trkpt>
      <trkpt lat="46.33303" lon="-1.31528">
        <ele>4.8</ele>
        <time>2021-06-17T10:16:57Z</time>
      </trkpt>
      <trkpt lat="46.33303" lon="-1.31529">
        <ele>4.8</ele>
        <time>2021-06-17T10:16:58Z</time>
      </trkpt>
      <trkpt lat="46.33304" lon="-1.31531">
        <ele>4.8</ele>
        <time>2021-06-17T10:16:59Z</time>
      </trkpt>
      <trkpt lat="46.33305" lon="-1.31532">
        <ele>4.8</ele>
        <time>2021-06-17T10:17:00Z</time>
      </trkpt>
      <trkpt lat="46.33306" lon="-1.31533">
        <ele>4.8</ele>
        <time>2021-06-17T10:17:01Z</time>
      </trkpt>
      <trkpt lat="46.33307" lon="-1.31534">
        <ele>4.8</ele>
        <time>2021-06-17T10:17:02Z</time>
      </trkpt>
      <trkpt lat="46.33307" lon="-1.31535">
        <ele>4.8</ele>
        <time>2021-06-17T10:17:03Z</time>
      </trkpt>
      <trkpt lat="46.33308" lon="-1.31537">
        <ele>4.8</ele>
        <time>2021-06-17T10:17:04Z</time>
      </trkpt>
      <trkpt lat="46.33309" lon="-1.31538">
        <ele>4.8</ele>
        <time>2021-06-17T10:17:05Z</time>
      </trkpt>
      <trkpt lat="46.33309" lon="-1.31539">
        <ele>4.8</ele>
        <time>2021-06-17T10:17:06Z</time>
      </trkpt>
      <trkpt lat="46.3331" lon="-1.3154">
        <ele>4.8</ele>
        <time>2021-06-17T10:17:07Z</time>
      </trkpt>
      <trkpt lat="46.33311" lon="-1.31541">
        <ele>4.8</ele>
        <time>2021-06-17T10:17:08Z</time>
      </trkpt>
      <trkpt lat="46.33312" lon="-1.31542">
        <ele>4.8</ele>
        <time>2021-06-17T10:17:09Z</time>
      </trkpt>
      <trkpt lat="46.33312" lon="-1.31544">
        <ele>4.8</ele>
        <time>2021-06-17T10:17:10Z</time>
      </trkpt>
      <trkpt lat="46.33313" lon="-1.31545">
        <ele>4.8</ele>
        <time>2021-06-17T10:17:11Z</time>
      </trkpt>
      <trkpt lat="46.33314" lon="-1.31546">
        <ele>4.8</ele>
        <time>2021-06-17T10:17:12Z</time>
      </trkpt>
      <trkpt lat="46.33315" lon="-1.31547">
        <ele>4.8</ele>
        <time>2021-06-17T10:17:13Z</time>
      </trkpt>
      <trkpt lat="46.33315" lon="-1.31548">
        <ele>4.8</ele>
        <time>2021-06-17T10:17:14Z</time>
      </trkpt>
      <trkpt lat="46.33316" lon="-1.31549">
        <ele>4.8</ele>
        <time>2021-06-17T10:17:15Z</time>
      </trkpt>
      <trkpt lat="46.33317" lon="-1.31551">
        <ele>4.8</ele>
        <time>2021-06-17T10:17:16Z</time>
      </trkpt>
      <trkpt lat="46.33318" lon="-1.31552">
        <ele>4.8</ele>
        <time>2021-06-17T10:17:17Z</time>
      </trkpt>
      <trkpt lat="46.33319" lon="-1.31553">
        <ele>4.8</ele>
        <time>2021-06-17T10:17:18Z</time>
      </trkpt>
      <trkpt lat="46.33319" lon="-1.31554">
        <ele>4.7</ele>
        <time>2021-06-17T10:17:19Z</time>
      </trkpt>
      <trkpt lat="46.3332" lon="-1.31555">
        <ele>4.7</ele>
        <time>2021-06-17T10:17:20Z</time>
      </trkpt>
      <trkpt lat="46.33321" lon="-1.31557">
        <ele>4.7</ele>
        <time>2021-06-17T10:17:21Z</time>
      </trkpt>
      <trkpt lat="46.33322" lon="-1.31558">
        <ele>4.7</ele>
        <time>2021-06-17T10:17:22Z</time>
      </trkpt>
      <trkpt lat="46.33323" lon="-1.31559">
        <ele>4.7</ele>
        <time>2021-06-17T10:17:23Z</time>
      </trkpt>
      <trkpt lat="46.33324" lon="-1.3156">
        <ele>4.7</ele>
        <time>2021-06-17T10:17:24Z</time>
      </trkpt>
      <trkpt lat="46.33324" lon="-1.31562">
        <ele>4.7</ele>
        <time>2021-06-17T10:17:25Z</time>
      </trkpt>
      <trkpt lat="46.33325" lon="-1.31563">
        <ele>4.7</ele>
        <time>2021-06-17T10:17:26Z</time>
      </trkpt>
      <trkpt lat="46.33326" lon="-1.31564">
        <ele>4.7</ele>
        <time>2021-06-17T10:17:27Z</time>
      </trkpt>
      <trkpt lat="46.33327" lon="-1.31565">
        <ele>4.7</ele>
        <time>2021-06-17T10:17:28Z</time>
      </trkpt>
      <trkpt lat="46.33328" lon="-1.31567">
        <ele>4.7</ele>
        <time>2021-06-17T10:17:29Z</time>
      </trkpt>
      <trkpt lat="46.33329" lon="-1.31568">
        <ele>4.7</ele>
        <time>2021-06-17T10:17:30Z</time>
      </trkpt>
      <trkpt lat="46.3333" lon="-1.31569">
        <ele>4.7</ele>
        <time>2021-06-17T10:17:31Z</time>
      </trkpt>
      <trkpt lat="46.3333" lon="-1.3157">
        <ele>4.7</ele>
        <time>2021-06-17T10:17:32Z</time>
      </trkpt>
      <trkpt lat="46.33331" lon="-1.31572">
        <ele>4.7</ele>
        <time>2021-06-17T10:17:33Z</time>
      </trkpt>
      <trkpt lat="46.33332" lon="-1.31573">
        <ele>4.7</ele>
        <time>2021-06-17T10:17:34Z</time>
      </trkpt>
      <trkpt lat="46.33333" lon="-1.31574">
        <ele>4.7</ele>
        <time>2021-06-17T10:17:35Z</time>
      </trkpt>
      <trkpt lat="46.33334" lon="-1.31576">
        <ele>4.7</ele>
        <time>2021-06-17T10:17:36Z</time>
      </trkpt>
      <trkpt lat="46.33335" lon="-1.31577">
        <ele>4.7</ele>
        <time>2021-06-17T10:17:37Z</time>
      </trkpt>
      <trkpt lat="46.33336" lon="-1.31578">
        <ele>4.7</ele>
        <time>2021-06-17T10:17:38Z</time>
      </trkpt>
      <trkpt lat="46.33337" lon="-1.31579">
        <ele>4.7</ele>
        <time>2021-06-17T10:17:39Z</time>
      </trkpt>
      <trkpt lat="46.33337" lon="-1.31581">
        <ele>4.7</ele>
        <time>2021-06-17T10:17:40Z</time>
      </trkpt>
      <trkpt lat="46.33338" lon="-1.31582">
        <ele>4.7</ele>
        <time>2021-06-17T10:17:41Z</time>
      </trkpt>
      <trkpt lat="46.33339" lon="-1.31583">
        <ele>4.7</ele>
        <time>2021-06-17T10:17:42Z</time>
      </trkpt>
      <trkpt lat="46.3334" lon="-1.31584">
        <ele>4.7</ele>
        <time>2021-06-17T10:17:43Z</time>
      </trkpt>
      <trkpt lat="46.33341" lon="-1.31586">
        <ele>4.7</ele>
        <time>2021-06-17T10:17:44Z</time>
      </trkpt>
      <trkpt lat="46.33342" lon="-1.31587">
        <ele>4.7</ele>
        <time>2021-06-17T10:17:45Z</time>
      </trkpt>
      <trkpt lat="46.33342" lon="-1.31588">
        <ele>4.7</ele>
        <time>2021-06-17T10:17:46Z</time>
      </trkpt>
      <trkpt lat="46.33343" lon="-1.31589">
        <ele>4.7</ele>
        <time>2021-06-17T10:17:47Z</time>
      </trkpt>
      <trkpt lat="46.33344" lon="-1.31591">
        <ele>4.7</ele>
        <time>2021-06-17T10:17:48Z</time>
      </trkpt>
      <trkpt lat="46.33345" lon="-1.31592">
        <ele>4.7</ele>
        <time>2021-06-17T10:17:49Z</time>
      </trkpt>
      <trkpt lat="46.33346" lon="-1.31593">
        <ele>4.7</ele>
        <time>2021-06-17T10:17:50Z</time>
      </trkpt>
      <trkpt lat="46.33346" lon="-1.31594">
        <ele>4.7</ele>
        <time>2021-06-17T10:17:51Z</time>
      </trkpt>
      <trkpt lat="46.33347" lon="-1.31596">
        <ele>4.8</ele>
        <time>2021-06-17T10:17:52Z</time>
      </trkpt>
      <trkpt lat="46.33348" lon="-1.31597">
        <ele>4.8</ele>
        <time>2021-06-17T10:17:53Z</time>
      </trkpt>
      <trkpt lat="46.33349" lon="-1.31598">
        <ele>4.8</ele>
        <time>2021-06-17T10:17:54Z</time>
      </trkpt>
      <trkpt lat="46.33349" lon="-1.316">
        <ele>4.8</ele>
        <time>2021-06-17T10:17:55Z</time>
      </trkpt>
      <trkpt lat="46.3335" lon="-1.31601">
        <ele>4.8</ele>
        <time>2021-06-17T10:17:56Z</time>
      </trkpt>
      <trkpt lat="46.33351" lon="-1.31602">
        <ele>4.8</ele>
        <time>2021-06-17T10:17:57Z</time>
      </trkpt>
      <trkpt lat="46.33352" lon="-1.31603">
        <ele>4.8</ele>
        <time>2021-06-17T10:17:58Z</time>
      </trkpt>
      <trkpt lat="46.33353" lon="-1.31605">
        <ele>4.8</ele>
        <time>2021-06-17T10:17:59Z</time>
      </trkpt>
      <trkpt lat="46.33353" lon="-1.31606">
        <ele>4.8</ele>
        <time>2021-06-17T10:18:00Z</time>
      </trkpt>
      <trkpt lat="46.33354" lon="-1.31607">
        <ele>4.8</ele>
        <time>2021-06-17T10:18:01Z</time>
      </trkpt>
      <trkpt lat="46.33355" lon="-1.31609">
        <ele>4.8</ele>
        <time>2021-06-17T10:18:02Z</time>
      </trkpt>
      <trkpt lat="46.33356" lon="-1.3161">
        <ele>4.8</ele>
        <time>2021-06-17T10:18:03Z</time>
      </trkpt>
      <trkpt lat="46.33356" lon="-1.31611">
        <ele>4.7</ele>
        <time>2021-06-17T10:18:04Z</time>
      </trkpt>
      <trkpt lat="46.33357" lon="-1.31612">
        <ele>4.7</ele>
        <time>2021-06-17T10:18:05Z</time>
      </trkpt>
      <trkpt lat="46.33358" lon="-1.31614">
        <ele>4.7</ele>
        <time>2021-06-17T10:18:06Z</time>
      </trkpt>
      <trkpt lat="46.33358" lon="-1.31615">
        <ele>4.7</ele>
        <time>2021-06-17T10:18:07Z</time>
      </trkpt>
      <trkpt lat="46.33359" lon="-1.31616">
        <ele>4.7</ele>
        <time>2021-06-17T10:18:08Z</time>
      </trkpt>
      <trkpt lat="46.3336" lon="-1.31618">
        <ele>4.7</ele>
        <time>2021-06-17T10:18:09Z</time>
      </trkpt>
      <trkpt lat="46.33361" lon="-1.31619">
        <ele>4.7</ele>
        <time>2021-06-17T10:18:10Z</time>
      </trkpt>
      <trkpt lat="46.33361" lon="-1.3162">
        <ele>4.7</ele>
        <time>2021-06-17T10:18:11Z</time>
      </trkpt>
      <trkpt lat="46.33362" lon="-1.31621">
        <ele>4.7</ele>
        <time>2021-06-17T10:18:12Z</time>
      </trkpt>
      <trkpt lat="46.33363" lon="-1.31623">
        <ele>4.7</ele>
        <time>2021-06-17T10:18:13Z</time>
      </trkpt>
      <trkpt lat="46.33364" lon="-1.31624">
        <ele>4.7</ele>
        <time>2021-06-17T10:18:14Z</time>
      </trkpt>
      <trkpt lat="46.33365" lon="-1.31626">
        <ele>4.7</ele>
        <time>2021-06-17T10:18:15Z</time>
      </trkpt>
      <trkpt lat="46.33366" lon="-1.31627">
        <ele>4.7</ele>
        <time>2021-06-17T10:18:16Z</time>
      </trkpt>
      <trkpt lat="46.33366" lon="-1.31629">
        <ele>4.7</ele>
        <time>2021-06-17T10:18:17Z</time>
      </trkpt>
      <trkpt lat="46.33367" lon="-1.3163">
        <ele>4.7</ele>
        <time>2021-06-17T10:18:18Z</time>
      </trkpt>
      <trkpt lat="46.33368" lon="-1.31632">
        <ele>4.7</ele>
        <time>2021-06-17T10:18:19Z</time>
      </trkpt>
      <trkpt lat="46.33369" lon="-1.31633">
        <ele>4.7</ele>
        <time>2021-06-17T10:18:20Z</time>
      </trkpt>
      <trkpt lat="46.3337" lon="-1.31634">
        <ele>4.7</ele>
        <time>2021-06-17T10:18:21Z</time>
      </trkpt>
      <trkpt lat="46.33371" lon="-1.31636">
        <ele>4.7</ele>
        <time>2021-06-17T10:18:22Z</time>
      </trkpt>
      <trkpt lat="46.33372" lon="-1.31637">
        <ele>4.7</ele>
        <time>2021-06-17T10:18:23Z</time>
      </trkpt>
      <trkpt lat="46.33373" lon="-1.31639">
        <ele>4.7</ele>
        <time>2021-06-17T10:18:24Z</time>
      </trkpt>
      <trkpt lat="46.33374" lon="-1.3164">
        <ele>4.7</ele>
        <time>2021-06-17T10:18:25Z</time>
      </trkpt>
      <trkpt lat="46.33375" lon="-1.31641">
        <ele>4.7</ele>
        <time>2021-06-17T10:18:26Z</time>
      </trkpt>
      <trkpt lat="46.33376" lon="-1.31642">
        <ele>4.7</ele>
        <time>2021-06-17T10:18:27Z</time>
      </trkpt>
      <trkpt lat="46.33376" lon="-1.31644">
        <ele>4.7</ele>
        <time>2021-06-17T10:18:28Z</time>
      </trkpt>
      <trkpt lat="46.33377" lon="-1.31645">
        <ele>4.7</ele>
        <time>2021-06-17T10:18:29Z</time>
      </trkpt>
      <trkpt lat="46.33378" lon="-1.31646">
        <ele>4.7</ele>
        <time>2021-06-17T10:18:30Z</time>
      </trkpt>
      <trkpt lat="46.33379" lon="-1.31647">
        <ele>4.7</ele>
        <time>2021-06-17T10:18:31Z</time>
      </trkpt>
      <trkpt lat="46.3338" lon="-1.31648">
        <ele>4.7</ele>
        <time>2021-06-17T10:18:32Z</time>
      </trkpt>
      <trkpt lat="46.33381" lon="-1.31649">
        <ele>4.7</ele>
        <time>2021-06-17T10:18:33Z</time>
      </trkpt>
      <trkpt lat="46.33381" lon="-1.3165">
        <ele>4.7</ele>
        <time>2021-06-17T10:18:34Z</time>
      </trkpt>
      <trkpt lat="46.33382" lon="-1.31651">
        <ele>4.7</ele>
        <time>2021-06-17T10:18:35Z</time>
      </trkpt>
      <trkpt lat="46.33383" lon="-1.31652">
        <ele>4.7</ele>
        <time>2021-06-17T10:18:36Z</time>
      </trkpt>
      <trkpt lat="46.33384" lon="-1.31653">
        <ele>4.7</ele>
        <time>2021-06-17T10:18:37Z</time>
      </trkpt>
      <trkpt lat="46.33385" lon="-1.31654">
        <ele>4.7</ele>
        <time>2021-06-17T10:18:38Z</time>
      </trkpt>
      <trkpt lat="46.33385" lon="-1.31655">
        <ele>4.7</ele>
        <time>2021-06-17T10:18:39Z</time>
      </trkpt>
      <trkpt lat="46.33386" lon="-1.31657">
        <ele>4.7</ele>
        <time>2021-06-17T10:18:40Z</time>
      </trkpt>
      <trkpt lat="46.33387" lon="-1.31658">
        <ele>4.7</ele>
        <time>2021-06-17T10:18:41Z</time>
      </trkpt>
      <trkpt lat="46.33388" lon="-1.3166">
        <ele>4.7</ele>
        <time>2021-06-17T10:18:42Z</time>
      </trkpt>
      <trkpt lat="46.33389" lon="-1.31661">
        <ele>4.7</ele>
        <time>2021-06-17T10:18:43Z</time>
      </trkpt>
      <trkpt lat="46.3339" lon="-1.31662">
        <ele>4.7</ele>
        <time>2021-06-17T10:18:44Z</time>
      </trkpt>
      <trkpt lat="46.3339" lon="-1.31664">
        <ele>4.7</ele>
        <time>2021-06-17T10:18:45Z</time>
      </trkpt>
      <trkpt lat="46.33391" lon="-1.31665">
        <ele>4.7</ele>
        <time>2021-06-17T10:18:46Z</time>
      </trkpt>
      <trkpt lat="46.33392" lon="-1.31667">
        <ele>4.7</ele>
        <time>2021-06-17T10:18:47Z</time>
      </trkpt>
      <trkpt lat="46.33393" lon="-1.31668">
        <ele>4.7</ele>
        <time>2021-06-17T10:18:48Z</time>
      </trkpt>
      <trkpt lat="46.33394" lon="-1.31669">
        <ele>4.7</ele>
        <time>2021-06-17T10:18:49Z</time>
      </trkpt>
      <trkpt lat="46.33394" lon="-1.31671">
        <ele>4.7</ele>
        <time>2021-06-17T10:18:50Z</time>
      </trkpt>
      <trkpt lat="46.33395" lon="-1.31672">
        <ele>4.7</ele>
        <time>2021-06-17T10:18:51Z</time>
      </trkpt>
      <trkpt lat="46.33396" lon="-1.31673">
        <ele>4.7</ele>
        <time>2021-06-17T10:18:52Z</time>
      </trkpt>
      <trkpt lat="46.33397" lon="-1.31675">
        <ele>4.7</ele>
        <time>2021-06-17T10:18:53Z</time>
      </trkpt>
      <trkpt lat="46.33397" lon="-1.31676">
        <ele>4.7</ele>
        <time>2021-06-17T10:18:54Z</time>
      </trkpt>
      <trkpt lat="46.33398" lon="-1.31677">
        <ele>4.7</ele>
        <time>2021-06-17T10:18:55Z</time>
      </trkpt>
      <trkpt lat="46.33399" lon="-1.31679">
        <ele>4.7</ele>
        <time>2021-06-17T10:18:56Z</time>
      </trkpt>
      <trkpt lat="46.33399" lon="-1.3168">
        <ele>4.7</ele>
        <time>2021-06-17T10:18:57Z</time>
      </trkpt>
      <trkpt lat="46.334" lon="-1.31681">
        <ele>4.7</ele>
        <time>2021-06-17T10:18:58Z</time>
      </trkpt>
      <trkpt lat="46.33401" lon="-1.31682">
        <ele>4.7</ele>
        <time>2021-06-17T10:18:59Z</time>
      </trkpt>
      <trkpt lat="46.33401" lon="-1.31684">
        <ele>4.7</ele>
        <time>2021-06-17T10:19:00Z</time>
      </trkpt>
      <trkpt lat="46.33402" lon="-1.31685">
        <ele>4.7</ele>
        <time>2021-06-17T10:19:01Z</time>
      </trkpt>
      <trkpt lat="46.33403" lon="-1.31686">
        <ele>4.7</ele>
        <time>2021-06-17T10:19:02Z</time>
      </trkpt>
      <trkpt lat="46.33403" lon="-1.31687">
        <ele>4.6</ele>
        <time>2021-06-17T10:19:03Z</time>
      </trkpt>
      <trkpt lat="46.33404" lon="-1.31689">
        <ele>4.6</ele>
        <time>2021-06-17T10:19:04Z</time>
      </trkpt>
      <trkpt lat="46.33405" lon="-1.3169">
        <ele>4.6</ele>
        <time>2021-06-17T10:19:05Z</time>
      </trkpt>
      <trkpt lat="46.33406" lon="-1.31691">
        <ele>4.6</ele>
        <time>2021-06-17T10:19:06Z</time>
      </trkpt>
      <trkpt lat="46.33406" lon="-1.31693">
        <ele>4.6</ele>
        <time>2021-06-17T10:19:07Z</time>
      </trkpt>
      <trkpt lat="46.33407" lon="-1.31694">
        <ele>4.6</ele>
        <time>2021-06-17T10:19:08Z</time>
      </trkpt>
      <trkpt lat="46.33408" lon="-1.31695">
        <ele>4.6</ele>
        <time>2021-06-17T10:19:09Z</time>
      </trkpt>
      <trkpt lat="46.33409" lon="-1.31697">
        <ele>4.6</ele>
        <time>2021-06-17T10:19:10Z</time>
      </trkpt>
      <trkpt lat="46.33409" lon="-1.31698">
        <ele>4.6</ele>
        <time>2021-06-17T10:19:11Z</time>
      </trkpt>
      <trkpt lat="46.3341" lon="-1.317">
        <ele>4.6</ele>
        <time>2021-06-17T10:19:12Z</time>
      </trkpt>
      <trkpt lat="46.33411" lon="-1.31701">
        <ele>4.6</ele>
        <time>2021-06-17T10:19:13Z</time>
      </trkpt>
      <trkpt lat="46.33412" lon="-1.31703">
        <ele>4.6</ele>
        <time>2021-06-17T10:19:14Z</time>
      </trkpt>
      <trkpt lat="46.33413" lon="-1.31704">
        <ele>4.7</ele>
        <time>2021-06-17T10:19:15Z</time>
      </trkpt>
      <trkpt lat="46.33414" lon="-1.31705">
        <ele>4.7</ele>
        <time>2021-06-17T10:19:16Z</time>
      </trkpt>
      <trkpt lat="46.33414" lon="-1.31706">
        <ele>4.7</ele>
        <time>2021-06-17T10:19:17Z</time>
      </trkpt>
      <trkpt lat="46.33415" lon="-1.31707">
        <ele>4.7</ele>
        <time>2021-06-17T10:19:18Z</time>
      </trkpt>
      <trkpt lat="46.33416" lon="-1.31708">
        <ele>4.7</ele>
        <time>2021-06-17T10:19:19Z</time>
      </trkpt>
      <trkpt lat="46.33416" lon="-1.31709">
        <ele>4.7</ele>
        <time>2021-06-17T10:19:20Z</time>
      </trkpt>
      <trkpt lat="46.33417" lon="-1.3171">
        <ele>4.7</ele>
        <time>2021-06-17T10:19:21Z</time>
      </trkpt>
      <trkpt lat="46.33418" lon="-1.31711">
        <ele>4.7</ele>
        <time>2021-06-17T10:19:22Z</time>
      </trkpt>
      <trkpt lat="46.33418" lon="-1.31712">
        <ele>4.7</ele>
        <time>2021-06-17T10:19:23Z</time>
      </trkpt>
      <trkpt lat="46.33419" lon="-1.31713">
        <ele>4.7</ele>
        <time>2021-06-17T10:19:24Z</time>
      </trkpt>
      <trkpt lat="46.3342" lon="-1.31714">
        <ele>4.7</ele>
        <time>2021-06-17T10:19:25Z</time>
      </trkpt>
      <trkpt lat="46.3342" lon="-1.31715">
        <ele>4.8</ele>
        <time>2021-06-17T10:19:26Z</time>
      </trkpt>
      <trkpt lat="46.33421" lon="-1.31716">
        <ele>4.8</ele>
        <time>2021-06-17T10:19:27Z</time>
      </trkpt>
      <trkpt lat="46.33422" lon="-1.31717">
        <ele>4.8</ele>
        <time>2021-06-17T10:19:28Z</time>
      </trkpt>
      <trkpt lat="46.33423" lon="-1.31718">
        <ele>4.8</ele>
        <time>2021-06-17T10:19:29Z</time>
      </trkpt>
      <trkpt lat="46.33423" lon="-1.31719">
        <ele>4.8</ele>
        <time>2021-06-17T10:19:30Z</time>
      </trkpt>
      <trkpt lat="46.33424" lon="-1.3172">
        <ele>4.8</ele>
        <time>2021-06-17T10:19:31Z</time>
      </trkpt>
      <trkpt lat="46.33424" lon="-1.31721">
        <ele>4.8</ele>
        <time>2021-06-17T10:19:32Z</time>
      </trkpt>
      <trkpt lat="46.33425" lon="-1.31722">
        <ele>4.9</ele>
        <time>2021-06-17T10:19:33Z</time>
      </trkpt>
      <trkpt lat="46.33425" lon="-1.31723">
        <ele>4.9</ele>
        <time>2021-06-17T10:19:34Z</time>
      </trkpt>
      <trkpt lat="46.33425" lon="-1.31723">
        <ele>4.9</ele>
        <time>2021-06-17T10:19:35Z</time>
      </trkpt>
      <trkpt lat="46.33426" lon="-1.31723">
        <ele>4.9</ele>
        <time>2021-06-17T10:19:36Z</time>
      </trkpt>
      <trkpt lat="46.33426" lon="-1.31723">
        <ele>4.9</ele>
        <time>2021-06-17T10:19:37Z</time>
      </trkpt>
      <trkpt lat="46.33426" lon="-1.31723">
        <ele>4.9</ele>
        <time>2021-06-17T10:19:38Z</time>
      </trkpt>
      <trkpt lat="46.33426" lon="-1.31723">
        <ele>4.9</ele>
        <time>2021-06-17T10:19:39Z</time>
      </trkpt>
      <trkpt lat="46.33426" lon="-1.31723">
        <ele>4.9</ele>
        <time>2021-06-17T10:19:40Z</time>
      </trkpt>
      <trkpt lat="46.33426" lon="-1.31723">
        <ele>4.9</ele>
        <time>2021-06-17T10:19:41Z</time>
      </trkpt>
      <trkpt lat="46.33426" lon="-1.31723">
        <ele>4.9</ele>
        <time>2021-06-17T10:19:42Z</time>
      </trkpt>
      <trkpt lat="46.33426" lon="-1.31724">
        <ele>4.9</ele>
        <time>2021-06-17T10:19:43Z</time>
      </trkpt>
      <trkpt lat="46.33426" lon="-1.31724">
        <ele>4.9</ele>
        <time>2021-06-17T10:19:44Z</time>
      </trkpt>
      <trkpt lat="46.33427" lon="-1.31725">
        <ele>4.9</ele>
        <time>2021-06-17T10:19:45Z</time>
      </trkpt>
      <trkpt lat="46.33427" lon="-1.31725">
        <ele>4.9</ele>
        <time>2021-06-17T10:19:46Z</time>
      </trkpt>
      <trkpt lat="46.33427" lon="-1.31726">
        <ele>4.9</ele>
        <time>2021-06-17T10:19:47Z</time>
      </trkpt>
      <trkpt lat="46.33428" lon="-1.31726">
        <ele>4.9</ele>
        <time>2021-06-17T10:19:48Z</time>
      </trkpt>
      <trkpt lat="46.33428" lon="-1.31726">
        <ele>4.9</ele>
        <time>2021-06-17T10:19:49Z</time>
      </trkpt>
      <trkpt lat="46.33428" lon="-1.31726">
        <ele>4.9</ele>
        <time>2021-06-17T10:19:50Z</time>
      </trkpt>
      <trkpt lat="46.33428" lon="-1.31727">
        <ele>4.9</ele>
        <time>2021-06-17T10:19:51Z</time>
      </trkpt>
      <trkpt lat="46.33428" lon="-1.31727">
        <ele>4.9</ele>
        <time>2021-06-17T10:19:52Z</time>
      </trkpt>
      <trkpt lat="46.33428" lon="-1.31727">
        <ele>4.9</ele>
        <time>2021-06-17T10:19:53Z</time>
      </trkpt>
      <trkpt lat="46.33428" lon="-1.31727">
        <ele>4.9</ele>
        <time>2021-06-17T10:19:54Z</time>
      </trkpt>
      <trkpt lat="46.33429" lon="-1.31726">
        <ele>4.9</ele>
        <time>2021-06-17T10:19:55Z</time>
      </trkpt>
      <trkpt lat="46.33429" lon="-1.31726">
        <ele>5</ele>
        <time>2021-06-17T10:19:56Z</time>
      </trkpt>
      <trkpt lat="46.33429" lon="-1.31726">
        <ele>5</ele>
        <time>2021-06-17T10:19:57Z</time>
      </trkpt>
      <trkpt lat="46.3343" lon="-1.31725">
        <ele>5</ele>
        <time>2021-06-17T10:19:58Z</time>
      </trkpt>
      <trkpt lat="46.3343" lon="-1.31725">
        <ele>5</ele>
        <time>2021-06-17T10:19:59Z</time>
      </trkpt>
      <trkpt lat="46.33431" lon="-1.31724">
        <ele>5</ele>
        <time>2021-06-17T10:20:00Z</time>
      </trkpt>
      <trkpt lat="46.33432" lon="-1.31723">
        <ele>5</ele>
        <time>2021-06-17T10:20:01Z</time>
      </trkpt>
      <trkpt lat="46.33433" lon="-1.31722">
        <ele>5</ele>
        <time>2021-06-17T10:20:02Z</time>
      </trkpt>
      <trkpt lat="46.33434" lon="-1.31721">
        <ele>5</ele>
        <time>2021-06-17T10:20:03Z</time>
      </trkpt>
      <trkpt lat="46.33435" lon="-1.3172">
        <ele>5</ele>
        <time>2021-06-17T10:20:04Z</time>
      </trkpt>
      <trkpt lat="46.33436" lon="-1.31719">
        <ele>5</ele>
        <time>2021-06-17T10:20:05Z</time>
      </trkpt>
      <trkpt lat="46.33437" lon="-1.31718">
        <ele>5</ele>
        <time>2021-06-17T10:20:06Z</time>
      </trkpt>
      <trkpt lat="46.33438" lon="-1.31717">
        <ele>5</ele>
        <time>2021-06-17T10:20:07Z</time>
      </trkpt>
      <trkpt lat="46.33439" lon="-1.31716">
        <ele>5</ele>
        <time>2021-06-17T10:20:08Z</time>
      </trkpt>
      <trkpt lat="46.33439" lon="-1.31714">
        <ele>5</ele>
        <time>2021-06-17T10:20:09Z</time>
      </trkpt>
      <trkpt lat="46.3344" lon="-1.31713">
        <ele>5</ele>
        <time>2021-06-17T10:20:10Z</time>
      </trkpt>
      <trkpt lat="46.33441" lon="-1.31711">
        <ele>5</ele>
        <time>2021-06-17T10:20:11Z</time>
      </trkpt>
      <trkpt lat="46.33442" lon="-1.3171">
        <ele>5</ele>
        <time>2021-06-17T10:20:12Z</time>
      </trkpt>
      <trkpt lat="46.33443" lon="-1.31709">
        <ele>5</ele>
        <time>2021-06-17T10:20:13Z</time>
      </trkpt>
      <trkpt lat="46.33444" lon="-1.31707">
        <ele>5</ele>
        <time>2021-06-17T10:20:14Z</time>
      </trkpt>
      <trkpt lat="46.33444" lon="-1.31706">
        <ele>5</ele>
        <time>2021-06-17T10:20:15Z</time>
      </trkpt>
      <trkpt lat="46.33445" lon="-1.31704">
        <ele>5</ele>
        <time>2021-06-17T10:20:16Z</time>
      </trkpt>
      <trkpt lat="46.33446" lon="-1.31703">
        <ele>5</ele>
        <time>2021-06-17T10:20:17Z</time>
      </trkpt>
      <trkpt lat="46.33447" lon="-1.31702">
        <ele>5</ele>
        <time>2021-06-17T10:20:18Z</time>
      </trkpt>
      <trkpt lat="46.33447" lon="-1.31701">
        <ele>5</ele>
        <time>2021-06-17T10:20:19Z</time>
      </trkpt>
      <trkpt lat="46.33448" lon="-1.31699">
        <ele>5</ele>
        <time>2021-06-17T10:20:20Z</time>
      </trkpt>
      <trkpt lat="46.33449" lon="-1.31698">
        <ele>5</ele>
        <time>2021-06-17T10:20:21Z</time>
      </trkpt>
      <trkpt lat="46.3345" lon="-1.31697">
        <ele>5</ele>
        <time>2021-06-17T10:20:22Z</time>
      </trkpt>
      <trkpt lat="46.3345" lon="-1.31696">
        <ele>5</ele>
        <time>2021-06-17T10:20:23Z</time>
      </trkpt>
      <trkpt lat="46.33451" lon="-1.31695">
        <ele>5</ele>
        <time>2021-06-17T10:20:24Z</time>
      </trkpt>
      <trkpt lat="46.33451" lon="-1.31694">
        <ele>5</ele>
        <time>2021-06-17T10:20:25Z</time>
      </trkpt>
      <trkpt lat="46.33452" lon="-1.31693">
        <ele>5</ele>
        <time>2021-06-17T10:20:26Z</time>
      </trkpt>
      <trkpt lat="46.33453" lon="-1.31692">
        <ele>5</ele>
        <time>2021-06-17T10:20:27Z</time>
      </trkpt>
      <trkpt lat="46.33453" lon="-1.3169">
        <ele>5</ele>
        <time>2021-06-17T10:20:28Z</time>
      </trkpt>
      <trkpt lat="46.33454" lon="-1.31689">
        <ele>5</ele>
        <time>2021-06-17T10:20:29Z</time>
      </trkpt>
      <trkpt lat="46.33454" lon="-1.31688">
        <ele>5</ele>
        <time>2021-06-17T10:20:30Z</time>
      </trkpt>
      <trkpt lat="46.33455" lon="-1.31687">
        <ele>5</ele>
        <time>2021-06-17T10:20:31Z</time>
      </trkpt>
      <trkpt lat="46.33455" lon="-1.31685">
        <ele>5</ele>
        <time>2021-06-17T10:20:32Z</time>
      </trkpt>
      <trkpt lat="46.33456" lon="-1.31684">
        <ele>5</ele>
        <time>2021-06-17T10:20:33Z</time>
      </trkpt>
      <trkpt lat="46.33456" lon="-1.31683">
        <ele>5</ele>
        <time>2021-06-17T10:20:34Z</time>
      </trkpt>
      <trkpt lat="46.33457" lon="-1.31682">
        <ele>5</ele>
        <time>2021-06-17T10:20:35Z</time>
      </trkpt>
      <trkpt lat="46.33457" lon="-1.31681">
        <ele>5</ele>
        <time>2021-06-17T10:20:36Z</time>
      </trkpt>
      <trkpt lat="46.33458" lon="-1.3168">
        <ele>5</ele>
        <time>2021-06-17T10:20:37Z</time>
      </trkpt>
      <trkpt lat="46.33458" lon="-1.31679">
        <ele>5</ele>
        <time>2021-06-17T10:20:38Z</time>
      </trkpt>
      <trkpt lat="46.33459" lon="-1.31678">
        <ele>5</ele>
        <time>2021-06-17T10:20:39Z</time>
      </trkpt>
      <trkpt lat="46.33459" lon="-1.31677">
        <ele>5</ele>
        <time>2021-06-17T10:20:40Z</time>
      </trkpt>
      <trkpt lat="46.3346" lon="-1.31676">
        <ele>5</ele>
        <time>2021-06-17T10:20:41Z</time>
      </trkpt>
      <trkpt lat="46.33461" lon="-1.31676">
        <ele>5</ele>
        <time>2021-06-17T10:20:42Z</time>
      </trkpt>
      <trkpt lat="46.33461" lon="-1.31675">
        <ele>5</ele>
        <time>2021-06-17T10:20:43Z</time>
      </trkpt>
      <trkpt lat="46.33462" lon="-1.31674">
        <ele>4.9</ele>
        <time>2021-06-17T10:20:44Z</time>
      </trkpt>
      <trkpt lat="46.33463" lon="-1.31673">
        <ele>4.9</ele>
        <time>2021-06-17T10:20:45Z</time>
      </trkpt>
      <trkpt lat="46.33464" lon="-1.31671">
        <ele>4.9</ele>
        <time>2021-06-17T10:20:46Z</time>
      </trkpt>
      <trkpt lat="46.33464" lon="-1.3167">
        <ele>4.9</ele>
        <time>2021-06-17T10:20:47Z</time>
      </trkpt>
      <trkpt lat="46.33465" lon="-1.31669">
        <ele>4.9</ele>
        <time>2021-06-17T10:20:48Z</time>
      </trkpt>
      <trkpt lat="46.33466" lon="-1.31668">
        <ele>4.9</ele>
        <time>2021-06-17T10:20:49Z</time>
      </trkpt>
      <trkpt lat="46.33466" lon="-1.31667">
        <ele>4.9</ele>
        <time>2021-06-17T10:20:50Z</time>
      </trkpt>
      <trkpt lat="46.33467" lon="-1.31666">
        <ele>4.9</ele>
        <time>2021-06-17T10:20:51Z</time>
      </trkpt>
      <trkpt lat="46.33468" lon="-1.31665">
        <ele>4.9</ele>
        <time>2021-06-17T10:20:52Z</time>
      </trkpt>
      <trkpt lat="46.33469" lon="-1.31664">
        <ele>4.9</ele>
        <time>2021-06-17T10:20:53Z</time>
      </trkpt>
      <trkpt lat="46.3347" lon="-1.31662">
        <ele>4.9</ele>
        <time>2021-06-17T10:20:54Z</time>
      </trkpt>
      <trkpt lat="46.33471" lon="-1.31661">
        <ele>4.9</ele>
        <time>2021-06-17T10:20:55Z</time>
      </trkpt>
      <trkpt lat="46.33472" lon="-1.3166">
        <ele>4.9</ele>
        <time>2021-06-17T10:20:56Z</time>
      </trkpt>
      <trkpt lat="46.33472" lon="-1.31659">
        <ele>4.9</ele>
        <time>2021-06-17T10:20:57Z</time>
      </trkpt>
      <trkpt lat="46.33473" lon="-1.31658">
        <ele>4.9</ele>
        <time>2021-06-17T10:20:58Z</time>
      </trkpt>
      <trkpt lat="46.33474" lon="-1.31657">
        <ele>4.9</ele>
        <time>2021-06-17T10:20:59Z</time>
      </trkpt>
      <trkpt lat="46.33474" lon="-1.31656">
        <ele>4.9</ele>
        <time>2021-06-17T10:21:00Z</time>
      </trkpt>
      <trkpt lat="46.33475" lon="-1.31655">
        <ele>4.9</ele>
        <time>2021-06-17T10:21:01Z</time>
      </trkpt>
      <trkpt lat="46.33475" lon="-1.31655">
        <ele>4.9</ele>
        <time>2021-06-17T10:21:02Z</time>
      </trkpt>
      <trkpt lat="46.33475" lon="-1.31654">
        <ele>4.9</ele>
        <time>2021-06-17T10:21:03Z</time>
      </trkpt>
      <trkpt lat="46.33475" lon="-1.31654">
        <ele>4.9</ele>
        <time>2021-06-17T10:21:04Z</time>
      </trkpt>
      <trkpt lat="46.33475" lon="-1.31653">
        <ele>4.9</ele>
        <time>2021-06-17T10:21:05Z</time>
      </trkpt>
      <trkpt lat="46.33475" lon="-1.31652">
        <ele>4.9</ele>
        <time>2021-06-17T10:21:06Z</time>
      </trkpt>
      <trkpt lat="46.33476" lon="-1.31652">
        <ele>4.9</ele>
        <time>2021-06-17T10:21:07Z</time>
      </trkpt>
      <trkpt lat="46.33476" lon="-1.31651">
        <ele>4.9</ele>
        <time>2021-06-17T10:21:08Z</time>
      </trkpt>
      <trkpt lat="46.33476" lon="-1.3165">
        <ele>4.9</ele>
        <time>2021-06-17T10:21:09Z</time>
      </trkpt>
      <trkpt lat="46.33477" lon="-1.31649">
        <ele>4.9</ele>
        <time>2021-06-17T10:21:10Z</time>
      </trkpt>
      <trkpt lat="46.33477" lon="-1.31648">
        <ele>4.9</ele>
        <time>2021-06-17T10:21:11Z</time>
      </trkpt>
      <trkpt lat="46.33477" lon="-1.31647">
        <ele>4.9</ele>
        <time>2021-06-17T10:21:12Z</time>
      </trkpt>
      <trkpt lat="46.33478" lon="-1.31647">
        <ele>4.9</ele>
        <time>2021-06-17T10:21:13Z</time>
      </trkpt>
      <trkpt lat="46.33478" lon="-1.31646">
        <ele>4.9</ele>
        <time>2021-06-17T10:21:14Z</time>
      </trkpt>
      <trkpt lat="46.33478" lon="-1.31645">
        <ele>4.9</ele>
        <time>2021-06-17T10:21:15Z</time>
      </trkpt>
      <trkpt lat="46.33479" lon="-1.31645">
        <ele>4.8</ele>
        <time>2021-06-17T10:21:16Z</time>
      </trkpt>
      <trkpt lat="46.33479" lon="-1.31644">
        <ele>4.8</ele>
        <time>2021-06-17T10:21:17Z</time>
      </trkpt>
      <trkpt lat="46.3348" lon="-1.31644">
        <ele>4.8</ele>
        <time>2021-06-17T10:21:18Z</time>
      </trkpt>
      <trkpt lat="46.3348" lon="-1.31643">
        <ele>4.8</ele>
        <time>2021-06-17T10:21:19Z</time>
      </trkpt>
      <trkpt lat="46.3348" lon="-1.31643">
        <ele>4.8</ele>
        <time>2021-06-17T10:21:20Z</time>
      </trkpt>
      <trkpt lat="46.3348" lon="-1.31643">
        <ele>4.8</ele>
        <time>2021-06-17T10:21:21Z</time>
      </trkpt>
      <trkpt lat="46.3348" lon="-1.31642">
        <ele>4.8</ele>
        <time>2021-06-17T10:21:22Z</time>
      </trkpt>
      <trkpt lat="46.33481" lon="-1.31642">
        <ele>4.8</ele>
        <time>2021-06-17T10:21:23Z</time>
      </trkpt>
      <trkpt lat="46.33481" lon="-1.31642">
        <ele>4.8</ele>
        <time>2021-06-17T10:21:24Z</time>
      </trkpt>
      <trkpt lat="46.33481" lon="-1.31642">
        <ele>4.8</ele>
        <time>2021-06-17T10:21:25Z</time>
      </trkpt>
      <trkpt lat="46.33481" lon="-1.31642">
        <ele>4.8</ele>
        <time>2021-06-17T10:21:26Z</time>
      </trkpt>
      <trkpt lat="46.33481" lon="-1.31642">
        <ele>4.8</ele>
        <time>2021-06-17T10:21:27Z</time>
      </trkpt>
      <trkpt lat="46.3348" lon="-1.31642">
        <ele>4.8</ele>
        <time>2021-06-17T10:21:28Z</time>
      </trkpt>
      <trkpt lat="46.3348" lon="-1.31642">
        <ele>4.8</ele>
        <time>2021-06-17T10:21:29Z</time>
      </trkpt>
      <trkpt lat="46.3348" lon="-1.31642">
        <ele>4.8</ele>
        <time>2021-06-17T10:21:30Z</time>
      </trkpt>
      <trkpt lat="46.3348" lon="-1.31642">
        <ele>4.8</ele>
        <time>2021-06-17T10:21:31Z</time>
      </trkpt>
      <trkpt lat="46.3348" lon="-1.31642">
        <ele>4.8</ele>
        <time>2021-06-17T10:21:32Z</time>
      </trkpt>
      <trkpt lat="46.3348" lon="-1.31642">
        <ele>4.8</ele>
        <time>2021-06-17T10:21:33Z</time>
      </trkpt>
      <trkpt lat="46.3348" lon="-1.31642">
        <ele>4.8</ele>
        <time>2021-06-17T10:21:34Z</time>
      </trkpt>
      <trkpt lat="46.3348" lon="-1.31642">
        <ele>4.8</ele>
        <time>2021-06-17T10:21:35Z</time>
      </trkpt>
      <trkpt lat="46.3348" lon="-1.31642">
        <ele>4.8</ele>
        <time>2021-06-17T10:21:36Z</time>
      </trkpt>
      <trkpt lat="46.3348" lon="-1.31642">
        <ele>4.8</ele>
        <time>2021-06-17T10:21:37Z</time>
      </trkpt>
      <trkpt lat="46.3348" lon="-1.31642">
        <ele>4.8</ele>
        <time>2021-06-17T10:21:38Z</time>
      </trkpt>
      <trkpt lat="46.3348" lon="-1.31642">
        <ele>4.8</ele>
        <time>2021-06-17T10:21:39Z</time>
      </trkpt>
      <trkpt lat="46.3348" lon="-1.31642">
        <ele>4.8</ele>
        <time>2021-06-17T10:21:40Z</time>
      </trkpt>
      <trkpt lat="46.33481" lon="-1.31642">
        <ele>4.8</ele>
        <time>2021-06-17T10:21:41Z</time>
      </trkpt>
      <trkpt lat="46.33481" lon="-1.31641">
        <ele>4.8</ele>
        <time>2021-06-17T10:21:42Z</time>
      </trkpt>
      <trkpt lat="46.33482" lon="-1.3164">
        <ele>4.8</ele>
        <time>2021-06-17T10:21:43Z</time>
      </trkpt>
      <trkpt lat="46.33482" lon="-1.31639">
        <ele>4.8</ele>
        <time>2021-06-17T10:21:44Z</time>
      </trkpt>
      <trkpt lat="46.33482" lon="-1.31638">
        <ele>4.8</ele>
        <time>2021-06-17T10:21:45Z</time>
      </trkpt>
      <trkpt lat="46.33483" lon="-1.31637">
        <ele>4.8</ele>
        <time>2021-06-17T10:21:46Z</time>
      </trkpt>
      <trkpt lat="46.33483" lon="-1.31637">
        <ele>4.8</ele>
        <time>2021-06-17T10:21:47Z</time>
      </trkpt>
      <trkpt lat="46.33483" lon="-1.31637">
        <ele>4.8</ele>
        <time>2021-06-17T10:21:48Z</time>
      </trkpt>
      <trkpt lat="46.33483" lon="-1.31637">
        <ele>4.8</ele>
        <time>2021-06-17T10:21:49Z</time>
      </trkpt>
      <trkpt lat="46.33483" lon="-1.31637">
        <ele>4.8</ele>
        <time>2021-06-17T10:21:50Z</time>
      </trkpt>
      <trkpt lat="46.33483" lon="-1.31637">
        <ele>4.8</ele>
        <time>2021-06-17T10:21:51Z</time>
      </trkpt>
      <trkpt lat="46.33483" lon="-1.31637">
        <ele>4.8</ele>
        <time>2021-06-17T10:21:52Z</time>
      </trkpt>
      <trkpt lat="46.33483" lon="-1.31636">
        <ele>4.8</ele>
        <time>2021-06-17T10:21:53Z</time>
      </trkpt>
      <trkpt lat="46.33483" lon="-1.31636">
        <ele>4.8</ele>
        <time>2021-06-17T10:21:54Z</time>
      </trkpt>
      <trkpt lat="46.33483" lon="-1.31635">
        <ele>4.8</ele>
        <time>2021-06-17T10:21:55Z</time>
      </trkpt>
      <trkpt lat="46.33484" lon="-1.31634">
        <ele>4.8</ele>
        <time>2021-06-17T10:21:56Z</time>
      </trkpt>
      <trkpt lat="46.33484" lon="-1.31634">
        <ele>4.8</ele>
        <time>2021-06-17T10:21:57Z</time>
      </trkpt>
      <trkpt lat="46.33484" lon="-1.31633">
        <ele>4.8</ele>
        <time>2021-06-17T10:21:58Z</time>
      </trkpt>
      <trkpt lat="46.33485" lon="-1.31632">
        <ele>4.8</ele>
        <time>2021-06-17T10:21:59Z</time>
      </trkpt>
      <trkpt lat="46.33485" lon="-1.31631">
        <ele>4.8</ele>
        <time>2021-06-17T10:22:00Z</time>
      </trkpt>
      <trkpt lat="46.33485" lon="-1.31631">
        <ele>4.8</ele>
        <time>2021-06-17T10:22:01Z</time>
      </trkpt>
      <trkpt lat="46.33486" lon="-1.3163">
        <ele>4.8</ele>
        <time>2021-06-17T10:22:02Z</time>
      </trkpt>
      <trkpt lat="46.33486" lon="-1.31629">
        <ele>4.8</ele>
        <time>2021-06-17T10:22:03Z</time>
      </trkpt>
      <trkpt lat="46.33487" lon="-1.31628">
        <ele>4.8</ele>
        <time>2021-06-17T10:22:04Z</time>
      </trkpt>
      <trkpt lat="46.33487" lon="-1.31628">
        <ele>4.8</ele>
        <time>2021-06-17T10:22:05Z</time>
      </trkpt>
      <trkpt lat="46.33488" lon="-1.31627">
        <ele>4.8</ele>
        <time>2021-06-17T10:22:06Z</time>
      </trkpt>
      <trkpt lat="46.33488" lon="-1.31626">
        <ele>4.8</ele>
        <time>2021-06-17T10:22:07Z</time>
      </trkpt>
      <trkpt lat="46.33489" lon="-1.31625">
        <ele>4.8</ele>
        <time>2021-06-17T10:22:08Z</time>
      </trkpt>
      <trkpt lat="46.33489" lon="-1.31624">
        <ele>4.8</ele>
        <time>2021-06-17T10:22:09Z</time>
      </trkpt>
      <trkpt lat="46.3349" lon="-1.31624">
        <ele>4.8</ele>
        <time>2021-06-17T10:22:10Z</time>
      </trkpt>
      <trkpt lat="46.3349" lon="-1.31623">
        <ele>4.8</ele>
        <time>2021-06-17T10:22:11Z</time>
      </trkpt>
      <trkpt lat="46.33491" lon="-1.31622">
        <ele>4.8</ele>
        <time>2021-06-17T10:22:12Z</time>
      </trkpt>
      <trkpt lat="46.33491" lon="-1.3162">
        <ele>4.8</ele>
        <time>2021-06-17T10:22:13Z</time>
      </trkpt>
      <trkpt lat="46.33492" lon="-1.31619">
        <ele>4.8</ele>
        <time>2021-06-17T10:22:14Z</time>
      </trkpt>
      <trkpt lat="46.33492" lon="-1.31618">
        <ele>4.8</ele>
        <time>2021-06-17T10:22:15Z</time>
      </trkpt>
      <trkpt lat="46.33493" lon="-1.31617">
        <ele>4.8</ele>
        <time>2021-06-17T10:22:16Z</time>
      </trkpt>
      <trkpt lat="46.33494" lon="-1.31615">
        <ele>4.8</ele>
        <time>2021-06-17T10:22:17Z</time>
      </trkpt>
      <trkpt lat="46.33494" lon="-1.31614">
        <ele>4.7</ele>
        <time>2021-06-17T10:22:18Z</time>
      </trkpt>
      <trkpt lat="46.33495" lon="-1.31613">
        <ele>4.7</ele>
        <time>2021-06-17T10:22:19Z</time>
      </trkpt>
      <trkpt lat="46.33495" lon="-1.31612">
        <ele>4.7</ele>
        <time>2021-06-17T10:22:20Z</time>
      </trkpt>
      <trkpt lat="46.33496" lon="-1.3161">
        <ele>4.7</ele>
        <time>2021-06-17T10:22:21Z</time>
      </trkpt>
      <trkpt lat="46.33496" lon="-1.31609">
        <ele>4.7</ele>
        <time>2021-06-17T10:22:22Z</time>
      </trkpt>
      <trkpt lat="46.33497" lon="-1.31608">
        <ele>4.7</ele>
        <time>2021-06-17T10:22:23Z</time>
      </trkpt>
      <trkpt lat="46.33498" lon="-1.31607">
        <ele>4.7</ele>
        <time>2021-06-17T10:22:24Z</time>
      </trkpt>
      <trkpt lat="46.33498" lon="-1.31606">
        <ele>4.7</ele>
        <time>2021-06-17T10:22:25Z</time>
      </trkpt>
      <trkpt lat="46.33499" lon="-1.31605">
        <ele>4.7</ele>
        <time>2021-06-17T10:22:26Z</time>
      </trkpt>
      <trkpt lat="46.33499" lon="-1.31604">
        <ele>4.7</ele>
        <time>2021-06-17T10:22:27Z</time>
      </trkpt>
      <trkpt lat="46.335" lon="-1.31603">
        <ele>4.7</ele>
        <time>2021-06-17T10:22:28Z</time>
      </trkpt>
      <trkpt lat="46.33501" lon="-1.31602">
        <ele>4.7</ele>
        <time>2021-06-17T10:22:29Z</time>
      </trkpt>
      <trkpt lat="46.33501" lon="-1.31601">
        <ele>4.7</ele>
        <time>2021-06-17T10:22:30Z</time>
      </trkpt>
      <trkpt lat="46.33502" lon="-1.316">
        <ele>4.6</ele>
        <time>2021-06-17T10:22:31Z</time>
      </trkpt>
      <trkpt lat="46.33502" lon="-1.31599">
        <ele>4.6</ele>
        <time>2021-06-17T10:22:32Z</time>
      </trkpt>
      <trkpt lat="46.33503" lon="-1.31598">
        <ele>4.6</ele>
        <time>2021-06-17T10:22:33Z</time>
      </trkpt>
      <trkpt lat="46.33503" lon="-1.31596">
        <ele>4.6</ele>
        <time>2021-06-17T10:22:34Z</time>
      </trkpt>
      <trkpt lat="46.33504" lon="-1.31596">
        <ele>4.6</ele>
        <time>2021-06-17T10:22:35Z</time>
      </trkpt>
      <trkpt lat="46.33504" lon="-1.31595">
        <ele>4.6</ele>
        <time>2021-06-17T10:22:36Z</time>
      </trkpt>
      <trkpt lat="46.33505" lon="-1.31594">
        <ele>4.6</ele>
        <time>2021-06-17T10:22:37Z</time>
      </trkpt>
      <trkpt lat="46.33505" lon="-1.31594">
        <ele>4.6</ele>
        <time>2021-06-17T10:22:38Z</time>
      </trkpt>
      <trkpt lat="46.33505" lon="-1.31594">
        <ele>4.6</ele>
        <time>2021-06-17T10:22:39Z</time>
      </trkpt>
      <trkpt lat="46.33505" lon="-1.31594">
        <ele>4.6</ele>
        <time>2021-06-17T10:22:40Z</time>
      </trkpt>
      <trkpt lat="46.33505" lon="-1.31594">
        <ele>4.6</ele>
        <time>2021-06-17T10:22:41Z</time>
      </trkpt>
      <trkpt lat="46.33505" lon="-1.31594">
        <ele>4.6</ele>
        <time>2021-06-17T10:22:42Z</time>
      </trkpt>
      <trkpt lat="46.33505" lon="-1.31594">
        <ele>4.6</ele>
        <time>2021-06-17T10:22:43Z</time>
      </trkpt>
      <trkpt lat="46.33505" lon="-1.31594">
        <ele>4.6</ele>
        <time>2021-06-17T10:22:44Z</time>
      </trkpt>
      <trkpt lat="46.33505" lon="-1.31594">
        <ele>4.6</ele>
        <time>2021-06-17T10:22:45Z</time>
      </trkpt>
      <trkpt lat="46.33505" lon="-1.31594">
        <ele>4.6</ele>
        <time>2021-06-17T10:22:46Z</time>
      </trkpt>
      <trkpt lat="46.33505" lon="-1.31594">
        <ele>4.6</ele>
        <time>2021-06-17T10:22:47Z</time>
      </trkpt>
      <trkpt lat="46.33505" lon="-1.31593">
        <ele>4.6</ele>
        <time>2021-06-17T10:22:48Z</time>
      </trkpt>
      <trkpt lat="46.33505" lon="-1.31593">
        <ele>4.6</ele>
        <time>2021-06-17T10:22:49Z</time>
      </trkpt>
      <trkpt lat="46.33505" lon="-1.31593">
        <ele>4.6</ele>
        <time>2021-06-17T10:22:50Z</time>
      </trkpt>
      <trkpt lat="46.33506" lon="-1.31592">
        <ele>4.6</ele>
        <time>2021-06-17T10:22:51Z</time>
      </trkpt>
      <trkpt lat="46.33506" lon="-1.31592">
        <ele>4.6</ele>
        <time>2021-06-17T10:22:52Z</time>
      </trkpt>
      <trkpt lat="46.33506" lon="-1.31591">
        <ele>4.6</ele>
        <time>2021-06-17T10:22:53Z</time>
      </trkpt>
      <trkpt lat="46.33507" lon="-1.31591">
        <ele>4.6</ele>
        <time>2021-06-17T10:22:54Z</time>
      </trkpt>
      <trkpt lat="46.33507" lon="-1.3159">
        <ele>4.6</ele>
        <time>2021-06-17T10:22:55Z</time>
      </trkpt>
      <trkpt lat="46.33508" lon="-1.3159">
        <ele>4.6</ele>
        <time>2021-06-17T10:22:56Z</time>
      </trkpt>
      <trkpt lat="46.33509" lon="-1.31589">
        <ele>4.6</ele>
        <time>2021-06-17T10:22:57Z</time>
      </trkpt>
      <trkpt lat="46.33509" lon="-1.31589">
        <ele>4.5</ele>
        <time>2021-06-17T10:22:58Z</time>
      </trkpt>
      <trkpt lat="46.3351" lon="-1.31588">
        <ele>4.5</ele>
        <time>2021-06-17T10:22:59Z</time>
      </trkpt>
      <trkpt lat="46.3351" lon="-1.31588">
        <ele>4.5</ele>
        <time>2021-06-17T10:23:00Z</time>
      </trkpt>
      <trkpt lat="46.33511" lon="-1.31587">
        <ele>4.5</ele>
        <time>2021-06-17T10:23:01Z</time>
      </trkpt>
      <trkpt lat="46.33511" lon="-1.31587">
        <ele>4.5</ele>
        <time>2021-06-17T10:23:02Z</time>
      </trkpt>
      <trkpt lat="46.33511" lon="-1.31586">
        <ele>4.5</ele>
        <time>2021-06-17T10:23:03Z</time>
      </trkpt>
      <trkpt lat="46.33512" lon="-1.31586">
        <ele>4.5</ele>
        <time>2021-06-17T10:23:04Z</time>
      </trkpt>
      <trkpt lat="46.33512" lon="-1.31585">
        <ele>4.5</ele>
        <time>2021-06-17T10:23:05Z</time>
      </trkpt>
      <trkpt lat="46.33512" lon="-1.31584">
        <ele>4.5</ele>
        <time>2021-06-17T10:23:06Z</time>
      </trkpt>
      <trkpt lat="46.33512" lon="-1.31584">
        <ele>4.5</ele>
        <time>2021-06-17T10:23:07Z</time>
      </trkpt>
      <trkpt lat="46.33513" lon="-1.31583">
        <ele>4.5</ele>
        <time>2021-06-17T10:23:08Z</time>
      </trkpt>
      <trkpt lat="46.33513" lon="-1.31582">
        <ele>4.5</ele>
        <time>2021-06-17T10:23:09Z</time>
      </trkpt>
      <trkpt lat="46.33513" lon="-1.31581">
        <ele>4.4</ele>
        <time>2021-06-17T10:23:10Z</time>
      </trkpt>
      <trkpt lat="46.33514" lon="-1.3158">
        <ele>4.4</ele>
        <time>2021-06-17T10:23:11Z</time>
      </trkpt>
      <trkpt lat="46.33514" lon="-1.31579">
        <ele>4.4</ele>
        <time>2021-06-17T10:23:12Z</time>
      </trkpt>
      <trkpt lat="46.33515" lon="-1.31577">
        <ele>4.4</ele>
        <time>2021-06-17T10:23:13Z</time>
      </trkpt>
      <trkpt lat="46.33515" lon="-1.31576">
        <ele>4.4</ele>
        <time>2021-06-17T10:23:14Z</time>
      </trkpt>
      <trkpt lat="46.33516" lon="-1.31575">
        <ele>4.4</ele>
        <time>2021-06-17T10:23:15Z</time>
      </trkpt>
      <trkpt lat="46.33516" lon="-1.31573">
        <ele>4.4</ele>
        <time>2021-06-17T10:23:16Z</time>
      </trkpt>
      <trkpt lat="46.33517" lon="-1.31572">
        <ele>4.4</ele>
        <time>2021-06-17T10:23:17Z</time>
      </trkpt>
      <trkpt lat="46.33517" lon="-1.3157">
        <ele>4.4</ele>
        <time>2021-06-17T10:23:18Z</time>
      </trkpt>
      <trkpt lat="46.33518" lon="-1.31569">
        <ele>4.4</ele>
        <time>2021-06-17T10:23:19Z</time>
      </trkpt>
      <trkpt lat="46.33519" lon="-1.31568">
        <ele>4.4</ele>
        <time>2021-06-17T10:23:20Z</time>
      </trkpt>
      <trkpt lat="46.33519" lon="-1.31566">
        <ele>4.4</ele>
        <time>2021-06-17T10:23:21Z</time>
      </trkpt>
      <trkpt lat="46.3352" lon="-1.31565">
        <ele>4.4</ele>
        <time>2021-06-17T10:23:22Z</time>
      </trkpt>
      <trkpt lat="46.33521" lon="-1.31564">
        <ele>4.4</ele>
        <time>2021-06-17T10:23:23Z</time>
      </trkpt>
      <trkpt lat="46.33521" lon="-1.31563">
        <ele>4.4</ele>
        <time>2021-06-17T10:23:24Z</time>
      </trkpt>
      <trkpt lat="46.33522" lon="-1.31562">
        <ele>4.4</ele>
        <time>2021-06-17T10:23:25Z</time>
      </trkpt>
      <trkpt lat="46.33523" lon="-1.31561">
        <ele>4.4</ele>
        <time>2021-06-17T10:23:26Z</time>
      </trkpt>
      <trkpt lat="46.33524" lon="-1.31559">
        <ele>4.3</ele>
        <time>2021-06-17T10:23:27Z</time>
      </trkpt>
      <trkpt lat="46.33524" lon="-1.31558">
        <ele>4.3</ele>
        <time>2021-06-17T10:23:28Z</time>
      </trkpt>
      <trkpt lat="46.33525" lon="-1.31557">
        <ele>4.3</ele>
        <time>2021-06-17T10:23:29Z</time>
      </trkpt>
      <trkpt lat="46.33526" lon="-1.31557">
        <ele>4.3</ele>
        <time>2021-06-17T10:23:30Z</time>
      </trkpt>
      <trkpt lat="46.33527" lon="-1.31556">
        <ele>4.3</ele>
        <time>2021-06-17T10:23:31Z</time>
      </trkpt>
      <trkpt lat="46.33528" lon="-1.31555">
        <ele>4.3</ele>
        <time>2021-06-17T10:23:32Z</time>
      </trkpt>
      <trkpt lat="46.33529" lon="-1.31554">
        <ele>4.3</ele>
        <time>2021-06-17T10:23:33Z</time>
      </trkpt>
      <trkpt lat="46.3353" lon="-1.31553">
        <ele>4.3</ele>
        <time>2021-06-17T10:23:34Z</time>
      </trkpt>
      <trkpt lat="46.3353" lon="-1.31552">
        <ele>4.3</ele>
        <time>2021-06-17T10:23:35Z</time>
      </trkpt>
      <trkpt lat="46.33531" lon="-1.31551">
        <ele>4.4</ele>
        <time>2021-06-17T10:23:36Z</time>
      </trkpt>
      <trkpt lat="46.33532" lon="-1.3155">
        <ele>4.4</ele>
        <time>2021-06-17T10:23:37Z</time>
      </trkpt>
      <trkpt lat="46.33532" lon="-1.31549">
        <ele>4.4</ele>
        <time>2021-06-17T10:23:38Z</time>
      </trkpt>
      <trkpt lat="46.33533" lon="-1.31548">
        <ele>4.4</ele>
        <time>2021-06-17T10:23:39Z</time>
      </trkpt>
      <trkpt lat="46.33533" lon="-1.31546">
        <ele>4.4</ele>
        <time>2021-06-17T10:23:40Z</time>
      </trkpt>
      <trkpt lat="46.33533" lon="-1.31545">
        <ele>4.4</ele>
        <time>2021-06-17T10:23:41Z</time>
      </trkpt>
      <trkpt lat="46.33533" lon="-1.31544">
        <ele>4.4</ele>
        <time>2021-06-17T10:23:42Z</time>
      </trkpt>
      <trkpt lat="46.33532" lon="-1.31542">
        <ele>5</ele>
        <time>2021-06-17T10:23:43Z</time>
      </trkpt>
      <trkpt lat="46.33532" lon="-1.31541">
        <ele>5</ele>
        <time>2021-06-17T10:23:44Z</time>
      </trkpt>
      <trkpt lat="46.33533" lon="-1.31539">
        <ele>5</ele>
        <time>2021-06-17T10:23:45Z</time>
      </trkpt>
      <trkpt lat="46.33533" lon="-1.31538">
        <ele>5</ele>
        <time>2021-06-17T10:23:46Z</time>
      </trkpt>
      <trkpt lat="46.33533" lon="-1.31537">
        <ele>4.9</ele>
        <time>2021-06-17T10:23:47Z</time>
      </trkpt>
      <trkpt lat="46.33533" lon="-1.31535">
        <ele>4.9</ele>
        <time>2021-06-17T10:23:48Z</time>
      </trkpt>
      <trkpt lat="46.33533" lon="-1.31534">
        <ele>4.9</ele>
        <time>2021-06-17T10:23:49Z</time>
      </trkpt>
      <trkpt lat="46.33534" lon="-1.31533">
        <ele>4.9</ele>
        <time>2021-06-17T10:23:50Z</time>
      </trkpt>
      <trkpt lat="46.33534" lon="-1.31531">
        <ele>4.9</ele>
        <time>2021-06-17T10:23:51Z</time>
      </trkpt>
      <trkpt lat="46.33534" lon="-1.3153">
        <ele>4.9</ele>
        <time>2021-06-17T10:23:52Z</time>
      </trkpt>
      <trkpt lat="46.33535" lon="-1.31528">
        <ele>4.9</ele>
        <time>2021-06-17T10:23:53Z</time>
      </trkpt>
      <trkpt lat="46.33535" lon="-1.31527">
        <ele>4.9</ele>
        <time>2021-06-17T10:23:54Z</time>
      </trkpt>
      <trkpt lat="46.33536" lon="-1.31526">
        <ele>4.9</ele>
        <time>2021-06-17T10:23:55Z</time>
      </trkpt>
      <trkpt lat="46.33537" lon="-1.31525">
        <ele>4.9</ele>
        <time>2021-06-17T10:23:56Z</time>
      </trkpt>
      <trkpt lat="46.33537" lon="-1.31523">
        <ele>4.9</ele>
        <time>2021-06-17T10:23:57Z</time>
      </trkpt>
      <trkpt lat="46.33538" lon="-1.31522">
        <ele>4.9</ele>
        <time>2021-06-17T10:23:58Z</time>
      </trkpt>
      <trkpt lat="46.33539" lon="-1.31521">
        <ele>4.9</ele>
        <time>2021-06-17T10:23:59Z</time>
      </trkpt>
      <trkpt lat="46.33539" lon="-1.31519">
        <ele>4.9</ele>
        <time>2021-06-17T10:24:00Z</time>
      </trkpt>
      <trkpt lat="46.3354" lon="-1.31518">
        <ele>4.9</ele>
        <time>2021-06-17T10:24:01Z</time>
      </trkpt>
      <trkpt lat="46.33541" lon="-1.31517">
        <ele>4.9</ele>
        <time>2021-06-17T10:24:02Z</time>
      </trkpt>
      <trkpt lat="46.33542" lon="-1.31515">
        <ele>4.9</ele>
        <time>2021-06-17T10:24:03Z</time>
      </trkpt>
      <trkpt lat="46.33542" lon="-1.31514">
        <ele>4.9</ele>
        <time>2021-06-17T10:24:04Z</time>
      </trkpt>
      <trkpt lat="46.33543" lon="-1.31513">
        <ele>4.8</ele>
        <time>2021-06-17T10:24:05Z</time>
      </trkpt>
      <trkpt lat="46.33544" lon="-1.31511">
        <ele>4.8</ele>
        <time>2021-06-17T10:24:06Z</time>
      </trkpt>
      <trkpt lat="46.33544" lon="-1.3151">
        <ele>4.8</ele>
        <time>2021-06-17T10:24:07Z</time>
      </trkpt>
      <trkpt lat="46.33545" lon="-1.31508">
        <ele>4.8</ele>
        <time>2021-06-17T10:24:08Z</time>
      </trkpt>
      <trkpt lat="46.33545" lon="-1.31507">
        <ele>4.8</ele>
        <time>2021-06-17T10:24:09Z</time>
      </trkpt>
      <trkpt lat="46.33546" lon="-1.31505">
        <ele>4.8</ele>
        <time>2021-06-17T10:24:10Z</time>
      </trkpt>
      <trkpt lat="46.33546" lon="-1.31503">
        <ele>4.8</ele>
        <time>2021-06-17T10:24:11Z</time>
      </trkpt>
      <trkpt lat="46.33547" lon="-1.31502">
        <ele>4.8</ele>
        <time>2021-06-17T10:24:12Z</time>
      </trkpt>
      <trkpt lat="46.33547" lon="-1.315">
        <ele>4.8</ele>
        <time>2021-06-17T10:24:13Z</time>
      </trkpt>
      <trkpt lat="46.33547" lon="-1.31498">
        <ele>4.8</ele>
        <time>2021-06-17T10:24:14Z</time>
      </trkpt>
      <trkpt lat="46.33548" lon="-1.31496">
        <ele>4.8</ele>
        <time>2021-06-17T10:24:15Z</time>
      </trkpt>
      <trkpt lat="46.33548" lon="-1.31495">
        <ele>4.8</ele>
        <time>2021-06-17T10:24:16Z</time>
      </trkpt>
      <trkpt lat="46.33548" lon="-1.31493">
        <ele>4.8</ele>
        <time>2021-06-17T10:24:17Z</time>
      </trkpt>
      <trkpt lat="46.33549" lon="-1.31491">
        <ele>4.8</ele>
        <time>2021-06-17T10:24:18Z</time>
      </trkpt>
      <trkpt lat="46.33549" lon="-1.31489">
        <ele>4.7</ele>
        <time>2021-06-17T10:24:19Z</time>
      </trkpt>
      <trkpt lat="46.33549" lon="-1.31487">
        <ele>4.7</ele>
        <time>2021-06-17T10:24:20Z</time>
      </trkpt>
      <trkpt lat="46.3355" lon="-1.31485">
        <ele>4.7</ele>
        <time>2021-06-17T10:24:21Z</time>
      </trkpt>
      <trkpt lat="46.3355" lon="-1.31484">
        <ele>4.7</ele>
        <time>2021-06-17T10:24:22Z</time>
      </trkpt>
      <trkpt lat="46.3355" lon="-1.31482">
        <ele>4.7</ele>
        <time>2021-06-17T10:24:23Z</time>
      </trkpt>
      <trkpt lat="46.3355" lon="-1.3148">
        <ele>4.7</ele>
        <time>2021-06-17T10:24:24Z</time>
      </trkpt>
      <trkpt lat="46.33551" lon="-1.31478">
        <ele>4.7</ele>
        <time>2021-06-17T10:24:25Z</time>
      </trkpt>
      <trkpt lat="46.33551" lon="-1.31476">
        <ele>4.7</ele>
        <time>2021-06-17T10:24:26Z</time>
      </trkpt>
      <trkpt lat="46.33551" lon="-1.31474">
        <ele>4.7</ele>
        <time>2021-06-17T10:24:27Z</time>
      </trkpt>
      <trkpt lat="46.33551" lon="-1.31473">
        <ele>4.7</ele>
        <time>2021-06-17T10:24:28Z</time>
      </trkpt>
      <trkpt lat="46.33552" lon="-1.31471">
        <ele>4.7</ele>
        <time>2021-06-17T10:24:29Z</time>
      </trkpt>
      <trkpt lat="46.33552" lon="-1.31469">
        <ele>4.7</ele>
        <time>2021-06-17T10:24:30Z</time>
      </trkpt>
      <trkpt lat="46.33552" lon="-1.31467">
        <ele>4.7</ele>
        <time>2021-06-17T10:24:31Z</time>
      </trkpt>
      <trkpt lat="46.33552" lon="-1.31466">
        <ele>4.7</ele>
        <time>2021-06-17T10:24:32Z</time>
      </trkpt>
      <trkpt lat="46.33553" lon="-1.31464">
        <ele>4.7</ele>
        <time>2021-06-17T10:24:33Z</time>
      </trkpt>
      <trkpt lat="46.33553" lon="-1.31462">
        <ele>4.7</ele>
        <time>2021-06-17T10:24:34Z</time>
      </trkpt>
      <trkpt lat="46.33553" lon="-1.31461">
        <ele>4.7</ele>
        <time>2021-06-17T10:24:35Z</time>
      </trkpt>
      <trkpt lat="46.33554" lon="-1.31459">
        <ele>4.7</ele>
        <time>2021-06-17T10:24:36Z</time>
      </trkpt>
      <trkpt lat="46.33554" lon="-1.31457">
        <ele>4.7</ele>
        <time>2021-06-17T10:24:37Z</time>
      </trkpt>
      <trkpt lat="46.33554" lon="-1.31456">
        <ele>4.7</ele>
        <time>2021-06-17T10:24:38Z</time>
      </trkpt>
      <trkpt lat="46.33554" lon="-1.31454">
        <ele>4.7</ele>
        <time>2021-06-17T10:24:39Z</time>
      </trkpt>
      <trkpt lat="46.33555" lon="-1.31453">
        <ele>4.7</ele>
        <time>2021-06-17T10:24:40Z</time>
      </trkpt>
      <trkpt lat="46.33555" lon="-1.31451">
        <ele>4.6</ele>
        <time>2021-06-17T10:24:41Z</time>
      </trkpt>
      <trkpt lat="46.33555" lon="-1.31449">
        <ele>4.6</ele>
        <time>2021-06-17T10:24:42Z</time>
      </trkpt>
      <trkpt lat="46.33555" lon="-1.31448">
        <ele>4.6</ele>
        <time>2021-06-17T10:24:43Z</time>
      </trkpt>
      <trkpt lat="46.33556" lon="-1.31446">
        <ele>4.6</ele>
        <time>2021-06-17T10:24:44Z</time>
      </trkpt>
      <trkpt lat="46.33556" lon="-1.31444">
        <ele>4.5</ele>
        <time>2021-06-17T10:24:45Z</time>
      </trkpt>
      <trkpt lat="46.33556" lon="-1.31443">
        <ele>4.5</ele>
        <time>2021-06-17T10:24:46Z</time>
      </trkpt>
      <trkpt lat="46.33556" lon="-1.31441">
        <ele>4.5</ele>
        <time>2021-06-17T10:24:47Z</time>
      </trkpt>
      <trkpt lat="46.33556" lon="-1.31439">
        <ele>4.5</ele>
        <time>2021-06-17T10:24:48Z</time>
      </trkpt>
      <trkpt lat="46.33556" lon="-1.31438">
        <ele>4.5</ele>
        <time>2021-06-17T10:24:49Z</time>
      </trkpt>
      <trkpt lat="46.33556" lon="-1.31436">
        <ele>4.5</ele>
        <time>2021-06-17T10:24:50Z</time>
      </trkpt>
      <trkpt lat="46.33556" lon="-1.31434">
        <ele>4.4</ele>
        <time>2021-06-17T10:24:51Z</time>
      </trkpt>
      <trkpt lat="46.33556" lon="-1.31433">
        <ele>4.4</ele>
        <time>2021-06-17T10:24:52Z</time>
      </trkpt>
      <trkpt lat="46.33556" lon="-1.31431">
        <ele>4.4</ele>
        <time>2021-06-17T10:24:53Z</time>
      </trkpt>
      <trkpt lat="46.33556" lon="-1.31429">
        <ele>4.4</ele>
        <time>2021-06-17T10:24:54Z</time>
      </trkpt>
      <trkpt lat="46.33556" lon="-1.31427">
        <ele>4.4</ele>
        <time>2021-06-17T10:24:55Z</time>
      </trkpt>
      <trkpt lat="46.33556" lon="-1.31425">
        <ele>4.4</ele>
        <time>2021-06-17T10:24:56Z</time>
      </trkpt>
      <trkpt lat="46.33556" lon="-1.31424">
        <ele>4.3</ele>
        <time>2021-06-17T10:24:57Z</time>
      </trkpt>
      <trkpt lat="46.33556" lon="-1.31422">
        <ele>4.3</ele>
        <time>2021-06-17T10:24:58Z</time>
      </trkpt>
      <trkpt lat="46.33556" lon="-1.3142">
        <ele>4.3</ele>
        <time>2021-06-17T10:24:59Z</time>
      </trkpt>
      <trkpt lat="46.33555" lon="-1.31418">
        <ele>4.3</ele>
        <time>2021-06-17T10:25:00Z</time>
      </trkpt>
      <trkpt lat="46.33555" lon="-1.31416">
        <ele>4.3</ele>
        <time>2021-06-17T10:25:01Z</time>
      </trkpt>
      <trkpt lat="46.33555" lon="-1.31415">
        <ele>4.3</ele>
        <time>2021-06-17T10:25:02Z</time>
      </trkpt>
      <trkpt lat="46.33554" lon="-1.31413">
        <ele>4.3</ele>
        <time>2021-06-17T10:25:03Z</time>
      </trkpt>
      <trkpt lat="46.33554" lon="-1.31411">
        <ele>4.2</ele>
        <time>2021-06-17T10:25:04Z</time>
      </trkpt>
      <trkpt lat="46.33554" lon="-1.3141">
        <ele>4.2</ele>
        <time>2021-06-17T10:25:05Z</time>
      </trkpt>
      <trkpt lat="46.33553" lon="-1.31408">
        <ele>4.2</ele>
        <time>2021-06-17T10:25:06Z</time>
      </trkpt>
      <trkpt lat="46.33553" lon="-1.31406">
        <ele>4.2</ele>
        <time>2021-06-17T10:25:07Z</time>
      </trkpt>
      <trkpt lat="46.33552" lon="-1.31405">
        <ele>4.2</ele>
        <time>2021-06-17T10:25:08Z</time>
      </trkpt>
      <trkpt lat="46.33552" lon="-1.31403">
        <ele>4.1</ele>
        <time>2021-06-17T10:25:09Z</time>
      </trkpt>
      <trkpt lat="46.33551" lon="-1.31402">
        <ele>4.1</ele>
        <time>2021-06-17T10:25:10Z</time>
      </trkpt>
      <trkpt lat="46.33551" lon="-1.314">
        <ele>4.1</ele>
        <time>2021-06-17T10:25:11Z</time>
      </trkpt>
      <trkpt lat="46.3355" lon="-1.31398">
        <ele>4.1</ele>
        <time>2021-06-17T10:25:12Z</time>
      </trkpt>
      <trkpt lat="46.3355" lon="-1.31397">
        <ele>4.1</ele>
        <time>2021-06-17T10:25:13Z</time>
      </trkpt>
      <trkpt lat="46.33549" lon="-1.31395">
        <ele>4.1</ele>
        <time>2021-06-17T10:25:14Z</time>
      </trkpt>
      <trkpt lat="46.33548" lon="-1.31394">
        <ele>4.1</ele>
        <time>2021-06-17T10:25:15Z</time>
      </trkpt>
      <trkpt lat="46.33548" lon="-1.31392">
        <ele>4.1</ele>
        <time>2021-06-17T10:25:16Z</time>
      </trkpt>
      <trkpt lat="46.33547" lon="-1.31391">
        <ele>4.1</ele>
        <time>2021-06-17T10:25:17Z</time>
      </trkpt>
      <trkpt lat="46.33547" lon="-1.31389">
        <ele>4.1</ele>
        <time>2021-06-17T10:25:18Z</time>
      </trkpt>
      <trkpt lat="46.33546" lon="-1.31388">
        <ele>4.1</ele>
        <time>2021-06-17T10:25:19Z</time>
      </trkpt>
      <trkpt lat="46.33546" lon="-1.31386">
        <ele>4.1</ele>
        <time>2021-06-17T10:25:20Z</time>
      </trkpt>
      <trkpt lat="46.33545" lon="-1.31385">
        <ele>4.1</ele>
        <time>2021-06-17T10:25:21Z</time>
      </trkpt>
      <trkpt lat="46.33544" lon="-1.31383">
        <ele>4.1</ele>
        <time>2021-06-17T10:25:22Z</time>
      </trkpt>
      <trkpt lat="46.33544" lon="-1.31381">
        <ele>4.1</ele>
        <time>2021-06-17T10:25:23Z</time>
      </trkpt>
      <trkpt lat="46.33543" lon="-1.3138">
        <ele>4.1</ele>
        <time>2021-06-17T10:25:24Z</time>
      </trkpt>
      <trkpt lat="46.33543" lon="-1.31378">
        <ele>4.1</ele>
        <time>2021-06-17T10:25:25Z</time>
      </trkpt>
      <trkpt lat="46.33542" lon="-1.31377">
        <ele>4</ele>
        <time>2021-06-17T10:25:26Z</time>
      </trkpt>
      <trkpt lat="46.33542" lon="-1.31375">
        <ele>4</ele>
        <time>2021-06-17T10:25:27Z</time>
      </trkpt>
      <trkpt lat="46.33541" lon="-1.31374">
        <ele>4</ele>
        <time>2021-06-17T10:25:28Z</time>
      </trkpt>
      <trkpt lat="46.3354" lon="-1.31372">
        <ele>4</ele>
        <time>2021-06-17T10:25:29Z</time>
      </trkpt>
      <trkpt lat="46.3354" lon="-1.3137">
        <ele>4</ele>
        <time>2021-06-17T10:25:30Z</time>
      </trkpt>
      <trkpt lat="46.33539" lon="-1.31369">
        <ele>4</ele>
        <time>2021-06-17T10:25:31Z</time>
      </trkpt>
      <trkpt lat="46.33539" lon="-1.31367">
        <ele>4</ele>
        <time>2021-06-17T10:25:32Z</time>
      </trkpt>
      <trkpt lat="46.33538" lon="-1.31366">
        <ele>4</ele>
        <time>2021-06-17T10:25:33Z</time>
      </trkpt>
      <trkpt lat="46.33538" lon="-1.31364">
        <ele>4</ele>
        <time>2021-06-17T10:25:34Z</time>
      </trkpt>
      <trkpt lat="46.33537" lon="-1.31362">
        <ele>4</ele>
        <time>2021-06-17T10:25:35Z</time>
      </trkpt>
      <trkpt lat="46.33536" lon="-1.31361">
        <ele>4</ele>
        <time>2021-06-17T10:25:36Z</time>
      </trkpt>
      <trkpt lat="46.33536" lon="-1.31359">
        <ele>4</ele>
        <time>2021-06-17T10:25:37Z</time>
      </trkpt>
      <trkpt lat="46.33535" lon="-1.31357">
        <ele>4</ele>
        <time>2021-06-17T10:25:38Z</time>
      </trkpt>
      <trkpt lat="46.33535" lon="-1.31356">
        <ele>4</ele>
        <time>2021-06-17T10:25:39Z</time>
      </trkpt>
      <trkpt lat="46.33534" lon="-1.31354">
        <ele>4</ele>
        <time>2021-06-17T10:25:40Z</time>
      </trkpt>
      <trkpt lat="46.33534" lon="-1.31352">
        <ele>4</ele>
        <time>2021-06-17T10:25:41Z</time>
      </trkpt>
      <trkpt lat="46.33533" lon="-1.31351">
        <ele>4</ele>
        <time>2021-06-17T10:25:42Z</time>
      </trkpt>
      <trkpt lat="46.33533" lon="-1.31349">
        <ele>4</ele>
        <time>2021-06-17T10:25:43Z</time>
      </trkpt>
      <trkpt lat="46.33532" lon="-1.31348">
        <ele>4</ele>
        <time>2021-06-17T10:25:44Z</time>
      </trkpt>
      <trkpt lat="46.33531" lon="-1.31346">
        <ele>4</ele>
        <time>2021-06-17T10:25:45Z</time>
      </trkpt>
      <trkpt lat="46.33531" lon="-1.31344">
        <ele>4</ele>
        <time>2021-06-17T10:25:46Z</time>
      </trkpt>
      <trkpt lat="46.3353" lon="-1.31343">
        <ele>4</ele>
        <time>2021-06-17T10:25:47Z</time>
      </trkpt>
      <trkpt lat="46.3353" lon="-1.31341">
        <ele>4</ele>
        <time>2021-06-17T10:25:48Z</time>
      </trkpt>
      <trkpt lat="46.33529" lon="-1.31339">
        <ele>4</ele>
        <time>2021-06-17T10:25:49Z</time>
      </trkpt>
      <trkpt lat="46.33529" lon="-1.31338">
        <ele>4</ele>
        <time>2021-06-17T10:25:50Z</time>
      </trkpt>
      <trkpt lat="46.33528" lon="-1.31336">
        <ele>4</ele>
        <time>2021-06-17T10:25:51Z</time>
      </trkpt>
      <trkpt lat="46.33527" lon="-1.31335">
        <ele>4</ele>
        <time>2021-06-17T10:25:52Z</time>
      </trkpt>
      <trkpt lat="46.33527" lon="-1.31333">
        <ele>4</ele>
        <time>2021-06-17T10:25:53Z</time>
      </trkpt>
      <trkpt lat="46.33526" lon="-1.31332">
        <ele>4</ele>
        <time>2021-06-17T10:25:54Z</time>
      </trkpt>
      <trkpt lat="46.33525" lon="-1.3133">
        <ele>4</ele>
        <time>2021-06-17T10:25:55Z</time>
      </trkpt>
      <trkpt lat="46.33524" lon="-1.31328">
        <ele>4</ele>
        <time>2021-06-17T10:25:56Z</time>
      </trkpt>
      <trkpt lat="46.33524" lon="-1.31327">
        <ele>4</ele>
        <time>2021-06-17T10:25:57Z</time>
      </trkpt>
      <trkpt lat="46.33523" lon="-1.31325">
        <ele>4</ele>
        <time>2021-06-17T10:25:58Z</time>
      </trkpt>
      <trkpt lat="46.33522" lon="-1.31324">
        <ele>4</ele>
        <time>2021-06-17T10:25:59Z</time>
      </trkpt>
      <trkpt lat="46.33521" lon="-1.31322">
        <ele>4</ele>
        <time>2021-06-17T10:26:00Z</time>
      </trkpt>
      <trkpt lat="46.3352" lon="-1.31321">
        <ele>4</ele>
        <time>2021-06-17T10:26:01Z</time>
      </trkpt>
      <trkpt lat="46.3352" lon="-1.31319">
        <ele>4</ele>
        <time>2021-06-17T10:26:02Z</time>
      </trkpt>
      <trkpt lat="46.33519" lon="-1.31318">
        <ele>4</ele>
        <time>2021-06-17T10:26:03Z</time>
      </trkpt>
      <trkpt lat="46.33518" lon="-1.31317">
        <ele>4</ele>
        <time>2021-06-17T10:26:04Z</time>
      </trkpt>
      <trkpt lat="46.33518" lon="-1.31315">
        <ele>4</ele>
        <time>2021-06-17T10:26:05Z</time>
      </trkpt>
      <trkpt lat="46.33517" lon="-1.31314">
        <ele>4</ele>
        <time>2021-06-17T10:26:06Z</time>
      </trkpt>
      <trkpt lat="46.33516" lon="-1.31312">
        <ele>4</ele>
        <time>2021-06-17T10:26:07Z</time>
      </trkpt>
      <trkpt lat="46.33516" lon="-1.31311">
        <ele>4</ele>
        <time>2021-06-17T10:26:08Z</time>
      </trkpt>
      <trkpt lat="46.33515" lon="-1.3131">
        <ele>4</ele>
        <time>2021-06-17T10:26:09Z</time>
      </trkpt>
      <trkpt lat="46.33515" lon="-1.31308">
        <ele>4</ele>
        <time>2021-06-17T10:26:10Z</time>
      </trkpt>
      <trkpt lat="46.33514" lon="-1.31307">
        <ele>4</ele>
        <time>2021-06-17T10:26:11Z</time>
      </trkpt>
      <trkpt lat="46.33514" lon="-1.31306">
        <ele>4</ele>
        <time>2021-06-17T10:26:12Z</time>
      </trkpt>
      <trkpt lat="46.33513" lon="-1.31305">
        <ele>4</ele>
        <time>2021-06-17T10:26:13Z</time>
      </trkpt>
      <trkpt lat="46.33513" lon="-1.31303">
        <ele>4</ele>
        <time>2021-06-17T10:26:14Z</time>
      </trkpt>
      <trkpt lat="46.33512" lon="-1.31302">
        <ele>4</ele>
        <time>2021-06-17T10:26:15Z</time>
      </trkpt>
      <trkpt lat="46.33512" lon="-1.31301">
        <ele>4</ele>
        <time>2021-06-17T10:26:16Z</time>
      </trkpt>
      <trkpt lat="46.33511" lon="-1.31299">
        <ele>4</ele>
        <time>2021-06-17T10:26:17Z</time>
      </trkpt>
      <trkpt lat="46.33511" lon="-1.31298">
        <ele>4</ele>
        <time>2021-06-17T10:26:18Z</time>
      </trkpt>
      <trkpt lat="46.3351" lon="-1.31297">
        <ele>4.1</ele>
        <time>2021-06-17T10:26:19Z</time>
      </trkpt>
      <trkpt lat="46.33509" lon="-1.31296">
        <ele>4.1</ele>
        <time>2021-06-17T10:26:20Z</time>
      </trkpt>
      <trkpt lat="46.33509" lon="-1.31294">
        <ele>4.1</ele>
        <time>2021-06-17T10:26:21Z</time>
      </trkpt>
      <trkpt lat="46.33508" lon="-1.31293">
        <ele>4.1</ele>
        <time>2021-06-17T10:26:22Z</time>
      </trkpt>
      <trkpt lat="46.33507" lon="-1.31292">
        <ele>4.1</ele>
        <time>2021-06-17T10:26:23Z</time>
      </trkpt>
      <trkpt lat="46.33507" lon="-1.31291">
        <ele>4.1</ele>
        <time>2021-06-17T10:26:24Z</time>
      </trkpt>
      <trkpt lat="46.33506" lon="-1.31289">
        <ele>4.1</ele>
        <time>2021-06-17T10:26:25Z</time>
      </trkpt>
      <trkpt lat="46.33505" lon="-1.31288">
        <ele>4.1</ele>
        <time>2021-06-17T10:26:26Z</time>
      </trkpt>
      <trkpt lat="46.33504" lon="-1.31287">
        <ele>4.1</ele>
        <time>2021-06-17T10:26:27Z</time>
      </trkpt>
      <trkpt lat="46.33503" lon="-1.31285">
        <ele>4.1</ele>
        <time>2021-06-17T10:26:28Z</time>
      </trkpt>
      <trkpt lat="46.33502" lon="-1.31284">
        <ele>4.1</ele>
        <time>2021-06-17T10:26:29Z</time>
      </trkpt>
      <trkpt lat="46.33502" lon="-1.31283">
        <ele>4.1</ele>
        <time>2021-06-17T10:26:30Z</time>
      </trkpt>
      <trkpt lat="46.33501" lon="-1.31281">
        <ele>4.1</ele>
        <time>2021-06-17T10:26:31Z</time>
      </trkpt>
      <trkpt lat="46.335" lon="-1.3128">
        <ele>4.1</ele>
        <time>2021-06-17T10:26:32Z</time>
      </trkpt>
      <trkpt lat="46.335" lon="-1.31279">
        <ele>4.1</ele>
        <time>2021-06-17T10:26:33Z</time>
      </trkpt>
      <trkpt lat="46.33499" lon="-1.31277">
        <ele>4.1</ele>
        <time>2021-06-17T10:26:34Z</time>
      </trkpt>
      <trkpt lat="46.33498" lon="-1.31276">
        <ele>4.1</ele>
        <time>2021-06-17T10:26:35Z</time>
      </trkpt>
      <trkpt lat="46.33498" lon="-1.31275">
        <ele>4.1</ele>
        <time>2021-06-17T10:26:36Z</time>
      </trkpt>
      <trkpt lat="46.33497" lon="-1.31273">
        <ele>4.1</ele>
        <time>2021-06-17T10:26:37Z</time>
      </trkpt>
      <trkpt lat="46.33497" lon="-1.31272">
        <ele>4.1</ele>
        <time>2021-06-17T10:26:38Z</time>
      </trkpt>
      <trkpt lat="46.33496" lon="-1.3127">
        <ele>4.1</ele>
        <time>2021-06-17T10:26:39Z</time>
      </trkpt>
      <trkpt lat="46.33495" lon="-1.31269">
        <ele>4.1</ele>
        <time>2021-06-17T10:26:40Z</time>
      </trkpt>
      <trkpt lat="46.33494" lon="-1.31267">
        <ele>4.1</ele>
        <time>2021-06-17T10:26:41Z</time>
      </trkpt>
      <trkpt lat="46.33493" lon="-1.31265">
        <ele>4.1</ele>
        <time>2021-06-17T10:26:42Z</time>
      </trkpt>
      <trkpt lat="46.33492" lon="-1.31264">
        <ele>4.1</ele>
        <time>2021-06-17T10:26:43Z</time>
      </trkpt>
      <trkpt lat="46.33491" lon="-1.31262">
        <ele>4.1</ele>
        <time>2021-06-17T10:26:44Z</time>
      </trkpt>
      <trkpt lat="46.3349" lon="-1.3126">
        <ele>4.1</ele>
        <time>2021-06-17T10:26:45Z</time>
      </trkpt>
      <trkpt lat="46.3349" lon="-1.31259">
        <ele>4.1</ele>
        <time>2021-06-17T10:26:46Z</time>
      </trkpt>
      <trkpt lat="46.33489" lon="-1.31257">
        <ele>4.1</ele>
        <time>2021-06-17T10:26:47Z</time>
      </trkpt>
      <trkpt lat="46.33489" lon="-1.31256">
        <ele>4.1</ele>
        <time>2021-06-17T10:26:48Z</time>
      </trkpt>
      <trkpt lat="46.33488" lon="-1.31255">
        <ele>4.1</ele>
        <time>2021-06-17T10:26:49Z</time>
      </trkpt>
      <trkpt lat="46.33488" lon="-1.31253">
        <ele>4.1</ele>
        <time>2021-06-17T10:26:50Z</time>
      </trkpt>
      <trkpt lat="46.33488" lon="-1.31252">
        <ele>4</ele>
        <time>2021-06-17T10:26:51Z</time>
      </trkpt>
      <trkpt lat="46.33487" lon="-1.31251">
        <ele>4</ele>
        <time>2021-06-17T10:26:52Z</time>
      </trkpt>
      <trkpt lat="46.33487" lon="-1.31249">
        <ele>4</ele>
        <time>2021-06-17T10:26:53Z</time>
      </trkpt>
      <trkpt lat="46.33486" lon="-1.31248">
        <ele>4</ele>
        <time>2021-06-17T10:26:54Z</time>
      </trkpt>
      <trkpt lat="46.33486" lon="-1.31247">
        <ele>4</ele>
        <time>2021-06-17T10:26:55Z</time>
      </trkpt>
      <trkpt lat="46.33485" lon="-1.31246">
        <ele>4</ele>
        <time>2021-06-17T10:26:56Z</time>
      </trkpt>
      <trkpt lat="46.33485" lon="-1.31245">
        <ele>4</ele>
        <time>2021-06-17T10:26:57Z</time>
      </trkpt>
      <trkpt lat="46.33485" lon="-1.31243">
        <ele>4</ele>
        <time>2021-06-17T10:26:58Z</time>
      </trkpt>
      <trkpt lat="46.33484" lon="-1.31242">
        <ele>4</ele>
        <time>2021-06-17T10:26:59Z</time>
      </trkpt>
      <trkpt lat="46.33484" lon="-1.31241">
        <ele>4</ele>
        <time>2021-06-17T10:27:00Z</time>
      </trkpt>
      <trkpt lat="46.33484" lon="-1.3124">
        <ele>4</ele>
        <time>2021-06-17T10:27:01Z</time>
      </trkpt>
      <trkpt lat="46.33484" lon="-1.31239">
        <ele>4</ele>
        <time>2021-06-17T10:27:02Z</time>
      </trkpt>
      <trkpt lat="46.33483" lon="-1.31237">
        <ele>4</ele>
        <time>2021-06-17T10:27:03Z</time>
      </trkpt>
      <trkpt lat="46.33483" lon="-1.31236">
        <ele>4</ele>
        <time>2021-06-17T10:27:04Z</time>
      </trkpt>
      <trkpt lat="46.33483" lon="-1.31234">
        <ele>4</ele>
        <time>2021-06-17T10:27:05Z</time>
      </trkpt>
      <trkpt lat="46.33482" lon="-1.31232">
        <ele>4</ele>
        <time>2021-06-17T10:27:06Z</time>
      </trkpt>
      <trkpt lat="46.33482" lon="-1.31231">
        <ele>4</ele>
        <time>2021-06-17T10:27:07Z</time>
      </trkpt>
      <trkpt lat="46.33481" lon="-1.31229">
        <ele>4</ele>
        <time>2021-06-17T10:27:08Z</time>
      </trkpt>
      <trkpt lat="46.33481" lon="-1.31227">
        <ele>4</ele>
        <time>2021-06-17T10:27:09Z</time>
      </trkpt>
      <trkpt lat="46.33481" lon="-1.31226">
        <ele>4</ele>
        <time>2021-06-17T10:27:10Z</time>
      </trkpt>
      <trkpt lat="46.3348" lon="-1.31224">
        <ele>4</ele>
        <time>2021-06-17T10:27:11Z</time>
      </trkpt>
      <trkpt lat="46.3348" lon="-1.31222">
        <ele>4</ele>
        <time>2021-06-17T10:27:12Z</time>
      </trkpt>
      <trkpt lat="46.3348" lon="-1.31221">
        <ele>4</ele>
        <time>2021-06-17T10:27:13Z</time>
      </trkpt>
      <trkpt lat="46.33479" lon="-1.31219">
        <ele>4</ele>
        <time>2021-06-17T10:27:14Z</time>
      </trkpt>
      <trkpt lat="46.33479" lon="-1.31217">
        <ele>4</ele>
        <time>2021-06-17T10:27:15Z</time>
      </trkpt>
      <trkpt lat="46.33479" lon="-1.31216">
        <ele>4</ele>
        <time>2021-06-17T10:27:16Z</time>
      </trkpt>
      <trkpt lat="46.33478" lon="-1.31214">
        <ele>4</ele>
        <time>2021-06-17T10:27:17Z</time>
      </trkpt>
      <trkpt lat="46.33478" lon="-1.31212">
        <ele>4</ele>
        <time>2021-06-17T10:27:18Z</time>
      </trkpt>
      <trkpt lat="46.33478" lon="-1.31211">
        <ele>4</ele>
        <time>2021-06-17T10:27:19Z</time>
      </trkpt>
      <trkpt lat="46.33478" lon="-1.31209">
        <ele>4</ele>
        <time>2021-06-17T10:27:20Z</time>
      </trkpt>
      <trkpt lat="46.33478" lon="-1.31207">
        <ele>4</ele>
        <time>2021-06-17T10:27:21Z</time>
      </trkpt>
      <trkpt lat="46.33478" lon="-1.31206">
        <ele>4</ele>
        <time>2021-06-17T10:27:22Z</time>
      </trkpt>
      <trkpt lat="46.33478" lon="-1.31204">
        <ele>4</ele>
        <time>2021-06-17T10:27:23Z</time>
      </trkpt>
      <trkpt lat="46.33477" lon="-1.31202">
        <ele>4</ele>
        <time>2021-06-17T10:27:24Z</time>
      </trkpt>
      <trkpt lat="46.33477" lon="-1.312">
        <ele>4</ele>
        <time>2021-06-17T10:27:25Z</time>
      </trkpt>
      <trkpt lat="46.33477" lon="-1.31199">
        <ele>4</ele>
        <time>2021-06-17T10:27:26Z</time>
      </trkpt>
      <trkpt lat="46.33477" lon="-1.31197">
        <ele>4</ele>
        <time>2021-06-17T10:27:27Z</time>
      </trkpt>
      <trkpt lat="46.33476" lon="-1.31195">
        <ele>4</ele>
        <time>2021-06-17T10:27:28Z</time>
      </trkpt>
      <trkpt lat="46.33476" lon="-1.31194">
        <ele>4</ele>
        <time>2021-06-17T10:27:29Z</time>
      </trkpt>
      <trkpt lat="46.33475" lon="-1.31192">
        <ele>3.9</ele>
        <time>2021-06-17T10:27:30Z</time>
      </trkpt>
      <trkpt lat="46.33474" lon="-1.3119">
        <ele>3.9</ele>
        <time>2021-06-17T10:27:31Z</time>
      </trkpt>
      <trkpt lat="46.33473" lon="-1.31189">
        <ele>3.9</ele>
        <time>2021-06-17T10:27:32Z</time>
      </trkpt>
      <trkpt lat="46.33472" lon="-1.31188">
        <ele>3.9</ele>
        <time>2021-06-17T10:27:33Z</time>
      </trkpt>
      <trkpt lat="46.33471" lon="-1.31189">
        <ele>3.9</ele>
        <time>2021-06-17T10:27:34Z</time>
      </trkpt>
      <trkpt lat="46.33471" lon="-1.3119">
        <ele>3.9</ele>
        <time>2021-06-17T10:27:35Z</time>
      </trkpt>
      <trkpt lat="46.3347" lon="-1.3119">
        <ele>3.9</ele>
        <time>2021-06-17T10:27:36Z</time>
      </trkpt>
      <trkpt lat="46.3347" lon="-1.31191">
        <ele>3.9</ele>
        <time>2021-06-17T10:27:37Z</time>
      </trkpt>
      <trkpt lat="46.3347" lon="-1.31191">
        <ele>3.9</ele>
        <time>2021-06-17T10:27:38Z</time>
      </trkpt>
      <trkpt lat="46.3347" lon="-1.31191">
        <ele>3.9</ele>
        <time>2021-06-17T10:27:39Z</time>
      </trkpt>
      <trkpt lat="46.3347" lon="-1.31191">
        <ele>3.9</ele>
        <time>2021-06-17T10:27:40Z</time>
      </trkpt>
      <trkpt lat="46.3347" lon="-1.31191">
        <ele>3.9</ele>
        <time>2021-06-17T10:27:41Z</time>
      </trkpt>
      <trkpt lat="46.3347" lon="-1.31192">
        <ele>3.9</ele>
        <time>2021-06-17T10:27:42Z</time>
      </trkpt>
      <trkpt lat="46.3347" lon="-1.31193">
        <ele>3.9</ele>
        <time>2021-06-17T10:27:43Z</time>
      </trkpt>
      <trkpt lat="46.33469" lon="-1.31194">
        <ele>3.9</ele>
        <time>2021-06-17T10:27:44Z</time>
      </trkpt>
      <trkpt lat="46.33469" lon="-1.31195">
        <ele>3.9</ele>
        <time>2021-06-17T10:27:45Z</time>
      </trkpt>
      <trkpt lat="46.33469" lon="-1.31197">
        <ele>3.9</ele>
        <time>2021-06-17T10:27:46Z</time>
      </trkpt>
      <trkpt lat="46.33468" lon="-1.31198">
        <ele>3.9</ele>
        <time>2021-06-17T10:27:47Z</time>
      </trkpt>
      <trkpt lat="46.33468" lon="-1.31199">
        <ele>3.9</ele>
        <time>2021-06-17T10:27:48Z</time>
      </trkpt>
      <trkpt lat="46.33467" lon="-1.31201">
        <ele>3.9</ele>
        <time>2021-06-17T10:27:49Z</time>
      </trkpt>
      <trkpt lat="46.33467" lon="-1.31202">
        <ele>3.9</ele>
        <time>2021-06-17T10:27:50Z</time>
      </trkpt>
      <trkpt lat="46.33467" lon="-1.31203">
        <ele>3.9</ele>
        <time>2021-06-17T10:27:51Z</time>
      </trkpt>
      <trkpt lat="46.33466" lon="-1.31204">
        <ele>3.9</ele>
        <time>2021-06-17T10:27:52Z</time>
      </trkpt>
      <trkpt lat="46.33467" lon="-1.3121">
        <ele>4.3</ele>
        <time>2021-06-17T10:50:48.000Z</time>
      </trkpt>
      <trkpt lat="46.33467" lon="-1.3121">
        <ele>4.3</ele>
        <time>2021-06-17T10:50:48.000Z</time>
      </trkpt>
      <trkpt lat="46.33468" lon="-1.3121">
        <ele>4.3</ele>
        <time>2021-06-17T10:50:49.000Z</time>
      </trkpt>
      <trkpt lat="46.33468" lon="-1.31209">
        <ele>4.3</ele>
        <time>2021-06-17T10:50:50.000Z</time>
      </trkpt>
      <trkpt lat="46.33468" lon="-1.31209">
        <ele>4.3</ele>
        <time>2021-06-17T10:50:51.000Z</time>
      </trkpt>
      <trkpt lat="46.33468" lon="-1.31209">
        <ele>4.3</ele>
        <time>2021-06-17T10:50:52.000Z</time>
      </trkpt>
      <trkpt lat="46.33468" lon="-1.31209">
        <ele>4.3</ele>
        <time>2021-06-17T10:50:53.000Z</time>
      </trkpt>
      <trkpt lat="46.33468" lon="-1.31209">
        <ele>4.3</ele>
        <time>2021-06-17T10:50:54.000Z</time>
      </trkpt>
      <trkpt lat="46.33468" lon="-1.31209">
        <ele>4.3</ele>
        <time>2021-06-17T10:50:55.000Z</time>
      </trkpt>
      <trkpt lat="46.33468" lon="-1.3121">
        <ele>4.3</ele>
        <time>2021-06-17T10:50:56.000Z</time>
      </trkpt>
      <trkpt lat="46.33467" lon="-1.3121">
        <ele>4.3</ele>
        <time>2021-06-17T10:50:57.000Z</time>
      </trkpt>
      <trkpt lat="46.33467" lon="-1.3121">
        <ele>4.3</ele>
        <time>2021-06-17T10:50:58.000Z</time>
      </trkpt>
      <trkpt lat="46.33467" lon="-1.31211">
        <ele>4.3</ele>
        <time>2021-06-17T10:50:59.000Z</time>
      </trkpt>
      <trkpt lat="46.33466" lon="-1.31211">
        <ele>4.3</ele>
        <time>2021-06-17T10:51:00.000Z</time>
      </trkpt>
      <trkpt lat="46.33466" lon="-1.31212">
        <ele>4.3</ele>
        <time>2021-06-17T10:51:01.000Z</time>
      </trkpt>
      <trkpt lat="46.33465" lon="-1.31212">
        <ele>4.3</ele>
        <time>2021-06-17T10:51:02.000Z</time>
      </trkpt>
      <trkpt lat="46.33465" lon="-1.31213">
        <ele>4.3</ele>
        <time>2021-06-17T10:51:03.000Z</time>
      </trkpt>
      <trkpt lat="46.33464" lon="-1.31213">
        <ele>4.3</ele>
        <time>2021-06-17T10:51:04.000Z</time>
      </trkpt>
      <trkpt lat="46.33464" lon="-1.31214">
        <ele>4.3</ele>
        <time>2021-06-17T10:51:05.000Z</time>
      </trkpt>
      <trkpt lat="46.33463" lon="-1.31215">
        <ele>4.3</ele>
        <time>2021-06-17T10:51:06.000Z</time>
      </trkpt>
      <trkpt lat="46.33462" lon="-1.31216">
        <ele>4.3</ele>
        <time>2021-06-17T10:51:07.000Z</time>
      </trkpt>
      <trkpt lat="46.33462" lon="-1.31216">
        <ele>4.3</ele>
        <time>2021-06-17T10:51:08.000Z</time>
      </trkpt>
      <trkpt lat="46.33461" lon="-1.31217">
        <ele>4.3</ele>
        <time>2021-06-17T10:51:09.000Z</time>
      </trkpt>
      <trkpt lat="46.3346" lon="-1.31218">
        <ele>4.3</ele>
        <time>2021-06-17T10:51:10.000Z</time>
      </trkpt>
      <trkpt lat="46.3346" lon="-1.31219">
        <ele>4.3</ele>
        <time>2021-06-17T10:51:11.000Z</time>
      </trkpt>
      <trkpt lat="46.33459" lon="-1.3122">
        <ele>4.3</ele>
        <time>2021-06-17T10:51:12.000Z</time>
      </trkpt>
      <trkpt lat="46.33458" lon="-1.31221">
        <ele>4.3</ele>
        <time>2021-06-17T10:51:13.000Z</time>
      </trkpt>
      <trkpt lat="46.33458" lon="-1.31222">
        <ele>4.3</ele>
        <time>2021-06-17T10:51:14.000Z</time>
      </trkpt>
      <trkpt lat="46.33457" lon="-1.31223">
        <ele>4.3</ele>
        <time>2021-06-17T10:51:15.000Z</time>
      </trkpt>
      <trkpt lat="46.33456" lon="-1.31224">
        <ele>4.3</ele>
        <time>2021-06-17T10:51:16.000Z</time>
      </trkpt>
      <trkpt lat="46.33456" lon="-1.31225">
        <ele>4.3</ele>
        <time>2021-06-17T10:51:17.000Z</time>
      </trkpt>
      <trkpt lat="46.33455" lon="-1.31226">
        <ele>4.3</ele>
        <time>2021-06-17T10:51:18.000Z</time>
      </trkpt>
      <trkpt lat="46.33454" lon="-1.31227">
        <ele>4.3</ele>
        <time>2021-06-17T10:51:19.000Z</time>
      </trkpt>
      <trkpt lat="46.33454" lon="-1.31228">
        <ele>4.3</ele>
        <time>2021-06-17T10:51:20.000Z</time>
      </trkpt>
      <trkpt lat="46.33453" lon="-1.31229">
        <ele>4.3</ele>
        <time>2021-06-17T10:51:21.000Z</time>
      </trkpt>
      <trkpt lat="46.33452" lon="-1.31231">
        <ele>4.3</ele>
        <time>2021-06-17T10:51:22.000Z</time>
      </trkpt>
      <trkpt lat="46.33452" lon="-1.31232">
        <ele>4.3</ele>
        <time>2021-06-17T10:51:23.000Z</time>
      </trkpt>
      <trkpt lat="46.33451" lon="-1.31233">
        <ele>4.3</ele>
        <time>2021-06-17T10:51:24.000Z</time>
      </trkpt>
      <trkpt lat="46.33451" lon="-1.31234">
        <ele>4.3</ele>
        <time>2021-06-17T10:51:25.000Z</time>
      </trkpt>
      <trkpt lat="46.3345" lon="-1.31235">
        <ele>4.3</ele>
        <time>2021-06-17T10:51:26.000Z</time>
      </trkpt>
      <trkpt lat="46.3345" lon="-1.31236">
        <ele>4.3</ele>
        <time>2021-06-17T10:51:27.000Z</time>
      </trkpt>
      <trkpt lat="46.33449" lon="-1.31238">
        <ele>4.3</ele>
        <time>2021-06-17T10:51:28.000Z</time>
      </trkpt>
      <trkpt lat="46.33449" lon="-1.31239">
        <ele>4.3</ele>
        <time>2021-06-17T10:51:29.000Z</time>
      </trkpt>
      <trkpt lat="46.33448" lon="-1.3124">
        <ele>4.3</ele>
        <time>2021-06-17T10:51:30.000Z</time>
      </trkpt>
      <trkpt lat="46.33448" lon="-1.31241">
        <ele>4.3</ele>
        <time>2021-06-17T10:51:31.000Z</time>
      </trkpt>
      <trkpt lat="46.33447" lon="-1.31243">
        <ele>4.3</ele>
        <time>2021-06-17T10:51:32.000Z</time>
      </trkpt>
      <trkpt lat="46.33447" lon="-1.31244">
        <ele>4.3</ele>
        <time>2021-06-17T10:51:33.000Z</time>
      </trkpt>
      <trkpt lat="46.33447" lon="-1.31245">
        <ele>4.3</ele>
        <time>2021-06-17T10:51:34.000Z</time>
      </trkpt>
      <trkpt lat="46.33446" lon="-1.31246">
        <ele>4.3</ele>
        <time>2021-06-17T10:51:35.000Z</time>
      </trkpt>
      <trkpt lat="46.33446" lon="-1.31248">
        <ele>4.3</ele>
        <time>2021-06-17T10:51:36.000Z</time>
      </trkpt>
      <trkpt lat="46.33446" lon="-1.31249">
        <ele>4.3</ele>
        <time>2021-06-17T10:51:37.000Z</time>
      </trkpt>
      <trkpt lat="46.33445" lon="-1.3125">
        <ele>4.3</ele>
        <time>2021-06-17T10:51:38.000Z</time>
      </trkpt>
      <trkpt lat="46.33445" lon="-1.31252">
        <ele>4.3</ele>
        <time>2021-06-17T10:51:39.000Z</time>
      </trkpt>
      <trkpt lat="46.33445" lon="-1.31253">
        <ele>4.3</ele>
        <time>2021-06-17T10:51:40.000Z</time>
      </trkpt>
      <trkpt lat="46.33444" lon="-1.31254">
        <ele>4.3</ele>
        <time>2021-06-17T10:51:41.000Z</time>
      </trkpt>
      <trkpt lat="46.33444" lon="-1.31256">
        <ele>4.3</ele>
        <time>2021-06-17T10:51:42.000Z</time>
      </trkpt>
      <trkpt lat="46.33444" lon="-1.31257">
        <ele>4.3</ele>
        <time>2021-06-17T10:51:43.000Z</time>
      </trkpt>
      <trkpt lat="46.33444" lon="-1.31258">
        <ele>4.3</ele>
        <time>2021-06-17T10:51:44.000Z</time>
      </trkpt>
      <trkpt lat="46.33444" lon="-1.3126">
        <ele>4.2</ele>
        <time>2021-06-17T10:51:45.000Z</time>
      </trkpt>
      <trkpt lat="46.33443" lon="-1.31261">
        <ele>4.2</ele>
        <time>2021-06-17T10:51:46.000Z</time>
      </trkpt>
      <trkpt lat="46.33443" lon="-1.31262">
        <ele>4.2</ele>
        <time>2021-06-17T10:51:47.000Z</time>
      </trkpt>
      <trkpt lat="46.33443" lon="-1.31264">
        <ele>4.2</ele>
        <time>2021-06-17T10:51:48.000Z</time>
      </trkpt>
      <trkpt lat="46.33443" lon="-1.31265">
        <ele>4.2</ele>
        <time>2021-06-17T10:51:49.000Z</time>
      </trkpt>
      <trkpt lat="46.33443" lon="-1.31266">
        <ele>4.2</ele>
        <time>2021-06-17T10:51:50.000Z</time>
      </trkpt>
      <trkpt lat="46.33443" lon="-1.31268">
        <ele>4.2</ele>
        <time>2021-06-17T10:51:51.000Z</time>
      </trkpt>
      <trkpt lat="46.33443" lon="-1.31269">
        <ele>4.2</ele>
        <time>2021-06-17T10:51:52.000Z</time>
      </trkpt>
      <trkpt lat="46.33443" lon="-1.3127">
        <ele>4.1</ele>
        <time>2021-06-17T10:51:53.000Z</time>
      </trkpt>
      <trkpt lat="46.33443" lon="-1.31272">
        <ele>4.1</ele>
        <time>2021-06-17T10:51:54.000Z</time>
      </trkpt>
      <trkpt lat="46.33443" lon="-1.31273">
        <ele>4.1</ele>
        <time>2021-06-17T10:51:55.000Z</time>
      </trkpt>
      <trkpt lat="46.33443" lon="-1.31275">
        <ele>4.1</ele>
        <time>2021-06-17T10:51:56.000Z</time>
      </trkpt>
      <trkpt lat="46.33442" lon="-1.31276">
        <ele>4.1</ele>
        <time>2021-06-17T10:51:57.000Z</time>
      </trkpt>
      <trkpt lat="46.33442" lon="-1.31278">
        <ele>4.1</ele>
        <time>2021-06-17T10:51:58.000Z</time>
      </trkpt>
      <trkpt lat="46.33442" lon="-1.31279">
        <ele>4.1</ele>
        <time>2021-06-17T10:51:59.000Z</time>
      </trkpt>
      <trkpt lat="46.33442" lon="-1.3128">
        <ele>4.1</ele>
        <time>2021-06-17T10:52:00.000Z</time>
      </trkpt>
      <trkpt lat="46.33442" lon="-1.31282">
        <ele>4</ele>
        <time>2021-06-17T10:52:01.000Z</time>
      </trkpt>
      <trkpt lat="46.33442" lon="-1.31283">
        <ele>4</ele>
        <time>2021-06-17T10:52:02.000Z</time>
      </trkpt>
      <trkpt lat="46.33442" lon="-1.31285">
        <ele>4</ele>
        <time>2021-06-17T10:52:03.000Z</time>
      </trkpt>
      <trkpt lat="46.33442" lon="-1.31286">
        <ele>4</ele>
        <time>2021-06-17T10:52:04.000Z</time>
      </trkpt>
      <trkpt lat="46.33442" lon="-1.31288">
        <ele>4</ele>
        <time>2021-06-17T10:52:05.000Z</time>
      </trkpt>
      <trkpt lat="46.33442" lon="-1.3129">
        <ele>4</ele>
        <time>2021-06-17T10:52:06.000Z</time>
      </trkpt>
      <trkpt lat="46.33442" lon="-1.31291">
        <ele>4</ele>
        <time>2021-06-17T10:52:07.000Z</time>
      </trkpt>
      <trkpt lat="46.33442" lon="-1.31293">
        <ele>3.9</ele>
        <time>2021-06-17T10:52:08.000Z</time>
      </trkpt>
      <trkpt lat="46.33442" lon="-1.31294">
        <ele>3.9</ele>
        <time>2021-06-17T10:52:09.000Z</time>
      </trkpt>
      <trkpt lat="46.33442" lon="-1.31296">
        <ele>3.9</ele>
        <time>2021-06-17T10:52:10.000Z</time>
      </trkpt>
      <trkpt lat="46.33442" lon="-1.31298">
        <ele>3.9</ele>
        <time>2021-06-17T10:52:11.000Z</time>
      </trkpt>
      <trkpt lat="46.33442" lon="-1.313">
        <ele>3.9</ele>
        <time>2021-06-17T10:52:12.000Z</time>
      </trkpt>
      <trkpt lat="46.33442" lon="-1.31301">
        <ele>3.9</ele>
        <time>2021-06-17T10:52:13.000Z</time>
      </trkpt>
      <trkpt lat="46.33442" lon="-1.31303">
        <ele>3.9</ele>
        <time>2021-06-17T10:52:14.000Z</time>
      </trkpt>
      <trkpt lat="46.33442" lon="-1.31305">
        <ele>3.8</ele>
        <time>2021-06-17T10:52:15.000Z</time>
      </trkpt>
      <trkpt lat="46.33442" lon="-1.31307">
        <ele>3.8</ele>
        <time>2021-06-17T10:52:16.000Z</time>
      </trkpt>
      <trkpt lat="46.33442" lon="-1.31308">
        <ele>3.8</ele>
        <time>2021-06-17T10:52:17.000Z</time>
      </trkpt>
      <trkpt lat="46.33442" lon="-1.3131">
        <ele>3.8</ele>
        <time>2021-06-17T10:52:18.000Z</time>
      </trkpt>
      <trkpt lat="46.33443" lon="-1.31311">
        <ele>3.8</ele>
        <time>2021-06-17T10:52:19.000Z</time>
      </trkpt>
      <trkpt lat="46.33443" lon="-1.31313">
        <ele>3.8</ele>
        <time>2021-06-17T10:52:20.000Z</time>
      </trkpt>
      <trkpt lat="46.33443" lon="-1.31314">
        <ele>3.8</ele>
        <time>2021-06-17T10:52:21.000Z</time>
      </trkpt>
      <trkpt lat="46.33443" lon="-1.31315">
        <ele>3.8</ele>
        <time>2021-06-17T10:52:22.000Z</time>
      </trkpt>
      <trkpt lat="46.33443" lon="-1.31316">
        <ele>3.8</ele>
        <time>2021-06-17T10:52:23.000Z</time>
      </trkpt>
      <trkpt lat="46.33444" lon="-1.31317">
        <ele>3.8</ele>
        <time>2021-06-17T10:52:24.000Z</time>
      </trkpt>
      <trkpt lat="46.33444" lon="-1.31317">
        <ele>3.8</ele>
        <time>2021-06-17T10:52:25.000Z</time>
      </trkpt>
      <trkpt lat="46.33444" lon="-1.31318">
        <ele>3.8</ele>
        <time>2021-06-17T10:52:26.000Z</time>
      </trkpt>
      <trkpt lat="46.33444" lon="-1.31319">
        <ele>3.8</ele>
        <time>2021-06-17T10:52:27.000Z</time>
      </trkpt>
      <trkpt lat="46.33444" lon="-1.3132">
        <ele>3.8</ele>
        <time>2021-06-17T10:52:28.000Z</time>
      </trkpt>
      <trkpt lat="46.33445" lon="-1.3132">
        <ele>3.8</ele>
        <time>2021-06-17T10:52:29.000Z</time>
      </trkpt>
      <trkpt lat="46.33445" lon="-1.31321">
        <ele>3.8</ele>
        <time>2021-06-17T10:52:30.000Z</time>
      </trkpt>
      <trkpt lat="46.33445" lon="-1.31322">
        <ele>3.8</ele>
        <time>2021-06-17T10:52:31.000Z</time>
      </trkpt>
      <trkpt lat="46.33445" lon="-1.31323">
        <ele>3.8</ele>
        <time>2021-06-17T10:52:32.000Z</time>
      </trkpt>
      <trkpt lat="46.33446" lon="-1.31325">
        <ele>3.8</ele>
        <time>2021-06-17T10:52:33.000Z</time>
      </trkpt>
      <trkpt lat="46.33446" lon="-1.31326">
        <ele>3.8</ele>
        <time>2021-06-17T10:52:34.000Z</time>
      </trkpt>
      <trkpt lat="46.33447" lon="-1.31328">
        <ele>3.8</ele>
        <time>2021-06-17T10:52:35.000Z</time>
      </trkpt>
      <trkpt lat="46.33447" lon="-1.31329">
        <ele>3.8</ele>
        <time>2021-06-17T10:52:36.000Z</time>
      </trkpt>
      <trkpt lat="46.33448" lon="-1.31331">
        <ele>3.8</ele>
        <time>2021-06-17T10:52:37.000Z</time>
      </trkpt>
      <trkpt lat="46.33449" lon="-1.31333">
        <ele>3.8</ele>
        <time>2021-06-17T10:52:38.000Z</time>
      </trkpt>
      <trkpt lat="46.3345" lon="-1.31335">
        <ele>3.8</ele>
        <time>2021-06-17T10:52:39.000Z</time>
      </trkpt>
      <trkpt lat="46.3345" lon="-1.31337">
        <ele>3.8</ele>
        <time>2021-06-17T10:52:40.000Z</time>
      </trkpt>
      <trkpt lat="46.33451" lon="-1.31339">
        <ele>3.8</ele>
        <time>2021-06-17T10:52:41.000Z</time>
      </trkpt>
      <trkpt lat="46.33452" lon="-1.3134">
        <ele>3.7</ele>
        <time>2021-06-17T10:52:42.000Z</time>
      </trkpt>
      <trkpt lat="46.33453" lon="-1.31342">
        <ele>3.7</ele>
        <time>2021-06-17T10:52:43.000Z</time>
      </trkpt>
      <trkpt lat="46.33453" lon="-1.31344">
        <ele>3.7</ele>
        <time>2021-06-17T10:52:44.000Z</time>
      </trkpt>
      <trkpt lat="46.33454" lon="-1.31345">
        <ele>3.7</ele>
        <time>2021-06-17T10:52:45.000Z</time>
      </trkpt>
      <trkpt lat="46.33455" lon="-1.31347">
        <ele>3.7</ele>
        <time>2021-06-17T10:52:46.000Z</time>
      </trkpt>
      <trkpt lat="46.33455" lon="-1.31349">
        <ele>3.7</ele>
        <time>2021-06-17T10:52:47.000Z</time>
      </trkpt>
      <trkpt lat="46.33456" lon="-1.3135">
        <ele>3.7</ele>
        <time>2021-06-17T10:52:48.000Z</time>
      </trkpt>
      <trkpt lat="46.33456" lon="-1.31352">
        <ele>3.7</ele>
        <time>2021-06-17T10:52:49.000Z</time>
      </trkpt>
      <trkpt lat="46.33456" lon="-1.31353">
        <ele>3.7</ele>
        <time>2021-06-17T10:52:50.000Z</time>
      </trkpt>
      <trkpt lat="46.33456" lon="-1.31354">
        <ele>3.7</ele>
        <time>2021-06-17T10:52:51.000Z</time>
      </trkpt>
      <trkpt lat="46.33457" lon="-1.31356">
        <ele>3.7</ele>
        <time>2021-06-17T10:52:52.000Z</time>
      </trkpt>
      <trkpt lat="46.33457" lon="-1.31357">
        <ele>3.7</ele>
        <time>2021-06-17T10:52:53.000Z</time>
      </trkpt>
      <trkpt lat="46.33457" lon="-1.31359">
        <ele>3.7</ele>
        <time>2021-06-17T10:52:54.000Z</time>
      </trkpt>
      <trkpt lat="46.33458" lon="-1.3136">
        <ele>3.6</ele>
        <time>2021-06-17T10:52:55.000Z</time>
      </trkpt>
      <trkpt lat="46.33458" lon="-1.31362">
        <ele>3.6</ele>
        <time>2021-06-17T10:52:56.000Z</time>
      </trkpt>
      <trkpt lat="46.33458" lon="-1.31364">
        <ele>3.6</ele>
        <time>2021-06-17T10:52:57.000Z</time>
      </trkpt>
      <trkpt lat="46.33459" lon="-1.31365">
        <ele>3.6</ele>
        <time>2021-06-17T10:52:58.000Z</time>
      </trkpt>
      <trkpt lat="46.33459" lon="-1.31367">
        <ele>3.6</ele>
        <time>2021-06-17T10:52:59.000Z</time>
      </trkpt>
      <trkpt lat="46.3346" lon="-1.31369">
        <ele>3.6</ele>
        <time>2021-06-17T10:53:00.000Z</time>
      </trkpt>
      <trkpt lat="46.3346" lon="-1.31371">
        <ele>3.6</ele>
        <time>2021-06-17T10:53:01.000Z</time>
      </trkpt>
      <trkpt lat="46.33461" lon="-1.31372">
        <ele>3.6</ele>
        <time>2021-06-17T10:53:02.000Z</time>
      </trkpt>
      <trkpt lat="46.33461" lon="-1.31374">
        <ele>3.6</ele>
        <time>2021-06-17T10:53:03.000Z</time>
      </trkpt>
      <trkpt lat="46.33462" lon="-1.31376">
        <ele>3.6</ele>
        <time>2021-06-17T10:53:04.000Z</time>
      </trkpt>
      <trkpt lat="46.33462" lon="-1.31377">
        <ele>3.6</ele>
        <time>2021-06-17T10:53:05.000Z</time>
      </trkpt>
      <trkpt lat="46.33462" lon="-1.31377">
        <ele>3.6</ele>
        <time>2021-06-17T10:53:06.000Z</time>
      </trkpt>
      <trkpt lat="46.33462" lon="-1.31378">
        <ele>3.6</ele>
        <time>2021-06-17T10:53:07.000Z</time>
      </trkpt>
      <trkpt lat="46.33462" lon="-1.31379">
        <ele>3.6</ele>
        <time>2021-06-17T10:53:08.000Z</time>
      </trkpt>
      <trkpt lat="46.33463" lon="-1.3138">
        <ele>3.6</ele>
        <time>2021-06-17T10:53:09.000Z</time>
      </trkpt>
      <trkpt lat="46.33463" lon="-1.31381">
        <ele>3.6</ele>
        <time>2021-06-17T10:53:10.000Z</time>
      </trkpt>
      <trkpt lat="46.33464" lon="-1.31382">
        <ele>3.6</ele>
        <time>2021-06-17T10:53:11.000Z</time>
      </trkpt>
      <trkpt lat="46.33465" lon="-1.31384">
        <ele>3.6</ele>
        <time>2021-06-17T10:53:12.000Z</time>
      </trkpt>
      <trkpt lat="46.33465" lon="-1.31386">
        <ele>3.6</ele>
        <time>2021-06-17T10:53:13.000Z</time>
      </trkpt>
      <trkpt lat="46.33466" lon="-1.31388">
        <ele>3.6</ele>
        <time>2021-06-17T10:53:14.000Z</time>
      </trkpt>
      <trkpt lat="46.33467" lon="-1.31389">
        <ele>3.7</ele>
        <time>2021-06-17T10:53:15.000Z</time>
      </trkpt>
      <trkpt lat="46.33467" lon="-1.31391">
        <ele>3.7</ele>
        <time>2021-06-17T10:53:16.000Z</time>
      </trkpt>
      <trkpt lat="46.33468" lon="-1.31392">
        <ele>3.7</ele>
        <time>2021-06-17T10:53:17.000Z</time>
      </trkpt>
      <trkpt lat="46.33468" lon="-1.31394">
        <ele>3.7</ele>
        <time>2021-06-17T10:53:18.000Z</time>
      </trkpt>
      <trkpt lat="46.33469" lon="-1.31395">
        <ele>3.7</ele>
        <time>2021-06-17T10:53:19.000Z</time>
      </trkpt>
      <trkpt lat="46.33469" lon="-1.31395">
        <ele>3.7</ele>
        <time>2021-06-17T10:53:20.000Z</time>
      </trkpt>
      <trkpt lat="46.33469" lon="-1.31396">
        <ele>3.7</ele>
        <time>2021-06-17T10:53:21.000Z</time>
      </trkpt>
      <trkpt lat="46.33469" lon="-1.31397">
        <ele>3.7</ele>
        <time>2021-06-17T10:53:22.000Z</time>
      </trkpt>
      <trkpt lat="46.3347" lon="-1.31398">
        <ele>3.7</ele>
        <time>2021-06-17T10:53:23.000Z</time>
      </trkpt>
      <trkpt lat="46.3347" lon="-1.31399">
        <ele>3.7</ele>
        <time>2021-06-17T10:53:24.000Z</time>
      </trkpt>
      <trkpt lat="46.33471" lon="-1.31401">
        <ele>3.7</ele>
        <time>2021-06-17T10:53:25.000Z</time>
      </trkpt>
      <trkpt lat="46.33472" lon="-1.31403">
        <ele>3.8</ele>
        <time>2021-06-17T10:53:26.000Z</time>
      </trkpt>
      <trkpt lat="46.33473" lon="-1.31404">
        <ele>3.8</ele>
        <time>2021-06-17T10:53:27.000Z</time>
      </trkpt>
      <trkpt lat="46.33474" lon="-1.31406">
        <ele>3.8</ele>
        <time>2021-06-17T10:53:28.000Z</time>
      </trkpt>
      <trkpt lat="46.33475" lon="-1.31408">
        <ele>3.9</ele>
        <time>2021-06-17T10:53:29.000Z</time>
      </trkpt>
      <trkpt lat="46.33476" lon="-1.3141">
        <ele>3.9</ele>
        <time>2021-06-17T10:53:30.000Z</time>
      </trkpt>
      <trkpt lat="46.33477" lon="-1.31412">
        <ele>3.9</ele>
        <time>2021-06-17T10:53:31.000Z</time>
      </trkpt>
      <trkpt lat="46.33478" lon="-1.31414">
        <ele>3.9</ele>
        <time>2021-06-17T10:53:32.000Z</time>
      </trkpt>
      <trkpt lat="46.33478" lon="-1.31416">
        <ele>4</ele>
        <time>2021-06-17T10:53:33.000Z</time>
      </trkpt>
      <trkpt lat="46.33479" lon="-1.31417">
        <ele>4</ele>
        <time>2021-06-17T10:53:34.000Z</time>
      </trkpt>
      <trkpt lat="46.3348" lon="-1.31419">
        <ele>4</ele>
        <time>2021-06-17T10:53:35.000Z</time>
      </trkpt>
      <trkpt lat="46.3348" lon="-1.31421">
        <ele>3.9</ele>
        <time>2021-06-17T10:53:36.000Z</time>
      </trkpt>
      <trkpt lat="46.33481" lon="-1.31422">
        <ele>3.9</ele>
        <time>2021-06-17T10:53:37.000Z</time>
      </trkpt>
      <trkpt lat="46.33482" lon="-1.31424">
        <ele>3.9</ele>
        <time>2021-06-17T10:53:38.000Z</time>
      </trkpt>
      <trkpt lat="46.33482" lon="-1.31425">
        <ele>3.9</ele>
        <time>2021-06-17T10:53:39.000Z</time>
      </trkpt>
      <trkpt lat="46.33483" lon="-1.31427">
        <ele>3.9</ele>
        <time>2021-06-17T10:53:40.000Z</time>
      </trkpt>
      <trkpt lat="46.33483" lon="-1.31428">
        <ele>3.9</ele>
        <time>2021-06-17T10:53:41.000Z</time>
      </trkpt>
      <trkpt lat="46.33484" lon="-1.3143">
        <ele>3.8</ele>
        <time>2021-06-17T10:53:42.000Z</time>
      </trkpt>
      <trkpt lat="46.33485" lon="-1.31431">
        <ele>3.8</ele>
        <time>2021-06-17T10:53:43.000Z</time>
      </trkpt>
      <trkpt lat="46.33485" lon="-1.31433">
        <ele>3.8</ele>
        <time>2021-06-17T10:53:44.000Z</time>
      </trkpt>
      <trkpt lat="46.33486" lon="-1.31434">
        <ele>3.8</ele>
        <time>2021-06-17T10:53:45.000Z</time>
      </trkpt>
      <trkpt lat="46.33487" lon="-1.31435">
        <ele>3.8</ele>
        <time>2021-06-17T10:53:46.000Z</time>
      </trkpt>
      <trkpt lat="46.33487" lon="-1.31436">
        <ele>3.8</ele>
        <time>2021-06-17T10:53:47.000Z</time>
      </trkpt>
      <trkpt lat="46.33488" lon="-1.31438">
        <ele>3.8</ele>
        <time>2021-06-17T10:53:48.000Z</time>
      </trkpt>
      <trkpt lat="46.33489" lon="-1.31439">
        <ele>3.8</ele>
        <time>2021-06-17T10:53:49.000Z</time>
      </trkpt>
      <trkpt lat="46.3349" lon="-1.3144">
        <ele>3.8</ele>
        <time>2021-06-17T10:53:50.000Z</time>
      </trkpt>
      <trkpt lat="46.33491" lon="-1.31441">
        <ele>3.8</ele>
        <time>2021-06-17T10:53:51.000Z</time>
      </trkpt>
      <trkpt lat="46.33491" lon="-1.31442">
        <ele>3.8</ele>
        <time>2021-06-17T10:53:52.000Z</time>
      </trkpt>
      <trkpt lat="46.33492" lon="-1.31444">
        <ele>3.7</ele>
        <time>2021-06-17T10:53:53.000Z</time>
      </trkpt>
      <trkpt lat="46.33493" lon="-1.31445">
        <ele>3.7</ele>
        <time>2021-06-17T10:53:54.000Z</time>
      </trkpt>
      <trkpt lat="46.33494" lon="-1.31446">
        <ele>3.7</ele>
        <time>2021-06-17T10:53:55.000Z</time>
      </trkpt>
      <trkpt lat="46.33494" lon="-1.31447">
        <ele>3.7</ele>
        <time>2021-06-17T10:53:56.000Z</time>
      </trkpt>
      <trkpt lat="46.33495" lon="-1.31449">
        <ele>3.7</ele>
        <time>2021-06-17T10:53:57.000Z</time>
      </trkpt>
      <trkpt lat="46.33495" lon="-1.3145">
        <ele>3.6</ele>
        <time>2021-06-17T10:53:58.000Z</time>
      </trkpt>
      <trkpt lat="46.33496" lon="-1.31451">
        <ele>3.6</ele>
        <time>2021-06-17T10:53:59.000Z</time>
      </trkpt>
      <trkpt lat="46.33497" lon="-1.31452">
        <ele>3.6</ele>
        <time>2021-06-17T10:54:00.000Z</time>
      </trkpt>
      <trkpt lat="46.33497" lon="-1.31453">
        <ele>3.6</ele>
        <time>2021-06-17T10:54:01.000Z</time>
      </trkpt>
      <trkpt lat="46.33498" lon="-1.31454">
        <ele>3.6</ele>
        <time>2021-06-17T10:54:02.000Z</time>
      </trkpt>
      <trkpt lat="46.33498" lon="-1.31454">
        <ele>3.6</ele>
        <time>2021-06-17T10:54:03.000Z</time>
      </trkpt>
      <trkpt lat="46.33499" lon="-1.31454">
        <ele>3.6</ele>
        <time>2021-06-17T10:54:04.000Z</time>
      </trkpt>
      <trkpt lat="46.33499" lon="-1.31453">
        <ele>3.7</ele>
        <time>2021-06-17T10:54:05.000Z</time>
      </trkpt>
      <trkpt lat="46.335" lon="-1.31452">
        <ele>3.7</ele>
        <time>2021-06-17T10:54:06.000Z</time>
      </trkpt>
      <trkpt lat="46.335" lon="-1.31452">
        <ele>3.8</ele>
        <time>2021-06-17T10:54:07.000Z</time>
      </trkpt>
      <trkpt lat="46.33501" lon="-1.31451">
        <ele>3.8</ele>
        <time>2021-06-17T10:54:08.000Z</time>
      </trkpt>
      <trkpt lat="46.33501" lon="-1.31451">
        <ele>3.8</ele>
        <time>2021-06-17T10:54:09.000Z</time>
      </trkpt>
      <trkpt lat="46.33501" lon="-1.31451">
        <ele>3.8</ele>
        <time>2021-06-17T10:54:10.000Z</time>
      </trkpt>
      <trkpt lat="46.33501" lon="-1.31451">
        <ele>3.8</ele>
        <time>2021-06-17T10:54:11.000Z</time>
      </trkpt>
      <trkpt lat="46.33502" lon="-1.3145">
        <ele>3.8</ele>
        <time>2021-06-17T10:54:12.000Z</time>
      </trkpt>
      <trkpt lat="46.33503" lon="-1.31449">
        <ele>3.9</ele>
        <time>2021-06-17T10:54:13.000Z</time>
      </trkpt>
      <trkpt lat="46.33504" lon="-1.31447">
        <ele>4</ele>
        <time>2021-06-17T10:54:14.000Z</time>
      </trkpt>
      <trkpt lat="46.33505" lon="-1.31446">
        <ele>4</ele>
        <time>2021-06-17T10:54:15.000Z</time>
      </trkpt>
      <trkpt lat="46.33506" lon="-1.31445">
        <ele>4.1</ele>
        <time>2021-06-17T10:54:16.000Z</time>
      </trkpt>
      <trkpt lat="46.33507" lon="-1.31444">
        <ele>4.1</ele>
        <time>2021-06-17T10:54:17.000Z</time>
      </trkpt>
      <trkpt lat="46.33508" lon="-1.31443">
        <ele>4.2</ele>
        <time>2021-06-17T10:54:18.000Z</time>
      </trkpt>
      <trkpt lat="46.33509" lon="-1.31442">
        <ele>4.2</ele>
        <time>2021-06-17T10:54:19.000Z</time>
      </trkpt>
      <trkpt lat="46.3351" lon="-1.31441">
        <ele>4.3</ele>
        <time>2021-06-17T10:54:20.000Z</time>
      </trkpt>
      <trkpt lat="46.33511" lon="-1.3144">
        <ele>4.3</ele>
        <time>2021-06-17T10:54:21.000Z</time>
      </trkpt>
      <trkpt lat="46.33512" lon="-1.31439">
        <ele>4.4</ele>
        <time>2021-06-17T10:54:22.000Z</time>
      </trkpt>
      <trkpt lat="46.33513" lon="-1.31438">
        <ele>4.4</ele>
        <time>2021-06-17T10:54:23.000Z</time>
      </trkpt>
      <trkpt lat="46.33514" lon="-1.31437">
        <ele>4.5</ele>
        <time>2021-06-17T10:54:24.000Z</time>
      </trkpt>
      <trkpt lat="46.33515" lon="-1.31436">
        <ele>4.5</ele>
        <time>2021-06-17T10:54:25.000Z</time>
      </trkpt>
      <trkpt lat="46.33516" lon="-1.31435">
        <ele>4.6</ele>
        <time>2021-06-17T10:54:26.000Z</time>
      </trkpt>
      <trkpt lat="46.33517" lon="-1.31434">
        <ele>4.6</ele>
        <time>2021-06-17T10:54:27.000Z</time>
      </trkpt>
      <trkpt lat="46.33517" lon="-1.31433">
        <ele>4.7</ele>
        <time>2021-06-17T10:54:28.000Z</time>
      </trkpt>
      <trkpt lat="46.33518" lon="-1.31432">
        <ele>4.7</ele>
        <time>2021-06-17T10:54:29.000Z</time>
      </trkpt>
      <trkpt lat="46.33519" lon="-1.31431">
        <ele>4.8</ele>
        <time>2021-06-17T10:54:30.000Z</time>
      </trkpt>
      <trkpt lat="46.33519" lon="-1.31429">
        <ele>4.8</ele>
        <time>2021-06-17T10:54:31.000Z</time>
      </trkpt>
      <trkpt lat="46.3352" lon="-1.31428">
        <ele>4.9</ele>
        <time>2021-06-17T10:54:32.000Z</time>
      </trkpt>
      <trkpt lat="46.33521" lon="-1.31427">
        <ele>4.9</ele>
        <time>2021-06-17T10:54:33.000Z</time>
      </trkpt>
      <trkpt lat="46.33521" lon="-1.31426">
        <ele>4.9</ele>
        <time>2021-06-17T10:54:34.000Z</time>
      </trkpt>
      <trkpt lat="46.33522" lon="-1.31425">
        <ele>5</ele>
        <time>2021-06-17T10:54:35.000Z</time>
      </trkpt>
      <trkpt lat="46.33523" lon="-1.31424">
        <ele>5</ele>
        <time>2021-06-17T10:54:36.000Z</time>
      </trkpt>
      <trkpt lat="46.33524" lon="-1.31423">
        <ele>5.1</ele>
        <time>2021-06-17T10:54:37.000Z</time>
      </trkpt>
      <trkpt lat="46.33525" lon="-1.31422">
        <ele>5.1</ele>
        <time>2021-06-17T10:54:38.000Z</time>
      </trkpt>
      <trkpt lat="46.33525" lon="-1.31422">
        <ele>5.1</ele>
        <time>2021-06-17T10:54:39.000Z</time>
      </trkpt>
      <trkpt lat="46.33526" lon="-1.31421">
        <ele>5.2</ele>
        <time>2021-06-17T10:54:40.000Z</time>
      </trkpt>
      <trkpt lat="46.33527" lon="-1.3142">
        <ele>5.2</ele>
        <time>2021-06-17T10:54:41.000Z</time>
      </trkpt>
      <trkpt lat="46.33528" lon="-1.3142">
        <ele>5.2</ele>
        <time>2021-06-17T10:54:42.000Z</time>
      </trkpt>
      <trkpt lat="46.33528" lon="-1.31419">
        <ele>5.3</ele>
        <time>2021-06-17T10:54:43.000Z</time>
      </trkpt>
      <trkpt lat="46.33529" lon="-1.31419">
        <ele>5.3</ele>
        <time>2021-06-17T10:54:44.000Z</time>
      </trkpt>
      <trkpt lat="46.33529" lon="-1.31418">
        <ele>5.3</ele>
        <time>2021-06-17T10:54:45.000Z</time>
      </trkpt>
      <trkpt lat="46.3353" lon="-1.31418">
        <ele>5.3</ele>
        <time>2021-06-17T10:54:46.000Z</time>
      </trkpt>
      <trkpt lat="46.3353" lon="-1.31417">
        <ele>5.3</ele>
        <time>2021-06-17T10:54:47.000Z</time>
      </trkpt>
      <trkpt lat="46.33531" lon="-1.31417">
        <ele>5.4</ele>
        <time>2021-06-17T10:54:48.000Z</time>
      </trkpt>
      <trkpt lat="46.33531" lon="-1.31417">
        <ele>5.4</ele>
        <time>2021-06-17T10:54:49.000Z</time>
      </trkpt>
      <trkpt lat="46.33531" lon="-1.31417">
        <ele>5.4</ele>
        <time>2021-06-17T10:54:50.000Z</time>
      </trkpt>
      <trkpt lat="46.33531" lon="-1.31417">
        <ele>5.4</ele>
        <time>2021-06-17T10:54:51.000Z</time>
      </trkpt>
      <trkpt lat="46.33532" lon="-1.31416">
        <ele>5.4</ele>
        <time>2021-06-17T10:54:52.000Z</time>
      </trkpt>
      <trkpt lat="46.33532" lon="-1.31416">
        <ele>5.4</ele>
        <time>2021-06-17T10:54:53.000Z</time>
      </trkpt>
      <trkpt lat="46.33532" lon="-1.31416">
        <ele>5.4</ele>
        <time>2021-06-17T10:54:54.000Z</time>
      </trkpt>
      <trkpt lat="46.33532" lon="-1.31416">
        <ele>5.4</ele>
        <time>2021-06-17T10:54:55.000Z</time>
      </trkpt>
      <trkpt lat="46.33532" lon="-1.31416">
        <ele>5.4</ele>
        <time>2021-06-17T10:54:56.000Z</time>
      </trkpt>
      <trkpt lat="46.33532" lon="-1.31416">
        <ele>5.4</ele>
        <time>2021-06-17T10:54:57.000Z</time>
      </trkpt>
      <trkpt lat="46.33532" lon="-1.31416">
        <ele>5.4</ele>
        <time>2021-06-17T10:54:58.000Z</time>
      </trkpt>
      <trkpt lat="46.33532" lon="-1.31416">
        <ele>5.4</ele>
        <time>2021-06-17T10:54:59.000Z</time>
      </trkpt>
      <trkpt lat="46.33532" lon="-1.31416">
        <ele>5.4</ele>
        <time>2021-06-17T10:55:00.000Z</time>
      </trkpt>
      <trkpt lat="46.33532" lon="-1.31416">
        <ele>5.4</ele>
        <time>2021-06-17T10:55:01.000Z</time>
      </trkpt>
      <trkpt lat="46.33532" lon="-1.31416">
        <ele>5.4</ele>
        <time>2021-06-17T10:55:02.000Z</time>
      </trkpt>
      <trkpt lat="46.33532" lon="-1.31416">
        <ele>5.4</ele>
        <time>2021-06-17T10:55:03.000Z</time>
      </trkpt>
      <trkpt lat="46.33532" lon="-1.31416">
        <ele>5.4</ele>
        <time>2021-06-17T10:55:04.000Z</time>
      </trkpt>
      <trkpt lat="46.33532" lon="-1.31416">
        <ele>5.4</ele>
        <time>2021-06-17T10:55:05.000Z</time>
      </trkpt>
      <trkpt lat="46.33532" lon="-1.31416">
        <ele>5.4</ele>
        <time>2021-06-17T10:55:06.000Z</time>
      </trkpt>
      <trkpt lat="46.33532" lon="-1.31416">
        <ele>5.4</ele>
        <time>2021-06-17T10:55:07.000Z</time>
      </trkpt>
      <trkpt lat="46.33532" lon="-1.31416">
        <ele>5.4</ele>
        <time>2021-06-17T10:55:08.000Z</time>
      </trkpt>
      <trkpt lat="46.33532" lon="-1.31416">
        <ele>5.4</ele>
        <time>2021-06-17T10:55:09.000Z</time>
      </trkpt>
      <trkpt lat="46.33532" lon="-1.31416">
        <ele>5.4</ele>
        <time>2021-06-17T10:55:10.000Z</time>
      </trkpt>
      <trkpt lat="46.33532" lon="-1.31416">
        <ele>5.4</ele>
        <time>2021-06-17T10:55:11.000Z</time>
      </trkpt>
      <trkpt lat="46.33532" lon="-1.31416">
        <ele>5.4</ele>
        <time>2021-06-17T10:55:12.000Z</time>
      </trkpt>
      <trkpt lat="46.33532" lon="-1.31416">
        <ele>5.4</ele>
        <time>2021-06-17T10:55:13.000Z</time>
      </trkpt>
      <trkpt lat="46.33532" lon="-1.31416">
        <ele>5.4</ele>
        <time>2021-06-17T10:55:14.000Z</time>
      </trkpt>
      <trkpt lat="46.33532" lon="-1.31416">
        <ele>5.4</ele>
        <time>2021-06-17T10:55:15.000Z</time>
      </trkpt>
      <trkpt lat="46.33532" lon="-1.31416">
        <ele>5.4</ele>
        <time>2021-06-17T10:55:16.000Z</time>
      </trkpt>
      <trkpt lat="46.33532" lon="-1.31416">
        <ele>5.4</ele>
        <time>2021-06-17T10:55:17.000Z</time>
      </trkpt>
      <trkpt lat="46.33532" lon="-1.31416">
        <ele>5.4</ele>
        <time>2021-06-17T10:55:18.000Z</time>
      </trkpt>
      <trkpt lat="46.33532" lon="-1.31416">
        <ele>5.4</ele>
        <time>2021-06-17T10:55:19.000Z</time>
      </trkpt>
      <trkpt lat="46.33532" lon="-1.31416">
        <ele>5.4</ele>
        <time>2021-06-17T10:55:20.000Z</time>
      </trkpt>
      <trkpt lat="46.33532" lon="-1.31417">
        <ele>5.4</ele>
        <time>2021-06-17T10:55:21.000Z</time>
      </trkpt>
      <trkpt lat="46.33532" lon="-1.31417">
        <ele>5.4</ele>
        <time>2021-06-17T10:55:22.000Z</time>
      </trkpt>
      <trkpt lat="46.33532" lon="-1.31417">
        <ele>5.4</ele>
        <time>2021-06-17T10:55:23.000Z</time>
      </trkpt>
      <trkpt lat="46.33532" lon="-1.31417">
        <ele>5.4</ele>
        <time>2021-06-17T10:55:24.000Z</time>
      </trkpt>
      <trkpt lat="46.33532" lon="-1.31417">
        <ele>5.4</ele>
        <time>2021-06-17T10:55:25.000Z</time>
      </trkpt>
      <trkpt lat="46.33531" lon="-1.31418">
        <ele>5.3</ele>
        <time>2021-06-17T10:55:26.000Z</time>
      </trkpt>
      <trkpt lat="46.33531" lon="-1.31418">
        <ele>5.3</ele>
        <time>2021-06-17T10:55:27.000Z</time>
      </trkpt>
      <trkpt lat="46.33531" lon="-1.31418">
        <ele>5.3</ele>
        <time>2021-06-17T10:55:28.000Z</time>
      </trkpt>
      <trkpt lat="46.33531" lon="-1.31419">
        <ele>5.3</ele>
        <time>2021-06-17T10:55:29.000Z</time>
      </trkpt>
      <trkpt lat="46.33531" lon="-1.31419">
        <ele>5.3</ele>
        <time>2021-06-17T10:55:30.000Z</time>
      </trkpt>
      <trkpt lat="46.33531" lon="-1.31419">
        <ele>5.3</ele>
        <time>2021-06-17T10:55:31.000Z</time>
      </trkpt>
      <trkpt lat="46.33531" lon="-1.3142">
        <ele>5.3</ele>
        <time>2021-06-17T10:55:32.000Z</time>
      </trkpt>
      <trkpt lat="46.33531" lon="-1.3142">
        <ele>5.3</ele>
        <time>2021-06-17T10:55:33.000Z</time>
      </trkpt>
      <trkpt lat="46.3353" lon="-1.3142">
        <ele>5.3</ele>
        <time>2021-06-17T10:55:34.000Z</time>
      </trkpt>
      <trkpt lat="46.3353" lon="-1.3142">
        <ele>5.3</ele>
        <time>2021-06-17T10:55:35.000Z</time>
      </trkpt>
      <trkpt lat="46.3353" lon="-1.3142">
        <ele>5.3</ele>
        <time>2021-06-17T10:55:36.000Z</time>
      </trkpt>
      <trkpt lat="46.3353" lon="-1.3142">
        <ele>5.3</ele>
        <time>2021-06-17T10:55:37.000Z</time>
      </trkpt>
      <trkpt lat="46.3353" lon="-1.3142">
        <ele>5.3</ele>
        <time>2021-06-17T10:55:38.000Z</time>
      </trkpt>
      <trkpt lat="46.3353" lon="-1.3142">
        <ele>5.3</ele>
        <time>2021-06-17T10:55:39.000Z</time>
      </trkpt>
      <trkpt lat="46.3353" lon="-1.3142">
        <ele>5.3</ele>
        <time>2021-06-17T10:55:40.000Z</time>
      </trkpt>
      <trkpt lat="46.3353" lon="-1.3142">
        <ele>5.3</ele>
        <time>2021-06-17T10:55:41.000Z</time>
      </trkpt>
      <trkpt lat="46.3353" lon="-1.3142">
        <ele>5.2</ele>
        <time>2021-06-17T10:55:42.000Z</time>
      </trkpt>
      <trkpt lat="46.3353" lon="-1.3142">
        <ele>5.2</ele>
        <time>2021-06-17T10:55:43.000Z</time>
      </trkpt>
      <trkpt lat="46.3353" lon="-1.3142">
        <ele>5.2</ele>
        <time>2021-06-17T10:55:44.000Z</time>
      </trkpt>
      <trkpt lat="46.3353" lon="-1.31421">
        <ele>5.2</ele>
        <time>2021-06-17T10:55:45.000Z</time>
      </trkpt>
      <trkpt lat="46.33529" lon="-1.31421">
        <ele>5.2</ele>
        <time>2021-06-17T10:55:46.000Z</time>
      </trkpt>
      <trkpt lat="46.33529" lon="-1.31421">
        <ele>5.2</ele>
        <time>2021-06-17T10:55:47.000Z</time>
      </trkpt>
      <trkpt lat="46.33529" lon="-1.31421">
        <ele>5.2</ele>
        <time>2021-06-17T10:55:48.000Z</time>
      </trkpt>
      <trkpt lat="46.33528" lon="-1.31422">
        <ele>5.2</ele>
        <time>2021-06-17T10:55:49.000Z</time>
      </trkpt>
      <trkpt lat="46.33528" lon="-1.31422">
        <ele>5.2</ele>
        <time>2021-06-17T10:55:50.000Z</time>
      </trkpt>
      <trkpt lat="46.33528" lon="-1.31423">
        <ele>5.1</ele>
        <time>2021-06-17T10:55:51.000Z</time>
      </trkpt>
      <trkpt lat="46.33527" lon="-1.31424">
        <ele>5.1</ele>
        <time>2021-06-17T10:55:52.000Z</time>
      </trkpt>
      <trkpt lat="46.33527" lon="-1.31424">
        <ele>5.1</ele>
        <time>2021-06-17T10:55:53.000Z</time>
      </trkpt>
      <trkpt lat="46.33527" lon="-1.31425">
        <ele>5</ele>
        <time>2021-06-17T10:55:54.000Z</time>
      </trkpt>
      <trkpt lat="46.33526" lon="-1.31426">
        <ele>5</ele>
        <time>2021-06-17T10:55:55.000Z</time>
      </trkpt>
      <trkpt lat="46.33526" lon="-1.31427">
        <ele>5</ele>
        <time>2021-06-17T10:55:56.000Z</time>
      </trkpt>
      <trkpt lat="46.33526" lon="-1.31429">
        <ele>4.9</ele>
        <time>2021-06-17T10:55:57.000Z</time>
      </trkpt>
      <trkpt lat="46.33525" lon="-1.3143">
        <ele>4.9</ele>
        <time>2021-06-17T10:55:58.000Z</time>
      </trkpt>
      <trkpt lat="46.33525" lon="-1.31431">
        <ele>4.8</ele>
        <time>2021-06-17T10:55:59.000Z</time>
      </trkpt>
      <trkpt lat="46.33525" lon="-1.31433">
        <ele>4.8</ele>
        <time>2021-06-17T10:56:00.000Z</time>
      </trkpt>
      <trkpt lat="46.33525" lon="-1.31434">
        <ele>4.7</ele>
        <time>2021-06-17T10:56:01.000Z</time>
      </trkpt>
      <trkpt lat="46.33525" lon="-1.31435">
        <ele>4.7</ele>
        <time>2021-06-17T10:56:02.000Z</time>
      </trkpt>
      <trkpt lat="46.33525" lon="-1.31437">
        <ele>4.6</ele>
        <time>2021-06-17T10:56:03.000Z</time>
      </trkpt>
      <trkpt lat="46.33525" lon="-1.31438">
        <ele>4.6</ele>
        <time>2021-06-17T10:56:04.000Z</time>
      </trkpt>
      <trkpt lat="46.33525" lon="-1.3144">
        <ele>4.5</ele>
        <time>2021-06-17T10:56:05.000Z</time>
      </trkpt>
      <trkpt lat="46.33525" lon="-1.31441">
        <ele>4.5</ele>
        <time>2021-06-17T10:56:06.000Z</time>
      </trkpt>
      <trkpt lat="46.33525" lon="-1.31443">
        <ele>4.5</ele>
        <time>2021-06-17T10:56:07.000Z</time>
      </trkpt>
      <trkpt lat="46.33525" lon="-1.31444">
        <ele>4.4</ele>
        <time>2021-06-17T10:56:08.000Z</time>
      </trkpt>
      <trkpt lat="46.33525" lon="-1.31446">
        <ele>4.4</ele>
        <time>2021-06-17T10:56:09.000Z</time>
      </trkpt>
      <trkpt lat="46.33525" lon="-1.31447">
        <ele>4.3</ele>
        <time>2021-06-17T10:56:10.000Z</time>
      </trkpt>
      <trkpt lat="46.33525" lon="-1.31449">
        <ele>4.3</ele>
        <time>2021-06-17T10:56:11.000Z</time>
      </trkpt>
      <trkpt lat="46.33525" lon="-1.31451">
        <ele>4.2</ele>
        <time>2021-06-17T10:56:12.000Z</time>
      </trkpt>
      <trkpt lat="46.33525" lon="-1.31452">
        <ele>4.2</ele>
        <time>2021-06-17T10:56:13.000Z</time>
      </trkpt>
      <trkpt lat="46.33525" lon="-1.31454">
        <ele>4.1</ele>
        <time>2021-06-17T10:56:14.000Z</time>
      </trkpt>
      <trkpt lat="46.33525" lon="-1.31455">
        <ele>4.1</ele>
        <time>2021-06-17T10:56:15.000Z</time>
      </trkpt>
      <trkpt lat="46.33525" lon="-1.31457">
        <ele>4</ele>
        <time>2021-06-17T10:56:16.000Z</time>
      </trkpt>
      <trkpt lat="46.33526" lon="-1.31459">
        <ele>4</ele>
        <time>2021-06-17T10:56:17.000Z</time>
      </trkpt>
      <trkpt lat="46.33526" lon="-1.3146">
        <ele>3.9</ele>
        <time>2021-06-17T10:56:18.000Z</time>
      </trkpt>
      <trkpt lat="46.33526" lon="-1.31462">
        <ele>3.9</ele>
        <time>2021-06-17T10:56:19.000Z</time>
      </trkpt>
      <trkpt lat="46.33526" lon="-1.31463">
        <ele>3.8</ele>
        <time>2021-06-17T10:56:20.000Z</time>
      </trkpt>
      <trkpt lat="46.33527" lon="-1.31465">
        <ele>3.8</ele>
        <time>2021-06-17T10:56:21.000Z</time>
      </trkpt>
      <trkpt lat="46.33527" lon="-1.31467">
        <ele>3.7</ele>
        <time>2021-06-17T10:56:22.000Z</time>
      </trkpt>
      <trkpt lat="46.33527" lon="-1.31468">
        <ele>3.7</ele>
        <time>2021-06-17T10:56:23.000Z</time>
      </trkpt>
      <trkpt lat="46.33528" lon="-1.3147">
        <ele>3.6</ele>
        <time>2021-06-17T10:56:24.000Z</time>
      </trkpt>
      <trkpt lat="46.33528" lon="-1.31472">
        <ele>3.6</ele>
        <time>2021-06-17T10:56:25.000Z</time>
      </trkpt>
      <trkpt lat="46.33528" lon="-1.31473">
        <ele>3.5</ele>
        <time>2021-06-17T10:56:26.000Z</time>
      </trkpt>
      <trkpt lat="46.33528" lon="-1.31475">
        <ele>3.5</ele>
        <time>2021-06-17T10:56:27.000Z</time>
      </trkpt>
      <trkpt lat="46.33528" lon="-1.31477">
        <ele>3.4</ele>
        <time>2021-06-17T10:56:28.000Z</time>
      </trkpt>
      <trkpt lat="46.33528" lon="-1.31479">
        <ele>3.4</ele>
        <time>2021-06-17T10:56:29.000Z</time>
      </trkpt>
      <trkpt lat="46.33528" lon="-1.3148">
        <ele>3.3</ele>
        <time>2021-06-17T10:56:30.000Z</time>
      </trkpt>
      <trkpt lat="46.33528" lon="-1.31482">
        <ele>3.2</ele>
        <time>2021-06-17T10:56:31.000Z</time>
      </trkpt>
      <trkpt lat="46.33528" lon="-1.31484">
        <ele>3.2</ele>
        <time>2021-06-17T10:56:32.000Z</time>
      </trkpt>
      <trkpt lat="46.33528" lon="-1.31486">
        <ele>3.1</ele>
        <time>2021-06-17T10:56:33.000Z</time>
      </trkpt>
      <trkpt lat="46.33528" lon="-1.31487">
        <ele>3.1</ele>
        <time>2021-06-17T10:56:34.000Z</time>
      </trkpt>
      <trkpt lat="46.33528" lon="-1.31489">
        <ele>3</ele>
        <time>2021-06-17T10:56:35.000Z</time>
      </trkpt>
      <trkpt lat="46.33528" lon="-1.31491">
        <ele>3</ele>
        <time>2021-06-17T10:56:36.000Z</time>
      </trkpt>
      <trkpt lat="46.33528" lon="-1.31493">
        <ele>2.9</ele>
        <time>2021-06-17T10:56:37.000Z</time>
      </trkpt>
      <trkpt lat="46.33527" lon="-1.31495">
        <ele>2.8</ele>
        <time>2021-06-17T10:56:38.000Z</time>
      </trkpt>
      <trkpt lat="46.33527" lon="-1.31496">
        <ele>2.8</ele>
        <time>2021-06-17T10:56:39.000Z</time>
      </trkpt>
      <trkpt lat="46.33527" lon="-1.31498">
        <ele>2.7</ele>
        <time>2021-06-17T10:56:40.000Z</time>
      </trkpt>
      <trkpt lat="46.33527" lon="-1.315">
        <ele>2.7</ele>
        <time>2021-06-17T10:56:41.000Z</time>
      </trkpt>
      <trkpt lat="46.33527" lon="-1.31502">
        <ele>2.6</ele>
        <time>2021-06-17T10:56:42.000Z</time>
      </trkpt>
      <trkpt lat="46.33527" lon="-1.31503">
        <ele>2.6</ele>
        <time>2021-06-17T10:56:43.000Z</time>
      </trkpt>
      <trkpt lat="46.33526" lon="-1.31505">
        <ele>2.6</ele>
        <time>2021-06-17T10:56:44.000Z</time>
      </trkpt>
      <trkpt lat="46.33526" lon="-1.31507">
        <ele>2.5</ele>
        <time>2021-06-17T10:56:45.000Z</time>
      </trkpt>
      <trkpt lat="46.33526" lon="-1.31509">
        <ele>2.5</ele>
        <time>2021-06-17T10:56:46.000Z</time>
      </trkpt>
      <trkpt lat="46.33526" lon="-1.31511">
        <ele>2.5</ele>
        <time>2021-06-17T10:56:47.000Z</time>
      </trkpt>
      <trkpt lat="46.33526" lon="-1.31512">
        <ele>2.4</ele>
        <time>2021-06-17T10:56:48.000Z</time>
      </trkpt>
      <trkpt lat="46.33525" lon="-1.31514">
        <ele>2.4</ele>
        <time>2021-06-17T10:56:49.000Z</time>
      </trkpt>
      <trkpt lat="46.33525" lon="-1.31516">
        <ele>2.4</ele>
        <time>2021-06-17T10:56:50.000Z</time>
      </trkpt>
      <trkpt lat="46.33525" lon="-1.31518">
        <ele>2.3</ele>
        <time>2021-06-17T10:56:51.000Z</time>
      </trkpt>
      <trkpt lat="46.33525" lon="-1.3152">
        <ele>2.3</ele>
        <time>2021-06-17T10:56:52.000Z</time>
      </trkpt>
      <trkpt lat="46.33525" lon="-1.31521">
        <ele>2.3</ele>
        <time>2021-06-17T10:56:53.000Z</time>
      </trkpt>
      <trkpt lat="46.33524" lon="-1.31523">
        <ele>2.2</ele>
        <time>2021-06-17T10:56:54.000Z</time>
      </trkpt>
      <trkpt lat="46.33524" lon="-1.31525">
        <ele>2.2</ele>
        <time>2021-06-17T10:56:55.000Z</time>
      </trkpt>
      <trkpt lat="46.33524" lon="-1.31527">
        <ele>2.2</ele>
        <time>2021-06-17T10:56:56.000Z</time>
      </trkpt>
      <trkpt lat="46.33524" lon="-1.31528">
        <ele>2.1</ele>
        <time>2021-06-17T10:56:57.000Z</time>
      </trkpt>
      <trkpt lat="46.33524" lon="-1.3153">
        <ele>2.1</ele>
        <time>2021-06-17T10:56:58.000Z</time>
      </trkpt>
      <trkpt lat="46.33524" lon="-1.31531">
        <ele>2.1</ele>
        <time>2021-06-17T10:56:59.000Z</time>
      </trkpt>
      <trkpt lat="46.33524" lon="-1.31532">
        <ele>2.1</ele>
        <time>2021-06-17T10:57:00.000Z</time>
      </trkpt>
      <trkpt lat="46.33524" lon="-1.31534">
        <ele>2.1</ele>
        <time>2021-06-17T10:57:01.000Z</time>
      </trkpt>
      <trkpt lat="46.33525" lon="-1.31535">
        <ele>2</ele>
        <time>2021-06-17T10:57:02.000Z</time>
      </trkpt>
      <trkpt lat="46.33525" lon="-1.31536">
        <ele>2</ele>
        <time>2021-06-17T10:57:03.000Z</time>
      </trkpt>
      <trkpt lat="46.33525" lon="-1.31537">
        <ele>2</ele>
        <time>2021-06-17T10:57:04.000Z</time>
      </trkpt>
      <trkpt lat="46.33525" lon="-1.31538">
        <ele>2</ele>
        <time>2021-06-17T10:57:05.000Z</time>
      </trkpt>
      <trkpt lat="46.33525" lon="-1.3154">
        <ele>2</ele>
        <time>2021-06-17T10:57:06.000Z</time>
      </trkpt>
      <trkpt lat="46.33526" lon="-1.31541">
        <ele>2</ele>
        <time>2021-06-17T10:57:07.000Z</time>
      </trkpt>
      <trkpt lat="46.33526" lon="-1.31543">
        <ele>1.9</ele>
        <time>2021-06-17T10:57:08.000Z</time>
      </trkpt>
      <trkpt lat="46.33526" lon="-1.31544">
        <ele>1.9</ele>
        <time>2021-06-17T10:57:09.000Z</time>
      </trkpt>
      <trkpt lat="46.33526" lon="-1.31546">
        <ele>1.9</ele>
        <time>2021-06-17T10:57:10.000Z</time>
      </trkpt>
      <trkpt lat="46.33526" lon="-1.31547">
        <ele>1.9</ele>
        <time>2021-06-17T10:57:11.000Z</time>
      </trkpt>
      <trkpt lat="46.33526" lon="-1.31549">
        <ele>1.8</ele>
        <time>2021-06-17T10:57:12.000Z</time>
      </trkpt>
      <trkpt lat="46.33525" lon="-1.3155">
        <ele>1.8</ele>
        <time>2021-06-17T10:57:13.000Z</time>
      </trkpt>
      <trkpt lat="46.33525" lon="-1.31552">
        <ele>1.8</ele>
        <time>2021-06-17T10:57:14.000Z</time>
      </trkpt>
      <trkpt lat="46.33524" lon="-1.31554">
        <ele>1.8</ele>
        <time>2021-06-17T10:57:15.000Z</time>
      </trkpt>
      <trkpt lat="46.33524" lon="-1.31555">
        <ele>1.7</ele>
        <time>2021-06-17T10:57:16.000Z</time>
      </trkpt>
      <trkpt lat="46.33523" lon="-1.31557">
        <ele>1.7</ele>
        <time>2021-06-17T10:57:17.000Z</time>
      </trkpt>
      <trkpt lat="46.33522" lon="-1.31558">
        <ele>1.7</ele>
        <time>2021-06-17T10:57:18.000Z</time>
      </trkpt>
      <trkpt lat="46.33522" lon="-1.31559">
        <ele>1.6</ele>
        <time>2021-06-17T10:57:19.000Z</time>
      </trkpt>
      <trkpt lat="46.33521" lon="-1.3156">
        <ele>1.6</ele>
        <time>2021-06-17T10:57:20.000Z</time>
      </trkpt>
      <trkpt lat="46.3352" lon="-1.31562">
        <ele>1.6</ele>
        <time>2021-06-17T10:57:21.000Z</time>
      </trkpt>
      <trkpt lat="46.3352" lon="-1.31562">
        <ele>1.5</ele>
        <time>2021-06-17T10:57:22.000Z</time>
      </trkpt>
      <trkpt lat="46.33519" lon="-1.31563">
        <ele>1.5</ele>
        <time>2021-06-17T10:57:23.000Z</time>
      </trkpt>
      <trkpt lat="46.33519" lon="-1.31564">
        <ele>1.5</ele>
        <time>2021-06-17T10:57:24.000Z</time>
      </trkpt>
      <trkpt lat="46.33519" lon="-1.31565">
        <ele>1.5</ele>
        <time>2021-06-17T10:57:25.000Z</time>
      </trkpt>
      <trkpt lat="46.33518" lon="-1.31566">
        <ele>1.5</ele>
        <time>2021-06-17T10:57:26.000Z</time>
      </trkpt>
      <trkpt lat="46.33517" lon="-1.31567">
        <ele>1.4</ele>
        <time>2021-06-17T10:57:27.000Z</time>
      </trkpt>
      <trkpt lat="46.33516" lon="-1.31569">
        <ele>1.4</ele>
        <time>2021-06-17T10:57:28.000Z</time>
      </trkpt>
      <trkpt lat="46.33515" lon="-1.3157">
        <ele>1.4</ele>
        <time>2021-06-17T10:57:29.000Z</time>
      </trkpt>
      <trkpt lat="46.33515" lon="-1.31572">
        <ele>1.3</ele>
        <time>2021-06-17T10:57:30.000Z</time>
      </trkpt>
      <trkpt lat="46.33514" lon="-1.31574">
        <ele>1.3</ele>
        <time>2021-06-17T10:57:31.000Z</time>
      </trkpt>
      <trkpt lat="46.33514" lon="-1.31576">
        <ele>1.3</ele>
        <time>2021-06-17T10:57:32.000Z</time>
      </trkpt>
      <trkpt lat="46.33513" lon="-1.31578">
        <ele>1.2</ele>
        <time>2021-06-17T10:57:33.000Z</time>
      </trkpt>
      <trkpt lat="46.33512" lon="-1.31579">
        <ele>1.2</ele>
        <time>2021-06-17T10:57:34.000Z</time>
      </trkpt>
      <trkpt lat="46.33512" lon="-1.31581">
        <ele>1.2</ele>
        <time>2021-06-17T10:57:35.000Z</time>
      </trkpt>
      <trkpt lat="46.33511" lon="-1.31582">
        <ele>1.1</ele>
        <time>2021-06-17T10:57:36.000Z</time>
      </trkpt>
      <trkpt lat="46.3351" lon="-1.31584">
        <ele>1.1</ele>
        <time>2021-06-17T10:57:37.000Z</time>
      </trkpt>
      <trkpt lat="46.3351" lon="-1.31585">
        <ele>1.1</ele>
        <time>2021-06-17T10:57:38.000Z</time>
      </trkpt>
      <trkpt lat="46.33509" lon="-1.31586">
        <ele>1.1</ele>
        <time>2021-06-17T10:57:39.000Z</time>
      </trkpt>
      <trkpt lat="46.33508" lon="-1.31587">
        <ele>1.1</ele>
        <time>2021-06-17T10:57:40.000Z</time>
      </trkpt>
      <trkpt lat="46.33507" lon="-1.31589">
        <ele>1.1</ele>
        <time>2021-06-17T10:57:41.000Z</time>
      </trkpt>
      <trkpt lat="46.33506" lon="-1.3159">
        <ele>1.1</ele>
        <time>2021-06-17T10:57:42.000Z</time>
      </trkpt>
      <trkpt lat="46.33505" lon="-1.31591">
        <ele>1.1</ele>
        <time>2021-06-17T10:57:43.000Z</time>
      </trkpt>
      <trkpt lat="46.33504" lon="-1.31592">
        <ele>1</ele>
        <time>2021-06-17T10:57:44.000Z</time>
      </trkpt>
      <trkpt lat="46.33503" lon="-1.31593">
        <ele>1</ele>
        <time>2021-06-17T10:57:45.000Z</time>
      </trkpt>
      <trkpt lat="46.33502" lon="-1.31595">
        <ele>1</ele>
        <time>2021-06-17T10:57:46.000Z</time>
      </trkpt>
      <trkpt lat="46.33501" lon="-1.31596">
        <ele>1</ele>
        <time>2021-06-17T10:57:47.000Z</time>
      </trkpt>
      <trkpt lat="46.33501" lon="-1.31597">
        <ele>1</ele>
        <time>2021-06-17T10:57:48.000Z</time>
      </trkpt>
      <trkpt lat="46.335" lon="-1.31599">
        <ele>1</ele>
        <time>2021-06-17T10:57:49.000Z</time>
      </trkpt>
      <trkpt lat="46.33499" lon="-1.316">
        <ele>1</ele>
        <time>2021-06-17T10:57:50.000Z</time>
      </trkpt>
      <trkpt lat="46.33499" lon="-1.31602">
        <ele>1</ele>
        <time>2021-06-17T10:57:51.000Z</time>
      </trkpt>
      <trkpt lat="46.33498" lon="-1.31603">
        <ele>1</ele>
        <time>2021-06-17T10:57:52.000Z</time>
      </trkpt>
      <trkpt lat="46.33497" lon="-1.31604">
        <ele>1</ele>
        <time>2021-06-17T10:57:53.000Z</time>
      </trkpt>
      <trkpt lat="46.33497" lon="-1.31606">
        <ele>1</ele>
        <time>2021-06-17T10:57:54.000Z</time>
      </trkpt>
      <trkpt lat="46.33496" lon="-1.31608">
        <ele>1</ele>
        <time>2021-06-17T10:57:55.000Z</time>
      </trkpt>
      <trkpt lat="46.33495" lon="-1.31609">
        <ele>1</ele>
        <time>2021-06-17T10:57:56.000Z</time>
      </trkpt>
      <trkpt lat="46.33495" lon="-1.31611">
        <ele>1</ele>
        <time>2021-06-17T10:57:57.000Z</time>
      </trkpt>
      <trkpt lat="46.33494" lon="-1.31612">
        <ele>1</ele>
        <time>2021-06-17T10:57:58.000Z</time>
      </trkpt>
      <trkpt lat="46.33494" lon="-1.31614">
        <ele>1</ele>
        <time>2021-06-17T10:57:59.000Z</time>
      </trkpt>
      <trkpt lat="46.33493" lon="-1.31615">
        <ele>1</ele>
        <time>2021-06-17T10:58:00.000Z</time>
      </trkpt>
      <trkpt lat="46.33492" lon="-1.31617">
        <ele>1</ele>
        <time>2021-06-17T10:58:01.000Z</time>
      </trkpt>
      <trkpt lat="46.33491" lon="-1.31618">
        <ele>1</ele>
        <time>2021-06-17T10:58:02.000Z</time>
      </trkpt>
      <trkpt lat="46.33491" lon="-1.31619">
        <ele>1</ele>
        <time>2021-06-17T10:58:03.000Z</time>
      </trkpt>
      <trkpt lat="46.3349" lon="-1.31621">
        <ele>1</ele>
        <time>2021-06-17T10:58:04.000Z</time>
      </trkpt>
      <trkpt lat="46.33489" lon="-1.31622">
        <ele>1</ele>
        <time>2021-06-17T10:58:05.000Z</time>
      </trkpt>
      <trkpt lat="46.33488" lon="-1.31624">
        <ele>1</ele>
        <time>2021-06-17T10:58:06.000Z</time>
      </trkpt>
      <trkpt lat="46.33488" lon="-1.31625">
        <ele>1</ele>
        <time>2021-06-17T10:58:07.000Z</time>
      </trkpt>
      <trkpt lat="46.33487" lon="-1.31626">
        <ele>1</ele>
        <time>2021-06-17T10:58:08.000Z</time>
      </trkpt>
      <trkpt lat="46.33486" lon="-1.31628">
        <ele>1</ele>
        <time>2021-06-17T10:58:09.000Z</time>
      </trkpt>
      <trkpt lat="46.33485" lon="-1.31629">
        <ele>1</ele>
        <time>2021-06-17T10:58:10.000Z</time>
      </trkpt>
      <trkpt lat="46.33484" lon="-1.3163">
        <ele>1</ele>
        <time>2021-06-17T10:58:11.000Z</time>
      </trkpt>
      <trkpt lat="46.33483" lon="-1.31632">
        <ele>1</ele>
        <time>2021-06-17T10:58:12.000Z</time>
      </trkpt>
      <trkpt lat="46.33482" lon="-1.31633">
        <ele>1</ele>
        <time>2021-06-17T10:58:13.000Z</time>
      </trkpt>
      <trkpt lat="46.33482" lon="-1.31634">
        <ele>1</ele>
        <time>2021-06-17T10:58:14.000Z</time>
      </trkpt>
      <trkpt lat="46.33481" lon="-1.31636">
        <ele>1.1</ele>
        <time>2021-06-17T10:58:15.000Z</time>
      </trkpt>
      <trkpt lat="46.3348" lon="-1.31637">
        <ele>1.1</ele>
        <time>2021-06-17T10:58:16.000Z</time>
      </trkpt>
      <trkpt lat="46.33479" lon="-1.31639">
        <ele>1.1</ele>
        <time>2021-06-17T10:58:17.000Z</time>
      </trkpt>
      <trkpt lat="46.33478" lon="-1.3164">
        <ele>1.1</ele>
        <time>2021-06-17T10:58:18.000Z</time>
      </trkpt>
      <trkpt lat="46.33477" lon="-1.31641">
        <ele>1.1</ele>
        <time>2021-06-17T10:58:19.000Z</time>
      </trkpt>
      <trkpt lat="46.33476" lon="-1.31643">
        <ele>1.1</ele>
        <time>2021-06-17T10:58:20.000Z</time>
      </trkpt>
      <trkpt lat="46.33476" lon="-1.31644">
        <ele>1.1</ele>
        <time>2021-06-17T10:58:21.000Z</time>
      </trkpt>
      <trkpt lat="46.33475" lon="-1.31645">
        <ele>1.1</ele>
        <time>2021-06-17T10:58:22.000Z</time>
      </trkpt>
      <trkpt lat="46.33474" lon="-1.31647">
        <ele>1.2</ele>
        <time>2021-06-17T10:58:23.000Z</time>
      </trkpt>
      <trkpt lat="46.33473" lon="-1.31648">
        <ele>1.2</ele>
        <time>2021-06-17T10:58:24.000Z</time>
      </trkpt>
      <trkpt lat="46.33473" lon="-1.31649">
        <ele>1.2</ele>
        <time>2021-06-17T10:58:25.000Z</time>
      </trkpt>
      <trkpt lat="46.33472" lon="-1.3165">
        <ele>1.2</ele>
        <time>2021-06-17T10:58:26.000Z</time>
      </trkpt>
      <trkpt lat="46.33471" lon="-1.31652">
        <ele>1.2</ele>
        <time>2021-06-17T10:58:27.000Z</time>
      </trkpt>
      <trkpt lat="46.33471" lon="-1.31653">
        <ele>1.2</ele>
        <time>2021-06-17T10:58:28.000Z</time>
      </trkpt>
      <trkpt lat="46.3347" lon="-1.31654">
        <ele>1.2</ele>
        <time>2021-06-17T10:58:29.000Z</time>
      </trkpt>
      <trkpt lat="46.3347" lon="-1.31655">
        <ele>1.3</ele>
        <time>2021-06-17T10:58:30.000Z</time>
      </trkpt>
      <trkpt lat="46.33469" lon="-1.31656">
        <ele>1.3</ele>
        <time>2021-06-17T10:58:31.000Z</time>
      </trkpt>
      <trkpt lat="46.33469" lon="-1.31657">
        <ele>1.3</ele>
        <time>2021-06-17T10:58:32.000Z</time>
      </trkpt>
      <trkpt lat="46.33468" lon="-1.31658">
        <ele>1.3</ele>
        <time>2021-06-17T10:58:33.000Z</time>
      </trkpt>
      <trkpt lat="46.33468" lon="-1.31659">
        <ele>1.3</ele>
        <time>2021-06-17T10:58:34.000Z</time>
      </trkpt>
      <trkpt lat="46.33467" lon="-1.3166">
        <ele>1.3</ele>
        <time>2021-06-17T10:58:35.000Z</time>
      </trkpt>
      <trkpt lat="46.33467" lon="-1.31661">
        <ele>1.4</ele>
        <time>2021-06-17T10:58:36.000Z</time>
      </trkpt>
      <trkpt lat="46.33466" lon="-1.31663">
        <ele>1.4</ele>
        <time>2021-06-17T10:58:37.000Z</time>
      </trkpt>
      <trkpt lat="46.33465" lon="-1.31664">
        <ele>1.4</ele>
        <time>2021-06-17T10:58:38.000Z</time>
      </trkpt>
      <trkpt lat="46.33464" lon="-1.31666">
        <ele>1.4</ele>
        <time>2021-06-17T10:58:39.000Z</time>
      </trkpt>
      <trkpt lat="46.33463" lon="-1.31667">
        <ele>1.4</ele>
        <time>2021-06-17T10:58:40.000Z</time>
      </trkpt>
      <trkpt lat="46.33463" lon="-1.31669">
        <ele>1.4</ele>
        <time>2021-06-17T10:58:41.000Z</time>
      </trkpt>
      <trkpt lat="46.33462" lon="-1.3167">
        <ele>1.5</ele>
        <time>2021-06-17T10:58:42.000Z</time>
      </trkpt>
      <trkpt lat="46.33461" lon="-1.31672">
        <ele>1.5</ele>
        <time>2021-06-17T10:58:43.000Z</time>
      </trkpt>
      <trkpt lat="46.3346" lon="-1.31673">
        <ele>1.5</ele>
        <time>2021-06-17T10:58:44.000Z</time>
      </trkpt>
      <trkpt lat="46.33459" lon="-1.31675">
        <ele>1.5</ele>
        <time>2021-06-17T10:58:45.000Z</time>
      </trkpt>
      <trkpt lat="46.33459" lon="-1.31676">
        <ele>1.5</ele>
        <time>2021-06-17T10:58:46.000Z</time>
      </trkpt>
      <trkpt lat="46.33458" lon="-1.31678">
        <ele>1.5</ele>
        <time>2021-06-17T10:58:47.000Z</time>
      </trkpt>
      <trkpt lat="46.33457" lon="-1.31679">
        <ele>1.5</ele>
        <time>2021-06-17T10:58:48.000Z</time>
      </trkpt>
      <trkpt lat="46.33456" lon="-1.31681">
        <ele>1.5</ele>
        <time>2021-06-17T10:58:49.000Z</time>
      </trkpt>
      <trkpt lat="46.33455" lon="-1.31682">
        <ele>1.5</ele>
        <time>2021-06-17T10:58:50.000Z</time>
      </trkpt>
      <trkpt lat="46.33455" lon="-1.31683">
        <ele>1.5</ele>
        <time>2021-06-17T10:58:51.000Z</time>
      </trkpt>
      <trkpt lat="46.33454" lon="-1.31685">
        <ele>1.6</ele>
        <time>2021-06-17T10:58:52.000Z</time>
      </trkpt>
      <trkpt lat="46.33453" lon="-1.31686">
        <ele>1.6</ele>
        <time>2021-06-17T10:58:53.000Z</time>
      </trkpt>
      <trkpt lat="46.33452" lon="-1.31688">
        <ele>1.6</ele>
        <time>2021-06-17T10:58:54.000Z</time>
      </trkpt>
      <trkpt lat="46.33452" lon="-1.31689">
        <ele>1.6</ele>
        <time>2021-06-17T10:58:55.000Z</time>
      </trkpt>
      <trkpt lat="46.33451" lon="-1.31691">
        <ele>1.6</ele>
        <time>2021-06-17T10:58:56.000Z</time>
      </trkpt>
      <trkpt lat="46.3345" lon="-1.31692">
        <ele>1.6</ele>
        <time>2021-06-17T10:58:57.000Z</time>
      </trkpt>
      <trkpt lat="46.33449" lon="-1.31693">
        <ele>1.6</ele>
        <time>2021-06-17T10:58:58.000Z</time>
      </trkpt>
      <trkpt lat="46.33449" lon="-1.31695">
        <ele>1.6</ele>
        <time>2021-06-17T10:58:59.000Z</time>
      </trkpt>
      <trkpt lat="46.33448" lon="-1.31696">
        <ele>1.6</ele>
        <time>2021-06-17T10:59:00.000Z</time>
      </trkpt>
      <trkpt lat="46.33447" lon="-1.31697">
        <ele>1.6</ele>
        <time>2021-06-17T10:59:01.000Z</time>
      </trkpt>
      <trkpt lat="46.33446" lon="-1.31699">
        <ele>1.6</ele>
        <time>2021-06-17T10:59:02.000Z</time>
      </trkpt>
      <trkpt lat="46.33445" lon="-1.317">
        <ele>1.7</ele>
        <time>2021-06-17T10:59:03.000Z</time>
      </trkpt>
      <trkpt lat="46.33445" lon="-1.31701">
        <ele>1.7</ele>
        <time>2021-06-17T10:59:04.000Z</time>
      </trkpt>
      <trkpt lat="46.33444" lon="-1.31702">
        <ele>1.7</ele>
        <time>2021-06-17T10:59:05.000Z</time>
      </trkpt>
      <trkpt lat="46.33443" lon="-1.31704">
        <ele>1.7</ele>
        <time>2021-06-17T10:59:06.000Z</time>
      </trkpt>
      <trkpt lat="46.33442" lon="-1.31705">
        <ele>1.7</ele>
        <time>2021-06-17T10:59:07.000Z</time>
      </trkpt>
      <trkpt lat="46.33441" lon="-1.31706">
        <ele>1.7</ele>
        <time>2021-06-17T10:59:08.000Z</time>
      </trkpt>
      <trkpt lat="46.3344" lon="-1.31707">
        <ele>1.7</ele>
        <time>2021-06-17T10:59:09.000Z</time>
      </trkpt>
      <trkpt lat="46.33439" lon="-1.31709">
        <ele>1.7</ele>
        <time>2021-06-17T10:59:10.000Z</time>
      </trkpt>
      <trkpt lat="46.33439" lon="-1.3171">
        <ele>1.7</ele>
        <time>2021-06-17T10:59:11.000Z</time>
      </trkpt>
      <trkpt lat="46.33438" lon="-1.31711">
        <ele>1.8</ele>
        <time>2021-06-17T10:59:12.000Z</time>
      </trkpt>
      <trkpt lat="46.33437" lon="-1.31712">
        <ele>1.8</ele>
        <time>2021-06-17T10:59:13.000Z</time>
      </trkpt>
      <trkpt lat="46.33436" lon="-1.31713">
        <ele>1.8</ele>
        <time>2021-06-17T10:59:14.000Z</time>
      </trkpt>
      <trkpt lat="46.33435" lon="-1.31714">
        <ele>1.8</ele>
        <time>2021-06-17T10:59:15.000Z</time>
      </trkpt>
      <trkpt lat="46.33434" lon="-1.31715">
        <ele>1.8</ele>
        <time>2021-06-17T10:59:16.000Z</time>
      </trkpt>
      <trkpt lat="46.33433" lon="-1.31716">
        <ele>1.8</ele>
        <time>2021-06-17T10:59:17.000Z</time>
      </trkpt>
      <trkpt lat="46.33432" lon="-1.31717">
        <ele>1.8</ele>
        <time>2021-06-17T10:59:18.000Z</time>
      </trkpt>
      <trkpt lat="46.33431" lon="-1.31718">
        <ele>1.8</ele>
        <time>2021-06-17T10:59:19.000Z</time>
      </trkpt>
      <trkpt lat="46.33431" lon="-1.31718">
        <ele>1.8</ele>
        <time>2021-06-17T10:59:20.000Z</time>
      </trkpt>
      <trkpt lat="46.3343" lon="-1.31719">
        <ele>1.8</ele>
        <time>2021-06-17T10:59:21.000Z</time>
      </trkpt>
      <trkpt lat="46.33429" lon="-1.31719">
        <ele>1.8</ele>
        <time>2021-06-17T10:59:22.000Z</time>
      </trkpt>
      <trkpt lat="46.33429" lon="-1.3172">
        <ele>1.9</ele>
        <time>2021-06-17T10:59:23.000Z</time>
      </trkpt>
      <trkpt lat="46.33429" lon="-1.3172">
        <ele>1.9</ele>
        <time>2021-06-17T10:59:24.000Z</time>
      </trkpt>
      <trkpt lat="46.33428" lon="-1.31721">
        <ele>1.9</ele>
        <time>2021-06-17T10:59:25.000Z</time>
      </trkpt>
      <trkpt lat="46.33428" lon="-1.31721">
        <ele>1.9</ele>
        <time>2021-06-17T10:59:26.000Z</time>
      </trkpt>
      <trkpt lat="46.33428" lon="-1.31721">
        <ele>1.9</ele>
        <time>2021-06-17T10:59:27.000Z</time>
      </trkpt>
      <trkpt lat="46.33428" lon="-1.31721">
        <ele>1.9</ele>
        <time>2021-06-17T10:59:28.000Z</time>
      </trkpt>
      <trkpt lat="46.33428" lon="-1.31721">
        <ele>1.9</ele>
        <time>2021-06-17T10:59:29.000Z</time>
      </trkpt>
      <trkpt lat="46.33428" lon="-1.3172">
        <ele>1.9</ele>
        <time>2021-06-17T10:59:30.000Z</time>
      </trkpt>
      <trkpt lat="46.33428" lon="-1.3172">
        <ele>1.9</ele>
        <time>2021-06-17T10:59:31.000Z</time>
      </trkpt>
      <trkpt lat="46.33428" lon="-1.31719">
        <ele>1.9</ele>
        <time>2021-06-17T10:59:32.000Z</time>
      </trkpt>
      <trkpt lat="46.33427" lon="-1.31719">
        <ele>1.9</ele>
        <time>2021-06-17T10:59:33.000Z</time>
      </trkpt>
      <trkpt lat="46.33427" lon="-1.31718">
        <ele>1.9</ele>
        <time>2021-06-17T10:59:34.000Z</time>
      </trkpt>
      <trkpt lat="46.33426" lon="-1.31717">
        <ele>1.9</ele>
        <time>2021-06-17T10:59:35.000Z</time>
      </trkpt>
      <trkpt lat="46.33425" lon="-1.31716">
        <ele>1.9</ele>
        <time>2021-06-17T10:59:36.000Z</time>
      </trkpt>
      <trkpt lat="46.33425" lon="-1.31716">
        <ele>1.9</ele>
        <time>2021-06-17T10:59:37.000Z</time>
      </trkpt>
      <trkpt lat="46.33424" lon="-1.31715">
        <ele>1.9</ele>
        <time>2021-06-17T10:59:38.000Z</time>
      </trkpt>
      <trkpt lat="46.33424" lon="-1.31715">
        <ele>1.9</ele>
        <time>2021-06-17T10:59:39.000Z</time>
      </trkpt>
      <trkpt lat="46.33424" lon="-1.31714">
        <ele>1.9</ele>
        <time>2021-06-17T10:59:40.000Z</time>
      </trkpt>
      <trkpt lat="46.33424" lon="-1.31714">
        <ele>1.9</ele>
        <time>2021-06-17T10:59:41.000Z</time>
      </trkpt>
      <trkpt lat="46.33424" lon="-1.31714">
        <ele>1.9</ele>
        <time>2021-06-17T10:59:42.000Z</time>
      </trkpt>
      <trkpt lat="46.33423" lon="-1.31713">
        <ele>1.9</ele>
        <time>2021-06-17T10:59:43.000Z</time>
      </trkpt>
      <trkpt lat="46.33423" lon="-1.31713">
        <ele>1.9</ele>
        <time>2021-06-17T10:59:44.000Z</time>
      </trkpt>
      <trkpt lat="46.33423" lon="-1.31713">
        <ele>1.9</ele>
        <time>2021-06-17T10:59:45.000Z</time>
      </trkpt>
      <trkpt lat="46.33423" lon="-1.31713">
        <ele>1.9</ele>
        <time>2021-06-17T10:59:46.000Z</time>
      </trkpt>
      <trkpt lat="46.33423" lon="-1.31713">
        <ele>1.9</ele>
        <time>2021-06-17T10:59:47.000Z</time>
      </trkpt>
      <trkpt lat="46.33423" lon="-1.31713">
        <ele>1.9</ele>
        <time>2021-06-17T10:59:48.000Z</time>
      </trkpt>
      <trkpt lat="46.33423" lon="-1.31713">
        <ele>1.9</ele>
        <time>2021-06-17T10:59:49.000Z</time>
      </trkpt>
      <trkpt lat="46.33422" lon="-1.31712">
        <ele>1.9</ele>
        <time>2021-06-17T10:59:50.000Z</time>
      </trkpt>
      <trkpt lat="46.33422" lon="-1.31712">
        <ele>1.9</ele>
        <time>2021-06-17T10:59:51.000Z</time>
      </trkpt>
      <trkpt lat="46.33421" lon="-1.31711">
        <ele>1.9</ele>
        <time>2021-06-17T10:59:52.000Z</time>
      </trkpt>
      <trkpt lat="46.3342" lon="-1.3171">
        <ele>2</ele>
        <time>2021-06-17T10:59:53.000Z</time>
      </trkpt>
      <trkpt lat="46.33419" lon="-1.31709">
        <ele>2</ele>
        <time>2021-06-17T10:59:54.000Z</time>
      </trkpt>
      <trkpt lat="46.33419" lon="-1.31708">
        <ele>2</ele>
        <time>2021-06-17T10:59:55.000Z</time>
      </trkpt>
      <trkpt lat="46.33418" lon="-1.31707">
        <ele>2</ele>
        <time>2021-06-17T10:59:56.000Z</time>
      </trkpt>
      <trkpt lat="46.33418" lon="-1.31707">
        <ele>2</ele>
        <time>2021-06-17T10:59:57.000Z</time>
      </trkpt>
      <trkpt lat="46.33418" lon="-1.31707">
        <ele>2</ele>
        <time>2021-06-17T10:59:58.000Z</time>
      </trkpt>
      <trkpt lat="46.33418" lon="-1.31707">
        <ele>2</ele>
        <time>2021-06-17T10:59:59.000Z</time>
      </trkpt>
      <trkpt lat="46.33418" lon="-1.31707">
        <ele>2</ele>
        <time>2021-06-17T11:00:00.000Z</time>
      </trkpt>
      <trkpt lat="46.33418" lon="-1.31707">
        <ele>2</ele>
        <time>2021-06-17T11:00:01.000Z</time>
      </trkpt>
      <trkpt lat="46.33418" lon="-1.31706">
        <ele>2</ele>
        <time>2021-06-17T11:00:02.000Z</time>
      </trkpt>
      <trkpt lat="46.33418" lon="-1.31706">
        <ele>2</ele>
        <time>2021-06-17T11:00:03.000Z</time>
      </trkpt>
      <trkpt lat="46.33418" lon="-1.31706">
        <ele>2</ele>
        <time>2021-06-17T11:00:04.000Z</time>
      </trkpt>
      <trkpt lat="46.33418" lon="-1.31706">
        <ele>2</ele>
        <time>2021-06-17T11:00:05.000Z</time>
      </trkpt>
      <trkpt lat="46.33418" lon="-1.31706">
        <ele>2</ele>
        <time>2021-06-17T11:00:06.000Z</time>
      </trkpt>
      <trkpt lat="46.33417" lon="-1.31705">
        <ele>2</ele>
        <time>2021-06-17T11:00:07.000Z</time>
      </trkpt>
      <trkpt lat="46.33417" lon="-1.31704">
        <ele>2</ele>
        <time>2021-06-17T11:00:08.000Z</time>
      </trkpt>
      <trkpt lat="46.33416" lon="-1.31703">
        <ele>2</ele>
        <time>2021-06-17T11:00:09.000Z</time>
      </trkpt>
      <trkpt lat="46.33415" lon="-1.31702">
        <ele>2</ele>
        <time>2021-06-17T11:00:10.000Z</time>
      </trkpt>
      <trkpt lat="46.33415" lon="-1.317">
        <ele>2</ele>
        <time>2021-06-17T11:00:11.000Z</time>
      </trkpt>
      <trkpt lat="46.33414" lon="-1.31698">
        <ele>2</ele>
        <time>2021-06-17T11:00:12.000Z</time>
      </trkpt>
      <trkpt lat="46.33413" lon="-1.31697">
        <ele>2</ele>
        <time>2021-06-17T11:00:13.000Z</time>
      </trkpt>
      <trkpt lat="46.33412" lon="-1.31695">
        <ele>2</ele>
        <time>2021-06-17T11:00:14.000Z</time>
      </trkpt>
      <trkpt lat="46.33411" lon="-1.31693">
        <ele>2</ele>
        <time>2021-06-17T11:00:15.000Z</time>
      </trkpt>
      <trkpt lat="46.3341" lon="-1.31691">
        <ele>2</ele>
        <time>2021-06-17T11:00:16.000Z</time>
      </trkpt>
      <trkpt lat="46.3341" lon="-1.3169">
        <ele>2</ele>
        <time>2021-06-17T11:00:17.000Z</time>
      </trkpt>
      <trkpt lat="46.33409" lon="-1.31688">
        <ele>2</ele>
        <time>2021-06-17T11:00:18.000Z</time>
      </trkpt>
      <trkpt lat="46.33408" lon="-1.31686">
        <ele>2</ele>
        <time>2021-06-17T11:00:19.000Z</time>
      </trkpt>
      <trkpt lat="46.33407" lon="-1.31685">
        <ele>2</ele>
        <time>2021-06-17T11:00:20.000Z</time>
      </trkpt>
      <trkpt lat="46.33407" lon="-1.31683">
        <ele>2</ele>
        <time>2021-06-17T11:00:21.000Z</time>
      </trkpt>
      <trkpt lat="46.33406" lon="-1.31682">
        <ele>2</ele>
        <time>2021-06-17T11:00:22.000Z</time>
      </trkpt>
      <trkpt lat="46.33405" lon="-1.3168">
        <ele>2</ele>
        <time>2021-06-17T11:00:23.000Z</time>
      </trkpt>
      <trkpt lat="46.33404" lon="-1.31679">
        <ele>2</ele>
        <time>2021-06-17T11:00:24.000Z</time>
      </trkpt>
      <trkpt lat="46.33403" lon="-1.31677">
        <ele>2</ele>
        <time>2021-06-17T11:00:25.000Z</time>
      </trkpt>
      <trkpt lat="46.33402" lon="-1.31676">
        <ele>2</ele>
        <time>2021-06-17T11:00:26.000Z</time>
      </trkpt>
      <trkpt lat="46.33401" lon="-1.31674">
        <ele>2</ele>
        <time>2021-06-17T11:00:27.000Z</time>
      </trkpt>
      <trkpt lat="46.33401" lon="-1.31673">
        <ele>2</ele>
        <time>2021-06-17T11:00:28.000Z</time>
      </trkpt>
      <trkpt lat="46.334" lon="-1.31671">
        <ele>2</ele>
        <time>2021-06-17T11:00:29.000Z</time>
      </trkpt>
      <trkpt lat="46.33399" lon="-1.3167">
        <ele>2</ele>
        <time>2021-06-17T11:00:30.000Z</time>
      </trkpt>
      <trkpt lat="46.33398" lon="-1.31668">
        <ele>2</ele>
        <time>2021-06-17T11:00:31.000Z</time>
      </trkpt>
      <trkpt lat="46.33397" lon="-1.31667">
        <ele>2</ele>
        <time>2021-06-17T11:00:32.000Z</time>
      </trkpt>
      <trkpt lat="46.33396" lon="-1.31665">
        <ele>2</ele>
        <time>2021-06-17T11:00:33.000Z</time>
      </trkpt>
      <trkpt lat="46.33395" lon="-1.31664">
        <ele>1.9</ele>
        <time>2021-06-17T11:00:34.000Z</time>
      </trkpt>
      <trkpt lat="46.33394" lon="-1.31663">
        <ele>1.9</ele>
        <time>2021-06-17T11:00:35.000Z</time>
      </trkpt>
      <trkpt lat="46.33394" lon="-1.31661">
        <ele>1.9</ele>
        <time>2021-06-17T11:00:36.000Z</time>
      </trkpt>
      <trkpt lat="46.33393" lon="-1.3166">
        <ele>1.9</ele>
        <time>2021-06-17T11:00:37.000Z</time>
      </trkpt>
      <trkpt lat="46.33392" lon="-1.31658">
        <ele>1.8</ele>
        <time>2021-06-17T11:00:38.000Z</time>
      </trkpt>
      <trkpt lat="46.33391" lon="-1.31657">
        <ele>1.8</ele>
        <time>2021-06-17T11:00:39.000Z</time>
      </trkpt>
      <trkpt lat="46.3339" lon="-1.31656">
        <ele>1.8</ele>
        <time>2021-06-17T11:00:40.000Z</time>
      </trkpt>
      <trkpt lat="46.33389" lon="-1.31654">
        <ele>1.8</ele>
        <time>2021-06-17T11:00:41.000Z</time>
      </trkpt>
      <trkpt lat="46.33389" lon="-1.31653">
        <ele>1.7</ele>
        <time>2021-06-17T11:00:42.000Z</time>
      </trkpt>
      <trkpt lat="46.33388" lon="-1.31652">
        <ele>1.7</ele>
        <time>2021-06-17T11:00:43.000Z</time>
      </trkpt>
      <trkpt lat="46.33387" lon="-1.31651">
        <ele>1.7</ele>
        <time>2021-06-17T11:00:44.000Z</time>
      </trkpt>
      <trkpt lat="46.33386" lon="-1.31649">
        <ele>1.7</ele>
        <time>2021-06-17T11:00:45.000Z</time>
      </trkpt>
      <trkpt lat="46.33385" lon="-1.31648">
        <ele>1.6</ele>
        <time>2021-06-17T11:00:46.000Z</time>
      </trkpt>
      <trkpt lat="46.33384" lon="-1.31647">
        <ele>1.6</ele>
        <time>2021-06-17T11:00:47.000Z</time>
      </trkpt>
      <trkpt lat="46.33384" lon="-1.31645">
        <ele>1.6</ele>
        <time>2021-06-17T11:00:48.000Z</time>
      </trkpt>
      <trkpt lat="46.33383" lon="-1.31644">
        <ele>1.6</ele>
        <time>2021-06-17T11:00:49.000Z</time>
      </trkpt>
      <trkpt lat="46.33382" lon="-1.31643">
        <ele>1.5</ele>
        <time>2021-06-17T11:00:50.000Z</time>
      </trkpt>
      <trkpt lat="46.33381" lon="-1.31642">
        <ele>1.5</ele>
        <time>2021-06-17T11:00:51.000Z</time>
      </trkpt>
      <trkpt lat="46.3338" lon="-1.3164">
        <ele>1.5</ele>
        <time>2021-06-17T11:00:52.000Z</time>
      </trkpt>
      <trkpt lat="46.3338" lon="-1.31639">
        <ele>1.5</ele>
        <time>2021-06-17T11:00:53.000Z</time>
      </trkpt>
      <trkpt lat="46.33379" lon="-1.31638">
        <ele>1.5</ele>
        <time>2021-06-17T11:00:54.000Z</time>
      </trkpt>
      <trkpt lat="46.33378" lon="-1.31637">
        <ele>1.4</ele>
        <time>2021-06-17T11:00:55.000Z</time>
      </trkpt>
      <trkpt lat="46.33377" lon="-1.31635">
        <ele>1.4</ele>
        <time>2021-06-17T11:00:56.000Z</time>
      </trkpt>
      <trkpt lat="46.33377" lon="-1.31634">
        <ele>1.4</ele>
        <time>2021-06-17T11:00:57.000Z</time>
      </trkpt>
      <trkpt lat="46.33376" lon="-1.31633">
        <ele>1.4</ele>
        <time>2021-06-17T11:00:58.000Z</time>
      </trkpt>
      <trkpt lat="46.33375" lon="-1.31632">
        <ele>1.4</ele>
        <time>2021-06-17T11:00:59.000Z</time>
      </trkpt>
      <trkpt lat="46.33374" lon="-1.3163">
        <ele>1.4</ele>
        <time>2021-06-17T11:01:00.000Z</time>
      </trkpt>
      <trkpt lat="46.33374" lon="-1.31629">
        <ele>1.3</ele>
        <time>2021-06-17T11:01:01.000Z</time>
      </trkpt>
      <trkpt lat="46.33373" lon="-1.31628">
        <ele>1.3</ele>
        <time>2021-06-17T11:01:02.000Z</time>
      </trkpt>
      <trkpt lat="46.33372" lon="-1.31627">
        <ele>1.3</ele>
        <time>2021-06-17T11:01:03.000Z</time>
      </trkpt>
      <trkpt lat="46.33371" lon="-1.31625">
        <ele>1.3</ele>
        <time>2021-06-17T11:01:04.000Z</time>
      </trkpt>
      <trkpt lat="46.33371" lon="-1.31624">
        <ele>1.3</ele>
        <time>2021-06-17T11:01:05.000Z</time>
      </trkpt>
      <trkpt lat="46.3337" lon="-1.31623">
        <ele>1.2</ele>
        <time>2021-06-17T11:01:06.000Z</time>
      </trkpt>
      <trkpt lat="46.33369" lon="-1.31622">
        <ele>1.2</ele>
        <time>2021-06-17T11:01:07.000Z</time>
      </trkpt>
      <trkpt lat="46.33368" lon="-1.3162">
        <ele>1.2</ele>
        <time>2021-06-17T11:01:08.000Z</time>
      </trkpt>
      <trkpt lat="46.33368" lon="-1.31619">
        <ele>1.2</ele>
        <time>2021-06-17T11:01:09.000Z</time>
      </trkpt>
      <trkpt lat="46.33367" lon="-1.31618">
        <ele>1.2</ele>
        <time>2021-06-17T11:01:10.000Z</time>
      </trkpt>
      <trkpt lat="46.33366" lon="-1.31617">
        <ele>1.2</ele>
        <time>2021-06-17T11:01:11.000Z</time>
      </trkpt>
      <trkpt lat="46.33365" lon="-1.31616">
        <ele>1.1</ele>
        <time>2021-06-17T11:01:12.000Z</time>
      </trkpt>
      <trkpt lat="46.33365" lon="-1.31614">
        <ele>1.1</ele>
        <time>2021-06-17T11:01:13.000Z</time>
      </trkpt>
      <trkpt lat="46.33364" lon="-1.31613">
        <ele>1.1</ele>
        <time>2021-06-17T11:01:14.000Z</time>
      </trkpt>
      <trkpt lat="46.33363" lon="-1.31612">
        <ele>1.1</ele>
        <time>2021-06-17T11:01:15.000Z</time>
      </trkpt>
      <trkpt lat="46.33362" lon="-1.31611">
        <ele>1.1</ele>
        <time>2021-06-17T11:01:16.000Z</time>
      </trkpt>
      <trkpt lat="46.33362" lon="-1.3161">
        <ele>1.1</ele>
        <time>2021-06-17T11:01:17.000Z</time>
      </trkpt>
      <trkpt lat="46.33361" lon="-1.31608">
        <ele>1.1</ele>
        <time>2021-06-17T11:01:18.000Z</time>
      </trkpt>
      <trkpt lat="46.3336" lon="-1.31607">
        <ele>1.1</ele>
        <time>2021-06-17T11:01:19.000Z</time>
      </trkpt>
      <trkpt lat="46.33359" lon="-1.31606">
        <ele>1</ele>
        <time>2021-06-17T11:01:20.000Z</time>
      </trkpt>
      <trkpt lat="46.33358" lon="-1.31605">
        <ele>1</ele>
        <time>2021-06-17T11:01:21.000Z</time>
      </trkpt>
      <trkpt lat="46.33357" lon="-1.31604">
        <ele>1</ele>
        <time>2021-06-17T11:01:22.000Z</time>
      </trkpt>
      <trkpt lat="46.33357" lon="-1.31603">
        <ele>1</ele>
        <time>2021-06-17T11:01:23.000Z</time>
      </trkpt>
      <trkpt lat="46.33356" lon="-1.31602">
        <ele>1</ele>
        <time>2021-06-17T11:01:24.000Z</time>
      </trkpt>
      <trkpt lat="46.33355" lon="-1.31601">
        <ele>1</ele>
        <time>2021-06-17T11:01:25.000Z</time>
      </trkpt>
      <trkpt lat="46.33354" lon="-1.316">
        <ele>1</ele>
        <time>2021-06-17T11:01:26.000Z</time>
      </trkpt>
      <trkpt lat="46.33353" lon="-1.31599">
        <ele>1</ele>
        <time>2021-06-17T11:01:27.000Z</time>
      </trkpt>
      <trkpt lat="46.33353" lon="-1.31597">
        <ele>1</ele>
        <time>2021-06-17T11:01:28.000Z</time>
      </trkpt>
      <trkpt lat="46.33352" lon="-1.31596">
        <ele>1</ele>
        <time>2021-06-17T11:01:29.000Z</time>
      </trkpt>
      <trkpt lat="46.33351" lon="-1.31595">
        <ele>1</ele>
        <time>2021-06-17T11:01:30.000Z</time>
      </trkpt>
      <trkpt lat="46.33351" lon="-1.31594">
        <ele>1</ele>
        <time>2021-06-17T11:01:31.000Z</time>
      </trkpt>
      <trkpt lat="46.3335" lon="-1.31593">
        <ele>0.9</ele>
        <time>2021-06-17T11:01:32.000Z</time>
      </trkpt>
      <trkpt lat="46.33349" lon="-1.31592">
        <ele>0.9</ele>
        <time>2021-06-17T11:01:33.000Z</time>
      </trkpt>
      <trkpt lat="46.33349" lon="-1.31591">
        <ele>0.9</ele>
        <time>2021-06-17T11:01:34.000Z</time>
      </trkpt>
      <trkpt lat="46.33348" lon="-1.3159">
        <ele>0.9</ele>
        <time>2021-06-17T11:01:35.000Z</time>
      </trkpt>
      <trkpt lat="46.33347" lon="-1.31589">
        <ele>0.9</ele>
        <time>2021-06-17T11:01:36.000Z</time>
      </trkpt>
      <trkpt lat="46.33347" lon="-1.31588">
        <ele>0.9</ele>
        <time>2021-06-17T11:01:37.000Z</time>
      </trkpt>
      <trkpt lat="46.33346" lon="-1.31587">
        <ele>0.9</ele>
        <time>2021-06-17T11:01:38.000Z</time>
      </trkpt>
      <trkpt lat="46.33345" lon="-1.31586">
        <ele>0.9</ele>
        <time>2021-06-17T11:01:39.000Z</time>
      </trkpt>
      <trkpt lat="46.33345" lon="-1.31584">
        <ele>0.9</ele>
        <time>2021-06-17T11:01:40.000Z</time>
      </trkpt>
      <trkpt lat="46.33344" lon="-1.31583">
        <ele>0.9</ele>
        <time>2021-06-17T11:01:41.000Z</time>
      </trkpt>
      <trkpt lat="46.33343" lon="-1.31582">
        <ele>0.9</ele>
        <time>2021-06-17T11:01:42.000Z</time>
      </trkpt>
      <trkpt lat="46.33342" lon="-1.3158">
        <ele>0.9</ele>
        <time>2021-06-17T11:01:43.000Z</time>
      </trkpt>
      <trkpt lat="46.33342" lon="-1.31579">
        <ele>0.9</ele>
        <time>2021-06-17T11:01:44.000Z</time>
      </trkpt>
      <trkpt lat="46.33341" lon="-1.31578">
        <ele>0.9</ele>
        <time>2021-06-17T11:01:45.000Z</time>
      </trkpt>
      <trkpt lat="46.3334" lon="-1.31576">
        <ele>0.9</ele>
        <time>2021-06-17T11:01:46.000Z</time>
      </trkpt>
      <trkpt lat="46.33339" lon="-1.31574">
        <ele>0.9</ele>
        <time>2021-06-17T11:01:47.000Z</time>
      </trkpt>
      <trkpt lat="46.33338" lon="-1.31573">
        <ele>1</ele>
        <time>2021-06-17T11:01:48.000Z</time>
      </trkpt>
      <trkpt lat="46.33337" lon="-1.31571">
        <ele>1</ele>
        <time>2021-06-17T11:01:49.000Z</time>
      </trkpt>
      <trkpt lat="46.33336" lon="-1.3157">
        <ele>1</ele>
        <time>2021-06-17T11:01:50.000Z</time>
      </trkpt>
      <trkpt lat="46.33335" lon="-1.31568">
        <ele>1</ele>
        <time>2021-06-17T11:01:51.000Z</time>
      </trkpt>
      <trkpt lat="46.33334" lon="-1.31567">
        <ele>1</ele>
        <time>2021-06-17T11:01:52.000Z</time>
      </trkpt>
      <trkpt lat="46.33333" lon="-1.31565">
        <ele>1</ele>
        <time>2021-06-17T11:01:53.000Z</time>
      </trkpt>
      <trkpt lat="46.33332" lon="-1.31563">
        <ele>1</ele>
        <time>2021-06-17T11:01:54.000Z</time>
      </trkpt>
      <trkpt lat="46.33331" lon="-1.31562">
        <ele>1</ele>
        <time>2021-06-17T11:01:55.000Z</time>
      </trkpt>
      <trkpt lat="46.3333" lon="-1.3156">
        <ele>1</ele>
        <time>2021-06-17T11:01:56.000Z</time>
      </trkpt>
      <trkpt lat="46.33329" lon="-1.31559">
        <ele>1.1</ele>
        <time>2021-06-17T11:01:57.000Z</time>
      </trkpt>
      <trkpt lat="46.33328" lon="-1.31558">
        <ele>1.1</ele>
        <time>2021-06-17T11:01:58.000Z</time>
      </trkpt>
      <trkpt lat="46.33327" lon="-1.31556">
        <ele>1.1</ele>
        <time>2021-06-17T11:01:59.000Z</time>
      </trkpt>
      <trkpt lat="46.33326" lon="-1.31555">
        <ele>1.1</ele>
        <time>2021-06-17T11:02:00.000Z</time>
      </trkpt>
      <trkpt lat="46.33326" lon="-1.31554">
        <ele>1.1</ele>
        <time>2021-06-17T11:02:01.000Z</time>
      </trkpt>
      <trkpt lat="46.33325" lon="-1.31553">
        <ele>1.1</ele>
        <time>2021-06-17T11:02:02.000Z</time>
      </trkpt>
      <trkpt lat="46.33324" lon="-1.31552">
        <ele>1.1</ele>
        <time>2021-06-17T11:02:03.000Z</time>
      </trkpt>
      <trkpt lat="46.33323" lon="-1.31551">
        <ele>1.1</ele>
        <time>2021-06-17T11:02:04.000Z</time>
      </trkpt>
      <trkpt lat="46.33323" lon="-1.3155">
        <ele>1.1</ele>
        <time>2021-06-17T11:02:05.000Z</time>
      </trkpt>
      <trkpt lat="46.33322" lon="-1.31548">
        <ele>1.1</ele>
        <time>2021-06-17T11:02:06.000Z</time>
      </trkpt>
      <trkpt lat="46.33321" lon="-1.31547">
        <ele>1.1</ele>
        <time>2021-06-17T11:02:07.000Z</time>
      </trkpt>
      <trkpt lat="46.3332" lon="-1.31546">
        <ele>1.2</ele>
        <time>2021-06-17T11:02:08.000Z</time>
      </trkpt>
      <trkpt lat="46.3332" lon="-1.31545">
        <ele>1.2</ele>
        <time>2021-06-17T11:02:09.000Z</time>
      </trkpt>
      <trkpt lat="46.33319" lon="-1.31544">
        <ele>1.2</ele>
        <time>2021-06-17T11:02:10.000Z</time>
      </trkpt>
      <trkpt lat="46.33318" lon="-1.31543">
        <ele>1.2</ele>
        <time>2021-06-17T11:02:11.000Z</time>
      </trkpt>
      <trkpt lat="46.33317" lon="-1.31542">
        <ele>1.2</ele>
        <time>2021-06-17T11:02:12.000Z</time>
      </trkpt>
      <trkpt lat="46.33316" lon="-1.31541">
        <ele>1.2</ele>
        <time>2021-06-17T11:02:13.000Z</time>
      </trkpt>
      <trkpt lat="46.33316" lon="-1.31539">
        <ele>1.2</ele>
        <time>2021-06-17T11:02:14.000Z</time>
      </trkpt>
      <trkpt lat="46.33315" lon="-1.31538">
        <ele>1.2</ele>
        <time>2021-06-17T11:02:15.000Z</time>
      </trkpt>
      <trkpt lat="46.33314" lon="-1.31537">
        <ele>1.2</ele>
        <time>2021-06-17T11:02:16.000Z</time>
      </trkpt>
      <trkpt lat="46.33313" lon="-1.31536">
        <ele>1.2</ele>
        <time>2021-06-17T11:02:17.000Z</time>
      </trkpt>
      <trkpt lat="46.33312" lon="-1.31534">
        <ele>1.3</ele>
        <time>2021-06-17T11:02:18.000Z</time>
      </trkpt>
      <trkpt lat="46.33311" lon="-1.31533">
        <ele>1.3</ele>
        <time>2021-06-17T11:02:19.000Z</time>
      </trkpt>
      <trkpt lat="46.3331" lon="-1.31531">
        <ele>1.3</ele>
        <time>2021-06-17T11:02:20.000Z</time>
      </trkpt>
      <trkpt lat="46.33309" lon="-1.3153">
        <ele>1.3</ele>
        <time>2021-06-17T11:02:21.000Z</time>
      </trkpt>
      <trkpt lat="46.33308" lon="-1.31528">
        <ele>1.3</ele>
        <time>2021-06-17T11:02:22.000Z</time>
      </trkpt>
      <trkpt lat="46.33307" lon="-1.31527">
        <ele>1.3</ele>
        <time>2021-06-17T11:02:23.000Z</time>
      </trkpt>
      <trkpt lat="46.33307" lon="-1.31525">
        <ele>1.3</ele>
        <time>2021-06-17T11:02:24.000Z</time>
      </trkpt>
      <trkpt lat="46.33306" lon="-1.31524">
        <ele>1.3</ele>
        <time>2021-06-17T11:02:25.000Z</time>
      </trkpt>
      <trkpt lat="46.33305" lon="-1.31522">
        <ele>1.3</ele>
        <time>2021-06-17T11:02:26.000Z</time>
      </trkpt>
      <trkpt lat="46.33304" lon="-1.31521">
        <ele>1.4</ele>
        <time>2021-06-17T11:02:27.000Z</time>
      </trkpt>
      <trkpt lat="46.33303" lon="-1.3152">
        <ele>1.4</ele>
        <time>2021-06-17T11:02:28.000Z</time>
      </trkpt>
      <trkpt lat="46.33302" lon="-1.31518">
        <ele>1.4</ele>
        <time>2021-06-17T11:02:29.000Z</time>
      </trkpt>
      <trkpt lat="46.33302" lon="-1.31517">
        <ele>1.4</ele>
        <time>2021-06-17T11:02:30.000Z</time>
      </trkpt>
      <trkpt lat="46.33301" lon="-1.31516">
        <ele>1.4</ele>
        <time>2021-06-17T11:02:31.000Z</time>
      </trkpt>
      <trkpt lat="46.333" lon="-1.31515">
        <ele>1.4</ele>
        <time>2021-06-17T11:02:32.000Z</time>
      </trkpt>
      <trkpt lat="46.333" lon="-1.31514">
        <ele>1.4</ele>
        <time>2021-06-17T11:02:33.000Z</time>
      </trkpt>
      <trkpt lat="46.33299" lon="-1.31512">
        <ele>1.4</ele>
        <time>2021-06-17T11:02:34.000Z</time>
      </trkpt>
      <trkpt lat="46.33298" lon="-1.31511">
        <ele>1.4</ele>
        <time>2021-06-17T11:02:35.000Z</time>
      </trkpt>
      <trkpt lat="46.33297" lon="-1.3151">
        <ele>1.4</ele>
        <time>2021-06-17T11:02:36.000Z</time>
      </trkpt>
      <trkpt lat="46.33297" lon="-1.31509">
        <ele>1.4</ele>
        <time>2021-06-17T11:02:37.000Z</time>
      </trkpt>
      <trkpt lat="46.33296" lon="-1.31508">
        <ele>1.4</ele>
        <time>2021-06-17T11:02:38.000Z</time>
      </trkpt>
      <trkpt lat="46.33295" lon="-1.31507">
        <ele>1.5</ele>
        <time>2021-06-17T11:02:39.000Z</time>
      </trkpt>
      <trkpt lat="46.33295" lon="-1.31505">
        <ele>1.5</ele>
        <time>2021-06-17T11:02:40.000Z</time>
      </trkpt>
      <trkpt lat="46.33294" lon="-1.31504">
        <ele>1.5</ele>
        <time>2021-06-17T11:02:41.000Z</time>
      </trkpt>
      <trkpt lat="46.33293" lon="-1.31503">
        <ele>1.5</ele>
        <time>2021-06-17T11:02:42.000Z</time>
      </trkpt>
      <trkpt lat="46.33293" lon="-1.31502">
        <ele>1.5</ele>
        <time>2021-06-17T11:02:43.000Z</time>
      </trkpt>
      <trkpt lat="46.33292" lon="-1.31501">
        <ele>1.5</ele>
        <time>2021-06-17T11:02:44.000Z</time>
      </trkpt>
      <trkpt lat="46.33291" lon="-1.315">
        <ele>1.5</ele>
        <time>2021-06-17T11:02:45.000Z</time>
      </trkpt>
      <trkpt lat="46.3329" lon="-1.31499">
        <ele>1.5</ele>
        <time>2021-06-17T11:02:46.000Z</time>
      </trkpt>
      <trkpt lat="46.33289" lon="-1.31497">
        <ele>1.5</ele>
        <time>2021-06-17T11:02:47.000Z</time>
      </trkpt>
      <trkpt lat="46.33289" lon="-1.31496">
        <ele>1.5</ele>
        <time>2021-06-17T11:02:48.000Z</time>
      </trkpt>
      <trkpt lat="46.33288" lon="-1.31495">
        <ele>1.5</ele>
        <time>2021-06-17T11:02:49.000Z</time>
      </trkpt>
      <trkpt lat="46.33287" lon="-1.31494">
        <ele>1.5</ele>
        <time>2021-06-17T11:02:50.000Z</time>
      </trkpt>
      <trkpt lat="46.33286" lon="-1.31493">
        <ele>1.5</ele>
        <time>2021-06-17T11:02:51.000Z</time>
      </trkpt>
      <trkpt lat="46.33285" lon="-1.31492">
        <ele>1.5</ele>
        <time>2021-06-17T11:02:52.000Z</time>
      </trkpt>
      <trkpt lat="46.33284" lon="-1.31491">
        <ele>1.5</ele>
        <time>2021-06-17T11:02:53.000Z</time>
      </trkpt>
      <trkpt lat="46.33283" lon="-1.3149">
        <ele>1.5</ele>
        <time>2021-06-17T11:02:54.000Z</time>
      </trkpt>
      <trkpt lat="46.33283" lon="-1.31488">
        <ele>1.5</ele>
        <time>2021-06-17T11:02:55.000Z</time>
      </trkpt>
      <trkpt lat="46.33282" lon="-1.31487">
        <ele>1.5</ele>
        <time>2021-06-17T11:02:56.000Z</time>
      </trkpt>
      <trkpt lat="46.33281" lon="-1.31486">
        <ele>1.5</ele>
        <time>2021-06-17T11:02:57.000Z</time>
      </trkpt>
      <trkpt lat="46.3328" lon="-1.31485">
        <ele>1.5</ele>
        <time>2021-06-17T11:02:58.000Z</time>
      </trkpt>
      <trkpt lat="46.33279" lon="-1.31484">
        <ele>1.5</ele>
        <time>2021-06-17T11:02:59.000Z</time>
      </trkpt>
      <trkpt lat="46.33278" lon="-1.31483">
        <ele>1.5</ele>
        <time>2021-06-17T11:03:00.000Z</time>
      </trkpt>
      <trkpt lat="46.33277" lon="-1.31482">
        <ele>1.5</ele>
        <time>2021-06-17T11:03:01.000Z</time>
      </trkpt>
      <trkpt lat="46.33276" lon="-1.3148">
        <ele>1.5</ele>
        <time>2021-06-17T11:03:02.000Z</time>
      </trkpt>
      <trkpt lat="46.33275" lon="-1.31479">
        <ele>1.4</ele>
        <time>2021-06-17T11:03:03.000Z</time>
      </trkpt>
      <trkpt lat="46.33274" lon="-1.31478">
        <ele>1.4</ele>
        <time>2021-06-17T11:03:04.000Z</time>
      </trkpt>
      <trkpt lat="46.33273" lon="-1.31477">
        <ele>1.4</ele>
        <time>2021-06-17T11:03:05.000Z</time>
      </trkpt>
      <trkpt lat="46.33273" lon="-1.31476">
        <ele>1.4</ele>
        <time>2021-06-17T11:03:06.000Z</time>
      </trkpt>
      <trkpt lat="46.33272" lon="-1.31474">
        <ele>1.4</ele>
        <time>2021-06-17T11:03:07.000Z</time>
      </trkpt>
      <trkpt lat="46.33271" lon="-1.31473">
        <ele>1.4</ele>
        <time>2021-06-17T11:03:08.000Z</time>
      </trkpt>
      <trkpt lat="46.3327" lon="-1.31472">
        <ele>1.4</ele>
        <time>2021-06-17T11:03:09.000Z</time>
      </trkpt>
      <trkpt lat="46.3327" lon="-1.31471">
        <ele>1.4</ele>
        <time>2021-06-17T11:03:10.000Z</time>
      </trkpt>
      <trkpt lat="46.33269" lon="-1.31469">
        <ele>1.4</ele>
        <time>2021-06-17T11:03:11.000Z</time>
      </trkpt>
      <trkpt lat="46.33268" lon="-1.31468">
        <ele>1.4</ele>
        <time>2021-06-17T11:03:12.000Z</time>
      </trkpt>
      <trkpt lat="46.33267" lon="-1.31467">
        <ele>1.4</ele>
        <time>2021-06-17T11:03:13.000Z</time>
      </trkpt>
      <trkpt lat="46.33267" lon="-1.31466">
        <ele>1.4</ele>
        <time>2021-06-17T11:03:14.000Z</time>
      </trkpt>
      <trkpt lat="46.33266" lon="-1.31465">
        <ele>1.4</ele>
        <time>2021-06-17T11:03:15.000Z</time>
      </trkpt>
      <trkpt lat="46.33265" lon="-1.31463">
        <ele>1.4</ele>
        <time>2021-06-17T11:03:16.000Z</time>
      </trkpt>
      <trkpt lat="46.33264" lon="-1.31462">
        <ele>1.4</ele>
        <time>2021-06-17T11:03:17.000Z</time>
      </trkpt>
      <trkpt lat="46.33263" lon="-1.31461">
        <ele>1.4</ele>
        <time>2021-06-17T11:03:18.000Z</time>
      </trkpt>
      <trkpt lat="46.33262" lon="-1.3146">
        <ele>1.4</ele>
        <time>2021-06-17T11:03:19.000Z</time>
      </trkpt>
      <trkpt lat="46.33262" lon="-1.31459">
        <ele>1.4</ele>
        <time>2021-06-17T11:03:20.000Z</time>
      </trkpt>
      <trkpt lat="46.33261" lon="-1.31457">
        <ele>1.4</ele>
        <time>2021-06-17T11:03:21.000Z</time>
      </trkpt>
      <trkpt lat="46.3326" lon="-1.31456">
        <ele>1.4</ele>
        <time>2021-06-17T11:03:22.000Z</time>
      </trkpt>
      <trkpt lat="46.33259" lon="-1.31455">
        <ele>1.3</ele>
        <time>2021-06-17T11:03:23.000Z</time>
      </trkpt>
      <trkpt lat="46.33258" lon="-1.31453">
        <ele>1.3</ele>
        <time>2021-06-17T11:03:24.000Z</time>
      </trkpt>
      <trkpt lat="46.33257" lon="-1.31452">
        <ele>1.3</ele>
        <time>2021-06-17T11:03:25.000Z</time>
      </trkpt>
      <trkpt lat="46.33256" lon="-1.31451">
        <ele>1.3</ele>
        <time>2021-06-17T11:03:26.000Z</time>
      </trkpt>
      <trkpt lat="46.33255" lon="-1.3145">
        <ele>1.3</ele>
        <time>2021-06-17T11:03:27.000Z</time>
      </trkpt>
      <trkpt lat="46.33254" lon="-1.31448">
        <ele>1.3</ele>
        <time>2021-06-17T11:03:28.000Z</time>
      </trkpt>
      <trkpt lat="46.33253" lon="-1.31447">
        <ele>1.3</ele>
        <time>2021-06-17T11:03:29.000Z</time>
      </trkpt>
      <trkpt lat="46.33253" lon="-1.31446">
        <ele>1.3</ele>
        <time>2021-06-17T11:03:30.000Z</time>
      </trkpt>
      <trkpt lat="46.33252" lon="-1.31444">
        <ele>1.3</ele>
        <time>2021-06-17T11:03:31.000Z</time>
      </trkpt>
      <trkpt lat="46.33251" lon="-1.31443">
        <ele>1.3</ele>
        <time>2021-06-17T11:03:32.000Z</time>
      </trkpt>
      <trkpt lat="46.3325" lon="-1.31442">
        <ele>1.3</ele>
        <time>2021-06-17T11:03:33.000Z</time>
      </trkpt>
      <trkpt lat="46.33249" lon="-1.3144">
        <ele>1.3</ele>
        <time>2021-06-17T11:03:34.000Z</time>
      </trkpt>
      <trkpt lat="46.33248" lon="-1.31439">
        <ele>1.3</ele>
        <time>2021-06-17T11:03:35.000Z</time>
      </trkpt>
      <trkpt lat="46.33247" lon="-1.31438">
        <ele>1.3</ele>
        <time>2021-06-17T11:03:36.000Z</time>
      </trkpt>
      <trkpt lat="46.33245" lon="-1.31437">
        <ele>1.3</ele>
        <time>2021-06-17T11:03:37.000Z</time>
      </trkpt>
      <trkpt lat="46.33244" lon="-1.31436">
        <ele>1.3</ele>
        <time>2021-06-17T11:03:38.000Z</time>
      </trkpt>
      <trkpt lat="46.33243" lon="-1.31435">
        <ele>1.3</ele>
        <time>2021-06-17T11:03:39.000Z</time>
      </trkpt>
      <trkpt lat="46.33242" lon="-1.31434">
        <ele>1.3</ele>
        <time>2021-06-17T11:03:40.000Z</time>
      </trkpt>
      <trkpt lat="46.33241" lon="-1.31433">
        <ele>1.3</ele>
        <time>2021-06-17T11:03:41.000Z</time>
      </trkpt>
      <trkpt lat="46.3324" lon="-1.31432">
        <ele>1.3</ele>
        <time>2021-06-17T11:03:42.000Z</time>
      </trkpt>
      <trkpt lat="46.33239" lon="-1.31431">
        <ele>1.3</ele>
        <time>2021-06-17T11:03:43.000Z</time>
      </trkpt>
      <trkpt lat="46.33238" lon="-1.3143">
        <ele>1.3</ele>
        <time>2021-06-17T11:03:44.000Z</time>
      </trkpt>
      <trkpt lat="46.33237" lon="-1.31429">
        <ele>1.3</ele>
        <time>2021-06-17T11:03:45.000Z</time>
      </trkpt>
      <trkpt lat="46.33236" lon="-1.31428">
        <ele>1.3</ele>
        <time>2021-06-17T11:03:46.000Z</time>
      </trkpt>
      <trkpt lat="46.33235" lon="-1.31427">
        <ele>1.3</ele>
        <time>2021-06-17T11:03:47.000Z</time>
      </trkpt>
      <trkpt lat="46.33234" lon="-1.31426">
        <ele>1.3</ele>
        <time>2021-06-17T11:03:48.000Z</time>
      </trkpt>
      <trkpt lat="46.33233" lon="-1.31425">
        <ele>1.3</ele>
        <time>2021-06-17T11:03:49.000Z</time>
      </trkpt>
      <trkpt lat="46.33232" lon="-1.31424">
        <ele>1.3</ele>
        <time>2021-06-17T11:03:50.000Z</time>
      </trkpt>
      <trkpt lat="46.33231" lon="-1.31422">
        <ele>1.3</ele>
        <time>2021-06-17T11:03:51.000Z</time>
      </trkpt>
      <trkpt lat="46.3323" lon="-1.31421">
        <ele>1.3</ele>
        <time>2021-06-17T11:03:52.000Z</time>
      </trkpt>
      <trkpt lat="46.33229" lon="-1.3142">
        <ele>1.3</ele>
        <time>2021-06-17T11:03:53.000Z</time>
      </trkpt>
      <trkpt lat="46.33228" lon="-1.31419">
        <ele>1.3</ele>
        <time>2021-06-17T11:03:54.000Z</time>
      </trkpt>
      <trkpt lat="46.33227" lon="-1.31418">
        <ele>1.3</ele>
        <time>2021-06-17T11:03:55.000Z</time>
      </trkpt>
      <trkpt lat="46.33227" lon="-1.31417">
        <ele>1.3</ele>
        <time>2021-06-17T11:03:56.000Z</time>
      </trkpt>
      <trkpt lat="46.33226" lon="-1.31416">
        <ele>1.3</ele>
        <time>2021-06-17T11:03:57.000Z</time>
      </trkpt>
      <trkpt lat="46.33225" lon="-1.31415">
        <ele>1.3</ele>
        <time>2021-06-17T11:03:58.000Z</time>
      </trkpt>
      <trkpt lat="46.33224" lon="-1.31414">
        <ele>1.3</ele>
        <time>2021-06-17T11:03:59.000Z</time>
      </trkpt>
      <trkpt lat="46.33223" lon="-1.31413">
        <ele>1.2</ele>
        <time>2021-06-17T11:04:00.000Z</time>
      </trkpt>
      <trkpt lat="46.33222" lon="-1.31412">
        <ele>1.2</ele>
        <time>2021-06-17T11:04:01.000Z</time>
      </trkpt>
      <trkpt lat="46.33221" lon="-1.31411">
        <ele>1.2</ele>
        <time>2021-06-17T11:04:02.000Z</time>
      </trkpt>
      <trkpt lat="46.3322" lon="-1.3141">
        <ele>1.2</ele>
        <time>2021-06-17T11:04:03.000Z</time>
      </trkpt>
      <trkpt lat="46.33219" lon="-1.31409">
        <ele>1.2</ele>
        <time>2021-06-17T11:04:04.000Z</time>
      </trkpt>
      <trkpt lat="46.33218" lon="-1.31408">
        <ele>1.2</ele>
        <time>2021-06-17T11:04:05.000Z</time>
      </trkpt>
      <trkpt lat="46.33217" lon="-1.31407">
        <ele>1.2</ele>
        <time>2021-06-17T11:04:06.000Z</time>
      </trkpt>
      <trkpt lat="46.33216" lon="-1.31406">
        <ele>1.2</ele>
        <time>2021-06-17T11:04:07.000Z</time>
      </trkpt>
      <trkpt lat="46.33215" lon="-1.31405">
        <ele>1.2</ele>
        <time>2021-06-17T11:04:08.000Z</time>
      </trkpt>
      <trkpt lat="46.33214" lon="-1.31404">
        <ele>1.2</ele>
        <time>2021-06-17T11:04:09.000Z</time>
      </trkpt>
      <trkpt lat="46.33213" lon="-1.31403">
        <ele>1.2</ele>
        <time>2021-06-17T11:04:10.000Z</time>
      </trkpt>
      <trkpt lat="46.33212" lon="-1.31402">
        <ele>1.2</ele>
        <time>2021-06-17T11:04:11.000Z</time>
      </trkpt>
      <trkpt lat="46.33211" lon="-1.31401">
        <ele>1.2</ele>
        <time>2021-06-17T11:04:12.000Z</time>
      </trkpt>
      <trkpt lat="46.3321" lon="-1.314">
        <ele>1.2</ele>
        <time>2021-06-17T11:04:13.000Z</time>
      </trkpt>
      <trkpt lat="46.33209" lon="-1.314">
        <ele>1.2</ele>
        <time>2021-06-17T11:04:14.000Z</time>
      </trkpt>
      <trkpt lat="46.33208" lon="-1.31399">
        <ele>1.2</ele>
        <time>2021-06-17T11:04:15.000Z</time>
      </trkpt>
      <trkpt lat="46.33206" lon="-1.31398">
        <ele>1.2</ele>
        <time>2021-06-17T11:04:16.000Z</time>
      </trkpt>
      <trkpt lat="46.33205" lon="-1.31397">
        <ele>1.2</ele>
        <time>2021-06-17T11:04:17.000Z</time>
      </trkpt>
      <trkpt lat="46.33204" lon="-1.31396">
        <ele>1.2</ele>
        <time>2021-06-17T11:04:18.000Z</time>
      </trkpt>
      <trkpt lat="46.33203" lon="-1.31395">
        <ele>1.2</ele>
        <time>2021-06-17T11:04:19.000Z</time>
      </trkpt>
      <trkpt lat="46.33202" lon="-1.31394">
        <ele>1.2</ele>
        <time>2021-06-17T11:04:20.000Z</time>
      </trkpt>
      <trkpt lat="46.33201" lon="-1.31394">
        <ele>1.2</ele>
        <time>2021-06-17T11:04:21.000Z</time>
      </trkpt>
      <trkpt lat="46.332" lon="-1.31393">
        <ele>1.2</ele>
        <time>2021-06-17T11:04:22.000Z</time>
      </trkpt>
      <trkpt lat="46.33199" lon="-1.31392">
        <ele>1.2</ele>
        <time>2021-06-17T11:04:23.000Z</time>
      </trkpt>
      <trkpt lat="46.33198" lon="-1.31391">
        <ele>1.2</ele>
        <time>2021-06-17T11:04:24.000Z</time>
      </trkpt>
      <trkpt lat="46.33197" lon="-1.3139">
        <ele>1.2</ele>
        <time>2021-06-17T11:04:25.000Z</time>
      </trkpt>
      <trkpt lat="46.33196" lon="-1.31389">
        <ele>1.2</ele>
        <time>2021-06-17T11:04:26.000Z</time>
      </trkpt>
      <trkpt lat="46.33195" lon="-1.31389">
        <ele>1.2</ele>
        <time>2021-06-17T11:04:27.000Z</time>
      </trkpt>
      <trkpt lat="46.33194" lon="-1.31388">
        <ele>1.2</ele>
        <time>2021-06-17T11:04:28.000Z</time>
      </trkpt>
      <trkpt lat="46.33193" lon="-1.31387">
        <ele>1.2</ele>
        <time>2021-06-17T11:04:29.000Z</time>
      </trkpt>
      <trkpt lat="46.33192" lon="-1.31386">
        <ele>1.2</ele>
        <time>2021-06-17T11:04:30.000Z</time>
      </trkpt>
      <trkpt lat="46.33191" lon="-1.31386">
        <ele>1.2</ele>
        <time>2021-06-17T11:04:31.000Z</time>
      </trkpt>
      <trkpt lat="46.3319" lon="-1.31385">
        <ele>1.2</ele>
        <time>2021-06-17T11:04:32.000Z</time>
      </trkpt>
      <trkpt lat="46.33189" lon="-1.31384">
        <ele>1.2</ele>
        <time>2021-06-17T11:04:33.000Z</time>
      </trkpt>
      <trkpt lat="46.33188" lon="-1.31384">
        <ele>1.2</ele>
        <time>2021-06-17T11:04:34.000Z</time>
      </trkpt>
      <trkpt lat="46.33187" lon="-1.31383">
        <ele>1.2</ele>
        <time>2021-06-17T11:04:35.000Z</time>
      </trkpt>
      <trkpt lat="46.33186" lon="-1.31382">
        <ele>1.3</ele>
        <time>2021-06-17T11:04:36.000Z</time>
      </trkpt>
      <trkpt lat="46.33185" lon="-1.31382">
        <ele>1.3</ele>
        <time>2021-06-17T11:04:37.000Z</time>
      </trkpt>
      <trkpt lat="46.33184" lon="-1.31381">
        <ele>1.3</ele>
        <time>2021-06-17T11:04:38.000Z</time>
      </trkpt>
      <trkpt lat="46.33183" lon="-1.3138">
        <ele>1.3</ele>
        <time>2021-06-17T11:04:39.000Z</time>
      </trkpt>
      <trkpt lat="46.33182" lon="-1.3138">
        <ele>1.3</ele>
        <time>2021-06-17T11:04:40.000Z</time>
      </trkpt>
      <trkpt lat="46.33181" lon="-1.31379">
        <ele>1.3</ele>
        <time>2021-06-17T11:04:41.000Z</time>
      </trkpt>
      <trkpt lat="46.3318" lon="-1.31379">
        <ele>1.3</ele>
        <time>2021-06-17T11:04:42.000Z</time>
      </trkpt>
      <trkpt lat="46.33179" lon="-1.31378">
        <ele>1.3</ele>
        <time>2021-06-17T11:04:43.000Z</time>
      </trkpt>
      <trkpt lat="46.33178" lon="-1.31377">
        <ele>1.3</ele>
        <time>2021-06-17T11:04:44.000Z</time>
      </trkpt>
      <trkpt lat="46.33177" lon="-1.31377">
        <ele>1.3</ele>
        <time>2021-06-17T11:04:45.000Z</time>
      </trkpt>
      <trkpt lat="46.33176" lon="-1.31376">
        <ele>1.4</ele>
        <time>2021-06-17T11:04:46.000Z</time>
      </trkpt>
      <trkpt lat="46.33174" lon="-1.31376">
        <ele>1.4</ele>
        <time>2021-06-17T11:04:47.000Z</time>
      </trkpt>
      <trkpt lat="46.33173" lon="-1.31376">
        <ele>1.4</ele>
        <time>2021-06-17T11:04:48.000Z</time>
      </trkpt>
      <trkpt lat="46.33172" lon="-1.31376">
        <ele>1.4</ele>
        <time>2021-06-17T11:04:49.000Z</time>
      </trkpt>
      <trkpt lat="46.33171" lon="-1.31376">
        <ele>1.4</ele>
        <time>2021-06-17T11:04:50.000Z</time>
      </trkpt>
      <trkpt lat="46.3317" lon="-1.31376">
        <ele>1.5</ele>
        <time>2021-06-17T11:04:51.000Z</time>
      </trkpt>
      <trkpt lat="46.33169" lon="-1.31376">
        <ele>1.5</ele>
        <time>2021-06-17T11:04:52.000Z</time>
      </trkpt>
      <trkpt lat="46.33167" lon="-1.31377">
        <ele>1.5</ele>
        <time>2021-06-17T11:04:53.000Z</time>
      </trkpt>
      <trkpt lat="46.33166" lon="-1.31378">
        <ele>1.5</ele>
        <time>2021-06-17T11:04:54.000Z</time>
      </trkpt>
      <trkpt lat="46.33165" lon="-1.31379">
        <ele>1.5</ele>
        <time>2021-06-17T11:04:55.000Z</time>
      </trkpt>
      <trkpt lat="46.33164" lon="-1.3138">
        <ele>1.5</ele>
        <time>2021-06-17T11:04:56.000Z</time>
      </trkpt>
      <trkpt lat="46.33163" lon="-1.31382">
        <ele>1.6</ele>
        <time>2021-06-17T11:04:57.000Z</time>
      </trkpt>
      <trkpt lat="46.33162" lon="-1.31383">
        <ele>1.6</ele>
        <time>2021-06-17T11:04:58.000Z</time>
      </trkpt>
      <trkpt lat="46.33161" lon="-1.31384">
        <ele>1.6</ele>
        <time>2021-06-17T11:04:59.000Z</time>
      </trkpt>
      <trkpt lat="46.3316" lon="-1.31385">
        <ele>1.6</ele>
        <time>2021-06-17T11:05:00.000Z</time>
      </trkpt>
      <trkpt lat="46.33159" lon="-1.31387">
        <ele>1.6</ele>
        <time>2021-06-17T11:05:01.000Z</time>
      </trkpt>
      <trkpt lat="46.33159" lon="-1.31388">
        <ele>1.6</ele>
        <time>2021-06-17T11:05:02.000Z</time>
      </trkpt>
      <trkpt lat="46.33158" lon="-1.31389">
        <ele>1.6</ele>
        <time>2021-06-17T11:05:03.000Z</time>
      </trkpt>
      <trkpt lat="46.33157" lon="-1.31391">
        <ele>1.7</ele>
        <time>2021-06-17T11:05:04.000Z</time>
      </trkpt>
      <trkpt lat="46.33157" lon="-1.31392">
        <ele>1.7</ele>
        <time>2021-06-17T11:05:05.000Z</time>
      </trkpt>
      <trkpt lat="46.33156" lon="-1.31394">
        <ele>1.7</ele>
        <time>2021-06-17T11:05:06.000Z</time>
      </trkpt>
      <trkpt lat="46.33155" lon="-1.31395">
        <ele>1.7</ele>
        <time>2021-06-17T11:05:07.000Z</time>
      </trkpt>
      <trkpt lat="46.33155" lon="-1.31396">
        <ele>1.7</ele>
        <time>2021-06-17T11:05:08.000Z</time>
      </trkpt>
      <trkpt lat="46.33154" lon="-1.31398">
        <ele>1.7</ele>
        <time>2021-06-17T11:05:09.000Z</time>
      </trkpt>
      <trkpt lat="46.33153" lon="-1.31399">
        <ele>1.8</ele>
        <time>2021-06-17T11:05:10.000Z</time>
      </trkpt>
      <trkpt lat="46.33153" lon="-1.31401">
        <ele>1.8</ele>
        <time>2021-06-17T11:05:11.000Z</time>
      </trkpt>
      <trkpt lat="46.33152" lon="-1.31402">
        <ele>1.8</ele>
        <time>2021-06-17T11:05:12.000Z</time>
      </trkpt>
      <trkpt lat="46.33152" lon="-1.31403">
        <ele>1.8</ele>
        <time>2021-06-17T11:05:13.000Z</time>
      </trkpt>
      <trkpt lat="46.33151" lon="-1.31405">
        <ele>1.8</ele>
        <time>2021-06-17T11:05:14.000Z</time>
      </trkpt>
      <trkpt lat="46.33151" lon="-1.31406">
        <ele>1.8</ele>
        <time>2021-06-17T11:05:15.000Z</time>
      </trkpt>
      <trkpt lat="46.3315" lon="-1.31408">
        <ele>1.9</ele>
        <time>2021-06-17T11:05:16.000Z</time>
      </trkpt>
      <trkpt lat="46.33149" lon="-1.31409">
        <ele>1.9</ele>
        <time>2021-06-17T11:05:17.000Z</time>
      </trkpt>
      <trkpt lat="46.33149" lon="-1.3141">
        <ele>1.9</ele>
        <time>2021-06-17T11:05:18.000Z</time>
      </trkpt>
      <trkpt lat="46.33148" lon="-1.31412">
        <ele>1.9</ele>
        <time>2021-06-17T11:05:19.000Z</time>
      </trkpt>
      <trkpt lat="46.33148" lon="-1.31413">
        <ele>2</ele>
        <time>2021-06-17T11:05:20.000Z</time>
      </trkpt>
      <trkpt lat="46.33147" lon="-1.31415">
        <ele>2</ele>
        <time>2021-06-17T11:05:21.000Z</time>
      </trkpt>
      <trkpt lat="46.33147" lon="-1.31416">
        <ele>2</ele>
        <time>2021-06-17T11:05:22.000Z</time>
      </trkpt>
      <trkpt lat="46.33146" lon="-1.31418">
        <ele>2</ele>
        <time>2021-06-17T11:05:23.000Z</time>
      </trkpt>
      <trkpt lat="46.33145" lon="-1.31419">
        <ele>2</ele>
        <time>2021-06-17T11:05:24.000Z</time>
      </trkpt>
      <trkpt lat="46.33145" lon="-1.31421">
        <ele>2</ele>
        <time>2021-06-17T11:05:25.000Z</time>
      </trkpt>
      <trkpt lat="46.33144" lon="-1.31422">
        <ele>2.1</ele>
        <time>2021-06-17T11:05:26.000Z</time>
      </trkpt>
      <trkpt lat="46.33144" lon="-1.31423">
        <ele>2.1</ele>
        <time>2021-06-17T11:05:27.000Z</time>
      </trkpt>
      <trkpt lat="46.33143" lon="-1.31425">
        <ele>2.1</ele>
        <time>2021-06-17T11:05:28.000Z</time>
      </trkpt>
      <trkpt lat="46.33143" lon="-1.31426">
        <ele>2.1</ele>
        <time>2021-06-17T11:05:29.000Z</time>
      </trkpt>
      <trkpt lat="46.33142" lon="-1.31428">
        <ele>2.1</ele>
        <time>2021-06-17T11:05:30.000Z</time>
      </trkpt>
      <trkpt lat="46.33141" lon="-1.31429">
        <ele>2.2</ele>
        <time>2021-06-17T11:05:31.000Z</time>
      </trkpt>
      <trkpt lat="46.33141" lon="-1.31431">
        <ele>2.2</ele>
        <time>2021-06-17T11:05:32.000Z</time>
      </trkpt>
      <trkpt lat="46.3314" lon="-1.31432">
        <ele>2.2</ele>
        <time>2021-06-17T11:05:33.000Z</time>
      </trkpt>
      <trkpt lat="46.3314" lon="-1.31434">
        <ele>2.2</ele>
        <time>2021-06-17T11:05:34.000Z</time>
      </trkpt>
      <trkpt lat="46.33139" lon="-1.31435">
        <ele>2.2</ele>
        <time>2021-06-17T11:05:35.000Z</time>
      </trkpt>
      <trkpt lat="46.33138" lon="-1.31437">
        <ele>2.2</ele>
        <time>2021-06-17T11:05:36.000Z</time>
      </trkpt>
      <trkpt lat="46.33138" lon="-1.31438">
        <ele>2.3</ele>
        <time>2021-06-17T11:05:37.000Z</time>
      </trkpt>
      <trkpt lat="46.33137" lon="-1.31439">
        <ele>2.3</ele>
        <time>2021-06-17T11:05:38.000Z</time>
      </trkpt>
      <trkpt lat="46.33137" lon="-1.31441">
        <ele>2.3</ele>
        <time>2021-06-17T11:05:39.000Z</time>
      </trkpt>
      <trkpt lat="46.33136" lon="-1.31442">
        <ele>2.3</ele>
        <time>2021-06-17T11:05:40.000Z</time>
      </trkpt>
      <trkpt lat="46.33136" lon="-1.31444">
        <ele>2.3</ele>
        <time>2021-06-17T11:05:41.000Z</time>
      </trkpt>
      <trkpt lat="46.33135" lon="-1.31445">
        <ele>2.3</ele>
        <time>2021-06-17T11:05:42.000Z</time>
      </trkpt>
      <trkpt lat="46.33135" lon="-1.31447">
        <ele>2.4</ele>
        <time>2021-06-17T11:05:43.000Z</time>
      </trkpt>
      <trkpt lat="46.33134" lon="-1.31448">
        <ele>2.4</ele>
        <time>2021-06-17T11:05:44.000Z</time>
      </trkpt>
      <trkpt lat="46.33133" lon="-1.31449">
        <ele>2.4</ele>
        <time>2021-06-17T11:05:45.000Z</time>
      </trkpt>
      <trkpt lat="46.33133" lon="-1.31451">
        <ele>2.4</ele>
        <time>2021-06-17T11:05:46.000Z</time>
      </trkpt>
      <trkpt lat="46.33132" lon="-1.31452">
        <ele>2.4</ele>
        <time>2021-06-17T11:05:47.000Z</time>
      </trkpt>
      <trkpt lat="46.33132" lon="-1.31454">
        <ele>2.4</ele>
        <time>2021-06-17T11:05:48.000Z</time>
      </trkpt>
      <trkpt lat="46.33131" lon="-1.31455">
        <ele>2.5</ele>
        <time>2021-06-17T11:05:49.000Z</time>
      </trkpt>
      <trkpt lat="46.33131" lon="-1.31456">
        <ele>2.5</ele>
        <time>2021-06-17T11:05:50.000Z</time>
      </trkpt>
      <trkpt lat="46.3313" lon="-1.31458">
        <ele>2.5</ele>
        <time>2021-06-17T11:05:51.000Z</time>
      </trkpt>
      <trkpt lat="46.33129" lon="-1.31459">
        <ele>2.5</ele>
        <time>2021-06-17T11:05:52.000Z</time>
      </trkpt>
      <trkpt lat="46.33129" lon="-1.31461">
        <ele>2.5</ele>
        <time>2021-06-17T11:05:53.000Z</time>
      </trkpt>
      <trkpt lat="46.33128" lon="-1.31462">
        <ele>2.5</ele>
        <time>2021-06-17T11:05:54.000Z</time>
      </trkpt>
      <trkpt lat="46.33128" lon="-1.31463">
        <ele>2.6</ele>
        <time>2021-06-17T11:05:55.000Z</time>
      </trkpt>
      <trkpt lat="46.33127" lon="-1.31465">
        <ele>2.6</ele>
        <time>2021-06-17T11:05:56.000Z</time>
      </trkpt>
      <trkpt lat="46.33127" lon="-1.31466">
        <ele>2.6</ele>
        <time>2021-06-17T11:05:57.000Z</time>
      </trkpt>
      <trkpt lat="46.33126" lon="-1.31468">
        <ele>2.6</ele>
        <time>2021-06-17T11:05:58.000Z</time>
      </trkpt>
      <trkpt lat="46.33126" lon="-1.31469">
        <ele>2.6</ele>
        <time>2021-06-17T11:05:59.000Z</time>
      </trkpt>
      <trkpt lat="46.33125" lon="-1.31471">
        <ele>2.6</ele>
        <time>2021-06-17T11:06:00.000Z</time>
      </trkpt>
      <trkpt lat="46.33124" lon="-1.31472">
        <ele>2.7</ele>
        <time>2021-06-17T11:06:01.000Z</time>
      </trkpt>
      <trkpt lat="46.33124" lon="-1.31473">
        <ele>2.7</ele>
        <time>2021-06-17T11:06:02.000Z</time>
      </trkpt>
      <trkpt lat="46.33123" lon="-1.31475">
        <ele>2.7</ele>
        <time>2021-06-17T11:06:03.000Z</time>
      </trkpt>
      <trkpt lat="46.33123" lon="-1.31476">
        <ele>2.7</ele>
        <time>2021-06-17T11:06:04.000Z</time>
      </trkpt>
      <trkpt lat="46.33122" lon="-1.31478">
        <ele>2.7</ele>
        <time>2021-06-17T11:06:05.000Z</time>
      </trkpt>
      <trkpt lat="46.33122" lon="-1.31479">
        <ele>2.7</ele>
        <time>2021-06-17T11:06:06.000Z</time>
      </trkpt>
      <trkpt lat="46.33121" lon="-1.31481">
        <ele>2.8</ele>
        <time>2021-06-17T11:06:07.000Z</time>
      </trkpt>
      <trkpt lat="46.3312" lon="-1.31482">
        <ele>2.8</ele>
        <time>2021-06-17T11:06:08.000Z</time>
      </trkpt>
      <trkpt lat="46.3312" lon="-1.31483">
        <ele>2.8</ele>
        <time>2021-06-17T11:06:09.000Z</time>
      </trkpt>
      <trkpt lat="46.33119" lon="-1.31485">
        <ele>2.8</ele>
        <time>2021-06-17T11:06:10.000Z</time>
      </trkpt>
      <trkpt lat="46.33119" lon="-1.31486">
        <ele>2.8</ele>
        <time>2021-06-17T11:06:11.000Z</time>
      </trkpt>
      <trkpt lat="46.33118" lon="-1.31488">
        <ele>2.9</ele>
        <time>2021-06-17T11:06:12.000Z</time>
      </trkpt>
      <trkpt lat="46.33118" lon="-1.31489">
        <ele>2.9</ele>
        <time>2021-06-17T11:06:13.000Z</time>
      </trkpt>
      <trkpt lat="46.33117" lon="-1.31491">
        <ele>2.9</ele>
        <time>2021-06-17T11:06:14.000Z</time>
      </trkpt>
      <trkpt lat="46.33116" lon="-1.31492">
        <ele>2.9</ele>
        <time>2021-06-17T11:06:15.000Z</time>
      </trkpt>
      <trkpt lat="46.33116" lon="-1.31494">
        <ele>2.9</ele>
        <time>2021-06-17T11:06:16.000Z</time>
      </trkpt>
      <trkpt lat="46.33115" lon="-1.31495">
        <ele>2.9</ele>
        <time>2021-06-17T11:06:17.000Z</time>
      </trkpt>
      <trkpt lat="46.33115" lon="-1.31496">
        <ele>3</ele>
        <time>2021-06-17T11:06:18.000Z</time>
      </trkpt>
      <trkpt lat="46.33114" lon="-1.31498">
        <ele>3</ele>
        <time>2021-06-17T11:06:19.000Z</time>
      </trkpt>
      <trkpt lat="46.33113" lon="-1.31499">
        <ele>3</ele>
        <time>2021-06-17T11:06:20.000Z</time>
      </trkpt>
      <trkpt lat="46.33113" lon="-1.31501">
        <ele>3</ele>
        <time>2021-06-17T11:06:21.000Z</time>
      </trkpt>
      <trkpt lat="46.33112" lon="-1.31502">
        <ele>3</ele>
        <time>2021-06-17T11:06:22.000Z</time>
      </trkpt>
      <trkpt lat="46.33112" lon="-1.31504">
        <ele>3</ele>
        <time>2021-06-17T11:06:23.000Z</time>
      </trkpt>
      <trkpt lat="46.33111" lon="-1.31505">
        <ele>3</ele>
        <time>2021-06-17T11:06:24.000Z</time>
      </trkpt>
      <trkpt lat="46.33111" lon="-1.31507">
        <ele>3</ele>
        <time>2021-06-17T11:06:25.000Z</time>
      </trkpt>
      <trkpt lat="46.3311" lon="-1.31508">
        <ele>3</ele>
        <time>2021-06-17T11:06:26.000Z</time>
      </trkpt>
      <trkpt lat="46.33109" lon="-1.3151">
        <ele>3</ele>
        <time>2021-06-17T11:06:27.000Z</time>
      </trkpt>
      <trkpt lat="46.33109" lon="-1.31511">
        <ele>3</ele>
        <time>2021-06-17T11:06:28.000Z</time>
      </trkpt>
      <trkpt lat="46.33108" lon="-1.31512">
        <ele>3</ele>
        <time>2021-06-17T11:06:29.000Z</time>
      </trkpt>
      <trkpt lat="46.33108" lon="-1.31514">
        <ele>3</ele>
        <time>2021-06-17T11:06:30.000Z</time>
      </trkpt>
      <trkpt lat="46.33107" lon="-1.31515">
        <ele>2.9</ele>
        <time>2021-06-17T11:06:31.000Z</time>
      </trkpt>
      <trkpt lat="46.33106" lon="-1.31517">
        <ele>2.9</ele>
        <time>2021-06-17T11:06:32.000Z</time>
      </trkpt>
      <trkpt lat="46.33106" lon="-1.31518">
        <ele>2.9</ele>
        <time>2021-06-17T11:06:33.000Z</time>
      </trkpt>
      <trkpt lat="46.33105" lon="-1.3152">
        <ele>2.9</ele>
        <time>2021-06-17T11:06:34.000Z</time>
      </trkpt>
      <trkpt lat="46.33105" lon="-1.31521">
        <ele>2.9</ele>
        <time>2021-06-17T11:06:35.000Z</time>
      </trkpt>
      <trkpt lat="46.33104" lon="-1.31522">
        <ele>2.9</ele>
        <time>2021-06-17T11:06:36.000Z</time>
      </trkpt>
      <trkpt lat="46.33104" lon="-1.31524">
        <ele>2.9</ele>
        <time>2021-06-17T11:06:37.000Z</time>
      </trkpt>
      <trkpt lat="46.33103" lon="-1.31525">
        <ele>2.9</ele>
        <time>2021-06-17T11:06:38.000Z</time>
      </trkpt>
      <trkpt lat="46.33103" lon="-1.31527">
        <ele>2.9</ele>
        <time>2021-06-17T11:06:39.000Z</time>
      </trkpt>
      <trkpt lat="46.33102" lon="-1.31528">
        <ele>2.9</ele>
        <time>2021-06-17T11:06:40.000Z</time>
      </trkpt>
      <trkpt lat="46.33101" lon="-1.3153">
        <ele>2.9</ele>
        <time>2021-06-17T11:06:41.000Z</time>
      </trkpt>
      <trkpt lat="46.33101" lon="-1.31531">
        <ele>2.9</ele>
        <time>2021-06-17T11:06:42.000Z</time>
      </trkpt>
      <trkpt lat="46.331" lon="-1.31532">
        <ele>2.9</ele>
        <time>2021-06-17T11:06:43.000Z</time>
      </trkpt>
      <trkpt lat="46.331" lon="-1.31534">
        <ele>2.9</ele>
        <time>2021-06-17T11:06:44.000Z</time>
      </trkpt>
      <trkpt lat="46.33099" lon="-1.31535">
        <ele>2.9</ele>
        <time>2021-06-17T11:06:45.000Z</time>
      </trkpt>
      <trkpt lat="46.33099" lon="-1.31537">
        <ele>2.9</ele>
        <time>2021-06-17T11:06:46.000Z</time>
      </trkpt>
      <trkpt lat="46.33098" lon="-1.31538">
        <ele>2.9</ele>
        <time>2021-06-17T11:06:47.000Z</time>
      </trkpt>
      <trkpt lat="46.33098" lon="-1.3154">
        <ele>2.9</ele>
        <time>2021-06-17T11:06:48.000Z</time>
      </trkpt>
      <trkpt lat="46.33097" lon="-1.31541">
        <ele>2.9</ele>
        <time>2021-06-17T11:06:49.000Z</time>
      </trkpt>
      <trkpt lat="46.33097" lon="-1.31542">
        <ele>2.9</ele>
        <time>2021-06-17T11:06:50.000Z</time>
      </trkpt>
      <trkpt lat="46.33096" lon="-1.31544">
        <ele>2.9</ele>
        <time>2021-06-17T11:06:51.000Z</time>
      </trkpt>
      <trkpt lat="46.33095" lon="-1.31545">
        <ele>2.9</ele>
        <time>2021-06-17T11:06:52.000Z</time>
      </trkpt>
      <trkpt lat="46.33095" lon="-1.31547">
        <ele>2.9</ele>
        <time>2021-06-17T11:06:53.000Z</time>
      </trkpt>
      <trkpt lat="46.33094" lon="-1.31548">
        <ele>2.9</ele>
        <time>2021-06-17T11:06:54.000Z</time>
      </trkpt>
      <trkpt lat="46.33094" lon="-1.3155">
        <ele>2.9</ele>
        <time>2021-06-17T11:06:55.000Z</time>
      </trkpt>
      <trkpt lat="46.33093" lon="-1.31551">
        <ele>2.9</ele>
        <time>2021-06-17T11:06:56.000Z</time>
      </trkpt>
      <trkpt lat="46.33093" lon="-1.31553">
        <ele>2.9</ele>
        <time>2021-06-17T11:06:57.000Z</time>
      </trkpt>
      <trkpt lat="46.33092" lon="-1.31554">
        <ele>2.9</ele>
        <time>2021-06-17T11:06:58.000Z</time>
      </trkpt>
      <trkpt lat="46.33092" lon="-1.31556">
        <ele>2.9</ele>
        <time>2021-06-17T11:06:59.000Z</time>
      </trkpt>
      <trkpt lat="46.33091" lon="-1.31557">
        <ele>2.9</ele>
        <time>2021-06-17T11:07:00.000Z</time>
      </trkpt>
      <trkpt lat="46.3309" lon="-1.31559">
        <ele>2.9</ele>
        <time>2021-06-17T11:07:01.000Z</time>
      </trkpt>
      <trkpt lat="46.3309" lon="-1.3156">
        <ele>2.9</ele>
        <time>2021-06-17T11:07:02.000Z</time>
      </trkpt>
      <trkpt lat="46.33089" lon="-1.31562">
        <ele>2.9</ele>
        <time>2021-06-17T11:07:03.000Z</time>
      </trkpt>
      <trkpt lat="46.33089" lon="-1.31563">
        <ele>3</ele>
        <time>2021-06-17T11:07:04.000Z</time>
      </trkpt>
      <trkpt lat="46.33088" lon="-1.31565">
        <ele>3</ele>
        <time>2021-06-17T11:07:05.000Z</time>
      </trkpt>
      <trkpt lat="46.33088" lon="-1.31567">
        <ele>3</ele>
        <time>2021-06-17T11:07:06.000Z</time>
      </trkpt>
      <trkpt lat="46.33087" lon="-1.31568">
        <ele>3</ele>
        <time>2021-06-17T11:07:07.000Z</time>
      </trkpt>
      <trkpt lat="46.33087" lon="-1.3157">
        <ele>3</ele>
        <time>2021-06-17T11:07:08.000Z</time>
      </trkpt>
      <trkpt lat="46.33086" lon="-1.31571">
        <ele>3</ele>
        <time>2021-06-17T11:07:09.000Z</time>
      </trkpt>
      <trkpt lat="46.33085" lon="-1.31573">
        <ele>3</ele>
        <time>2021-06-17T11:07:10.000Z</time>
      </trkpt>
      <trkpt lat="46.33085" lon="-1.31574">
        <ele>3</ele>
        <time>2021-06-17T11:07:11.000Z</time>
      </trkpt>
      <trkpt lat="46.33084" lon="-1.31576">
        <ele>3</ele>
        <time>2021-06-17T11:07:12.000Z</time>
      </trkpt>
      <trkpt lat="46.33084" lon="-1.31578">
        <ele>3</ele>
        <time>2021-06-17T11:07:13.000Z</time>
      </trkpt>
      <trkpt lat="46.33083" lon="-1.31579">
        <ele>3</ele>
        <time>2021-06-17T11:07:14.000Z</time>
      </trkpt>
      <trkpt lat="46.33083" lon="-1.31581">
        <ele>3</ele>
        <time>2021-06-17T11:07:15.000Z</time>
      </trkpt>
      <trkpt lat="46.33082" lon="-1.31583">
        <ele>3</ele>
        <time>2021-06-17T11:07:16.000Z</time>
      </trkpt>
      <trkpt lat="46.33081" lon="-1.31584">
        <ele>3</ele>
        <time>2021-06-17T11:07:17.000Z</time>
      </trkpt>
      <trkpt lat="46.33081" lon="-1.31586">
        <ele>3</ele>
        <time>2021-06-17T11:07:18.000Z</time>
      </trkpt>
      <trkpt lat="46.3308" lon="-1.31587">
        <ele>3</ele>
        <time>2021-06-17T11:07:19.000Z</time>
      </trkpt>
      <trkpt lat="46.3308" lon="-1.31589">
        <ele>3</ele>
        <time>2021-06-17T11:07:20.000Z</time>
      </trkpt>
      <trkpt lat="46.33079" lon="-1.3159">
        <ele>3</ele>
        <time>2021-06-17T11:07:21.000Z</time>
      </trkpt>
      <trkpt lat="46.33078" lon="-1.31592">
        <ele>3</ele>
        <time>2021-06-17T11:07:22.000Z</time>
      </trkpt>
      <trkpt lat="46.33078" lon="-1.31594">
        <ele>3</ele>
        <time>2021-06-17T11:07:23.000Z</time>
      </trkpt>
      <trkpt lat="46.33077" lon="-1.31595">
        <ele>3</ele>
        <time>2021-06-17T11:07:24.000Z</time>
      </trkpt>
      <trkpt lat="46.33077" lon="-1.31597">
        <ele>3</ele>
        <time>2021-06-17T11:07:25.000Z</time>
      </trkpt>
      <trkpt lat="46.33076" lon="-1.31598">
        <ele>3</ele>
        <time>2021-06-17T11:07:26.000Z</time>
      </trkpt>
      <trkpt lat="46.33075" lon="-1.316">
        <ele>3</ele>
        <time>2021-06-17T11:07:27.000Z</time>
      </trkpt>
      <trkpt lat="46.33075" lon="-1.31601">
        <ele>3</ele>
        <time>2021-06-17T11:07:28.000Z</time>
      </trkpt>
      <trkpt lat="46.33074" lon="-1.31603">
        <ele>3</ele>
        <time>2021-06-17T11:07:29.000Z</time>
      </trkpt>
      <trkpt lat="46.33074" lon="-1.31604">
        <ele>3</ele>
        <time>2021-06-17T11:07:30.000Z</time>
      </trkpt>
      <trkpt lat="46.33073" lon="-1.31605">
        <ele>3</ele>
        <time>2021-06-17T11:07:31.000Z</time>
      </trkpt>
      <trkpt lat="46.33072" lon="-1.31607">
        <ele>3</ele>
        <time>2021-06-17T11:07:32.000Z</time>
      </trkpt>
      <trkpt lat="46.33072" lon="-1.31608">
        <ele>3</ele>
        <time>2021-06-17T11:07:33.000Z</time>
      </trkpt>
      <trkpt lat="46.33071" lon="-1.3161">
        <ele>3</ele>
        <time>2021-06-17T11:07:34.000Z</time>
      </trkpt>
      <trkpt lat="46.33071" lon="-1.31611">
        <ele>3</ele>
        <time>2021-06-17T11:07:35.000Z</time>
      </trkpt>
      <trkpt lat="46.3307" lon="-1.31612">
        <ele>3</ele>
        <time>2021-06-17T11:07:36.000Z</time>
      </trkpt>
      <trkpt lat="46.33069" lon="-1.31614">
        <ele>3</ele>
        <time>2021-06-17T11:07:37.000Z</time>
      </trkpt>
      <trkpt lat="46.33069" lon="-1.31615">
        <ele>3</ele>
        <time>2021-06-17T11:07:38.000Z</time>
      </trkpt>
      <trkpt lat="46.33068" lon="-1.31617">
        <ele>3</ele>
        <time>2021-06-17T11:07:39.000Z</time>
      </trkpt>
      <trkpt lat="46.33068" lon="-1.31619">
        <ele>3</ele>
        <time>2021-06-17T11:07:40.000Z</time>
      </trkpt>
      <trkpt lat="46.33067" lon="-1.3162">
        <ele>3</ele>
        <time>2021-06-17T11:07:41.000Z</time>
      </trkpt>
      <trkpt lat="46.33067" lon="-1.31622">
        <ele>3</ele>
        <time>2021-06-17T11:07:42.000Z</time>
      </trkpt>
      <trkpt lat="46.33066" lon="-1.31624">
        <ele>3</ele>
        <time>2021-06-17T11:07:43.000Z</time>
      </trkpt>
      <trkpt lat="46.33066" lon="-1.31625">
        <ele>3</ele>
        <time>2021-06-17T11:07:44.000Z</time>
      </trkpt>
      <trkpt lat="46.33065" lon="-1.31627">
        <ele>3</ele>
        <time>2021-06-17T11:07:45.000Z</time>
      </trkpt>
      <trkpt lat="46.33064" lon="-1.31628">
        <ele>3</ele>
        <time>2021-06-17T11:07:46.000Z</time>
      </trkpt>
      <trkpt lat="46.33063" lon="-1.31629">
        <ele>3</ele>
        <time>2021-06-17T11:07:47.000Z</time>
      </trkpt>
      <trkpt lat="46.33063" lon="-1.3163">
        <ele>3</ele>
        <time>2021-06-17T11:07:48.000Z</time>
      </trkpt>
      <trkpt lat="46.33062" lon="-1.3163">
        <ele>3</ele>
        <time>2021-06-17T11:07:49.000Z</time>
      </trkpt>
      <trkpt lat="46.33061" lon="-1.31631">
        <ele>3</ele>
        <time>2021-06-17T11:07:50.000Z</time>
      </trkpt>
      <trkpt lat="46.3306" lon="-1.31631">
        <ele>3</ele>
        <time>2021-06-17T11:07:51.000Z</time>
      </trkpt>
      <trkpt lat="46.33059" lon="-1.31631">
        <ele>3</ele>
        <time>2021-06-17T11:07:52.000Z</time>
      </trkpt>
      <trkpt lat="46.33057" lon="-1.3163">
        <ele>3</ele>
        <time>2021-06-17T11:07:53.000Z</time>
      </trkpt>
      <trkpt lat="46.33056" lon="-1.31629">
        <ele>3</ele>
        <time>2021-06-17T11:07:54.000Z</time>
      </trkpt>
      <trkpt lat="46.33055" lon="-1.31628">
        <ele>3</ele>
        <time>2021-06-17T11:07:55.000Z</time>
      </trkpt>
      <trkpt lat="46.33054" lon="-1.31627">
        <ele>3</ele>
        <time>2021-06-17T11:07:56.000Z</time>
      </trkpt>
      <trkpt lat="46.33053" lon="-1.31626">
        <ele>3</ele>
        <time>2021-06-17T11:07:57.000Z</time>
      </trkpt>
      <trkpt lat="46.33052" lon="-1.31625">
        <ele>3</ele>
        <time>2021-06-17T11:07:58.000Z</time>
      </trkpt>
      <trkpt lat="46.33051" lon="-1.31624">
        <ele>3</ele>
        <time>2021-06-17T11:07:59.000Z</time>
      </trkpt>
      <trkpt lat="46.3305" lon="-1.31622">
        <ele>3</ele>
        <time>2021-06-17T11:08:00.000Z</time>
      </trkpt>
      <trkpt lat="46.33049" lon="-1.31621">
        <ele>3</ele>
        <time>2021-06-17T11:08:01.000Z</time>
      </trkpt>
      <trkpt lat="46.33048" lon="-1.3162">
        <ele>3</ele>
        <time>2021-06-17T11:08:02.000Z</time>
      </trkpt>
      <trkpt lat="46.33046" lon="-1.31618">
        <ele>3</ele>
        <time>2021-06-17T11:08:03.000Z</time>
      </trkpt>
      <trkpt lat="46.33045" lon="-1.31617">
        <ele>3</ele>
        <time>2021-06-17T11:08:04.000Z</time>
      </trkpt>
      <trkpt lat="46.33044" lon="-1.31616">
        <ele>3</ele>
        <time>2021-06-17T11:08:05.000Z</time>
      </trkpt>
      <trkpt lat="46.33043" lon="-1.31615">
        <ele>3</ele>
        <time>2021-06-17T11:08:06.000Z</time>
      </trkpt>
      <trkpt lat="46.33042" lon="-1.31614">
        <ele>3</ele>
        <time>2021-06-17T11:08:07.000Z</time>
      </trkpt>
      <trkpt lat="46.33041" lon="-1.31612">
        <ele>3</ele>
        <time>2021-06-17T11:08:08.000Z</time>
      </trkpt>
      <trkpt lat="46.3304" lon="-1.31611">
        <ele>3</ele>
        <time>2021-06-17T11:08:09.000Z</time>
      </trkpt>
      <trkpt lat="46.33039" lon="-1.3161">
        <ele>3</ele>
        <time>2021-06-17T11:08:10.000Z</time>
      </trkpt>
      <trkpt lat="46.33038" lon="-1.31609">
        <ele>3</ele>
        <time>2021-06-17T11:08:11.000Z</time>
      </trkpt>
      <trkpt lat="46.33037" lon="-1.31608">
        <ele>3</ele>
        <time>2021-06-17T11:08:12.000Z</time>
      </trkpt>
      <trkpt lat="46.33036" lon="-1.31606">
        <ele>3</ele>
        <time>2021-06-17T11:08:13.000Z</time>
      </trkpt>
      <trkpt lat="46.33035" lon="-1.31605">
        <ele>3</ele>
        <time>2021-06-17T11:08:14.000Z</time>
      </trkpt>
      <trkpt lat="46.33034" lon="-1.31604">
        <ele>3</ele>
        <time>2021-06-17T11:08:15.000Z</time>
      </trkpt>
      <trkpt lat="46.33033" lon="-1.31603">
        <ele>3</ele>
        <time>2021-06-17T11:08:16.000Z</time>
      </trkpt>
      <trkpt lat="46.33032" lon="-1.31602">
        <ele>3</ele>
        <time>2021-06-17T11:08:17.000Z</time>
      </trkpt>
      <trkpt lat="46.33031" lon="-1.31601">
        <ele>3</ele>
        <time>2021-06-17T11:08:18.000Z</time>
      </trkpt>
      <trkpt lat="46.3303" lon="-1.31599">
        <ele>3</ele>
        <time>2021-06-17T11:08:19.000Z</time>
      </trkpt>
      <trkpt lat="46.33029" lon="-1.31598">
        <ele>3</ele>
        <time>2021-06-17T11:08:20.000Z</time>
      </trkpt>
      <trkpt lat="46.33028" lon="-1.31597">
        <ele>3</ele>
        <time>2021-06-17T11:08:21.000Z</time>
      </trkpt>
      <trkpt lat="46.33027" lon="-1.31596">
        <ele>3</ele>
        <time>2021-06-17T11:08:22.000Z</time>
      </trkpt>
      <trkpt lat="46.33026" lon="-1.31595">
        <ele>3</ele>
        <time>2021-06-17T11:08:23.000Z</time>
      </trkpt>
      <trkpt lat="46.33025" lon="-1.31594">
        <ele>3</ele>
        <time>2021-06-17T11:08:24.000Z</time>
      </trkpt>
      <trkpt lat="46.33024" lon="-1.31593">
        <ele>3</ele>
        <time>2021-06-17T11:08:25.000Z</time>
      </trkpt>
      <trkpt lat="46.33023" lon="-1.31592">
        <ele>3</ele>
        <time>2021-06-17T11:08:26.000Z</time>
      </trkpt>
      <trkpt lat="46.33022" lon="-1.31591">
        <ele>3</ele>
        <time>2021-06-17T11:08:27.000Z</time>
      </trkpt>
      <trkpt lat="46.33021" lon="-1.31589">
        <ele>3</ele>
        <time>2021-06-17T11:08:28.000Z</time>
      </trkpt>
      <trkpt lat="46.3302" lon="-1.31588">
        <ele>3</ele>
        <time>2021-06-17T11:08:29.000Z</time>
      </trkpt>
      <trkpt lat="46.33019" lon="-1.31587">
        <ele>3</ele>
        <time>2021-06-17T11:08:30.000Z</time>
      </trkpt>
      <trkpt lat="46.33018" lon="-1.31586">
        <ele>3</ele>
        <time>2021-06-17T11:08:31.000Z</time>
      </trkpt>
      <trkpt lat="46.33017" lon="-1.31585">
        <ele>3</ele>
        <time>2021-06-17T11:08:32.000Z</time>
      </trkpt>
      <trkpt lat="46.33016" lon="-1.31584">
        <ele>3</ele>
        <time>2021-06-17T11:08:33.000Z</time>
      </trkpt>
      <trkpt lat="46.33015" lon="-1.31583">
        <ele>3</ele>
        <time>2021-06-17T11:08:34.000Z</time>
      </trkpt>
      <trkpt lat="46.33014" lon="-1.31582">
        <ele>3</ele>
        <time>2021-06-17T11:08:35.000Z</time>
      </trkpt>
      <trkpt lat="46.33013" lon="-1.31582">
        <ele>3</ele>
        <time>2021-06-17T11:08:36.000Z</time>
      </trkpt>
      <trkpt lat="46.33012" lon="-1.31581">
        <ele>3</ele>
        <time>2021-06-17T11:08:37.000Z</time>
      </trkpt>
      <trkpt lat="46.33011" lon="-1.3158">
        <ele>3</ele>
        <time>2021-06-17T11:08:38.000Z</time>
      </trkpt>
      <trkpt lat="46.3301" lon="-1.31579">
        <ele>3</ele>
        <time>2021-06-17T11:08:39.000Z</time>
      </trkpt>
      <trkpt lat="46.33009" lon="-1.31578">
        <ele>3</ele>
        <time>2021-06-17T11:08:40.000Z</time>
      </trkpt>
      <trkpt lat="46.33008" lon="-1.31577">
        <ele>3</ele>
        <time>2021-06-17T11:08:41.000Z</time>
      </trkpt>
      <trkpt lat="46.33007" lon="-1.31576">
        <ele>3</ele>
        <time>2021-06-17T11:08:42.000Z</time>
      </trkpt>
      <trkpt lat="46.33006" lon="-1.31575">
        <ele>3</ele>
        <time>2021-06-17T11:08:43.000Z</time>
      </trkpt>
      <trkpt lat="46.33005" lon="-1.31574">
        <ele>3</ele>
        <time>2021-06-17T11:08:44.000Z</time>
      </trkpt>
      <trkpt lat="46.33004" lon="-1.31573">
        <ele>3</ele>
        <time>2021-06-17T11:08:45.000Z</time>
      </trkpt>
      <trkpt lat="46.33003" lon="-1.31572">
        <ele>3</ele>
        <time>2021-06-17T11:08:46.000Z</time>
      </trkpt>
      <trkpt lat="46.33002" lon="-1.31571">
        <ele>3</ele>
        <time>2021-06-17T11:08:47.000Z</time>
      </trkpt>
      <trkpt lat="46.33001" lon="-1.3157">
        <ele>3</ele>
        <time>2021-06-17T11:08:48.000Z</time>
      </trkpt>
      <trkpt lat="46.33" lon="-1.31569">
        <ele>3</ele>
        <time>2021-06-17T11:08:49.000Z</time>
      </trkpt>
      <trkpt lat="46.32999" lon="-1.31568">
        <ele>3</ele>
        <time>2021-06-17T11:08:50.000Z</time>
      </trkpt>
      <trkpt lat="46.32998" lon="-1.31567">
        <ele>3</ele>
        <time>2021-06-17T11:08:51.000Z</time>
      </trkpt>
      <trkpt lat="46.32997" lon="-1.31565">
        <ele>3</ele>
        <time>2021-06-17T11:08:52.000Z</time>
      </trkpt>
      <trkpt lat="46.32996" lon="-1.31564">
        <ele>3.1</ele>
        <time>2021-06-17T11:08:53.000Z</time>
      </trkpt>
      <trkpt lat="46.32995" lon="-1.31563">
        <ele>3.1</ele>
        <time>2021-06-17T11:08:54.000Z</time>
      </trkpt>
      <trkpt lat="46.32994" lon="-1.31562">
        <ele>3.1</ele>
        <time>2021-06-17T11:08:55.000Z</time>
      </trkpt>
      <trkpt lat="46.32993" lon="-1.31561">
        <ele>3.1</ele>
        <time>2021-06-17T11:08:56.000Z</time>
      </trkpt>
      <trkpt lat="46.32992" lon="-1.3156">
        <ele>3.1</ele>
        <time>2021-06-17T11:08:57.000Z</time>
      </trkpt>
      <trkpt lat="46.32991" lon="-1.31558">
        <ele>3.1</ele>
        <time>2021-06-17T11:08:58.000Z</time>
      </trkpt>
      <trkpt lat="46.3299" lon="-1.31557">
        <ele>3.1</ele>
        <time>2021-06-17T11:08:59.000Z</time>
      </trkpt>
      <trkpt lat="46.32989" lon="-1.31556">
        <ele>3.1</ele>
        <time>2021-06-17T11:09:00.000Z</time>
      </trkpt>
      <trkpt lat="46.32988" lon="-1.31555">
        <ele>3.1</ele>
        <time>2021-06-17T11:09:01.000Z</time>
      </trkpt>
      <trkpt lat="46.32987" lon="-1.31554">
        <ele>3.2</ele>
        <time>2021-06-17T11:09:02.000Z</time>
      </trkpt>
      <trkpt lat="46.32986" lon="-1.31553">
        <ele>3.2</ele>
        <time>2021-06-17T11:09:03.000Z</time>
      </trkpt>
      <trkpt lat="46.32985" lon="-1.31552">
        <ele>3.2</ele>
        <time>2021-06-17T11:09:04.000Z</time>
      </trkpt>
      <trkpt lat="46.32984" lon="-1.31551">
        <ele>3.2</ele>
        <time>2021-06-17T11:09:05.000Z</time>
      </trkpt>
      <trkpt lat="46.32983" lon="-1.3155">
        <ele>3.2</ele>
        <time>2021-06-17T11:09:06.000Z</time>
      </trkpt>
      <trkpt lat="46.32982" lon="-1.31549">
        <ele>3.2</ele>
        <time>2021-06-17T11:09:07.000Z</time>
      </trkpt>
      <trkpt lat="46.32981" lon="-1.31548">
        <ele>3.2</ele>
        <time>2021-06-17T11:09:08.000Z</time>
      </trkpt>
      <trkpt lat="46.3298" lon="-1.31547">
        <ele>3.2</ele>
        <time>2021-06-17T11:09:09.000Z</time>
      </trkpt>
      <trkpt lat="46.32979" lon="-1.31546">
        <ele>3.3</ele>
        <time>2021-06-17T11:09:10.000Z</time>
      </trkpt>
      <trkpt lat="46.32978" lon="-1.31545">
        <ele>3.3</ele>
        <time>2021-06-17T11:09:11.000Z</time>
      </trkpt>
      <trkpt lat="46.32977" lon="-1.31544">
        <ele>3.3</ele>
        <time>2021-06-17T11:09:12.000Z</time>
      </trkpt>
      <trkpt lat="46.32976" lon="-1.31543">
        <ele>3.3</ele>
        <time>2021-06-17T11:09:13.000Z</time>
      </trkpt>
      <trkpt lat="46.32975" lon="-1.31542">
        <ele>3.3</ele>
        <time>2021-06-17T11:09:14.000Z</time>
      </trkpt>
      <trkpt lat="46.32974" lon="-1.31541">
        <ele>3.3</ele>
        <time>2021-06-17T11:09:15.000Z</time>
      </trkpt>
      <trkpt lat="46.32973" lon="-1.3154">
        <ele>3.3</ele>
        <time>2021-06-17T11:09:16.000Z</time>
      </trkpt>
      <trkpt lat="46.32972" lon="-1.31539">
        <ele>3.3</ele>
        <time>2021-06-17T11:09:17.000Z</time>
      </trkpt>
      <trkpt lat="46.32971" lon="-1.31538">
        <ele>3.3</ele>
        <time>2021-06-17T11:09:18.000Z</time>
      </trkpt>
      <trkpt lat="46.3297" lon="-1.31536">
        <ele>3.4</ele>
        <time>2021-06-17T11:09:19.000Z</time>
      </trkpt>
      <trkpt lat="46.32969" lon="-1.31535">
        <ele>3.4</ele>
        <time>2021-06-17T11:09:20.000Z</time>
      </trkpt>
      <trkpt lat="46.32968" lon="-1.31534">
        <ele>3.4</ele>
        <time>2021-06-17T11:09:21.000Z</time>
      </trkpt>
      <trkpt lat="46.32967" lon="-1.31533">
        <ele>3.4</ele>
        <time>2021-06-17T11:09:22.000Z</time>
      </trkpt>
      <trkpt lat="46.32966" lon="-1.31532">
        <ele>3.4</ele>
        <time>2021-06-17T11:09:23.000Z</time>
      </trkpt>
      <trkpt lat="46.32965" lon="-1.31531">
        <ele>3.4</ele>
        <time>2021-06-17T11:09:24.000Z</time>
      </trkpt>
      <trkpt lat="46.32964" lon="-1.3153">
        <ele>3.4</ele>
        <time>2021-06-17T11:09:25.000Z</time>
      </trkpt>
      <trkpt lat="46.32963" lon="-1.31529">
        <ele>3.4</ele>
        <time>2021-06-17T11:09:26.000Z</time>
      </trkpt>
      <trkpt lat="46.32962" lon="-1.31528">
        <ele>3.5</ele>
        <time>2021-06-17T11:09:27.000Z</time>
      </trkpt>
      <trkpt lat="46.32961" lon="-1.31527">
        <ele>3.5</ele>
        <time>2021-06-17T11:09:28.000Z</time>
      </trkpt>
      <trkpt lat="46.3296" lon="-1.31526">
        <ele>3.5</ele>
        <time>2021-06-17T11:09:29.000Z</time>
      </trkpt>
      <trkpt lat="46.32959" lon="-1.31525">
        <ele>3.5</ele>
        <time>2021-06-17T11:09:30.000Z</time>
      </trkpt>
      <trkpt lat="46.32959" lon="-1.31524">
        <ele>3.5</ele>
        <time>2021-06-17T11:09:31.000Z</time>
      </trkpt>
      <trkpt lat="46.32958" lon="-1.31523">
        <ele>3.5</ele>
        <time>2021-06-17T11:09:32.000Z</time>
      </trkpt>
      <trkpt lat="46.32957" lon="-1.31522">
        <ele>3.5</ele>
        <time>2021-06-17T11:09:33.000Z</time>
      </trkpt>
      <trkpt lat="46.32956" lon="-1.31521">
        <ele>3.5</ele>
        <time>2021-06-17T11:09:34.000Z</time>
      </trkpt>
      <trkpt lat="46.32955" lon="-1.3152">
        <ele>3.5</ele>
        <time>2021-06-17T11:09:35.000Z</time>
      </trkpt>
      <trkpt lat="46.32954" lon="-1.31519">
        <ele>3.6</ele>
        <time>2021-06-17T11:09:36.000Z</time>
      </trkpt>
      <trkpt lat="46.32953" lon="-1.31518">
        <ele>3.6</ele>
        <time>2021-06-17T11:09:37.000Z</time>
      </trkpt>
      <trkpt lat="46.32952" lon="-1.31517">
        <ele>3.6</ele>
        <time>2021-06-17T11:09:38.000Z</time>
      </trkpt>
      <trkpt lat="46.32951" lon="-1.31516">
        <ele>3.6</ele>
        <time>2021-06-17T11:09:39.000Z</time>
      </trkpt>
      <trkpt lat="46.3295" lon="-1.31515">
        <ele>3.6</ele>
        <time>2021-06-17T11:09:40.000Z</time>
      </trkpt>
      <trkpt lat="46.32949" lon="-1.31514">
        <ele>3.6</ele>
        <time>2021-06-17T11:09:41.000Z</time>
      </trkpt>
      <trkpt lat="46.32948" lon="-1.31513">
        <ele>3.6</ele>
        <time>2021-06-17T11:09:42.000Z</time>
      </trkpt>
      <trkpt lat="46.32947" lon="-1.31512">
        <ele>3.6</ele>
        <time>2021-06-17T11:09:43.000Z</time>
      </trkpt>
      <trkpt lat="46.32946" lon="-1.31511">
        <ele>3.6</ele>
        <time>2021-06-17T11:09:44.000Z</time>
      </trkpt>
      <trkpt lat="46.32945" lon="-1.3151">
        <ele>3.7</ele>
        <time>2021-06-17T11:09:45.000Z</time>
      </trkpt>
      <trkpt lat="46.32944" lon="-1.31509">
        <ele>3.7</ele>
        <time>2021-06-17T11:09:46.000Z</time>
      </trkpt>
      <trkpt lat="46.32943" lon="-1.31508">
        <ele>3.7</ele>
        <time>2021-06-17T11:09:47.000Z</time>
      </trkpt>
      <trkpt lat="46.32942" lon="-1.31506">
        <ele>3.7</ele>
        <time>2021-06-17T11:09:48.000Z</time>
      </trkpt>
      <trkpt lat="46.32941" lon="-1.31505">
        <ele>3.7</ele>
        <time>2021-06-17T11:09:49.000Z</time>
      </trkpt>
      <trkpt lat="46.3294" lon="-1.31504">
        <ele>3.7</ele>
        <time>2021-06-17T11:09:50.000Z</time>
      </trkpt>
      <trkpt lat="46.32939" lon="-1.31503">
        <ele>3.7</ele>
        <time>2021-06-17T11:09:51.000Z</time>
      </trkpt>
      <trkpt lat="46.32938" lon="-1.31502">
        <ele>3.7</ele>
        <time>2021-06-17T11:09:52.000Z</time>
      </trkpt>
      <trkpt lat="46.32937" lon="-1.31501">
        <ele>3.8</ele>
        <time>2021-06-17T11:09:53.000Z</time>
      </trkpt>
      <trkpt lat="46.32935" lon="-1.315">
        <ele>3.8</ele>
        <time>2021-06-17T11:09:54.000Z</time>
      </trkpt>
      <trkpt lat="46.32934" lon="-1.31499">
        <ele>3.8</ele>
        <time>2021-06-17T11:09:55.000Z</time>
      </trkpt>
      <trkpt lat="46.32933" lon="-1.31498">
        <ele>3.8</ele>
        <time>2021-06-17T11:09:56.000Z</time>
      </trkpt>
      <trkpt lat="46.32932" lon="-1.31497">
        <ele>3.8</ele>
        <time>2021-06-17T11:09:57.000Z</time>
      </trkpt>
      <trkpt lat="46.32931" lon="-1.31496">
        <ele>3.8</ele>
        <time>2021-06-17T11:09:58.000Z</time>
      </trkpt>
      <trkpt lat="46.3293" lon="-1.31495">
        <ele>3.8</ele>
        <time>2021-06-17T11:09:59.000Z</time>
      </trkpt>
      <trkpt lat="46.32929" lon="-1.31494">
        <ele>3.8</ele>
        <time>2021-06-17T11:10:00.000Z</time>
      </trkpt>
      <trkpt lat="46.32928" lon="-1.31493">
        <ele>3.8</ele>
        <time>2021-06-17T11:10:01.000Z</time>
      </trkpt>
      <trkpt lat="46.32927" lon="-1.31491">
        <ele>3.8</ele>
        <time>2021-06-17T11:10:02.000Z</time>
      </trkpt>
      <trkpt lat="46.32926" lon="-1.3149">
        <ele>3.8</ele>
        <time>2021-06-17T11:10:03.000Z</time>
      </trkpt>
      <trkpt lat="46.32925" lon="-1.31489">
        <ele>3.8</ele>
        <time>2021-06-17T11:10:04.000Z</time>
      </trkpt>
      <trkpt lat="46.32924" lon="-1.31488">
        <ele>3.8</ele>
        <time>2021-06-17T11:10:05.000Z</time>
      </trkpt>
      <trkpt lat="46.32924" lon="-1.31486">
        <ele>3.8</ele>
        <time>2021-06-17T11:10:06.000Z</time>
      </trkpt>
      <trkpt lat="46.32923" lon="-1.31485">
        <ele>3.7</ele>
        <time>2021-06-17T11:10:07.000Z</time>
      </trkpt>
      <trkpt lat="46.32922" lon="-1.31484">
        <ele>3.7</ele>
        <time>2021-06-17T11:10:08.000Z</time>
      </trkpt>
      <trkpt lat="46.32921" lon="-1.31482">
        <ele>3.7</ele>
        <time>2021-06-17T11:10:09.000Z</time>
      </trkpt>
      <trkpt lat="46.3292" lon="-1.31481">
        <ele>3.7</ele>
        <time>2021-06-17T11:10:10.000Z</time>
      </trkpt>
      <trkpt lat="46.3292" lon="-1.3148">
        <ele>3.7</ele>
        <time>2021-06-17T11:10:11.000Z</time>
      </trkpt>
      <trkpt lat="46.32919" lon="-1.31478">
        <ele>3.7</ele>
        <time>2021-06-17T11:10:12.000Z</time>
      </trkpt>
      <trkpt lat="46.32918" lon="-1.31477">
        <ele>3.7</ele>
        <time>2021-06-17T11:10:13.000Z</time>
      </trkpt>
      <trkpt lat="46.32917" lon="-1.31476">
        <ele>3.7</ele>
        <time>2021-06-17T11:10:14.000Z</time>
      </trkpt>
      <trkpt lat="46.32916" lon="-1.31475">
        <ele>3.7</ele>
        <time>2021-06-17T11:10:15.000Z</time>
      </trkpt>
      <trkpt lat="46.32915" lon="-1.31473">
        <ele>3.7</ele>
        <time>2021-06-17T11:10:16.000Z</time>
      </trkpt>
      <trkpt lat="46.32913" lon="-1.31472">
        <ele>3.7</ele>
        <time>2021-06-17T11:10:17.000Z</time>
      </trkpt>
      <trkpt lat="46.32912" lon="-1.31471">
        <ele>3.7</ele>
        <time>2021-06-17T11:10:18.000Z</time>
      </trkpt>
      <trkpt lat="46.32911" lon="-1.3147">
        <ele>3.7</ele>
        <time>2021-06-17T11:10:19.000Z</time>
      </trkpt>
      <trkpt lat="46.3291" lon="-1.31468">
        <ele>3.7</ele>
        <time>2021-06-17T11:10:20.000Z</time>
      </trkpt>
      <trkpt lat="46.32909" lon="-1.31467">
        <ele>3.7</ele>
        <time>2021-06-17T11:10:21.000Z</time>
      </trkpt>
      <trkpt lat="46.32908" lon="-1.31466">
        <ele>3.7</ele>
        <time>2021-06-17T11:10:22.000Z</time>
      </trkpt>
      <trkpt lat="46.32907" lon="-1.31465">
        <ele>3.7</ele>
        <time>2021-06-17T11:10:23.000Z</time>
      </trkpt>
      <trkpt lat="46.32906" lon="-1.31464">
        <ele>3.7</ele>
        <time>2021-06-17T11:10:24.000Z</time>
      </trkpt>
      <trkpt lat="46.32905" lon="-1.31463">
        <ele>3.7</ele>
        <time>2021-06-17T11:10:25.000Z</time>
      </trkpt>
      <trkpt lat="46.32904" lon="-1.31462">
        <ele>3.7</ele>
        <time>2021-06-17T11:10:26.000Z</time>
      </trkpt>
      <trkpt lat="46.32903" lon="-1.31461">
        <ele>3.7</ele>
        <time>2021-06-17T11:10:27.000Z</time>
      </trkpt>
      <trkpt lat="46.32902" lon="-1.31459">
        <ele>3.7</ele>
        <time>2021-06-17T11:10:28.000Z</time>
      </trkpt>
      <trkpt lat="46.32902" lon="-1.31458">
        <ele>3.7</ele>
        <time>2021-06-17T11:10:29.000Z</time>
      </trkpt>
      <trkpt lat="46.32901" lon="-1.31457">
        <ele>3.7</ele>
        <time>2021-06-17T11:10:30.000Z</time>
      </trkpt>
      <trkpt lat="46.329" lon="-1.31456">
        <ele>3.7</ele>
        <time>2021-06-17T11:10:31.000Z</time>
      </trkpt>
      <trkpt lat="46.32899" lon="-1.31455">
        <ele>3.7</ele>
        <time>2021-06-17T11:10:32.000Z</time>
      </trkpt>
      <trkpt lat="46.32898" lon="-1.31454">
        <ele>3.7</ele>
        <time>2021-06-17T11:10:33.000Z</time>
      </trkpt>
      <trkpt lat="46.32897" lon="-1.31454">
        <ele>3.7</ele>
        <time>2021-06-17T11:10:34.000Z</time>
      </trkpt>
      <trkpt lat="46.32896" lon="-1.31453">
        <ele>3.7</ele>
        <time>2021-06-17T11:10:35.000Z</time>
      </trkpt>
      <trkpt lat="46.32895" lon="-1.31452">
        <ele>3.7</ele>
        <time>2021-06-17T11:10:36.000Z</time>
      </trkpt>
      <trkpt lat="46.32894" lon="-1.31451">
        <ele>3.7</ele>
        <time>2021-06-17T11:10:37.000Z</time>
      </trkpt>
      <trkpt lat="46.32893" lon="-1.3145">
        <ele>3.7</ele>
        <time>2021-06-17T11:10:38.000Z</time>
      </trkpt>
      <trkpt lat="46.32891" lon="-1.31449">
        <ele>3.7</ele>
        <time>2021-06-17T11:10:39.000Z</time>
      </trkpt>
      <trkpt lat="46.3289" lon="-1.31448">
        <ele>3.7</ele>
        <time>2021-06-17T11:10:40.000Z</time>
      </trkpt>
      <trkpt lat="46.32889" lon="-1.31447">
        <ele>3.7</ele>
        <time>2021-06-17T11:10:41.000Z</time>
      </trkpt>
      <trkpt lat="46.32888" lon="-1.31446">
        <ele>3.7</ele>
        <time>2021-06-17T11:10:42.000Z</time>
      </trkpt>
      <trkpt lat="46.32887" lon="-1.31446">
        <ele>3.7</ele>
        <time>2021-06-17T11:10:43.000Z</time>
      </trkpt>
      <trkpt lat="46.32886" lon="-1.31445">
        <ele>3.7</ele>
        <time>2021-06-17T11:10:44.000Z</time>
      </trkpt>
      <trkpt lat="46.32885" lon="-1.31444">
        <ele>3.7</ele>
        <time>2021-06-17T11:10:45.000Z</time>
      </trkpt>
      <trkpt lat="46.32884" lon="-1.31443">
        <ele>3.7</ele>
        <time>2021-06-17T11:10:46.000Z</time>
      </trkpt>
      <trkpt lat="46.32883" lon="-1.31442">
        <ele>3.7</ele>
        <time>2021-06-17T11:10:47.000Z</time>
      </trkpt>
      <trkpt lat="46.32882" lon="-1.31441">
        <ele>3.7</ele>
        <time>2021-06-17T11:10:48.000Z</time>
      </trkpt>
      <trkpt lat="46.32881" lon="-1.3144">
        <ele>3.7</ele>
        <time>2021-06-17T11:10:49.000Z</time>
      </trkpt>
      <trkpt lat="46.3288" lon="-1.31439">
        <ele>3.7</ele>
        <time>2021-06-17T11:10:50.000Z</time>
      </trkpt>
      <trkpt lat="46.32879" lon="-1.31438">
        <ele>3.7</ele>
        <time>2021-06-17T11:10:51.000Z</time>
      </trkpt>
      <trkpt lat="46.32878" lon="-1.31437">
        <ele>3.7</ele>
        <time>2021-06-17T11:10:52.000Z</time>
      </trkpt>
      <trkpt lat="46.32877" lon="-1.31436">
        <ele>3.7</ele>
        <time>2021-06-17T11:10:53.000Z</time>
      </trkpt>
      <trkpt lat="46.32876" lon="-1.31435">
        <ele>3.7</ele>
        <time>2021-06-17T11:10:54.000Z</time>
      </trkpt>
      <trkpt lat="46.32875" lon="-1.31434">
        <ele>3.7</ele>
        <time>2021-06-17T11:10:55.000Z</time>
      </trkpt>
      <trkpt lat="46.32874" lon="-1.31433">
        <ele>3.7</ele>
        <time>2021-06-17T11:10:56.000Z</time>
      </trkpt>
      <trkpt lat="46.32873" lon="-1.31431">
        <ele>3.7</ele>
        <time>2021-06-17T11:10:57.000Z</time>
      </trkpt>
      <trkpt lat="46.32872" lon="-1.3143">
        <ele>3.7</ele>
        <time>2021-06-17T11:10:58.000Z</time>
      </trkpt>
      <trkpt lat="46.32871" lon="-1.31429">
        <ele>3.7</ele>
        <time>2021-06-17T11:10:59.000Z</time>
      </trkpt>
      <trkpt lat="46.3287" lon="-1.31428">
        <ele>3.7</ele>
        <time>2021-06-17T11:11:00.000Z</time>
      </trkpt>
      <trkpt lat="46.32869" lon="-1.31427">
        <ele>3.7</ele>
        <time>2021-06-17T11:11:01.000Z</time>
      </trkpt>
      <trkpt lat="46.32868" lon="-1.31426">
        <ele>3.7</ele>
        <time>2021-06-17T11:11:02.000Z</time>
      </trkpt>
      <trkpt lat="46.32867" lon="-1.31424">
        <ele>3.7</ele>
        <time>2021-06-17T11:11:03.000Z</time>
      </trkpt>
      <trkpt lat="46.32866" lon="-1.31423">
        <ele>3.7</ele>
        <time>2021-06-17T11:11:04.000Z</time>
      </trkpt>
      <trkpt lat="46.32865" lon="-1.31422">
        <ele>3.7</ele>
        <time>2021-06-17T11:11:05.000Z</time>
      </trkpt>
      <trkpt lat="46.32864" lon="-1.31421">
        <ele>3.7</ele>
        <time>2021-06-17T11:11:06.000Z</time>
      </trkpt>
      <trkpt lat="46.32863" lon="-1.3142">
        <ele>3.7</ele>
        <time>2021-06-17T11:11:07.000Z</time>
      </trkpt>
      <trkpt lat="46.32862" lon="-1.31419">
        <ele>3.7</ele>
        <time>2021-06-17T11:11:08.000Z</time>
      </trkpt>
      <trkpt lat="46.32862" lon="-1.31417">
        <ele>3.7</ele>
        <time>2021-06-17T11:11:09.000Z</time>
      </trkpt>
      <trkpt lat="46.32861" lon="-1.31416">
        <ele>3.7</ele>
        <time>2021-06-17T11:11:10.000Z</time>
      </trkpt>
      <trkpt lat="46.3286" lon="-1.31415">
        <ele>3.7</ele>
        <time>2021-06-17T11:11:11.000Z</time>
      </trkpt>
      <trkpt lat="46.32859" lon="-1.31414">
        <ele>3.7</ele>
        <time>2021-06-17T11:11:12.000Z</time>
      </trkpt>
      <trkpt lat="46.32858" lon="-1.31413">
        <ele>3.7</ele>
        <time>2021-06-17T11:11:13.000Z</time>
      </trkpt>
      <trkpt lat="46.32857" lon="-1.31412">
        <ele>3.7</ele>
        <time>2021-06-17T11:11:14.000Z</time>
      </trkpt>
      <trkpt lat="46.32856" lon="-1.31411">
        <ele>3.7</ele>
        <time>2021-06-17T11:11:15.000Z</time>
      </trkpt>
      <trkpt lat="46.32855" lon="-1.3141">
        <ele>3.7</ele>
        <time>2021-06-17T11:11:16.000Z</time>
      </trkpt>
      <trkpt lat="46.32854" lon="-1.31409">
        <ele>3.7</ele>
        <time>2021-06-17T11:11:17.000Z</time>
      </trkpt>
      <trkpt lat="46.32853" lon="-1.31408">
        <ele>3.8</ele>
        <time>2021-06-17T11:11:18.000Z</time>
      </trkpt>
      <trkpt lat="46.32852" lon="-1.31408">
        <ele>3.8</ele>
        <time>2021-06-17T11:11:19.000Z</time>
      </trkpt>
      <trkpt lat="46.32851" lon="-1.31407">
        <ele>3.8</ele>
        <time>2021-06-17T11:11:20.000Z</time>
      </trkpt>
      <trkpt lat="46.3285" lon="-1.31406">
        <ele>3.8</ele>
        <time>2021-06-17T11:11:21.000Z</time>
      </trkpt>
      <trkpt lat="46.32849" lon="-1.31405">
        <ele>3.8</ele>
        <time>2021-06-17T11:11:22.000Z</time>
      </trkpt>
      <trkpt lat="46.32849" lon="-1.31404">
        <ele>3.8</ele>
        <time>2021-06-17T11:11:23.000Z</time>
      </trkpt>
      <trkpt lat="46.32848" lon="-1.31403">
        <ele>3.8</ele>
        <time>2021-06-17T11:11:24.000Z</time>
      </trkpt>
      <trkpt lat="46.32847" lon="-1.31402">
        <ele>3.8</ele>
        <time>2021-06-17T11:11:25.000Z</time>
      </trkpt>
      <trkpt lat="46.32846" lon="-1.31402">
        <ele>3.9</ele>
        <time>2021-06-17T11:11:26.000Z</time>
      </trkpt>
      <trkpt lat="46.32845" lon="-1.31401">
        <ele>3.9</ele>
        <time>2021-06-17T11:11:27.000Z</time>
      </trkpt>
      <trkpt lat="46.32844" lon="-1.314">
        <ele>3.9</ele>
        <time>2021-06-17T11:11:28.000Z</time>
      </trkpt>
      <trkpt lat="46.32843" lon="-1.31399">
        <ele>3.9</ele>
        <time>2021-06-17T11:11:29.000Z</time>
      </trkpt>
      <trkpt lat="46.32842" lon="-1.31398">
        <ele>3.9</ele>
        <time>2021-06-17T11:11:30.000Z</time>
      </trkpt>
      <trkpt lat="46.32841" lon="-1.31397">
        <ele>3.9</ele>
        <time>2021-06-17T11:11:31.000Z</time>
      </trkpt>
      <trkpt lat="46.3284" lon="-1.31396">
        <ele>3.9</ele>
        <time>2021-06-17T11:11:32.000Z</time>
      </trkpt>
      <trkpt lat="46.32838" lon="-1.31394">
        <ele>3.9</ele>
        <time>2021-06-17T11:11:33.000Z</time>
      </trkpt>
      <trkpt lat="46.32837" lon="-1.31393">
        <ele>4</ele>
        <time>2021-06-17T11:11:34.000Z</time>
      </trkpt>
      <trkpt lat="46.32836" lon="-1.31392">
        <ele>4</ele>
        <time>2021-06-17T11:11:35.000Z</time>
      </trkpt>
      <trkpt lat="46.32835" lon="-1.31391">
        <ele>4</ele>
        <time>2021-06-17T11:11:36.000Z</time>
      </trkpt>
      <trkpt lat="46.32834" lon="-1.3139">
        <ele>4</ele>
        <time>2021-06-17T11:11:37.000Z</time>
      </trkpt>
      <trkpt lat="46.32833" lon="-1.31389">
        <ele>4</ele>
        <time>2021-06-17T11:11:38.000Z</time>
      </trkpt>
      <trkpt lat="46.32832" lon="-1.31388">
        <ele>4</ele>
        <time>2021-06-17T11:11:39.000Z</time>
      </trkpt>
      <trkpt lat="46.32831" lon="-1.31386">
        <ele>4</ele>
        <time>2021-06-17T11:11:40.000Z</time>
      </trkpt>
      <trkpt lat="46.3283" lon="-1.31385">
        <ele>4</ele>
        <time>2021-06-17T11:11:41.000Z</time>
      </trkpt>
      <trkpt lat="46.32829" lon="-1.31384">
        <ele>4</ele>
        <time>2021-06-17T11:11:42.000Z</time>
      </trkpt>
      <trkpt lat="46.32828" lon="-1.31383">
        <ele>4</ele>
        <time>2021-06-17T11:11:43.000Z</time>
      </trkpt>
      <trkpt lat="46.32827" lon="-1.31382">
        <ele>4</ele>
        <time>2021-06-17T11:11:44.000Z</time>
      </trkpt>
      <trkpt lat="46.32826" lon="-1.31381">
        <ele>4</ele>
        <time>2021-06-17T11:11:45.000Z</time>
      </trkpt>
      <trkpt lat="46.32825" lon="-1.3138">
        <ele>4</ele>
        <time>2021-06-17T11:11:46.000Z</time>
      </trkpt>
      <trkpt lat="46.32824" lon="-1.31379">
        <ele>4</ele>
        <time>2021-06-17T11:11:47.000Z</time>
      </trkpt>
      <trkpt lat="46.32823" lon="-1.31378">
        <ele>4</ele>
        <time>2021-06-17T11:11:48.000Z</time>
      </trkpt>
      <trkpt lat="46.32822" lon="-1.31377">
        <ele>4</ele>
        <time>2021-06-17T11:11:49.000Z</time>
      </trkpt>
      <trkpt lat="46.32821" lon="-1.31376">
        <ele>4</ele>
        <time>2021-06-17T11:11:50.000Z</time>
      </trkpt>
      <trkpt lat="46.3282" lon="-1.31374">
        <ele>4</ele>
        <time>2021-06-17T11:11:51.000Z</time>
      </trkpt>
      <trkpt lat="46.32819" lon="-1.31373">
        <ele>4</ele>
        <time>2021-06-17T11:11:52.000Z</time>
      </trkpt>
      <trkpt lat="46.32818" lon="-1.31372">
        <ele>4</ele>
        <time>2021-06-17T11:11:53.000Z</time>
      </trkpt>
      <trkpt lat="46.32817" lon="-1.31371">
        <ele>4</ele>
        <time>2021-06-17T11:11:54.000Z</time>
      </trkpt>
      <trkpt lat="46.32816" lon="-1.3137">
        <ele>4</ele>
        <time>2021-06-17T11:11:55.000Z</time>
      </trkpt>
      <trkpt lat="46.32815" lon="-1.31369">
        <ele>4</ele>
        <time>2021-06-17T11:11:56.000Z</time>
      </trkpt>
      <trkpt lat="46.32814" lon="-1.31367">
        <ele>4</ele>
        <time>2021-06-17T11:11:57.000Z</time>
      </trkpt>
      <trkpt lat="46.32813" lon="-1.31366">
        <ele>4</ele>
        <time>2021-06-17T11:11:58.000Z</time>
      </trkpt>
      <trkpt lat="46.32812" lon="-1.31365">
        <ele>4</ele>
        <time>2021-06-17T11:11:59.000Z</time>
      </trkpt>
      <trkpt lat="46.32811" lon="-1.31364">
        <ele>4</ele>
        <time>2021-06-17T11:12:00.000Z</time>
      </trkpt>
      <trkpt lat="46.3281" lon="-1.31362">
        <ele>4</ele>
        <time>2021-06-17T11:12:01.000Z</time>
      </trkpt>
      <trkpt lat="46.32809" lon="-1.31361">
        <ele>4</ele>
        <time>2021-06-17T11:12:02.000Z</time>
      </trkpt>
      <trkpt lat="46.32808" lon="-1.3136">
        <ele>4</ele>
        <time>2021-06-17T11:12:03.000Z</time>
      </trkpt>
      <trkpt lat="46.32807" lon="-1.31359">
        <ele>4</ele>
        <time>2021-06-17T11:12:04.000Z</time>
      </trkpt>
      <trkpt lat="46.32806" lon="-1.31357">
        <ele>4</ele>
        <time>2021-06-17T11:12:05.000Z</time>
      </trkpt>
      <trkpt lat="46.32806" lon="-1.31356">
        <ele>4</ele>
        <time>2021-06-17T11:12:06.000Z</time>
      </trkpt>
      <trkpt lat="46.32805" lon="-1.31355">
        <ele>4</ele>
        <time>2021-06-17T11:12:07.000Z</time>
      </trkpt>
      <trkpt lat="46.32804" lon="-1.31354">
        <ele>4</ele>
        <time>2021-06-17T11:12:08.000Z</time>
      </trkpt>
      <trkpt lat="46.32803" lon="-1.31353">
        <ele>4</ele>
        <time>2021-06-17T11:12:09.000Z</time>
      </trkpt>
      <trkpt lat="46.32802" lon="-1.31352">
        <ele>4</ele>
        <time>2021-06-17T11:12:10.000Z</time>
      </trkpt>
      <trkpt lat="46.32801" lon="-1.31351">
        <ele>4</ele>
        <time>2021-06-17T11:12:11.000Z</time>
      </trkpt>
      <trkpt lat="46.328" lon="-1.3135">
        <ele>4</ele>
        <time>2021-06-17T11:12:12.000Z</time>
      </trkpt>
      <trkpt lat="46.32799" lon="-1.3135">
        <ele>4</ele>
        <time>2021-06-17T11:12:13.000Z</time>
      </trkpt>
      <trkpt lat="46.32798" lon="-1.31349">
        <ele>4</ele>
        <time>2021-06-17T11:12:14.000Z</time>
      </trkpt>
      <trkpt lat="46.32797" lon="-1.31348">
        <ele>4</ele>
        <time>2021-06-17T11:12:15.000Z</time>
      </trkpt>
      <trkpt lat="46.32796" lon="-1.31347">
        <ele>4</ele>
        <time>2021-06-17T11:12:16.000Z</time>
      </trkpt>
      <trkpt lat="46.32795" lon="-1.31346">
        <ele>4</ele>
        <time>2021-06-17T11:12:17.000Z</time>
      </trkpt>
      <trkpt lat="46.32794" lon="-1.31345">
        <ele>4</ele>
        <time>2021-06-17T11:12:18.000Z</time>
      </trkpt>
      <trkpt lat="46.32793" lon="-1.31344">
        <ele>4</ele>
        <time>2021-06-17T11:12:19.000Z</time>
      </trkpt>
      <trkpt lat="46.32792" lon="-1.31343">
        <ele>4</ele>
        <time>2021-06-17T11:12:20.000Z</time>
      </trkpt>
      <trkpt lat="46.32791" lon="-1.31342">
        <ele>4</ele>
        <time>2021-06-17T11:12:21.000Z</time>
      </trkpt>
      <trkpt lat="46.3279" lon="-1.31341">
        <ele>4</ele>
        <time>2021-06-17T11:12:22.000Z</time>
      </trkpt>
      <trkpt lat="46.32789" lon="-1.31339">
        <ele>4</ele>
        <time>2021-06-17T11:12:23.000Z</time>
      </trkpt>
      <trkpt lat="46.32789" lon="-1.31338">
        <ele>4</ele>
        <time>2021-06-17T11:12:24.000Z</time>
      </trkpt>
      <trkpt lat="46.32788" lon="-1.31337">
        <ele>4</ele>
        <time>2021-06-17T11:12:25.000Z</time>
      </trkpt>
      <trkpt lat="46.32787" lon="-1.31336">
        <ele>4</ele>
        <time>2021-06-17T11:12:26.000Z</time>
      </trkpt>
      <trkpt lat="46.32786" lon="-1.31334">
        <ele>4</ele>
        <time>2021-06-17T11:12:27.000Z</time>
      </trkpt>
      <trkpt lat="46.32785" lon="-1.31333">
        <ele>4</ele>
        <time>2021-06-17T11:12:28.000Z</time>
      </trkpt>
      <trkpt lat="46.32784" lon="-1.31332">
        <ele>4</ele>
        <time>2021-06-17T11:12:29.000Z</time>
      </trkpt>
      <trkpt lat="46.32783" lon="-1.31331">
        <ele>4</ele>
        <time>2021-06-17T11:12:30.000Z</time>
      </trkpt>
      <trkpt lat="46.32782" lon="-1.3133">
        <ele>3.9</ele>
        <time>2021-06-17T11:12:31.000Z</time>
      </trkpt>
      <trkpt lat="46.32781" lon="-1.31329">
        <ele>3.9</ele>
        <time>2021-06-17T11:12:32.000Z</time>
      </trkpt>
      <trkpt lat="46.3278" lon="-1.31328">
        <ele>3.9</ele>
        <time>2021-06-17T11:12:33.000Z</time>
      </trkpt>
      <trkpt lat="46.32779" lon="-1.31327">
        <ele>3.9</ele>
        <time>2021-06-17T11:12:34.000Z</time>
      </trkpt>
      <trkpt lat="46.32778" lon="-1.31326">
        <ele>3.9</ele>
        <time>2021-06-17T11:12:35.000Z</time>
      </trkpt>
      <trkpt lat="46.32777" lon="-1.31325">
        <ele>3.9</ele>
        <time>2021-06-17T11:12:36.000Z</time>
      </trkpt>
      <trkpt lat="46.32776" lon="-1.31324">
        <ele>3.8</ele>
        <time>2021-06-17T11:12:37.000Z</time>
      </trkpt>
      <trkpt lat="46.32775" lon="-1.31323">
        <ele>3.8</ele>
        <time>2021-06-17T11:12:38.000Z</time>
      </trkpt>
      <trkpt lat="46.32774" lon="-1.31322">
        <ele>3.8</ele>
        <time>2021-06-17T11:12:39.000Z</time>
      </trkpt>
      <trkpt lat="46.32773" lon="-1.31321">
        <ele>3.8</ele>
        <time>2021-06-17T11:12:40.000Z</time>
      </trkpt>
      <trkpt lat="46.32772" lon="-1.3132">
        <ele>3.8</ele>
        <time>2021-06-17T11:12:41.000Z</time>
      </trkpt>
      <trkpt lat="46.32771" lon="-1.31319">
        <ele>3.8</ele>
        <time>2021-06-17T11:12:42.000Z</time>
      </trkpt>
      <trkpt lat="46.3277" lon="-1.31317">
        <ele>3.8</ele>
        <time>2021-06-17T11:12:43.000Z</time>
      </trkpt>
      <trkpt lat="46.32769" lon="-1.31316">
        <ele>3.7</ele>
        <time>2021-06-17T11:12:44.000Z</time>
      </trkpt>
      <trkpt lat="46.32768" lon="-1.31315">
        <ele>3.7</ele>
        <time>2021-06-17T11:12:45.000Z</time>
      </trkpt>
      <trkpt lat="46.32767" lon="-1.31314">
        <ele>3.7</ele>
        <time>2021-06-17T11:12:46.000Z</time>
      </trkpt>
      <trkpt lat="46.32766" lon="-1.31313">
        <ele>3.7</ele>
        <time>2021-06-17T11:12:47.000Z</time>
      </trkpt>
      <trkpt lat="46.32765" lon="-1.31312">
        <ele>3.7</ele>
        <time>2021-06-17T11:12:48.000Z</time>
      </trkpt>
      <trkpt lat="46.32764" lon="-1.31311">
        <ele>3.7</ele>
        <time>2021-06-17T11:12:49.000Z</time>
      </trkpt>
      <trkpt lat="46.32763" lon="-1.3131">
        <ele>3.7</ele>
        <time>2021-06-17T11:12:50.000Z</time>
      </trkpt>
      <trkpt lat="46.32762" lon="-1.31309">
        <ele>3.7</ele>
        <time>2021-06-17T11:12:51.000Z</time>
      </trkpt>
      <trkpt lat="46.32761" lon="-1.31308">
        <ele>3.7</ele>
        <time>2021-06-17T11:12:52.000Z</time>
      </trkpt>
      <trkpt lat="46.3276" lon="-1.31306">
        <ele>3.6</ele>
        <time>2021-06-17T11:12:53.000Z</time>
      </trkpt>
      <trkpt lat="46.32759" lon="-1.31305">
        <ele>3.6</ele>
        <time>2021-06-17T11:12:54.000Z</time>
      </trkpt>
      <trkpt lat="46.32758" lon="-1.31304">
        <ele>3.6</ele>
        <time>2021-06-17T11:12:55.000Z</time>
      </trkpt>
      <trkpt lat="46.32757" lon="-1.31303">
        <ele>3.6</ele>
        <time>2021-06-17T11:12:56.000Z</time>
      </trkpt>
      <trkpt lat="46.32756" lon="-1.31302">
        <ele>3.6</ele>
        <time>2021-06-17T11:12:57.000Z</time>
      </trkpt>
      <trkpt lat="46.32755" lon="-1.31301">
        <ele>3.6</ele>
        <time>2021-06-17T11:12:58.000Z</time>
      </trkpt>
      <trkpt lat="46.32754" lon="-1.313">
        <ele>3.6</ele>
        <time>2021-06-17T11:12:59.000Z</time>
      </trkpt>
      <trkpt lat="46.32753" lon="-1.31299">
        <ele>3.6</ele>
        <time>2021-06-17T11:13:00.000Z</time>
      </trkpt>
      <trkpt lat="46.32752" lon="-1.31298">
        <ele>3.6</ele>
        <time>2021-06-17T11:13:01.000Z</time>
      </trkpt>
      <trkpt lat="46.32751" lon="-1.31297">
        <ele>3.6</ele>
        <time>2021-06-17T11:13:02.000Z</time>
      </trkpt>
      <trkpt lat="46.3275" lon="-1.31295">
        <ele>3.6</ele>
        <time>2021-06-17T11:13:03.000Z</time>
      </trkpt>
      <trkpt lat="46.32749" lon="-1.31294">
        <ele>3.6</ele>
        <time>2021-06-17T11:13:04.000Z</time>
      </trkpt>
      <trkpt lat="46.32748" lon="-1.31293">
        <ele>3.6</ele>
        <time>2021-06-17T11:13:05.000Z</time>
      </trkpt>
      <trkpt lat="46.32747" lon="-1.31292">
        <ele>3.6</ele>
        <time>2021-06-17T11:13:06.000Z</time>
      </trkpt>
      <trkpt lat="46.32746" lon="-1.31291">
        <ele>3.6</ele>
        <time>2021-06-17T11:13:07.000Z</time>
      </trkpt>
      <trkpt lat="46.32745" lon="-1.3129">
        <ele>3.6</ele>
        <time>2021-06-17T11:13:08.000Z</time>
      </trkpt>
      <trkpt lat="46.32744" lon="-1.31289">
        <ele>3.6</ele>
        <time>2021-06-17T11:13:09.000Z</time>
      </trkpt>
      <trkpt lat="46.32743" lon="-1.31288">
        <ele>3.6</ele>
        <time>2021-06-17T11:13:10.000Z</time>
      </trkpt>
      <trkpt lat="46.32742" lon="-1.31287">
        <ele>3.6</ele>
        <time>2021-06-17T11:13:11.000Z</time>
      </trkpt>
      <trkpt lat="46.32742" lon="-1.31286">
        <ele>3.6</ele>
        <time>2021-06-17T11:13:12.000Z</time>
      </trkpt>
      <trkpt lat="46.32741" lon="-1.31285">
        <ele>3.6</ele>
        <time>2021-06-17T11:13:13.000Z</time>
      </trkpt>
      <trkpt lat="46.3274" lon="-1.31284">
        <ele>3.6</ele>
        <time>2021-06-17T11:13:14.000Z</time>
      </trkpt>
      <trkpt lat="46.32739" lon="-1.31283">
        <ele>3.6</ele>
        <time>2021-06-17T11:13:15.000Z</time>
      </trkpt>
      <trkpt lat="46.32738" lon="-1.31282">
        <ele>3.6</ele>
        <time>2021-06-17T11:13:16.000Z</time>
      </trkpt>
      <trkpt lat="46.32737" lon="-1.31282">
        <ele>3.6</ele>
        <time>2021-06-17T11:13:17.000Z</time>
      </trkpt>
      <trkpt lat="46.32736" lon="-1.31281">
        <ele>3.6</ele>
        <time>2021-06-17T11:13:18.000Z</time>
      </trkpt>
      <trkpt lat="46.32735" lon="-1.3128">
        <ele>3.6</ele>
        <time>2021-06-17T11:13:19.000Z</time>
      </trkpt>
      <trkpt lat="46.32734" lon="-1.31279">
        <ele>3.6</ele>
        <time>2021-06-17T11:13:20.000Z</time>
      </trkpt>
      <trkpt lat="46.32733" lon="-1.31278">
        <ele>3.6</ele>
        <time>2021-06-17T11:13:21.000Z</time>
      </trkpt>
      <trkpt lat="46.32732" lon="-1.31277">
        <ele>3.6</ele>
        <time>2021-06-17T11:13:22.000Z</time>
      </trkpt>
      <trkpt lat="46.32731" lon="-1.31276">
        <ele>3.6</ele>
        <time>2021-06-17T11:13:23.000Z</time>
      </trkpt>
      <trkpt lat="46.3273" lon="-1.31275">
        <ele>3.6</ele>
        <time>2021-06-17T11:13:24.000Z</time>
      </trkpt>
      <trkpt lat="46.32729" lon="-1.31274">
        <ele>3.6</ele>
        <time>2021-06-17T11:13:25.000Z</time>
      </trkpt>
      <trkpt lat="46.32728" lon="-1.31273">
        <ele>3.6</ele>
        <time>2021-06-17T11:13:26.000Z</time>
      </trkpt>
      <trkpt lat="46.32727" lon="-1.31272">
        <ele>3.6</ele>
        <time>2021-06-17T11:13:27.000Z</time>
      </trkpt>
      <trkpt lat="46.32726" lon="-1.31271">
        <ele>3.6</ele>
        <time>2021-06-17T11:13:28.000Z</time>
      </trkpt>
      <trkpt lat="46.32725" lon="-1.3127">
        <ele>3.6</ele>
        <time>2021-06-17T11:13:29.000Z</time>
      </trkpt>
      <trkpt lat="46.32724" lon="-1.31269">
        <ele>3.6</ele>
        <time>2021-06-17T11:13:30.000Z</time>
      </trkpt>
      <trkpt lat="46.32723" lon="-1.31268">
        <ele>3.6</ele>
        <time>2021-06-17T11:13:31.000Z</time>
      </trkpt>
      <trkpt lat="46.32722" lon="-1.31267">
        <ele>3.6</ele>
        <time>2021-06-17T11:13:32.000Z</time>
      </trkpt>
      <trkpt lat="46.32721" lon="-1.31266">
        <ele>3.6</ele>
        <time>2021-06-17T11:13:33.000Z</time>
      </trkpt>
      <trkpt lat="46.3272" lon="-1.31264">
        <ele>3.6</ele>
        <time>2021-06-17T11:13:34.000Z</time>
      </trkpt>
      <trkpt lat="46.32719" lon="-1.31263">
        <ele>3.6</ele>
        <time>2021-06-17T11:13:35.000Z</time>
      </trkpt>
      <trkpt lat="46.32718" lon="-1.31262">
        <ele>3.6</ele>
        <time>2021-06-17T11:13:36.000Z</time>
      </trkpt>
      <trkpt lat="46.32717" lon="-1.3126">
        <ele>3.6</ele>
        <time>2021-06-17T11:13:37.000Z</time>
      </trkpt>
      <trkpt lat="46.32716" lon="-1.31259">
        <ele>3.6</ele>
        <time>2021-06-17T11:13:38.000Z</time>
      </trkpt>
      <trkpt lat="46.32715" lon="-1.31258">
        <ele>3.6</ele>
        <time>2021-06-17T11:13:39.000Z</time>
      </trkpt>
      <trkpt lat="46.32714" lon="-1.31256">
        <ele>3.5</ele>
        <time>2021-06-17T11:13:40.000Z</time>
      </trkpt>
      <trkpt lat="46.32713" lon="-1.31255">
        <ele>3.5</ele>
        <time>2021-06-17T11:13:41.000Z</time>
      </trkpt>
      <trkpt lat="46.32712" lon="-1.31254">
        <ele>3.5</ele>
        <time>2021-06-17T11:13:42.000Z</time>
      </trkpt>
      <trkpt lat="46.32711" lon="-1.31252">
        <ele>3.5</ele>
        <time>2021-06-17T11:13:43.000Z</time>
      </trkpt>
      <trkpt lat="46.3271" lon="-1.31251">
        <ele>3.5</ele>
        <time>2021-06-17T11:13:44.000Z</time>
      </trkpt>
      <trkpt lat="46.32709" lon="-1.3125">
        <ele>3.5</ele>
        <time>2021-06-17T11:13:45.000Z</time>
      </trkpt>
      <trkpt lat="46.32708" lon="-1.31249">
        <ele>3.5</ele>
        <time>2021-06-17T11:13:46.000Z</time>
      </trkpt>
      <trkpt lat="46.32707" lon="-1.31248">
        <ele>3.5</ele>
        <time>2021-06-17T11:13:47.000Z</time>
      </trkpt>
      <trkpt lat="46.32706" lon="-1.31247">
        <ele>3.5</ele>
        <time>2021-06-17T11:13:48.000Z</time>
      </trkpt>
      <trkpt lat="46.32705" lon="-1.31247">
        <ele>3.5</ele>
        <time>2021-06-17T11:13:49.000Z</time>
      </trkpt>
      <trkpt lat="46.32704" lon="-1.31246">
        <ele>3.5</ele>
        <time>2021-06-17T11:13:50.000Z</time>
      </trkpt>
      <trkpt lat="46.32703" lon="-1.31245">
        <ele>3.5</ele>
        <time>2021-06-17T11:13:51.000Z</time>
      </trkpt>
      <trkpt lat="46.32702" lon="-1.31244">
        <ele>3.5</ele>
        <time>2021-06-17T11:13:52.000Z</time>
      </trkpt>
      <trkpt lat="46.32701" lon="-1.31243">
        <ele>3.5</ele>
        <time>2021-06-17T11:13:53.000Z</time>
      </trkpt>
      <trkpt lat="46.327" lon="-1.31243">
        <ele>3.5</ele>
        <time>2021-06-17T11:13:54.000Z</time>
      </trkpt>
      <trkpt lat="46.32699" lon="-1.31241">
        <ele>3.6</ele>
        <time>2021-06-17T11:13:55.000Z</time>
      </trkpt>
      <trkpt lat="46.32698" lon="-1.3124">
        <ele>3.6</ele>
        <time>2021-06-17T11:13:56.000Z</time>
      </trkpt>
      <trkpt lat="46.32697" lon="-1.31239">
        <ele>3.6</ele>
        <time>2021-06-17T11:13:57.000Z</time>
      </trkpt>
      <trkpt lat="46.32696" lon="-1.31238">
        <ele>3.6</ele>
        <time>2021-06-17T11:13:58.000Z</time>
      </trkpt>
      <trkpt lat="46.32695" lon="-1.31237">
        <ele>3.6</ele>
        <time>2021-06-17T11:13:59.000Z</time>
      </trkpt>
      <trkpt lat="46.32694" lon="-1.31235">
        <ele>3.6</ele>
        <time>2021-06-17T11:14:00.000Z</time>
      </trkpt>
      <trkpt lat="46.32693" lon="-1.31234">
        <ele>3.6</ele>
        <time>2021-06-17T11:14:01.000Z</time>
      </trkpt>
      <trkpt lat="46.32692" lon="-1.31233">
        <ele>3.6</ele>
        <time>2021-06-17T11:14:02.000Z</time>
      </trkpt>
      <trkpt lat="46.32691" lon="-1.31232">
        <ele>3.6</ele>
        <time>2021-06-17T11:14:03.000Z</time>
      </trkpt>
      <trkpt lat="46.3269" lon="-1.31231">
        <ele>3.6</ele>
        <time>2021-06-17T11:14:04.000Z</time>
      </trkpt>
      <trkpt lat="46.32689" lon="-1.3123">
        <ele>3.6</ele>
        <time>2021-06-17T11:14:05.000Z</time>
      </trkpt>
      <trkpt lat="46.32688" lon="-1.31229">
        <ele>3.6</ele>
        <time>2021-06-17T11:14:06.000Z</time>
      </trkpt>
      <trkpt lat="46.32687" lon="-1.31228">
        <ele>3.6</ele>
        <time>2021-06-17T11:14:07.000Z</time>
      </trkpt>
      <trkpt lat="46.32686" lon="-1.31227">
        <ele>3.6</ele>
        <time>2021-06-17T11:14:08.000Z</time>
      </trkpt>
      <trkpt lat="46.32685" lon="-1.31226">
        <ele>3.6</ele>
        <time>2021-06-17T11:14:09.000Z</time>
      </trkpt>
      <trkpt lat="46.32684" lon="-1.31225">
        <ele>3.6</ele>
        <time>2021-06-17T11:14:10.000Z</time>
      </trkpt>
      <trkpt lat="46.32683" lon="-1.31224">
        <ele>3.6</ele>
        <time>2021-06-17T11:14:11.000Z</time>
      </trkpt>
      <trkpt lat="46.32682" lon="-1.31224">
        <ele>3.6</ele>
        <time>2021-06-17T11:14:12.000Z</time>
      </trkpt>
      <trkpt lat="46.32681" lon="-1.31223">
        <ele>3.6</ele>
        <time>2021-06-17T11:14:13.000Z</time>
      </trkpt>
      <trkpt lat="46.3268" lon="-1.31222">
        <ele>3.6</ele>
        <time>2021-06-17T11:14:14.000Z</time>
      </trkpt>
      <trkpt lat="46.32679" lon="-1.31221">
        <ele>3.6</ele>
        <time>2021-06-17T11:14:15.000Z</time>
      </trkpt>
      <trkpt lat="46.32678" lon="-1.3122">
        <ele>3.6</ele>
        <time>2021-06-17T11:14:16.000Z</time>
      </trkpt>
      <trkpt lat="46.32677" lon="-1.31219">
        <ele>3.6</ele>
        <time>2021-06-17T11:14:17.000Z</time>
      </trkpt>
      <trkpt lat="46.32676" lon="-1.31218">
        <ele>3.5</ele>
        <time>2021-06-17T11:14:18.000Z</time>
      </trkpt>
      <trkpt lat="46.32675" lon="-1.31217">
        <ele>3.5</ele>
        <time>2021-06-17T11:14:19.000Z</time>
      </trkpt>
      <trkpt lat="46.32674" lon="-1.31216">
        <ele>3.5</ele>
        <time>2021-06-17T11:14:20.000Z</time>
      </trkpt>
      <trkpt lat="46.32673" lon="-1.31215">
        <ele>3.5</ele>
        <time>2021-06-17T11:14:21.000Z</time>
      </trkpt>
      <trkpt lat="46.32672" lon="-1.31214">
        <ele>3.5</ele>
        <time>2021-06-17T11:14:22.000Z</time>
      </trkpt>
      <trkpt lat="46.32671" lon="-1.31213">
        <ele>3.5</ele>
        <time>2021-06-17T11:14:23.000Z</time>
      </trkpt>
      <trkpt lat="46.3267" lon="-1.31212">
        <ele>3.5</ele>
        <time>2021-06-17T11:14:24.000Z</time>
      </trkpt>
      <trkpt lat="46.32669" lon="-1.31211">
        <ele>3.5</ele>
        <time>2021-06-17T11:14:25.000Z</time>
      </trkpt>
      <trkpt lat="46.32668" lon="-1.31209">
        <ele>3.5</ele>
        <time>2021-06-17T11:14:26.000Z</time>
      </trkpt>
      <trkpt lat="46.32667" lon="-1.31208">
        <ele>3.5</ele>
        <time>2021-06-17T11:14:27.000Z</time>
      </trkpt>
      <trkpt lat="46.32666" lon="-1.31207">
        <ele>3.5</ele>
        <time>2021-06-17T11:14:28.000Z</time>
      </trkpt>
      <trkpt lat="46.32665" lon="-1.31206">
        <ele>3.5</ele>
        <time>2021-06-17T11:14:29.000Z</time>
      </trkpt>
      <trkpt lat="46.32664" lon="-1.31205">
        <ele>3.4</ele>
        <time>2021-06-17T11:14:30.000Z</time>
      </trkpt>
      <trkpt lat="46.32663" lon="-1.31204">
        <ele>3.4</ele>
        <time>2021-06-17T11:14:31.000Z</time>
      </trkpt>
      <trkpt lat="46.32662" lon="-1.31202">
        <ele>3.4</ele>
        <time>2021-06-17T11:14:32.000Z</time>
      </trkpt>
      <trkpt lat="46.32661" lon="-1.31201">
        <ele>3.4</ele>
        <time>2021-06-17T11:14:33.000Z</time>
      </trkpt>
      <trkpt lat="46.3266" lon="-1.312">
        <ele>3.4</ele>
        <time>2021-06-17T11:14:34.000Z</time>
      </trkpt>
      <trkpt lat="46.32659" lon="-1.31199">
        <ele>3.3</ele>
        <time>2021-06-17T11:14:35.000Z</time>
      </trkpt>
      <trkpt lat="46.32658" lon="-1.31198">
        <ele>3.3</ele>
        <time>2021-06-17T11:14:36.000Z</time>
      </trkpt>
      <trkpt lat="46.32657" lon="-1.31197">
        <ele>3.3</ele>
        <time>2021-06-17T11:14:37.000Z</time>
      </trkpt>
      <trkpt lat="46.32656" lon="-1.31195">
        <ele>3.3</ele>
        <time>2021-06-17T11:14:38.000Z</time>
      </trkpt>
      <trkpt lat="46.32655" lon="-1.31194">
        <ele>3.3</ele>
        <time>2021-06-17T11:14:39.000Z</time>
      </trkpt>
      <trkpt lat="46.32654" lon="-1.31193">
        <ele>3.3</ele>
        <time>2021-06-17T11:14:40.000Z</time>
      </trkpt>
      <trkpt lat="46.32653" lon="-1.31192">
        <ele>3.3</ele>
        <time>2021-06-17T11:14:41.000Z</time>
      </trkpt>
      <trkpt lat="46.32652" lon="-1.31191">
        <ele>3.2</ele>
        <time>2021-06-17T11:14:42.000Z</time>
      </trkpt>
      <trkpt lat="46.32651" lon="-1.3119">
        <ele>3.2</ele>
        <time>2021-06-17T11:14:43.000Z</time>
      </trkpt>
      <trkpt lat="46.3265" lon="-1.31188">
        <ele>3.2</ele>
        <time>2021-06-17T11:14:44.000Z</time>
      </trkpt>
      <trkpt lat="46.32649" lon="-1.31187">
        <ele>3.2</ele>
        <time>2021-06-17T11:14:45.000Z</time>
      </trkpt>
      <trkpt lat="46.32648" lon="-1.31186">
        <ele>3.2</ele>
        <time>2021-06-17T11:14:46.000Z</time>
      </trkpt>
      <trkpt lat="46.32647" lon="-1.31185">
        <ele>3.2</ele>
        <time>2021-06-17T11:14:47.000Z</time>
      </trkpt>
      <trkpt lat="46.32646" lon="-1.31184">
        <ele>3.2</ele>
        <time>2021-06-17T11:14:48.000Z</time>
      </trkpt>
      <trkpt lat="46.32645" lon="-1.31183">
        <ele>3.1</ele>
        <time>2021-06-17T11:14:49.000Z</time>
      </trkpt>
      <trkpt lat="46.32644" lon="-1.31181">
        <ele>3.1</ele>
        <time>2021-06-17T11:14:50.000Z</time>
      </trkpt>
      <trkpt lat="46.32643" lon="-1.3118">
        <ele>3.1</ele>
        <time>2021-06-17T11:14:51.000Z</time>
      </trkpt>
      <trkpt lat="46.32642" lon="-1.31179">
        <ele>3.1</ele>
        <time>2021-06-17T11:14:52.000Z</time>
      </trkpt>
      <trkpt lat="46.32641" lon="-1.31178">
        <ele>3.1</ele>
        <time>2021-06-17T11:14:53.000Z</time>
      </trkpt>
      <trkpt lat="46.3264" lon="-1.31177">
        <ele>3.1</ele>
        <time>2021-06-17T11:14:54.000Z</time>
      </trkpt>
      <trkpt lat="46.32639" lon="-1.31176">
        <ele>3.1</ele>
        <time>2021-06-17T11:14:55.000Z</time>
      </trkpt>
      <trkpt lat="46.32638" lon="-1.31175">
        <ele>3.1</ele>
        <time>2021-06-17T11:14:56.000Z</time>
      </trkpt>
      <trkpt lat="46.32637" lon="-1.31174">
        <ele>3.1</ele>
        <time>2021-06-17T11:14:57.000Z</time>
      </trkpt>
      <trkpt lat="46.32636" lon="-1.31173">
        <ele>3</ele>
        <time>2021-06-17T11:14:58.000Z</time>
      </trkpt>
      <trkpt lat="46.32636" lon="-1.31172">
        <ele>3</ele>
        <time>2021-06-17T11:14:59.000Z</time>
      </trkpt>
      <trkpt lat="46.32635" lon="-1.31171">
        <ele>3</ele>
        <time>2021-06-17T11:15:00.000Z</time>
      </trkpt>
      <trkpt lat="46.32634" lon="-1.3117">
        <ele>3</ele>
        <time>2021-06-17T11:15:01.000Z</time>
      </trkpt>
      <trkpt lat="46.32633" lon="-1.31169">
        <ele>3</ele>
        <time>2021-06-17T11:15:02.000Z</time>
      </trkpt>
      <trkpt lat="46.32632" lon="-1.31167">
        <ele>3</ele>
        <time>2021-06-17T11:15:03.000Z</time>
      </trkpt>
      <trkpt lat="46.32631" lon="-1.31166">
        <ele>3</ele>
        <time>2021-06-17T11:15:04.000Z</time>
      </trkpt>
      <trkpt lat="46.3263" lon="-1.31165">
        <ele>3</ele>
        <time>2021-06-17T11:15:05.000Z</time>
      </trkpt>
      <trkpt lat="46.32629" lon="-1.31164">
        <ele>3</ele>
        <time>2021-06-17T11:15:06.000Z</time>
      </trkpt>
      <trkpt lat="46.32628" lon="-1.31163">
        <ele>3</ele>
        <time>2021-06-17T11:15:07.000Z</time>
      </trkpt>
      <trkpt lat="46.32627" lon="-1.31162">
        <ele>3</ele>
        <time>2021-06-17T11:15:08.000Z</time>
      </trkpt>
      <trkpt lat="46.32626" lon="-1.31161">
        <ele>3</ele>
        <time>2021-06-17T11:15:09.000Z</time>
      </trkpt>
      <trkpt lat="46.32625" lon="-1.3116">
        <ele>3</ele>
        <time>2021-06-17T11:15:10.000Z</time>
      </trkpt>
      <trkpt lat="46.32624" lon="-1.31159">
        <ele>3</ele>
        <time>2021-06-17T11:15:11.000Z</time>
      </trkpt>
      <trkpt lat="46.32623" lon="-1.31158">
        <ele>3</ele>
        <time>2021-06-17T11:15:12.000Z</time>
      </trkpt>
      <trkpt lat="46.32623" lon="-1.31157">
        <ele>2.9</ele>
        <time>2021-06-17T11:15:13.000Z</time>
      </trkpt>
      <trkpt lat="46.32622" lon="-1.31156">
        <ele>2.9</ele>
        <time>2021-06-17T11:15:14.000Z</time>
      </trkpt>
      <trkpt lat="46.32621" lon="-1.31155">
        <ele>2.9</ele>
        <time>2021-06-17T11:15:15.000Z</time>
      </trkpt>
      <trkpt lat="46.3262" lon="-1.31154">
        <ele>2.9</ele>
        <time>2021-06-17T11:15:16.000Z</time>
      </trkpt>
      <trkpt lat="46.32619" lon="-1.31153">
        <ele>2.9</ele>
        <time>2021-06-17T11:15:17.000Z</time>
      </trkpt>
      <trkpt lat="46.32618" lon="-1.31152">
        <ele>2.9</ele>
        <time>2021-06-17T11:15:18.000Z</time>
      </trkpt>
      <trkpt lat="46.32617" lon="-1.31151">
        <ele>2.9</ele>
        <time>2021-06-17T11:15:19.000Z</time>
      </trkpt>
      <trkpt lat="46.32616" lon="-1.31151">
        <ele>2.9</ele>
        <time>2021-06-17T11:15:20.000Z</time>
      </trkpt>
      <trkpt lat="46.32615" lon="-1.31149">
        <ele>2.9</ele>
        <time>2021-06-17T11:15:21.000Z</time>
      </trkpt>
      <trkpt lat="46.32614" lon="-1.31148">
        <ele>2.9</ele>
        <time>2021-06-17T11:15:22.000Z</time>
      </trkpt>
      <trkpt lat="46.32613" lon="-1.31147">
        <ele>2.9</ele>
        <time>2021-06-17T11:15:23.000Z</time>
      </trkpt>
      <trkpt lat="46.32612" lon="-1.31146">
        <ele>2.9</ele>
        <time>2021-06-17T11:15:24.000Z</time>
      </trkpt>
      <trkpt lat="46.32611" lon="-1.31145">
        <ele>2.9</ele>
        <time>2021-06-17T11:15:25.000Z</time>
      </trkpt>
      <trkpt lat="46.3261" lon="-1.31144">
        <ele>2.9</ele>
        <time>2021-06-17T11:15:26.000Z</time>
      </trkpt>
      <trkpt lat="46.32609" lon="-1.31143">
        <ele>2.9</ele>
        <time>2021-06-17T11:15:27.000Z</time>
      </trkpt>
      <trkpt lat="46.32608" lon="-1.31142">
        <ele>2.9</ele>
        <time>2021-06-17T11:15:28.000Z</time>
      </trkpt>
      <trkpt lat="46.32607" lon="-1.31141">
        <ele>2.9</ele>
        <time>2021-06-17T11:15:29.000Z</time>
      </trkpt>
      <trkpt lat="46.32606" lon="-1.3114">
        <ele>2.9</ele>
        <time>2021-06-17T11:15:30.000Z</time>
      </trkpt>
      <trkpt lat="46.32605" lon="-1.31139">
        <ele>2.9</ele>
        <time>2021-06-17T11:15:31.000Z</time>
      </trkpt>
      <trkpt lat="46.32604" lon="-1.31138">
        <ele>2.9</ele>
        <time>2021-06-17T11:15:32.000Z</time>
      </trkpt>
      <trkpt lat="46.32604" lon="-1.31137">
        <ele>2.9</ele>
        <time>2021-06-17T11:15:33.000Z</time>
      </trkpt>
      <trkpt lat="46.32603" lon="-1.31136">
        <ele>2.9</ele>
        <time>2021-06-17T11:15:34.000Z</time>
      </trkpt>
      <trkpt lat="46.32602" lon="-1.31135">
        <ele>2.9</ele>
        <time>2021-06-17T11:15:35.000Z</time>
      </trkpt>
      <trkpt lat="46.32601" lon="-1.31134">
        <ele>2.9</ele>
        <time>2021-06-17T11:15:36.000Z</time>
      </trkpt>
      <trkpt lat="46.326" lon="-1.31133">
        <ele>2.9</ele>
        <time>2021-06-17T11:15:37.000Z</time>
      </trkpt>
      <trkpt lat="46.32599" lon="-1.31132">
        <ele>2.9</ele>
        <time>2021-06-17T11:15:38.000Z</time>
      </trkpt>
      <trkpt lat="46.32598" lon="-1.31131">
        <ele>2.9</ele>
        <time>2021-06-17T11:15:39.000Z</time>
      </trkpt>
      <trkpt lat="46.32597" lon="-1.3113">
        <ele>2.9</ele>
        <time>2021-06-17T11:15:40.000Z</time>
      </trkpt>
      <trkpt lat="46.32596" lon="-1.31128">
        <ele>2.9</ele>
        <time>2021-06-17T11:15:41.000Z</time>
      </trkpt>
      <trkpt lat="46.32595" lon="-1.31127">
        <ele>2.9</ele>
        <time>2021-06-17T11:15:42.000Z</time>
      </trkpt>
      <trkpt lat="46.32594" lon="-1.31126">
        <ele>2.9</ele>
        <time>2021-06-17T11:15:43.000Z</time>
      </trkpt>
      <trkpt lat="46.32593" lon="-1.31125">
        <ele>2.9</ele>
        <time>2021-06-17T11:15:44.000Z</time>
      </trkpt>
      <trkpt lat="46.32592" lon="-1.31124">
        <ele>2.9</ele>
        <time>2021-06-17T11:15:45.000Z</time>
      </trkpt>
      <trkpt lat="46.32591" lon="-1.31123">
        <ele>3</ele>
        <time>2021-06-17T11:15:46.000Z</time>
      </trkpt>
      <trkpt lat="46.3259" lon="-1.31122">
        <ele>3</ele>
        <time>2021-06-17T11:15:47.000Z</time>
      </trkpt>
      <trkpt lat="46.32589" lon="-1.31121">
        <ele>3</ele>
        <time>2021-06-17T11:15:48.000Z</time>
      </trkpt>
      <trkpt lat="46.32588" lon="-1.3112">
        <ele>3</ele>
        <time>2021-06-17T11:15:49.000Z</time>
      </trkpt>
      <trkpt lat="46.32587" lon="-1.31119">
        <ele>3</ele>
        <time>2021-06-17T11:15:50.000Z</time>
      </trkpt>
      <trkpt lat="46.32586" lon="-1.31118">
        <ele>3</ele>
        <time>2021-06-17T11:15:51.000Z</time>
      </trkpt>
      <trkpt lat="46.32585" lon="-1.31117">
        <ele>3</ele>
        <time>2021-06-17T11:15:52.000Z</time>
      </trkpt>
      <trkpt lat="46.32584" lon="-1.31115">
        <ele>3</ele>
        <time>2021-06-17T11:15:53.000Z</time>
      </trkpt>
      <trkpt lat="46.32583" lon="-1.31114">
        <ele>3</ele>
        <time>2021-06-17T11:15:54.000Z</time>
      </trkpt>
      <trkpt lat="46.32582" lon="-1.31113">
        <ele>3</ele>
        <time>2021-06-17T11:15:55.000Z</time>
      </trkpt>
      <trkpt lat="46.32581" lon="-1.31112">
        <ele>3</ele>
        <time>2021-06-17T11:15:56.000Z</time>
      </trkpt>
      <trkpt lat="46.3258" lon="-1.31111">
        <ele>3</ele>
        <time>2021-06-17T11:15:57.000Z</time>
      </trkpt>
      <trkpt lat="46.32579" lon="-1.3111">
        <ele>2.9</ele>
        <time>2021-06-17T11:15:58.000Z</time>
      </trkpt>
      <trkpt lat="46.32579" lon="-1.31109">
        <ele>2.9</ele>
        <time>2021-06-17T11:15:59.000Z</time>
      </trkpt>
      <trkpt lat="46.32578" lon="-1.31108">
        <ele>2.9</ele>
        <time>2021-06-17T11:16:00.000Z</time>
      </trkpt>
      <trkpt lat="46.32577" lon="-1.31107">
        <ele>2.9</ele>
        <time>2021-06-17T11:16:01.000Z</time>
      </trkpt>
      <trkpt lat="46.32576" lon="-1.31106">
        <ele>2.9</ele>
        <time>2021-06-17T11:16:02.000Z</time>
      </trkpt>
      <trkpt lat="46.32575" lon="-1.31105">
        <ele>2.8</ele>
        <time>2021-06-17T11:16:03.000Z</time>
      </trkpt>
      <trkpt lat="46.32574" lon="-1.31104">
        <ele>2.8</ele>
        <time>2021-06-17T11:16:04.000Z</time>
      </trkpt>
      <trkpt lat="46.32573" lon="-1.31103">
        <ele>2.8</ele>
        <time>2021-06-17T11:16:05.000Z</time>
      </trkpt>
      <trkpt lat="46.32572" lon="-1.31101">
        <ele>2.8</ele>
        <time>2021-06-17T11:16:06.000Z</time>
      </trkpt>
      <trkpt lat="46.32571" lon="-1.311">
        <ele>2.8</ele>
        <time>2021-06-17T11:16:07.000Z</time>
      </trkpt>
      <trkpt lat="46.3257" lon="-1.31099">
        <ele>2.7</ele>
        <time>2021-06-17T11:16:08.000Z</time>
      </trkpt>
      <trkpt lat="46.32569" lon="-1.31098">
        <ele>2.7</ele>
        <time>2021-06-17T11:16:09.000Z</time>
      </trkpt>
      <trkpt lat="46.32568" lon="-1.31097">
        <ele>2.7</ele>
        <time>2021-06-17T11:16:10.000Z</time>
      </trkpt>
      <trkpt lat="46.32567" lon="-1.31096">
        <ele>2.7</ele>
        <time>2021-06-17T11:16:11.000Z</time>
      </trkpt>
      <trkpt lat="46.32566" lon="-1.31095">
        <ele>2.6</ele>
        <time>2021-06-17T11:16:12.000Z</time>
      </trkpt>
      <trkpt lat="46.32565" lon="-1.31094">
        <ele>2.6</ele>
        <time>2021-06-17T11:16:13.000Z</time>
      </trkpt>
      <trkpt lat="46.32564" lon="-1.31093">
        <ele>2.6</ele>
        <time>2021-06-17T11:16:14.000Z</time>
      </trkpt>
      <trkpt lat="46.32563" lon="-1.31092">
        <ele>2.6</ele>
        <time>2021-06-17T11:16:15.000Z</time>
      </trkpt>
      <trkpt lat="46.32562" lon="-1.3109">
        <ele>2.5</ele>
        <time>2021-06-17T11:16:16.000Z</time>
      </trkpt>
      <trkpt lat="46.32561" lon="-1.31089">
        <ele>2.5</ele>
        <time>2021-06-17T11:16:17.000Z</time>
      </trkpt>
      <trkpt lat="46.3256" lon="-1.31088">
        <ele>2.5</ele>
        <time>2021-06-17T11:16:18.000Z</time>
      </trkpt>
      <trkpt lat="46.32559" lon="-1.31087">
        <ele>2.4</ele>
        <time>2021-06-17T11:16:19.000Z</time>
      </trkpt>
      <trkpt lat="46.32558" lon="-1.31086">
        <ele>2.4</ele>
        <time>2021-06-17T11:16:20.000Z</time>
      </trkpt>
      <trkpt lat="46.32557" lon="-1.31085">
        <ele>2.4</ele>
        <time>2021-06-17T11:16:21.000Z</time>
      </trkpt>
      <trkpt lat="46.32556" lon="-1.31084">
        <ele>2.3</ele>
        <time>2021-06-17T11:16:22.000Z</time>
      </trkpt>
      <trkpt lat="46.32555" lon="-1.31082">
        <ele>2.3</ele>
        <time>2021-06-17T11:16:23.000Z</time>
      </trkpt>
      <trkpt lat="46.32554" lon="-1.31081">
        <ele>2.3</ele>
        <time>2021-06-17T11:16:24.000Z</time>
      </trkpt>
      <trkpt lat="46.32553" lon="-1.3108">
        <ele>2.3</ele>
        <time>2021-06-17T11:16:25.000Z</time>
      </trkpt>
      <trkpt lat="46.32552" lon="-1.31079">
        <ele>2.3</ele>
        <time>2021-06-17T11:16:26.000Z</time>
      </trkpt>
      <trkpt lat="46.32551" lon="-1.31078">
        <ele>2.3</ele>
        <time>2021-06-17T11:16:27.000Z</time>
      </trkpt>
      <trkpt lat="46.3255" lon="-1.31077">
        <ele>2.2</ele>
        <time>2021-06-17T11:16:28.000Z</time>
      </trkpt>
      <trkpt lat="46.3255" lon="-1.31076">
        <ele>2.2</ele>
        <time>2021-06-17T11:16:29.000Z</time>
      </trkpt>
      <trkpt lat="46.32549" lon="-1.31075">
        <ele>2.2</ele>
        <time>2021-06-17T11:16:30.000Z</time>
      </trkpt>
      <trkpt lat="46.32548" lon="-1.31074">
        <ele>2.2</ele>
        <time>2021-06-17T11:16:31.000Z</time>
      </trkpt>
      <trkpt lat="46.32547" lon="-1.31073">
        <ele>2.2</ele>
        <time>2021-06-17T11:16:32.000Z</time>
      </trkpt>
      <trkpt lat="46.32546" lon="-1.31072">
        <ele>2.2</ele>
        <time>2021-06-17T11:16:33.000Z</time>
      </trkpt>
      <trkpt lat="46.32546" lon="-1.31071">
        <ele>2.2</ele>
        <time>2021-06-17T11:16:34.000Z</time>
      </trkpt>
      <trkpt lat="46.32545" lon="-1.3107">
        <ele>2.1</ele>
        <time>2021-06-17T11:16:35.000Z</time>
      </trkpt>
      <trkpt lat="46.32544" lon="-1.31069">
        <ele>2.1</ele>
        <time>2021-06-17T11:16:36.000Z</time>
      </trkpt>
      <trkpt lat="46.32543" lon="-1.31068">
        <ele>2.1</ele>
        <time>2021-06-17T11:16:37.000Z</time>
      </trkpt>
      <trkpt lat="46.32542" lon="-1.31067">
        <ele>2.1</ele>
        <time>2021-06-17T11:16:38.000Z</time>
      </trkpt>
      <trkpt lat="46.32541" lon="-1.31066">
        <ele>2.1</ele>
        <time>2021-06-17T11:16:39.000Z</time>
      </trkpt>
      <trkpt lat="46.32541" lon="-1.31066">
        <ele>2.1</ele>
        <time>2021-06-17T11:16:40.000Z</time>
      </trkpt>
      <trkpt lat="46.32541" lon="-1.31066">
        <ele>2.1</ele>
        <time>2021-06-17T11:16:41.000Z</time>
      </trkpt>
      <trkpt lat="46.3254" lon="-1.31066">
        <ele>2.1</ele>
        <time>2021-06-17T11:16:42.000Z</time>
      </trkpt>
      <trkpt lat="46.3254" lon="-1.31066">
        <ele>2.1</ele>
        <time>2021-06-17T11:16:43.000Z</time>
      </trkpt>
      <trkpt lat="46.3254" lon="-1.31066">
        <ele>2.1</ele>
        <time>2021-06-17T11:16:44.000Z</time>
      </trkpt>
      <trkpt lat="46.3254" lon="-1.31066">
        <ele>2.1</ele>
        <time>2021-06-17T11:16:45.000Z</time>
      </trkpt>
      <trkpt lat="46.3254" lon="-1.31066">
        <ele>2.1</ele>
        <time>2021-06-17T11:16:46.000Z</time>
      </trkpt>
      <trkpt lat="46.3254" lon="-1.31066">
        <ele>2.1</ele>
        <time>2021-06-17T11:16:47.000Z</time>
      </trkpt>
      <trkpt lat="46.32539" lon="-1.31065">
        <ele>2.1</ele>
        <time>2021-06-17T11:16:48.000Z</time>
      </trkpt>
      <trkpt lat="46.32539" lon="-1.31065">
        <ele>2</ele>
        <time>2021-06-17T11:16:49.000Z</time>
      </trkpt>
      <trkpt lat="46.32538" lon="-1.31064">
        <ele>2</ele>
        <time>2021-06-17T11:16:50.000Z</time>
      </trkpt>
      <trkpt lat="46.32537" lon="-1.31064">
        <ele>2</ele>
        <time>2021-06-17T11:16:51.000Z</time>
      </trkpt>
      <trkpt lat="46.32536" lon="-1.31063">
        <ele>2</ele>
        <time>2021-06-17T11:16:52.000Z</time>
      </trkpt>
      <trkpt lat="46.32535" lon="-1.31062">
        <ele>2</ele>
        <time>2021-06-17T11:16:53.000Z</time>
      </trkpt>
      <trkpt lat="46.32534" lon="-1.31061">
        <ele>2</ele>
        <time>2021-06-17T11:16:54.000Z</time>
      </trkpt>
      <trkpt lat="46.32533" lon="-1.3106">
        <ele>2</ele>
        <time>2021-06-17T11:16:55.000Z</time>
      </trkpt>
      <trkpt lat="46.32532" lon="-1.31059">
        <ele>1.9</ele>
        <time>2021-06-17T11:16:56.000Z</time>
      </trkpt>
      <trkpt lat="46.32531" lon="-1.31058">
        <ele>1.9</ele>
        <time>2021-06-17T11:16:57.000Z</time>
      </trkpt>
      <trkpt lat="46.3253" lon="-1.31057">
        <ele>1.9</ele>
        <time>2021-06-17T11:16:58.000Z</time>
      </trkpt>
      <trkpt lat="46.32529" lon="-1.31056">
        <ele>1.9</ele>
        <time>2021-06-17T11:16:59.000Z</time>
      </trkpt>
      <trkpt lat="46.32528" lon="-1.31055">
        <ele>1.9</ele>
        <time>2021-06-17T11:17:00.000Z</time>
      </trkpt>
      <trkpt lat="46.32528" lon="-1.31054">
        <ele>1.9</ele>
        <time>2021-06-17T11:17:01.000Z</time>
      </trkpt>
      <trkpt lat="46.32527" lon="-1.31053">
        <ele>1.9</ele>
        <time>2021-06-17T11:17:02.000Z</time>
      </trkpt>
      <trkpt lat="46.32526" lon="-1.31051">
        <ele>1.9</ele>
        <time>2021-06-17T11:17:03.000Z</time>
      </trkpt>
      <trkpt lat="46.32525" lon="-1.3105">
        <ele>1.9</ele>
        <time>2021-06-17T11:17:04.000Z</time>
      </trkpt>
      <trkpt lat="46.32524" lon="-1.31049">
        <ele>1.9</ele>
        <time>2021-06-17T11:17:05.000Z</time>
      </trkpt>
      <trkpt lat="46.32523" lon="-1.31048">
        <ele>1.9</ele>
        <time>2021-06-17T11:17:06.000Z</time>
      </trkpt>
      <trkpt lat="46.32523" lon="-1.31047">
        <ele>1.9</ele>
        <time>2021-06-17T11:17:07.000Z</time>
      </trkpt>
      <trkpt lat="46.32522" lon="-1.31046">
        <ele>1.9</ele>
        <time>2021-06-17T11:17:08.000Z</time>
      </trkpt>
      <trkpt lat="46.32521" lon="-1.31045">
        <ele>1.8</ele>
        <time>2021-06-17T11:17:09.000Z</time>
      </trkpt>
      <trkpt lat="46.3252" lon="-1.31044">
        <ele>1.8</ele>
        <time>2021-06-17T11:17:10.000Z</time>
      </trkpt>
      <trkpt lat="46.32519" lon="-1.31043">
        <ele>1.8</ele>
        <time>2021-06-17T11:17:11.000Z</time>
      </trkpt>
      <trkpt lat="46.32518" lon="-1.31041">
        <ele>1.8</ele>
        <time>2021-06-17T11:17:12.000Z</time>
      </trkpt>
      <trkpt lat="46.32517" lon="-1.3104">
        <ele>1.8</ele>
        <time>2021-06-17T11:17:13.000Z</time>
      </trkpt>
      <trkpt lat="46.32516" lon="-1.31039">
        <ele>1.8</ele>
        <time>2021-06-17T11:17:14.000Z</time>
      </trkpt>
      <trkpt lat="46.32516" lon="-1.31038">
        <ele>1.8</ele>
        <time>2021-06-17T11:17:15.000Z</time>
      </trkpt>
      <trkpt lat="46.32515" lon="-1.31037">
        <ele>1.8</ele>
        <time>2021-06-17T11:17:16.000Z</time>
      </trkpt>
      <trkpt lat="46.32514" lon="-1.31036">
        <ele>1.8</ele>
        <time>2021-06-17T11:17:17.000Z</time>
      </trkpt>
      <trkpt lat="46.32513" lon="-1.31034">
        <ele>1.8</ele>
        <time>2021-06-17T11:17:18.000Z</time>
      </trkpt>
      <trkpt lat="46.32512" lon="-1.31033">
        <ele>1.8</ele>
        <time>2021-06-17T11:17:19.000Z</time>
      </trkpt>
      <trkpt lat="46.32511" lon="-1.31032">
        <ele>1.8</ele>
        <time>2021-06-17T11:17:20.000Z</time>
      </trkpt>
      <trkpt lat="46.3251" lon="-1.31031">
        <ele>1.8</ele>
        <time>2021-06-17T11:17:21.000Z</time>
      </trkpt>
      <trkpt lat="46.32509" lon="-1.3103">
        <ele>1.8</ele>
        <time>2021-06-17T11:17:22.000Z</time>
      </trkpt>
      <trkpt lat="46.32508" lon="-1.31028">
        <ele>1.8</ele>
        <time>2021-06-17T11:17:23.000Z</time>
      </trkpt>
      <trkpt lat="46.32507" lon="-1.31027">
        <ele>1.8</ele>
        <time>2021-06-17T11:17:24.000Z</time>
      </trkpt>
      <trkpt lat="46.32506" lon="-1.31026">
        <ele>1.8</ele>
        <time>2021-06-17T11:17:25.000Z</time>
      </trkpt>
      <trkpt lat="46.32505" lon="-1.31025">
        <ele>1.8</ele>
        <time>2021-06-17T11:17:26.000Z</time>
      </trkpt>
      <trkpt lat="46.32504" lon="-1.31024">
        <ele>1.8</ele>
        <time>2021-06-17T11:17:27.000Z</time>
      </trkpt>
      <trkpt lat="46.32504" lon="-1.31023">
        <ele>1.8</ele>
        <time>2021-06-17T11:17:28.000Z</time>
      </trkpt>
      <trkpt lat="46.32503" lon="-1.31021">
        <ele>1.8</ele>
        <time>2021-06-17T11:17:29.000Z</time>
      </trkpt>
      <trkpt lat="46.32502" lon="-1.3102">
        <ele>1.8</ele>
        <time>2021-06-17T11:17:30.000Z</time>
      </trkpt>
      <trkpt lat="46.32501" lon="-1.31019">
        <ele>1.8</ele>
        <time>2021-06-17T11:17:31.000Z</time>
      </trkpt>
      <trkpt lat="46.325" lon="-1.31018">
        <ele>1.8</ele>
        <time>2021-06-17T11:17:32.000Z</time>
      </trkpt>
      <trkpt lat="46.32499" lon="-1.31018">
        <ele>1.8</ele>
        <time>2021-06-17T11:17:33.000Z</time>
      </trkpt>
      <trkpt lat="46.32498" lon="-1.31017">
        <ele>1.8</ele>
        <time>2021-06-17T11:17:34.000Z</time>
      </trkpt>
      <trkpt lat="46.32497" lon="-1.31016">
        <ele>1.8</ele>
        <time>2021-06-17T11:17:35.000Z</time>
      </trkpt>
      <trkpt lat="46.32496" lon="-1.31015">
        <ele>1.9</ele>
        <time>2021-06-17T11:17:36.000Z</time>
      </trkpt>
      <trkpt lat="46.32495" lon="-1.31014">
        <ele>1.9</ele>
        <time>2021-06-17T11:17:37.000Z</time>
      </trkpt>
      <trkpt lat="46.32494" lon="-1.31013">
        <ele>1.9</ele>
        <time>2021-06-17T11:17:38.000Z</time>
      </trkpt>
      <trkpt lat="46.32493" lon="-1.31012">
        <ele>1.9</ele>
        <time>2021-06-17T11:17:39.000Z</time>
      </trkpt>
      <trkpt lat="46.32492" lon="-1.31012">
        <ele>2</ele>
        <time>2021-06-17T11:17:40.000Z</time>
      </trkpt>
      <trkpt lat="46.32491" lon="-1.31011">
        <ele>2</ele>
        <time>2021-06-17T11:17:41.000Z</time>
      </trkpt>
      <trkpt lat="46.3249" lon="-1.3101">
        <ele>2</ele>
        <time>2021-06-17T11:17:42.000Z</time>
      </trkpt>
      <trkpt lat="46.32489" lon="-1.31009">
        <ele>2</ele>
        <time>2021-06-17T11:17:43.000Z</time>
      </trkpt>
      <trkpt lat="46.32488" lon="-1.31008">
        <ele>2</ele>
        <time>2021-06-17T11:17:44.000Z</time>
      </trkpt>
      <trkpt lat="46.32487" lon="-1.31007">
        <ele>2.1</ele>
        <time>2021-06-17T11:17:45.000Z</time>
      </trkpt>
      <trkpt lat="46.32487" lon="-1.31006">
        <ele>2.1</ele>
        <time>2021-06-17T11:17:46.000Z</time>
      </trkpt>
      <trkpt lat="46.32486" lon="-1.31005">
        <ele>2.1</ele>
        <time>2021-06-17T11:17:47.000Z</time>
      </trkpt>
      <trkpt lat="46.32485" lon="-1.31004">
        <ele>2.1</ele>
        <time>2021-06-17T11:17:48.000Z</time>
      </trkpt>
      <trkpt lat="46.32484" lon="-1.31003">
        <ele>2.2</ele>
        <time>2021-06-17T11:17:49.000Z</time>
      </trkpt>
      <trkpt lat="46.32483" lon="-1.31001">
        <ele>2.2</ele>
        <time>2021-06-17T11:17:50.000Z</time>
      </trkpt>
      <trkpt lat="46.32482" lon="-1.31">
        <ele>2.2</ele>
        <time>2021-06-17T11:17:51.000Z</time>
      </trkpt>
      <trkpt lat="46.32481" lon="-1.30999">
        <ele>2.2</ele>
        <time>2021-06-17T11:17:52.000Z</time>
      </trkpt>
      <trkpt lat="46.3248" lon="-1.30998">
        <ele>2.2</ele>
        <time>2021-06-17T11:17:53.000Z</time>
      </trkpt>
      <trkpt lat="46.32479" lon="-1.30997">
        <ele>2.2</ele>
        <time>2021-06-17T11:17:54.000Z</time>
      </trkpt>
      <trkpt lat="46.32478" lon="-1.30996">
        <ele>2.2</ele>
        <time>2021-06-17T11:17:55.000Z</time>
      </trkpt>
      <trkpt lat="46.32478" lon="-1.30994">
        <ele>2.2</ele>
        <time>2021-06-17T11:17:56.000Z</time>
      </trkpt>
      <trkpt lat="46.32477" lon="-1.30993">
        <ele>2.2</ele>
        <time>2021-06-17T11:17:57.000Z</time>
      </trkpt>
      <trkpt lat="46.32476" lon="-1.30992">
        <ele>2.2</ele>
        <time>2021-06-17T11:17:58.000Z</time>
      </trkpt>
      <trkpt lat="46.32475" lon="-1.30991">
        <ele>2.2</ele>
        <time>2021-06-17T11:17:59.000Z</time>
      </trkpt>
      <trkpt lat="46.32474" lon="-1.3099">
        <ele>2.2</ele>
        <time>2021-06-17T11:18:00.000Z</time>
      </trkpt>
      <trkpt lat="46.32473" lon="-1.30989">
        <ele>2.2</ele>
        <time>2021-06-17T11:18:01.000Z</time>
      </trkpt>
      <trkpt lat="46.32472" lon="-1.30988">
        <ele>2.2</ele>
        <time>2021-06-17T11:18:02.000Z</time>
      </trkpt>
      <trkpt lat="46.32471" lon="-1.30987">
        <ele>2.2</ele>
        <time>2021-06-17T11:18:03.000Z</time>
      </trkpt>
      <trkpt lat="46.3247" lon="-1.30986">
        <ele>2.3</ele>
        <time>2021-06-17T11:18:04.000Z</time>
      </trkpt>
      <trkpt lat="46.32469" lon="-1.30985">
        <ele>2.3</ele>
        <time>2021-06-17T11:18:05.000Z</time>
      </trkpt>
      <trkpt lat="46.32468" lon="-1.30984">
        <ele>2.3</ele>
        <time>2021-06-17T11:18:06.000Z</time>
      </trkpt>
      <trkpt lat="46.32467" lon="-1.30983">
        <ele>2.3</ele>
        <time>2021-06-17T11:18:07.000Z</time>
      </trkpt>
      <trkpt lat="46.32466" lon="-1.30982">
        <ele>2.3</ele>
        <time>2021-06-17T11:18:08.000Z</time>
      </trkpt>
      <trkpt lat="46.32465" lon="-1.30981">
        <ele>2.3</ele>
        <time>2021-06-17T11:18:09.000Z</time>
      </trkpt>
      <trkpt lat="46.32464" lon="-1.3098">
        <ele>2.3</ele>
        <time>2021-06-17T11:18:10.000Z</time>
      </trkpt>
      <trkpt lat="46.32463" lon="-1.30979">
        <ele>2.3</ele>
        <time>2021-06-17T11:18:11.000Z</time>
      </trkpt>
      <trkpt lat="46.32462" lon="-1.30979">
        <ele>2.3</ele>
        <time>2021-06-17T11:18:12.000Z</time>
      </trkpt>
      <trkpt lat="46.32461" lon="-1.30978">
        <ele>2.3</ele>
        <time>2021-06-17T11:18:13.000Z</time>
      </trkpt>
      <trkpt lat="46.3246" lon="-1.30977">
        <ele>2.3</ele>
        <time>2021-06-17T11:18:14.000Z</time>
      </trkpt>
      <trkpt lat="46.32459" lon="-1.30976">
        <ele>2.3</ele>
        <time>2021-06-17T11:18:15.000Z</time>
      </trkpt>
      <trkpt lat="46.32458" lon="-1.30975">
        <ele>2.3</ele>
        <time>2021-06-17T11:18:16.000Z</time>
      </trkpt>
      <trkpt lat="46.32458" lon="-1.30974">
        <ele>2.4</ele>
        <time>2021-06-17T11:18:17.000Z</time>
      </trkpt>
      <trkpt lat="46.32457" lon="-1.30973">
        <ele>2.4</ele>
        <time>2021-06-17T11:18:18.000Z</time>
      </trkpt>
      <trkpt lat="46.32456" lon="-1.30972">
        <ele>2.4</ele>
        <time>2021-06-17T11:18:19.000Z</time>
      </trkpt>
      <trkpt lat="46.32455" lon="-1.30971">
        <ele>2.4</ele>
        <time>2021-06-17T11:18:20.000Z</time>
      </trkpt>
      <trkpt lat="46.32454" lon="-1.3097">
        <ele>2.4</ele>
        <time>2021-06-17T11:18:21.000Z</time>
      </trkpt>
      <trkpt lat="46.32453" lon="-1.30969">
        <ele>2.4</ele>
        <time>2021-06-17T11:18:22.000Z</time>
      </trkpt>
      <trkpt lat="46.32452" lon="-1.30968">
        <ele>2.4</ele>
        <time>2021-06-17T11:18:23.000Z</time>
      </trkpt>
      <trkpt lat="46.32451" lon="-1.30967">
        <ele>2.4</ele>
        <time>2021-06-17T11:18:24.000Z</time>
      </trkpt>
      <trkpt lat="46.3245" lon="-1.30966">
        <ele>2.4</ele>
        <time>2021-06-17T11:18:25.000Z</time>
      </trkpt>
      <trkpt lat="46.32449" lon="-1.30965">
        <ele>2.4</ele>
        <time>2021-06-17T11:18:26.000Z</time>
      </trkpt>
      <trkpt lat="46.32449" lon="-1.30964">
        <ele>2.5</ele>
        <time>2021-06-17T11:18:27.000Z</time>
      </trkpt>
      <trkpt lat="46.32448" lon="-1.30963">
        <ele>2.5</ele>
        <time>2021-06-17T11:18:28.000Z</time>
      </trkpt>
      <trkpt lat="46.32447" lon="-1.30962">
        <ele>2.5</ele>
        <time>2021-06-17T11:18:29.000Z</time>
      </trkpt>
      <trkpt lat="46.32446" lon="-1.30961">
        <ele>2.5</ele>
        <time>2021-06-17T11:18:30.000Z</time>
      </trkpt>
      <trkpt lat="46.32445" lon="-1.3096">
        <ele>2.5</ele>
        <time>2021-06-17T11:18:31.000Z</time>
      </trkpt>
      <trkpt lat="46.32444" lon="-1.30959">
        <ele>2.5</ele>
        <time>2021-06-17T11:18:32.000Z</time>
      </trkpt>
      <trkpt lat="46.32443" lon="-1.30958">
        <ele>2.5</ele>
        <time>2021-06-17T11:18:33.000Z</time>
      </trkpt>
      <trkpt lat="46.32442" lon="-1.30957">
        <ele>2.5</ele>
        <time>2021-06-17T11:18:34.000Z</time>
      </trkpt>
      <trkpt lat="46.32441" lon="-1.30956">
        <ele>2.6</ele>
        <time>2021-06-17T11:18:35.000Z</time>
      </trkpt>
      <trkpt lat="46.3244" lon="-1.30955">
        <ele>2.6</ele>
        <time>2021-06-17T11:18:36.000Z</time>
      </trkpt>
      <trkpt lat="46.32439" lon="-1.30954">
        <ele>2.6</ele>
        <time>2021-06-17T11:18:37.000Z</time>
      </trkpt>
      <trkpt lat="46.32438" lon="-1.30953">
        <ele>2.6</ele>
        <time>2021-06-17T11:18:38.000Z</time>
      </trkpt>
      <trkpt lat="46.32437" lon="-1.30952">
        <ele>2.6</ele>
        <time>2021-06-17T11:18:39.000Z</time>
      </trkpt>
      <trkpt lat="46.32436" lon="-1.30951">
        <ele>2.6</ele>
        <time>2021-06-17T11:18:40.000Z</time>
      </trkpt>
      <trkpt lat="46.32435" lon="-1.3095">
        <ele>2.6</ele>
        <time>2021-06-17T11:18:41.000Z</time>
      </trkpt>
      <trkpt lat="46.32434" lon="-1.30949">
        <ele>2.7</ele>
        <time>2021-06-17T11:18:42.000Z</time>
      </trkpt>
      <trkpt lat="46.32433" lon="-1.30948">
        <ele>2.7</ele>
        <time>2021-06-17T11:18:43.000Z</time>
      </trkpt>
      <trkpt lat="46.32432" lon="-1.30947">
        <ele>2.7</ele>
        <time>2021-06-17T11:18:44.000Z</time>
      </trkpt>
      <trkpt lat="46.32431" lon="-1.30946">
        <ele>2.7</ele>
        <time>2021-06-17T11:18:45.000Z</time>
      </trkpt>
      <trkpt lat="46.3243" lon="-1.30945">
        <ele>2.7</ele>
        <time>2021-06-17T11:18:46.000Z</time>
      </trkpt>
      <trkpt lat="46.32429" lon="-1.30944">
        <ele>2.7</ele>
        <time>2021-06-17T11:18:47.000Z</time>
      </trkpt>
      <trkpt lat="46.32428" lon="-1.30943">
        <ele>2.8</ele>
        <time>2021-06-17T11:18:48.000Z</time>
      </trkpt>
      <trkpt lat="46.32427" lon="-1.30942">
        <ele>2.8</ele>
        <time>2021-06-17T11:18:49.000Z</time>
      </trkpt>
      <trkpt lat="46.32427" lon="-1.30941">
        <ele>2.8</ele>
        <time>2021-06-17T11:18:50.000Z</time>
      </trkpt>
      <trkpt lat="46.32426" lon="-1.3094">
        <ele>2.8</ele>
        <time>2021-06-17T11:18:51.000Z</time>
      </trkpt>
      <trkpt lat="46.32425" lon="-1.30939">
        <ele>2.8</ele>
        <time>2021-06-17T11:18:52.000Z</time>
      </trkpt>
      <trkpt lat="46.32424" lon="-1.30938">
        <ele>2.9</ele>
        <time>2021-06-17T11:18:53.000Z</time>
      </trkpt>
      <trkpt lat="46.32423" lon="-1.30937">
        <ele>2.9</ele>
        <time>2021-06-17T11:18:54.000Z</time>
      </trkpt>
      <trkpt lat="46.32422" lon="-1.30935">
        <ele>2.9</ele>
        <time>2021-06-17T11:18:55.000Z</time>
      </trkpt>
      <trkpt lat="46.32421" lon="-1.30934">
        <ele>2.9</ele>
        <time>2021-06-17T11:18:56.000Z</time>
      </trkpt>
      <trkpt lat="46.3242" lon="-1.30933">
        <ele>2.9</ele>
        <time>2021-06-17T11:18:57.000Z</time>
      </trkpt>
      <trkpt lat="46.32419" lon="-1.30932">
        <ele>3</ele>
        <time>2021-06-17T11:18:58.000Z</time>
      </trkpt>
      <trkpt lat="46.32418" lon="-1.30931">
        <ele>3</ele>
        <time>2021-06-17T11:18:59.000Z</time>
      </trkpt>
      <trkpt lat="46.32417" lon="-1.3093">
        <ele>3</ele>
        <time>2021-06-17T11:19:00.000Z</time>
      </trkpt>
      <trkpt lat="46.32416" lon="-1.30929">
        <ele>3</ele>
        <time>2021-06-17T11:19:01.000Z</time>
      </trkpt>
      <trkpt lat="46.32415" lon="-1.30928">
        <ele>3</ele>
        <time>2021-06-17T11:19:02.000Z</time>
      </trkpt>
      <trkpt lat="46.32414" lon="-1.30927">
        <ele>2.9</ele>
        <time>2021-06-17T11:19:03.000Z</time>
      </trkpt>
      <trkpt lat="46.32413" lon="-1.30927">
        <ele>2.9</ele>
        <time>2021-06-17T11:19:04.000Z</time>
      </trkpt>
      <trkpt lat="46.32412" lon="-1.30926">
        <ele>2.9</ele>
        <time>2021-06-17T11:19:05.000Z</time>
      </trkpt>
      <trkpt lat="46.32411" lon="-1.30925">
        <ele>2.9</ele>
        <time>2021-06-17T11:19:06.000Z</time>
      </trkpt>
      <trkpt lat="46.3241" lon="-1.30924">
        <ele>2.8</ele>
        <time>2021-06-17T11:19:07.000Z</time>
      </trkpt>
      <trkpt lat="46.32409" lon="-1.30923">
        <ele>2.8</ele>
        <time>2021-06-17T11:19:08.000Z</time>
      </trkpt>
      <trkpt lat="46.32408" lon="-1.30922">
        <ele>2.8</ele>
        <time>2021-06-17T11:19:09.000Z</time>
      </trkpt>
      <trkpt lat="46.32407" lon="-1.30921">
        <ele>2.8</ele>
        <time>2021-06-17T11:19:10.000Z</time>
      </trkpt>
      <trkpt lat="46.32406" lon="-1.3092">
        <ele>2.7</ele>
        <time>2021-06-17T11:19:11.000Z</time>
      </trkpt>
      <trkpt lat="46.32405" lon="-1.30919">
        <ele>2.7</ele>
        <time>2021-06-17T11:19:12.000Z</time>
      </trkpt>
      <trkpt lat="46.32404" lon="-1.30918">
        <ele>2.7</ele>
        <time>2021-06-17T11:19:13.000Z</time>
      </trkpt>
      <trkpt lat="46.32403" lon="-1.30917">
        <ele>2.7</ele>
        <time>2021-06-17T11:19:14.000Z</time>
      </trkpt>
      <trkpt lat="46.32402" lon="-1.30916">
        <ele>2.6</ele>
        <time>2021-06-17T11:19:15.000Z</time>
      </trkpt>
      <trkpt lat="46.32401" lon="-1.30915">
        <ele>2.6</ele>
        <time>2021-06-17T11:19:16.000Z</time>
      </trkpt>
      <trkpt lat="46.324" lon="-1.30914">
        <ele>2.5</ele>
        <time>2021-06-17T11:19:17.000Z</time>
      </trkpt>
      <trkpt lat="46.32399" lon="-1.30913">
        <ele>2.5</ele>
        <time>2021-06-17T11:19:18.000Z</time>
      </trkpt>
      <trkpt lat="46.32398" lon="-1.30912">
        <ele>2.4</ele>
        <time>2021-06-17T11:19:19.000Z</time>
      </trkpt>
      <trkpt lat="46.32397" lon="-1.30911">
        <ele>2.4</ele>
        <time>2021-06-17T11:19:20.000Z</time>
      </trkpt>
      <trkpt lat="46.32396" lon="-1.3091">
        <ele>2.3</ele>
        <time>2021-06-17T11:19:21.000Z</time>
      </trkpt>
      <trkpt lat="46.32395" lon="-1.30909">
        <ele>2.3</ele>
        <time>2021-06-17T11:19:22.000Z</time>
      </trkpt>
      <trkpt lat="46.32394" lon="-1.30908">
        <ele>2.2</ele>
        <time>2021-06-17T11:19:23.000Z</time>
      </trkpt>
      <trkpt lat="46.32393" lon="-1.30907">
        <ele>2.2</ele>
        <time>2021-06-17T11:19:24.000Z</time>
      </trkpt>
      <trkpt lat="46.32392" lon="-1.30906">
        <ele>2.1</ele>
        <time>2021-06-17T11:19:25.000Z</time>
      </trkpt>
      <trkpt lat="46.32391" lon="-1.30905">
        <ele>2.1</ele>
        <time>2021-06-17T11:19:26.000Z</time>
      </trkpt>
      <trkpt lat="46.3239" lon="-1.30904">
        <ele>2</ele>
        <time>2021-06-17T11:19:27.000Z</time>
      </trkpt>
      <trkpt lat="46.32389" lon="-1.30903">
        <ele>2</ele>
        <time>2021-06-17T11:19:28.000Z</time>
      </trkpt>
      <trkpt lat="46.32388" lon="-1.30902">
        <ele>2</ele>
        <time>2021-06-17T11:19:29.000Z</time>
      </trkpt>
      <trkpt lat="46.32387" lon="-1.30901">
        <ele>1.9</ele>
        <time>2021-06-17T11:19:30.000Z</time>
      </trkpt>
      <trkpt lat="46.32386" lon="-1.30901">
        <ele>1.9</ele>
        <time>2021-06-17T11:19:31.000Z</time>
      </trkpt>
      <trkpt lat="46.32385" lon="-1.309">
        <ele>1.8</ele>
        <time>2021-06-17T11:19:32.000Z</time>
      </trkpt>
      <trkpt lat="46.32384" lon="-1.30899">
        <ele>1.8</ele>
        <time>2021-06-17T11:19:33.000Z</time>
      </trkpt>
      <trkpt lat="46.32383" lon="-1.30898">
        <ele>1.7</ele>
        <time>2021-06-17T11:19:34.000Z</time>
      </trkpt>
      <trkpt lat="46.32382" lon="-1.30897">
        <ele>1.7</ele>
        <time>2021-06-17T11:19:35.000Z</time>
      </trkpt>
      <trkpt lat="46.32381" lon="-1.30896">
        <ele>1.6</ele>
        <time>2021-06-17T11:19:36.000Z</time>
      </trkpt>
      <trkpt lat="46.3238" lon="-1.30895">
        <ele>1.6</ele>
        <time>2021-06-17T11:19:37.000Z</time>
      </trkpt>
      <trkpt lat="46.32379" lon="-1.30894">
        <ele>1.6</ele>
        <time>2021-06-17T11:19:38.000Z</time>
      </trkpt>
      <trkpt lat="46.32378" lon="-1.30893">
        <ele>1.5</ele>
        <time>2021-06-17T11:19:39.000Z</time>
      </trkpt>
      <trkpt lat="46.32377" lon="-1.30892">
        <ele>1.5</ele>
        <time>2021-06-17T11:19:40.000Z</time>
      </trkpt>
      <trkpt lat="46.32377" lon="-1.30891">
        <ele>1.4</ele>
        <time>2021-06-17T11:19:41.000Z</time>
      </trkpt>
      <trkpt lat="46.32376" lon="-1.30891">
        <ele>1.4</ele>
        <time>2021-06-17T11:19:42.000Z</time>
      </trkpt>
      <trkpt lat="46.32375" lon="-1.3089">
        <ele>1.3</ele>
        <time>2021-06-17T11:19:43.000Z</time>
      </trkpt>
      <trkpt lat="46.32374" lon="-1.30889">
        <ele>1.3</ele>
        <time>2021-06-17T11:19:44.000Z</time>
      </trkpt>
      <trkpt lat="46.32373" lon="-1.30888">
        <ele>1.3</ele>
        <time>2021-06-17T11:19:45.000Z</time>
      </trkpt>
      <trkpt lat="46.32372" lon="-1.30887">
        <ele>1.2</ele>
        <time>2021-06-17T11:19:46.000Z</time>
      </trkpt>
      <trkpt lat="46.32371" lon="-1.30886">
        <ele>1.2</ele>
        <time>2021-06-17T11:19:47.000Z</time>
      </trkpt>
      <trkpt lat="46.3237" lon="-1.30885">
        <ele>1.1</ele>
        <time>2021-06-17T11:19:48.000Z</time>
      </trkpt>
      <trkpt lat="46.32369" lon="-1.30884">
        <ele>1.1</ele>
        <time>2021-06-17T11:19:49.000Z</time>
      </trkpt>
      <trkpt lat="46.32368" lon="-1.30883">
        <ele>1</ele>
        <time>2021-06-17T11:19:50.000Z</time>
      </trkpt>
      <trkpt lat="46.32367" lon="-1.30883">
        <ele>1</ele>
        <time>2021-06-17T11:19:51.000Z</time>
      </trkpt>
      <trkpt lat="46.32366" lon="-1.30882">
        <ele>1</ele>
        <time>2021-06-17T11:19:52.000Z</time>
      </trkpt>
      <trkpt lat="46.32365" lon="-1.30881">
        <ele>0.9</ele>
        <time>2021-06-17T11:19:53.000Z</time>
      </trkpt>
      <trkpt lat="46.32364" lon="-1.3088">
        <ele>0.9</ele>
        <time>2021-06-17T11:19:54.000Z</time>
      </trkpt>
      <trkpt lat="46.32363" lon="-1.30879">
        <ele>0.8</ele>
        <time>2021-06-17T11:19:55.000Z</time>
      </trkpt>
      <trkpt lat="46.32362" lon="-1.30878">
        <ele>0.8</ele>
        <time>2021-06-17T11:19:56.000Z</time>
      </trkpt>
      <trkpt lat="46.32361" lon="-1.30877">
        <ele>0.7</ele>
        <time>2021-06-17T11:19:57.000Z</time>
      </trkpt>
      <trkpt lat="46.3236" lon="-1.30876">
        <ele>0.7</ele>
        <time>2021-06-17T11:19:58.000Z</time>
      </trkpt>
      <trkpt lat="46.32359" lon="-1.30875">
        <ele>0.6</ele>
        <time>2021-06-17T11:19:59.000Z</time>
      </trkpt>
      <trkpt lat="46.32359" lon="-1.30874">
        <ele>0.6</ele>
        <time>2021-06-17T11:20:00.000Z</time>
      </trkpt>
      <trkpt lat="46.32358" lon="-1.30873">
        <ele>0.5</ele>
        <time>2021-06-17T11:20:01.000Z</time>
      </trkpt>
      <trkpt lat="46.32357" lon="-1.30872">
        <ele>0.5</ele>
        <time>2021-06-17T11:20:02.000Z</time>
      </trkpt>
      <trkpt lat="46.32356" lon="-1.30871">
        <ele>0.4</ele>
        <time>2021-06-17T11:20:03.000Z</time>
      </trkpt>
      <trkpt lat="46.32355" lon="-1.3087">
        <ele>0.4</ele>
        <time>2021-06-17T11:20:04.000Z</time>
      </trkpt>
      <trkpt lat="46.32354" lon="-1.30869">
        <ele>0.3</ele>
        <time>2021-06-17T11:20:05.000Z</time>
      </trkpt>
      <trkpt lat="46.32353" lon="-1.30868">
        <ele>0.3</ele>
        <time>2021-06-17T11:20:06.000Z</time>
      </trkpt>
      <trkpt lat="46.32352" lon="-1.30867">
        <ele>0.3</ele>
        <time>2021-06-17T11:20:07.000Z</time>
      </trkpt>
      <trkpt lat="46.32351" lon="-1.30866">
        <ele>0.2</ele>
        <time>2021-06-17T11:20:08.000Z</time>
      </trkpt>
      <trkpt lat="46.3235" lon="-1.30865">
        <ele>0.2</ele>
        <time>2021-06-17T11:20:09.000Z</time>
      </trkpt>
      <trkpt lat="46.32349" lon="-1.30864">
        <ele>0.1</ele>
        <time>2021-06-17T11:20:10.000Z</time>
      </trkpt>
      <trkpt lat="46.32348" lon="-1.30863">
        <ele>0.1</ele>
        <time>2021-06-17T11:20:11.000Z</time>
      </trkpt>
      <trkpt lat="46.32347" lon="-1.30863">
        <ele>1.1</ele>
        <time>2021-06-17T11:20:12.000Z</time>
      </trkpt>
      <trkpt lat="46.32346" lon="-1.30862">
        <ele>1.1</ele>
        <time>2021-06-17T11:20:13.000Z</time>
      </trkpt>
      <trkpt lat="46.32345" lon="-1.30861">
        <ele>-0.1</ele>
        <time>2021-06-17T11:20:14.000Z</time>
      </trkpt>
      <trkpt lat="46.32344" lon="-1.3086">
        <ele>-0.1</ele>
        <time>2021-06-17T11:20:15.000Z</time>
      </trkpt>
      <trkpt lat="46.32343" lon="-1.30859">
        <ele>-0.2</ele>
        <time>2021-06-17T11:20:16.000Z</time>
      </trkpt>
      <trkpt lat="46.32342" lon="-1.30858">
        <ele>-0.2</ele>
        <time>2021-06-17T11:20:17.000Z</time>
      </trkpt>
      <trkpt lat="46.32341" lon="-1.30857">
        <ele>-0.2</ele>
        <time>2021-06-17T11:20:18.000Z</time>
      </trkpt>
      <trkpt lat="46.3234" lon="-1.30856">
        <ele>-0.3</ele>
        <time>2021-06-17T11:20:19.000Z</time>
      </trkpt>
      <trkpt lat="46.32339" lon="-1.30856">
        <ele>-0.3</ele>
        <time>2021-06-17T11:20:20.000Z</time>
      </trkpt>
      <trkpt lat="46.32338" lon="-1.30855">
        <ele>-0.4</ele>
        <time>2021-06-17T11:20:21.000Z</time>
      </trkpt>
      <trkpt lat="46.32337" lon="-1.30854">
        <ele>-0.4</ele>
        <time>2021-06-17T11:20:22.000Z</time>
      </trkpt>
      <trkpt lat="46.32336" lon="-1.30853">
        <ele>-0.5</ele>
        <time>2021-06-17T11:20:23.000Z</time>
      </trkpt>
      <trkpt lat="46.32335" lon="-1.30852">
        <ele>-0.5</ele>
        <time>2021-06-17T11:20:24.000Z</time>
      </trkpt>
      <trkpt lat="46.32334" lon="-1.30851">
        <ele>-0.6</ele>
        <time>2021-06-17T11:20:25.000Z</time>
      </trkpt>
      <trkpt lat="46.32333" lon="-1.3085">
        <ele>-0.6</ele>
        <time>2021-06-17T11:20:26.000Z</time>
      </trkpt>
      <trkpt lat="46.32332" lon="-1.3085">
        <ele>-0.6</ele>
        <time>2021-06-17T11:20:27.000Z</time>
      </trkpt>
      <trkpt lat="46.32331" lon="-1.30849">
        <ele>-0.7</ele>
        <time>2021-06-17T11:20:28.000Z</time>
      </trkpt>
      <trkpt lat="46.3233" lon="-1.30848">
        <ele>-0.7</ele>
        <time>2021-06-17T11:20:29.000Z</time>
      </trkpt>
      <trkpt lat="46.32329" lon="-1.30847">
        <ele>-0.7</ele>
        <time>2021-06-17T11:20:30.000Z</time>
      </trkpt>
      <trkpt lat="46.32328" lon="-1.30846">
        <ele>-0.8</ele>
        <time>2021-06-17T11:20:31.000Z</time>
      </trkpt>
      <trkpt lat="46.32327" lon="-1.30846">
        <ele>-0.8</ele>
        <time>2021-06-17T11:20:32.000Z</time>
      </trkpt>
      <trkpt lat="46.32326" lon="-1.30845">
        <ele>-0.8</ele>
        <time>2021-06-17T11:20:33.000Z</time>
      </trkpt>
      <trkpt lat="46.32325" lon="-1.30844">
        <ele>-0.9</ele>
        <time>2021-06-17T11:20:34.000Z</time>
      </trkpt>
      <trkpt lat="46.32324" lon="-1.30843">
        <ele>-0.9</ele>
        <time>2021-06-17T11:20:35.000Z</time>
      </trkpt>
      <trkpt lat="46.32323" lon="-1.30842">
        <ele>-0.9</ele>
        <time>2021-06-17T11:20:36.000Z</time>
      </trkpt>
      <trkpt lat="46.32321" lon="-1.30842">
        <ele>-1</ele>
        <time>2021-06-17T11:20:37.000Z</time>
      </trkpt>
      <trkpt lat="46.3232" lon="-1.30841">
        <ele>-1</ele>
        <time>2021-06-17T11:20:38.000Z</time>
      </trkpt>
      <trkpt lat="46.32319" lon="-1.3084">
        <ele>-1</ele>
        <time>2021-06-17T11:20:39.000Z</time>
      </trkpt>
      <trkpt lat="46.32318" lon="-1.30839">
        <ele>-1.1</ele>
        <time>2021-06-17T11:20:40.000Z</time>
      </trkpt>
      <trkpt lat="46.32317" lon="-1.30838">
        <ele>-1.1</ele>
        <time>2021-06-17T11:20:41.000Z</time>
      </trkpt>
      <trkpt lat="46.32316" lon="-1.30837">
        <ele>-1.1</ele>
        <time>2021-06-17T11:20:42.000Z</time>
      </trkpt>
      <trkpt lat="46.32315" lon="-1.30837">
        <ele>-1.2</ele>
        <time>2021-06-17T11:20:43.000Z</time>
      </trkpt>
      <trkpt lat="46.32314" lon="-1.30836">
        <ele>-1.2</ele>
        <time>2021-06-17T11:20:44.000Z</time>
      </trkpt>
      <trkpt lat="46.32313" lon="-1.30835">
        <ele>-1.2</ele>
        <time>2021-06-17T11:20:45.000Z</time>
      </trkpt>
      <trkpt lat="46.32311" lon="-1.30834">
        <ele>-1.3</ele>
        <time>2021-06-17T11:20:46.000Z</time>
      </trkpt>
      <trkpt lat="46.3231" lon="-1.30833">
        <ele>-1.3</ele>
        <time>2021-06-17T11:20:47.000Z</time>
      </trkpt>
      <trkpt lat="46.32309" lon="-1.30832">
        <ele>-1.3</ele>
        <time>2021-06-17T11:20:48.000Z</time>
      </trkpt>
      <trkpt lat="46.32308" lon="-1.30832">
        <ele>-1.3</ele>
        <time>2021-06-17T11:20:49.000Z</time>
      </trkpt>
      <trkpt lat="46.32307" lon="-1.30831">
        <ele>-1.3</ele>
        <time>2021-06-17T11:20:50.000Z</time>
      </trkpt>
      <trkpt lat="46.32306" lon="-1.3083">
        <ele>-1.3</ele>
        <time>2021-06-17T11:20:51.000Z</time>
      </trkpt>
      <trkpt lat="46.32305" lon="-1.30829">
        <ele>-1.3</ele>
        <time>2021-06-17T11:20:52.000Z</time>
      </trkpt>
      <trkpt lat="46.32304" lon="-1.30828">
        <ele>-1.3</ele>
        <time>2021-06-17T11:20:53.000Z</time>
      </trkpt>
      <trkpt lat="46.32302" lon="-1.30827">
        <ele>-1.3</ele>
        <time>2021-06-17T11:20:54.000Z</time>
      </trkpt>
      <trkpt lat="46.32301" lon="-1.30826">
        <ele>-1.4</ele>
        <time>2021-06-17T11:20:55.000Z</time>
      </trkpt>
      <trkpt lat="46.323" lon="-1.30826">
        <ele>-1.4</ele>
        <time>2021-06-17T11:20:56.000Z</time>
      </trkpt>
      <trkpt lat="46.32299" lon="-1.30825">
        <ele>-1.4</ele>
        <time>2021-06-17T11:20:57.000Z</time>
      </trkpt>
      <trkpt lat="46.32298" lon="-1.30824">
        <ele>-1.4</ele>
        <time>2021-06-17T11:20:58.000Z</time>
      </trkpt>
      <trkpt lat="46.32297" lon="-1.30823">
        <ele>-1.4</ele>
        <time>2021-06-17T11:20:59.000Z</time>
      </trkpt>
      <trkpt lat="46.32296" lon="-1.30822">
        <ele>-1.4</ele>
        <time>2021-06-17T11:21:00.000Z</time>
      </trkpt>
      <trkpt lat="46.32295" lon="-1.30821">
        <ele>-1.4</ele>
        <time>2021-06-17T11:21:01.000Z</time>
      </trkpt>
      <trkpt lat="46.32294" lon="-1.3082">
        <ele>-1.4</ele>
        <time>2021-06-17T11:21:02.000Z</time>
      </trkpt>
      <trkpt lat="46.32293" lon="-1.30819">
        <ele>-1.4</ele>
        <time>2021-06-17T11:21:03.000Z</time>
      </trkpt>
      <trkpt lat="46.32292" lon="-1.30818">
        <ele>-1.4</ele>
        <time>2021-06-17T11:21:04.000Z</time>
      </trkpt>
      <trkpt lat="46.3229" lon="-1.30817">
        <ele>-1.4</ele>
        <time>2021-06-17T11:21:05.000Z</time>
      </trkpt>
      <trkpt lat="46.32289" lon="-1.30816">
        <ele>-1.4</ele>
        <time>2021-06-17T11:21:06.000Z</time>
      </trkpt>
      <trkpt lat="46.32288" lon="-1.30815">
        <ele>-1.4</ele>
        <time>2021-06-17T11:21:07.000Z</time>
      </trkpt>
      <trkpt lat="46.32287" lon="-1.30814">
        <ele>-1.4</ele>
        <time>2021-06-17T11:21:08.000Z</time>
      </trkpt>
      <trkpt lat="46.32286" lon="-1.30813">
        <ele>-1.4</ele>
        <time>2021-06-17T11:21:09.000Z</time>
      </trkpt>
      <trkpt lat="46.32285" lon="-1.30812">
        <ele>-1.4</ele>
        <time>2021-06-17T11:21:10.000Z</time>
      </trkpt>
      <trkpt lat="46.32284" lon="-1.30811">
        <ele>-1.4</ele>
        <time>2021-06-17T11:21:11.000Z</time>
      </trkpt>
      <trkpt lat="46.32283" lon="-1.3081">
        <ele>-1.4</ele>
        <time>2021-06-17T11:21:12.000Z</time>
      </trkpt>
      <trkpt lat="46.32283" lon="-1.30809">
        <ele>-1.4</ele>
        <time>2021-06-17T11:21:13.000Z</time>
      </trkpt>
      <trkpt lat="46.32282" lon="-1.30808">
        <ele>-1.4</ele>
        <time>2021-06-17T11:21:14.000Z</time>
      </trkpt>
      <trkpt lat="46.32281" lon="-1.30808">
        <ele>-1.4</ele>
        <time>2021-06-17T11:21:15.000Z</time>
      </trkpt>
      <trkpt lat="46.3228" lon="-1.30807">
        <ele>-1.4</ele>
        <time>2021-06-17T11:21:16.000Z</time>
      </trkpt>
      <trkpt lat="46.32279" lon="-1.30806">
        <ele>-1.4</ele>
        <time>2021-06-17T11:21:17.000Z</time>
      </trkpt>
      <trkpt lat="46.32278" lon="-1.30805">
        <ele>-1.4</ele>
        <time>2021-06-17T11:21:18.000Z</time>
      </trkpt>
      <trkpt lat="46.32277" lon="-1.30804">
        <ele>-1.4</ele>
        <time>2021-06-17T11:21:19.000Z</time>
      </trkpt>
      <trkpt lat="46.32276" lon="-1.30803">
        <ele>-1.4</ele>
        <time>2021-06-17T11:21:20.000Z</time>
      </trkpt>
      <trkpt lat="46.32275" lon="-1.30802">
        <ele>-1.4</ele>
        <time>2021-06-17T11:21:21.000Z</time>
      </trkpt>
      <trkpt lat="46.32274" lon="-1.30801">
        <ele>-1.4</ele>
        <time>2021-06-17T11:21:22.000Z</time>
      </trkpt>
      <trkpt lat="46.32273" lon="-1.308">
        <ele>-1.4</ele>
        <time>2021-06-17T11:21:23.000Z</time>
      </trkpt>
      <trkpt lat="46.32272" lon="-1.30799">
        <ele>-1.4</ele>
        <time>2021-06-17T11:21:24.000Z</time>
      </trkpt>
      <trkpt lat="46.32271" lon="-1.30798">
        <ele>-1.4</ele>
        <time>2021-06-17T11:21:25.000Z</time>
      </trkpt>
      <trkpt lat="46.3227" lon="-1.30797">
        <ele>-1.4</ele>
        <time>2021-06-17T11:21:26.000Z</time>
      </trkpt>
      <trkpt lat="46.32269" lon="-1.30796">
        <ele>-1.4</ele>
        <time>2021-06-17T11:21:27.000Z</time>
      </trkpt>
      <trkpt lat="46.32268" lon="-1.30795">
        <ele>-1.4</ele>
        <time>2021-06-17T11:21:28.000Z</time>
      </trkpt>
      <trkpt lat="46.32267" lon="-1.30794">
        <ele>-1.4</ele>
        <time>2021-06-17T11:21:29.000Z</time>
      </trkpt>
      <trkpt lat="46.32266" lon="-1.30793">
        <ele>-1.4</ele>
        <time>2021-06-17T11:21:30.000Z</time>
      </trkpt>
      <trkpt lat="46.32265" lon="-1.30792">
        <ele>-1.4</ele>
        <time>2021-06-17T11:21:31.000Z</time>
      </trkpt>
      <trkpt lat="46.32264" lon="-1.3079">
        <ele>-1.4</ele>
        <time>2021-06-17T11:21:32.000Z</time>
      </trkpt>
      <trkpt lat="46.32263" lon="-1.30789">
        <ele>-1.4</ele>
        <time>2021-06-17T11:21:33.000Z</time>
      </trkpt>
      <trkpt lat="46.32262" lon="-1.30788">
        <ele>-1.4</ele>
        <time>2021-06-17T11:21:34.000Z</time>
      </trkpt>
      <trkpt lat="46.32261" lon="-1.30787">
        <ele>-1.4</ele>
        <time>2021-06-17T11:21:35.000Z</time>
      </trkpt>
      <trkpt lat="46.32259" lon="-1.30786">
        <ele>-1.4</ele>
        <time>2021-06-17T11:21:36.000Z</time>
      </trkpt>
      <trkpt lat="46.32258" lon="-1.30785">
        <ele>-1.4</ele>
        <time>2021-06-17T11:21:37.000Z</time>
      </trkpt>
      <trkpt lat="46.32257" lon="-1.30784">
        <ele>-1.4</ele>
        <time>2021-06-17T11:21:38.000Z</time>
      </trkpt>
      <trkpt lat="46.32256" lon="-1.30783">
        <ele>-1.4</ele>
        <time>2021-06-17T11:21:39.000Z</time>
      </trkpt>
      <trkpt lat="46.32255" lon="-1.30782">
        <ele>-1.4</ele>
        <time>2021-06-17T11:21:40.000Z</time>
      </trkpt>
      <trkpt lat="46.32254" lon="-1.30781">
        <ele>-1.3</ele>
        <time>2021-06-17T11:21:41.000Z</time>
      </trkpt>
      <trkpt lat="46.32253" lon="-1.3078">
        <ele>-1.3</ele>
        <time>2021-06-17T11:21:42.000Z</time>
      </trkpt>
      <trkpt lat="46.32252" lon="-1.30778">
        <ele>-1.3</ele>
        <time>2021-06-17T11:21:43.000Z</time>
      </trkpt>
      <trkpt lat="46.32251" lon="-1.30777">
        <ele>-1.3</ele>
        <time>2021-06-17T11:21:44.000Z</time>
      </trkpt>
      <trkpt lat="46.3225" lon="-1.30776">
        <ele>-1.3</ele>
        <time>2021-06-17T11:21:45.000Z</time>
      </trkpt>
      <trkpt lat="46.32249" lon="-1.30775">
        <ele>-1.3</ele>
        <time>2021-06-17T11:21:46.000Z</time>
      </trkpt>
      <trkpt lat="46.32248" lon="-1.30774">
        <ele>-1.2</ele>
        <time>2021-06-17T11:21:47.000Z</time>
      </trkpt>
      <trkpt lat="46.32247" lon="-1.30774">
        <ele>-1.2</ele>
        <time>2021-06-17T11:21:48.000Z</time>
      </trkpt>
      <trkpt lat="46.32245" lon="-1.30773">
        <ele>-1.1</ele>
        <time>2021-06-17T11:21:49.000Z</time>
      </trkpt>
      <trkpt lat="46.32244" lon="-1.30772">
        <ele>-1.1</ele>
        <time>2021-06-17T11:21:50.000Z</time>
      </trkpt>
      <trkpt lat="46.32243" lon="-1.30771">
        <ele>-1</ele>
        <time>2021-06-17T11:21:51.000Z</time>
      </trkpt>
      <trkpt lat="46.32242" lon="-1.3077">
        <ele>-1</ele>
        <time>2021-06-17T11:21:52.000Z</time>
      </trkpt>
      <trkpt lat="46.32241" lon="-1.30769">
        <ele>-1</ele>
        <time>2021-06-17T11:21:53.000Z</time>
      </trkpt>
      <trkpt lat="46.3224" lon="-1.30768">
        <ele>-0.9</ele>
        <time>2021-06-17T11:21:54.000Z</time>
      </trkpt>
      <trkpt lat="46.32239" lon="-1.30767">
        <ele>-0.9</ele>
        <time>2021-06-17T11:21:55.000Z</time>
      </trkpt>
      <trkpt lat="46.32238" lon="-1.30766">
        <ele>-0.9</ele>
        <time>2021-06-17T11:21:56.000Z</time>
      </trkpt>
      <trkpt lat="46.32237" lon="-1.30765">
        <ele>-0.8</ele>
        <time>2021-06-17T11:21:57.000Z</time>
      </trkpt>
      <trkpt lat="46.32236" lon="-1.30764">
        <ele>-0.8</ele>
        <time>2021-06-17T11:21:58.000Z</time>
      </trkpt>
      <trkpt lat="46.32235" lon="-1.30763">
        <ele>-0.7</ele>
        <time>2021-06-17T11:21:59.000Z</time>
      </trkpt>
      <trkpt lat="46.32234" lon="-1.30762">
        <ele>-0.7</ele>
        <time>2021-06-17T11:22:00.000Z</time>
      </trkpt>
      <trkpt lat="46.32233" lon="-1.30761">
        <ele>-0.7</ele>
        <time>2021-06-17T11:22:01.000Z</time>
      </trkpt>
      <trkpt lat="46.32232" lon="-1.3076">
        <ele>-0.6</ele>
        <time>2021-06-17T11:22:02.000Z</time>
      </trkpt>
      <trkpt lat="46.32231" lon="-1.30759">
        <ele>-0.6</ele>
        <time>2021-06-17T11:22:03.000Z</time>
      </trkpt>
      <trkpt lat="46.3223" lon="-1.30758">
        <ele>-0.6</ele>
        <time>2021-06-17T11:22:04.000Z</time>
      </trkpt>
      <trkpt lat="46.32229" lon="-1.30757">
        <ele>-0.5</ele>
        <time>2021-06-17T11:22:05.000Z</time>
      </trkpt>
      <trkpt lat="46.32228" lon="-1.30756">
        <ele>-0.5</ele>
        <time>2021-06-17T11:22:06.000Z</time>
      </trkpt>
      <trkpt lat="46.32227" lon="-1.30755">
        <ele>-0.5</ele>
        <time>2021-06-17T11:22:07.000Z</time>
      </trkpt>
      <trkpt lat="46.32226" lon="-1.30754">
        <ele>-0.4</ele>
        <time>2021-06-17T11:22:08.000Z</time>
      </trkpt>
      <trkpt lat="46.32225" lon="-1.30753">
        <ele>-0.4</ele>
        <time>2021-06-17T11:22:09.000Z</time>
      </trkpt>
      <trkpt lat="46.32224" lon="-1.30752">
        <ele>-0.4</ele>
        <time>2021-06-17T11:22:10.000Z</time>
      </trkpt>
      <trkpt lat="46.32223" lon="-1.30752">
        <ele>-0.3</ele>
        <time>2021-06-17T11:22:11.000Z</time>
      </trkpt>
      <trkpt lat="46.32222" lon="-1.30751">
        <ele>-0.3</ele>
        <time>2021-06-17T11:22:12.000Z</time>
      </trkpt>
      <trkpt lat="46.32221" lon="-1.3075">
        <ele>-0.3</ele>
        <time>2021-06-17T11:22:13.000Z</time>
      </trkpt>
      <trkpt lat="46.3222" lon="-1.30749">
        <ele>-0.3</ele>
        <time>2021-06-17T11:22:14.000Z</time>
      </trkpt>
      <trkpt lat="46.32219" lon="-1.30748">
        <ele>-0.2</ele>
        <time>2021-06-17T11:22:15.000Z</time>
      </trkpt>
      <trkpt lat="46.32218" lon="-1.30747">
        <ele>-0.2</ele>
        <time>2021-06-17T11:22:16.000Z</time>
      </trkpt>
      <trkpt lat="46.32217" lon="-1.30746">
        <ele>-0.2</ele>
        <time>2021-06-17T11:22:17.000Z</time>
      </trkpt>
      <trkpt lat="46.32216" lon="-1.30745">
        <ele>-0.2</ele>
        <time>2021-06-17T11:22:18.000Z</time>
      </trkpt>
      <trkpt lat="46.32215" lon="-1.30744">
        <ele>-0.1</ele>
        <time>2021-06-17T11:22:19.000Z</time>
      </trkpt>
      <trkpt lat="46.32214" lon="-1.30743">
        <ele>-0.1</ele>
        <time>2021-06-17T11:22:20.000Z</time>
      </trkpt>
      <trkpt lat="46.32213" lon="-1.30742">
        <ele>-0.1</ele>
        <time>2021-06-17T11:22:21.000Z</time>
      </trkpt>
      <trkpt lat="46.32212" lon="-1.30741">
        <ele>-0.1</ele>
        <time>2021-06-17T11:22:22.000Z</time>
      </trkpt>
      <trkpt lat="46.32211" lon="-1.30741">
        <ele>-0.1</ele>
        <time>2021-06-17T11:22:23.000Z</time>
      </trkpt>
      <trkpt lat="46.3221" lon="-1.3074">
        <ele>1</ele>
        <time>2021-06-17T11:22:24.000Z</time>
      </trkpt>
      <trkpt lat="46.32209" lon="-1.30739">
        <ele>1</ele>
        <time>2021-06-17T11:22:25.000Z</time>
      </trkpt>
      <trkpt lat="46.32208" lon="-1.30738">
        <ele>1</ele>
        <time>2021-06-17T11:22:26.000Z</time>
      </trkpt>
      <trkpt lat="46.32207" lon="-1.30737">
        <ele>1</ele>
        <time>2021-06-17T11:22:27.000Z</time>
      </trkpt>
      <trkpt lat="46.32206" lon="-1.30736">
        <ele>0.1</ele>
        <time>2021-06-17T11:22:28.000Z</time>
      </trkpt>
      <trkpt lat="46.32205" lon="-1.30735">
        <ele>0.1</ele>
        <time>2021-06-17T11:22:29.000Z</time>
      </trkpt>
      <trkpt lat="46.32204" lon="-1.30735">
        <ele>0.1</ele>
        <time>2021-06-17T11:22:30.000Z</time>
      </trkpt>
      <trkpt lat="46.32203" lon="-1.30734">
        <ele>0.1</ele>
        <time>2021-06-17T11:22:31.000Z</time>
      </trkpt>
      <trkpt lat="46.32202" lon="-1.30733">
        <ele>0.1</ele>
        <time>2021-06-17T11:22:32.000Z</time>
      </trkpt>
      <trkpt lat="46.32201" lon="-1.30732">
        <ele>0.2</ele>
        <time>2021-06-17T11:22:33.000Z</time>
      </trkpt>
      <trkpt lat="46.322" lon="-1.30731">
        <ele>0.2</ele>
        <time>2021-06-17T11:22:34.000Z</time>
      </trkpt>
      <trkpt lat="46.32199" lon="-1.3073">
        <ele>0.2</ele>
        <time>2021-06-17T11:22:35.000Z</time>
      </trkpt>
      <trkpt lat="46.32198" lon="-1.3073">
        <ele>0.2</ele>
        <time>2021-06-17T11:22:36.000Z</time>
      </trkpt>
      <trkpt lat="46.32197" lon="-1.30729">
        <ele>0.3</ele>
        <time>2021-06-17T11:22:37.000Z</time>
      </trkpt>
      <trkpt lat="46.32196" lon="-1.30728">
        <ele>0.3</ele>
        <time>2021-06-17T11:22:38.000Z</time>
      </trkpt>
      <trkpt lat="46.32195" lon="-1.30727">
        <ele>0.3</ele>
        <time>2021-06-17T11:22:39.000Z</time>
      </trkpt>
      <trkpt lat="46.32194" lon="-1.30726">
        <ele>0.3</ele>
        <time>2021-06-17T11:22:40.000Z</time>
      </trkpt>
      <trkpt lat="46.32193" lon="-1.30726">
        <ele>0.4</ele>
        <time>2021-06-17T11:22:41.000Z</time>
      </trkpt>
      <trkpt lat="46.32192" lon="-1.30725">
        <ele>0.4</ele>
        <time>2021-06-17T11:22:42.000Z</time>
      </trkpt>
      <trkpt lat="46.32191" lon="-1.30724">
        <ele>0.4</ele>
        <time>2021-06-17T11:22:43.000Z</time>
      </trkpt>
      <trkpt lat="46.3219" lon="-1.30723">
        <ele>0.4</ele>
        <time>2021-06-17T11:22:44.000Z</time>
      </trkpt>
      <trkpt lat="46.32189" lon="-1.30722">
        <ele>0.5</ele>
        <time>2021-06-17T11:22:45.000Z</time>
      </trkpt>
      <trkpt lat="46.32188" lon="-1.30721">
        <ele>0.5</ele>
        <time>2021-06-17T11:22:46.000Z</time>
      </trkpt>
      <trkpt lat="46.32187" lon="-1.3072">
        <ele>0.5</ele>
        <time>2021-06-17T11:22:47.000Z</time>
      </trkpt>
      <trkpt lat="46.32186" lon="-1.30719">
        <ele>0.5</ele>
        <time>2021-06-17T11:22:48.000Z</time>
      </trkpt>
      <trkpt lat="46.32185" lon="-1.30718">
        <ele>0.6</ele>
        <time>2021-06-17T11:22:49.000Z</time>
      </trkpt>
      <trkpt lat="46.32184" lon="-1.30717">
        <ele>0.6</ele>
        <time>2021-06-17T11:22:50.000Z</time>
      </trkpt>
      <trkpt lat="46.32183" lon="-1.30716">
        <ele>0.6</ele>
        <time>2021-06-17T11:22:51.000Z</time>
      </trkpt>
      <trkpt lat="46.32183" lon="-1.30715">
        <ele>0.6</ele>
        <time>2021-06-17T11:22:52.000Z</time>
      </trkpt>
      <trkpt lat="46.32182" lon="-1.30713">
        <ele>0.6</ele>
        <time>2021-06-17T11:22:53.000Z</time>
      </trkpt>
      <trkpt lat="46.32181" lon="-1.30712">
        <ele>0.7</ele>
        <time>2021-06-17T11:22:54.000Z</time>
      </trkpt>
      <trkpt lat="46.3218" lon="-1.30711">
        <ele>0.7</ele>
        <time>2021-06-17T11:22:55.000Z</time>
      </trkpt>
      <trkpt lat="46.32179" lon="-1.30709">
        <ele>0.7</ele>
        <time>2021-06-17T11:22:56.000Z</time>
      </trkpt>
      <trkpt lat="46.32179" lon="-1.30708">
        <ele>0.7</ele>
        <time>2021-06-17T11:22:57.000Z</time>
      </trkpt>
      <trkpt lat="46.32178" lon="-1.30706">
        <ele>0.7</ele>
        <time>2021-06-17T11:22:58.000Z</time>
      </trkpt>
      <trkpt lat="46.32177" lon="-1.30704">
        <ele>0.7</ele>
        <time>2021-06-17T11:22:59.000Z</time>
      </trkpt>
      <trkpt lat="46.32176" lon="-1.30703">
        <ele>0.8</ele>
        <time>2021-06-17T11:23:00.000Z</time>
      </trkpt>
      <trkpt lat="46.32176" lon="-1.30701">
        <ele>0.8</ele>
        <time>2021-06-17T11:23:01.000Z</time>
      </trkpt>
      <trkpt lat="46.32175" lon="-1.307">
        <ele>0.8</ele>
        <time>2021-06-17T11:23:02.000Z</time>
      </trkpt>
      <trkpt lat="46.32174" lon="-1.30699">
        <ele>0.8</ele>
        <time>2021-06-17T11:23:03.000Z</time>
      </trkpt>
      <trkpt lat="46.32173" lon="-1.30697">
        <ele>0.8</ele>
        <time>2021-06-17T11:23:04.000Z</time>
      </trkpt>
      <trkpt lat="46.32172" lon="-1.30696">
        <ele>0.9</ele>
        <time>2021-06-17T11:23:05.000Z</time>
      </trkpt>
      <trkpt lat="46.32172" lon="-1.30696">
        <ele>0.9</ele>
        <time>2021-06-17T11:23:06.000Z</time>
      </trkpt>
      <trkpt lat="46.32171" lon="-1.30695">
        <ele>0.9</ele>
        <time>2021-06-17T11:23:07.000Z</time>
      </trkpt>
      <trkpt lat="46.3217" lon="-1.30694">
        <ele>0.9</ele>
        <time>2021-06-17T11:23:08.000Z</time>
      </trkpt>
      <trkpt lat="46.32169" lon="-1.30693">
        <ele>1</ele>
        <time>2021-06-17T11:23:09.000Z</time>
      </trkpt>
      <trkpt lat="46.32168" lon="-1.30692">
        <ele>1</ele>
        <time>2021-06-17T11:23:10.000Z</time>
      </trkpt>
      <trkpt lat="46.32167" lon="-1.30691">
        <ele>1</ele>
        <time>2021-06-17T11:23:11.000Z</time>
      </trkpt>
      <trkpt lat="46.32166" lon="-1.3069">
        <ele>1</ele>
        <time>2021-06-17T11:23:12.000Z</time>
      </trkpt>
      <trkpt lat="46.32165" lon="-1.30689">
        <ele>1</ele>
        <time>2021-06-17T11:23:13.000Z</time>
      </trkpt>
      <trkpt lat="46.32164" lon="-1.30687">
        <ele>1</ele>
        <time>2021-06-17T11:23:14.000Z</time>
      </trkpt>
      <trkpt lat="46.32163" lon="-1.30686">
        <ele>1.1</ele>
        <time>2021-06-17T11:23:15.000Z</time>
      </trkpt>
      <trkpt lat="46.32162" lon="-1.30685">
        <ele>1.1</ele>
        <time>2021-06-17T11:23:16.000Z</time>
      </trkpt>
      <trkpt lat="46.32161" lon="-1.30683">
        <ele>1.1</ele>
        <time>2021-06-17T11:23:17.000Z</time>
      </trkpt>
      <trkpt lat="46.3216" lon="-1.30682">
        <ele>1.1</ele>
        <time>2021-06-17T11:23:18.000Z</time>
      </trkpt>
      <trkpt lat="46.32159" lon="-1.30681">
        <ele>1.1</ele>
        <time>2021-06-17T11:23:19.000Z</time>
      </trkpt>
      <trkpt lat="46.32158" lon="-1.3068">
        <ele>1.1</ele>
        <time>2021-06-17T11:23:20.000Z</time>
      </trkpt>
      <trkpt lat="46.32157" lon="-1.30678">
        <ele>1.1</ele>
        <time>2021-06-17T11:23:21.000Z</time>
      </trkpt>
      <trkpt lat="46.32156" lon="-1.30677">
        <ele>1.1</ele>
        <time>2021-06-17T11:23:22.000Z</time>
      </trkpt>
      <trkpt lat="46.32155" lon="-1.30676">
        <ele>1.2</ele>
        <time>2021-06-17T11:23:23.000Z</time>
      </trkpt>
      <trkpt lat="46.32154" lon="-1.30675">
        <ele>1.2</ele>
        <time>2021-06-17T11:23:24.000Z</time>
      </trkpt>
      <trkpt lat="46.32153" lon="-1.30674">
        <ele>1.2</ele>
        <time>2021-06-17T11:23:25.000Z</time>
      </trkpt>
      <trkpt lat="46.32152" lon="-1.30673">
        <ele>1.2</ele>
        <time>2021-06-17T11:23:26.000Z</time>
      </trkpt>
      <trkpt lat="46.32151" lon="-1.30672">
        <ele>1.2</ele>
        <time>2021-06-17T11:23:27.000Z</time>
      </trkpt>
      <trkpt lat="46.3215" lon="-1.30672">
        <ele>1.2</ele>
        <time>2021-06-17T11:23:28.000Z</time>
      </trkpt>
      <trkpt lat="46.32149" lon="-1.30671">
        <ele>1.2</ele>
        <time>2021-06-17T11:23:29.000Z</time>
      </trkpt>
      <trkpt lat="46.32148" lon="-1.3067">
        <ele>1.2</ele>
        <time>2021-06-17T11:23:30.000Z</time>
      </trkpt>
      <trkpt lat="46.32147" lon="-1.30669">
        <ele>1.2</ele>
        <time>2021-06-17T11:23:31.000Z</time>
      </trkpt>
      <trkpt lat="46.32146" lon="-1.30669">
        <ele>1.3</ele>
        <time>2021-06-17T11:23:32.000Z</time>
      </trkpt>
      <trkpt lat="46.32144" lon="-1.30668">
        <ele>1.3</ele>
        <time>2021-06-17T11:23:33.000Z</time>
      </trkpt>
      <trkpt lat="46.32143" lon="-1.30667">
        <ele>1.3</ele>
        <time>2021-06-17T11:23:34.000Z</time>
      </trkpt>
      <trkpt lat="46.32142" lon="-1.30667">
        <ele>1.3</ele>
        <time>2021-06-17T11:23:35.000Z</time>
      </trkpt>
      <trkpt lat="46.32141" lon="-1.30666">
        <ele>1.3</ele>
        <time>2021-06-17T11:23:36.000Z</time>
      </trkpt>
      <trkpt lat="46.3214" lon="-1.30666">
        <ele>1.3</ele>
        <time>2021-06-17T11:23:37.000Z</time>
      </trkpt>
      <trkpt lat="46.32139" lon="-1.30665">
        <ele>1.3</ele>
        <time>2021-06-17T11:23:38.000Z</time>
      </trkpt>
      <trkpt lat="46.32138" lon="-1.30665">
        <ele>1.3</ele>
        <time>2021-06-17T11:23:39.000Z</time>
      </trkpt>
      <trkpt lat="46.32136" lon="-1.30664">
        <ele>1.3</ele>
        <time>2021-06-17T11:23:40.000Z</time>
      </trkpt>
      <trkpt lat="46.32135" lon="-1.30664">
        <ele>1.4</ele>
        <time>2021-06-17T11:23:41.000Z</time>
      </trkpt>
      <trkpt lat="46.32134" lon="-1.30664">
        <ele>1.4</ele>
        <time>2021-06-17T11:23:42.000Z</time>
      </trkpt>
      <trkpt lat="46.32133" lon="-1.30663">
        <ele>1.4</ele>
        <time>2021-06-17T11:23:43.000Z</time>
      </trkpt>
      <trkpt lat="46.32132" lon="-1.30663">
        <ele>1.4</ele>
        <time>2021-06-17T11:23:44.000Z</time>
      </trkpt>
      <trkpt lat="46.3213" lon="-1.30662">
        <ele>1.4</ele>
        <time>2021-06-17T11:23:45.000Z</time>
      </trkpt>
      <trkpt lat="46.32129" lon="-1.30662">
        <ele>1.4</ele>
        <time>2021-06-17T11:23:46.000Z</time>
      </trkpt>
      <trkpt lat="46.32128" lon="-1.30662">
        <ele>1.4</ele>
        <time>2021-06-17T11:23:47.000Z</time>
      </trkpt>
      <trkpt lat="46.32127" lon="-1.30661">
        <ele>1.4</ele>
        <time>2021-06-17T11:23:48.000Z</time>
      </trkpt>
      <trkpt lat="46.32126" lon="-1.30661">
        <ele>1.5</ele>
        <time>2021-06-17T11:23:49.000Z</time>
      </trkpt>
      <trkpt lat="46.32124" lon="-1.30661">
        <ele>1.5</ele>
        <time>2021-06-17T11:23:50.000Z</time>
      </trkpt>
      <trkpt lat="46.32123" lon="-1.3066">
        <ele>1.5</ele>
        <time>2021-06-17T11:23:51.000Z</time>
      </trkpt>
      <trkpt lat="46.32122" lon="-1.3066">
        <ele>1.5</ele>
        <time>2021-06-17T11:23:52.000Z</time>
      </trkpt>
      <trkpt lat="46.32121" lon="-1.30659">
        <ele>1.5</ele>
        <time>2021-06-17T11:23:53.000Z</time>
      </trkpt>
      <trkpt lat="46.3212" lon="-1.30659">
        <ele>1.5</ele>
        <time>2021-06-17T11:23:54.000Z</time>
      </trkpt>
      <trkpt lat="46.32118" lon="-1.30659">
        <ele>1.5</ele>
        <time>2021-06-17T11:23:55.000Z</time>
      </trkpt>
      <trkpt lat="46.32117" lon="-1.30658">
        <ele>1.6</ele>
        <time>2021-06-17T11:23:56.000Z</time>
      </trkpt>
      <trkpt lat="46.32116" lon="-1.30658">
        <ele>1.6</ele>
        <time>2021-06-17T11:23:57.000Z</time>
      </trkpt>
      <trkpt lat="46.32115" lon="-1.30658">
        <ele>1.6</ele>
        <time>2021-06-17T11:23:58.000Z</time>
      </trkpt>
      <trkpt lat="46.32114" lon="-1.30657">
        <ele>1.6</ele>
        <time>2021-06-17T11:23:59.000Z</time>
      </trkpt>
      <trkpt lat="46.32112" lon="-1.30657">
        <ele>1.6</ele>
        <time>2021-06-17T11:24:00.000Z</time>
      </trkpt>
      <trkpt lat="46.32111" lon="-1.30657">
        <ele>1.6</ele>
        <time>2021-06-17T11:24:01.000Z</time>
      </trkpt>
      <trkpt lat="46.3211" lon="-1.30656">
        <ele>1.6</ele>
        <time>2021-06-17T11:24:02.000Z</time>
      </trkpt>
      <trkpt lat="46.32109" lon="-1.30656">
        <ele>1.7</ele>
        <time>2021-06-17T11:24:03.000Z</time>
      </trkpt>
      <trkpt lat="46.32108" lon="-1.30655">
        <ele>1.7</ele>
        <time>2021-06-17T11:24:04.000Z</time>
      </trkpt>
      <trkpt lat="46.32106" lon="-1.30655">
        <ele>1.7</ele>
        <time>2021-06-17T11:24:05.000Z</time>
      </trkpt>
      <trkpt lat="46.32105" lon="-1.30655">
        <ele>1.7</ele>
        <time>2021-06-17T11:24:06.000Z</time>
      </trkpt>
      <trkpt lat="46.32104" lon="-1.30654">
        <ele>1.7</ele>
        <time>2021-06-17T11:24:07.000Z</time>
      </trkpt>
      <trkpt lat="46.32103" lon="-1.30654">
        <ele>1.7</ele>
        <time>2021-06-17T11:24:08.000Z</time>
      </trkpt>
      <trkpt lat="46.32102" lon="-1.30653">
        <ele>1.7</ele>
        <time>2021-06-17T11:24:09.000Z</time>
      </trkpt>
      <trkpt lat="46.321" lon="-1.30653">
        <ele>1.8</ele>
        <time>2021-06-17T11:24:10.000Z</time>
      </trkpt>
      <trkpt lat="46.32099" lon="-1.30652">
        <ele>1.8</ele>
        <time>2021-06-17T11:24:11.000Z</time>
      </trkpt>
      <trkpt lat="46.32098" lon="-1.30652">
        <ele>1.8</ele>
        <time>2021-06-17T11:24:12.000Z</time>
      </trkpt>
      <trkpt lat="46.32097" lon="-1.30651">
        <ele>1.8</ele>
        <time>2021-06-17T11:24:13.000Z</time>
      </trkpt>
      <trkpt lat="46.32096" lon="-1.3065">
        <ele>1.8</ele>
        <time>2021-06-17T11:24:14.000Z</time>
      </trkpt>
      <trkpt lat="46.32095" lon="-1.3065">
        <ele>1.8</ele>
        <time>2021-06-17T11:24:15.000Z</time>
      </trkpt>
      <trkpt lat="46.32093" lon="-1.30649">
        <ele>1.9</ele>
        <time>2021-06-17T11:24:16.000Z</time>
      </trkpt>
      <trkpt lat="46.32092" lon="-1.30649">
        <ele>1.9</ele>
        <time>2021-06-17T11:24:17.000Z</time>
      </trkpt>
      <trkpt lat="46.32091" lon="-1.30648">
        <ele>1.9</ele>
        <time>2021-06-17T11:24:18.000Z</time>
      </trkpt>
      <trkpt lat="46.3209" lon="-1.30647">
        <ele>1.9</ele>
        <time>2021-06-17T11:24:19.000Z</time>
      </trkpt>
      <trkpt lat="46.32089" lon="-1.30647">
        <ele>1.9</ele>
        <time>2021-06-17T11:24:20.000Z</time>
      </trkpt>
      <trkpt lat="46.32088" lon="-1.30646">
        <ele>1.9</ele>
        <time>2021-06-17T11:24:21.000Z</time>
      </trkpt>
      <trkpt lat="46.32087" lon="-1.30645">
        <ele>2</ele>
        <time>2021-06-17T11:24:22.000Z</time>
      </trkpt>
      <trkpt lat="46.32086" lon="-1.30645">
        <ele>2</ele>
        <time>2021-06-17T11:24:23.000Z</time>
      </trkpt>
      <trkpt lat="46.32084" lon="-1.30644">
        <ele>2</ele>
        <time>2021-06-17T11:24:24.000Z</time>
      </trkpt>
      <trkpt lat="46.32083" lon="-1.30643">
        <ele>2</ele>
        <time>2021-06-17T11:24:25.000Z</time>
      </trkpt>
      <trkpt lat="46.32082" lon="-1.30643">
        <ele>2</ele>
        <time>2021-06-17T11:24:26.000Z</time>
      </trkpt>
      <trkpt lat="46.32081" lon="-1.30642">
        <ele>2.1</ele>
        <time>2021-06-17T11:24:27.000Z</time>
      </trkpt>
      <trkpt lat="46.3208" lon="-1.30641">
        <ele>2.1</ele>
        <time>2021-06-17T11:24:28.000Z</time>
      </trkpt>
      <trkpt lat="46.32079" lon="-1.30641">
        <ele>2.1</ele>
        <time>2021-06-17T11:24:29.000Z</time>
      </trkpt>
      <trkpt lat="46.32078" lon="-1.3064">
        <ele>2.1</ele>
        <time>2021-06-17T11:24:30.000Z</time>
      </trkpt>
      <trkpt lat="46.32077" lon="-1.30639">
        <ele>2.2</ele>
        <time>2021-06-17T11:24:31.000Z</time>
      </trkpt>
      <trkpt lat="46.32075" lon="-1.30639">
        <ele>2.2</ele>
        <time>2021-06-17T11:24:32.000Z</time>
      </trkpt>
      <trkpt lat="46.32074" lon="-1.30638">
        <ele>2.2</ele>
        <time>2021-06-17T11:24:33.000Z</time>
      </trkpt>
      <trkpt lat="46.32073" lon="-1.30637">
        <ele>2.2</ele>
        <time>2021-06-17T11:24:34.000Z</time>
      </trkpt>
      <trkpt lat="46.32072" lon="-1.30637">
        <ele>2.3</ele>
        <time>2021-06-17T11:24:35.000Z</time>
      </trkpt>
      <trkpt lat="46.32071" lon="-1.30636">
        <ele>2.3</ele>
        <time>2021-06-17T11:24:36.000Z</time>
      </trkpt>
      <trkpt lat="46.3207" lon="-1.30636">
        <ele>2.3</ele>
        <time>2021-06-17T11:24:37.000Z</time>
      </trkpt>
      <trkpt lat="46.32069" lon="-1.30635">
        <ele>2.3</ele>
        <time>2021-06-17T11:24:38.000Z</time>
      </trkpt>
      <trkpt lat="46.32068" lon="-1.30635">
        <ele>2.3</ele>
        <time>2021-06-17T11:24:39.000Z</time>
      </trkpt>
      <trkpt lat="46.32066" lon="-1.30634">
        <ele>2.4</ele>
        <time>2021-06-17T11:24:40.000Z</time>
      </trkpt>
      <trkpt lat="46.32065" lon="-1.30634">
        <ele>2.4</ele>
        <time>2021-06-17T11:24:41.000Z</time>
      </trkpt>
      <trkpt lat="46.32064" lon="-1.30633">
        <ele>2.4</ele>
        <time>2021-06-17T11:24:42.000Z</time>
      </trkpt>
      <trkpt lat="46.32063" lon="-1.30633">
        <ele>2.4</ele>
        <time>2021-06-17T11:24:43.000Z</time>
      </trkpt>
      <trkpt lat="46.32062" lon="-1.30632">
        <ele>2.5</ele>
        <time>2021-06-17T11:24:44.000Z</time>
      </trkpt>
      <trkpt lat="46.32061" lon="-1.30632">
        <ele>2.5</ele>
        <time>2021-06-17T11:24:45.000Z</time>
      </trkpt>
      <trkpt lat="46.3206" lon="-1.30632">
        <ele>2.5</ele>
        <time>2021-06-17T11:24:46.000Z</time>
      </trkpt>
      <trkpt lat="46.32058" lon="-1.30631">
        <ele>2.5</ele>
        <time>2021-06-17T11:24:47.000Z</time>
      </trkpt>
      <trkpt lat="46.32057" lon="-1.30631">
        <ele>2.5</ele>
        <time>2021-06-17T11:24:48.000Z</time>
      </trkpt>
      <trkpt lat="46.32056" lon="-1.30631">
        <ele>2.6</ele>
        <time>2021-06-17T11:24:49.000Z</time>
      </trkpt>
      <trkpt lat="46.32055" lon="-1.3063">
        <ele>2.6</ele>
        <time>2021-06-17T11:24:50.000Z</time>
      </trkpt>
      <trkpt lat="46.32054" lon="-1.3063">
        <ele>2.6</ele>
        <time>2021-06-17T11:24:51.000Z</time>
      </trkpt>
      <trkpt lat="46.32052" lon="-1.3063">
        <ele>2.6</ele>
        <time>2021-06-17T11:24:52.000Z</time>
      </trkpt>
      <trkpt lat="46.32051" lon="-1.30629">
        <ele>2.6</ele>
        <time>2021-06-17T11:24:53.000Z</time>
      </trkpt>
      <trkpt lat="46.3205" lon="-1.30629">
        <ele>2.7</ele>
        <time>2021-06-17T11:24:54.000Z</time>
      </trkpt>
      <trkpt lat="46.32049" lon="-1.30629">
        <ele>2.7</ele>
        <time>2021-06-17T11:24:55.000Z</time>
      </trkpt>
      <trkpt lat="46.32048" lon="-1.30629">
        <ele>2.7</ele>
        <time>2021-06-17T11:24:56.000Z</time>
      </trkpt>
      <trkpt lat="46.32047" lon="-1.30628">
        <ele>2.7</ele>
        <time>2021-06-17T11:24:57.000Z</time>
      </trkpt>
      <trkpt lat="46.32045" lon="-1.30628">
        <ele>2.7</ele>
        <time>2021-06-17T11:24:58.000Z</time>
      </trkpt>
      <trkpt lat="46.32044" lon="-1.30628">
        <ele>2.8</ele>
        <time>2021-06-17T11:24:59.000Z</time>
      </trkpt>
      <trkpt lat="46.32043" lon="-1.30628">
        <ele>2.8</ele>
        <time>2021-06-17T11:25:00.000Z</time>
      </trkpt>
      <trkpt lat="46.32042" lon="-1.30627">
        <ele>2.8</ele>
        <time>2021-06-17T11:25:01.000Z</time>
      </trkpt>
      <trkpt lat="46.32041" lon="-1.30627">
        <ele>2.8</ele>
        <time>2021-06-17T11:25:02.000Z</time>
      </trkpt>
      <trkpt lat="46.32039" lon="-1.30627">
        <ele>2.8</ele>
        <time>2021-06-17T11:25:03.000Z</time>
      </trkpt>
      <trkpt lat="46.32038" lon="-1.30627">
        <ele>2.8</ele>
        <time>2021-06-17T11:25:04.000Z</time>
      </trkpt>
      <trkpt lat="46.32037" lon="-1.30626">
        <ele>2.9</ele>
        <time>2021-06-17T11:25:05.000Z</time>
      </trkpt>
      <trkpt lat="46.32036" lon="-1.30626">
        <ele>2.9</ele>
        <time>2021-06-17T11:25:06.000Z</time>
      </trkpt>
      <trkpt lat="46.32035" lon="-1.30626">
        <ele>2.9</ele>
        <time>2021-06-17T11:25:07.000Z</time>
      </trkpt>
      <trkpt lat="46.32034" lon="-1.30625">
        <ele>2.9</ele>
        <time>2021-06-17T11:25:08.000Z</time>
      </trkpt>
      <trkpt lat="46.32032" lon="-1.30625">
        <ele>2.9</ele>
        <time>2021-06-17T11:25:09.000Z</time>
      </trkpt>
      <trkpt lat="46.32031" lon="-1.30625">
        <ele>2.9</ele>
        <time>2021-06-17T11:25:10.000Z</time>
      </trkpt>
      <trkpt lat="46.3203" lon="-1.30624">
        <ele>2.9</ele>
        <time>2021-06-17T11:25:11.000Z</time>
      </trkpt>
      <trkpt lat="46.32029" lon="-1.30624">
        <ele>3</ele>
        <time>2021-06-17T11:25:12.000Z</time>
      </trkpt>
      <trkpt lat="46.32028" lon="-1.30623">
        <ele>3</ele>
        <time>2021-06-17T11:25:13.000Z</time>
      </trkpt>
      <trkpt lat="46.32027" lon="-1.30623">
        <ele>3</ele>
        <time>2021-06-17T11:25:14.000Z</time>
      </trkpt>
      <trkpt lat="46.32025" lon="-1.30623">
        <ele>3</ele>
        <time>2021-06-17T11:25:15.000Z</time>
      </trkpt>
      <trkpt lat="46.32024" lon="-1.30622">
        <ele>3</ele>
        <time>2021-06-17T11:25:16.000Z</time>
      </trkpt>
      <trkpt lat="46.32023" lon="-1.30622">
        <ele>3</ele>
        <time>2021-06-17T11:25:17.000Z</time>
      </trkpt>
      <trkpt lat="46.32022" lon="-1.30621">
        <ele>3</ele>
        <time>2021-06-17T11:25:18.000Z</time>
      </trkpt>
      <trkpt lat="46.32021" lon="-1.30621">
        <ele>3</ele>
        <time>2021-06-17T11:25:19.000Z</time>
      </trkpt>
      <trkpt lat="46.3202" lon="-1.3062">
        <ele>3</ele>
        <time>2021-06-17T11:25:20.000Z</time>
      </trkpt>
      <trkpt lat="46.32018" lon="-1.3062">
        <ele>3</ele>
        <time>2021-06-17T11:25:21.000Z</time>
      </trkpt>
      <trkpt lat="46.32017" lon="-1.30619">
        <ele>3</ele>
        <time>2021-06-17T11:25:22.000Z</time>
      </trkpt>
      <trkpt lat="46.32016" lon="-1.30619">
        <ele>3</ele>
        <time>2021-06-17T11:25:23.000Z</time>
      </trkpt>
      <trkpt lat="46.32015" lon="-1.30618">
        <ele>3</ele>
        <time>2021-06-17T11:25:24.000Z</time>
      </trkpt>
      <trkpt lat="46.32014" lon="-1.30618">
        <ele>3</ele>
        <time>2021-06-17T11:25:25.000Z</time>
      </trkpt>
      <trkpt lat="46.32013" lon="-1.30617">
        <ele>3</ele>
        <time>2021-06-17T11:25:26.000Z</time>
      </trkpt>
      <trkpt lat="46.32011" lon="-1.30617">
        <ele>3</ele>
        <time>2021-06-17T11:25:27.000Z</time>
      </trkpt>
      <trkpt lat="46.3201" lon="-1.30616">
        <ele>3</ele>
        <time>2021-06-17T11:25:28.000Z</time>
      </trkpt>
      <trkpt lat="46.32009" lon="-1.30616">
        <ele>3</ele>
        <time>2021-06-17T11:25:29.000Z</time>
      </trkpt>
      <trkpt lat="46.32008" lon="-1.30615">
        <ele>3</ele>
        <time>2021-06-17T11:25:30.000Z</time>
      </trkpt>
      <trkpt lat="46.32007" lon="-1.30615">
        <ele>3</ele>
        <time>2021-06-17T11:25:31.000Z</time>
      </trkpt>
      <trkpt lat="46.32006" lon="-1.30614">
        <ele>3</ele>
        <time>2021-06-17T11:25:32.000Z</time>
      </trkpt>
      <trkpt lat="46.32004" lon="-1.30614">
        <ele>3</ele>
        <time>2021-06-17T11:25:33.000Z</time>
      </trkpt>
      <trkpt lat="46.32003" lon="-1.30613">
        <ele>3</ele>
        <time>2021-06-17T11:25:34.000Z</time>
      </trkpt>
      <trkpt lat="46.32002" lon="-1.30613">
        <ele>3</ele>
        <time>2021-06-17T11:25:35.000Z</time>
      </trkpt>
      <trkpt lat="46.32001" lon="-1.30612">
        <ele>3</ele>
        <time>2021-06-17T11:25:36.000Z</time>
      </trkpt>
      <trkpt lat="46.32" lon="-1.30612">
        <ele>3</ele>
        <time>2021-06-17T11:25:37.000Z</time>
      </trkpt>
      <trkpt lat="46.31998" lon="-1.30612">
        <ele>3</ele>
        <time>2021-06-17T11:25:38.000Z</time>
      </trkpt>
      <trkpt lat="46.31997" lon="-1.30611">
        <ele>3</ele>
        <time>2021-06-17T11:25:39.000Z</time>
      </trkpt>
      <trkpt lat="46.31996" lon="-1.30611">
        <ele>3</ele>
        <time>2021-06-17T11:25:40.000Z</time>
      </trkpt>
      <trkpt lat="46.31995" lon="-1.3061">
        <ele>3</ele>
        <time>2021-06-17T11:25:41.000Z</time>
      </trkpt>
      <trkpt lat="46.31993" lon="-1.3061">
        <ele>3</ele>
        <time>2021-06-17T11:25:42.000Z</time>
      </trkpt>
      <trkpt lat="46.31992" lon="-1.3061">
        <ele>2.9</ele>
        <time>2021-06-17T11:25:43.000Z</time>
      </trkpt>
      <trkpt lat="46.31991" lon="-1.30609">
        <ele>2.9</ele>
        <time>2021-06-17T11:25:44.000Z</time>
      </trkpt>
      <trkpt lat="46.3199" lon="-1.30609">
        <ele>2.9</ele>
        <time>2021-06-17T11:25:45.000Z</time>
      </trkpt>
      <trkpt lat="46.31989" lon="-1.30609">
        <ele>2.9</ele>
        <time>2021-06-17T11:25:46.000Z</time>
      </trkpt>
      <trkpt lat="46.31987" lon="-1.30609">
        <ele>2.9</ele>
        <time>2021-06-17T11:25:47.000Z</time>
      </trkpt>
      <trkpt lat="46.31986" lon="-1.30608">
        <ele>2.9</ele>
        <time>2021-06-17T11:25:48.000Z</time>
      </trkpt>
      <trkpt lat="46.31985" lon="-1.30608">
        <ele>2.9</ele>
        <time>2021-06-17T11:25:49.000Z</time>
      </trkpt>
      <trkpt lat="46.31984" lon="-1.30608">
        <ele>2.9</ele>
        <time>2021-06-17T11:25:50.000Z</time>
      </trkpt>
      <trkpt lat="46.31982" lon="-1.30608">
        <ele>2.9</ele>
        <time>2021-06-17T11:25:51.000Z</time>
      </trkpt>
      <trkpt lat="46.31981" lon="-1.30607">
        <ele>2.9</ele>
        <time>2021-06-17T11:25:52.000Z</time>
      </trkpt>
      <trkpt lat="46.3198" lon="-1.30607">
        <ele>2.9</ele>
        <time>2021-06-17T11:25:53.000Z</time>
      </trkpt>
      <trkpt lat="46.31979" lon="-1.30607">
        <ele>2.9</ele>
        <time>2021-06-17T11:25:54.000Z</time>
      </trkpt>
      <trkpt lat="46.31977" lon="-1.30607">
        <ele>2.8</ele>
        <time>2021-06-17T11:25:55.000Z</time>
      </trkpt>
      <trkpt lat="46.31976" lon="-1.30607">
        <ele>2.8</ele>
        <time>2021-06-17T11:25:56.000Z</time>
      </trkpt>
      <trkpt lat="46.31975" lon="-1.30606">
        <ele>2.8</ele>
        <time>2021-06-17T11:25:57.000Z</time>
      </trkpt>
      <trkpt lat="46.31974" lon="-1.30606">
        <ele>2.8</ele>
        <time>2021-06-17T11:25:58.000Z</time>
      </trkpt>
      <trkpt lat="46.31972" lon="-1.30606">
        <ele>2.8</ele>
        <time>2021-06-17T11:25:59.000Z</time>
      </trkpt>
      <trkpt lat="46.31971" lon="-1.30606">
        <ele>2.8</ele>
        <time>2021-06-17T11:26:00.000Z</time>
      </trkpt>
      <trkpt lat="46.3197" lon="-1.30606">
        <ele>2.8</ele>
        <time>2021-06-17T11:26:01.000Z</time>
      </trkpt>
      <trkpt lat="46.31969" lon="-1.30606">
        <ele>2.8</ele>
        <time>2021-06-17T11:26:02.000Z</time>
      </trkpt>
      <trkpt lat="46.31967" lon="-1.30606">
        <ele>2.8</ele>
        <time>2021-06-17T11:26:03.000Z</time>
      </trkpt>
      <trkpt lat="46.31966" lon="-1.30606">
        <ele>2.8</ele>
        <time>2021-06-17T11:26:04.000Z</time>
      </trkpt>
      <trkpt lat="46.31965" lon="-1.30605">
        <ele>2.8</ele>
        <time>2021-06-17T11:26:05.000Z</time>
      </trkpt>
      <trkpt lat="46.31963" lon="-1.30605">
        <ele>2.8</ele>
        <time>2021-06-17T11:26:06.000Z</time>
      </trkpt>
      <trkpt lat="46.31962" lon="-1.30605">
        <ele>2.8</ele>
        <time>2021-06-17T11:26:07.000Z</time>
      </trkpt>
      <trkpt lat="46.31961" lon="-1.30605">
        <ele>2.8</ele>
        <time>2021-06-17T11:26:08.000Z</time>
      </trkpt>
      <trkpt lat="46.3196" lon="-1.30605">
        <ele>2.8</ele>
        <time>2021-06-17T11:26:09.000Z</time>
      </trkpt>
      <trkpt lat="46.31959" lon="-1.30605">
        <ele>2.8</ele>
        <time>2021-06-17T11:26:10.000Z</time>
      </trkpt>
      <trkpt lat="46.31957" lon="-1.30605">
        <ele>2.8</ele>
        <time>2021-06-17T11:26:11.000Z</time>
      </trkpt>
      <trkpt lat="46.31956" lon="-1.30605">
        <ele>2.8</ele>
        <time>2021-06-17T11:26:12.000Z</time>
      </trkpt>
      <trkpt lat="46.31955" lon="-1.30605">
        <ele>2.8</ele>
        <time>2021-06-17T11:26:13.000Z</time>
      </trkpt>
      <trkpt lat="46.31954" lon="-1.30604">
        <ele>2.8</ele>
        <time>2021-06-17T11:26:14.000Z</time>
      </trkpt>
      <trkpt lat="46.31952" lon="-1.30604">
        <ele>2.8</ele>
        <time>2021-06-17T11:26:15.000Z</time>
      </trkpt>
      <trkpt lat="46.31951" lon="-1.30604">
        <ele>2.7</ele>
        <time>2021-06-17T11:26:16.000Z</time>
      </trkpt>
      <trkpt lat="46.3195" lon="-1.30604">
        <ele>2.7</ele>
        <time>2021-06-17T11:26:17.000Z</time>
      </trkpt>
      <trkpt lat="46.31949" lon="-1.30604">
        <ele>2.7</ele>
        <time>2021-06-17T11:26:18.000Z</time>
      </trkpt>
      <trkpt lat="46.31948" lon="-1.30604">
        <ele>2.7</ele>
        <time>2021-06-17T11:26:19.000Z</time>
      </trkpt>
      <trkpt lat="46.31947" lon="-1.30603">
        <ele>2.7</ele>
        <time>2021-06-17T11:26:20.000Z</time>
      </trkpt>
      <trkpt lat="46.31945" lon="-1.30603">
        <ele>2.7</ele>
        <time>2021-06-17T11:26:21.000Z</time>
      </trkpt>
      <trkpt lat="46.31944" lon="-1.30603">
        <ele>2.7</ele>
        <time>2021-06-17T11:26:22.000Z</time>
      </trkpt>
      <trkpt lat="46.31943" lon="-1.30603">
        <ele>2.7</ele>
        <time>2021-06-17T11:26:23.000Z</time>
      </trkpt>
      <trkpt lat="46.31942" lon="-1.30602">
        <ele>2.7</ele>
        <time>2021-06-17T11:26:24.000Z</time>
      </trkpt>
      <trkpt lat="46.31941" lon="-1.30602">
        <ele>2.7</ele>
        <time>2021-06-17T11:26:25.000Z</time>
      </trkpt>
      <trkpt lat="46.3194" lon="-1.30602">
        <ele>2.7</ele>
        <time>2021-06-17T11:26:26.000Z</time>
      </trkpt>
      <trkpt lat="46.31939" lon="-1.30601">
        <ele>2.6</ele>
        <time>2021-06-17T11:26:27.000Z</time>
      </trkpt>
      <trkpt lat="46.31937" lon="-1.30601">
        <ele>2.6</ele>
        <time>2021-06-17T11:26:28.000Z</time>
      </trkpt>
      <trkpt lat="46.31936" lon="-1.30601">
        <ele>2.6</ele>
        <time>2021-06-17T11:26:29.000Z</time>
      </trkpt>
      <trkpt lat="46.31935" lon="-1.306">
        <ele>2.6</ele>
        <time>2021-06-17T11:26:30.000Z</time>
      </trkpt>
      <trkpt lat="46.31934" lon="-1.306">
        <ele>2.6</ele>
        <time>2021-06-17T11:26:31.000Z</time>
      </trkpt>
      <trkpt lat="46.31933" lon="-1.30599">
        <ele>2.6</ele>
        <time>2021-06-17T11:26:32.000Z</time>
      </trkpt>
      <trkpt lat="46.31932" lon="-1.30599">
        <ele>2.6</ele>
        <time>2021-06-17T11:26:33.000Z</time>
      </trkpt>
      <trkpt lat="46.31931" lon="-1.30599">
        <ele>2.5</ele>
        <time>2021-06-17T11:26:34.000Z</time>
      </trkpt>
      <trkpt lat="46.31929" lon="-1.30598">
        <ele>2.5</ele>
        <time>2021-06-17T11:26:35.000Z</time>
      </trkpt>
      <trkpt lat="46.31928" lon="-1.30598">
        <ele>2.5</ele>
        <time>2021-06-17T11:26:36.000Z</time>
      </trkpt>
      <trkpt lat="46.31927" lon="-1.30597">
        <ele>2.5</ele>
        <time>2021-06-17T11:26:37.000Z</time>
      </trkpt>
      <trkpt lat="46.31926" lon="-1.30597">
        <ele>2.5</ele>
        <time>2021-06-17T11:26:38.000Z</time>
      </trkpt>
      <trkpt lat="46.31924" lon="-1.30596">
        <ele>2.5</ele>
        <time>2021-06-17T11:26:39.000Z</time>
      </trkpt>
      <trkpt lat="46.31923" lon="-1.30596">
        <ele>2.4</ele>
        <time>2021-06-17T11:26:40.000Z</time>
      </trkpt>
      <trkpt lat="46.31922" lon="-1.30595">
        <ele>2.4</ele>
        <time>2021-06-17T11:26:41.000Z</time>
      </trkpt>
      <trkpt lat="46.31921" lon="-1.30595">
        <ele>2.4</ele>
        <time>2021-06-17T11:26:42.000Z</time>
      </trkpt>
      <trkpt lat="46.3192" lon="-1.30594">
        <ele>2.4</ele>
        <time>2021-06-17T11:26:43.000Z</time>
      </trkpt>
      <trkpt lat="46.31918" lon="-1.30593">
        <ele>2.4</ele>
        <time>2021-06-17T11:26:44.000Z</time>
      </trkpt>
      <trkpt lat="46.31917" lon="-1.30593">
        <ele>2.3</ele>
        <time>2021-06-17T11:26:45.000Z</time>
      </trkpt>
      <trkpt lat="46.31916" lon="-1.30592">
        <ele>2.3</ele>
        <time>2021-06-17T11:26:46.000Z</time>
      </trkpt>
      <trkpt lat="46.31915" lon="-1.30591">
        <ele>2.3</ele>
        <time>2021-06-17T11:26:47.000Z</time>
      </trkpt>
      <trkpt lat="46.31914" lon="-1.30591">
        <ele>2.3</ele>
        <time>2021-06-17T11:26:48.000Z</time>
      </trkpt>
      <trkpt lat="46.31912" lon="-1.3059">
        <ele>2.3</ele>
        <time>2021-06-17T11:26:49.000Z</time>
      </trkpt>
      <trkpt lat="46.31911" lon="-1.30589">
        <ele>2.3</ele>
        <time>2021-06-17T11:26:50.000Z</time>
      </trkpt>
      <trkpt lat="46.3191" lon="-1.30588">
        <ele>2.3</ele>
        <time>2021-06-17T11:26:51.000Z</time>
      </trkpt>
      <trkpt lat="46.31909" lon="-1.30587">
        <ele>2.3</ele>
        <time>2021-06-17T11:26:52.000Z</time>
      </trkpt>
      <trkpt lat="46.31908" lon="-1.30586">
        <ele>2.3</ele>
        <time>2021-06-17T11:26:53.000Z</time>
      </trkpt>
      <trkpt lat="46.31906" lon="-1.30586">
        <ele>2.3</ele>
        <time>2021-06-17T11:26:54.000Z</time>
      </trkpt>
      <trkpt lat="46.31905" lon="-1.30585">
        <ele>2.3</ele>
        <time>2021-06-17T11:26:55.000Z</time>
      </trkpt>
      <trkpt lat="46.31904" lon="-1.30584">
        <ele>2.3</ele>
        <time>2021-06-17T11:26:56.000Z</time>
      </trkpt>
      <trkpt lat="46.31903" lon="-1.30583">
        <ele>2.3</ele>
        <time>2021-06-17T11:26:57.000Z</time>
      </trkpt>
      <trkpt lat="46.31902" lon="-1.30582">
        <ele>2.3</ele>
        <time>2021-06-17T11:26:58.000Z</time>
      </trkpt>
      <trkpt lat="46.31901" lon="-1.30581">
        <ele>2.4</ele>
        <time>2021-06-17T11:26:59.000Z</time>
      </trkpt>
      <trkpt lat="46.319" lon="-1.3058">
        <ele>2.4</ele>
        <time>2021-06-17T11:27:00.000Z</time>
      </trkpt>
      <trkpt lat="46.31898" lon="-1.30579">
        <ele>2.4</ele>
        <time>2021-06-17T11:27:01.000Z</time>
      </trkpt>
      <trkpt lat="46.31897" lon="-1.30579">
        <ele>2.4</ele>
        <time>2021-06-17T11:27:02.000Z</time>
      </trkpt>
      <trkpt lat="46.31896" lon="-1.30578">
        <ele>2.4</ele>
        <time>2021-06-17T11:27:03.000Z</time>
      </trkpt>
      <trkpt lat="46.31895" lon="-1.30577">
        <ele>2.4</ele>
        <time>2021-06-17T11:27:04.000Z</time>
      </trkpt>
      <trkpt lat="46.31894" lon="-1.30576">
        <ele>2.4</ele>
        <time>2021-06-17T11:27:05.000Z</time>
      </trkpt>
      <trkpt lat="46.31893" lon="-1.30576">
        <ele>2.5</ele>
        <time>2021-06-17T11:27:06.000Z</time>
      </trkpt>
      <trkpt lat="46.31891" lon="-1.30575">
        <ele>2.5</ele>
        <time>2021-06-17T11:27:07.000Z</time>
      </trkpt>
      <trkpt lat="46.3189" lon="-1.30574">
        <ele>2.5</ele>
        <time>2021-06-17T11:27:08.000Z</time>
      </trkpt>
      <trkpt lat="46.31889" lon="-1.30574">
        <ele>2.5</ele>
        <time>2021-06-17T11:27:09.000Z</time>
      </trkpt>
      <trkpt lat="46.31888" lon="-1.30573">
        <ele>2.5</ele>
        <time>2021-06-17T11:27:10.000Z</time>
      </trkpt>
      <trkpt lat="46.31887" lon="-1.30572">
        <ele>2.5</ele>
        <time>2021-06-17T11:27:11.000Z</time>
      </trkpt>
      <trkpt lat="46.31886" lon="-1.30572">
        <ele>2.6</ele>
        <time>2021-06-17T11:27:12.000Z</time>
      </trkpt>
      <trkpt lat="46.31884" lon="-1.30571">
        <ele>2.6</ele>
        <time>2021-06-17T11:27:13.000Z</time>
      </trkpt>
      <trkpt lat="46.31883" lon="-1.30571">
        <ele>2.6</ele>
        <time>2021-06-17T11:27:14.000Z</time>
      </trkpt>
      <trkpt lat="46.31882" lon="-1.3057">
        <ele>2.6</ele>
        <time>2021-06-17T11:27:15.000Z</time>
      </trkpt>
      <trkpt lat="46.31881" lon="-1.30569">
        <ele>2.6</ele>
        <time>2021-06-17T11:27:16.000Z</time>
      </trkpt>
      <trkpt lat="46.3188" lon="-1.30569">
        <ele>2.6</ele>
        <time>2021-06-17T11:27:17.000Z</time>
      </trkpt>
      <trkpt lat="46.31878" lon="-1.30568">
        <ele>2.7</ele>
        <time>2021-06-17T11:27:18.000Z</time>
      </trkpt>
      <trkpt lat="46.31877" lon="-1.30568">
        <ele>2.7</ele>
        <time>2021-06-17T11:27:19.000Z</time>
      </trkpt>
      <trkpt lat="46.31876" lon="-1.30567">
        <ele>2.7</ele>
        <time>2021-06-17T11:27:20.000Z</time>
      </trkpt>
      <trkpt lat="46.31875" lon="-1.30567">
        <ele>2.7</ele>
        <time>2021-06-17T11:27:21.000Z</time>
      </trkpt>
      <trkpt lat="46.31874" lon="-1.30566">
        <ele>2.7</ele>
        <time>2021-06-17T11:27:22.000Z</time>
      </trkpt>
      <trkpt lat="46.31872" lon="-1.30566">
        <ele>2.7</ele>
        <time>2021-06-17T11:27:23.000Z</time>
      </trkpt>
      <trkpt lat="46.31871" lon="-1.30565">
        <ele>2.8</ele>
        <time>2021-06-17T11:27:24.000Z</time>
      </trkpt>
      <trkpt lat="46.3187" lon="-1.30564">
        <ele>2.8</ele>
        <time>2021-06-17T11:27:25.000Z</time>
      </trkpt>
      <trkpt lat="46.31869" lon="-1.30564">
        <ele>2.8</ele>
        <time>2021-06-17T11:27:26.000Z</time>
      </trkpt>
      <trkpt lat="46.31868" lon="-1.30563">
        <ele>2.8</ele>
        <time>2021-06-17T11:27:27.000Z</time>
      </trkpt>
      <trkpt lat="46.31867" lon="-1.30563">
        <ele>2.8</ele>
        <time>2021-06-17T11:27:28.000Z</time>
      </trkpt>
      <trkpt lat="46.31865" lon="-1.30562">
        <ele>2.8</ele>
        <time>2021-06-17T11:27:29.000Z</time>
      </trkpt>
      <trkpt lat="46.31864" lon="-1.30562">
        <ele>2.8</ele>
        <time>2021-06-17T11:27:30.000Z</time>
      </trkpt>
      <trkpt lat="46.31863" lon="-1.30561">
        <ele>2.8</ele>
        <time>2021-06-17T11:27:31.000Z</time>
      </trkpt>
      <trkpt lat="46.31862" lon="-1.3056">
        <ele>2.9</ele>
        <time>2021-06-17T11:27:32.000Z</time>
      </trkpt>
      <trkpt lat="46.31861" lon="-1.3056">
        <ele>2.9</ele>
        <time>2021-06-17T11:27:33.000Z</time>
      </trkpt>
      <trkpt lat="46.31859" lon="-1.30559">
        <ele>2.9</ele>
        <time>2021-06-17T11:27:34.000Z</time>
      </trkpt>
      <trkpt lat="46.31858" lon="-1.30558">
        <ele>2.9</ele>
        <time>2021-06-17T11:27:35.000Z</time>
      </trkpt>
      <trkpt lat="46.31857" lon="-1.30558">
        <ele>2.9</ele>
        <time>2021-06-17T11:27:36.000Z</time>
      </trkpt>
      <trkpt lat="46.31856" lon="-1.30557">
        <ele>2.9</ele>
        <time>2021-06-17T11:27:37.000Z</time>
      </trkpt>
      <trkpt lat="46.31855" lon="-1.30556">
        <ele>2.9</ele>
        <time>2021-06-17T11:27:38.000Z</time>
      </trkpt>
      <trkpt lat="46.31853" lon="-1.30556">
        <ele>2.9</ele>
        <time>2021-06-17T11:27:39.000Z</time>
      </trkpt>
      <trkpt lat="46.31852" lon="-1.30555">
        <ele>2.9</ele>
        <time>2021-06-17T11:27:40.000Z</time>
      </trkpt>
      <trkpt lat="46.31851" lon="-1.30554">
        <ele>3</ele>
        <time>2021-06-17T11:27:41.000Z</time>
      </trkpt>
      <trkpt lat="46.3185" lon="-1.30554">
        <ele>3</ele>
        <time>2021-06-17T11:27:42.000Z</time>
      </trkpt>
      <trkpt lat="46.31849" lon="-1.30553">
        <ele>3</ele>
        <time>2021-06-17T11:27:43.000Z</time>
      </trkpt>
      <trkpt lat="46.31848" lon="-1.30552">
        <ele>3</ele>
        <time>2021-06-17T11:27:44.000Z</time>
      </trkpt>
      <trkpt lat="46.31846" lon="-1.30552">
        <ele>3</ele>
        <time>2021-06-17T11:27:45.000Z</time>
      </trkpt>
      <trkpt lat="46.31845" lon="-1.30551">
        <ele>3</ele>
        <time>2021-06-17T11:27:46.000Z</time>
      </trkpt>
      <trkpt lat="46.31844" lon="-1.3055">
        <ele>3</ele>
        <time>2021-06-17T11:27:47.000Z</time>
      </trkpt>
      <trkpt lat="46.31843" lon="-1.3055">
        <ele>3</ele>
        <time>2021-06-17T11:27:48.000Z</time>
      </trkpt>
      <trkpt lat="46.31842" lon="-1.30549">
        <ele>3</ele>
        <time>2021-06-17T11:27:49.000Z</time>
      </trkpt>
      <trkpt lat="46.3184" lon="-1.30548">
        <ele>3</ele>
        <time>2021-06-17T11:27:50.000Z</time>
      </trkpt>
      <trkpt lat="46.31839" lon="-1.30548">
        <ele>3</ele>
        <time>2021-06-17T11:27:51.000Z</time>
      </trkpt>
      <trkpt lat="46.31838" lon="-1.30547">
        <ele>3</ele>
        <time>2021-06-17T11:27:52.000Z</time>
      </trkpt>
      <trkpt lat="46.31837" lon="-1.30546">
        <ele>3</ele>
        <time>2021-06-17T11:27:53.000Z</time>
      </trkpt>
      <trkpt lat="46.31836" lon="-1.30546">
        <ele>3.1</ele>
        <time>2021-06-17T11:27:54.000Z</time>
      </trkpt>
      <trkpt lat="46.31834" lon="-1.30545">
        <ele>3.1</ele>
        <time>2021-06-17T11:27:55.000Z</time>
      </trkpt>
      <trkpt lat="46.31833" lon="-1.30544">
        <ele>3.1</ele>
        <time>2021-06-17T11:27:56.000Z</time>
      </trkpt>
      <trkpt lat="46.31832" lon="-1.30544">
        <ele>3</ele>
        <time>2021-06-17T11:27:57.000Z</time>
      </trkpt>
      <trkpt lat="46.31831" lon="-1.30543">
        <ele>3</ele>
        <time>2021-06-17T11:27:58.000Z</time>
      </trkpt>
      <trkpt lat="46.3183" lon="-1.30542">
        <ele>3</ele>
        <time>2021-06-17T11:27:59.000Z</time>
      </trkpt>
      <trkpt lat="46.31828" lon="-1.30542">
        <ele>3</ele>
        <time>2021-06-17T11:28:00.000Z</time>
      </trkpt>
      <trkpt lat="46.31827" lon="-1.30541">
        <ele>3</ele>
        <time>2021-06-17T11:28:01.000Z</time>
      </trkpt>
      <trkpt lat="46.31826" lon="-1.30541">
        <ele>3</ele>
        <time>2021-06-17T11:28:02.000Z</time>
      </trkpt>
      <trkpt lat="46.31825" lon="-1.3054">
        <ele>3</ele>
        <time>2021-06-17T11:28:03.000Z</time>
      </trkpt>
      <trkpt lat="46.31824" lon="-1.30539">
        <ele>2.9</ele>
        <time>2021-06-17T11:28:04.000Z</time>
      </trkpt>
      <trkpt lat="46.31822" lon="-1.30539">
        <ele>2.9</ele>
        <time>2021-06-17T11:28:05.000Z</time>
      </trkpt>
      <trkpt lat="46.31821" lon="-1.30538">
        <ele>2.9</ele>
        <time>2021-06-17T11:28:06.000Z</time>
      </trkpt>
      <trkpt lat="46.3182" lon="-1.30537">
        <ele>2.9</ele>
        <time>2021-06-17T11:28:07.000Z</time>
      </trkpt>
      <trkpt lat="46.31819" lon="-1.30537">
        <ele>2.9</ele>
        <time>2021-06-17T11:28:08.000Z</time>
      </trkpt>
      <trkpt lat="46.31818" lon="-1.30536">
        <ele>2.9</ele>
        <time>2021-06-17T11:28:09.000Z</time>
      </trkpt>
      <trkpt lat="46.31816" lon="-1.30536">
        <ele>2.9</ele>
        <time>2021-06-17T11:28:10.000Z</time>
      </trkpt>
      <trkpt lat="46.31815" lon="-1.30535">
        <ele>2.9</ele>
        <time>2021-06-17T11:28:11.000Z</time>
      </trkpt>
      <trkpt lat="46.31814" lon="-1.30534">
        <ele>2.9</ele>
        <time>2021-06-17T11:28:12.000Z</time>
      </trkpt>
      <trkpt lat="46.31813" lon="-1.30534">
        <ele>2.9</ele>
        <time>2021-06-17T11:28:13.000Z</time>
      </trkpt>
      <trkpt lat="46.31812" lon="-1.30533">
        <ele>2.8</ele>
        <time>2021-06-17T11:28:14.000Z</time>
      </trkpt>
      <trkpt lat="46.3181" lon="-1.30533">
        <ele>2.8</ele>
        <time>2021-06-17T11:28:15.000Z</time>
      </trkpt>
      <trkpt lat="46.31809" lon="-1.30532">
        <ele>2.8</ele>
        <time>2021-06-17T11:28:16.000Z</time>
      </trkpt>
      <trkpt lat="46.31808" lon="-1.30531">
        <ele>2.8</ele>
        <time>2021-06-17T11:28:17.000Z</time>
      </trkpt>
      <trkpt lat="46.31807" lon="-1.30531">
        <ele>2.8</ele>
        <time>2021-06-17T11:28:18.000Z</time>
      </trkpt>
      <trkpt lat="46.31806" lon="-1.3053">
        <ele>2.8</ele>
        <time>2021-06-17T11:28:19.000Z</time>
      </trkpt>
      <trkpt lat="46.31804" lon="-1.3053">
        <ele>2.8</ele>
        <time>2021-06-17T11:28:20.000Z</time>
      </trkpt>
      <trkpt lat="46.31803" lon="-1.30529">
        <ele>2.8</ele>
        <time>2021-06-17T11:28:21.000Z</time>
      </trkpt>
      <trkpt lat="46.31802" lon="-1.30528">
        <ele>2.8</ele>
        <time>2021-06-17T11:28:22.000Z</time>
      </trkpt>
      <trkpt lat="46.31801" lon="-1.30528">
        <ele>2.8</ele>
        <time>2021-06-17T11:28:23.000Z</time>
      </trkpt>
      <trkpt lat="46.318" lon="-1.30527">
        <ele>2.8</ele>
        <time>2021-06-17T11:28:24.000Z</time>
      </trkpt>
      <trkpt lat="46.31798" lon="-1.30526">
        <ele>2.8</ele>
        <time>2021-06-17T11:28:25.000Z</time>
      </trkpt>
      <trkpt lat="46.31797" lon="-1.30526">
        <ele>2.8</ele>
        <time>2021-06-17T11:28:26.000Z</time>
      </trkpt>
      <trkpt lat="46.31796" lon="-1.30525">
        <ele>2.8</ele>
        <time>2021-06-17T11:28:27.000Z</time>
      </trkpt>
      <trkpt lat="46.31795" lon="-1.30524">
        <ele>2.8</ele>
        <time>2021-06-17T11:28:28.000Z</time>
      </trkpt>
      <trkpt lat="46.31794" lon="-1.30524">
        <ele>2.8</ele>
        <time>2021-06-17T11:28:29.000Z</time>
      </trkpt>
      <trkpt lat="46.31793" lon="-1.30523">
        <ele>2.8</ele>
        <time>2021-06-17T11:28:30.000Z</time>
      </trkpt>
      <trkpt lat="46.31791" lon="-1.30522">
        <ele>2.8</ele>
        <time>2021-06-17T11:28:31.000Z</time>
      </trkpt>
      <trkpt lat="46.3179" lon="-1.30522">
        <ele>2.8</ele>
        <time>2021-06-17T11:28:32.000Z</time>
      </trkpt>
      <trkpt lat="46.31789" lon="-1.30521">
        <ele>2.8</ele>
        <time>2021-06-17T11:28:33.000Z</time>
      </trkpt>
      <trkpt lat="46.31788" lon="-1.30521">
        <ele>2.8</ele>
        <time>2021-06-17T11:28:34.000Z</time>
      </trkpt>
      <trkpt lat="46.31787" lon="-1.3052">
        <ele>2.8</ele>
        <time>2021-06-17T11:28:35.000Z</time>
      </trkpt>
      <trkpt lat="46.31785" lon="-1.30519">
        <ele>2.8</ele>
        <time>2021-06-17T11:28:36.000Z</time>
      </trkpt>
      <trkpt lat="46.31784" lon="-1.30519">
        <ele>2.8</ele>
        <time>2021-06-17T11:28:37.000Z</time>
      </trkpt>
      <trkpt lat="46.31783" lon="-1.30518">
        <ele>2.8</ele>
        <time>2021-06-17T11:28:38.000Z</time>
      </trkpt>
      <trkpt lat="46.31782" lon="-1.30518">
        <ele>2.8</ele>
        <time>2021-06-17T11:28:39.000Z</time>
      </trkpt>
      <trkpt lat="46.31781" lon="-1.30517">
        <ele>2.8</ele>
        <time>2021-06-17T11:28:40.000Z</time>
      </trkpt>
      <trkpt lat="46.3178" lon="-1.30517">
        <ele>2.8</ele>
        <time>2021-06-17T11:28:41.000Z</time>
      </trkpt>
      <trkpt lat="46.31778" lon="-1.30516">
        <ele>2.8</ele>
        <time>2021-06-17T11:28:42.000Z</time>
      </trkpt>
      <trkpt lat="46.31777" lon="-1.30516">
        <ele>2.8</ele>
        <time>2021-06-17T11:28:43.000Z</time>
      </trkpt>
      <trkpt lat="46.31776" lon="-1.30515">
        <ele>2.8</ele>
        <time>2021-06-17T11:28:44.000Z</time>
      </trkpt>
      <trkpt lat="46.31775" lon="-1.30515">
        <ele>2.8</ele>
        <time>2021-06-17T11:28:45.000Z</time>
      </trkpt>
      <trkpt lat="46.31774" lon="-1.30514">
        <ele>2.8</ele>
        <time>2021-06-17T11:28:46.000Z</time>
      </trkpt>
      <trkpt lat="46.31773" lon="-1.30514">
        <ele>2.8</ele>
        <time>2021-06-17T11:28:47.000Z</time>
      </trkpt>
      <trkpt lat="46.31771" lon="-1.30513">
        <ele>2.8</ele>
        <time>2021-06-17T11:28:48.000Z</time>
      </trkpt>
      <trkpt lat="46.3177" lon="-1.30513">
        <ele>2.8</ele>
        <time>2021-06-17T11:28:49.000Z</time>
      </trkpt>
      <trkpt lat="46.31769" lon="-1.30512">
        <ele>2.8</ele>
        <time>2021-06-17T11:28:50.000Z</time>
      </trkpt>
      <trkpt lat="46.31768" lon="-1.30512">
        <ele>2.8</ele>
        <time>2021-06-17T11:28:51.000Z</time>
      </trkpt>
      <trkpt lat="46.31767" lon="-1.30511">
        <ele>2.9</ele>
        <time>2021-06-17T11:28:52.000Z</time>
      </trkpt>
      <trkpt lat="46.31766" lon="-1.30511">
        <ele>2.9</ele>
        <time>2021-06-17T11:28:53.000Z</time>
      </trkpt>
      <trkpt lat="46.31764" lon="-1.30511">
        <ele>2.9</ele>
        <time>2021-06-17T11:28:54.000Z</time>
      </trkpt>
      <trkpt lat="46.31763" lon="-1.3051">
        <ele>2.9</ele>
        <time>2021-06-17T11:28:55.000Z</time>
      </trkpt>
      <trkpt lat="46.31762" lon="-1.3051">
        <ele>2.9</ele>
        <time>2021-06-17T11:28:56.000Z</time>
      </trkpt>
      <trkpt lat="46.31761" lon="-1.30509">
        <ele>2.9</ele>
        <time>2021-06-17T11:28:57.000Z</time>
      </trkpt>
      <trkpt lat="46.3176" lon="-1.30509">
        <ele>2.9</ele>
        <time>2021-06-17T11:28:58.000Z</time>
      </trkpt>
      <trkpt lat="46.31758" lon="-1.30508">
        <ele>2.9</ele>
        <time>2021-06-17T11:28:59.000Z</time>
      </trkpt>
      <trkpt lat="46.31757" lon="-1.30508">
        <ele>2.9</ele>
        <time>2021-06-17T11:29:00.000Z</time>
      </trkpt>
      <trkpt lat="46.31756" lon="-1.30507">
        <ele>2.9</ele>
        <time>2021-06-17T11:29:01.000Z</time>
      </trkpt>
      <trkpt lat="46.31755" lon="-1.30507">
        <ele>3</ele>
        <time>2021-06-17T11:29:02.000Z</time>
      </trkpt>
      <trkpt lat="46.31754" lon="-1.30506">
        <ele>3</ele>
        <time>2021-06-17T11:29:03.000Z</time>
      </trkpt>
      <trkpt lat="46.31752" lon="-1.30506">
        <ele>3</ele>
        <time>2021-06-17T11:29:04.000Z</time>
      </trkpt>
      <trkpt lat="46.31751" lon="-1.30505">
        <ele>3</ele>
        <time>2021-06-17T11:29:05.000Z</time>
      </trkpt>
      <trkpt lat="46.3175" lon="-1.30505">
        <ele>3</ele>
        <time>2021-06-17T11:29:06.000Z</time>
      </trkpt>
      <trkpt lat="46.31749" lon="-1.30505">
        <ele>3</ele>
        <time>2021-06-17T11:29:07.000Z</time>
      </trkpt>
      <trkpt lat="46.31748" lon="-1.30504">
        <ele>3</ele>
        <time>2021-06-17T11:29:08.000Z</time>
      </trkpt>
      <trkpt lat="46.31746" lon="-1.30504">
        <ele>3</ele>
        <time>2021-06-17T11:29:09.000Z</time>
      </trkpt>
      <trkpt lat="46.31745" lon="-1.30503">
        <ele>3.1</ele>
        <time>2021-06-17T11:29:10.000Z</time>
      </trkpt>
      <trkpt lat="46.31744" lon="-1.30503">
        <ele>3.1</ele>
        <time>2021-06-17T11:29:11.000Z</time>
      </trkpt>
      <trkpt lat="46.31743" lon="-1.30502">
        <ele>3.1</ele>
        <time>2021-06-17T11:29:12.000Z</time>
      </trkpt>
      <trkpt lat="46.31742" lon="-1.30502">
        <ele>3.1</ele>
        <time>2021-06-17T11:29:13.000Z</time>
      </trkpt>
      <trkpt lat="46.3174" lon="-1.30501">
        <ele>3.1</ele>
        <time>2021-06-17T11:29:14.000Z</time>
      </trkpt>
      <trkpt lat="46.31739" lon="-1.30501">
        <ele>3.1</ele>
        <time>2021-06-17T11:29:15.000Z</time>
      </trkpt>
      <trkpt lat="46.31738" lon="-1.305">
        <ele>3.1</ele>
        <time>2021-06-17T11:29:16.000Z</time>
      </trkpt>
      <trkpt lat="46.31737" lon="-1.305">
        <ele>3.2</ele>
        <time>2021-06-17T11:29:17.000Z</time>
      </trkpt>
      <trkpt lat="46.31736" lon="-1.30499">
        <ele>3.2</ele>
        <time>2021-06-17T11:29:18.000Z</time>
      </trkpt>
      <trkpt lat="46.31734" lon="-1.30499">
        <ele>3.2</ele>
        <time>2021-06-17T11:29:19.000Z</time>
      </trkpt>
      <trkpt lat="46.31733" lon="-1.30499">
        <ele>3.2</ele>
        <time>2021-06-17T11:29:20.000Z</time>
      </trkpt>
      <trkpt lat="46.31732" lon="-1.30498">
        <ele>3.2</ele>
        <time>2021-06-17T11:29:21.000Z</time>
      </trkpt>
      <trkpt lat="46.31731" lon="-1.30498">
        <ele>3.2</ele>
        <time>2021-06-17T11:29:22.000Z</time>
      </trkpt>
      <trkpt lat="46.3173" lon="-1.30497">
        <ele>3.2</ele>
        <time>2021-06-17T11:29:23.000Z</time>
      </trkpt>
      <trkpt lat="46.31728" lon="-1.30497">
        <ele>3.2</ele>
        <time>2021-06-17T11:29:24.000Z</time>
      </trkpt>
      <trkpt lat="46.31727" lon="-1.30496">
        <ele>3.2</ele>
        <time>2021-06-17T11:29:25.000Z</time>
      </trkpt>
      <trkpt lat="46.31726" lon="-1.30496">
        <ele>3.2</ele>
        <time>2021-06-17T11:29:26.000Z</time>
      </trkpt>
      <trkpt lat="46.31725" lon="-1.30496">
        <ele>3.2</ele>
        <time>2021-06-17T11:29:27.000Z</time>
      </trkpt>
      <trkpt lat="46.31724" lon="-1.30495">
        <ele>3.2</ele>
        <time>2021-06-17T11:29:28.000Z</time>
      </trkpt>
      <trkpt lat="46.31722" lon="-1.30495">
        <ele>3.2</ele>
        <time>2021-06-17T11:29:29.000Z</time>
      </trkpt>
      <trkpt lat="46.31721" lon="-1.30494">
        <ele>3.2</ele>
        <time>2021-06-17T11:29:30.000Z</time>
      </trkpt>
      <trkpt lat="46.3172" lon="-1.30494">
        <ele>3.2</ele>
        <time>2021-06-17T11:29:31.000Z</time>
      </trkpt>
      <trkpt lat="46.31719" lon="-1.30494">
        <ele>3.2</ele>
        <time>2021-06-17T11:29:32.000Z</time>
      </trkpt>
      <trkpt lat="46.31718" lon="-1.30493">
        <ele>3.2</ele>
        <time>2021-06-17T11:29:33.000Z</time>
      </trkpt>
      <trkpt lat="46.31716" lon="-1.30493">
        <ele>3.2</ele>
        <time>2021-06-17T11:29:34.000Z</time>
      </trkpt>
      <trkpt lat="46.31715" lon="-1.30492">
        <ele>3.2</ele>
        <time>2021-06-17T11:29:35.000Z</time>
      </trkpt>
      <trkpt lat="46.31714" lon="-1.30492">
        <ele>3.2</ele>
        <time>2021-06-17T11:29:36.000Z</time>
      </trkpt>
      <trkpt lat="46.31713" lon="-1.30491">
        <ele>3.2</ele>
        <time>2021-06-17T11:29:37.000Z</time>
      </trkpt>
      <trkpt lat="46.31712" lon="-1.30491">
        <ele>3.2</ele>
        <time>2021-06-17T11:29:38.000Z</time>
      </trkpt>
      <trkpt lat="46.3171" lon="-1.30491">
        <ele>3.2</ele>
        <time>2021-06-17T11:29:39.000Z</time>
      </trkpt>
      <trkpt lat="46.31709" lon="-1.3049">
        <ele>3.3</ele>
        <time>2021-06-17T11:29:40.000Z</time>
      </trkpt>
      <trkpt lat="46.31708" lon="-1.3049">
        <ele>3.3</ele>
        <time>2021-06-17T11:29:41.000Z</time>
      </trkpt>
      <trkpt lat="46.31707" lon="-1.30489">
        <ele>3.3</ele>
        <time>2021-06-17T11:29:42.000Z</time>
      </trkpt>
      <trkpt lat="46.31706" lon="-1.30489">
        <ele>3.3</ele>
        <time>2021-06-17T11:29:43.000Z</time>
      </trkpt>
      <trkpt lat="46.31704" lon="-1.30488">
        <ele>3.3</ele>
        <time>2021-06-17T11:29:44.000Z</time>
      </trkpt>
      <trkpt lat="46.31703" lon="-1.30488">
        <ele>3.3</ele>
        <time>2021-06-17T11:29:45.000Z</time>
      </trkpt>
      <trkpt lat="46.31702" lon="-1.30487">
        <ele>3.3</ele>
        <time>2021-06-17T11:29:46.000Z</time>
      </trkpt>
      <trkpt lat="46.31701" lon="-1.30487">
        <ele>3.3</ele>
        <time>2021-06-17T11:29:47.000Z</time>
      </trkpt>
      <trkpt lat="46.317" lon="-1.30486">
        <ele>3.3</ele>
        <time>2021-06-17T11:29:48.000Z</time>
      </trkpt>
      <trkpt lat="46.31698" lon="-1.30486">
        <ele>3.3</ele>
        <time>2021-06-17T11:29:49.000Z</time>
      </trkpt>
      <trkpt lat="46.31697" lon="-1.30485">
        <ele>3.3</ele>
        <time>2021-06-17T11:29:50.000Z</time>
      </trkpt>
      <trkpt lat="46.31696" lon="-1.30485">
        <ele>3.3</ele>
        <time>2021-06-17T11:29:51.000Z</time>
      </trkpt>
      <trkpt lat="46.31695" lon="-1.30484">
        <ele>3.3</ele>
        <time>2021-06-17T11:29:52.000Z</time>
      </trkpt>
      <trkpt lat="46.31693" lon="-1.30484">
        <ele>3.3</ele>
        <time>2021-06-17T11:29:53.000Z</time>
      </trkpt>
      <trkpt lat="46.31692" lon="-1.30483">
        <ele>3.3</ele>
        <time>2021-06-17T11:29:54.000Z</time>
      </trkpt>
      <trkpt lat="46.31691" lon="-1.30483">
        <ele>3.3</ele>
        <time>2021-06-17T11:29:55.000Z</time>
      </trkpt>
      <trkpt lat="46.3169" lon="-1.30482">
        <ele>3.3</ele>
        <time>2021-06-17T11:29:56.000Z</time>
      </trkpt>
      <trkpt lat="46.31689" lon="-1.30482">
        <ele>3.3</ele>
        <time>2021-06-17T11:29:57.000Z</time>
      </trkpt>
      <trkpt lat="46.31687" lon="-1.30481">
        <ele>3.3</ele>
        <time>2021-06-17T11:29:58.000Z</time>
      </trkpt>
      <trkpt lat="46.31686" lon="-1.30481">
        <ele>3.3</ele>
        <time>2021-06-17T11:29:59.000Z</time>
      </trkpt>
      <trkpt lat="46.31685" lon="-1.30481">
        <ele>3.3</ele>
        <time>2021-06-17T11:30:00.000Z</time>
      </trkpt>
      <trkpt lat="46.31684" lon="-1.3048">
        <ele>3.3</ele>
        <time>2021-06-17T11:30:01.000Z</time>
      </trkpt>
      <trkpt lat="46.31683" lon="-1.3048">
        <ele>3.3</ele>
        <time>2021-06-17T11:30:02.000Z</time>
      </trkpt>
      <trkpt lat="46.31681" lon="-1.30479">
        <ele>3.3</ele>
        <time>2021-06-17T11:30:03.000Z</time>
      </trkpt>
      <trkpt lat="46.3168" lon="-1.30479">
        <ele>3.3</ele>
        <time>2021-06-17T11:30:04.000Z</time>
      </trkpt>
      <trkpt lat="46.31679" lon="-1.30479">
        <ele>3.3</ele>
        <time>2021-06-17T11:30:05.000Z</time>
      </trkpt>
      <trkpt lat="46.31678" lon="-1.30478">
        <ele>3.3</ele>
        <time>2021-06-17T11:30:06.000Z</time>
      </trkpt>
      <trkpt lat="46.31677" lon="-1.30478">
        <ele>3.4</ele>
        <time>2021-06-17T11:30:07.000Z</time>
      </trkpt>
      <trkpt lat="46.31675" lon="-1.30478">
        <ele>3.4</ele>
        <time>2021-06-17T11:30:08.000Z</time>
      </trkpt>
      <trkpt lat="46.31674" lon="-1.30477">
        <ele>3.4</ele>
        <time>2021-06-17T11:30:09.000Z</time>
      </trkpt>
      <trkpt lat="46.31673" lon="-1.30477">
        <ele>3.4</ele>
        <time>2021-06-17T11:30:10.000Z</time>
      </trkpt>
      <trkpt lat="46.31672" lon="-1.30476">
        <ele>3.4</ele>
        <time>2021-06-17T11:30:11.000Z</time>
      </trkpt>
      <trkpt lat="46.31671" lon="-1.30476">
        <ele>3.4</ele>
        <time>2021-06-17T11:30:12.000Z</time>
      </trkpt>
      <trkpt lat="46.31669" lon="-1.30475">
        <ele>3.4</ele>
        <time>2021-06-17T11:30:13.000Z</time>
      </trkpt>
      <trkpt lat="46.31668" lon="-1.30475">
        <ele>3.4</ele>
        <time>2021-06-17T11:30:14.000Z</time>
      </trkpt>
      <trkpt lat="46.31667" lon="-1.30474">
        <ele>3.4</ele>
        <time>2021-06-17T11:30:15.000Z</time>
      </trkpt>
      <trkpt lat="46.31666" lon="-1.30474">
        <ele>3.4</ele>
        <time>2021-06-17T11:30:16.000Z</time>
      </trkpt>
      <trkpt lat="46.31665" lon="-1.30473">
        <ele>3.4</ele>
        <time>2021-06-17T11:30:17.000Z</time>
      </trkpt>
      <trkpt lat="46.31663" lon="-1.30472">
        <ele>3.3</ele>
        <time>2021-06-17T11:30:18.000Z</time>
      </trkpt>
      <trkpt lat="46.31662" lon="-1.30472">
        <ele>3.3</ele>
        <time>2021-06-17T11:30:19.000Z</time>
      </trkpt>
      <trkpt lat="46.31661" lon="-1.30471">
        <ele>3.3</ele>
        <time>2021-06-17T11:30:20.000Z</time>
      </trkpt>
      <trkpt lat="46.3166" lon="-1.3047">
        <ele>3.3</ele>
        <time>2021-06-17T11:30:21.000Z</time>
      </trkpt>
      <trkpt lat="46.31659" lon="-1.30469">
        <ele>3.3</ele>
        <time>2021-06-17T11:30:22.000Z</time>
      </trkpt>
      <trkpt lat="46.31658" lon="-1.30468">
        <ele>3.2</ele>
        <time>2021-06-17T11:30:23.000Z</time>
      </trkpt>
      <trkpt lat="46.31657" lon="-1.30467">
        <ele>3.2</ele>
        <time>2021-06-17T11:30:24.000Z</time>
      </trkpt>
      <trkpt lat="46.31656" lon="-1.30466">
        <ele>3.2</ele>
        <time>2021-06-17T11:30:25.000Z</time>
      </trkpt>
      <trkpt lat="46.31655" lon="-1.30465">
        <ele>3.2</ele>
        <time>2021-06-17T11:30:26.000Z</time>
      </trkpt>
      <trkpt lat="46.31654" lon="-1.30464">
        <ele>3.1</ele>
        <time>2021-06-17T11:30:27.000Z</time>
      </trkpt>
      <trkpt lat="46.31653" lon="-1.30463">
        <ele>3.1</ele>
        <time>2021-06-17T11:30:28.000Z</time>
      </trkpt>
      <trkpt lat="46.31652" lon="-1.30462">
        <ele>3.1</ele>
        <time>2021-06-17T11:30:29.000Z</time>
      </trkpt>
      <trkpt lat="46.31652" lon="-1.30461">
        <ele>3.1</ele>
        <time>2021-06-17T11:30:30.000Z</time>
      </trkpt>
      <trkpt lat="46.31651" lon="-1.3046">
        <ele>3</ele>
        <time>2021-06-17T11:30:31.000Z</time>
      </trkpt>
      <trkpt lat="46.3165" lon="-1.3046">
        <ele>3</ele>
        <time>2021-06-17T11:30:32.000Z</time>
      </trkpt>
      <trkpt lat="46.3165" lon="-1.30459">
        <ele>3</ele>
        <time>2021-06-17T11:30:33.000Z</time>
      </trkpt>
      <trkpt lat="46.31649" lon="-1.30459">
        <ele>3</ele>
        <time>2021-06-17T11:30:34.000Z</time>
      </trkpt>
      <trkpt lat="46.31649" lon="-1.30459">
        <ele>3</ele>
        <time>2021-06-17T11:30:35.000Z</time>
      </trkpt>
      <trkpt lat="46.31649" lon="-1.30459">
        <ele>3</ele>
        <time>2021-06-17T11:30:36.000Z</time>
      </trkpt>
      <trkpt lat="46.31649" lon="-1.30459">
        <ele>3</ele>
        <time>2021-06-17T11:30:37.000Z</time>
      </trkpt>
      <trkpt lat="46.31649" lon="-1.30459">
        <ele>3</ele>
        <time>2021-06-17T11:30:38.000Z</time>
      </trkpt>
      <trkpt lat="46.31649" lon="-1.30458">
        <ele>3</ele>
        <time>2021-06-17T11:30:39.000Z</time>
      </trkpt>
      <trkpt lat="46.31648" lon="-1.30457">
        <ele>3</ele>
        <time>2021-06-17T11:30:40.000Z</time>
      </trkpt>
      <trkpt lat="46.31648" lon="-1.30457">
        <ele>3</ele>
        <time>2021-06-17T11:30:41.000Z</time>
      </trkpt>
      <trkpt lat="46.31647" lon="-1.30456">
        <ele>2.9</ele>
        <time>2021-06-17T11:30:42.000Z</time>
      </trkpt>
      <trkpt lat="46.31647" lon="-1.30455">
        <ele>2.9</ele>
        <time>2021-06-17T11:30:43.000Z</time>
      </trkpt>
      <trkpt lat="46.31646" lon="-1.30453">
        <ele>2.9</ele>
        <time>2021-06-17T11:30:44.000Z</time>
      </trkpt>
      <trkpt lat="46.31645" lon="-1.30452">
        <ele>2.9</ele>
        <time>2021-06-17T11:30:45.000Z</time>
      </trkpt>
      <trkpt lat="46.31644" lon="-1.30451">
        <ele>2.8</ele>
        <time>2021-06-17T11:30:46.000Z</time>
      </trkpt>
      <trkpt lat="46.31644" lon="-1.3045">
        <ele>2.8</ele>
        <time>2021-06-17T11:30:47.000Z</time>
      </trkpt>
      <trkpt lat="46.31643" lon="-1.30449">
        <ele>2.8</ele>
        <time>2021-06-17T11:30:48.000Z</time>
      </trkpt>
      <trkpt lat="46.31642" lon="-1.30447">
        <ele>2.7</ele>
        <time>2021-06-17T11:30:49.000Z</time>
      </trkpt>
      <trkpt lat="46.31641" lon="-1.30446">
        <ele>2.7</ele>
        <time>2021-06-17T11:30:50.000Z</time>
      </trkpt>
      <trkpt lat="46.3164" lon="-1.30445">
        <ele>2.7</ele>
        <time>2021-06-17T11:30:51.000Z</time>
      </trkpt>
      <trkpt lat="46.31639" lon="-1.30444">
        <ele>2.6</ele>
        <time>2021-06-17T11:30:52.000Z</time>
      </trkpt>
      <trkpt lat="46.31639" lon="-1.30442">
        <ele>2.6</ele>
        <time>2021-06-17T11:30:53.000Z</time>
      </trkpt>
      <trkpt lat="46.31638" lon="-1.30441">
        <ele>2.6</ele>
        <time>2021-06-17T11:30:54.000Z</time>
      </trkpt>
      <trkpt lat="46.31637" lon="-1.3044">
        <ele>2.6</ele>
        <time>2021-06-17T11:30:55.000Z</time>
      </trkpt>
      <trkpt lat="46.31636" lon="-1.30438">
        <ele>2.5</ele>
        <time>2021-06-17T11:30:56.000Z</time>
      </trkpt>
      <trkpt lat="46.31635" lon="-1.30437">
        <ele>2.5</ele>
        <time>2021-06-17T11:30:57.000Z</time>
      </trkpt>
      <trkpt lat="46.31634" lon="-1.30436">
        <ele>2.5</ele>
        <time>2021-06-17T11:30:58.000Z</time>
      </trkpt>
      <trkpt lat="46.31633" lon="-1.30434">
        <ele>2.4</ele>
        <time>2021-06-17T11:30:59.000Z</time>
      </trkpt>
      <trkpt lat="46.31632" lon="-1.30433">
        <ele>2.4</ele>
        <time>2021-06-17T11:31:00.000Z</time>
      </trkpt>
      <trkpt lat="46.31631" lon="-1.30432">
        <ele>2.4</ele>
        <time>2021-06-17T11:31:01.000Z</time>
      </trkpt>
      <trkpt lat="46.3163" lon="-1.3043">
        <ele>2.3</ele>
        <time>2021-06-17T11:31:02.000Z</time>
      </trkpt>
      <trkpt lat="46.31629" lon="-1.30429">
        <ele>2.3</ele>
        <time>2021-06-17T11:31:03.000Z</time>
      </trkpt>
      <trkpt lat="46.31628" lon="-1.30427">
        <ele>2.3</ele>
        <time>2021-06-17T11:31:04.000Z</time>
      </trkpt>
      <trkpt lat="46.31627" lon="-1.30426">
        <ele>2.2</ele>
        <time>2021-06-17T11:31:05.000Z</time>
      </trkpt>
      <trkpt lat="46.31626" lon="-1.30425">
        <ele>2.2</ele>
        <time>2021-06-17T11:31:06.000Z</time>
      </trkpt>
      <trkpt lat="46.31625" lon="-1.30423">
        <ele>2.2</ele>
        <time>2021-06-17T11:31:07.000Z</time>
      </trkpt>
      <trkpt lat="46.31624" lon="-1.30422">
        <ele>2.1</ele>
        <time>2021-06-17T11:31:08.000Z</time>
      </trkpt>
      <trkpt lat="46.31623" lon="-1.3042">
        <ele>2.1</ele>
        <time>2021-06-17T11:31:09.000Z</time>
      </trkpt>
      <trkpt lat="46.31623" lon="-1.30419">
        <ele>2</ele>
        <time>2021-06-17T11:31:10.000Z</time>
      </trkpt>
      <trkpt lat="46.31622" lon="-1.30417">
        <ele>2</ele>
        <time>2021-06-17T11:31:11.000Z</time>
      </trkpt>
      <trkpt lat="46.31621" lon="-1.30416">
        <ele>2</ele>
        <time>2021-06-17T11:31:12.000Z</time>
      </trkpt>
      <trkpt lat="46.3162" lon="-1.30414">
        <ele>2</ele>
        <time>2021-06-17T11:31:13.000Z</time>
      </trkpt>
      <trkpt lat="46.31619" lon="-1.30413">
        <ele>2</ele>
        <time>2021-06-17T11:31:14.000Z</time>
      </trkpt>
      <trkpt lat="46.31618" lon="-1.30411">
        <ele>2</ele>
        <time>2021-06-17T11:31:15.000Z</time>
      </trkpt>
      <trkpt lat="46.31618" lon="-1.3041">
        <ele>2</ele>
        <time>2021-06-17T11:31:16.000Z</time>
      </trkpt>
      <trkpt lat="46.31617" lon="-1.30408">
        <ele>2</ele>
        <time>2021-06-17T11:31:17.000Z</time>
      </trkpt>
      <trkpt lat="46.31616" lon="-1.30407">
        <ele>2</ele>
        <time>2021-06-17T11:31:18.000Z</time>
      </trkpt>
      <trkpt lat="46.31615" lon="-1.30405">
        <ele>1.9</ele>
        <time>2021-06-17T11:31:19.000Z</time>
      </trkpt>
      <trkpt lat="46.31615" lon="-1.30404">
        <ele>1.9</ele>
        <time>2021-06-17T11:31:20.000Z</time>
      </trkpt>
      <trkpt lat="46.31614" lon="-1.30403">
        <ele>1.9</ele>
        <time>2021-06-17T11:31:21.000Z</time>
      </trkpt>
      <trkpt lat="46.31613" lon="-1.30401">
        <ele>1.9</ele>
        <time>2021-06-17T11:31:22.000Z</time>
      </trkpt>
      <trkpt lat="46.31612" lon="-1.304">
        <ele>1.9</ele>
        <time>2021-06-17T11:31:23.000Z</time>
      </trkpt>
      <trkpt lat="46.31612" lon="-1.30398">
        <ele>1.9</ele>
        <time>2021-06-17T11:31:24.000Z</time>
      </trkpt>
      <trkpt lat="46.31611" lon="-1.30397">
        <ele>1.9</ele>
        <time>2021-06-17T11:31:25.000Z</time>
      </trkpt>
      <trkpt lat="46.3161" lon="-1.30396">
        <ele>1.9</ele>
        <time>2021-06-17T11:31:26.000Z</time>
      </trkpt>
      <trkpt lat="46.31609" lon="-1.30394">
        <ele>1.9</ele>
        <time>2021-06-17T11:31:27.000Z</time>
      </trkpt>
      <trkpt lat="46.31608" lon="-1.30393">
        <ele>1.9</ele>
        <time>2021-06-17T11:31:28.000Z</time>
      </trkpt>
      <trkpt lat="46.31608" lon="-1.30392">
        <ele>1.9</ele>
        <time>2021-06-17T11:31:29.000Z</time>
      </trkpt>
      <trkpt lat="46.31607" lon="-1.30391">
        <ele>1.9</ele>
        <time>2021-06-17T11:31:30.000Z</time>
      </trkpt>
      <trkpt lat="46.31606" lon="-1.30389">
        <ele>1.9</ele>
        <time>2021-06-17T11:31:31.000Z</time>
      </trkpt>
      <trkpt lat="46.31605" lon="-1.30388">
        <ele>1.9</ele>
        <time>2021-06-17T11:31:32.000Z</time>
      </trkpt>
      <trkpt lat="46.31604" lon="-1.30387">
        <ele>1.9</ele>
        <time>2021-06-17T11:31:33.000Z</time>
      </trkpt>
      <trkpt lat="46.31603" lon="-1.30386">
        <ele>1.9</ele>
        <time>2021-06-17T11:31:34.000Z</time>
      </trkpt>
      <trkpt lat="46.31602" lon="-1.30385">
        <ele>1.9</ele>
        <time>2021-06-17T11:31:35.000Z</time>
      </trkpt>
      <trkpt lat="46.31602" lon="-1.30383">
        <ele>1.9</ele>
        <time>2021-06-17T11:31:36.000Z</time>
      </trkpt>
      <trkpt lat="46.31601" lon="-1.30382">
        <ele>1.9</ele>
        <time>2021-06-17T11:31:37.000Z</time>
      </trkpt>
      <trkpt lat="46.316" lon="-1.30381">
        <ele>1.9</ele>
        <time>2021-06-17T11:31:38.000Z</time>
      </trkpt>
      <trkpt lat="46.31599" lon="-1.3038">
        <ele>1.9</ele>
        <time>2021-06-17T11:31:39.000Z</time>
      </trkpt>
      <trkpt lat="46.31598" lon="-1.30379">
        <ele>1.9</ele>
        <time>2021-06-17T11:31:40.000Z</time>
      </trkpt>
      <trkpt lat="46.31597" lon="-1.30377">
        <ele>1.9</ele>
        <time>2021-06-17T11:31:41.000Z</time>
      </trkpt>
      <trkpt lat="46.31597" lon="-1.30376">
        <ele>1.9</ele>
        <time>2021-06-17T11:31:42.000Z</time>
      </trkpt>
      <trkpt lat="46.31596" lon="-1.30375">
        <ele>1.9</ele>
        <time>2021-06-17T11:31:43.000Z</time>
      </trkpt>
      <trkpt lat="46.31595" lon="-1.30374">
        <ele>1.9</ele>
        <time>2021-06-17T11:31:44.000Z</time>
      </trkpt>
      <trkpt lat="46.31594" lon="-1.30373">
        <ele>1.9</ele>
        <time>2021-06-17T11:31:45.000Z</time>
      </trkpt>
      <trkpt lat="46.31593" lon="-1.30371">
        <ele>1.9</ele>
        <time>2021-06-17T11:31:46.000Z</time>
      </trkpt>
      <trkpt lat="46.31593" lon="-1.3037">
        <ele>1.9</ele>
        <time>2021-06-17T11:31:47.000Z</time>
      </trkpt>
      <trkpt lat="46.31592" lon="-1.30369">
        <ele>1.9</ele>
        <time>2021-06-17T11:31:48.000Z</time>
      </trkpt>
      <trkpt lat="46.31591" lon="-1.30368">
        <ele>1.9</ele>
        <time>2021-06-17T11:31:49.000Z</time>
      </trkpt>
      <trkpt lat="46.3159" lon="-1.30366">
        <ele>2</ele>
        <time>2021-06-17T11:31:50.000Z</time>
      </trkpt>
      <trkpt lat="46.31589" lon="-1.30365">
        <ele>2</ele>
        <time>2021-06-17T11:31:51.000Z</time>
      </trkpt>
      <trkpt lat="46.31589" lon="-1.30364">
        <ele>2</ele>
        <time>2021-06-17T11:31:52.000Z</time>
      </trkpt>
      <trkpt lat="46.31588" lon="-1.30363">
        <ele>2</ele>
        <time>2021-06-17T11:31:53.000Z</time>
      </trkpt>
      <trkpt lat="46.31587" lon="-1.30361">
        <ele>2</ele>
        <time>2021-06-17T11:31:54.000Z</time>
      </trkpt>
      <trkpt lat="46.31586" lon="-1.3036">
        <ele>2</ele>
        <time>2021-06-17T11:31:55.000Z</time>
      </trkpt>
      <trkpt lat="46.31586" lon="-1.30359">
        <ele>2</ele>
        <time>2021-06-17T11:31:56.000Z</time>
      </trkpt>
      <trkpt lat="46.31585" lon="-1.30358">
        <ele>2</ele>
        <time>2021-06-17T11:31:57.000Z</time>
      </trkpt>
      <trkpt lat="46.31584" lon="-1.30356">
        <ele>2</ele>
        <time>2021-06-17T11:31:58.000Z</time>
      </trkpt>
      <trkpt lat="46.31583" lon="-1.30355">
        <ele>2</ele>
        <time>2021-06-17T11:31:59.000Z</time>
      </trkpt>
      <trkpt lat="46.31582" lon="-1.30354">
        <ele>2.1</ele>
        <time>2021-06-17T11:32:00.000Z</time>
      </trkpt>
      <trkpt lat="46.31582" lon="-1.30353">
        <ele>2.1</ele>
        <time>2021-06-17T11:32:01.000Z</time>
      </trkpt>
      <trkpt lat="46.31581" lon="-1.30351">
        <ele>2.1</ele>
        <time>2021-06-17T11:32:02.000Z</time>
      </trkpt>
      <trkpt lat="46.3158" lon="-1.3035">
        <ele>2.2</ele>
        <time>2021-06-17T11:32:03.000Z</time>
      </trkpt>
      <trkpt lat="46.31579" lon="-1.30349">
        <ele>2.2</ele>
        <time>2021-06-17T11:32:04.000Z</time>
      </trkpt>
      <trkpt lat="46.31578" lon="-1.30347">
        <ele>2.3</ele>
        <time>2021-06-17T11:32:05.000Z</time>
      </trkpt>
      <trkpt lat="46.31577" lon="-1.30346">
        <ele>2.3</ele>
        <time>2021-06-17T11:32:06.000Z</time>
      </trkpt>
      <trkpt lat="46.31576" lon="-1.30345">
        <ele>2.4</ele>
        <time>2021-06-17T11:32:07.000Z</time>
      </trkpt>
      <trkpt lat="46.31576" lon="-1.30343">
        <ele>2.4</ele>
        <time>2021-06-17T11:32:08.000Z</time>
      </trkpt>
      <trkpt lat="46.31575" lon="-1.30342">
        <ele>2.5</ele>
        <time>2021-06-17T11:32:09.000Z</time>
      </trkpt>
      <trkpt lat="46.31574" lon="-1.30341">
        <ele>2.5</ele>
        <time>2021-06-17T11:32:10.000Z</time>
      </trkpt>
      <trkpt lat="46.31573" lon="-1.30339">
        <ele>2.6</ele>
        <time>2021-06-17T11:32:11.000Z</time>
      </trkpt>
      <trkpt lat="46.31572" lon="-1.30338">
        <ele>2.7</ele>
        <time>2021-06-17T11:32:12.000Z</time>
      </trkpt>
      <trkpt lat="46.31571" lon="-1.30337">
        <ele>2.7</ele>
        <time>2021-06-17T11:32:13.000Z</time>
      </trkpt>
      <trkpt lat="46.3157" lon="-1.30335">
        <ele>2.8</ele>
        <time>2021-06-17T11:32:14.000Z</time>
      </trkpt>
      <trkpt lat="46.31569" lon="-1.30334">
        <ele>2.8</ele>
        <time>2021-06-17T11:32:15.000Z</time>
      </trkpt>
      <trkpt lat="46.31568" lon="-1.30333">
        <ele>2.9</ele>
        <time>2021-06-17T11:32:16.000Z</time>
      </trkpt>
      <trkpt lat="46.31567" lon="-1.30331">
        <ele>2.9</ele>
        <time>2021-06-17T11:32:17.000Z</time>
      </trkpt>
      <trkpt lat="46.31566" lon="-1.3033">
        <ele>3</ele>
        <time>2021-06-17T11:32:18.000Z</time>
      </trkpt>
      <trkpt lat="46.31565" lon="-1.30328">
        <ele>3</ele>
        <time>2021-06-17T11:32:19.000Z</time>
      </trkpt>
      <trkpt lat="46.31565" lon="-1.30327">
        <ele>3.1</ele>
        <time>2021-06-17T11:32:20.000Z</time>
      </trkpt>
      <trkpt lat="46.31564" lon="-1.30326">
        <ele>3.1</ele>
        <time>2021-06-17T11:32:21.000Z</time>
      </trkpt>
      <trkpt lat="46.31563" lon="-1.30324">
        <ele>3.1</ele>
        <time>2021-06-17T11:32:22.000Z</time>
      </trkpt>
      <trkpt lat="46.31562" lon="-1.30323">
        <ele>3.2</ele>
        <time>2021-06-17T11:32:23.000Z</time>
      </trkpt>
      <trkpt lat="46.31561" lon="-1.30321">
        <ele>3.2</ele>
        <time>2021-06-17T11:32:24.000Z</time>
      </trkpt>
      <trkpt lat="46.3156" lon="-1.3032">
        <ele>3.3</ele>
        <time>2021-06-17T11:32:25.000Z</time>
      </trkpt>
      <trkpt lat="46.31559" lon="-1.30318">
        <ele>3.3</ele>
        <time>2021-06-17T11:32:26.000Z</time>
      </trkpt>
      <trkpt lat="46.31558" lon="-1.30317">
        <ele>3.3</ele>
        <time>2021-06-17T11:32:27.000Z</time>
      </trkpt>
      <trkpt lat="46.31557" lon="-1.30315">
        <ele>3.4</ele>
        <time>2021-06-17T11:32:28.000Z</time>
      </trkpt>
      <trkpt lat="46.31556" lon="-1.30314">
        <ele>3.4</ele>
        <time>2021-06-17T11:32:29.000Z</time>
      </trkpt>
      <trkpt lat="46.31555" lon="-1.30312">
        <ele>3.4</ele>
        <time>2021-06-17T11:32:30.000Z</time>
      </trkpt>
      <trkpt lat="46.31554" lon="-1.30311">
        <ele>3.5</ele>
        <time>2021-06-17T11:32:31.000Z</time>
      </trkpt>
      <trkpt lat="46.31554" lon="-1.3031">
        <ele>3.5</ele>
        <time>2021-06-17T11:32:32.000Z</time>
      </trkpt>
      <trkpt lat="46.31553" lon="-1.30308">
        <ele>3.5</ele>
        <time>2021-06-17T11:32:33.000Z</time>
      </trkpt>
      <trkpt lat="46.31552" lon="-1.30307">
        <ele>3.6</ele>
        <time>2021-06-17T11:32:34.000Z</time>
      </trkpt>
      <trkpt lat="46.31552" lon="-1.30305">
        <ele>3.6</ele>
        <time>2021-06-17T11:32:35.000Z</time>
      </trkpt>
      <trkpt lat="46.31551" lon="-1.30304">
        <ele>3.6</ele>
        <time>2021-06-17T11:32:36.000Z</time>
      </trkpt>
      <trkpt lat="46.3155" lon="-1.30303">
        <ele>3.6</ele>
        <time>2021-06-17T11:32:37.000Z</time>
      </trkpt>
      <trkpt lat="46.3155" lon="-1.30301">
        <ele>3.6</ele>
        <time>2021-06-17T11:32:38.000Z</time>
      </trkpt>
      <trkpt lat="46.31549" lon="-1.303">
        <ele>3.6</ele>
        <time>2021-06-17T11:32:39.000Z</time>
      </trkpt>
      <trkpt lat="46.31549" lon="-1.30299">
        <ele>3.7</ele>
        <time>2021-06-17T11:32:40.000Z</time>
      </trkpt>
      <trkpt lat="46.31548" lon="-1.30297">
        <ele>3.7</ele>
        <time>2021-06-17T11:32:41.000Z</time>
      </trkpt>
      <trkpt lat="46.31548" lon="-1.30296">
        <ele>3.7</ele>
        <time>2021-06-17T11:32:42.000Z</time>
      </trkpt>
      <trkpt lat="46.31547" lon="-1.30294">
        <ele>3.7</ele>
        <time>2021-06-17T11:32:43.000Z</time>
      </trkpt>
      <trkpt lat="46.31546" lon="-1.30293">
        <ele>3.7</ele>
        <time>2021-06-17T11:32:44.000Z</time>
      </trkpt>
      <trkpt lat="46.31546" lon="-1.30291">
        <ele>3.8</ele>
        <time>2021-06-17T11:32:45.000Z</time>
      </trkpt>
      <trkpt lat="46.31545" lon="-1.3029">
        <ele>3.8</ele>
        <time>2021-06-17T11:32:46.000Z</time>
      </trkpt>
      <trkpt lat="46.31544" lon="-1.30288">
        <ele>3.8</ele>
        <time>2021-06-17T11:32:47.000Z</time>
      </trkpt>
      <trkpt lat="46.31543" lon="-1.30287">
        <ele>3.8</ele>
        <time>2021-06-17T11:32:48.000Z</time>
      </trkpt>
      <trkpt lat="46.31542" lon="-1.30285">
        <ele>3.9</ele>
        <time>2021-06-17T11:32:49.000Z</time>
      </trkpt>
      <trkpt lat="46.31541" lon="-1.30284">
        <ele>3.9</ele>
        <time>2021-06-17T11:32:50.000Z</time>
      </trkpt>
      <trkpt lat="46.31541" lon="-1.30282">
        <ele>4</ele>
        <time>2021-06-17T11:32:51.000Z</time>
      </trkpt>
      <trkpt lat="46.3154" lon="-1.30281">
        <ele>4</ele>
        <time>2021-06-17T11:32:52.000Z</time>
      </trkpt>
      <trkpt lat="46.31539" lon="-1.30279">
        <ele>4</ele>
        <time>2021-06-17T11:32:53.000Z</time>
      </trkpt>
      <trkpt lat="46.31538" lon="-1.30278">
        <ele>4.1</ele>
        <time>2021-06-17T11:32:54.000Z</time>
      </trkpt>
      <trkpt lat="46.31537" lon="-1.30277">
        <ele>4.1</ele>
        <time>2021-06-17T11:32:55.000Z</time>
      </trkpt>
      <trkpt lat="46.31536" lon="-1.30276">
        <ele>4.2</ele>
        <time>2021-06-17T11:32:56.000Z</time>
      </trkpt>
      <trkpt lat="46.31535" lon="-1.30274">
        <ele>4.2</ele>
        <time>2021-06-17T11:32:57.000Z</time>
      </trkpt>
      <trkpt lat="46.31534" lon="-1.30273">
        <ele>4.3</ele>
        <time>2021-06-17T11:32:58.000Z</time>
      </trkpt>
      <trkpt lat="46.31533" lon="-1.30272">
        <ele>4.3</ele>
        <time>2021-06-17T11:32:59.000Z</time>
      </trkpt>
      <trkpt lat="46.31532" lon="-1.30271">
        <ele>4.3</ele>
        <time>2021-06-17T11:33:00.000Z</time>
      </trkpt>
      <trkpt lat="46.31531" lon="-1.3027">
        <ele>4.4</ele>
        <time>2021-06-17T11:33:01.000Z</time>
      </trkpt>
      <trkpt lat="46.3153" lon="-1.30268">
        <ele>4.4</ele>
        <time>2021-06-17T11:33:02.000Z</time>
      </trkpt>
      <trkpt lat="46.31529" lon="-1.30267">
        <ele>4.4</ele>
        <time>2021-06-17T11:33:03.000Z</time>
      </trkpt>
      <trkpt lat="46.31528" lon="-1.30266">
        <ele>4.5</ele>
        <time>2021-06-17T11:33:04.000Z</time>
      </trkpt>
      <trkpt lat="46.31528" lon="-1.30265">
        <ele>4.5</ele>
        <time>2021-06-17T11:33:05.000Z</time>
      </trkpt>
      <trkpt lat="46.31527" lon="-1.30263">
        <ele>4.6</ele>
        <time>2021-06-17T11:33:06.000Z</time>
      </trkpt>
      <trkpt lat="46.31526" lon="-1.30262">
        <ele>4.6</ele>
        <time>2021-06-17T11:33:07.000Z</time>
      </trkpt>
      <trkpt lat="46.31525" lon="-1.30261">
        <ele>4.6</ele>
        <time>2021-06-17T11:33:08.000Z</time>
      </trkpt>
      <trkpt lat="46.31524" lon="-1.3026">
        <ele>4.7</ele>
        <time>2021-06-17T11:33:09.000Z</time>
      </trkpt>
      <trkpt lat="46.31524" lon="-1.30258">
        <ele>4.7</ele>
        <time>2021-06-17T11:33:10.000Z</time>
      </trkpt>
      <trkpt lat="46.31523" lon="-1.30257">
        <ele>4.7</ele>
        <time>2021-06-17T11:33:11.000Z</time>
      </trkpt>
      <trkpt lat="46.31522" lon="-1.30256">
        <ele>4.8</ele>
        <time>2021-06-17T11:33:12.000Z</time>
      </trkpt>
      <trkpt lat="46.31521" lon="-1.30255">
        <ele>4.8</ele>
        <time>2021-06-17T11:33:13.000Z</time>
      </trkpt>
      <trkpt lat="46.3152" lon="-1.30253">
        <ele>4.8</ele>
        <time>2021-06-17T11:33:14.000Z</time>
      </trkpt>
      <trkpt lat="46.3152" lon="-1.30252">
        <ele>4.8</ele>
        <time>2021-06-17T11:33:15.000Z</time>
      </trkpt>
      <trkpt lat="46.31519" lon="-1.30251">
        <ele>4.9</ele>
        <time>2021-06-17T11:33:16.000Z</time>
      </trkpt>
      <trkpt lat="46.31518" lon="-1.30249">
        <ele>4.9</ele>
        <time>2021-06-17T11:33:17.000Z</time>
      </trkpt>
      <trkpt lat="46.31517" lon="-1.30248">
        <ele>4.9</ele>
        <time>2021-06-17T11:33:18.000Z</time>
      </trkpt>
      <trkpt lat="46.31516" lon="-1.30247">
        <ele>5</ele>
        <time>2021-06-17T11:33:19.000Z</time>
      </trkpt>
      <trkpt lat="46.31516" lon="-1.30245">
        <ele>5</ele>
        <time>2021-06-17T11:33:20.000Z</time>
      </trkpt>
      <trkpt lat="46.31515" lon="-1.30244">
        <ele>5</ele>
        <time>2021-06-17T11:33:21.000Z</time>
      </trkpt>
      <trkpt lat="46.31514" lon="-1.30243">
        <ele>5</ele>
        <time>2021-06-17T11:33:22.000Z</time>
      </trkpt>
      <trkpt lat="46.31513" lon="-1.30241">
        <ele>5</ele>
        <time>2021-06-17T11:33:23.000Z</time>
      </trkpt>
      <trkpt lat="46.31513" lon="-1.3024">
        <ele>5.1</ele>
        <time>2021-06-17T11:33:24.000Z</time>
      </trkpt>
      <trkpt lat="46.31512" lon="-1.30239">
        <ele>5.1</ele>
        <time>2021-06-17T11:33:25.000Z</time>
      </trkpt>
      <trkpt lat="46.31511" lon="-1.30238">
        <ele>5.1</ele>
        <time>2021-06-17T11:33:26.000Z</time>
      </trkpt>
      <trkpt lat="46.3151" lon="-1.30236">
        <ele>5.1</ele>
        <time>2021-06-17T11:33:27.000Z</time>
      </trkpt>
      <trkpt lat="46.31509" lon="-1.30235">
        <ele>5.1</ele>
        <time>2021-06-17T11:33:28.000Z</time>
      </trkpt>
      <trkpt lat="46.31508" lon="-1.30234">
        <ele>5.2</ele>
        <time>2021-06-17T11:33:29.000Z</time>
      </trkpt>
      <trkpt lat="46.31508" lon="-1.30233">
        <ele>5.2</ele>
        <time>2021-06-17T11:33:30.000Z</time>
      </trkpt>
      <trkpt lat="46.31507" lon="-1.30231">
        <ele>5.2</ele>
        <time>2021-06-17T11:33:31.000Z</time>
      </trkpt>
      <trkpt lat="46.31506" lon="-1.3023">
        <ele>5.2</ele>
        <time>2021-06-17T11:33:32.000Z</time>
      </trkpt>
      <trkpt lat="46.31505" lon="-1.30229">
        <ele>5.2</ele>
        <time>2021-06-17T11:33:33.000Z</time>
      </trkpt>
      <trkpt lat="46.31504" lon="-1.30228">
        <ele>5.3</ele>
        <time>2021-06-17T11:33:34.000Z</time>
      </trkpt>
      <trkpt lat="46.31503" lon="-1.30226">
        <ele>5.3</ele>
        <time>2021-06-17T11:33:35.000Z</time>
      </trkpt>
      <trkpt lat="46.31502" lon="-1.30225">
        <ele>5.3</ele>
        <time>2021-06-17T11:33:36.000Z</time>
      </trkpt>
      <trkpt lat="46.31502" lon="-1.30224">
        <ele>5.3</ele>
        <time>2021-06-17T11:33:37.000Z</time>
      </trkpt>
      <trkpt lat="46.31501" lon="-1.30223">
        <ele>5.3</ele>
        <time>2021-06-17T11:33:38.000Z</time>
      </trkpt>
      <trkpt lat="46.315" lon="-1.30222">
        <ele>5.3</ele>
        <time>2021-06-17T11:33:39.000Z</time>
      </trkpt>
      <trkpt lat="46.31499" lon="-1.3022">
        <ele>5.3</ele>
        <time>2021-06-17T11:33:40.000Z</time>
      </trkpt>
      <trkpt lat="46.31498" lon="-1.30219">
        <ele>5.3</ele>
        <time>2021-06-17T11:33:41.000Z</time>
      </trkpt>
      <trkpt lat="46.31497" lon="-1.30218">
        <ele>5.2</ele>
        <time>2021-06-17T11:33:42.000Z</time>
      </trkpt>
      <trkpt lat="46.31496" lon="-1.30217">
        <ele>5.2</ele>
        <time>2021-06-17T11:33:43.000Z</time>
      </trkpt>
      <trkpt lat="46.31495" lon="-1.30216">
        <ele>5.2</ele>
        <time>2021-06-17T11:33:44.000Z</time>
      </trkpt>
      <trkpt lat="46.31494" lon="-1.30215">
        <ele>5.1</ele>
        <time>2021-06-17T11:33:45.000Z</time>
      </trkpt>
      <trkpt lat="46.31493" lon="-1.30214">
        <ele>5.1</ele>
        <time>2021-06-17T11:33:46.000Z</time>
      </trkpt>
      <trkpt lat="46.31492" lon="-1.30212">
        <ele>5.1</ele>
        <time>2021-06-17T11:33:47.000Z</time>
      </trkpt>
      <trkpt lat="46.31491" lon="-1.30211">
        <ele>5</ele>
        <time>2021-06-17T11:33:48.000Z</time>
      </trkpt>
      <trkpt lat="46.3149" lon="-1.3021">
        <ele>5</ele>
        <time>2021-06-17T11:33:49.000Z</time>
      </trkpt>
      <trkpt lat="46.31489" lon="-1.30209">
        <ele>5</ele>
        <time>2021-06-17T11:33:50.000Z</time>
      </trkpt>
      <trkpt lat="46.31489" lon="-1.30208">
        <ele>4.9</ele>
        <time>2021-06-17T11:33:51.000Z</time>
      </trkpt>
      <trkpt lat="46.31488" lon="-1.30207">
        <ele>4.9</ele>
        <time>2021-06-17T11:33:52.000Z</time>
      </trkpt>
      <trkpt lat="46.31487" lon="-1.30206">
        <ele>4.8</ele>
        <time>2021-06-17T11:33:53.000Z</time>
      </trkpt>
      <trkpt lat="46.31486" lon="-1.30205">
        <ele>4.8</ele>
        <time>2021-06-17T11:33:54.000Z</time>
      </trkpt>
      <trkpt lat="46.31485" lon="-1.30203">
        <ele>4.8</ele>
        <time>2021-06-17T11:33:55.000Z</time>
      </trkpt>
      <trkpt lat="46.31484" lon="-1.30202">
        <ele>4.7</ele>
        <time>2021-06-17T11:33:56.000Z</time>
      </trkpt>
      <trkpt lat="46.31483" lon="-1.30201">
        <ele>4.7</ele>
        <time>2021-06-17T11:33:57.000Z</time>
      </trkpt>
      <trkpt lat="46.31482" lon="-1.302">
        <ele>4.7</ele>
        <time>2021-06-17T11:33:58.000Z</time>
      </trkpt>
      <trkpt lat="46.31481" lon="-1.30199">
        <ele>4.6</ele>
        <time>2021-06-17T11:33:59.000Z</time>
      </trkpt>
      <trkpt lat="46.3148" lon="-1.30198">
        <ele>4.6</ele>
        <time>2021-06-17T11:34:00.000Z</time>
      </trkpt>
      <trkpt lat="46.31479" lon="-1.30197">
        <ele>4.6</ele>
        <time>2021-06-17T11:34:01.000Z</time>
      </trkpt>
      <trkpt lat="46.31478" lon="-1.30195">
        <ele>4.5</ele>
        <time>2021-06-17T11:34:02.000Z</time>
      </trkpt>
      <trkpt lat="46.31477" lon="-1.30194">
        <ele>4.5</ele>
        <time>2021-06-17T11:34:03.000Z</time>
      </trkpt>
      <trkpt lat="46.31476" lon="-1.30193">
        <ele>4.4</ele>
        <time>2021-06-17T11:34:04.000Z</time>
      </trkpt>
      <trkpt lat="46.31475" lon="-1.30192">
        <ele>4.4</ele>
        <time>2021-06-17T11:34:05.000Z</time>
      </trkpt>
      <trkpt lat="46.31474" lon="-1.30191">
        <ele>4.4</ele>
        <time>2021-06-17T11:34:06.000Z</time>
      </trkpt>
      <trkpt lat="46.31474" lon="-1.30189">
        <ele>4.3</ele>
        <time>2021-06-17T11:34:07.000Z</time>
      </trkpt>
      <trkpt lat="46.31473" lon="-1.30188">
        <ele>4.3</ele>
        <time>2021-06-17T11:34:08.000Z</time>
      </trkpt>
      <trkpt lat="46.31472" lon="-1.30187">
        <ele>4.2</ele>
        <time>2021-06-17T11:34:09.000Z</time>
      </trkpt>
      <trkpt lat="46.31471" lon="-1.30185">
        <ele>4.2</ele>
        <time>2021-06-17T11:34:10.000Z</time>
      </trkpt>
      <trkpt lat="46.3147" lon="-1.30184">
        <ele>4.1</ele>
        <time>2021-06-17T11:34:11.000Z</time>
      </trkpt>
      <trkpt lat="46.31469" lon="-1.30182">
        <ele>4.1</ele>
        <time>2021-06-17T11:34:12.000Z</time>
      </trkpt>
      <trkpt lat="46.31469" lon="-1.3018">
        <ele>4</ele>
        <time>2021-06-17T11:34:13.000Z</time>
      </trkpt>
      <trkpt lat="46.31468" lon="-1.30179">
        <ele>4</ele>
        <time>2021-06-17T11:34:14.000Z</time>
      </trkpt>
      <trkpt lat="46.31467" lon="-1.30177">
        <ele>3.9</ele>
        <time>2021-06-17T11:34:15.000Z</time>
      </trkpt>
      <trkpt lat="46.31467" lon="-1.30175">
        <ele>3.8</ele>
        <time>2021-06-17T11:34:16.000Z</time>
      </trkpt>
      <trkpt lat="46.31466" lon="-1.30174">
        <ele>3.8</ele>
        <time>2021-06-17T11:34:17.000Z</time>
      </trkpt>
      <trkpt lat="46.31465" lon="-1.30172">
        <ele>3.7</ele>
        <time>2021-06-17T11:34:18.000Z</time>
      </trkpt>
      <trkpt lat="46.31464" lon="-1.30171">
        <ele>3.7</ele>
        <time>2021-06-17T11:34:19.000Z</time>
      </trkpt>
      <trkpt lat="46.31463" lon="-1.30169">
        <ele>3.6</ele>
        <time>2021-06-17T11:34:20.000Z</time>
      </trkpt>
      <trkpt lat="46.31462" lon="-1.30168">
        <ele>3.6</ele>
        <time>2021-06-17T11:34:21.000Z</time>
      </trkpt>
      <trkpt lat="46.31461" lon="-1.30167">
        <ele>3.5</ele>
        <time>2021-06-17T11:34:22.000Z</time>
      </trkpt>
      <trkpt lat="46.3146" lon="-1.30166">
        <ele>3.5</ele>
        <time>2021-06-17T11:34:23.000Z</time>
      </trkpt>
      <trkpt lat="46.31459" lon="-1.30165">
        <ele>3.5</ele>
        <time>2021-06-17T11:34:24.000Z</time>
      </trkpt>
      <trkpt lat="46.31458" lon="-1.30164">
        <ele>3.4</ele>
        <time>2021-06-17T11:34:25.000Z</time>
      </trkpt>
      <trkpt lat="46.31457" lon="-1.30163">
        <ele>3.4</ele>
        <time>2021-06-17T11:34:26.000Z</time>
      </trkpt>
      <trkpt lat="46.31456" lon="-1.30162">
        <ele>3.4</ele>
        <time>2021-06-17T11:34:27.000Z</time>
      </trkpt>
      <trkpt lat="46.31455" lon="-1.30162">
        <ele>3.4</ele>
        <time>2021-06-17T11:34:28.000Z</time>
      </trkpt>
      <trkpt lat="46.31453" lon="-1.30161">
        <ele>3.3</ele>
        <time>2021-06-17T11:34:29.000Z</time>
      </trkpt>
      <trkpt lat="46.31452" lon="-1.3016">
        <ele>3.3</ele>
        <time>2021-06-17T11:34:30.000Z</time>
      </trkpt>
      <trkpt lat="46.31451" lon="-1.3016">
        <ele>3.3</ele>
        <time>2021-06-17T11:34:31.000Z</time>
      </trkpt>
      <trkpt lat="46.3145" lon="-1.30159">
        <ele>3.3</ele>
        <time>2021-06-17T11:34:32.000Z</time>
      </trkpt>
      <trkpt lat="46.31449" lon="-1.30159">
        <ele>3.2</ele>
        <time>2021-06-17T11:34:33.000Z</time>
      </trkpt>
      <trkpt lat="46.31447" lon="-1.30158">
        <ele>3.2</ele>
        <time>2021-06-17T11:34:34.000Z</time>
      </trkpt>
      <trkpt lat="46.31446" lon="-1.30158">
        <ele>3.2</ele>
        <time>2021-06-17T11:34:35.000Z</time>
      </trkpt>
      <trkpt lat="46.31445" lon="-1.30157">
        <ele>3.2</ele>
        <time>2021-06-17T11:34:36.000Z</time>
      </trkpt>
      <trkpt lat="46.31444" lon="-1.30157">
        <ele>3.1</ele>
        <time>2021-06-17T11:34:37.000Z</time>
      </trkpt>
      <trkpt lat="46.31442" lon="-1.30157">
        <ele>3.1</ele>
        <time>2021-06-17T11:34:38.000Z</time>
      </trkpt>
      <trkpt lat="46.31441" lon="-1.30156">
        <ele>3.1</ele>
        <time>2021-06-17T11:34:39.000Z</time>
      </trkpt>
      <trkpt lat="46.3144" lon="-1.30156">
        <ele>3.1</ele>
        <time>2021-06-17T11:34:40.000Z</time>
      </trkpt>
      <trkpt lat="46.31439" lon="-1.30156">
        <ele>3</ele>
        <time>2021-06-17T11:34:41.000Z</time>
      </trkpt>
      <trkpt lat="46.31437" lon="-1.30156">
        <ele>3</ele>
        <time>2021-06-17T11:34:42.000Z</time>
      </trkpt>
      <trkpt lat="46.31436" lon="-1.30156">
        <ele>3</ele>
        <time>2021-06-17T11:34:43.000Z</time>
      </trkpt>
      <trkpt lat="46.31435" lon="-1.30156">
        <ele>3</ele>
        <time>2021-06-17T11:34:44.000Z</time>
      </trkpt>
      <trkpt lat="46.31433" lon="-1.30156">
        <ele>3</ele>
        <time>2021-06-17T11:34:45.000Z</time>
      </trkpt>
      <trkpt lat="46.31432" lon="-1.30156">
        <ele>2.9</ele>
        <time>2021-06-17T11:34:46.000Z</time>
      </trkpt>
      <trkpt lat="46.31431" lon="-1.30156">
        <ele>2.9</ele>
        <time>2021-06-17T11:34:47.000Z</time>
      </trkpt>
      <trkpt lat="46.31429" lon="-1.30156">
        <ele>2.9</ele>
        <time>2021-06-17T11:34:48.000Z</time>
      </trkpt>
      <trkpt lat="46.31428" lon="-1.30156">
        <ele>2.9</ele>
        <time>2021-06-17T11:34:49.000Z</time>
      </trkpt>
      <trkpt lat="46.31427" lon="-1.30156">
        <ele>2.9</ele>
        <time>2021-06-17T11:34:50.000Z</time>
      </trkpt>
      <trkpt lat="46.31426" lon="-1.30156">
        <ele>2.9</ele>
        <time>2021-06-17T11:34:51.000Z</time>
      </trkpt>
      <trkpt lat="46.31424" lon="-1.30156">
        <ele>2.8</ele>
        <time>2021-06-17T11:34:52.000Z</time>
      </trkpt>
      <trkpt lat="46.31423" lon="-1.30156">
        <ele>2.8</ele>
        <time>2021-06-17T11:34:53.000Z</time>
      </trkpt>
      <trkpt lat="46.31422" lon="-1.30156">
        <ele>2.8</ele>
        <time>2021-06-17T11:34:54.000Z</time>
      </trkpt>
      <trkpt lat="46.31421" lon="-1.30157">
        <ele>2.8</ele>
        <time>2021-06-17T11:34:55.000Z</time>
      </trkpt>
      <trkpt lat="46.31419" lon="-1.30157">
        <ele>2.8</ele>
        <time>2021-06-17T11:34:56.000Z</time>
      </trkpt>
      <trkpt lat="46.31418" lon="-1.30157">
        <ele>2.8</ele>
        <time>2021-06-17T11:34:57.000Z</time>
      </trkpt>
      <trkpt lat="46.31417" lon="-1.30157">
        <ele>2.8</ele>
        <time>2021-06-17T11:34:58.000Z</time>
      </trkpt>
      <trkpt lat="46.31416" lon="-1.30157">
        <ele>2.8</ele>
        <time>2021-06-17T11:34:59.000Z</time>
      </trkpt>
      <trkpt lat="46.31415" lon="-1.30157">
        <ele>2.8</ele>
        <time>2021-06-17T11:35:00.000Z</time>
      </trkpt>
      <trkpt lat="46.31413" lon="-1.30158">
        <ele>2.8</ele>
        <time>2021-06-17T11:35:01.000Z</time>
      </trkpt>
      <trkpt lat="46.31412" lon="-1.30158">
        <ele>2.8</ele>
        <time>2021-06-17T11:35:02.000Z</time>
      </trkpt>
      <trkpt lat="46.31411" lon="-1.30158">
        <ele>2.8</ele>
        <time>2021-06-17T11:35:03.000Z</time>
      </trkpt>
      <trkpt lat="46.3141" lon="-1.30158">
        <ele>2.9</ele>
        <time>2021-06-17T11:35:04.000Z</time>
      </trkpt>
      <trkpt lat="46.31409" lon="-1.30158">
        <ele>2.9</ele>
        <time>2021-06-17T11:35:05.000Z</time>
      </trkpt>
      <trkpt lat="46.31407" lon="-1.30158">
        <ele>2.9</ele>
        <time>2021-06-17T11:35:06.000Z</time>
      </trkpt>
      <trkpt lat="46.31406" lon="-1.30158">
        <ele>2.9</ele>
        <time>2021-06-17T11:35:07.000Z</time>
      </trkpt>
      <trkpt lat="46.31405" lon="-1.30158">
        <ele>2.9</ele>
        <time>2021-06-17T11:35:08.000Z</time>
      </trkpt>
      <trkpt lat="46.31404" lon="-1.30158">
        <ele>2.9</ele>
        <time>2021-06-17T11:35:09.000Z</time>
      </trkpt>
      <trkpt lat="46.31403" lon="-1.30158">
        <ele>3</ele>
        <time>2021-06-17T11:35:10.000Z</time>
      </trkpt>
      <trkpt lat="46.31401" lon="-1.30158">
        <ele>3</ele>
        <time>2021-06-17T11:35:11.000Z</time>
      </trkpt>
      <trkpt lat="46.314" lon="-1.30158">
        <ele>3</ele>
        <time>2021-06-17T11:35:12.000Z</time>
      </trkpt>
      <trkpt lat="46.31399" lon="-1.30158">
        <ele>3</ele>
        <time>2021-06-17T11:35:13.000Z</time>
      </trkpt>
      <trkpt lat="46.31398" lon="-1.30158">
        <ele>3</ele>
        <time>2021-06-17T11:35:14.000Z</time>
      </trkpt>
      <trkpt lat="46.31397" lon="-1.30158">
        <ele>3</ele>
        <time>2021-06-17T11:35:15.000Z</time>
      </trkpt>
      <trkpt lat="46.31395" lon="-1.30158">
        <ele>3</ele>
        <time>2021-06-17T11:35:16.000Z</time>
      </trkpt>
      <trkpt lat="46.31394" lon="-1.30158">
        <ele>3</ele>
        <time>2021-06-17T11:35:17.000Z</time>
      </trkpt>
      <trkpt lat="46.31393" lon="-1.30158">
        <ele>3</ele>
        <time>2021-06-17T11:35:18.000Z</time>
      </trkpt>
      <trkpt lat="46.31392" lon="-1.30158">
        <ele>3.1</ele>
        <time>2021-06-17T11:35:19.000Z</time>
      </trkpt>
      <trkpt lat="46.3139" lon="-1.30158">
        <ele>3.1</ele>
        <time>2021-06-17T11:35:20.000Z</time>
      </trkpt>
      <trkpt lat="46.31389" lon="-1.30158">
        <ele>3.1</ele>
        <time>2021-06-17T11:35:21.000Z</time>
      </trkpt>
      <trkpt lat="46.31388" lon="-1.30158">
        <ele>3.1</ele>
        <time>2021-06-17T11:35:22.000Z</time>
      </trkpt>
      <trkpt lat="46.31387" lon="-1.30158">
        <ele>3.1</ele>
        <time>2021-06-17T11:35:23.000Z</time>
      </trkpt>
      <trkpt lat="46.31386" lon="-1.30158">
        <ele>3.1</ele>
        <time>2021-06-17T11:35:24.000Z</time>
      </trkpt>
      <trkpt lat="46.31384" lon="-1.30158">
        <ele>3.1</ele>
        <time>2021-06-17T11:35:25.000Z</time>
      </trkpt>
      <trkpt lat="46.31383" lon="-1.30158">
        <ele>3.1</ele>
        <time>2021-06-17T11:35:26.000Z</time>
      </trkpt>
      <trkpt lat="46.31382" lon="-1.30158">
        <ele>3.2</ele>
        <time>2021-06-17T11:35:27.000Z</time>
      </trkpt>
      <trkpt lat="46.31381" lon="-1.30158">
        <ele>3.2</ele>
        <time>2021-06-17T11:35:28.000Z</time>
      </trkpt>
      <trkpt lat="46.31379" lon="-1.30158">
        <ele>3.2</ele>
        <time>2021-06-17T11:35:29.000Z</time>
      </trkpt>
      <trkpt lat="46.31378" lon="-1.30158">
        <ele>3.2</ele>
        <time>2021-06-17T11:35:30.000Z</time>
      </trkpt>
      <trkpt lat="46.31377" lon="-1.30158">
        <ele>3.2</ele>
        <time>2021-06-17T11:35:31.000Z</time>
      </trkpt>
      <trkpt lat="46.31376" lon="-1.30158">
        <ele>3.2</ele>
        <time>2021-06-17T11:35:32.000Z</time>
      </trkpt>
      <trkpt lat="46.31374" lon="-1.30158">
        <ele>3.2</ele>
        <time>2021-06-17T11:35:33.000Z</time>
      </trkpt>
      <trkpt lat="46.31373" lon="-1.30158">
        <ele>3.3</ele>
        <time>2021-06-17T11:35:34.000Z</time>
      </trkpt>
      <trkpt lat="46.31372" lon="-1.30158">
        <ele>3.3</ele>
        <time>2021-06-17T11:35:35.000Z</time>
      </trkpt>
      <trkpt lat="46.31371" lon="-1.30158">
        <ele>3.3</ele>
        <time>2021-06-17T11:35:36.000Z</time>
      </trkpt>
      <trkpt lat="46.31369" lon="-1.30158">
        <ele>3.3</ele>
        <time>2021-06-17T11:35:37.000Z</time>
      </trkpt>
      <trkpt lat="46.31368" lon="-1.30158">
        <ele>3.3</ele>
        <time>2021-06-17T11:35:38.000Z</time>
      </trkpt>
      <trkpt lat="46.31367" lon="-1.30158">
        <ele>3.3</ele>
        <time>2021-06-17T11:35:39.000Z</time>
      </trkpt>
      <trkpt lat="46.31366" lon="-1.30158">
        <ele>3.3</ele>
        <time>2021-06-17T11:35:40.000Z</time>
      </trkpt>
      <trkpt lat="46.31365" lon="-1.30158">
        <ele>3.3</ele>
        <time>2021-06-17T11:35:41.000Z</time>
      </trkpt>
      <trkpt lat="46.31363" lon="-1.30158">
        <ele>3.4</ele>
        <time>2021-06-17T11:35:42.000Z</time>
      </trkpt>
      <trkpt lat="46.31362" lon="-1.30158">
        <ele>3.4</ele>
        <time>2021-06-17T11:35:43.000Z</time>
      </trkpt>
      <trkpt lat="46.31361" lon="-1.30158">
        <ele>3.4</ele>
        <time>2021-06-17T11:35:44.000Z</time>
      </trkpt>
      <trkpt lat="46.3136" lon="-1.30158">
        <ele>3.4</ele>
        <time>2021-06-17T11:35:45.000Z</time>
      </trkpt>
      <trkpt lat="46.31358" lon="-1.30158">
        <ele>3.4</ele>
        <time>2021-06-17T11:35:46.000Z</time>
      </trkpt>
      <trkpt lat="46.31357" lon="-1.30157">
        <ele>3.4</ele>
        <time>2021-06-17T11:35:47.000Z</time>
      </trkpt>
      <trkpt lat="46.31356" lon="-1.30157">
        <ele>3.4</ele>
        <time>2021-06-17T11:35:48.000Z</time>
      </trkpt>
      <trkpt lat="46.31355" lon="-1.30157">
        <ele>3.4</ele>
        <time>2021-06-17T11:35:49.000Z</time>
      </trkpt>
      <trkpt lat="46.31353" lon="-1.30157">
        <ele>3.4</ele>
        <time>2021-06-17T11:35:50.000Z</time>
      </trkpt>
      <trkpt lat="46.31352" lon="-1.30157">
        <ele>3.4</ele>
        <time>2021-06-17T11:35:51.000Z</time>
      </trkpt>
      <trkpt lat="46.31351" lon="-1.30156">
        <ele>3.4</ele>
        <time>2021-06-17T11:35:52.000Z</time>
      </trkpt>
      <trkpt lat="46.3135" lon="-1.30156">
        <ele>3.5</ele>
        <time>2021-06-17T11:35:53.000Z</time>
      </trkpt>
      <trkpt lat="46.31348" lon="-1.30156">
        <ele>3.5</ele>
        <time>2021-06-17T11:35:54.000Z</time>
      </trkpt>
      <trkpt lat="46.31347" lon="-1.30156">
        <ele>3.5</ele>
        <time>2021-06-17T11:35:55.000Z</time>
      </trkpt>
      <trkpt lat="46.31346" lon="-1.30155">
        <ele>3.5</ele>
        <time>2021-06-17T11:35:56.000Z</time>
      </trkpt>
      <trkpt lat="46.31345" lon="-1.30155">
        <ele>3.5</ele>
        <time>2021-06-17T11:35:57.000Z</time>
      </trkpt>
      <trkpt lat="46.31343" lon="-1.30155">
        <ele>3.5</ele>
        <time>2021-06-17T11:35:58.000Z</time>
      </trkpt>
      <trkpt lat="46.31342" lon="-1.30154">
        <ele>3.5</ele>
        <time>2021-06-17T11:35:59.000Z</time>
      </trkpt>
      <trkpt lat="46.31341" lon="-1.30154">
        <ele>3.5</ele>
        <time>2021-06-17T11:36:00.000Z</time>
      </trkpt>
      <trkpt lat="46.3134" lon="-1.30153">
        <ele>3.5</ele>
        <time>2021-06-17T11:36:01.000Z</time>
      </trkpt>
      <trkpt lat="46.31338" lon="-1.30153">
        <ele>3.5</ele>
        <time>2021-06-17T11:36:02.000Z</time>
      </trkpt>
      <trkpt lat="46.31337" lon="-1.30153">
        <ele>3.5</ele>
        <time>2021-06-17T11:36:03.000Z</time>
      </trkpt>
      <trkpt lat="46.31336" lon="-1.30152">
        <ele>3.4</ele>
        <time>2021-06-17T11:36:04.000Z</time>
      </trkpt>
      <trkpt lat="46.31335" lon="-1.30152">
        <ele>3.4</ele>
        <time>2021-06-17T11:36:05.000Z</time>
      </trkpt>
      <trkpt lat="46.31334" lon="-1.30151">
        <ele>3.4</ele>
        <time>2021-06-17T11:36:06.000Z</time>
      </trkpt>
      <trkpt lat="46.31332" lon="-1.30151">
        <ele>3.4</ele>
        <time>2021-06-17T11:36:07.000Z</time>
      </trkpt>
      <trkpt lat="46.31331" lon="-1.3015">
        <ele>3.4</ele>
        <time>2021-06-17T11:36:08.000Z</time>
      </trkpt>
      <trkpt lat="46.3133" lon="-1.3015">
        <ele>3.4</ele>
        <time>2021-06-17T11:36:09.000Z</time>
      </trkpt>
      <trkpt lat="46.31329" lon="-1.30149">
        <ele>3.4</ele>
        <time>2021-06-17T11:36:10.000Z</time>
      </trkpt>
      <trkpt lat="46.31328" lon="-1.30149">
        <ele>3.4</ele>
        <time>2021-06-17T11:36:11.000Z</time>
      </trkpt>
      <trkpt lat="46.31326" lon="-1.30148">
        <ele>3.4</ele>
        <time>2021-06-17T11:36:12.000Z</time>
      </trkpt>
      <trkpt lat="46.31325" lon="-1.30147">
        <ele>3.4</ele>
        <time>2021-06-17T11:36:13.000Z</time>
      </trkpt>
      <trkpt lat="46.31324" lon="-1.30147">
        <ele>3.4</ele>
        <time>2021-06-17T11:36:14.000Z</time>
      </trkpt>
      <trkpt lat="46.31323" lon="-1.30146">
        <ele>3.4</ele>
        <time>2021-06-17T11:36:15.000Z</time>
      </trkpt>
      <trkpt lat="46.31322" lon="-1.30146">
        <ele>3.4</ele>
        <time>2021-06-17T11:36:16.000Z</time>
      </trkpt>
      <trkpt lat="46.3132" lon="-1.30145">
        <ele>3.4</ele>
        <time>2021-06-17T11:36:17.000Z</time>
      </trkpt>
      <trkpt lat="46.31319" lon="-1.30145">
        <ele>3.4</ele>
        <time>2021-06-17T11:36:18.000Z</time>
      </trkpt>
      <trkpt lat="46.31318" lon="-1.30144">
        <ele>3.4</ele>
        <time>2021-06-17T11:36:19.000Z</time>
      </trkpt>
      <trkpt lat="46.31317" lon="-1.30144">
        <ele>3.4</ele>
        <time>2021-06-17T11:36:20.000Z</time>
      </trkpt>
      <trkpt lat="46.31316" lon="-1.30143">
        <ele>3.4</ele>
        <time>2021-06-17T11:36:21.000Z</time>
      </trkpt>
      <trkpt lat="46.31315" lon="-1.30142">
        <ele>3.4</ele>
        <time>2021-06-17T11:36:22.000Z</time>
      </trkpt>
      <trkpt lat="46.31314" lon="-1.30142">
        <ele>3.4</ele>
        <time>2021-06-17T11:36:23.000Z</time>
      </trkpt>
      <trkpt lat="46.31313" lon="-1.30141">
        <ele>3.4</ele>
        <time>2021-06-17T11:36:24.000Z</time>
      </trkpt>
      <trkpt lat="46.31311" lon="-1.30141">
        <ele>3.4</ele>
        <time>2021-06-17T11:36:25.000Z</time>
      </trkpt>
      <trkpt lat="46.3131" lon="-1.3014">
        <ele>3.4</ele>
        <time>2021-06-17T11:36:26.000Z</time>
      </trkpt>
      <trkpt lat="46.31309" lon="-1.30139">
        <ele>3.4</ele>
        <time>2021-06-17T11:36:27.000Z</time>
      </trkpt>
      <trkpt lat="46.31308" lon="-1.30139">
        <ele>3.4</ele>
        <time>2021-06-17T11:36:28.000Z</time>
      </trkpt>
      <trkpt lat="46.31307" lon="-1.30138">
        <ele>3.4</ele>
        <time>2021-06-17T11:36:29.000Z</time>
      </trkpt>
      <trkpt lat="46.31306" lon="-1.30138">
        <ele>3.4</ele>
        <time>2021-06-17T11:36:30.000Z</time>
      </trkpt>
      <trkpt lat="46.31304" lon="-1.30137">
        <ele>3.4</ele>
        <time>2021-06-17T11:36:31.000Z</time>
      </trkpt>
      <trkpt lat="46.31303" lon="-1.30137">
        <ele>3.4</ele>
        <time>2021-06-17T11:36:32.000Z</time>
      </trkpt>
      <trkpt lat="46.31302" lon="-1.30136">
        <ele>3.4</ele>
        <time>2021-06-17T11:36:33.000Z</time>
      </trkpt>
      <trkpt lat="46.31301" lon="-1.30135">
        <ele>3.4</ele>
        <time>2021-06-17T11:36:34.000Z</time>
      </trkpt>
      <trkpt lat="46.31299" lon="-1.30135">
        <ele>3.4</ele>
        <time>2021-06-17T11:36:35.000Z</time>
      </trkpt>
      <trkpt lat="46.31298" lon="-1.30134">
        <ele>3.4</ele>
        <time>2021-06-17T11:36:36.000Z</time>
      </trkpt>
      <trkpt lat="46.31297" lon="-1.30134">
        <ele>3.4</ele>
        <time>2021-06-17T11:36:37.000Z</time>
      </trkpt>
      <trkpt lat="46.31296" lon="-1.30133">
        <ele>3.4</ele>
        <time>2021-06-17T11:36:38.000Z</time>
      </trkpt>
      <trkpt lat="46.31294" lon="-1.30133">
        <ele>3.4</ele>
        <time>2021-06-17T11:36:39.000Z</time>
      </trkpt>
      <trkpt lat="46.31293" lon="-1.30132">
        <ele>3.4</ele>
        <time>2021-06-17T11:36:40.000Z</time>
      </trkpt>
      <trkpt lat="46.31292" lon="-1.30132">
        <ele>3.4</ele>
        <time>2021-06-17T11:36:41.000Z</time>
      </trkpt>
      <trkpt lat="46.31291" lon="-1.30131">
        <ele>3.5</ele>
        <time>2021-06-17T11:36:42.000Z</time>
      </trkpt>
      <trkpt lat="46.31289" lon="-1.30131">
        <ele>3.5</ele>
        <time>2021-06-17T11:36:43.000Z</time>
      </trkpt>
      <trkpt lat="46.31288" lon="-1.3013">
        <ele>3.5</ele>
        <time>2021-06-17T11:36:44.000Z</time>
      </trkpt>
      <trkpt lat="46.31287" lon="-1.3013">
        <ele>3.5</ele>
        <time>2021-06-17T11:36:45.000Z</time>
      </trkpt>
      <trkpt lat="46.31286" lon="-1.30129">
        <ele>3.5</ele>
        <time>2021-06-17T11:36:46.000Z</time>
      </trkpt>
      <trkpt lat="46.31285" lon="-1.30128">
        <ele>3.5</ele>
        <time>2021-06-17T11:36:47.000Z</time>
      </trkpt>
      <trkpt lat="46.31283" lon="-1.30128">
        <ele>3.5</ele>
        <time>2021-06-17T11:36:48.000Z</time>
      </trkpt>
      <trkpt lat="46.31282" lon="-1.30127">
        <ele>3.5</ele>
        <time>2021-06-17T11:36:49.000Z</time>
      </trkpt>
      <trkpt lat="46.31281" lon="-1.30127">
        <ele>3.5</ele>
        <time>2021-06-17T11:36:50.000Z</time>
      </trkpt>
      <trkpt lat="46.3128" lon="-1.30126">
        <ele>3.5</ele>
        <time>2021-06-17T11:36:51.000Z</time>
      </trkpt>
      <trkpt lat="46.31279" lon="-1.30126">
        <ele>3.5</ele>
        <time>2021-06-17T11:36:52.000Z</time>
      </trkpt>
      <trkpt lat="46.31278" lon="-1.30125">
        <ele>3.5</ele>
        <time>2021-06-17T11:36:53.000Z</time>
      </trkpt>
      <trkpt lat="46.31277" lon="-1.30124">
        <ele>3.5</ele>
        <time>2021-06-17T11:36:54.000Z</time>
      </trkpt>
      <trkpt lat="46.31275" lon="-1.30124">
        <ele>3.5</ele>
        <time>2021-06-17T11:36:55.000Z</time>
      </trkpt>
      <trkpt lat="46.31274" lon="-1.30123">
        <ele>3.5</ele>
        <time>2021-06-17T11:36:56.000Z</time>
      </trkpt>
      <trkpt lat="46.31273" lon="-1.30123">
        <ele>3.5</ele>
        <time>2021-06-17T11:36:57.000Z</time>
      </trkpt>
      <trkpt lat="46.31272" lon="-1.30122">
        <ele>3.5</ele>
        <time>2021-06-17T11:36:58.000Z</time>
      </trkpt>
      <trkpt lat="46.31271" lon="-1.30122">
        <ele>3.5</ele>
        <time>2021-06-17T11:36:59.000Z</time>
      </trkpt>
      <trkpt lat="46.3127" lon="-1.30121">
        <ele>3.5</ele>
        <time>2021-06-17T11:37:00.000Z</time>
      </trkpt>
      <trkpt lat="46.31268" lon="-1.3012">
        <ele>3.5</ele>
        <time>2021-06-17T11:37:01.000Z</time>
      </trkpt>
      <trkpt lat="46.31267" lon="-1.3012">
        <ele>3.6</ele>
        <time>2021-06-17T11:37:02.000Z</time>
      </trkpt>
      <trkpt lat="46.31266" lon="-1.30119">
        <ele>3.6</ele>
        <time>2021-06-17T11:37:03.000Z</time>
      </trkpt>
      <trkpt lat="46.31265" lon="-1.30119">
        <ele>3.6</ele>
        <time>2021-06-17T11:37:04.000Z</time>
      </trkpt>
      <trkpt lat="46.31264" lon="-1.30118">
        <ele>3.6</ele>
        <time>2021-06-17T11:37:05.000Z</time>
      </trkpt>
      <trkpt lat="46.31262" lon="-1.30117">
        <ele>3.6</ele>
        <time>2021-06-17T11:37:06.000Z</time>
      </trkpt>
      <trkpt lat="46.31261" lon="-1.30117">
        <ele>3.6</ele>
        <time>2021-06-17T11:37:07.000Z</time>
      </trkpt>
      <trkpt lat="46.3126" lon="-1.30116">
        <ele>3.6</ele>
        <time>2021-06-17T11:37:08.000Z</time>
      </trkpt>
      <trkpt lat="46.31259" lon="-1.30115">
        <ele>3.6</ele>
        <time>2021-06-17T11:37:09.000Z</time>
      </trkpt>
      <trkpt lat="46.31258" lon="-1.30115">
        <ele>3.6</ele>
        <time>2021-06-17T11:37:10.000Z</time>
      </trkpt>
      <trkpt lat="46.31256" lon="-1.30114">
        <ele>3.6</ele>
        <time>2021-06-17T11:37:11.000Z</time>
      </trkpt>
      <trkpt lat="46.31255" lon="-1.30114">
        <ele>3.6</ele>
        <time>2021-06-17T11:37:12.000Z</time>
      </trkpt>
      <trkpt lat="46.31254" lon="-1.30113">
        <ele>3.6</ele>
        <time>2021-06-17T11:37:13.000Z</time>
      </trkpt>
      <trkpt lat="46.31253" lon="-1.30113">
        <ele>3.6</ele>
        <time>2021-06-17T11:37:14.000Z</time>
      </trkpt>
      <trkpt lat="46.31252" lon="-1.30112">
        <ele>3.7</ele>
        <time>2021-06-17T11:37:15.000Z</time>
      </trkpt>
      <trkpt lat="46.3125" lon="-1.30111">
        <ele>3.7</ele>
        <time>2021-06-17T11:37:16.000Z</time>
      </trkpt>
      <trkpt lat="46.31249" lon="-1.30111">
        <ele>3.7</ele>
        <time>2021-06-17T11:37:17.000Z</time>
      </trkpt>
      <trkpt lat="46.31248" lon="-1.3011">
        <ele>3.7</ele>
        <time>2021-06-17T11:37:18.000Z</time>
      </trkpt>
      <trkpt lat="46.31247" lon="-1.3011">
        <ele>3.7</ele>
        <time>2021-06-17T11:37:19.000Z</time>
      </trkpt>
      <trkpt lat="46.31246" lon="-1.30109">
        <ele>3.7</ele>
        <time>2021-06-17T11:37:20.000Z</time>
      </trkpt>
      <trkpt lat="46.31245" lon="-1.30109">
        <ele>3.7</ele>
        <time>2021-06-17T11:37:21.000Z</time>
      </trkpt>
      <trkpt lat="46.31244" lon="-1.30108">
        <ele>3.8</ele>
        <time>2021-06-17T11:37:22.000Z</time>
      </trkpt>
      <trkpt lat="46.31242" lon="-1.30107">
        <ele>3.8</ele>
        <time>2021-06-17T11:37:23.000Z</time>
      </trkpt>
      <trkpt lat="46.31241" lon="-1.30107">
        <ele>3.8</ele>
        <time>2021-06-17T11:37:24.000Z</time>
      </trkpt>
      <trkpt lat="46.3124" lon="-1.30106">
        <ele>3.8</ele>
        <time>2021-06-17T11:37:25.000Z</time>
      </trkpt>
      <trkpt lat="46.31239" lon="-1.30106">
        <ele>3.8</ele>
        <time>2021-06-17T11:37:26.000Z</time>
      </trkpt>
      <trkpt lat="46.31238" lon="-1.30105">
        <ele>3.8</ele>
        <time>2021-06-17T11:37:27.000Z</time>
      </trkpt>
      <trkpt lat="46.31237" lon="-1.30104">
        <ele>3.9</ele>
        <time>2021-06-17T11:37:28.000Z</time>
      </trkpt>
      <trkpt lat="46.31236" lon="-1.30104">
        <ele>3.9</ele>
        <time>2021-06-17T11:37:29.000Z</time>
      </trkpt>
      <trkpt lat="46.31235" lon="-1.30103">
        <ele>3.9</ele>
        <time>2021-06-17T11:37:30.000Z</time>
      </trkpt>
      <trkpt lat="46.31234" lon="-1.30102">
        <ele>3.9</ele>
        <time>2021-06-17T11:37:31.000Z</time>
      </trkpt>
      <trkpt lat="46.31232" lon="-1.30102">
        <ele>3.9</ele>
        <time>2021-06-17T11:37:32.000Z</time>
      </trkpt>
      <trkpt lat="46.31231" lon="-1.30101">
        <ele>4</ele>
        <time>2021-06-17T11:37:33.000Z</time>
      </trkpt>
      <trkpt lat="46.3123" lon="-1.301">
        <ele>4</ele>
        <time>2021-06-17T11:37:34.000Z</time>
      </trkpt>
      <trkpt lat="46.31229" lon="-1.301">
        <ele>4</ele>
        <time>2021-06-17T11:37:35.000Z</time>
      </trkpt>
      <trkpt lat="46.31228" lon="-1.30099">
        <ele>4</ele>
        <time>2021-06-17T11:37:36.000Z</time>
      </trkpt>
      <trkpt lat="46.31227" lon="-1.30098">
        <ele>4</ele>
        <time>2021-06-17T11:37:37.000Z</time>
      </trkpt>
      <trkpt lat="46.31226" lon="-1.30097">
        <ele>4.1</ele>
        <time>2021-06-17T11:37:38.000Z</time>
      </trkpt>
      <trkpt lat="46.31225" lon="-1.30097">
        <ele>4.1</ele>
        <time>2021-06-17T11:37:39.000Z</time>
      </trkpt>
      <trkpt lat="46.31224" lon="-1.30096">
        <ele>4.1</ele>
        <time>2021-06-17T11:37:40.000Z</time>
      </trkpt>
      <trkpt lat="46.31223" lon="-1.30095">
        <ele>4.1</ele>
        <time>2021-06-17T11:37:41.000Z</time>
      </trkpt>
      <trkpt lat="46.31222" lon="-1.30094">
        <ele>4.2</ele>
        <time>2021-06-17T11:37:42.000Z</time>
      </trkpt>
      <trkpt lat="46.3122" lon="-1.30093">
        <ele>4.2</ele>
        <time>2021-06-17T11:37:43.000Z</time>
      </trkpt>
      <trkpt lat="46.31219" lon="-1.30092">
        <ele>4.2</ele>
        <time>2021-06-17T11:37:44.000Z</time>
      </trkpt>
      <trkpt lat="46.31218" lon="-1.30091">
        <ele>4.2</ele>
        <time>2021-06-17T11:37:45.000Z</time>
      </trkpt>
      <trkpt lat="46.31217" lon="-1.3009">
        <ele>4.3</ele>
        <time>2021-06-17T11:37:46.000Z</time>
      </trkpt>
      <trkpt lat="46.31216" lon="-1.3009">
        <ele>4.3</ele>
        <time>2021-06-17T11:37:47.000Z</time>
      </trkpt>
      <trkpt lat="46.31215" lon="-1.30089">
        <ele>4.3</ele>
        <time>2021-06-17T11:37:48.000Z</time>
      </trkpt>
      <trkpt lat="46.31214" lon="-1.30088">
        <ele>4.3</ele>
        <time>2021-06-17T11:37:49.000Z</time>
      </trkpt>
      <trkpt lat="46.31213" lon="-1.30087">
        <ele>4.4</ele>
        <time>2021-06-17T11:37:50.000Z</time>
      </trkpt>
      <trkpt lat="46.31212" lon="-1.30086">
        <ele>4.4</ele>
        <time>2021-06-17T11:37:51.000Z</time>
      </trkpt>
      <trkpt lat="46.31211" lon="-1.30084">
        <ele>4.4</ele>
        <time>2021-06-17T11:37:52.000Z</time>
      </trkpt>
      <trkpt lat="46.3121" lon="-1.30083">
        <ele>4.5</ele>
        <time>2021-06-17T11:37:53.000Z</time>
      </trkpt>
      <trkpt lat="46.31209" lon="-1.30082">
        <ele>4.5</ele>
        <time>2021-06-17T11:37:54.000Z</time>
      </trkpt>
      <trkpt lat="46.31208" lon="-1.30081">
        <ele>4.5</ele>
        <time>2021-06-17T11:37:55.000Z</time>
      </trkpt>
      <trkpt lat="46.31207" lon="-1.3008">
        <ele>4.5</ele>
        <time>2021-06-17T11:37:56.000Z</time>
      </trkpt>
      <trkpt lat="46.31206" lon="-1.30079">
        <ele>4.5</ele>
        <time>2021-06-17T11:37:57.000Z</time>
      </trkpt>
      <trkpt lat="46.31205" lon="-1.30078">
        <ele>4.5</ele>
        <time>2021-06-17T11:37:58.000Z</time>
      </trkpt>
      <trkpt lat="46.31204" lon="-1.30077">
        <ele>4.5</ele>
        <time>2021-06-17T11:37:59.000Z</time>
      </trkpt>
      <trkpt lat="46.31203" lon="-1.30076">
        <ele>4.5</ele>
        <time>2021-06-17T11:38:00.000Z</time>
      </trkpt>
      <trkpt lat="46.31202" lon="-1.30075">
        <ele>4.5</ele>
        <time>2021-06-17T11:38:01.000Z</time>
      </trkpt>
      <trkpt lat="46.31201" lon="-1.30074">
        <ele>4.5</ele>
        <time>2021-06-17T11:38:02.000Z</time>
      </trkpt>
      <trkpt lat="46.312" lon="-1.30073">
        <ele>4.5</ele>
        <time>2021-06-17T11:38:03.000Z</time>
      </trkpt>
      <trkpt lat="46.31199" lon="-1.30072">
        <ele>4.5</ele>
        <time>2021-06-17T11:38:04.000Z</time>
      </trkpt>
      <trkpt lat="46.31198" lon="-1.30071">
        <ele>4.5</ele>
        <time>2021-06-17T11:38:05.000Z</time>
      </trkpt>
      <trkpt lat="46.31197" lon="-1.3007">
        <ele>4.5</ele>
        <time>2021-06-17T11:38:06.000Z</time>
      </trkpt>
      <trkpt lat="46.31196" lon="-1.30069">
        <ele>4.5</ele>
        <time>2021-06-17T11:38:07.000Z</time>
      </trkpt>
      <trkpt lat="46.31195" lon="-1.30068">
        <ele>4.5</ele>
        <time>2021-06-17T11:38:08.000Z</time>
      </trkpt>
      <trkpt lat="46.31194" lon="-1.30067">
        <ele>4.5</ele>
        <time>2021-06-17T11:38:09.000Z</time>
      </trkpt>
      <trkpt lat="46.31194" lon="-1.30066">
        <ele>4.5</ele>
        <time>2021-06-17T11:38:10.000Z</time>
      </trkpt>
      <trkpt lat="46.31193" lon="-1.30066">
        <ele>4.5</ele>
        <time>2021-06-17T11:38:11.000Z</time>
      </trkpt>
      <trkpt lat="46.31192" lon="-1.30065">
        <ele>4.5</ele>
        <time>2021-06-17T11:38:12.000Z</time>
      </trkpt>
      <trkpt lat="46.31191" lon="-1.30064">
        <ele>4.5</ele>
        <time>2021-06-17T11:38:13.000Z</time>
      </trkpt>
      <trkpt lat="46.3119" lon="-1.30063">
        <ele>4.5</ele>
        <time>2021-06-17T11:38:14.000Z</time>
      </trkpt>
      <trkpt lat="46.31189" lon="-1.30062">
        <ele>4.5</ele>
        <time>2021-06-17T11:38:15.000Z</time>
      </trkpt>
      <trkpt lat="46.31188" lon="-1.30061">
        <ele>4.5</ele>
        <time>2021-06-17T11:38:16.000Z</time>
      </trkpt>
      <trkpt lat="46.31188" lon="-1.3006">
        <ele>4.5</ele>
        <time>2021-06-17T11:38:17.000Z</time>
      </trkpt>
      <trkpt lat="46.31187" lon="-1.30058">
        <ele>4.5</ele>
        <time>2021-06-17T11:38:18.000Z</time>
      </trkpt>
      <trkpt lat="46.31186" lon="-1.30057">
        <ele>4.4</ele>
        <time>2021-06-17T11:38:19.000Z</time>
      </trkpt>
      <trkpt lat="46.31185" lon="-1.30056">
        <ele>4.4</ele>
        <time>2021-06-17T11:38:20.000Z</time>
      </trkpt>
      <trkpt lat="46.31184" lon="-1.30055">
        <ele>4.4</ele>
        <time>2021-06-17T11:38:21.000Z</time>
      </trkpt>
      <trkpt lat="46.31183" lon="-1.30054">
        <ele>4.4</ele>
        <time>2021-06-17T11:38:22.000Z</time>
      </trkpt>
      <trkpt lat="46.31182" lon="-1.30053">
        <ele>4.4</ele>
        <time>2021-06-17T11:38:23.000Z</time>
      </trkpt>
      <trkpt lat="46.31182" lon="-1.30052">
        <ele>4.4</ele>
        <time>2021-06-17T11:38:24.000Z</time>
      </trkpt>
      <trkpt lat="46.31181" lon="-1.30051">
        <ele>4.4</ele>
        <time>2021-06-17T11:38:25.000Z</time>
      </trkpt>
      <trkpt lat="46.31181" lon="-1.30051">
        <ele>4.4</ele>
        <time>2021-06-17T11:38:26.000Z</time>
      </trkpt>
      <trkpt lat="46.3118" lon="-1.3005">
        <ele>4.4</ele>
        <time>2021-06-17T11:38:27.000Z</time>
      </trkpt>
      <trkpt lat="46.31179" lon="-1.30049">
        <ele>4.4</ele>
        <time>2021-06-17T11:38:28.000Z</time>
      </trkpt>
      <trkpt lat="46.31178" lon="-1.30047">
        <ele>4.4</ele>
        <time>2021-06-17T11:38:29.000Z</time>
      </trkpt>
      <trkpt lat="46.31176" lon="-1.30046">
        <ele>4.4</ele>
        <time>2021-06-17T11:38:30.000Z</time>
      </trkpt>
      <trkpt lat="46.31175" lon="-1.30045">
        <ele>4.3</ele>
        <time>2021-06-17T11:38:31.000Z</time>
      </trkpt>
      <trkpt lat="46.31174" lon="-1.30043">
        <ele>4.3</ele>
        <time>2021-06-17T11:38:32.000Z</time>
      </trkpt>
      <trkpt lat="46.31173" lon="-1.30042">
        <ele>4.3</ele>
        <time>2021-06-17T11:38:33.000Z</time>
      </trkpt>
      <trkpt lat="46.31172" lon="-1.30041">
        <ele>4.3</ele>
        <time>2021-06-17T11:38:34.000Z</time>
      </trkpt>
      <trkpt lat="46.31171" lon="-1.3004">
        <ele>4.3</ele>
        <time>2021-06-17T11:38:35.000Z</time>
      </trkpt>
      <trkpt lat="46.3117" lon="-1.30038">
        <ele>4.3</ele>
        <time>2021-06-17T11:38:36.000Z</time>
      </trkpt>
      <trkpt lat="46.31169" lon="-1.30037">
        <ele>4.3</ele>
        <time>2021-06-17T11:38:37.000Z</time>
      </trkpt>
      <trkpt lat="46.31168" lon="-1.30036">
        <ele>4.3</ele>
        <time>2021-06-17T11:38:38.000Z</time>
      </trkpt>
      <trkpt lat="46.31167" lon="-1.30035">
        <ele>4.2</ele>
        <time>2021-06-17T11:38:39.000Z</time>
      </trkpt>
      <trkpt lat="46.31166" lon="-1.30034">
        <ele>4.2</ele>
        <time>2021-06-17T11:38:40.000Z</time>
      </trkpt>
      <trkpt lat="46.31165" lon="-1.30032">
        <ele>4.2</ele>
        <time>2021-06-17T11:38:41.000Z</time>
      </trkpt>
      <trkpt lat="46.31164" lon="-1.30031">
        <ele>4.2</ele>
        <time>2021-06-17T11:38:42.000Z</time>
      </trkpt>
      <trkpt lat="46.31163" lon="-1.3003">
        <ele>4.1</ele>
        <time>2021-06-17T11:38:43.000Z</time>
      </trkpt>
      <trkpt lat="46.31162" lon="-1.30029">
        <ele>4.1</ele>
        <time>2021-06-17T11:38:44.000Z</time>
      </trkpt>
      <trkpt lat="46.31161" lon="-1.30027">
        <ele>4.1</ele>
        <time>2021-06-17T11:38:45.000Z</time>
      </trkpt>
      <trkpt lat="46.3116" lon="-1.30026">
        <ele>4.1</ele>
        <time>2021-06-17T11:38:46.000Z</time>
      </trkpt>
      <trkpt lat="46.31159" lon="-1.30025">
        <ele>4.1</ele>
        <time>2021-06-17T11:38:47.000Z</time>
      </trkpt>
      <trkpt lat="46.31158" lon="-1.30024">
        <ele>4.1</ele>
        <time>2021-06-17T11:38:48.000Z</time>
      </trkpt>
      <trkpt lat="46.31157" lon="-1.30023">
        <ele>4</ele>
        <time>2021-06-17T11:38:49.000Z</time>
      </trkpt>
      <trkpt lat="46.31156" lon="-1.30022">
        <ele>4</ele>
        <time>2021-06-17T11:38:50.000Z</time>
      </trkpt>
      <trkpt lat="46.31155" lon="-1.3002">
        <ele>4</ele>
        <time>2021-06-17T11:38:51.000Z</time>
      </trkpt>
      <trkpt lat="46.31154" lon="-1.30019">
        <ele>4</ele>
        <time>2021-06-17T11:38:52.000Z</time>
      </trkpt>
      <trkpt lat="46.31153" lon="-1.30018">
        <ele>4</ele>
        <time>2021-06-17T11:38:53.000Z</time>
      </trkpt>
      <trkpt lat="46.31152" lon="-1.30017">
        <ele>4</ele>
        <time>2021-06-17T11:38:54.000Z</time>
      </trkpt>
      <trkpt lat="46.31151" lon="-1.30016">
        <ele>4</ele>
        <time>2021-06-17T11:38:55.000Z</time>
      </trkpt>
      <trkpt lat="46.3115" lon="-1.30015">
        <ele>4</ele>
        <time>2021-06-17T11:38:56.000Z</time>
      </trkpt>
      <trkpt lat="46.31149" lon="-1.30014">
        <ele>4</ele>
        <time>2021-06-17T11:38:57.000Z</time>
      </trkpt>
      <trkpt lat="46.31148" lon="-1.30013">
        <ele>4</ele>
        <time>2021-06-17T11:38:58.000Z</time>
      </trkpt>
      <trkpt lat="46.31147" lon="-1.30012">
        <ele>4</ele>
        <time>2021-06-17T11:38:59.000Z</time>
      </trkpt>
      <trkpt lat="46.31146" lon="-1.30011">
        <ele>4</ele>
        <time>2021-06-17T11:39:00.000Z</time>
      </trkpt>
      <trkpt lat="46.31145" lon="-1.3001">
        <ele>4</ele>
        <time>2021-06-17T11:39:01.000Z</time>
      </trkpt>
      <trkpt lat="46.31144" lon="-1.30009">
        <ele>4</ele>
        <time>2021-06-17T11:39:02.000Z</time>
      </trkpt>
      <trkpt lat="46.31143" lon="-1.30008">
        <ele>4</ele>
        <time>2021-06-17T11:39:03.000Z</time>
      </trkpt>
      <trkpt lat="46.31142" lon="-1.30007">
        <ele>4</ele>
        <time>2021-06-17T11:39:04.000Z</time>
      </trkpt>
      <trkpt lat="46.31141" lon="-1.30006">
        <ele>4.1</ele>
        <time>2021-06-17T11:39:05.000Z</time>
      </trkpt>
      <trkpt lat="46.3114" lon="-1.30005">
        <ele>4.1</ele>
        <time>2021-06-17T11:39:06.000Z</time>
      </trkpt>
      <trkpt lat="46.31139" lon="-1.30004">
        <ele>4.1</ele>
        <time>2021-06-17T11:39:07.000Z</time>
      </trkpt>
      <trkpt lat="46.31138" lon="-1.30003">
        <ele>4.1</ele>
        <time>2021-06-17T11:39:08.000Z</time>
      </trkpt>
      <trkpt lat="46.31137" lon="-1.30002">
        <ele>4.1</ele>
        <time>2021-06-17T11:39:09.000Z</time>
      </trkpt>
      <trkpt lat="46.31136" lon="-1.30001">
        <ele>4.1</ele>
        <time>2021-06-17T11:39:10.000Z</time>
      </trkpt>
      <trkpt lat="46.31135" lon="-1.30001">
        <ele>4.2</ele>
        <time>2021-06-17T11:39:11.000Z</time>
      </trkpt>
      <trkpt lat="46.31134" lon="-1.3">
        <ele>4.2</ele>
        <time>2021-06-17T11:39:12.000Z</time>
      </trkpt>
      <trkpt lat="46.31133" lon="-1.29999">
        <ele>4.2</ele>
        <time>2021-06-17T11:39:13.000Z</time>
      </trkpt>
      <trkpt lat="46.31132" lon="-1.29998">
        <ele>4.2</ele>
        <time>2021-06-17T11:39:14.000Z</time>
      </trkpt>
      <trkpt lat="46.31131" lon="-1.29997">
        <ele>4.2</ele>
        <time>2021-06-17T11:39:15.000Z</time>
      </trkpt>
      <trkpt lat="46.3113" lon="-1.29996">
        <ele>4.2</ele>
        <time>2021-06-17T11:39:16.000Z</time>
      </trkpt>
      <trkpt lat="46.31129" lon="-1.29995">
        <ele>4.2</ele>
        <time>2021-06-17T11:39:17.000Z</time>
      </trkpt>
      <trkpt lat="46.31128" lon="-1.29994">
        <ele>4.2</ele>
        <time>2021-06-17T11:39:18.000Z</time>
      </trkpt>
      <trkpt lat="46.31127" lon="-1.29993">
        <ele>4.2</ele>
        <time>2021-06-17T11:39:19.000Z</time>
      </trkpt>
      <trkpt lat="46.31126" lon="-1.29992">
        <ele>4.2</ele>
        <time>2021-06-17T11:39:20.000Z</time>
      </trkpt>
      <trkpt lat="46.31125" lon="-1.29991">
        <ele>4.3</ele>
        <time>2021-06-17T11:39:21.000Z</time>
      </trkpt>
      <trkpt lat="46.31124" lon="-1.2999">
        <ele>4.3</ele>
        <time>2021-06-17T11:39:22.000Z</time>
      </trkpt>
      <trkpt lat="46.31122" lon="-1.29989">
        <ele>4.3</ele>
        <time>2021-06-17T11:39:23.000Z</time>
      </trkpt>
      <trkpt lat="46.31121" lon="-1.29988">
        <ele>4.3</ele>
        <time>2021-06-17T11:39:24.000Z</time>
      </trkpt>
      <trkpt lat="46.3112" lon="-1.29987">
        <ele>4.3</ele>
        <time>2021-06-17T11:39:25.000Z</time>
      </trkpt>
      <trkpt lat="46.31119" lon="-1.29986">
        <ele>4.3</ele>
        <time>2021-06-17T11:39:26.000Z</time>
      </trkpt>
      <trkpt lat="46.31118" lon="-1.29984">
        <ele>4.3</ele>
        <time>2021-06-17T11:39:27.000Z</time>
      </trkpt>
      <trkpt lat="46.31117" lon="-1.29983">
        <ele>4.3</ele>
        <time>2021-06-17T11:39:28.000Z</time>
      </trkpt>
      <trkpt lat="46.31116" lon="-1.29982">
        <ele>4.3</ele>
        <time>2021-06-17T11:39:29.000Z</time>
      </trkpt>
      <trkpt lat="46.31115" lon="-1.29981">
        <ele>4.2</ele>
        <time>2021-06-17T11:39:30.000Z</time>
      </trkpt>
      <trkpt lat="46.31114" lon="-1.2998">
        <ele>4.2</ele>
        <time>2021-06-17T11:39:31.000Z</time>
      </trkpt>
      <trkpt lat="46.31113" lon="-1.29978">
        <ele>4.2</ele>
        <time>2021-06-17T11:39:32.000Z</time>
      </trkpt>
      <trkpt lat="46.31113" lon="-1.29977">
        <ele>4.2</ele>
        <time>2021-06-17T11:39:33.000Z</time>
      </trkpt>
      <trkpt lat="46.31112" lon="-1.29976">
        <ele>4.2</ele>
        <time>2021-06-17T11:39:34.000Z</time>
      </trkpt>
      <trkpt lat="46.31111" lon="-1.29974">
        <ele>4.2</ele>
        <time>2021-06-17T11:39:35.000Z</time>
      </trkpt>
      <trkpt lat="46.3111" lon="-1.29973">
        <ele>4.2</ele>
        <time>2021-06-17T11:39:36.000Z</time>
      </trkpt>
      <trkpt lat="46.31109" lon="-1.29972">
        <ele>4.2</ele>
        <time>2021-06-17T11:39:37.000Z</time>
      </trkpt>
      <trkpt lat="46.31109" lon="-1.2997">
        <ele>4.1</ele>
        <time>2021-06-17T11:39:38.000Z</time>
      </trkpt>
      <trkpt lat="46.31108" lon="-1.29969">
        <ele>4.1</ele>
        <time>2021-06-17T11:39:39.000Z</time>
      </trkpt>
      <trkpt lat="46.31107" lon="-1.29968">
        <ele>4.1</ele>
        <time>2021-06-17T11:39:40.000Z</time>
      </trkpt>
      <trkpt lat="46.31106" lon="-1.29966">
        <ele>4.1</ele>
        <time>2021-06-17T11:39:41.000Z</time>
      </trkpt>
      <trkpt lat="46.31106" lon="-1.29965">
        <ele>4</ele>
        <time>2021-06-17T11:39:42.000Z</time>
      </trkpt>
      <trkpt lat="46.31105" lon="-1.29963">
        <ele>4</ele>
        <time>2021-06-17T11:39:43.000Z</time>
      </trkpt>
      <trkpt lat="46.31105" lon="-1.29962">
        <ele>4</ele>
        <time>2021-06-17T11:39:44.000Z</time>
      </trkpt>
      <trkpt lat="46.31104" lon="-1.2996">
        <ele>3.9</ele>
        <time>2021-06-17T11:39:45.000Z</time>
      </trkpt>
      <trkpt lat="46.31103" lon="-1.29958">
        <ele>3.9</ele>
        <time>2021-06-17T11:39:46.000Z</time>
      </trkpt>
      <trkpt lat="46.31103" lon="-1.29957">
        <ele>3.9</ele>
        <time>2021-06-17T11:39:47.000Z</time>
      </trkpt>
      <trkpt lat="46.31102" lon="-1.29955">
        <ele>3.8</ele>
        <time>2021-06-17T11:39:48.000Z</time>
      </trkpt>
      <trkpt lat="46.31102" lon="-1.29953">
        <ele>3.8</ele>
        <time>2021-06-17T11:39:49.000Z</time>
      </trkpt>
      <trkpt lat="46.31101" lon="-1.29951">
        <ele>3.7</ele>
        <time>2021-06-17T11:39:50.000Z</time>
      </trkpt>
      <trkpt lat="46.31101" lon="-1.2995">
        <ele>3.7</ele>
        <time>2021-06-17T11:39:51.000Z</time>
      </trkpt>
      <trkpt lat="46.311" lon="-1.29948">
        <ele>3.6</ele>
        <time>2021-06-17T11:39:52.000Z</time>
      </trkpt>
      <trkpt lat="46.311" lon="-1.29946">
        <ele>3.6</ele>
        <time>2021-06-17T11:39:53.000Z</time>
      </trkpt>
      <trkpt lat="46.31099" lon="-1.29945">
        <ele>3.6</ele>
        <time>2021-06-17T11:39:54.000Z</time>
      </trkpt>
      <trkpt lat="46.31099" lon="-1.29943">
        <ele>3.5</ele>
        <time>2021-06-17T11:39:55.000Z</time>
      </trkpt>
      <trkpt lat="46.31098" lon="-1.29942">
        <ele>3.5</ele>
        <time>2021-06-17T11:39:56.000Z</time>
      </trkpt>
      <trkpt lat="46.31098" lon="-1.2994">
        <ele>3.4</ele>
        <time>2021-06-17T11:39:57.000Z</time>
      </trkpt>
      <trkpt lat="46.31098" lon="-1.29939">
        <ele>3.4</ele>
        <time>2021-06-17T11:39:58.000Z</time>
      </trkpt>
      <trkpt lat="46.31098" lon="-1.29938">
        <ele>3.4</ele>
        <time>2021-06-17T11:39:59.000Z</time>
      </trkpt>
      <trkpt lat="46.31097" lon="-1.29937">
        <ele>3.4</ele>
        <time>2021-06-17T11:40:00.000Z</time>
      </trkpt>
      <trkpt lat="46.31097" lon="-1.29937">
        <ele>3.3</ele>
        <time>2021-06-17T11:40:01.000Z</time>
      </trkpt>
      <trkpt lat="46.31097" lon="-1.29936">
        <ele>3.3</ele>
        <time>2021-06-17T11:40:02.000Z</time>
      </trkpt>
      <trkpt lat="46.31097" lon="-1.29936">
        <ele>3.3</ele>
        <time>2021-06-17T11:40:03.000Z</time>
      </trkpt>
      <trkpt lat="46.31097" lon="-1.29935">
        <ele>3.3</ele>
        <time>2021-06-17T11:40:04.000Z</time>
      </trkpt>
      <trkpt lat="46.31097" lon="-1.29935">
        <ele>3.3</ele>
        <time>2021-06-17T11:40:05.000Z</time>
      </trkpt>
      <trkpt lat="46.31097" lon="-1.29935">
        <ele>3.3</ele>
        <time>2021-06-17T11:40:06.000Z</time>
      </trkpt>
      <trkpt lat="46.31097" lon="-1.29935">
        <ele>3.3</ele>
        <time>2021-06-17T11:40:07.000Z</time>
      </trkpt>
      <trkpt lat="46.31097" lon="-1.29935">
        <ele>3.3</ele>
        <time>2021-06-17T11:40:08.000Z</time>
      </trkpt>
      <trkpt lat="46.31096" lon="-1.29935">
        <ele>3.3</ele>
        <time>2021-06-17T11:40:09.000Z</time>
      </trkpt>
      <trkpt lat="46.31096" lon="-1.29935">
        <ele>3.3</ele>
        <time>2021-06-17T11:40:10.000Z</time>
      </trkpt>
      <trkpt lat="46.31097" lon="-1.29935">
        <ele>3.3</ele>
        <time>2021-06-17T11:40:11.000Z</time>
      </trkpt>
      <trkpt lat="46.31097" lon="-1.29935">
        <ele>3.3</ele>
        <time>2021-06-17T11:40:12.000Z</time>
      </trkpt>
      <trkpt lat="46.31097" lon="-1.29935">
        <ele>3.3</ele>
        <time>2021-06-17T11:40:13.000Z</time>
      </trkpt>
      <trkpt lat="46.31097" lon="-1.29935">
        <ele>3.3</ele>
        <time>2021-06-17T11:40:14.000Z</time>
      </trkpt>
      <trkpt lat="46.31097" lon="-1.29935">
        <ele>3.3</ele>
        <time>2021-06-17T11:40:15.000Z</time>
      </trkpt>
      <trkpt lat="46.31096" lon="-1.29935">
        <ele>3.3</ele>
        <time>2021-06-17T11:40:16.000Z</time>
      </trkpt>
      <trkpt lat="46.31096" lon="-1.29935">
        <ele>3.3</ele>
        <time>2021-06-17T11:40:17.000Z</time>
      </trkpt>
      <trkpt lat="46.31096" lon="-1.29935">
        <ele>3.3</ele>
        <time>2021-06-17T11:40:18.000Z</time>
      </trkpt>
      <trkpt lat="46.31096" lon="-1.29934">
        <ele>3.3</ele>
        <time>2021-06-17T11:40:19.000Z</time>
      </trkpt>
      <trkpt lat="46.31096" lon="-1.29934">
        <ele>3.3</ele>
        <time>2021-06-17T11:40:20.000Z</time>
      </trkpt>
      <trkpt lat="46.31095" lon="-1.29933">
        <ele>3.3</ele>
        <time>2021-06-17T11:40:21.000Z</time>
      </trkpt>
      <trkpt lat="46.31095" lon="-1.29933">
        <ele>3.3</ele>
        <time>2021-06-17T11:40:22.000Z</time>
      </trkpt>
      <trkpt lat="46.31094" lon="-1.29932">
        <ele>3.3</ele>
        <time>2021-06-17T11:40:23.000Z</time>
      </trkpt>
      <trkpt lat="46.31093" lon="-1.29932">
        <ele>3.3</ele>
        <time>2021-06-17T11:40:24.000Z</time>
      </trkpt>
      <trkpt lat="46.31093" lon="-1.29931">
        <ele>3.3</ele>
        <time>2021-06-17T11:40:25.000Z</time>
      </trkpt>
      <trkpt lat="46.31093" lon="-1.29931">
        <ele>3.3</ele>
        <time>2021-06-17T11:40:26.000Z</time>
      </trkpt>
      <trkpt lat="46.31093" lon="-1.29931">
        <ele>3.3</ele>
        <time>2021-06-17T11:40:27.000Z</time>
      </trkpt>
      <trkpt lat="46.31093" lon="-1.29931">
        <ele>3.3</ele>
        <time>2021-06-17T11:40:28.000Z</time>
      </trkpt>
      <trkpt lat="46.31092" lon="-1.29931">
        <ele>3.3</ele>
        <time>2021-06-17T11:40:29.000Z</time>
      </trkpt>
      <trkpt lat="46.31092" lon="-1.2993">
        <ele>3.3</ele>
        <time>2021-06-17T11:40:30.000Z</time>
      </trkpt>
      <trkpt lat="46.31091" lon="-1.29929">
        <ele>3.2</ele>
        <time>2021-06-17T11:40:31.000Z</time>
      </trkpt>
      <trkpt lat="46.3109" lon="-1.29928">
        <ele>3.2</ele>
        <time>2021-06-17T11:40:32.000Z</time>
      </trkpt>
      <trkpt lat="46.31089" lon="-1.29926">
        <ele>3.2</ele>
        <time>2021-06-17T11:40:33.000Z</time>
      </trkpt>
      <trkpt lat="46.31087" lon="-1.29925">
        <ele>3.2</ele>
        <time>2021-06-17T11:40:34.000Z</time>
      </trkpt>
      <trkpt lat="46.31086" lon="-1.29923">
        <ele>3.2</ele>
        <time>2021-06-17T11:40:35.000Z</time>
      </trkpt>
      <trkpt lat="46.31085" lon="-1.29922">
        <ele>3.2</ele>
        <time>2021-06-17T11:40:36.000Z</time>
      </trkpt>
      <trkpt lat="46.31084" lon="-1.2992">
        <ele>3.1</ele>
        <time>2021-06-17T11:40:37.000Z</time>
      </trkpt>
      <trkpt lat="46.31082" lon="-1.29919">
        <ele>3.1</ele>
        <time>2021-06-17T11:40:38.000Z</time>
      </trkpt>
      <trkpt lat="46.31081" lon="-1.29918">
        <ele>3</ele>
        <time>2021-06-17T11:40:39.000Z</time>
      </trkpt>
      <trkpt lat="46.3108" lon="-1.29917">
        <ele>3</ele>
        <time>2021-06-17T11:40:40.000Z</time>
      </trkpt>
      <trkpt lat="46.31079" lon="-1.29916">
        <ele>3</ele>
        <time>2021-06-17T11:40:41.000Z</time>
      </trkpt>
      <trkpt lat="46.31077" lon="-1.29915">
        <ele>3</ele>
        <time>2021-06-17T11:40:42.000Z</time>
      </trkpt>
      <trkpt lat="46.31076" lon="-1.29914">
        <ele>3</ele>
        <time>2021-06-17T11:40:43.000Z</time>
      </trkpt>
      <trkpt lat="46.31075" lon="-1.29913">
        <ele>3</ele>
        <time>2021-06-17T11:40:44.000Z</time>
      </trkpt>
      <trkpt lat="46.31074" lon="-1.29912">
        <ele>3</ele>
        <time>2021-06-17T11:40:45.000Z</time>
      </trkpt>
      <trkpt lat="46.31072" lon="-1.29911">
        <ele>3</ele>
        <time>2021-06-17T11:40:46.000Z</time>
      </trkpt>
      <trkpt lat="46.31071" lon="-1.2991">
        <ele>3</ele>
        <time>2021-06-17T11:40:47.000Z</time>
      </trkpt>
      <trkpt lat="46.3107" lon="-1.29909">
        <ele>3</ele>
        <time>2021-06-17T11:40:48.000Z</time>
      </trkpt>
      <trkpt lat="46.31068" lon="-1.29908">
        <ele>3</ele>
        <time>2021-06-17T11:40:49.000Z</time>
      </trkpt>
      <trkpt lat="46.31067" lon="-1.29907">
        <ele>3</ele>
        <time>2021-06-17T11:40:50.000Z</time>
      </trkpt>
      <trkpt lat="46.31066" lon="-1.29906">
        <ele>3</ele>
        <time>2021-06-17T11:40:51.000Z</time>
      </trkpt>
      <trkpt lat="46.31064" lon="-1.29905">
        <ele>3</ele>
        <time>2021-06-17T11:40:52.000Z</time>
      </trkpt>
      <trkpt lat="46.31063" lon="-1.29905">
        <ele>3</ele>
        <time>2021-06-17T11:40:53.000Z</time>
      </trkpt>
      <trkpt lat="46.31062" lon="-1.29904">
        <ele>3</ele>
        <time>2021-06-17T11:40:54.000Z</time>
      </trkpt>
      <trkpt lat="46.31061" lon="-1.29903">
        <ele>3</ele>
        <time>2021-06-17T11:40:55.000Z</time>
      </trkpt>
      <trkpt lat="46.31059" lon="-1.29903">
        <ele>3</ele>
        <time>2021-06-17T11:40:56.000Z</time>
      </trkpt>
      <trkpt lat="46.31058" lon="-1.29902">
        <ele>3</ele>
        <time>2021-06-17T11:40:57.000Z</time>
      </trkpt>
      <trkpt lat="46.31057" lon="-1.29901">
        <ele>3</ele>
        <time>2021-06-17T11:40:58.000Z</time>
      </trkpt>
      <trkpt lat="46.31055" lon="-1.29901">
        <ele>3</ele>
        <time>2021-06-17T11:40:59.000Z</time>
      </trkpt>
      <trkpt lat="46.31054" lon="-1.299">
        <ele>3</ele>
        <time>2021-06-17T11:41:00.000Z</time>
      </trkpt>
      <trkpt lat="46.31053" lon="-1.299">
        <ele>3</ele>
        <time>2021-06-17T11:41:01.000Z</time>
      </trkpt>
      <trkpt lat="46.31051" lon="-1.29899">
        <ele>3</ele>
        <time>2021-06-17T11:41:02.000Z</time>
      </trkpt>
      <trkpt lat="46.3105" lon="-1.29899">
        <ele>3</ele>
        <time>2021-06-17T11:41:03.000Z</time>
      </trkpt>
      <trkpt lat="46.31048" lon="-1.29898">
        <ele>3</ele>
        <time>2021-06-17T11:41:04.000Z</time>
      </trkpt>
      <trkpt lat="46.31047" lon="-1.29898">
        <ele>3</ele>
        <time>2021-06-17T11:41:05.000Z</time>
      </trkpt>
      <trkpt lat="46.31046" lon="-1.29898">
        <ele>3</ele>
        <time>2021-06-17T11:41:06.000Z</time>
      </trkpt>
      <trkpt lat="46.31044" lon="-1.29897">
        <ele>3</ele>
        <time>2021-06-17T11:41:07.000Z</time>
      </trkpt>
      <trkpt lat="46.31043" lon="-1.29897">
        <ele>3</ele>
        <time>2021-06-17T11:41:08.000Z</time>
      </trkpt>
      <trkpt lat="46.31042" lon="-1.29897">
        <ele>3</ele>
        <time>2021-06-17T11:41:09.000Z</time>
      </trkpt>
      <trkpt lat="46.3104" lon="-1.29896">
        <ele>3</ele>
        <time>2021-06-17T11:41:10.000Z</time>
      </trkpt>
      <trkpt lat="46.31039" lon="-1.29896">
        <ele>3</ele>
        <time>2021-06-17T11:41:11.000Z</time>
      </trkpt>
      <trkpt lat="46.31038" lon="-1.29896">
        <ele>3</ele>
        <time>2021-06-17T11:41:12.000Z</time>
      </trkpt>
      <trkpt lat="46.31036" lon="-1.29896">
        <ele>3</ele>
        <time>2021-06-17T11:41:13.000Z</time>
      </trkpt>
      <trkpt lat="46.31035" lon="-1.29895">
        <ele>3</ele>
        <time>2021-06-17T11:41:14.000Z</time>
      </trkpt>
      <trkpt lat="46.31034" lon="-1.29895">
        <ele>3</ele>
        <time>2021-06-17T11:41:15.000Z</time>
      </trkpt>
      <trkpt lat="46.31032" lon="-1.29895">
        <ele>3</ele>
        <time>2021-06-17T11:41:16.000Z</time>
      </trkpt>
      <trkpt lat="46.31031" lon="-1.29895">
        <ele>3</ele>
        <time>2021-06-17T11:41:17.000Z</time>
      </trkpt>
      <trkpt lat="46.3103" lon="-1.29895">
        <ele>3</ele>
        <time>2021-06-17T11:41:18.000Z</time>
      </trkpt>
      <trkpt lat="46.31028" lon="-1.29894">
        <ele>3</ele>
        <time>2021-06-17T11:41:19.000Z</time>
      </trkpt>
      <trkpt lat="46.31027" lon="-1.29894">
        <ele>3</ele>
        <time>2021-06-17T11:41:20.000Z</time>
      </trkpt>
      <trkpt lat="46.31026" lon="-1.29894">
        <ele>3</ele>
        <time>2021-06-17T11:41:21.000Z</time>
      </trkpt>
      <trkpt lat="46.31025" lon="-1.29894">
        <ele>3</ele>
        <time>2021-06-17T11:41:22.000Z</time>
      </trkpt>
      <trkpt lat="46.31023" lon="-1.29893">
        <ele>3</ele>
        <time>2021-06-17T11:41:23.000Z</time>
      </trkpt>
      <trkpt lat="46.31022" lon="-1.29893">
        <ele>3</ele>
        <time>2021-06-17T11:41:24.000Z</time>
      </trkpt>
      <trkpt lat="46.31021" lon="-1.29893">
        <ele>3</ele>
        <time>2021-06-17T11:41:25.000Z</time>
      </trkpt>
      <trkpt lat="46.3102" lon="-1.29893">
        <ele>3</ele>
        <time>2021-06-17T11:41:26.000Z</time>
      </trkpt>
      <trkpt lat="46.31018" lon="-1.29892">
        <ele>3</ele>
        <time>2021-06-17T11:41:27.000Z</time>
      </trkpt>
      <trkpt lat="46.31017" lon="-1.29892">
        <ele>3</ele>
        <time>2021-06-17T11:41:28.000Z</time>
      </trkpt>
      <trkpt lat="46.31016" lon="-1.29892">
        <ele>3</ele>
        <time>2021-06-17T11:41:29.000Z</time>
      </trkpt>
      <trkpt lat="46.31015" lon="-1.29892">
        <ele>3</ele>
        <time>2021-06-17T11:41:30.000Z</time>
      </trkpt>
      <trkpt lat="46.31014" lon="-1.29891">
        <ele>3</ele>
        <time>2021-06-17T11:41:31.000Z</time>
      </trkpt>
      <trkpt lat="46.31012" lon="-1.29891">
        <ele>3</ele>
        <time>2021-06-17T11:41:32.000Z</time>
      </trkpt>
      <trkpt lat="46.31011" lon="-1.29891">
        <ele>3</ele>
        <time>2021-06-17T11:41:33.000Z</time>
      </trkpt>
      <trkpt lat="46.3101" lon="-1.2989">
        <ele>3</ele>
        <time>2021-06-17T11:41:34.000Z</time>
      </trkpt>
      <trkpt lat="46.31009" lon="-1.2989">
        <ele>3</ele>
        <time>2021-06-17T11:41:35.000Z</time>
      </trkpt>
      <trkpt lat="46.31007" lon="-1.2989">
        <ele>3</ele>
        <time>2021-06-17T11:41:36.000Z</time>
      </trkpt>
      <trkpt lat="46.31006" lon="-1.29889">
        <ele>3</ele>
        <time>2021-06-17T11:41:37.000Z</time>
      </trkpt>
      <trkpt lat="46.31005" lon="-1.29889">
        <ele>3</ele>
        <time>2021-06-17T11:41:38.000Z</time>
      </trkpt>
      <trkpt lat="46.31004" lon="-1.29889">
        <ele>3</ele>
        <time>2021-06-17T11:41:39.000Z</time>
      </trkpt>
      <trkpt lat="46.31002" lon="-1.29888">
        <ele>3</ele>
        <time>2021-06-17T11:41:40.000Z</time>
      </trkpt>
      <trkpt lat="46.31001" lon="-1.29888">
        <ele>3</ele>
        <time>2021-06-17T11:41:41.000Z</time>
      </trkpt>
      <trkpt lat="46.31" lon="-1.29888">
        <ele>2</ele>
        <time>2021-06-17T11:41:42.000Z</time>
      </trkpt>
      <trkpt lat="46.30998" lon="-1.29887">
        <ele>1.9</ele>
        <time>2021-06-17T11:41:43.000Z</time>
      </trkpt>
      <trkpt lat="46.30997" lon="-1.29887">
        <ele>1.9</ele>
        <time>2021-06-17T11:41:44.000Z</time>
      </trkpt>
      <trkpt lat="46.30996" lon="-1.29887">
        <ele>1.9</ele>
        <time>2021-06-17T11:41:45.000Z</time>
      </trkpt>
      <trkpt lat="46.30994" lon="-1.29887">
        <ele>1.9</ele>
        <time>2021-06-17T11:41:46.000Z</time>
      </trkpt>
      <trkpt lat="46.30993" lon="-1.29886">
        <ele>1.8</ele>
        <time>2021-06-17T11:41:47.000Z</time>
      </trkpt>
      <trkpt lat="46.30991" lon="-1.29886">
        <ele>1.8</ele>
        <time>2021-06-17T11:41:48.000Z</time>
      </trkpt>
      <trkpt lat="46.3099" lon="-1.29886">
        <ele>1.8</ele>
        <time>2021-06-17T11:41:49.000Z</time>
      </trkpt>
      <trkpt lat="46.30989" lon="-1.29885">
        <ele>1.8</ele>
        <time>2021-06-17T11:41:50.000Z</time>
      </trkpt>
      <trkpt lat="46.30987" lon="-1.29885">
        <ele>1.8</ele>
        <time>2021-06-17T11:41:51.000Z</time>
      </trkpt>
      <trkpt lat="46.30986" lon="-1.29885">
        <ele>1.7</ele>
        <time>2021-06-17T11:41:52.000Z</time>
      </trkpt>
      <trkpt lat="46.30985" lon="-1.29884">
        <ele>1.7</ele>
        <time>2021-06-17T11:41:53.000Z</time>
      </trkpt>
      <trkpt lat="46.30983" lon="-1.29884">
        <ele>1.7</ele>
        <time>2021-06-17T11:41:54.000Z</time>
      </trkpt>
      <trkpt lat="46.30982" lon="-1.29884">
        <ele>1.7</ele>
        <time>2021-06-17T11:41:55.000Z</time>
      </trkpt>
      <trkpt lat="46.30981" lon="-1.29883">
        <ele>1.7</ele>
        <time>2021-06-17T11:41:56.000Z</time>
      </trkpt>
      <trkpt lat="46.30979" lon="-1.29883">
        <ele>1.6</ele>
        <time>2021-06-17T11:41:57.000Z</time>
      </trkpt>
      <trkpt lat="46.30978" lon="-1.29883">
        <ele>1.6</ele>
        <time>2021-06-17T11:41:58.000Z</time>
      </trkpt>
      <trkpt lat="46.30977" lon="-1.29882">
        <ele>1.6</ele>
        <time>2021-06-17T11:41:59.000Z</time>
      </trkpt>
      <trkpt lat="46.30975" lon="-1.29882">
        <ele>1.6</ele>
        <time>2021-06-17T11:42:00.000Z</time>
      </trkpt>
      <trkpt lat="46.30974" lon="-1.29882">
        <ele>1.6</ele>
        <time>2021-06-17T11:42:01.000Z</time>
      </trkpt>
      <trkpt lat="46.30973" lon="-1.29882">
        <ele>1.5</ele>
        <time>2021-06-17T11:42:02.000Z</time>
      </trkpt>
      <trkpt lat="46.30972" lon="-1.29881">
        <ele>1.5</ele>
        <time>2021-06-17T11:42:03.000Z</time>
      </trkpt>
      <trkpt lat="46.3097" lon="-1.29881">
        <ele>1.5</ele>
        <time>2021-06-17T11:42:04.000Z</time>
      </trkpt>
      <trkpt lat="46.30969" lon="-1.29881">
        <ele>1.5</ele>
        <time>2021-06-17T11:42:05.000Z</time>
      </trkpt>
      <trkpt lat="46.30968" lon="-1.2988">
        <ele>1.5</ele>
        <time>2021-06-17T11:42:06.000Z</time>
      </trkpt>
      <trkpt lat="46.30966" lon="-1.2988">
        <ele>1.5</ele>
        <time>2021-06-17T11:42:07.000Z</time>
      </trkpt>
      <trkpt lat="46.30965" lon="-1.2988">
        <ele>1.4</ele>
        <time>2021-06-17T11:42:08.000Z</time>
      </trkpt>
      <trkpt lat="46.30964" lon="-1.2988">
        <ele>1.4</ele>
        <time>2021-06-17T11:42:09.000Z</time>
      </trkpt>
      <trkpt lat="46.30963" lon="-1.29879">
        <ele>1.4</ele>
        <time>2021-06-17T11:42:10.000Z</time>
      </trkpt>
      <trkpt lat="46.30961" lon="-1.29879">
        <ele>1.4</ele>
        <time>2021-06-17T11:42:11.000Z</time>
      </trkpt>
      <trkpt lat="46.3096" lon="-1.29879">
        <ele>1.4</ele>
        <time>2021-06-17T11:42:12.000Z</time>
      </trkpt>
      <trkpt lat="46.30959" lon="-1.29878">
        <ele>1.4</ele>
        <time>2021-06-17T11:42:13.000Z</time>
      </trkpt>
      <trkpt lat="46.30957" lon="-1.29878">
        <ele>1.3</ele>
        <time>2021-06-17T11:42:14.000Z</time>
      </trkpt>
      <trkpt lat="46.30956" lon="-1.29878">
        <ele>1.3</ele>
        <time>2021-06-17T11:42:15.000Z</time>
      </trkpt>
      <trkpt lat="46.30955" lon="-1.29877">
        <ele>1.3</ele>
        <time>2021-06-17T11:42:16.000Z</time>
      </trkpt>
      <trkpt lat="46.30954" lon="-1.29877">
        <ele>1.3</ele>
        <time>2021-06-17T11:42:17.000Z</time>
      </trkpt>
      <trkpt lat="46.30952" lon="-1.29877">
        <ele>1.3</ele>
        <time>2021-06-17T11:42:18.000Z</time>
      </trkpt>
      <trkpt lat="46.30951" lon="-1.29877">
        <ele>1.2</ele>
        <time>2021-06-17T11:42:19.000Z</time>
      </trkpt>
      <trkpt lat="46.3095" lon="-1.29876">
        <ele>1.2</ele>
        <time>2021-06-17T11:42:20.000Z</time>
      </trkpt>
      <trkpt lat="46.30948" lon="-1.29876">
        <ele>1.2</ele>
        <time>2021-06-17T11:42:21.000Z</time>
      </trkpt>
      <trkpt lat="46.30947" lon="-1.29876">
        <ele>1.2</ele>
        <time>2021-06-17T11:42:22.000Z</time>
      </trkpt>
      <trkpt lat="46.30946" lon="-1.29875">
        <ele>1.2</ele>
        <time>2021-06-17T11:42:23.000Z</time>
      </trkpt>
      <trkpt lat="46.30944" lon="-1.29875">
        <ele>1.2</ele>
        <time>2021-06-17T11:42:24.000Z</time>
      </trkpt>
      <trkpt lat="46.30943" lon="-1.29875">
        <ele>1.1</ele>
        <time>2021-06-17T11:42:25.000Z</time>
      </trkpt>
      <trkpt lat="46.30942" lon="-1.29874">
        <ele>1.1</ele>
        <time>2021-06-17T11:42:26.000Z</time>
      </trkpt>
      <trkpt lat="46.3094" lon="-1.29874">
        <ele>1.1</ele>
        <time>2021-06-17T11:42:27.000Z</time>
      </trkpt>
      <trkpt lat="46.30939" lon="-1.29874">
        <ele>1.1</ele>
        <time>2021-06-17T11:42:28.000Z</time>
      </trkpt>
      <trkpt lat="46.30938" lon="-1.29873">
        <ele>1.1</ele>
        <time>2021-06-17T11:42:29.000Z</time>
      </trkpt>
      <trkpt lat="46.30936" lon="-1.29873">
        <ele>1.1</ele>
        <time>2021-06-17T11:42:30.000Z</time>
      </trkpt>
      <trkpt lat="46.30935" lon="-1.29873">
        <ele>1</ele>
        <time>2021-06-17T11:42:31.000Z</time>
      </trkpt>
      <trkpt lat="46.30934" lon="-1.29872">
        <ele>1</ele>
        <time>2021-06-17T11:42:32.000Z</time>
      </trkpt>
      <trkpt lat="46.30932" lon="-1.29872">
        <ele>1</ele>
        <time>2021-06-17T11:42:33.000Z</time>
      </trkpt>
      <trkpt lat="46.30931" lon="-1.29872">
        <ele>1</ele>
        <time>2021-06-17T11:42:34.000Z</time>
      </trkpt>
      <trkpt lat="46.3093" lon="-1.29871">
        <ele>1</ele>
        <time>2021-06-17T11:42:35.000Z</time>
      </trkpt>
      <trkpt lat="46.30928" lon="-1.29871">
        <ele>1</ele>
        <time>2021-06-17T11:42:36.000Z</time>
      </trkpt>
      <trkpt lat="46.30927" lon="-1.29871">
        <ele>0.9</ele>
        <time>2021-06-17T11:42:37.000Z</time>
      </trkpt>
      <trkpt lat="46.30926" lon="-1.2987">
        <ele>0.9</ele>
        <time>2021-06-17T11:42:38.000Z</time>
      </trkpt>
      <trkpt lat="46.30924" lon="-1.2987">
        <ele>0.9</ele>
        <time>2021-06-17T11:42:39.000Z</time>
      </trkpt>
      <trkpt lat="46.30923" lon="-1.29869">
        <ele>0.9</ele>
        <time>2021-06-17T11:42:40.000Z</time>
      </trkpt>
      <trkpt lat="46.30922" lon="-1.29869">
        <ele>0.9</ele>
        <time>2021-06-17T11:42:41.000Z</time>
      </trkpt>
      <trkpt lat="46.3092" lon="-1.29869">
        <ele>0.9</ele>
        <time>2021-06-17T11:42:42.000Z</time>
      </trkpt>
      <trkpt lat="46.30919" lon="-1.29868">
        <ele>0.9</ele>
        <time>2021-06-17T11:42:43.000Z</time>
      </trkpt>
      <trkpt lat="46.30918" lon="-1.29868">
        <ele>0.8</ele>
        <time>2021-06-17T11:42:44.000Z</time>
      </trkpt>
      <trkpt lat="46.30916" lon="-1.29868">
        <ele>0.8</ele>
        <time>2021-06-17T11:42:45.000Z</time>
      </trkpt>
      <trkpt lat="46.30915" lon="-1.29867">
        <ele>0.9</ele>
        <time>2021-06-17T11:42:46.000Z</time>
      </trkpt>
      <trkpt lat="46.30914" lon="-1.29867">
        <ele>0.9</ele>
        <time>2021-06-17T11:42:47.000Z</time>
      </trkpt>
      <trkpt lat="46.30912" lon="-1.29866">
        <ele>0.9</ele>
        <time>2021-06-17T11:42:48.000Z</time>
      </trkpt>
      <trkpt lat="46.30911" lon="-1.29866">
        <ele>0.9</ele>
        <time>2021-06-17T11:42:49.000Z</time>
      </trkpt>
      <trkpt lat="46.3091" lon="-1.29865">
        <ele>0.9</ele>
        <time>2021-06-17T11:42:50.000Z</time>
      </trkpt>
      <trkpt lat="46.30909" lon="-1.29865">
        <ele>1</ele>
        <time>2021-06-17T11:42:51.000Z</time>
      </trkpt>
      <trkpt lat="46.30907" lon="-1.29865">
        <ele>1</ele>
        <time>2021-06-17T11:42:52.000Z</time>
      </trkpt>
      <trkpt lat="46.30906" lon="-1.29864">
        <ele>1</ele>
        <time>2021-06-17T11:42:53.000Z</time>
      </trkpt>
      <trkpt lat="46.30905" lon="-1.29864">
        <ele>1</ele>
        <time>2021-06-17T11:42:54.000Z</time>
      </trkpt>
      <trkpt lat="46.30903" lon="-1.29863">
        <ele>1</ele>
        <time>2021-06-17T11:42:55.000Z</time>
      </trkpt>
      <trkpt lat="46.30902" lon="-1.29863">
        <ele>1.1</ele>
        <time>2021-06-17T11:42:56.000Z</time>
      </trkpt>
      <trkpt lat="46.30901" lon="-1.29862">
        <ele>1.1</ele>
        <time>2021-06-17T11:42:57.000Z</time>
      </trkpt>
      <trkpt lat="46.309" lon="-1.29862">
        <ele>1.1</ele>
        <time>2021-06-17T11:42:58.000Z</time>
      </trkpt>
      <trkpt lat="46.30898" lon="-1.29862">
        <ele>1.1</ele>
        <time>2021-06-17T11:42:59.000Z</time>
      </trkpt>
      <trkpt lat="46.30897" lon="-1.29861">
        <ele>1.1</ele>
        <time>2021-06-17T11:43:00.000Z</time>
      </trkpt>
      <trkpt lat="46.30896" lon="-1.29861">
        <ele>1.2</ele>
        <time>2021-06-17T11:43:01.000Z</time>
      </trkpt>
      <trkpt lat="46.30895" lon="-1.2986">
        <ele>1.2</ele>
        <time>2021-06-17T11:43:02.000Z</time>
      </trkpt>
      <trkpt lat="46.30893" lon="-1.2986">
        <ele>1.2</ele>
        <time>2021-06-17T11:43:03.000Z</time>
      </trkpt>
      <trkpt lat="46.30892" lon="-1.2986">
        <ele>1.2</ele>
        <time>2021-06-17T11:43:04.000Z</time>
      </trkpt>
      <trkpt lat="46.30891" lon="-1.29859">
        <ele>1.2</ele>
        <time>2021-06-17T11:43:05.000Z</time>
      </trkpt>
      <trkpt lat="46.3089" lon="-1.29859">
        <ele>1.3</ele>
        <time>2021-06-17T11:43:06.000Z</time>
      </trkpt>
      <trkpt lat="46.30888" lon="-1.29859">
        <ele>1.3</ele>
        <time>2021-06-17T11:43:07.000Z</time>
      </trkpt>
      <trkpt lat="46.30887" lon="-1.29858">
        <ele>1.3</ele>
        <time>2021-06-17T11:43:08.000Z</time>
      </trkpt>
      <trkpt lat="46.30886" lon="-1.29858">
        <ele>1.3</ele>
        <time>2021-06-17T11:43:09.000Z</time>
      </trkpt>
      <trkpt lat="46.30885" lon="-1.29858">
        <ele>1.4</ele>
        <time>2021-06-17T11:43:10.000Z</time>
      </trkpt>
      <trkpt lat="46.30883" lon="-1.29858">
        <ele>1.4</ele>
        <time>2021-06-17T11:43:11.000Z</time>
      </trkpt>
      <trkpt lat="46.30882" lon="-1.29857">
        <ele>1.4</ele>
        <time>2021-06-17T11:43:12.000Z</time>
      </trkpt>
      <trkpt lat="46.30881" lon="-1.29857">
        <ele>1.4</ele>
        <time>2021-06-17T11:43:13.000Z</time>
      </trkpt>
      <trkpt lat="46.30879" lon="-1.29857">
        <ele>1.5</ele>
        <time>2021-06-17T11:43:14.000Z</time>
      </trkpt>
      <trkpt lat="46.30878" lon="-1.29857">
        <ele>1.5</ele>
        <time>2021-06-17T11:43:15.000Z</time>
      </trkpt>
      <trkpt lat="46.30877" lon="-1.29857">
        <ele>1.5</ele>
        <time>2021-06-17T11:43:16.000Z</time>
      </trkpt>
      <trkpt lat="46.30875" lon="-1.29857">
        <ele>1.5</ele>
        <time>2021-06-17T11:43:17.000Z</time>
      </trkpt>
      <trkpt lat="46.30874" lon="-1.29856">
        <ele>1.6</ele>
        <time>2021-06-17T11:43:18.000Z</time>
      </trkpt>
      <trkpt lat="46.30873" lon="-1.29856">
        <ele>1.6</ele>
        <time>2021-06-17T11:43:19.000Z</time>
      </trkpt>
      <trkpt lat="46.30872" lon="-1.29856">
        <ele>1.6</ele>
        <time>2021-06-17T11:43:20.000Z</time>
      </trkpt>
      <trkpt lat="46.30871" lon="-1.29856">
        <ele>1.6</ele>
        <time>2021-06-17T11:43:21.000Z</time>
      </trkpt>
      <trkpt lat="46.30871" lon="-1.29856">
        <ele>1.7</ele>
        <time>2021-06-17T11:43:22.000Z</time>
      </trkpt>
      <trkpt lat="46.3087" lon="-1.29856">
        <ele>1.7</ele>
        <time>2021-06-17T11:43:23.000Z</time>
      </trkpt>
      <trkpt lat="46.3087" lon="-1.29856">
        <ele>1.7</ele>
        <time>2021-06-17T11:43:24.000Z</time>
      </trkpt>
      <trkpt lat="46.3087" lon="-1.29856">
        <ele>1.7</ele>
        <time>2021-06-17T11:43:25.000Z</time>
      </trkpt>
      <trkpt lat="46.3087" lon="-1.29856">
        <ele>1.7</ele>
        <time>2021-06-17T11:43:26.000Z</time>
      </trkpt>
      <trkpt lat="46.3087" lon="-1.29856">
        <ele>1.7</ele>
        <time>2021-06-17T11:43:27.000Z</time>
      </trkpt>
      <trkpt lat="46.3087" lon="-1.29856">
        <ele>1.7</ele>
        <time>2021-06-17T11:43:28.000Z</time>
      </trkpt>
      <trkpt lat="46.3087" lon="-1.29856">
        <ele>1.7</ele>
        <time>2021-06-17T11:43:29.000Z</time>
      </trkpt>
      <trkpt lat="46.3087" lon="-1.29856">
        <ele>1.7</ele>
        <time>2021-06-17T11:43:30.000Z</time>
      </trkpt>
      <trkpt lat="46.3087" lon="-1.29856">
        <ele>1.7</ele>
        <time>2021-06-17T11:43:31.000Z</time>
      </trkpt>
      <trkpt lat="46.30869" lon="-1.29856">
        <ele>1.7</ele>
        <time>2021-06-17T11:43:32.000Z</time>
      </trkpt>
      <trkpt lat="46.30869" lon="-1.29856">
        <ele>1.7</ele>
        <time>2021-06-17T11:43:33.000Z</time>
      </trkpt>
      <trkpt lat="46.30868" lon="-1.29856">
        <ele>1.7</ele>
        <time>2021-06-17T11:43:34.000Z</time>
      </trkpt>
      <trkpt lat="46.30868" lon="-1.29856">
        <ele>1.7</ele>
        <time>2021-06-17T11:43:35.000Z</time>
      </trkpt>
      <trkpt lat="46.30867" lon="-1.29855">
        <ele>1.7</ele>
        <time>2021-06-17T11:43:36.000Z</time>
      </trkpt>
      <trkpt lat="46.30866" lon="-1.29855">
        <ele>1.7</ele>
        <time>2021-06-17T11:43:37.000Z</time>
      </trkpt>
      <trkpt lat="46.30865" lon="-1.29855">
        <ele>1.8</ele>
        <time>2021-06-17T11:43:38.000Z</time>
      </trkpt>
      <trkpt lat="46.30864" lon="-1.29855">
        <ele>1.8</ele>
        <time>2021-06-17T11:43:39.000Z</time>
      </trkpt>
      <trkpt lat="46.30863" lon="-1.29855">
        <ele>1.8</ele>
        <time>2021-06-17T11:43:40.000Z</time>
      </trkpt>
      <trkpt lat="46.30861" lon="-1.29854">
        <ele>1.8</ele>
        <time>2021-06-17T11:43:41.000Z</time>
      </trkpt>
      <trkpt lat="46.3086" lon="-1.29854">
        <ele>1.9</ele>
        <time>2021-06-17T11:43:42.000Z</time>
      </trkpt>
      <trkpt lat="46.30859" lon="-1.29854">
        <ele>1.9</ele>
        <time>2021-06-17T11:43:43.000Z</time>
      </trkpt>
      <trkpt lat="46.30857" lon="-1.29854">
        <ele>1.9</ele>
        <time>2021-06-17T11:43:44.000Z</time>
      </trkpt>
      <trkpt lat="46.30856" lon="-1.29853">
        <ele>1.9</ele>
        <time>2021-06-17T11:43:45.000Z</time>
      </trkpt>
      <trkpt lat="46.30855" lon="-1.29853">
        <ele>2</ele>
        <time>2021-06-17T11:43:46.000Z</time>
      </trkpt>
      <trkpt lat="46.30854" lon="-1.29853">
        <ele>2</ele>
        <time>2021-06-17T11:43:47.000Z</time>
      </trkpt>
      <trkpt lat="46.30852" lon="-1.29852">
        <ele>2</ele>
        <time>2021-06-17T11:43:48.000Z</time>
      </trkpt>
      <trkpt lat="46.30851" lon="-1.29852">
        <ele>2</ele>
        <time>2021-06-17T11:43:49.000Z</time>
      </trkpt>
      <trkpt lat="46.3085" lon="-1.29852">
        <ele>2</ele>
        <time>2021-06-17T11:43:50.000Z</time>
      </trkpt>
      <trkpt lat="46.30849" lon="-1.29851">
        <ele>2.1</ele>
        <time>2021-06-17T11:43:51.000Z</time>
      </trkpt>
      <trkpt lat="46.30848" lon="-1.29851">
        <ele>2.1</ele>
        <time>2021-06-17T11:43:52.000Z</time>
      </trkpt>
      <trkpt lat="46.30846" lon="-1.2985">
        <ele>2.1</ele>
        <time>2021-06-17T11:43:53.000Z</time>
      </trkpt>
      <trkpt lat="46.30845" lon="-1.2985">
        <ele>2.1</ele>
        <time>2021-06-17T11:43:54.000Z</time>
      </trkpt>
      <trkpt lat="46.30844" lon="-1.2985">
        <ele>2.1</ele>
        <time>2021-06-17T11:43:55.000Z</time>
      </trkpt>
      <trkpt lat="46.30843" lon="-1.29849">
        <ele>2.2</ele>
        <time>2021-06-17T11:43:56.000Z</time>
      </trkpt>
      <trkpt lat="46.30842" lon="-1.29849">
        <ele>2.2</ele>
        <time>2021-06-17T11:43:57.000Z</time>
      </trkpt>
      <trkpt lat="46.3084" lon="-1.29848">
        <ele>2.2</ele>
        <time>2021-06-17T11:43:58.000Z</time>
      </trkpt>
      <trkpt lat="46.30839" lon="-1.29848">
        <ele>2.2</ele>
        <time>2021-06-17T11:43:59.000Z</time>
      </trkpt>
      <trkpt lat="46.30838" lon="-1.29848">
        <ele>2.2</ele>
        <time>2021-06-17T11:44:00.000Z</time>
      </trkpt>
      <trkpt lat="46.30837" lon="-1.29847">
        <ele>2.2</ele>
        <time>2021-06-17T11:44:01.000Z</time>
      </trkpt>
      <trkpt lat="46.30836" lon="-1.29847">
        <ele>2.3</ele>
        <time>2021-06-17T11:44:02.000Z</time>
      </trkpt>
      <trkpt lat="46.30834" lon="-1.29846">
        <ele>2.3</ele>
        <time>2021-06-17T11:44:03.000Z</time>
      </trkpt>
      <trkpt lat="46.30833" lon="-1.29846">
        <ele>2.3</ele>
        <time>2021-06-17T11:44:04.000Z</time>
      </trkpt>
      <trkpt lat="46.30832" lon="-1.29845">
        <ele>2.3</ele>
        <time>2021-06-17T11:44:05.000Z</time>
      </trkpt>
      <trkpt lat="46.30831" lon="-1.29845">
        <ele>2.3</ele>
        <time>2021-06-17T11:44:06.000Z</time>
      </trkpt>
      <trkpt lat="46.30829" lon="-1.29844">
        <ele>2.3</ele>
        <time>2021-06-17T11:44:07.000Z</time>
      </trkpt>
      <trkpt lat="46.30828" lon="-1.29844">
        <ele>2.3</ele>
        <time>2021-06-17T11:44:08.000Z</time>
      </trkpt>
      <trkpt lat="46.30827" lon="-1.29843">
        <ele>2.3</ele>
        <time>2021-06-17T11:44:09.000Z</time>
      </trkpt>
      <trkpt lat="46.30826" lon="-1.29843">
        <ele>2.3</ele>
        <time>2021-06-17T11:44:10.000Z</time>
      </trkpt>
      <trkpt lat="46.30825" lon="-1.29842">
        <ele>2.3</ele>
        <time>2021-06-17T11:44:11.000Z</time>
      </trkpt>
      <trkpt lat="46.30823" lon="-1.29842">
        <ele>2.3</ele>
        <time>2021-06-17T11:44:12.000Z</time>
      </trkpt>
      <trkpt lat="46.30822" lon="-1.29841">
        <ele>2.3</ele>
        <time>2021-06-17T11:44:13.000Z</time>
      </trkpt>
      <trkpt lat="46.30821" lon="-1.29841">
        <ele>2.3</ele>
        <time>2021-06-17T11:44:14.000Z</time>
      </trkpt>
      <trkpt lat="46.3082" lon="-1.2984">
        <ele>2.3</ele>
        <time>2021-06-17T11:44:15.000Z</time>
      </trkpt>
      <trkpt lat="46.30819" lon="-1.2984">
        <ele>2.3</ele>
        <time>2021-06-17T11:44:16.000Z</time>
      </trkpt>
      <trkpt lat="46.30818" lon="-1.29839">
        <ele>2.3</ele>
        <time>2021-06-17T11:44:17.000Z</time>
      </trkpt>
      <trkpt lat="46.30817" lon="-1.29839">
        <ele>2.3</ele>
        <time>2021-06-17T11:44:18.000Z</time>
      </trkpt>
      <trkpt lat="46.30815" lon="-1.29838">
        <ele>2.3</ele>
        <time>2021-06-17T11:44:19.000Z</time>
      </trkpt>
      <trkpt lat="46.30814" lon="-1.29838">
        <ele>2.3</ele>
        <time>2021-06-17T11:44:20.000Z</time>
      </trkpt>
      <trkpt lat="46.30813" lon="-1.29837">
        <ele>2.3</ele>
        <time>2021-06-17T11:44:21.000Z</time>
      </trkpt>
      <trkpt lat="46.30812" lon="-1.29836">
        <ele>2.3</ele>
        <time>2021-06-17T11:44:22.000Z</time>
      </trkpt>
      <trkpt lat="46.30811" lon="-1.29836">
        <ele>2.3</ele>
        <time>2021-06-17T11:44:23.000Z</time>
      </trkpt>
      <trkpt lat="46.3081" lon="-1.29835">
        <ele>2.3</ele>
        <time>2021-06-17T11:44:24.000Z</time>
      </trkpt>
      <trkpt lat="46.30808" lon="-1.29835">
        <ele>2.3</ele>
        <time>2021-06-17T11:44:25.000Z</time>
      </trkpt>
      <trkpt lat="46.30807" lon="-1.29834">
        <ele>2.3</ele>
        <time>2021-06-17T11:44:26.000Z</time>
      </trkpt>
      <trkpt lat="46.30806" lon="-1.29833">
        <ele>2.3</ele>
        <time>2021-06-17T11:44:27.000Z</time>
      </trkpt>
      <trkpt lat="46.30805" lon="-1.29833">
        <ele>2.3</ele>
        <time>2021-06-17T11:44:28.000Z</time>
      </trkpt>
      <trkpt lat="46.30804" lon="-1.29832">
        <ele>2.3</ele>
        <time>2021-06-17T11:44:29.000Z</time>
      </trkpt>
      <trkpt lat="46.30803" lon="-1.29831">
        <ele>2.3</ele>
        <time>2021-06-17T11:44:30.000Z</time>
      </trkpt>
      <trkpt lat="46.30801" lon="-1.29831">
        <ele>2.3</ele>
        <time>2021-06-17T11:44:31.000Z</time>
      </trkpt>
      <trkpt lat="46.308" lon="-1.2983">
        <ele>2.3</ele>
        <time>2021-06-17T11:44:32.000Z</time>
      </trkpt>
      <trkpt lat="46.30799" lon="-1.29829">
        <ele>2.3</ele>
        <time>2021-06-17T11:44:33.000Z</time>
      </trkpt>
      <trkpt lat="46.30798" lon="-1.29829">
        <ele>2.3</ele>
        <time>2021-06-17T11:44:34.000Z</time>
      </trkpt>
      <trkpt lat="46.30797" lon="-1.29828">
        <ele>2.3</ele>
        <time>2021-06-17T11:44:35.000Z</time>
      </trkpt>
      <trkpt lat="46.30796" lon="-1.29827">
        <ele>2.3</ele>
        <time>2021-06-17T11:44:36.000Z</time>
      </trkpt>
      <trkpt lat="46.30795" lon="-1.29826">
        <ele>2.3</ele>
        <time>2021-06-17T11:44:37.000Z</time>
      </trkpt>
      <trkpt lat="46.30794" lon="-1.29825">
        <ele>2.3</ele>
        <time>2021-06-17T11:44:38.000Z</time>
      </trkpt>
      <trkpt lat="46.30793" lon="-1.29824">
        <ele>2.3</ele>
        <time>2021-06-17T11:44:39.000Z</time>
      </trkpt>
      <trkpt lat="46.30792" lon="-1.29824">
        <ele>2.3</ele>
        <time>2021-06-17T11:44:40.000Z</time>
      </trkpt>
      <trkpt lat="46.30791" lon="-1.29823">
        <ele>2.3</ele>
        <time>2021-06-17T11:44:41.000Z</time>
      </trkpt>
      <trkpt lat="46.3079" lon="-1.29822">
        <ele>2.2</ele>
        <time>2021-06-17T11:44:42.000Z</time>
      </trkpt>
      <trkpt lat="46.30789" lon="-1.29821">
        <ele>2.2</ele>
        <time>2021-06-17T11:44:43.000Z</time>
      </trkpt>
      <trkpt lat="46.30788" lon="-1.2982">
        <ele>2.2</ele>
        <time>2021-06-17T11:44:44.000Z</time>
      </trkpt>
      <trkpt lat="46.30787" lon="-1.29819">
        <ele>2.2</ele>
        <time>2021-06-17T11:44:45.000Z</time>
      </trkpt>
      <trkpt lat="46.30786" lon="-1.29818">
        <ele>2.2</ele>
        <time>2021-06-17T11:44:46.000Z</time>
      </trkpt>
      <trkpt lat="46.30785" lon="-1.29818">
        <ele>2.2</ele>
        <time>2021-06-17T11:44:47.000Z</time>
      </trkpt>
      <trkpt lat="46.30783" lon="-1.29817">
        <ele>2.2</ele>
        <time>2021-06-17T11:44:48.000Z</time>
      </trkpt>
      <trkpt lat="46.30782" lon="-1.29816">
        <ele>2.2</ele>
        <time>2021-06-17T11:44:49.000Z</time>
      </trkpt>
      <trkpt lat="46.30781" lon="-1.29815">
        <ele>2.1</ele>
        <time>2021-06-17T11:44:50.000Z</time>
      </trkpt>
      <trkpt lat="46.3078" lon="-1.29815">
        <ele>2.1</ele>
        <time>2021-06-17T11:44:51.000Z</time>
      </trkpt>
      <trkpt lat="46.30778" lon="-1.29814">
        <ele>2.1</ele>
        <time>2021-06-17T11:44:52.000Z</time>
      </trkpt>
      <trkpt lat="46.30777" lon="-1.29813">
        <ele>2.1</ele>
        <time>2021-06-17T11:44:53.000Z</time>
      </trkpt>
      <trkpt lat="46.30776" lon="-1.29812">
        <ele>2.1</ele>
        <time>2021-06-17T11:44:54.000Z</time>
      </trkpt>
      <trkpt lat="46.30775" lon="-1.29811">
        <ele>2.1</ele>
        <time>2021-06-17T11:44:55.000Z</time>
      </trkpt>
      <trkpt lat="46.30774" lon="-1.2981">
        <ele>2</ele>
        <time>2021-06-17T11:44:56.000Z</time>
      </trkpt>
      <trkpt lat="46.30773" lon="-1.29809">
        <ele>2</ele>
        <time>2021-06-17T11:44:57.000Z</time>
      </trkpt>
      <trkpt lat="46.30772" lon="-1.29808">
        <ele>2</ele>
        <time>2021-06-17T11:44:58.000Z</time>
      </trkpt>
      <trkpt lat="46.30771" lon="-1.29807">
        <ele>2</ele>
        <time>2021-06-17T11:44:59.000Z</time>
      </trkpt>
      <trkpt lat="46.3077" lon="-1.29807">
        <ele>1.9</ele>
        <time>2021-06-17T11:45:00.000Z</time>
      </trkpt>
      <trkpt lat="46.30769" lon="-1.29806">
        <ele>1.9</ele>
        <time>2021-06-17T11:45:01.000Z</time>
      </trkpt>
      <trkpt lat="46.30769" lon="-1.29805">
        <ele>1.9</ele>
        <time>2021-06-17T11:45:02.000Z</time>
      </trkpt>
      <trkpt lat="46.30768" lon="-1.29804">
        <ele>1.9</ele>
        <time>2021-06-17T11:45:03.000Z</time>
      </trkpt>
      <trkpt lat="46.30767" lon="-1.29804">
        <ele>1.9</ele>
        <time>2021-06-17T11:45:04.000Z</time>
      </trkpt>
      <trkpt lat="46.30766" lon="-1.29803">
        <ele>1.9</ele>
        <time>2021-06-17T11:45:05.000Z</time>
      </trkpt>
      <trkpt lat="46.30765" lon="-1.29803">
        <ele>1.8</ele>
        <time>2021-06-17T11:45:06.000Z</time>
      </trkpt>
      <trkpt lat="46.30764" lon="-1.29802">
        <ele>1.8</ele>
        <time>2021-06-17T11:45:07.000Z</time>
      </trkpt>
      <trkpt lat="46.30763" lon="-1.29801">
        <ele>1.8</ele>
        <time>2021-06-17T11:45:08.000Z</time>
      </trkpt>
      <trkpt lat="46.30762" lon="-1.29801">
        <ele>1.8</ele>
        <time>2021-06-17T11:45:09.000Z</time>
      </trkpt>
      <trkpt lat="46.30762" lon="-1.298">
        <ele>1.8</ele>
        <time>2021-06-17T11:45:10.000Z</time>
      </trkpt>
      <trkpt lat="46.30761" lon="-1.29799">
        <ele>1.7</ele>
        <time>2021-06-17T11:45:11.000Z</time>
      </trkpt>
      <trkpt lat="46.3076" lon="-1.29799">
        <ele>1.7</ele>
        <time>2021-06-17T11:45:12.000Z</time>
      </trkpt>
      <trkpt lat="46.30759" lon="-1.29798">
        <ele>1.7</ele>
        <time>2021-06-17T11:45:13.000Z</time>
      </trkpt>
      <trkpt lat="46.30758" lon="-1.29797">
        <ele>1.7</ele>
        <time>2021-06-17T11:45:14.000Z</time>
      </trkpt>
      <trkpt lat="46.30757" lon="-1.29797">
        <ele>1.7</ele>
        <time>2021-06-17T11:45:15.000Z</time>
      </trkpt>
      <trkpt lat="46.30756" lon="-1.29796">
        <ele>1.6</ele>
        <time>2021-06-17T11:45:16.000Z</time>
      </trkpt>
      <trkpt lat="46.30755" lon="-1.29795">
        <ele>1.6</ele>
        <time>2021-06-17T11:45:17.000Z</time>
      </trkpt>
      <trkpt lat="46.30754" lon="-1.29795">
        <ele>1.6</ele>
        <time>2021-06-17T11:45:18.000Z</time>
      </trkpt>
      <trkpt lat="46.30753" lon="-1.29794">
        <ele>1.6</ele>
        <time>2021-06-17T11:45:19.000Z</time>
      </trkpt>
      <trkpt lat="46.30752" lon="-1.29793">
        <ele>1.6</ele>
        <time>2021-06-17T11:45:20.000Z</time>
      </trkpt>
      <trkpt lat="46.30751" lon="-1.29793">
        <ele>1.5</ele>
        <time>2021-06-17T11:45:21.000Z</time>
      </trkpt>
      <trkpt lat="46.3075" lon="-1.29792">
        <ele>1.5</ele>
        <time>2021-06-17T11:45:22.000Z</time>
      </trkpt>
      <trkpt lat="46.30749" lon="-1.29792">
        <ele>1.5</ele>
        <time>2021-06-17T11:45:23.000Z</time>
      </trkpt>
      <trkpt lat="46.30747" lon="-1.29791">
        <ele>1.5</ele>
        <time>2021-06-17T11:45:24.000Z</time>
      </trkpt>
      <trkpt lat="46.30746" lon="-1.29791">
        <ele>1.5</ele>
        <time>2021-06-17T11:45:25.000Z</time>
      </trkpt>
      <trkpt lat="46.30745" lon="-1.2979">
        <ele>1.5</ele>
        <time>2021-06-17T11:45:26.000Z</time>
      </trkpt>
      <trkpt lat="46.30744" lon="-1.2979">
        <ele>1.4</ele>
        <time>2021-06-17T11:45:27.000Z</time>
      </trkpt>
      <trkpt lat="46.30743" lon="-1.2979">
        <ele>1.4</ele>
        <time>2021-06-17T11:45:28.000Z</time>
      </trkpt>
      <trkpt lat="46.30742" lon="-1.29789">
        <ele>1.4</ele>
        <time>2021-06-17T11:45:29.000Z</time>
      </trkpt>
      <trkpt lat="46.30741" lon="-1.29789">
        <ele>1.4</ele>
        <time>2021-06-17T11:45:30.000Z</time>
      </trkpt>
      <trkpt lat="46.3074" lon="-1.29789">
        <ele>1.4</ele>
        <time>2021-06-17T11:45:31.000Z</time>
      </trkpt>
      <trkpt lat="46.30739" lon="-1.29789">
        <ele>1.4</ele>
        <time>2021-06-17T11:45:32.000Z</time>
      </trkpt>
      <trkpt lat="46.30737" lon="-1.29789">
        <ele>1.4</ele>
        <time>2021-06-17T11:45:33.000Z</time>
      </trkpt>
      <trkpt lat="46.30736" lon="-1.29789">
        <ele>1.4</ele>
        <time>2021-06-17T11:45:34.000Z</time>
      </trkpt>
      <trkpt lat="46.30735" lon="-1.29789">
        <ele>1.4</ele>
        <time>2021-06-17T11:45:35.000Z</time>
      </trkpt>
      <trkpt lat="46.30734" lon="-1.29789">
        <ele>1.4</ele>
        <time>2021-06-17T11:45:36.000Z</time>
      </trkpt>
      <trkpt lat="46.30734" lon="-1.29789">
        <ele>1.4</ele>
        <time>2021-06-17T11:45:37.000Z</time>
      </trkpt>
      <trkpt lat="46.30733" lon="-1.29789">
        <ele>1.4</ele>
        <time>2021-06-17T11:45:38.000Z</time>
      </trkpt>
      <trkpt lat="46.30732" lon="-1.29789">
        <ele>1.4</ele>
        <time>2021-06-17T11:45:39.000Z</time>
      </trkpt>
      <trkpt lat="46.30731" lon="-1.2979">
        <ele>1.4</ele>
        <time>2021-06-17T11:45:40.000Z</time>
      </trkpt>
      <trkpt lat="46.3073" lon="-1.2979">
        <ele>1.4</ele>
        <time>2021-06-17T11:45:41.000Z</time>
      </trkpt>
      <trkpt lat="46.30729" lon="-1.2979">
        <ele>1.4</ele>
        <time>2021-06-17T11:45:42.000Z</time>
      </trkpt>
      <trkpt lat="46.30728" lon="-1.2979">
        <ele>1.5</ele>
        <time>2021-06-17T11:45:43.000Z</time>
      </trkpt>
      <trkpt lat="46.30727" lon="-1.29791">
        <ele>1.5</ele>
        <time>2021-06-17T11:45:44.000Z</time>
      </trkpt>
      <trkpt lat="46.30727" lon="-1.29791">
        <ele>1.5</ele>
        <time>2021-06-17T11:45:45.000Z</time>
      </trkpt>
      <trkpt lat="46.30726" lon="-1.29791">
        <ele>1.5</ele>
        <time>2021-06-17T11:45:46.000Z</time>
      </trkpt>
      <trkpt lat="46.30725" lon="-1.29792">
        <ele>1.5</ele>
        <time>2021-06-17T11:45:47.000Z</time>
      </trkpt>
      <trkpt lat="46.30724" lon="-1.29792">
        <ele>1.5</ele>
        <time>2021-06-17T11:45:48.000Z</time>
      </trkpt>
      <trkpt lat="46.30723" lon="-1.29792">
        <ele>1.5</ele>
        <time>2021-06-17T11:45:49.000Z</time>
      </trkpt>
      <trkpt lat="46.30722" lon="-1.29792">
        <ele>1.5</ele>
        <time>2021-06-17T11:45:50.000Z</time>
      </trkpt>
      <trkpt lat="46.30721" lon="-1.29793">
        <ele>1.5</ele>
        <time>2021-06-17T11:45:51.000Z</time>
      </trkpt>
      <trkpt lat="46.3072" lon="-1.29793">
        <ele>1.5</ele>
        <time>2021-06-17T11:45:52.000Z</time>
      </trkpt>
      <trkpt lat="46.30718" lon="-1.29793">
        <ele>1.5</ele>
        <time>2021-06-17T11:45:53.000Z</time>
      </trkpt>
      <trkpt lat="46.30717" lon="-1.29793">
        <ele>1.5</ele>
        <time>2021-06-17T11:45:54.000Z</time>
      </trkpt>
      <trkpt lat="46.30716" lon="-1.29793">
        <ele>1.6</ele>
        <time>2021-06-17T11:45:55.000Z</time>
      </trkpt>
      <trkpt lat="46.30715" lon="-1.29793">
        <ele>1.6</ele>
        <time>2021-06-17T11:45:56.000Z</time>
      </trkpt>
      <trkpt lat="46.30713" lon="-1.29794">
        <ele>1.6</ele>
        <time>2021-06-17T11:45:57.000Z</time>
      </trkpt>
      <trkpt lat="46.30712" lon="-1.29794">
        <ele>1.6</ele>
        <time>2021-06-17T11:45:58.000Z</time>
      </trkpt>
      <trkpt lat="46.30711" lon="-1.29794">
        <ele>1.6</ele>
        <time>2021-06-17T11:45:59.000Z</time>
      </trkpt>
      <trkpt lat="46.3071" lon="-1.29794">
        <ele>1.6</ele>
        <time>2021-06-17T11:46:00.000Z</time>
      </trkpt>
      <trkpt lat="46.30708" lon="-1.29794">
        <ele>1.6</ele>
        <time>2021-06-17T11:46:01.000Z</time>
      </trkpt>
      <trkpt lat="46.30707" lon="-1.29794">
        <ele>1.6</ele>
        <time>2021-06-17T11:46:02.000Z</time>
      </trkpt>
      <trkpt lat="46.30706" lon="-1.29794">
        <ele>1.6</ele>
        <time>2021-06-17T11:46:03.000Z</time>
      </trkpt>
      <trkpt lat="46.30704" lon="-1.29794">
        <ele>1.6</ele>
        <time>2021-06-17T11:46:04.000Z</time>
      </trkpt>
      <trkpt lat="46.30703" lon="-1.29794">
        <ele>1.6</ele>
        <time>2021-06-17T11:46:05.000Z</time>
      </trkpt>
      <trkpt lat="46.30702" lon="-1.29794">
        <ele>1.6</ele>
        <time>2021-06-17T11:46:06.000Z</time>
      </trkpt>
      <trkpt lat="46.30701" lon="-1.29794">
        <ele>1.6</ele>
        <time>2021-06-17T11:46:07.000Z</time>
      </trkpt>
      <trkpt lat="46.30699" lon="-1.29794">
        <ele>1.6</ele>
        <time>2021-06-17T11:46:08.000Z</time>
      </trkpt>
      <trkpt lat="46.30698" lon="-1.29795">
        <ele>1.6</ele>
        <time>2021-06-17T11:46:09.000Z</time>
      </trkpt>
      <trkpt lat="46.30697" lon="-1.29795">
        <ele>1.6</ele>
        <time>2021-06-17T11:46:10.000Z</time>
      </trkpt>
      <trkpt lat="46.30696" lon="-1.29795">
        <ele>1.6</ele>
        <time>2021-06-17T11:46:11.000Z</time>
      </trkpt>
      <trkpt lat="46.30695" lon="-1.29795">
        <ele>1.6</ele>
        <time>2021-06-17T11:46:12.000Z</time>
      </trkpt>
      <trkpt lat="46.30694" lon="-1.29795">
        <ele>1.6</ele>
        <time>2021-06-17T11:46:13.000Z</time>
      </trkpt>
      <trkpt lat="46.30692" lon="-1.29795">
        <ele>1.6</ele>
        <time>2021-06-17T11:46:14.000Z</time>
      </trkpt>
      <trkpt lat="46.30691" lon="-1.29795">
        <ele>1.6</ele>
        <time>2021-06-17T11:46:15.000Z</time>
      </trkpt>
      <trkpt lat="46.3069" lon="-1.29795">
        <ele>1.6</ele>
        <time>2021-06-17T11:46:16.000Z</time>
      </trkpt>
      <trkpt lat="46.30689" lon="-1.29795">
        <ele>1.6</ele>
        <time>2021-06-17T11:46:17.000Z</time>
      </trkpt>
      <trkpt lat="46.30688" lon="-1.29795">
        <ele>1.6</ele>
        <time>2021-06-17T11:46:18.000Z</time>
      </trkpt>
      <trkpt lat="46.30686" lon="-1.29795">
        <ele>1.6</ele>
        <time>2021-06-17T11:46:19.000Z</time>
      </trkpt>
      <trkpt lat="46.30685" lon="-1.29795">
        <ele>1.6</ele>
        <time>2021-06-17T11:46:20.000Z</time>
      </trkpt>
      <trkpt lat="46.30684" lon="-1.29795">
        <ele>1.6</ele>
        <time>2021-06-17T11:46:21.000Z</time>
      </trkpt>
      <trkpt lat="46.30683" lon="-1.29795">
        <ele>1.6</ele>
        <time>2021-06-17T11:46:22.000Z</time>
      </trkpt>
      <trkpt lat="46.30681" lon="-1.29795">
        <ele>1.6</ele>
        <time>2021-06-17T11:46:23.000Z</time>
      </trkpt>
      <trkpt lat="46.3068" lon="-1.29795">
        <ele>1.6</ele>
        <time>2021-06-17T11:46:24.000Z</time>
      </trkpt>
      <trkpt lat="46.30679" lon="-1.29795">
        <ele>1.6</ele>
        <time>2021-06-17T11:46:25.000Z</time>
      </trkpt>
      <trkpt lat="46.30677" lon="-1.29795">
        <ele>1.6</ele>
        <time>2021-06-17T11:46:26.000Z</time>
      </trkpt>
      <trkpt lat="46.30676" lon="-1.29795">
        <ele>1.6</ele>
        <time>2021-06-17T11:46:27.000Z</time>
      </trkpt>
      <trkpt lat="46.30675" lon="-1.29795">
        <ele>1.6</ele>
        <time>2021-06-17T11:46:28.000Z</time>
      </trkpt>
      <trkpt lat="46.30674" lon="-1.29795">
        <ele>1.6</ele>
        <time>2021-06-17T11:46:29.000Z</time>
      </trkpt>
      <trkpt lat="46.30672" lon="-1.29795">
        <ele>1.6</ele>
        <time>2021-06-17T11:46:30.000Z</time>
      </trkpt>
      <trkpt lat="46.30671" lon="-1.29795">
        <ele>1.6</ele>
        <time>2021-06-17T11:46:31.000Z</time>
      </trkpt>
      <trkpt lat="46.30669" lon="-1.29795">
        <ele>1.6</ele>
        <time>2021-06-17T11:46:32.000Z</time>
      </trkpt>
      <trkpt lat="46.30668" lon="-1.29795">
        <ele>1.6</ele>
        <time>2021-06-17T11:46:33.000Z</time>
      </trkpt>
      <trkpt lat="46.30667" lon="-1.29795">
        <ele>1.6</ele>
        <time>2021-06-17T11:46:34.000Z</time>
      </trkpt>
      <trkpt lat="46.30665" lon="-1.29795">
        <ele>1.7</ele>
        <time>2021-06-17T11:46:35.000Z</time>
      </trkpt>
      <trkpt lat="46.30664" lon="-1.29795">
        <ele>1.7</ele>
        <time>2021-06-17T11:46:36.000Z</time>
      </trkpt>
      <trkpt lat="46.30663" lon="-1.29795">
        <ele>1.7</ele>
        <time>2021-06-17T11:46:37.000Z</time>
      </trkpt>
      <trkpt lat="46.30661" lon="-1.29795">
        <ele>1.8</ele>
        <time>2021-06-17T11:46:38.000Z</time>
      </trkpt>
      <trkpt lat="46.3066" lon="-1.29795">
        <ele>1.8</ele>
        <time>2021-06-17T11:46:39.000Z</time>
      </trkpt>
      <trkpt lat="46.30659" lon="-1.29795">
        <ele>1.8</ele>
        <time>2021-06-17T11:46:40.000Z</time>
      </trkpt>
      <trkpt lat="46.30657" lon="-1.29795">
        <ele>1.8</ele>
        <time>2021-06-17T11:46:41.000Z</time>
      </trkpt>
      <trkpt lat="46.30656" lon="-1.29795">
        <ele>1.9</ele>
        <time>2021-06-17T11:46:42.000Z</time>
      </trkpt>
      <trkpt lat="46.30655" lon="-1.29795">
        <ele>1.9</ele>
        <time>2021-06-17T11:46:43.000Z</time>
      </trkpt>
      <trkpt lat="46.30654" lon="-1.29795">
        <ele>1.9</ele>
        <time>2021-06-17T11:46:44.000Z</time>
      </trkpt>
      <trkpt lat="46.30653" lon="-1.29795">
        <ele>1.9</ele>
        <time>2021-06-17T11:46:45.000Z</time>
      </trkpt>
      <trkpt lat="46.30651" lon="-1.29794">
        <ele>1.9</ele>
        <time>2021-06-17T11:46:46.000Z</time>
      </trkpt>
      <trkpt lat="46.3065" lon="-1.29794">
        <ele>2</ele>
        <time>2021-06-17T11:46:47.000Z</time>
      </trkpt>
      <trkpt lat="46.30649" lon="-1.29794">
        <ele>2</ele>
        <time>2021-06-17T11:46:48.000Z</time>
      </trkpt>
      <trkpt lat="46.30648" lon="-1.29794">
        <ele>2</ele>
        <time>2021-06-17T11:46:49.000Z</time>
      </trkpt>
      <trkpt lat="46.30647" lon="-1.29793">
        <ele>2</ele>
        <time>2021-06-17T11:46:50.000Z</time>
      </trkpt>
      <trkpt lat="46.30646" lon="-1.29793">
        <ele>2</ele>
        <time>2021-06-17T11:46:51.000Z</time>
      </trkpt>
      <trkpt lat="46.30645" lon="-1.29793">
        <ele>2.1</ele>
        <time>2021-06-17T11:46:52.000Z</time>
      </trkpt>
      <trkpt lat="46.30644" lon="-1.29792">
        <ele>2.1</ele>
        <time>2021-06-17T11:46:53.000Z</time>
      </trkpt>
      <trkpt lat="46.30643" lon="-1.29792">
        <ele>2.1</ele>
        <time>2021-06-17T11:46:54.000Z</time>
      </trkpt>
      <trkpt lat="46.30642" lon="-1.29792">
        <ele>2.1</ele>
        <time>2021-06-17T11:46:55.000Z</time>
      </trkpt>
      <trkpt lat="46.30641" lon="-1.29792">
        <ele>2.1</ele>
        <time>2021-06-17T11:46:56.000Z</time>
      </trkpt>
      <trkpt lat="46.3064" lon="-1.29792">
        <ele>2.2</ele>
        <time>2021-06-17T11:46:57.000Z</time>
      </trkpt>
      <trkpt lat="46.30638" lon="-1.29792">
        <ele>2.2</ele>
        <time>2021-06-17T11:46:58.000Z</time>
      </trkpt>
      <trkpt lat="46.30637" lon="-1.29792">
        <ele>2.2</ele>
        <time>2021-06-17T11:46:59.000Z</time>
      </trkpt>
      <trkpt lat="46.30636" lon="-1.29792">
        <ele>2.2</ele>
        <time>2021-06-17T11:47:00.000Z</time>
      </trkpt>
      <trkpt lat="46.30635" lon="-1.29792">
        <ele>2.3</ele>
        <time>2021-06-17T11:47:01.000Z</time>
      </trkpt>
      <trkpt lat="46.30634" lon="-1.29792">
        <ele>2.3</ele>
        <time>2021-06-17T11:47:02.000Z</time>
      </trkpt>
      <trkpt lat="46.30633" lon="-1.29792">
        <ele>2.3</ele>
        <time>2021-06-17T11:47:03.000Z</time>
      </trkpt>
      <trkpt lat="46.30632" lon="-1.29792">
        <ele>2.4</ele>
        <time>2021-06-17T11:47:04.000Z</time>
      </trkpt>
      <trkpt lat="46.3063" lon="-1.29792">
        <ele>2.4</ele>
        <time>2021-06-17T11:47:05.000Z</time>
      </trkpt>
      <trkpt lat="46.30629" lon="-1.29793">
        <ele>2.4</ele>
        <time>2021-06-17T11:47:06.000Z</time>
      </trkpt>
      <trkpt lat="46.30628" lon="-1.29793">
        <ele>2.5</ele>
        <time>2021-06-17T11:47:07.000Z</time>
      </trkpt>
      <trkpt lat="46.30627" lon="-1.29793">
        <ele>2.5</ele>
        <time>2021-06-17T11:47:08.000Z</time>
      </trkpt>
      <trkpt lat="46.30626" lon="-1.29793">
        <ele>2.5</ele>
        <time>2021-06-17T11:47:09.000Z</time>
      </trkpt>
      <trkpt lat="46.30625" lon="-1.29793">
        <ele>2.5</ele>
        <time>2021-06-17T11:47:10.000Z</time>
      </trkpt>
      <trkpt lat="46.30624" lon="-1.29794">
        <ele>2.6</ele>
        <time>2021-06-17T11:47:11.000Z</time>
      </trkpt>
      <trkpt lat="46.30623" lon="-1.29794">
        <ele>2.6</ele>
        <time>2021-06-17T11:47:12.000Z</time>
      </trkpt>
      <trkpt lat="46.30622" lon="-1.29794">
        <ele>2.6</ele>
        <time>2021-06-17T11:47:13.000Z</time>
      </trkpt>
      <trkpt lat="46.30621" lon="-1.29794">
        <ele>2.7</ele>
        <time>2021-06-17T11:47:14.000Z</time>
      </trkpt>
      <trkpt lat="46.3062" lon="-1.29794">
        <ele>2.7</ele>
        <time>2021-06-17T11:47:15.000Z</time>
      </trkpt>
      <trkpt lat="46.30619" lon="-1.29794">
        <ele>2.7</ele>
        <time>2021-06-17T11:47:16.000Z</time>
      </trkpt>
      <trkpt lat="46.30618" lon="-1.29794">
        <ele>2.7</ele>
        <time>2021-06-17T11:47:17.000Z</time>
      </trkpt>
      <trkpt lat="46.30617" lon="-1.29794">
        <ele>2.7</ele>
        <time>2021-06-17T11:47:18.000Z</time>
      </trkpt>
      <trkpt lat="46.30615" lon="-1.29794">
        <ele>2.8</ele>
        <time>2021-06-17T11:47:19.000Z</time>
      </trkpt>
      <trkpt lat="46.30614" lon="-1.29793">
        <ele>2.8</ele>
        <time>2021-06-17T11:47:20.000Z</time>
      </trkpt>
      <trkpt lat="46.30613" lon="-1.29793">
        <ele>2.8</ele>
        <time>2021-06-17T11:47:21.000Z</time>
      </trkpt>
      <trkpt lat="46.30612" lon="-1.29793">
        <ele>2.8</ele>
        <time>2021-06-17T11:47:22.000Z</time>
      </trkpt>
      <trkpt lat="46.3061" lon="-1.29792">
        <ele>2.9</ele>
        <time>2021-06-17T11:47:23.000Z</time>
      </trkpt>
      <trkpt lat="46.30609" lon="-1.29792">
        <ele>2.9</ele>
        <time>2021-06-17T11:47:24.000Z</time>
      </trkpt>
      <trkpt lat="46.30608" lon="-1.29792">
        <ele>2.9</ele>
        <time>2021-06-17T11:47:25.000Z</time>
      </trkpt>
      <trkpt lat="46.30608" lon="-1.29791">
        <ele>2.9</ele>
        <time>2021-06-17T11:47:26.000Z</time>
      </trkpt>
      <trkpt lat="46.30607" lon="-1.29791">
        <ele>2.9</ele>
        <time>2021-06-17T11:47:27.000Z</time>
      </trkpt>
      <trkpt lat="46.30607" lon="-1.29791">
        <ele>2.9</ele>
        <time>2021-06-17T11:47:28.000Z</time>
      </trkpt>
      <trkpt lat="46.30607" lon="-1.29791">
        <ele>2.9</ele>
        <time>2021-06-17T11:47:29.000Z</time>
      </trkpt>
      <trkpt lat="46.30607" lon="-1.29791">
        <ele>2.9</ele>
        <time>2021-06-17T11:47:30.000Z</time>
      </trkpt>
      <trkpt lat="46.30607" lon="-1.29791">
        <ele>2.9</ele>
        <time>2021-06-17T11:47:31.000Z</time>
      </trkpt>
      <trkpt lat="46.30607" lon="-1.29792">
        <ele>2.9</ele>
        <time>2021-06-17T11:47:32.000Z</time>
      </trkpt>
      <trkpt lat="46.30607" lon="-1.29792">
        <ele>2.9</ele>
        <time>2021-06-17T11:47:33.000Z</time>
      </trkpt>
      <trkpt lat="46.30607" lon="-1.29792">
        <ele>2.9</ele>
        <time>2021-06-17T11:47:34.000Z</time>
      </trkpt>
      <trkpt lat="46.30606" lon="-1.29792">
        <ele>3</ele>
        <time>2021-06-17T11:47:35.000Z</time>
      </trkpt>
      <trkpt lat="46.30605" lon="-1.29792">
        <ele>3</ele>
        <time>2021-06-17T11:47:36.000Z</time>
      </trkpt>
      <trkpt lat="46.30605" lon="-1.29792">
        <ele>3</ele>
        <time>2021-06-17T11:47:37.000Z</time>
      </trkpt>
      <trkpt lat="46.30604" lon="-1.29792">
        <ele>3</ele>
        <time>2021-06-17T11:47:38.000Z</time>
      </trkpt>
      <trkpt lat="46.30603" lon="-1.29792">
        <ele>3</ele>
        <time>2021-06-17T11:47:39.000Z</time>
      </trkpt>
      <trkpt lat="46.30602" lon="-1.29792">
        <ele>3.1</ele>
        <time>2021-06-17T11:47:40.000Z</time>
      </trkpt>
      <trkpt lat="46.30601" lon="-1.29793">
        <ele>3.1</ele>
        <time>2021-06-17T11:47:41.000Z</time>
      </trkpt>
      <trkpt lat="46.30599" lon="-1.29793">
        <ele>3.1</ele>
        <time>2021-06-17T11:47:42.000Z</time>
      </trkpt>
      <trkpt lat="46.30598" lon="-1.29793">
        <ele>3.2</ele>
        <time>2021-06-17T11:47:43.000Z</time>
      </trkpt>
      <trkpt lat="46.30597" lon="-1.29794">
        <ele>3.2</ele>
        <time>2021-06-17T11:47:44.000Z</time>
      </trkpt>
      <trkpt lat="46.30596" lon="-1.29794">
        <ele>3.2</ele>
        <time>2021-06-17T11:47:45.000Z</time>
      </trkpt>
      <trkpt lat="46.30595" lon="-1.29794">
        <ele>3.3</ele>
        <time>2021-06-17T11:47:46.000Z</time>
      </trkpt>
      <trkpt lat="46.30594" lon="-1.29795">
        <ele>3.3</ele>
        <time>2021-06-17T11:47:47.000Z</time>
      </trkpt>
      <trkpt lat="46.30593" lon="-1.29795">
        <ele>3.3</ele>
        <time>2021-06-17T11:47:48.000Z</time>
      </trkpt>
      <trkpt lat="46.30592" lon="-1.29796">
        <ele>3.3</ele>
        <time>2021-06-17T11:47:49.000Z</time>
      </trkpt>
      <trkpt lat="46.30591" lon="-1.29796">
        <ele>3.4</ele>
        <time>2021-06-17T11:47:50.000Z</time>
      </trkpt>
      <trkpt lat="46.3059" lon="-1.29796">
        <ele>3.4</ele>
        <time>2021-06-17T11:47:51.000Z</time>
      </trkpt>
      <trkpt lat="46.30589" lon="-1.29796">
        <ele>3.4</ele>
        <time>2021-06-17T11:47:52.000Z</time>
      </trkpt>
      <trkpt lat="46.30588" lon="-1.29797">
        <ele>3.4</ele>
        <time>2021-06-17T11:47:53.000Z</time>
      </trkpt>
      <trkpt lat="46.30587" lon="-1.29797">
        <ele>3.5</ele>
        <time>2021-06-17T11:47:54.000Z</time>
      </trkpt>
      <trkpt lat="46.30587" lon="-1.29797">
        <ele>3.5</ele>
        <time>2021-06-17T11:47:55.000Z</time>
      </trkpt>
      <trkpt lat="46.30586" lon="-1.29797">
        <ele>3.5</ele>
        <time>2021-06-17T11:47:56.000Z</time>
      </trkpt>
      <trkpt lat="46.30585" lon="-1.29796">
        <ele>3.5</ele>
        <time>2021-06-17T11:47:57.000Z</time>
      </trkpt>
      <trkpt lat="46.30585" lon="-1.29796">
        <ele>3.5</ele>
        <time>2021-06-17T11:47:58.000Z</time>
      </trkpt>
      <trkpt lat="46.30584" lon="-1.29796">
        <ele>3.5</ele>
        <time>2021-06-17T11:47:59.000Z</time>
      </trkpt>
      <trkpt lat="46.30584" lon="-1.29796">
        <ele>3.5</ele>
        <time>2021-06-17T11:48:00.000Z</time>
      </trkpt>
      <trkpt lat="46.30584" lon="-1.29796">
        <ele>3.5</ele>
        <time>2021-06-17T11:48:01.000Z</time>
      </trkpt>
      <trkpt lat="46.30583" lon="-1.29796">
        <ele>3.5</ele>
        <time>2021-06-17T11:48:02.000Z</time>
      </trkpt>
      <trkpt lat="46.30583" lon="-1.29795">
        <ele>3.5</ele>
        <time>2021-06-17T11:48:03.000Z</time>
      </trkpt>
      <trkpt lat="46.30583" lon="-1.29795">
        <ele>3.5</ele>
        <time>2021-06-17T11:48:04.000Z</time>
      </trkpt>
      <trkpt lat="46.30583" lon="-1.29795">
        <ele>3.5</ele>
        <time>2021-06-17T11:48:05.000Z</time>
      </trkpt>
      <trkpt lat="46.30583" lon="-1.29795">
        <ele>3.5</ele>
        <time>2021-06-17T11:48:06.000Z</time>
      </trkpt>
      <trkpt lat="46.30583" lon="-1.29795">
        <ele>3.5</ele>
        <time>2021-06-17T11:48:07.000Z</time>
      </trkpt>
      <trkpt lat="46.30583" lon="-1.29795">
        <ele>3.5</ele>
        <time>2021-06-17T11:48:08.000Z</time>
      </trkpt>
      <trkpt lat="46.30583" lon="-1.29795">
        <ele>3.5</ele>
        <time>2021-06-17T11:48:09.000Z</time>
      </trkpt>
      <trkpt lat="46.30583" lon="-1.29795">
        <ele>3.5</ele>
        <time>2021-06-17T11:48:10.000Z</time>
      </trkpt>
      <trkpt lat="46.30583" lon="-1.29795">
        <ele>3.5</ele>
        <time>2021-06-17T11:48:11.000Z</time>
      </trkpt>
      <trkpt lat="46.30583" lon="-1.29795">
        <ele>3.5</ele>
        <time>2021-06-17T11:48:12.000Z</time>
      </trkpt>
      <trkpt lat="46.30583" lon="-1.29795">
        <ele>3.5</ele>
        <time>2021-06-17T11:48:13.000Z</time>
      </trkpt>
      <trkpt lat="46.30583" lon="-1.29795">
        <ele>3.5</ele>
        <time>2021-06-17T11:48:14.000Z</time>
      </trkpt>
      <trkpt lat="46.30582" lon="-1.29795">
        <ele>3.5</ele>
        <time>2021-06-17T11:48:15.000Z</time>
      </trkpt>
      <trkpt lat="46.30581" lon="-1.29795">
        <ele>3.5</ele>
        <time>2021-06-17T11:48:16.000Z</time>
      </trkpt>
      <trkpt lat="46.30581" lon="-1.29795">
        <ele>3.5</ele>
        <time>2021-06-17T11:48:17.000Z</time>
      </trkpt>
      <trkpt lat="46.3058" lon="-1.29795">
        <ele>3.5</ele>
        <time>2021-06-17T11:48:18.000Z</time>
      </trkpt>
      <trkpt lat="46.30578" lon="-1.29796">
        <ele>3.5</ele>
        <time>2021-06-17T11:48:19.000Z</time>
      </trkpt>
      <trkpt lat="46.30577" lon="-1.29796">
        <ele>3.5</ele>
        <time>2021-06-17T11:48:20.000Z</time>
      </trkpt>
      <trkpt lat="46.30576" lon="-1.29796">
        <ele>3.6</ele>
        <time>2021-06-17T11:48:21.000Z</time>
      </trkpt>
      <trkpt lat="46.30575" lon="-1.29797">
        <ele>3.6</ele>
        <time>2021-06-17T11:48:22.000Z</time>
      </trkpt>
      <trkpt lat="46.30574" lon="-1.29797">
        <ele>3.6</ele>
        <time>2021-06-17T11:48:23.000Z</time>
      </trkpt>
      <trkpt lat="46.30573" lon="-1.29798">
        <ele>3.6</ele>
        <time>2021-06-17T11:48:24.000Z</time>
      </trkpt>
      <trkpt lat="46.30572" lon="-1.29799">
        <ele>3.6</ele>
        <time>2021-06-17T11:48:25.000Z</time>
      </trkpt>
      <trkpt lat="46.30571" lon="-1.298">
        <ele>3.6</ele>
        <time>2021-06-17T11:48:26.000Z</time>
      </trkpt>
      <trkpt lat="46.3057" lon="-1.298">
        <ele>3.6</ele>
        <time>2021-06-17T11:48:27.000Z</time>
      </trkpt>
      <trkpt lat="46.30569" lon="-1.29801">
        <ele>3.6</ele>
        <time>2021-06-17T11:48:28.000Z</time>
      </trkpt>
      <trkpt lat="46.30568" lon="-1.29802">
        <ele>3.6</ele>
        <time>2021-06-17T11:48:29.000Z</time>
      </trkpt>
      <trkpt lat="46.30567" lon="-1.29803">
        <ele>3.6</ele>
        <time>2021-06-17T11:48:30.000Z</time>
      </trkpt>
      <trkpt lat="46.30566" lon="-1.29804">
        <ele>3.6</ele>
        <time>2021-06-17T11:48:31.000Z</time>
      </trkpt>
      <trkpt lat="46.30565" lon="-1.29805">
        <ele>3.7</ele>
        <time>2021-06-17T11:48:32.000Z</time>
      </trkpt>
      <trkpt lat="46.30564" lon="-1.29806">
        <ele>3.7</ele>
        <time>2021-06-17T11:48:33.000Z</time>
      </trkpt>
      <trkpt lat="46.30563" lon="-1.29807">
        <ele>3.7</ele>
        <time>2021-06-17T11:48:34.000Z</time>
      </trkpt>
      <trkpt lat="46.30561" lon="-1.29807">
        <ele>3.7</ele>
        <time>2021-06-17T11:48:35.000Z</time>
      </trkpt>
      <trkpt lat="46.3056" lon="-1.29808">
        <ele>3.7</ele>
        <time>2021-06-17T11:48:36.000Z</time>
      </trkpt>
      <trkpt lat="46.30559" lon="-1.29808">
        <ele>3.7</ele>
        <time>2021-06-17T11:48:37.000Z</time>
      </trkpt>
      <trkpt lat="46.30558" lon="-1.29809">
        <ele>3.7</ele>
        <time>2021-06-17T11:48:38.000Z</time>
      </trkpt>
      <trkpt lat="46.30557" lon="-1.29809">
        <ele>3.7</ele>
        <time>2021-06-17T11:48:39.000Z</time>
      </trkpt>
      <trkpt lat="46.30556" lon="-1.2981">
        <ele>3.7</ele>
        <time>2021-06-17T11:48:40.000Z</time>
      </trkpt>
      <trkpt lat="46.30554" lon="-1.2981">
        <ele>3.7</ele>
        <time>2021-06-17T11:48:41.000Z</time>
      </trkpt>
      <trkpt lat="46.30553" lon="-1.2981">
        <ele>3.7</ele>
        <time>2021-06-17T11:48:42.000Z</time>
      </trkpt>
      <trkpt lat="46.30552" lon="-1.2981">
        <ele>3.7</ele>
        <time>2021-06-17T11:48:43.000Z</time>
      </trkpt>
      <trkpt lat="46.30551" lon="-1.29811">
        <ele>3.7</ele>
        <time>2021-06-17T11:48:44.000Z</time>
      </trkpt>
      <trkpt lat="46.30549" lon="-1.29811">
        <ele>3.7</ele>
        <time>2021-06-17T11:48:45.000Z</time>
      </trkpt>
      <trkpt lat="46.30548" lon="-1.29811">
        <ele>3.7</ele>
        <time>2021-06-17T11:48:46.000Z</time>
      </trkpt>
      <trkpt lat="46.30547" lon="-1.29811">
        <ele>3.7</ele>
        <time>2021-06-17T11:48:47.000Z</time>
      </trkpt>
      <trkpt lat="46.30546" lon="-1.29811">
        <ele>3.7</ele>
        <time>2021-06-17T11:48:48.000Z</time>
      </trkpt>
      <trkpt lat="46.30544" lon="-1.29811">
        <ele>3.7</ele>
        <time>2021-06-17T11:48:49.000Z</time>
      </trkpt>
      <trkpt lat="46.30543" lon="-1.29811">
        <ele>3.7</ele>
        <time>2021-06-17T11:48:50.000Z</time>
      </trkpt>
      <trkpt lat="46.30542" lon="-1.29811">
        <ele>3.7</ele>
        <time>2021-06-17T11:48:51.000Z</time>
      </trkpt>
      <trkpt lat="46.30541" lon="-1.29811">
        <ele>3.7</ele>
        <time>2021-06-17T11:48:52.000Z</time>
      </trkpt>
      <trkpt lat="46.30539" lon="-1.29812">
        <ele>3.7</ele>
        <time>2021-06-17T11:48:53.000Z</time>
      </trkpt>
      <trkpt lat="46.30538" lon="-1.29812">
        <ele>3.7</ele>
        <time>2021-06-17T11:48:54.000Z</time>
      </trkpt>
      <trkpt lat="46.30537" lon="-1.29812">
        <ele>3.7</ele>
        <time>2021-06-17T11:48:55.000Z</time>
      </trkpt>
      <trkpt lat="46.30536" lon="-1.29812">
        <ele>3.7</ele>
        <time>2021-06-17T11:48:56.000Z</time>
      </trkpt>
      <trkpt lat="46.30535" lon="-1.29812">
        <ele>3.7</ele>
        <time>2021-06-17T11:48:57.000Z</time>
      </trkpt>
      <trkpt lat="46.30533" lon="-1.29812">
        <ele>3.7</ele>
        <time>2021-06-17T11:48:58.000Z</time>
      </trkpt>
      <trkpt lat="46.30532" lon="-1.29812">
        <ele>3.7</ele>
        <time>2021-06-17T11:48:59.000Z</time>
      </trkpt>
      <trkpt lat="46.30531" lon="-1.29813">
        <ele>3.8</ele>
        <time>2021-06-17T11:49:00.000Z</time>
      </trkpt>
      <trkpt lat="46.3053" lon="-1.29813">
        <ele>3.8</ele>
        <time>2021-06-17T11:49:01.000Z</time>
      </trkpt>
      <trkpt lat="46.30529" lon="-1.29813">
        <ele>3.8</ele>
        <time>2021-06-17T11:49:02.000Z</time>
      </trkpt>
      <trkpt lat="46.30527" lon="-1.29813">
        <ele>3.8</ele>
        <time>2021-06-17T11:49:03.000Z</time>
      </trkpt>
      <trkpt lat="46.30526" lon="-1.29813">
        <ele>3.8</ele>
        <time>2021-06-17T11:49:04.000Z</time>
      </trkpt>
      <trkpt lat="46.30525" lon="-1.29814">
        <ele>3.8</ele>
        <time>2021-06-17T11:49:05.000Z</time>
      </trkpt>
      <trkpt lat="46.30524" lon="-1.29814">
        <ele>3.8</ele>
        <time>2021-06-17T11:49:06.000Z</time>
      </trkpt>
      <trkpt lat="46.30523" lon="-1.29814">
        <ele>3.8</ele>
        <time>2021-06-17T11:49:07.000Z</time>
      </trkpt>
      <trkpt lat="46.30522" lon="-1.29814">
        <ele>3.8</ele>
        <time>2021-06-17T11:49:08.000Z</time>
      </trkpt>
      <trkpt lat="46.3052" lon="-1.29814">
        <ele>3.8</ele>
        <time>2021-06-17T11:49:09.000Z</time>
      </trkpt>
      <trkpt lat="46.30519" lon="-1.29815">
        <ele>3.8</ele>
        <time>2021-06-17T11:49:10.000Z</time>
      </trkpt>
      <trkpt lat="46.30518" lon="-1.29815">
        <ele>3.8</ele>
        <time>2021-06-17T11:49:11.000Z</time>
      </trkpt>
      <trkpt lat="46.30517" lon="-1.29815">
        <ele>3.8</ele>
        <time>2021-06-17T11:49:12.000Z</time>
      </trkpt>
      <trkpt lat="46.30516" lon="-1.29815">
        <ele>3.8</ele>
        <time>2021-06-17T11:49:13.000Z</time>
      </trkpt>
      <trkpt lat="46.30515" lon="-1.29816">
        <ele>3.8</ele>
        <time>2021-06-17T11:49:14.000Z</time>
      </trkpt>
      <trkpt lat="46.30513" lon="-1.29816">
        <ele>3.8</ele>
        <time>2021-06-17T11:49:15.000Z</time>
      </trkpt>
      <trkpt lat="46.30512" lon="-1.29816">
        <ele>3.8</ele>
        <time>2021-06-17T11:49:16.000Z</time>
      </trkpt>
      <trkpt lat="46.30511" lon="-1.29816">
        <ele>3.8</ele>
        <time>2021-06-17T11:49:17.000Z</time>
      </trkpt>
      <trkpt lat="46.3051" lon="-1.29817">
        <ele>3.8</ele>
        <time>2021-06-17T11:49:18.000Z</time>
      </trkpt>
      <trkpt lat="46.30509" lon="-1.29817">
        <ele>3.8</ele>
        <time>2021-06-17T11:49:19.000Z</time>
      </trkpt>
      <trkpt lat="46.30507" lon="-1.29817">
        <ele>3.8</ele>
        <time>2021-06-17T11:49:20.000Z</time>
      </trkpt>
      <trkpt lat="46.30506" lon="-1.29817">
        <ele>3.8</ele>
        <time>2021-06-17T11:49:21.000Z</time>
      </trkpt>
      <trkpt lat="46.30505" lon="-1.29818">
        <ele>3.8</ele>
        <time>2021-06-17T11:49:22.000Z</time>
      </trkpt>
      <trkpt lat="46.30504" lon="-1.29818">
        <ele>3.8</ele>
        <time>2021-06-17T11:49:23.000Z</time>
      </trkpt>
      <trkpt lat="46.30503" lon="-1.29818">
        <ele>3.8</ele>
        <time>2021-06-17T11:49:24.000Z</time>
      </trkpt>
      <trkpt lat="46.30502" lon="-1.29818">
        <ele>3.8</ele>
        <time>2021-06-17T11:49:25.000Z</time>
      </trkpt>
      <trkpt lat="46.305" lon="-1.29819">
        <ele>3.8</ele>
        <time>2021-06-17T11:49:26.000Z</time>
      </trkpt>
      <trkpt lat="46.30499" lon="-1.29819">
        <ele>3.8</ele>
        <time>2021-06-17T11:49:27.000Z</time>
      </trkpt>
      <trkpt lat="46.30498" lon="-1.29819">
        <ele>3.9</ele>
        <time>2021-06-17T11:49:28.000Z</time>
      </trkpt>
      <trkpt lat="46.30497" lon="-1.2982">
        <ele>3.9</ele>
        <time>2021-06-17T11:49:29.000Z</time>
      </trkpt>
      <trkpt lat="46.30496" lon="-1.2982">
        <ele>3.9</ele>
        <time>2021-06-17T11:49:30.000Z</time>
      </trkpt>
      <trkpt lat="46.30495" lon="-1.2982">
        <ele>4</ele>
        <time>2021-06-17T11:49:31.000Z</time>
      </trkpt>
      <trkpt lat="46.30493" lon="-1.2982">
        <ele>4</ele>
        <time>2021-06-17T11:49:32.000Z</time>
      </trkpt>
      <trkpt lat="46.30492" lon="-1.29821">
        <ele>4</ele>
        <time>2021-06-17T11:49:33.000Z</time>
      </trkpt>
      <trkpt lat="46.30491" lon="-1.29821">
        <ele>4.1</ele>
        <time>2021-06-17T11:49:34.000Z</time>
      </trkpt>
      <trkpt lat="46.3049" lon="-1.29821">
        <ele>4.1</ele>
        <time>2021-06-17T11:49:35.000Z</time>
      </trkpt>
      <trkpt lat="46.30489" lon="-1.29822">
        <ele>4.1</ele>
        <time>2021-06-17T11:49:36.000Z</time>
      </trkpt>
      <trkpt lat="46.30488" lon="-1.29822">
        <ele>4.1</ele>
        <time>2021-06-17T11:49:37.000Z</time>
      </trkpt>
      <trkpt lat="46.30486" lon="-1.29822">
        <ele>4.2</ele>
        <time>2021-06-17T11:49:38.000Z</time>
      </trkpt>
      <trkpt lat="46.30485" lon="-1.29823">
        <ele>4.2</ele>
        <time>2021-06-17T11:49:39.000Z</time>
      </trkpt>
      <trkpt lat="46.30484" lon="-1.29823">
        <ele>4.2</ele>
        <time>2021-06-17T11:49:40.000Z</time>
      </trkpt>
      <trkpt lat="46.30483" lon="-1.29823">
        <ele>4.3</ele>
        <time>2021-06-17T11:49:41.000Z</time>
      </trkpt>
      <trkpt lat="46.30482" lon="-1.29824">
        <ele>4.3</ele>
        <time>2021-06-17T11:49:42.000Z</time>
      </trkpt>
      <trkpt lat="46.3048" lon="-1.29824">
        <ele>4.3</ele>
        <time>2021-06-17T11:49:43.000Z</time>
      </trkpt>
      <trkpt lat="46.30479" lon="-1.29824">
        <ele>4.4</ele>
        <time>2021-06-17T11:49:44.000Z</time>
      </trkpt>
      <trkpt lat="46.30478" lon="-1.29824">
        <ele>4.4</ele>
        <time>2021-06-17T11:49:45.000Z</time>
      </trkpt>
      <trkpt lat="46.30477" lon="-1.29825">
        <ele>4.4</ele>
        <time>2021-06-17T11:49:46.000Z</time>
      </trkpt>
      <trkpt lat="46.30476" lon="-1.29825">
        <ele>4.5</ele>
        <time>2021-06-17T11:49:47.000Z</time>
      </trkpt>
      <trkpt lat="46.30475" lon="-1.29825">
        <ele>4.5</ele>
        <time>2021-06-17T11:49:48.000Z</time>
      </trkpt>
      <trkpt lat="46.30474" lon="-1.29826">
        <ele>4.5</ele>
        <time>2021-06-17T11:49:49.000Z</time>
      </trkpt>
      <trkpt lat="46.30472" lon="-1.29826">
        <ele>4.5</ele>
        <time>2021-06-17T11:49:50.000Z</time>
      </trkpt>
      <trkpt lat="46.30471" lon="-1.29826">
        <ele>4.6</ele>
        <time>2021-06-17T11:49:51.000Z</time>
      </trkpt>
      <trkpt lat="46.3047" lon="-1.29827">
        <ele>4.6</ele>
        <time>2021-06-17T11:49:52.000Z</time>
      </trkpt>
      <trkpt lat="46.30469" lon="-1.29827">
        <ele>4.6</ele>
        <time>2021-06-17T11:49:53.000Z</time>
      </trkpt>
      <trkpt lat="46.30468" lon="-1.29827">
        <ele>4.7</ele>
        <time>2021-06-17T11:49:54.000Z</time>
      </trkpt>
      <trkpt lat="46.30467" lon="-1.29828">
        <ele>4.7</ele>
        <time>2021-06-17T11:49:55.000Z</time>
      </trkpt>
      <trkpt lat="46.30465" lon="-1.29828">
        <ele>4.7</ele>
        <time>2021-06-17T11:49:56.000Z</time>
      </trkpt>
      <trkpt lat="46.30464" lon="-1.29828">
        <ele>4.8</ele>
        <time>2021-06-17T11:49:57.000Z</time>
      </trkpt>
      <trkpt lat="46.30463" lon="-1.29829">
        <ele>4.8</ele>
        <time>2021-06-17T11:49:58.000Z</time>
      </trkpt>
      <trkpt lat="46.30462" lon="-1.29829">
        <ele>4.8</ele>
        <time>2021-06-17T11:49:59.000Z</time>
      </trkpt>
      <trkpt lat="46.30461" lon="-1.29829">
        <ele>4.9</ele>
        <time>2021-06-17T11:50:00.000Z</time>
      </trkpt>
      <trkpt lat="46.3046" lon="-1.2983">
        <ele>4.9</ele>
        <time>2021-06-17T11:50:01.000Z</time>
      </trkpt>
      <trkpt lat="46.30459" lon="-1.2983">
        <ele>4.9</ele>
        <time>2021-06-17T11:50:02.000Z</time>
      </trkpt>
      <trkpt lat="46.30458" lon="-1.2983">
        <ele>5</ele>
        <time>2021-06-17T11:50:03.000Z</time>
      </trkpt>
      <trkpt lat="46.30456" lon="-1.29831">
        <ele>5</ele>
        <time>2021-06-17T11:50:04.000Z</time>
      </trkpt>
      <trkpt lat="46.30455" lon="-1.29831">
        <ele>5</ele>
        <time>2021-06-17T11:50:05.000Z</time>
      </trkpt>
      <trkpt lat="46.30454" lon="-1.29831">
        <ele>5.1</ele>
        <time>2021-06-17T11:50:06.000Z</time>
      </trkpt>
      <trkpt lat="46.30453" lon="-1.29832">
        <ele>5.1</ele>
        <time>2021-06-17T11:50:07.000Z</time>
      </trkpt>
      <trkpt lat="46.30452" lon="-1.29832">
        <ele>5.1</ele>
        <time>2021-06-17T11:50:08.000Z</time>
      </trkpt>
      <trkpt lat="46.30451" lon="-1.29832">
        <ele>5.2</ele>
        <time>2021-06-17T11:50:09.000Z</time>
      </trkpt>
      <trkpt lat="46.3045" lon="-1.29833">
        <ele>5.2</ele>
        <time>2021-06-17T11:50:10.000Z</time>
      </trkpt>
      <trkpt lat="46.30449" lon="-1.29833">
        <ele>5.2</ele>
        <time>2021-06-17T11:50:11.000Z</time>
      </trkpt>
      <trkpt lat="46.30448" lon="-1.29833">
        <ele>5.3</ele>
        <time>2021-06-17T11:50:12.000Z</time>
      </trkpt>
    </trkseg>
  </trk>
</gpx>